<?xml version="1.0" encoding="UTF-8" standalone="no" ?>
<gpx xmlns="http://www.topografix.com/GPX/1/1" xmlns:xsi="http://www.w3.org/2001/XMLSchema-instance" xsi:schemaLocation="http://www.topografix.com/GPX/1/1 http://www.topografix.com/GPX/1/1/gpx.xsd" version="1.1" creator="VisuGPX - https://www.visugpx.com">
  <metadata>
    <name>2014-04-21 La Coq\'in de St Romain d\'Ay(07)</name>
    <desc><![CDATA[beau parcours bucolique et 38kms ]]></desc>
  </metadata>
  <trk>
    <name><![CDATA[2014-04-21 Vtt St Romain d'Ay]]></name>
    <trkseg>
      <trkpt lat="45.16433" lon="4.66214">
        <ele>459.3</ele>
        <time>2014-04-21T06:08:47Z</time>
      </trkpt>
      <trkpt lat="45.16433" lon="4.66214">
        <ele>459.4</ele>
        <time>2014-04-21T06:08:48Z</time>
      </trkpt>
      <trkpt lat="45.16397" lon="4.66238">
        <ele>455.6</ele>
        <time>2014-04-21T06:09:01Z</time>
      </trkpt>
      <trkpt lat="45.16403" lon="4.66226">
        <ele>456.3</ele>
        <time>2014-04-21T06:09:06Z</time>
      </trkpt>
      <trkpt lat="45.16409" lon="4.66226">
        <ele>456.7</ele>
        <time>2014-04-21T06:09:09Z</time>
      </trkpt>
      <trkpt lat="45.16414" lon="4.66225">
        <ele>457.1</ele>
        <time>2014-04-21T06:09:12Z</time>
      </trkpt>
      <trkpt lat="45.16418" lon="4.6623">
        <ele>457.5</ele>
        <time>2014-04-21T06:09:18Z</time>
      </trkpt>
      <trkpt lat="45.16419" lon="4.66238">
        <ele>457.4</ele>
        <time>2014-04-21T06:09:21Z</time>
      </trkpt>
      <trkpt lat="45.1642" lon="4.66246">
        <ele>457.5</ele>
        <time>2014-04-21T06:09:24Z</time>
      </trkpt>
      <trkpt lat="45.16421" lon="4.66255">
        <ele>457.4</ele>
        <time>2014-04-21T06:09:27Z</time>
      </trkpt>
      <trkpt lat="45.16422" lon="4.66263">
        <ele>457.2</ele>
        <time>2014-04-21T06:09:29Z</time>
      </trkpt>
      <trkpt lat="45.16424" lon="4.66271">
        <ele>457.1</ele>
        <time>2014-04-21T06:09:31Z</time>
      </trkpt>
      <trkpt lat="45.16424" lon="4.66278">
        <ele>457</ele>
        <time>2014-04-21T06:09:33Z</time>
      </trkpt>
      <trkpt lat="45.16426" lon="4.66286">
        <ele>456.9</ele>
        <time>2014-04-21T06:09:35Z</time>
      </trkpt>
      <trkpt lat="45.16427" lon="4.66294">
        <ele>456.6</ele>
        <time>2014-04-21T06:09:37Z</time>
      </trkpt>
      <trkpt lat="45.16427" lon="4.66302">
        <ele>456.4</ele>
        <time>2014-04-21T06:09:39Z</time>
      </trkpt>
      <trkpt lat="45.16428" lon="4.66309">
        <ele>456.2</ele>
        <time>2014-04-21T06:09:41Z</time>
      </trkpt>
      <trkpt lat="45.16433" lon="4.6631">
        <ele>456.7</ele>
        <time>2014-04-21T06:09:44Z</time>
      </trkpt>
      <trkpt lat="45.16438" lon="4.6631">
        <ele>457.2</ele>
        <time>2014-04-21T06:09:47Z</time>
      </trkpt>
      <trkpt lat="45.16441" lon="4.66316">
        <ele>457.4</ele>
        <time>2014-04-21T06:09:51Z</time>
      </trkpt>
      <trkpt lat="45.16443" lon="4.66324">
        <ele>457.2</ele>
        <time>2014-04-21T06:09:54Z</time>
      </trkpt>
      <trkpt lat="45.16444" lon="4.66333">
        <ele>456.9</ele>
        <time>2014-04-21T06:09:57Z</time>
      </trkpt>
      <trkpt lat="45.16444" lon="4.6634">
        <ele>456.8</ele>
        <time>2014-04-21T06:09:59Z</time>
      </trkpt>
      <trkpt lat="45.16444" lon="4.66347">
        <ele>456.7</ele>
        <time>2014-04-21T06:10:01Z</time>
      </trkpt>
      <trkpt lat="45.16443" lon="4.66354">
        <ele>456.3</ele>
        <time>2014-04-21T06:10:03Z</time>
      </trkpt>
      <trkpt lat="45.16443" lon="4.66364">
        <ele>456.1</ele>
        <time>2014-04-21T06:10:06Z</time>
      </trkpt>
      <trkpt lat="45.16444" lon="4.6637">
        <ele>456</ele>
        <time>2014-04-21T06:10:08Z</time>
      </trkpt>
      <trkpt lat="45.16444" lon="4.66377">
        <ele>455.9</ele>
        <time>2014-04-21T06:10:10Z</time>
      </trkpt>
      <trkpt lat="45.16444" lon="4.66383">
        <ele>455.8</ele>
        <time>2014-04-21T06:10:12Z</time>
      </trkpt>
      <trkpt lat="45.16444" lon="4.6639">
        <ele>455.6</ele>
        <time>2014-04-21T06:10:14Z</time>
      </trkpt>
      <trkpt lat="45.16444" lon="4.66396">
        <ele>455.5</ele>
        <time>2014-04-21T06:10:16Z</time>
      </trkpt>
      <trkpt lat="45.16444" lon="4.66403">
        <ele>455.3</ele>
        <time>2014-04-21T06:10:18Z</time>
      </trkpt>
      <trkpt lat="45.16444" lon="4.66411">
        <ele>455.1</ele>
        <time>2014-04-21T06:10:20Z</time>
      </trkpt>
      <trkpt lat="45.16444" lon="4.66419">
        <ele>455</ele>
        <time>2014-04-21T06:10:22Z</time>
      </trkpt>
      <trkpt lat="45.16445" lon="4.66426">
        <ele>455.1</ele>
        <time>2014-04-21T06:10:24Z</time>
      </trkpt>
      <trkpt lat="45.16446" lon="4.66433">
        <ele>455.3</ele>
        <time>2014-04-21T06:10:26Z</time>
      </trkpt>
      <trkpt lat="45.16449" lon="4.66439">
        <ele>455.5</ele>
        <time>2014-04-21T06:10:28Z</time>
      </trkpt>
      <trkpt lat="45.16453" lon="4.66441">
        <ele>456</ele>
        <time>2014-04-21T06:10:30Z</time>
      </trkpt>
      <trkpt lat="45.16458" lon="4.66441">
        <ele>456.5</ele>
        <time>2014-04-21T06:10:32Z</time>
      </trkpt>
      <trkpt lat="45.16463" lon="4.66439">
        <ele>456.9</ele>
        <time>2014-04-21T06:10:34Z</time>
      </trkpt>
      <trkpt lat="45.16468" lon="4.66438">
        <ele>457.4</ele>
        <time>2014-04-21T06:10:36Z</time>
      </trkpt>
      <trkpt lat="45.16473" lon="4.66437">
        <ele>458</ele>
        <time>2014-04-21T06:10:38Z</time>
      </trkpt>
      <trkpt lat="45.16478" lon="4.66438">
        <ele>458.5</ele>
        <time>2014-04-21T06:10:40Z</time>
      </trkpt>
      <trkpt lat="45.16483" lon="4.66439">
        <ele>459</ele>
        <time>2014-04-21T06:10:42Z</time>
      </trkpt>
      <trkpt lat="45.16493" lon="4.66444">
        <ele>459.9</ele>
        <time>2014-04-21T06:10:46Z</time>
      </trkpt>
      <trkpt lat="45.16499" lon="4.66447">
        <ele>460.6</ele>
        <time>2014-04-21T06:10:49Z</time>
      </trkpt>
      <trkpt lat="45.16506" lon="4.66449">
        <ele>460.9</ele>
        <time>2014-04-21T06:10:52Z</time>
      </trkpt>
      <trkpt lat="45.1651" lon="4.66451">
        <ele>461.1</ele>
        <time>2014-04-21T06:10:54Z</time>
      </trkpt>
      <trkpt lat="45.16515" lon="4.66452">
        <ele>461.4</ele>
        <time>2014-04-21T06:10:56Z</time>
      </trkpt>
      <trkpt lat="45.16522" lon="4.66454">
        <ele>461.7</ele>
        <time>2014-04-21T06:10:59Z</time>
      </trkpt>
      <trkpt lat="45.16528" lon="4.66457">
        <ele>462</ele>
        <time>2014-04-21T06:11:02Z</time>
      </trkpt>
      <trkpt lat="45.16533" lon="4.66459">
        <ele>462.3</ele>
        <time>2014-04-21T06:11:04Z</time>
      </trkpt>
      <trkpt lat="45.16538" lon="4.6646">
        <ele>462.5</ele>
        <time>2014-04-21T06:11:06Z</time>
      </trkpt>
      <trkpt lat="45.16543" lon="4.66461">
        <ele>462.8</ele>
        <time>2014-04-21T06:11:08Z</time>
      </trkpt>
      <trkpt lat="45.16547" lon="4.66463">
        <ele>463</ele>
        <time>2014-04-21T06:11:10Z</time>
      </trkpt>
      <trkpt lat="45.16552" lon="4.66465">
        <ele>463.3</ele>
        <time>2014-04-21T06:11:12Z</time>
      </trkpt>
      <trkpt lat="45.16557" lon="4.6647">
        <ele>463.5</ele>
        <time>2014-04-21T06:11:15Z</time>
      </trkpt>
      <trkpt lat="45.1656" lon="4.66478">
        <ele>463.7</ele>
        <time>2014-04-21T06:11:18Z</time>
      </trkpt>
      <trkpt lat="45.16562" lon="4.66487">
        <ele>463.8</ele>
        <time>2014-04-21T06:11:21Z</time>
      </trkpt>
      <trkpt lat="45.16565" lon="4.66495">
        <ele>463.9</ele>
        <time>2014-04-21T06:11:24Z</time>
      </trkpt>
      <trkpt lat="45.16567" lon="4.66503">
        <ele>463.9</ele>
        <time>2014-04-21T06:11:27Z</time>
      </trkpt>
      <trkpt lat="45.16568" lon="4.66513">
        <ele>463.7</ele>
        <time>2014-04-21T06:11:30Z</time>
      </trkpt>
      <trkpt lat="45.1657" lon="4.66519">
        <ele>463.6</ele>
        <time>2014-04-21T06:11:32Z</time>
      </trkpt>
      <trkpt lat="45.16571" lon="4.66525">
        <ele>463.4</ele>
        <time>2014-04-21T06:11:34Z</time>
      </trkpt>
      <trkpt lat="45.16574" lon="4.66532">
        <ele>463.3</ele>
        <time>2014-04-21T06:11:36Z</time>
      </trkpt>
      <trkpt lat="45.16576" lon="4.66538">
        <ele>463.2</ele>
        <time>2014-04-21T06:11:38Z</time>
      </trkpt>
      <trkpt lat="45.16578" lon="4.66544">
        <ele>463.1</ele>
        <time>2014-04-21T06:11:40Z</time>
      </trkpt>
      <trkpt lat="45.16581" lon="4.66551">
        <ele>463</ele>
        <time>2014-04-21T06:11:42Z</time>
      </trkpt>
      <trkpt lat="45.16585" lon="4.66557">
        <ele>463</ele>
        <time>2014-04-21T06:11:44Z</time>
      </trkpt>
      <trkpt lat="45.16593" lon="4.66568">
        <ele>463</ele>
        <time>2014-04-21T06:11:48Z</time>
      </trkpt>
      <trkpt lat="45.16598" lon="4.66573">
        <ele>463</ele>
        <time>2014-04-21T06:11:50Z</time>
      </trkpt>
      <trkpt lat="45.16603" lon="4.66577">
        <ele>463.2</ele>
        <time>2014-04-21T06:11:52Z</time>
      </trkpt>
      <trkpt lat="45.16608" lon="4.66581">
        <ele>463.3</ele>
        <time>2014-04-21T06:11:54Z</time>
      </trkpt>
      <trkpt lat="45.16613" lon="4.66584">
        <ele>463.4</ele>
        <time>2014-04-21T06:11:56Z</time>
      </trkpt>
      <trkpt lat="45.16619" lon="4.66586">
        <ele>463.6</ele>
        <time>2014-04-21T06:11:58Z</time>
      </trkpt>
      <trkpt lat="45.16626" lon="4.66589">
        <ele>463.7</ele>
        <time>2014-04-21T06:12:00Z</time>
      </trkpt>
      <trkpt lat="45.16632" lon="4.6659">
        <ele>463.9</ele>
        <time>2014-04-21T06:12:02Z</time>
      </trkpt>
      <trkpt lat="45.16639" lon="4.66591">
        <ele>464.1</ele>
        <time>2014-04-21T06:12:04Z</time>
      </trkpt>
      <trkpt lat="45.16645" lon="4.66592">
        <ele>464.2</ele>
        <time>2014-04-21T06:12:06Z</time>
      </trkpt>
      <trkpt lat="45.16652" lon="4.66594">
        <ele>464.4</ele>
        <time>2014-04-21T06:12:08Z</time>
      </trkpt>
      <trkpt lat="45.16658" lon="4.66595">
        <ele>464.5</ele>
        <time>2014-04-21T06:12:10Z</time>
      </trkpt>
      <trkpt lat="45.16664" lon="4.66597">
        <ele>464.7</ele>
        <time>2014-04-21T06:12:12Z</time>
      </trkpt>
      <trkpt lat="45.16671" lon="4.666">
        <ele>463.9</ele>
        <time>2014-04-21T06:12:14Z</time>
      </trkpt>
      <trkpt lat="45.16677" lon="4.66604">
        <ele>462.9</ele>
        <time>2014-04-21T06:12:16Z</time>
      </trkpt>
      <trkpt lat="45.16684" lon="4.66609">
        <ele>461.8</ele>
        <time>2014-04-21T06:12:18Z</time>
      </trkpt>
      <trkpt lat="45.1669" lon="4.66615">
        <ele>460.6</ele>
        <time>2014-04-21T06:12:20Z</time>
      </trkpt>
      <trkpt lat="45.16695" lon="4.66621">
        <ele>459.6</ele>
        <time>2014-04-21T06:12:22Z</time>
      </trkpt>
      <trkpt lat="45.16701" lon="4.66627">
        <ele>458.4</ele>
        <time>2014-04-21T06:12:24Z</time>
      </trkpt>
      <trkpt lat="45.16707" lon="4.66634">
        <ele>457.1</ele>
        <time>2014-04-21T06:12:26Z</time>
      </trkpt>
      <trkpt lat="45.16712" lon="4.66641">
        <ele>456</ele>
        <time>2014-04-21T06:12:28Z</time>
      </trkpt>
      <trkpt lat="45.16715" lon="4.66648">
        <ele>455.1</ele>
        <time>2014-04-21T06:12:30Z</time>
      </trkpt>
      <trkpt lat="45.16717" lon="4.66654">
        <ele>454.3</ele>
        <time>2014-04-21T06:12:32Z</time>
      </trkpt>
      <trkpt lat="45.16717" lon="4.66662">
        <ele>453.6</ele>
        <time>2014-04-21T06:12:36Z</time>
      </trkpt>
      <trkpt lat="45.16714" lon="4.66669">
        <ele>453.3</ele>
        <time>2014-04-21T06:12:38Z</time>
      </trkpt>
      <trkpt lat="45.16711" lon="4.66676">
        <ele>453.1</ele>
        <time>2014-04-21T06:12:40Z</time>
      </trkpt>
      <trkpt lat="45.16707" lon="4.66684">
        <ele>452.9</ele>
        <time>2014-04-21T06:12:42Z</time>
      </trkpt>
      <trkpt lat="45.16704" lon="4.66693">
        <ele>452.6</ele>
        <time>2014-04-21T06:12:44Z</time>
      </trkpt>
      <trkpt lat="45.16701" lon="4.66703">
        <ele>452.3</ele>
        <time>2014-04-21T06:12:46Z</time>
      </trkpt>
      <trkpt lat="45.16696" lon="4.66722">
        <ele>451.4</ele>
        <time>2014-04-21T06:12:50Z</time>
      </trkpt>
      <trkpt lat="45.16694" lon="4.66732">
        <ele>451</ele>
        <time>2014-04-21T06:12:52Z</time>
      </trkpt>
      <trkpt lat="45.16692" lon="4.66742">
        <ele>450.5</ele>
        <time>2014-04-21T06:12:54Z</time>
      </trkpt>
      <trkpt lat="45.16689" lon="4.66753">
        <ele>450.2</ele>
        <time>2014-04-21T06:12:56Z</time>
      </trkpt>
      <trkpt lat="45.16687" lon="4.66763">
        <ele>450.4</ele>
        <time>2014-04-21T06:12:58Z</time>
      </trkpt>
      <trkpt lat="45.16686" lon="4.66775">
        <ele>450.4</ele>
        <time>2014-04-21T06:13:00Z</time>
      </trkpt>
      <trkpt lat="45.16686" lon="4.66786">
        <ele>450.2</ele>
        <time>2014-04-21T06:13:02Z</time>
      </trkpt>
      <trkpt lat="45.16688" lon="4.66798">
        <ele>449.8</ele>
        <time>2014-04-21T06:13:04Z</time>
      </trkpt>
      <trkpt lat="45.16689" lon="4.66805">
        <ele>449.6</ele>
        <time>2014-04-21T06:13:05Z</time>
      </trkpt>
      <trkpt lat="45.16691" lon="4.66818">
        <ele>449.2</ele>
        <time>2014-04-21T06:13:07Z</time>
      </trkpt>
      <trkpt lat="45.16692" lon="4.66824">
        <ele>449</ele>
        <time>2014-04-21T06:13:08Z</time>
      </trkpt>
      <trkpt lat="45.16693" lon="4.66831">
        <ele>448.8</ele>
        <time>2014-04-21T06:13:09Z</time>
      </trkpt>
      <trkpt lat="45.16695" lon="4.66838">
        <ele>448.8</ele>
        <time>2014-04-21T06:13:10Z</time>
      </trkpt>
      <trkpt lat="45.16696" lon="4.66844">
        <ele>448.9</ele>
        <time>2014-04-21T06:13:11Z</time>
      </trkpt>
      <trkpt lat="45.16698" lon="4.66851">
        <ele>449</ele>
        <time>2014-04-21T06:13:12Z</time>
      </trkpt>
      <trkpt lat="45.16699" lon="4.66857">
        <ele>449.1</ele>
        <time>2014-04-21T06:13:13Z</time>
      </trkpt>
      <trkpt lat="45.16701" lon="4.66864">
        <ele>449.1</ele>
        <time>2014-04-21T06:13:14Z</time>
      </trkpt>
      <trkpt lat="45.16704" lon="4.6687">
        <ele>449.1</ele>
        <time>2014-04-21T06:13:15Z</time>
      </trkpt>
      <trkpt lat="45.16706" lon="4.66876">
        <ele>449</ele>
        <time>2014-04-21T06:13:16Z</time>
      </trkpt>
      <trkpt lat="45.16709" lon="4.66882">
        <ele>449</ele>
        <time>2014-04-21T06:13:17Z</time>
      </trkpt>
      <trkpt lat="45.16711" lon="4.66887">
        <ele>448.9</ele>
        <time>2014-04-21T06:13:18Z</time>
      </trkpt>
      <trkpt lat="45.16714" lon="4.66893">
        <ele>448.8</ele>
        <time>2014-04-21T06:13:19Z</time>
      </trkpt>
      <trkpt lat="45.16716" lon="4.66899">
        <ele>448.7</ele>
        <time>2014-04-21T06:13:20Z</time>
      </trkpt>
      <trkpt lat="45.16719" lon="4.66904">
        <ele>448.6</ele>
        <time>2014-04-21T06:13:21Z</time>
      </trkpt>
      <trkpt lat="45.16722" lon="4.6691">
        <ele>448.4</ele>
        <time>2014-04-21T06:13:22Z</time>
      </trkpt>
      <trkpt lat="45.16725" lon="4.66915">
        <ele>448.2</ele>
        <time>2014-04-21T06:13:23Z</time>
      </trkpt>
      <trkpt lat="45.16729" lon="4.6692">
        <ele>447.9</ele>
        <time>2014-04-21T06:13:24Z</time>
      </trkpt>
      <trkpt lat="45.16732" lon="4.66925">
        <ele>447.6</ele>
        <time>2014-04-21T06:13:25Z</time>
      </trkpt>
      <trkpt lat="45.16735" lon="4.66931">
        <ele>447.2</ele>
        <time>2014-04-21T06:13:26Z</time>
      </trkpt>
      <trkpt lat="45.16738" lon="4.66936">
        <ele>446.9</ele>
        <time>2014-04-21T06:13:27Z</time>
      </trkpt>
      <trkpt lat="45.16741" lon="4.66942">
        <ele>446.5</ele>
        <time>2014-04-21T06:13:28Z</time>
      </trkpt>
      <trkpt lat="45.16743" lon="4.66948">
        <ele>446.3</ele>
        <time>2014-04-21T06:13:29Z</time>
      </trkpt>
      <trkpt lat="45.16745" lon="4.66954">
        <ele>446.1</ele>
        <time>2014-04-21T06:13:30Z</time>
      </trkpt>
      <trkpt lat="45.16747" lon="4.6696">
        <ele>445.9</ele>
        <time>2014-04-21T06:13:31Z</time>
      </trkpt>
      <trkpt lat="45.16749" lon="4.66966">
        <ele>445.7</ele>
        <time>2014-04-21T06:13:32Z</time>
      </trkpt>
      <trkpt lat="45.16751" lon="4.66973">
        <ele>445.5</ele>
        <time>2014-04-21T06:13:33Z</time>
      </trkpt>
      <trkpt lat="45.16753" lon="4.6698">
        <ele>445.3</ele>
        <time>2014-04-21T06:13:34Z</time>
      </trkpt>
      <trkpt lat="45.16756" lon="4.66987">
        <ele>445</ele>
        <time>2014-04-21T06:13:35Z</time>
      </trkpt>
      <trkpt lat="45.16758" lon="4.66994">
        <ele>444.7</ele>
        <time>2014-04-21T06:13:36Z</time>
      </trkpt>
      <trkpt lat="45.16761" lon="4.67001">
        <ele>444.3</ele>
        <time>2014-04-21T06:13:37Z</time>
      </trkpt>
      <trkpt lat="45.16764" lon="4.67008">
        <ele>444</ele>
        <time>2014-04-21T06:13:38Z</time>
      </trkpt>
      <trkpt lat="45.16767" lon="4.67015">
        <ele>443.7</ele>
        <time>2014-04-21T06:13:39Z</time>
      </trkpt>
      <trkpt lat="45.16771" lon="4.67022">
        <ele>443.3</ele>
        <time>2014-04-21T06:13:40Z</time>
      </trkpt>
      <trkpt lat="45.16774" lon="4.67029">
        <ele>443</ele>
        <time>2014-04-21T06:13:41Z</time>
      </trkpt>
      <trkpt lat="45.16778" lon="4.67035">
        <ele>442.7</ele>
        <time>2014-04-21T06:13:42Z</time>
      </trkpt>
      <trkpt lat="45.16782" lon="4.67041">
        <ele>442.2</ele>
        <time>2014-04-21T06:13:43Z</time>
      </trkpt>
      <trkpt lat="45.16787" lon="4.67047">
        <ele>441.8</ele>
        <time>2014-04-21T06:13:44Z</time>
      </trkpt>
      <trkpt lat="45.16792" lon="4.67052">
        <ele>441.4</ele>
        <time>2014-04-21T06:13:45Z</time>
      </trkpt>
      <trkpt lat="45.16796" lon="4.67059">
        <ele>441.1</ele>
        <time>2014-04-21T06:13:46Z</time>
      </trkpt>
      <trkpt lat="45.168" lon="4.67066">
        <ele>440.9</ele>
        <time>2014-04-21T06:13:47Z</time>
      </trkpt>
      <trkpt lat="45.16807" lon="4.67079">
        <ele>440.7</ele>
        <time>2014-04-21T06:13:49Z</time>
      </trkpt>
      <trkpt lat="45.16809" lon="4.67086">
        <ele>440.7</ele>
        <time>2014-04-21T06:13:50Z</time>
      </trkpt>
      <trkpt lat="45.16813" lon="4.67093">
        <ele>440.5</ele>
        <time>2014-04-21T06:13:51Z</time>
      </trkpt>
      <trkpt lat="45.16816" lon="4.67099">
        <ele>440.4</ele>
        <time>2014-04-21T06:13:52Z</time>
      </trkpt>
      <trkpt lat="45.16818" lon="4.67106">
        <ele>440.3</ele>
        <time>2014-04-21T06:13:53Z</time>
      </trkpt>
      <trkpt lat="45.1682" lon="4.67113">
        <ele>440.3</ele>
        <time>2014-04-21T06:13:54Z</time>
      </trkpt>
      <trkpt lat="45.16822" lon="4.6712">
        <ele>440.2</ele>
        <time>2014-04-21T06:13:55Z</time>
      </trkpt>
      <trkpt lat="45.16824" lon="4.67127">
        <ele>440.2</ele>
        <time>2014-04-21T06:13:56Z</time>
      </trkpt>
      <trkpt lat="45.16826" lon="4.67134">
        <ele>440.2</ele>
        <time>2014-04-21T06:13:57Z</time>
      </trkpt>
      <trkpt lat="45.16828" lon="4.67142">
        <ele>440.1</ele>
        <time>2014-04-21T06:13:58Z</time>
      </trkpt>
      <trkpt lat="45.1683" lon="4.67149">
        <ele>440</ele>
        <time>2014-04-21T06:13:59Z</time>
      </trkpt>
      <trkpt lat="45.16832" lon="4.67155">
        <ele>439.9</ele>
        <time>2014-04-21T06:14:00Z</time>
      </trkpt>
      <trkpt lat="45.16835" lon="4.67162">
        <ele>439.8</ele>
        <time>2014-04-21T06:14:01Z</time>
      </trkpt>
      <trkpt lat="45.16837" lon="4.67167">
        <ele>439.6</ele>
        <time>2014-04-21T06:14:02Z</time>
      </trkpt>
      <trkpt lat="45.16841" lon="4.67173">
        <ele>439.5</ele>
        <time>2014-04-21T06:14:03Z</time>
      </trkpt>
      <trkpt lat="45.16844" lon="4.67177">
        <ele>439.3</ele>
        <time>2014-04-21T06:14:04Z</time>
      </trkpt>
      <trkpt lat="45.16848" lon="4.67182">
        <ele>439.1</ele>
        <time>2014-04-21T06:14:05Z</time>
      </trkpt>
      <trkpt lat="45.16852" lon="4.67187">
        <ele>438.7</ele>
        <time>2014-04-21T06:14:06Z</time>
      </trkpt>
      <trkpt lat="45.16856" lon="4.67191">
        <ele>438.4</ele>
        <time>2014-04-21T06:14:07Z</time>
      </trkpt>
      <trkpt lat="45.16861" lon="4.67196">
        <ele>438.1</ele>
        <time>2014-04-21T06:14:08Z</time>
      </trkpt>
      <trkpt lat="45.16865" lon="4.67199">
        <ele>437.7</ele>
        <time>2014-04-21T06:14:09Z</time>
      </trkpt>
      <trkpt lat="45.1687" lon="4.67203">
        <ele>437.2</ele>
        <time>2014-04-21T06:14:10Z</time>
      </trkpt>
      <trkpt lat="45.16875" lon="4.67207">
        <ele>436.8</ele>
        <time>2014-04-21T06:14:11Z</time>
      </trkpt>
      <trkpt lat="45.1688" lon="4.67211">
        <ele>436.3</ele>
        <time>2014-04-21T06:14:12Z</time>
      </trkpt>
      <trkpt lat="45.16884" lon="4.67215">
        <ele>435.8</ele>
        <time>2014-04-21T06:14:13Z</time>
      </trkpt>
      <trkpt lat="45.16889" lon="4.6722">
        <ele>435.3</ele>
        <time>2014-04-21T06:14:14Z</time>
      </trkpt>
      <trkpt lat="45.16893" lon="4.67226">
        <ele>434.8</ele>
        <time>2014-04-21T06:14:15Z</time>
      </trkpt>
      <trkpt lat="45.16897" lon="4.67234">
        <ele>434.5</ele>
        <time>2014-04-21T06:14:16Z</time>
      </trkpt>
      <trkpt lat="45.16899" lon="4.67242">
        <ele>434.3</ele>
        <time>2014-04-21T06:14:17Z</time>
      </trkpt>
      <trkpt lat="45.16901" lon="4.6725">
        <ele>434.1</ele>
        <time>2014-04-21T06:14:18Z</time>
      </trkpt>
      <trkpt lat="45.16902" lon="4.67259">
        <ele>434</ele>
        <time>2014-04-21T06:14:19Z</time>
      </trkpt>
      <trkpt lat="45.16903" lon="4.67268">
        <ele>434</ele>
        <time>2014-04-21T06:14:20Z</time>
      </trkpt>
      <trkpt lat="45.16905" lon="4.67277">
        <ele>433.9</ele>
        <time>2014-04-21T06:14:21Z</time>
      </trkpt>
      <trkpt lat="45.16907" lon="4.67286">
        <ele>433.7</ele>
        <time>2014-04-21T06:14:22Z</time>
      </trkpt>
      <trkpt lat="45.16909" lon="4.67294">
        <ele>433.5</ele>
        <time>2014-04-21T06:14:23Z</time>
      </trkpt>
      <trkpt lat="45.16912" lon="4.67303">
        <ele>433.3</ele>
        <time>2014-04-21T06:14:24Z</time>
      </trkpt>
      <trkpt lat="45.16913" lon="4.67311">
        <ele>433.1</ele>
        <time>2014-04-21T06:14:25Z</time>
      </trkpt>
      <trkpt lat="45.16915" lon="4.67319">
        <ele>433.1</ele>
        <time>2014-04-21T06:14:26Z</time>
      </trkpt>
      <trkpt lat="45.16915" lon="4.67327">
        <ele>433.1</ele>
        <time>2014-04-21T06:14:27Z</time>
      </trkpt>
      <trkpt lat="45.16915" lon="4.67335">
        <ele>433.2</ele>
        <time>2014-04-21T06:14:28Z</time>
      </trkpt>
      <trkpt lat="45.16914" lon="4.67343">
        <ele>433.3</ele>
        <time>2014-04-21T06:14:29Z</time>
      </trkpt>
      <trkpt lat="45.16913" lon="4.67351">
        <ele>433.5</ele>
        <time>2014-04-21T06:14:30Z</time>
      </trkpt>
      <trkpt lat="45.16911" lon="4.67359">
        <ele>433.7</ele>
        <time>2014-04-21T06:14:31Z</time>
      </trkpt>
      <trkpt lat="45.16909" lon="4.67366">
        <ele>434</ele>
        <time>2014-04-21T06:14:32Z</time>
      </trkpt>
      <trkpt lat="45.16906" lon="4.67373">
        <ele>434.3</ele>
        <time>2014-04-21T06:14:33Z</time>
      </trkpt>
      <trkpt lat="45.16904" lon="4.6738">
        <ele>434.6</ele>
        <time>2014-04-21T06:14:34Z</time>
      </trkpt>
      <trkpt lat="45.16901" lon="4.67387">
        <ele>435</ele>
        <time>2014-04-21T06:14:35Z</time>
      </trkpt>
      <trkpt lat="45.16898" lon="4.67393">
        <ele>435.3</ele>
        <time>2014-04-21T06:14:36Z</time>
      </trkpt>
      <trkpt lat="45.16895" lon="4.67399">
        <ele>435.7</ele>
        <time>2014-04-21T06:14:37Z</time>
      </trkpt>
      <trkpt lat="45.16892" lon="4.67405">
        <ele>436</ele>
        <time>2014-04-21T06:14:38Z</time>
      </trkpt>
      <trkpt lat="45.1689" lon="4.67411">
        <ele>436.2</ele>
        <time>2014-04-21T06:14:39Z</time>
      </trkpt>
      <trkpt lat="45.16888" lon="4.67418">
        <ele>436.4</ele>
        <time>2014-04-21T06:14:40Z</time>
      </trkpt>
      <trkpt lat="45.16886" lon="4.67424">
        <ele>436.6</ele>
        <time>2014-04-21T06:14:41Z</time>
      </trkpt>
      <trkpt lat="45.16884" lon="4.67431">
        <ele>436.7</ele>
        <time>2014-04-21T06:14:42Z</time>
      </trkpt>
      <trkpt lat="45.16882" lon="4.67437">
        <ele>436.8</ele>
        <time>2014-04-21T06:14:43Z</time>
      </trkpt>
      <trkpt lat="45.16879" lon="4.67444">
        <ele>437.1</ele>
        <time>2014-04-21T06:14:44Z</time>
      </trkpt>
      <trkpt lat="45.16877" lon="4.67451">
        <ele>437.2</ele>
        <time>2014-04-21T06:14:45Z</time>
      </trkpt>
      <trkpt lat="45.16875" lon="4.67458">
        <ele>437.3</ele>
        <time>2014-04-21T06:14:46Z</time>
      </trkpt>
      <trkpt lat="45.16874" lon="4.67466">
        <ele>437.2</ele>
        <time>2014-04-21T06:14:47Z</time>
      </trkpt>
      <trkpt lat="45.16874" lon="4.67475">
        <ele>437.1</ele>
        <time>2014-04-21T06:14:48Z</time>
      </trkpt>
      <trkpt lat="45.16873" lon="4.67494">
        <ele>436.9</ele>
        <time>2014-04-21T06:14:50Z</time>
      </trkpt>
      <trkpt lat="45.16873" lon="4.67503">
        <ele>436.7</ele>
        <time>2014-04-21T06:14:51Z</time>
      </trkpt>
      <trkpt lat="45.16872" lon="4.67512">
        <ele>436.5</ele>
        <time>2014-04-21T06:14:52Z</time>
      </trkpt>
      <trkpt lat="45.16872" lon="4.67521">
        <ele>436.4</ele>
        <time>2014-04-21T06:14:53Z</time>
      </trkpt>
      <trkpt lat="45.1687" lon="4.67531">
        <ele>436.3</ele>
        <time>2014-04-21T06:14:54Z</time>
      </trkpt>
      <trkpt lat="45.16869" lon="4.6754">
        <ele>436.2</ele>
        <time>2014-04-21T06:14:55Z</time>
      </trkpt>
      <trkpt lat="45.16867" lon="4.67549">
        <ele>436.1</ele>
        <time>2014-04-21T06:14:56Z</time>
      </trkpt>
      <trkpt lat="45.16866" lon="4.67559">
        <ele>436.1</ele>
        <time>2014-04-21T06:14:57Z</time>
      </trkpt>
      <trkpt lat="45.16865" lon="4.67567">
        <ele>436</ele>
        <time>2014-04-21T06:14:58Z</time>
      </trkpt>
      <trkpt lat="45.16864" lon="4.67576">
        <ele>435.9</ele>
        <time>2014-04-21T06:14:59Z</time>
      </trkpt>
      <trkpt lat="45.16863" lon="4.67585">
        <ele>435.8</ele>
        <time>2014-04-21T06:15:00Z</time>
      </trkpt>
      <trkpt lat="45.16863" lon="4.67593">
        <ele>436.1</ele>
        <time>2014-04-21T06:15:01Z</time>
      </trkpt>
      <trkpt lat="45.16862" lon="4.67601">
        <ele>436.3</ele>
        <time>2014-04-21T06:15:02Z</time>
      </trkpt>
      <trkpt lat="45.16862" lon="4.67608">
        <ele>436.6</ele>
        <time>2014-04-21T06:15:03Z</time>
      </trkpt>
      <trkpt lat="45.16862" lon="4.67616">
        <ele>436.8</ele>
        <time>2014-04-21T06:15:04Z</time>
      </trkpt>
      <trkpt lat="45.16862" lon="4.67623">
        <ele>437</ele>
        <time>2014-04-21T06:15:05Z</time>
      </trkpt>
      <trkpt lat="45.16863" lon="4.6763">
        <ele>437.1</ele>
        <time>2014-04-21T06:15:06Z</time>
      </trkpt>
      <trkpt lat="45.16863" lon="4.67638">
        <ele>437.3</ele>
        <time>2014-04-21T06:15:07Z</time>
      </trkpt>
      <trkpt lat="45.16863" lon="4.67645">
        <ele>437.4</ele>
        <time>2014-04-21T06:15:08Z</time>
      </trkpt>
      <trkpt lat="45.16863" lon="4.67653">
        <ele>437.7</ele>
        <time>2014-04-21T06:15:09Z</time>
      </trkpt>
      <trkpt lat="45.16863" lon="4.67661">
        <ele>437.9</ele>
        <time>2014-04-21T06:15:10Z</time>
      </trkpt>
      <trkpt lat="45.16862" lon="4.67669">
        <ele>438.2</ele>
        <time>2014-04-21T06:15:11Z</time>
      </trkpt>
      <trkpt lat="45.16862" lon="4.67678">
        <ele>438.1</ele>
        <time>2014-04-21T06:15:12Z</time>
      </trkpt>
      <trkpt lat="45.16861" lon="4.67686">
        <ele>438.2</ele>
        <time>2014-04-21T06:15:13Z</time>
      </trkpt>
      <trkpt lat="45.16861" lon="4.67694">
        <ele>438.2</ele>
        <time>2014-04-21T06:15:14Z</time>
      </trkpt>
      <trkpt lat="45.1686" lon="4.67703">
        <ele>438.1</ele>
        <time>2014-04-21T06:15:15Z</time>
      </trkpt>
      <trkpt lat="45.1686" lon="4.67711">
        <ele>438.1</ele>
        <time>2014-04-21T06:15:16Z</time>
      </trkpt>
      <trkpt lat="45.16859" lon="4.6772">
        <ele>438.1</ele>
        <time>2014-04-21T06:15:17Z</time>
      </trkpt>
      <trkpt lat="45.16859" lon="4.67728">
        <ele>438</ele>
        <time>2014-04-21T06:15:18Z</time>
      </trkpt>
      <trkpt lat="45.16858" lon="4.67736">
        <ele>438</ele>
        <time>2014-04-21T06:15:19Z</time>
      </trkpt>
      <trkpt lat="45.16857" lon="4.67745">
        <ele>437.9</ele>
        <time>2014-04-21T06:15:20Z</time>
      </trkpt>
      <trkpt lat="45.16857" lon="4.67754">
        <ele>437.9</ele>
        <time>2014-04-21T06:15:21Z</time>
      </trkpt>
      <trkpt lat="45.16856" lon="4.67763">
        <ele>438.2</ele>
        <time>2014-04-21T06:15:22Z</time>
      </trkpt>
      <trkpt lat="45.16855" lon="4.67772">
        <ele>438.3</ele>
        <time>2014-04-21T06:15:23Z</time>
      </trkpt>
      <trkpt lat="45.16855" lon="4.67781">
        <ele>438.5</ele>
        <time>2014-04-21T06:15:24Z</time>
      </trkpt>
      <trkpt lat="45.16854" lon="4.6779">
        <ele>438.7</ele>
        <time>2014-04-21T06:15:25Z</time>
      </trkpt>
      <trkpt lat="45.16853" lon="4.67799">
        <ele>438.9</ele>
        <time>2014-04-21T06:15:26Z</time>
      </trkpt>
      <trkpt lat="45.16852" lon="4.67807">
        <ele>439.1</ele>
        <time>2014-04-21T06:15:27Z</time>
      </trkpt>
      <trkpt lat="45.16852" lon="4.67816">
        <ele>439.2</ele>
        <time>2014-04-21T06:15:28Z</time>
      </trkpt>
      <trkpt lat="45.16851" lon="4.67824">
        <ele>439.4</ele>
        <time>2014-04-21T06:15:29Z</time>
      </trkpt>
      <trkpt lat="45.16851" lon="4.67832">
        <ele>439.5</ele>
        <time>2014-04-21T06:15:30Z</time>
      </trkpt>
      <trkpt lat="45.16852" lon="4.67839">
        <ele>439.6</ele>
        <time>2014-04-21T06:15:31Z</time>
      </trkpt>
      <trkpt lat="45.16858" lon="4.67848">
        <ele>439.4</ele>
        <time>2014-04-21T06:15:33Z</time>
      </trkpt>
      <trkpt lat="45.16863" lon="4.67849">
        <ele>439.3</ele>
        <time>2014-04-21T06:15:34Z</time>
      </trkpt>
      <trkpt lat="45.16867" lon="4.67851">
        <ele>439.2</ele>
        <time>2014-04-21T06:15:35Z</time>
      </trkpt>
      <trkpt lat="45.16872" lon="4.67853">
        <ele>439.1</ele>
        <time>2014-04-21T06:15:36Z</time>
      </trkpt>
      <trkpt lat="45.16877" lon="4.67856">
        <ele>439</ele>
        <time>2014-04-21T06:15:37Z</time>
      </trkpt>
      <trkpt lat="45.16881" lon="4.67859">
        <ele>438.9</ele>
        <time>2014-04-21T06:15:38Z</time>
      </trkpt>
      <trkpt lat="45.16885" lon="4.67863">
        <ele>438.8</ele>
        <time>2014-04-21T06:15:39Z</time>
      </trkpt>
      <trkpt lat="45.1689" lon="4.67867">
        <ele>438.6</ele>
        <time>2014-04-21T06:15:40Z</time>
      </trkpt>
      <trkpt lat="45.16895" lon="4.67871">
        <ele>438.5</ele>
        <time>2014-04-21T06:15:41Z</time>
      </trkpt>
      <trkpt lat="45.169" lon="4.67874">
        <ele>438.4</ele>
        <time>2014-04-21T06:15:42Z</time>
      </trkpt>
      <trkpt lat="45.16904" lon="4.67879">
        <ele>438.3</ele>
        <time>2014-04-21T06:15:43Z</time>
      </trkpt>
      <trkpt lat="45.16909" lon="4.67883">
        <ele>438.2</ele>
        <time>2014-04-21T06:15:44Z</time>
      </trkpt>
      <trkpt lat="45.16913" lon="4.67887">
        <ele>438.1</ele>
        <time>2014-04-21T06:15:45Z</time>
      </trkpt>
      <trkpt lat="45.16918" lon="4.67892">
        <ele>438</ele>
        <time>2014-04-21T06:15:46Z</time>
      </trkpt>
      <trkpt lat="45.16922" lon="4.67896">
        <ele>437.9</ele>
        <time>2014-04-21T06:15:47Z</time>
      </trkpt>
      <trkpt lat="45.16926" lon="4.67902">
        <ele>437.8</ele>
        <time>2014-04-21T06:15:48Z</time>
      </trkpt>
      <trkpt lat="45.16931" lon="4.67907">
        <ele>437.8</ele>
        <time>2014-04-21T06:15:49Z</time>
      </trkpt>
      <trkpt lat="45.16939" lon="4.67918">
        <ele>437.7</ele>
        <time>2014-04-21T06:15:51Z</time>
      </trkpt>
      <trkpt lat="45.16943" lon="4.67924">
        <ele>437.6</ele>
        <time>2014-04-21T06:15:52Z</time>
      </trkpt>
      <trkpt lat="45.16947" lon="4.6793">
        <ele>437.5</ele>
        <time>2014-04-21T06:15:53Z</time>
      </trkpt>
      <trkpt lat="45.16951" lon="4.67935">
        <ele>437.5</ele>
        <time>2014-04-21T06:15:54Z</time>
      </trkpt>
      <trkpt lat="45.16955" lon="4.67941">
        <ele>437.4</ele>
        <time>2014-04-21T06:15:55Z</time>
      </trkpt>
      <trkpt lat="45.16959" lon="4.67947">
        <ele>437.3</ele>
        <time>2014-04-21T06:15:56Z</time>
      </trkpt>
      <trkpt lat="45.16964" lon="4.67953">
        <ele>437.3</ele>
        <time>2014-04-21T06:15:57Z</time>
      </trkpt>
      <trkpt lat="45.16968" lon="4.67959">
        <ele>437.2</ele>
        <time>2014-04-21T06:15:58Z</time>
      </trkpt>
      <trkpt lat="45.16972" lon="4.67966">
        <ele>437.1</ele>
        <time>2014-04-21T06:15:59Z</time>
      </trkpt>
      <trkpt lat="45.16977" lon="4.67973">
        <ele>437.1</ele>
        <time>2014-04-21T06:16:00Z</time>
      </trkpt>
      <trkpt lat="45.16981" lon="4.6798">
        <ele>437.1</ele>
        <time>2014-04-21T06:16:01Z</time>
      </trkpt>
      <trkpt lat="45.16985" lon="4.67987">
        <ele>437</ele>
        <time>2014-04-21T06:16:02Z</time>
      </trkpt>
      <trkpt lat="45.16989" lon="4.67995">
        <ele>437</ele>
        <time>2014-04-21T06:16:03Z</time>
      </trkpt>
      <trkpt lat="45.16993" lon="4.68003">
        <ele>436.9</ele>
        <time>2014-04-21T06:16:04Z</time>
      </trkpt>
      <trkpt lat="45.16998" lon="4.68011">
        <ele>436.8</ele>
        <time>2014-04-21T06:16:05Z</time>
      </trkpt>
      <trkpt lat="45.17003" lon="4.68019">
        <ele>436.5</ele>
        <time>2014-04-21T06:16:06Z</time>
      </trkpt>
      <trkpt lat="45.17009" lon="4.68027">
        <ele>436.2</ele>
        <time>2014-04-21T06:16:07Z</time>
      </trkpt>
      <trkpt lat="45.17014" lon="4.68035">
        <ele>435.9</ele>
        <time>2014-04-21T06:16:08Z</time>
      </trkpt>
      <trkpt lat="45.17019" lon="4.68043">
        <ele>435.5</ele>
        <time>2014-04-21T06:16:09Z</time>
      </trkpt>
      <trkpt lat="45.17024" lon="4.68051">
        <ele>435.1</ele>
        <time>2014-04-21T06:16:10Z</time>
      </trkpt>
      <trkpt lat="45.17029" lon="4.68059">
        <ele>434.8</ele>
        <time>2014-04-21T06:16:11Z</time>
      </trkpt>
      <trkpt lat="45.17034" lon="4.68067">
        <ele>434.4</ele>
        <time>2014-04-21T06:16:12Z</time>
      </trkpt>
      <trkpt lat="45.17039" lon="4.68075">
        <ele>433.9</ele>
        <time>2014-04-21T06:16:13Z</time>
      </trkpt>
      <trkpt lat="45.17044" lon="4.68083">
        <ele>433.4</ele>
        <time>2014-04-21T06:16:14Z</time>
      </trkpt>
      <trkpt lat="45.17049" lon="4.68091">
        <ele>433.2</ele>
        <time>2014-04-21T06:16:15Z</time>
      </trkpt>
      <trkpt lat="45.17054" lon="4.68098">
        <ele>433</ele>
        <time>2014-04-21T06:16:16Z</time>
      </trkpt>
      <trkpt lat="45.17059" lon="4.68105">
        <ele>432.8</ele>
        <time>2014-04-21T06:16:17Z</time>
      </trkpt>
      <trkpt lat="45.17064" lon="4.68112">
        <ele>432.5</ele>
        <time>2014-04-21T06:16:18Z</time>
      </trkpt>
      <trkpt lat="45.17069" lon="4.68119">
        <ele>432.2</ele>
        <time>2014-04-21T06:16:19Z</time>
      </trkpt>
      <trkpt lat="45.17074" lon="4.68125">
        <ele>432</ele>
        <time>2014-04-21T06:16:20Z</time>
      </trkpt>
      <trkpt lat="45.17079" lon="4.68131">
        <ele>431.7</ele>
        <time>2014-04-21T06:16:21Z</time>
      </trkpt>
      <trkpt lat="45.17084" lon="4.68137">
        <ele>431.3</ele>
        <time>2014-04-21T06:16:22Z</time>
      </trkpt>
      <trkpt lat="45.17089" lon="4.68142">
        <ele>431</ele>
        <time>2014-04-21T06:16:23Z</time>
      </trkpt>
      <trkpt lat="45.17094" lon="4.68148">
        <ele>430.6</ele>
        <time>2014-04-21T06:16:24Z</time>
      </trkpt>
      <trkpt lat="45.17099" lon="4.68154">
        <ele>430.3</ele>
        <time>2014-04-21T06:16:25Z</time>
      </trkpt>
      <trkpt lat="45.17104" lon="4.68159">
        <ele>430</ele>
        <time>2014-04-21T06:16:26Z</time>
      </trkpt>
      <trkpt lat="45.17108" lon="4.68165">
        <ele>429.8</ele>
        <time>2014-04-21T06:16:27Z</time>
      </trkpt>
      <trkpt lat="45.17113" lon="4.68171">
        <ele>429.5</ele>
        <time>2014-04-21T06:16:28Z</time>
      </trkpt>
      <trkpt lat="45.17118" lon="4.68177">
        <ele>429.2</ele>
        <time>2014-04-21T06:16:29Z</time>
      </trkpt>
      <trkpt lat="45.17123" lon="4.68183">
        <ele>428.9</ele>
        <time>2014-04-21T06:16:30Z</time>
      </trkpt>
      <trkpt lat="45.17128" lon="4.6819">
        <ele>428.6</ele>
        <time>2014-04-21T06:16:31Z</time>
      </trkpt>
      <trkpt lat="45.17132" lon="4.68197">
        <ele>428.3</ele>
        <time>2014-04-21T06:16:32Z</time>
      </trkpt>
      <trkpt lat="45.17136" lon="4.68203">
        <ele>428</ele>
        <time>2014-04-21T06:16:33Z</time>
      </trkpt>
      <trkpt lat="45.17141" lon="4.68209">
        <ele>427.8</ele>
        <time>2014-04-21T06:16:34Z</time>
      </trkpt>
      <trkpt lat="45.17145" lon="4.68215">
        <ele>427.5</ele>
        <time>2014-04-21T06:16:35Z</time>
      </trkpt>
      <trkpt lat="45.17148" lon="4.68222">
        <ele>427.2</ele>
        <time>2014-04-21T06:16:36Z</time>
      </trkpt>
      <trkpt lat="45.17151" lon="4.6823">
        <ele>427</ele>
        <time>2014-04-21T06:16:37Z</time>
      </trkpt>
      <trkpt lat="45.17154" lon="4.68238">
        <ele>426.8</ele>
        <time>2014-04-21T06:16:38Z</time>
      </trkpt>
      <trkpt lat="45.17156" lon="4.68246">
        <ele>426.5</ele>
        <time>2014-04-21T06:16:39Z</time>
      </trkpt>
      <trkpt lat="45.17159" lon="4.68255">
        <ele>426.3</ele>
        <time>2014-04-21T06:16:40Z</time>
      </trkpt>
      <trkpt lat="45.17161" lon="4.68263">
        <ele>425.8</ele>
        <time>2014-04-21T06:16:41Z</time>
      </trkpt>
      <trkpt lat="45.17162" lon="4.68271">
        <ele>425.5</ele>
        <time>2014-04-21T06:16:42Z</time>
      </trkpt>
      <trkpt lat="45.17163" lon="4.6828">
        <ele>425.1</ele>
        <time>2014-04-21T06:16:43Z</time>
      </trkpt>
      <trkpt lat="45.17164" lon="4.68288">
        <ele>424.8</ele>
        <time>2014-04-21T06:16:44Z</time>
      </trkpt>
      <trkpt lat="45.17166" lon="4.68297">
        <ele>424.4</ele>
        <time>2014-04-21T06:16:45Z</time>
      </trkpt>
      <trkpt lat="45.17168" lon="4.68306">
        <ele>423.9</ele>
        <time>2014-04-21T06:16:46Z</time>
      </trkpt>
      <trkpt lat="45.1717" lon="4.68314">
        <ele>423.4</ele>
        <time>2014-04-21T06:16:47Z</time>
      </trkpt>
      <trkpt lat="45.17173" lon="4.68323">
        <ele>423</ele>
        <time>2014-04-21T06:16:48Z</time>
      </trkpt>
      <trkpt lat="45.17176" lon="4.68331">
        <ele>422.5</ele>
        <time>2014-04-21T06:16:49Z</time>
      </trkpt>
      <trkpt lat="45.17179" lon="4.6834">
        <ele>422.4</ele>
        <time>2014-04-21T06:16:50Z</time>
      </trkpt>
      <trkpt lat="45.17183" lon="4.68356">
        <ele>422.6</ele>
        <time>2014-04-21T06:16:52Z</time>
      </trkpt>
      <trkpt lat="45.17185" lon="4.68364">
        <ele>422.7</ele>
        <time>2014-04-21T06:16:53Z</time>
      </trkpt>
      <trkpt lat="45.17187" lon="4.68372">
        <ele>422.8</ele>
        <time>2014-04-21T06:16:54Z</time>
      </trkpt>
      <trkpt lat="45.1719" lon="4.6838">
        <ele>422.9</ele>
        <time>2014-04-21T06:16:55Z</time>
      </trkpt>
      <trkpt lat="45.17192" lon="4.68388">
        <ele>423</ele>
        <time>2014-04-21T06:16:56Z</time>
      </trkpt>
      <trkpt lat="45.17194" lon="4.68395">
        <ele>423.1</ele>
        <time>2014-04-21T06:16:57Z</time>
      </trkpt>
      <trkpt lat="45.17197" lon="4.68403">
        <ele>423.1</ele>
        <time>2014-04-21T06:16:58Z</time>
      </trkpt>
      <trkpt lat="45.17199" lon="4.6841">
        <ele>423.3</ele>
        <time>2014-04-21T06:16:59Z</time>
      </trkpt>
      <trkpt lat="45.17201" lon="4.68418">
        <ele>423.3</ele>
        <time>2014-04-21T06:17:00Z</time>
      </trkpt>
      <trkpt lat="45.17203" lon="4.68425">
        <ele>423</ele>
        <time>2014-04-21T06:17:01Z</time>
      </trkpt>
      <trkpt lat="45.17205" lon="4.68432">
        <ele>422.7</ele>
        <time>2014-04-21T06:17:02Z</time>
      </trkpt>
      <trkpt lat="45.17207" lon="4.68439">
        <ele>422.4</ele>
        <time>2014-04-21T06:17:03Z</time>
      </trkpt>
      <trkpt lat="45.17209" lon="4.68446">
        <ele>422.1</ele>
        <time>2014-04-21T06:17:04Z</time>
      </trkpt>
      <trkpt lat="45.17211" lon="4.68452">
        <ele>421.8</ele>
        <time>2014-04-21T06:17:05Z</time>
      </trkpt>
      <trkpt lat="45.17213" lon="4.68458">
        <ele>421.4</ele>
        <time>2014-04-21T06:17:06Z</time>
      </trkpt>
      <trkpt lat="45.17215" lon="4.68469">
        <ele>420.9</ele>
        <time>2014-04-21T06:17:08Z</time>
      </trkpt>
      <trkpt lat="45.17211" lon="4.68474">
        <ele>421</ele>
        <time>2014-04-21T06:17:10Z</time>
      </trkpt>
      <trkpt lat="45.17205" lon="4.68472">
        <ele>421.7</ele>
        <time>2014-04-21T06:17:12Z</time>
      </trkpt>
      <trkpt lat="45.17198" lon="4.68469">
        <ele>422.4</ele>
        <time>2014-04-21T06:17:14Z</time>
      </trkpt>
      <trkpt lat="45.1719" lon="4.68465">
        <ele>423</ele>
        <time>2014-04-21T06:17:16Z</time>
      </trkpt>
      <trkpt lat="45.17184" lon="4.6846">
        <ele>423.6</ele>
        <time>2014-04-21T06:17:18Z</time>
      </trkpt>
      <trkpt lat="45.17177" lon="4.68457">
        <ele>424.2</ele>
        <time>2014-04-21T06:17:20Z</time>
      </trkpt>
      <trkpt lat="45.17171" lon="4.68455">
        <ele>424.7</ele>
        <time>2014-04-21T06:17:22Z</time>
      </trkpt>
      <trkpt lat="45.17164" lon="4.68453">
        <ele>425.1</ele>
        <time>2014-04-21T06:17:24Z</time>
      </trkpt>
      <trkpt lat="45.17157" lon="4.6845">
        <ele>425.6</ele>
        <time>2014-04-21T06:17:26Z</time>
      </trkpt>
      <trkpt lat="45.17151" lon="4.68446">
        <ele>426</ele>
        <time>2014-04-21T06:17:28Z</time>
      </trkpt>
      <trkpt lat="45.17144" lon="4.68441">
        <ele>426.3</ele>
        <time>2014-04-21T06:17:30Z</time>
      </trkpt>
      <trkpt lat="45.17138" lon="4.68436">
        <ele>426.6</ele>
        <time>2014-04-21T06:17:32Z</time>
      </trkpt>
      <trkpt lat="45.1713" lon="4.68431">
        <ele>427</ele>
        <time>2014-04-21T06:17:34Z</time>
      </trkpt>
      <trkpt lat="45.17123" lon="4.68427">
        <ele>427.3</ele>
        <time>2014-04-21T06:17:36Z</time>
      </trkpt>
      <trkpt lat="45.17116" lon="4.68424">
        <ele>427.6</ele>
        <time>2014-04-21T06:17:38Z</time>
      </trkpt>
      <trkpt lat="45.17109" lon="4.68423">
        <ele>427.9</ele>
        <time>2014-04-21T06:17:40Z</time>
      </trkpt>
      <trkpt lat="45.17101" lon="4.68424">
        <ele>428.3</ele>
        <time>2014-04-21T06:17:42Z</time>
      </trkpt>
      <trkpt lat="45.17094" lon="4.68427">
        <ele>428.8</ele>
        <time>2014-04-21T06:17:44Z</time>
      </trkpt>
      <trkpt lat="45.17087" lon="4.68431">
        <ele>429.3</ele>
        <time>2014-04-21T06:17:46Z</time>
      </trkpt>
      <trkpt lat="45.17082" lon="4.68433">
        <ele>429.6</ele>
        <time>2014-04-21T06:17:47Z</time>
      </trkpt>
      <trkpt lat="45.17074" lon="4.68437">
        <ele>430</ele>
        <time>2014-04-21T06:17:49Z</time>
      </trkpt>
      <trkpt lat="45.17066" lon="4.68441">
        <ele>430.3</ele>
        <time>2014-04-21T06:17:51Z</time>
      </trkpt>
      <trkpt lat="45.17053" lon="4.68449">
        <ele>430.8</ele>
        <time>2014-04-21T06:17:54Z</time>
      </trkpt>
      <trkpt lat="45.17045" lon="4.6845">
        <ele>430.9</ele>
        <time>2014-04-21T06:17:56Z</time>
      </trkpt>
      <trkpt lat="45.17038" lon="4.68452">
        <ele>431.1</ele>
        <time>2014-04-21T06:17:58Z</time>
      </trkpt>
      <trkpt lat="45.1703" lon="4.68456">
        <ele>431.2</ele>
        <time>2014-04-21T06:18:00Z</time>
      </trkpt>
      <trkpt lat="45.17024" lon="4.68463">
        <ele>431.2</ele>
        <time>2014-04-21T06:18:02Z</time>
      </trkpt>
      <trkpt lat="45.17018" lon="4.6847">
        <ele>431.1</ele>
        <time>2014-04-21T06:18:04Z</time>
      </trkpt>
      <trkpt lat="45.17009" lon="4.68472">
        <ele>431</ele>
        <time>2014-04-21T06:18:06Z</time>
      </trkpt>
      <trkpt lat="45.17004" lon="4.68472">
        <ele>431</ele>
        <time>2014-04-21T06:18:07Z</time>
      </trkpt>
      <trkpt lat="45.16998" lon="4.68472">
        <ele>431</ele>
        <time>2014-04-21T06:18:08Z</time>
      </trkpt>
      <trkpt lat="45.16993" lon="4.68473">
        <ele>430.8</ele>
        <time>2014-04-21T06:18:09Z</time>
      </trkpt>
      <trkpt lat="45.16987" lon="4.68475">
        <ele>430.6</ele>
        <time>2014-04-21T06:18:10Z</time>
      </trkpt>
      <trkpt lat="45.16981" lon="4.68478">
        <ele>430.3</ele>
        <time>2014-04-21T06:18:11Z</time>
      </trkpt>
      <trkpt lat="45.16975" lon="4.6848">
        <ele>430.1</ele>
        <time>2014-04-21T06:18:12Z</time>
      </trkpt>
      <trkpt lat="45.16968" lon="4.68481">
        <ele>429.8</ele>
        <time>2014-04-21T06:18:13Z</time>
      </trkpt>
      <trkpt lat="45.16962" lon="4.68482">
        <ele>429.7</ele>
        <time>2014-04-21T06:18:14Z</time>
      </trkpt>
      <trkpt lat="45.16957" lon="4.68483">
        <ele>429.4</ele>
        <time>2014-04-21T06:18:15Z</time>
      </trkpt>
      <trkpt lat="45.16951" lon="4.68484">
        <ele>429.1</ele>
        <time>2014-04-21T06:18:16Z</time>
      </trkpt>
      <trkpt lat="45.16945" lon="4.68486">
        <ele>428.9</ele>
        <time>2014-04-21T06:18:17Z</time>
      </trkpt>
      <trkpt lat="45.16938" lon="4.68489">
        <ele>428.5</ele>
        <time>2014-04-21T06:18:19Z</time>
      </trkpt>
      <trkpt lat="45.16929" lon="4.68491">
        <ele>428.1</ele>
        <time>2014-04-21T06:18:21Z</time>
      </trkpt>
      <trkpt lat="45.16925" lon="4.68492">
        <ele>427.9</ele>
        <time>2014-04-21T06:18:22Z</time>
      </trkpt>
      <trkpt lat="45.1692" lon="4.68493">
        <ele>427.7</ele>
        <time>2014-04-21T06:18:23Z</time>
      </trkpt>
      <trkpt lat="45.16915" lon="4.68495">
        <ele>427.4</ele>
        <time>2014-04-21T06:18:24Z</time>
      </trkpt>
      <trkpt lat="45.1691" lon="4.68496">
        <ele>427.1</ele>
        <time>2014-04-21T06:18:25Z</time>
      </trkpt>
      <trkpt lat="45.16906" lon="4.68498">
        <ele>426.9</ele>
        <time>2014-04-21T06:18:26Z</time>
      </trkpt>
      <trkpt lat="45.16901" lon="4.68501">
        <ele>426.6</ele>
        <time>2014-04-21T06:18:27Z</time>
      </trkpt>
      <trkpt lat="45.16896" lon="4.68504">
        <ele>426.4</ele>
        <time>2014-04-21T06:18:28Z</time>
      </trkpt>
      <trkpt lat="45.16892" lon="4.68507">
        <ele>426.1</ele>
        <time>2014-04-21T06:18:29Z</time>
      </trkpt>
      <trkpt lat="45.16887" lon="4.6851">
        <ele>425.8</ele>
        <time>2014-04-21T06:18:30Z</time>
      </trkpt>
      <trkpt lat="45.16882" lon="4.68514">
        <ele>425.6</ele>
        <time>2014-04-21T06:18:31Z</time>
      </trkpt>
      <trkpt lat="45.16878" lon="4.68517">
        <ele>425.4</ele>
        <time>2014-04-21T06:18:32Z</time>
      </trkpt>
      <trkpt lat="45.16874" lon="4.68521">
        <ele>425.2</ele>
        <time>2014-04-21T06:18:33Z</time>
      </trkpt>
      <trkpt lat="45.16869" lon="4.68523">
        <ele>425</ele>
        <time>2014-04-21T06:18:34Z</time>
      </trkpt>
      <trkpt lat="45.16865" lon="4.68526">
        <ele>424.8</ele>
        <time>2014-04-21T06:18:35Z</time>
      </trkpt>
      <trkpt lat="45.16861" lon="4.68528">
        <ele>424.6</ele>
        <time>2014-04-21T06:18:36Z</time>
      </trkpt>
      <trkpt lat="45.16856" lon="4.68531">
        <ele>424.3</ele>
        <time>2014-04-21T06:18:37Z</time>
      </trkpt>
      <trkpt lat="45.16851" lon="4.68534">
        <ele>424.1</ele>
        <time>2014-04-21T06:18:38Z</time>
      </trkpt>
      <trkpt lat="45.16847" lon="4.68538">
        <ele>423.9</ele>
        <time>2014-04-21T06:18:39Z</time>
      </trkpt>
      <trkpt lat="45.16842" lon="4.68541">
        <ele>423.7</ele>
        <time>2014-04-21T06:18:40Z</time>
      </trkpt>
      <trkpt lat="45.16837" lon="4.68545">
        <ele>423.5</ele>
        <time>2014-04-21T06:18:41Z</time>
      </trkpt>
      <trkpt lat="45.16833" lon="4.68549">
        <ele>423.3</ele>
        <time>2014-04-21T06:18:42Z</time>
      </trkpt>
      <trkpt lat="45.16828" lon="4.68553">
        <ele>423.1</ele>
        <time>2014-04-21T06:18:43Z</time>
      </trkpt>
      <trkpt lat="45.16825" lon="4.68558">
        <ele>423</ele>
        <time>2014-04-21T06:18:44Z</time>
      </trkpt>
      <trkpt lat="45.16821" lon="4.68563">
        <ele>422.8</ele>
        <time>2014-04-21T06:18:45Z</time>
      </trkpt>
      <trkpt lat="45.16819" lon="4.68569">
        <ele>422.6</ele>
        <time>2014-04-21T06:18:46Z</time>
      </trkpt>
      <trkpt lat="45.16815" lon="4.68581">
        <ele>422.1</ele>
        <time>2014-04-21T06:18:48Z</time>
      </trkpt>
      <trkpt lat="45.16814" lon="4.68588">
        <ele>421.9</ele>
        <time>2014-04-21T06:18:49Z</time>
      </trkpt>
      <trkpt lat="45.16815" lon="4.68594">
        <ele>421.7</ele>
        <time>2014-04-21T06:18:50Z</time>
      </trkpt>
      <trkpt lat="45.16814" lon="4.68601">
        <ele>421.5</ele>
        <time>2014-04-21T06:18:51Z</time>
      </trkpt>
      <trkpt lat="45.16813" lon="4.68608">
        <ele>421.3</ele>
        <time>2014-04-21T06:18:52Z</time>
      </trkpt>
      <trkpt lat="45.16805" lon="4.68619">
        <ele>420.9</ele>
        <time>2014-04-21T06:18:55Z</time>
      </trkpt>
      <trkpt lat="45.168" lon="4.68618">
        <ele>420.9</ele>
        <time>2014-04-21T06:18:56Z</time>
      </trkpt>
      <trkpt lat="45.16795" lon="4.68618">
        <ele>420.8</ele>
        <time>2014-04-21T06:18:57Z</time>
      </trkpt>
      <trkpt lat="45.1679" lon="4.68618">
        <ele>420.8</ele>
        <time>2014-04-21T06:18:58Z</time>
      </trkpt>
      <trkpt lat="45.16782" lon="4.68621">
        <ele>420.5</ele>
        <time>2014-04-21T06:19:00Z</time>
      </trkpt>
      <trkpt lat="45.16773" lon="4.68625">
        <ele>420.3</ele>
        <time>2014-04-21T06:19:02Z</time>
      </trkpt>
      <trkpt lat="45.16769" lon="4.68626">
        <ele>420.2</ele>
        <time>2014-04-21T06:19:03Z</time>
      </trkpt>
      <trkpt lat="45.1676" lon="4.68626">
        <ele>420.1</ele>
        <time>2014-04-21T06:19:05Z</time>
      </trkpt>
      <trkpt lat="45.16752" lon="4.68622">
        <ele>420.2</ele>
        <time>2014-04-21T06:19:07Z</time>
      </trkpt>
      <trkpt lat="45.16743" lon="4.68619">
        <ele>420.5</ele>
        <time>2014-04-21T06:19:09Z</time>
      </trkpt>
      <trkpt lat="45.16735" lon="4.68617">
        <ele>420.8</ele>
        <time>2014-04-21T06:19:11Z</time>
      </trkpt>
      <trkpt lat="45.16727" lon="4.68615">
        <ele>421.2</ele>
        <time>2014-04-21T06:19:13Z</time>
      </trkpt>
      <trkpt lat="45.16718" lon="4.68613">
        <ele>421.6</ele>
        <time>2014-04-21T06:19:15Z</time>
      </trkpt>
      <trkpt lat="45.1671" lon="4.68612">
        <ele>422</ele>
        <time>2014-04-21T06:19:17Z</time>
      </trkpt>
      <trkpt lat="45.16703" lon="4.6861">
        <ele>422.3</ele>
        <time>2014-04-21T06:19:19Z</time>
      </trkpt>
      <trkpt lat="45.16695" lon="4.68606">
        <ele>422.7</ele>
        <time>2014-04-21T06:19:21Z</time>
      </trkpt>
      <trkpt lat="45.16688" lon="4.686">
        <ele>423.3</ele>
        <time>2014-04-21T06:19:23Z</time>
      </trkpt>
      <trkpt lat="45.16681" lon="4.68595">
        <ele>423.9</ele>
        <time>2014-04-21T06:19:25Z</time>
      </trkpt>
      <trkpt lat="45.16675" lon="4.68589">
        <ele>424.4</ele>
        <time>2014-04-21T06:19:27Z</time>
      </trkpt>
      <trkpt lat="45.16667" lon="4.68586">
        <ele>424.8</ele>
        <time>2014-04-21T06:19:29Z</time>
      </trkpt>
      <trkpt lat="45.16659" lon="4.68587">
        <ele>425</ele>
        <time>2014-04-21T06:19:31Z</time>
      </trkpt>
      <trkpt lat="45.16651" lon="4.68591">
        <ele>424.9</ele>
        <time>2014-04-21T06:19:33Z</time>
      </trkpt>
      <trkpt lat="45.16647" lon="4.68594">
        <ele>424.9</ele>
        <time>2014-04-21T06:19:34Z</time>
      </trkpt>
      <trkpt lat="45.16642" lon="4.68597">
        <ele>424.8</ele>
        <time>2014-04-21T06:19:35Z</time>
      </trkpt>
      <trkpt lat="45.16635" lon="4.68602">
        <ele>424.7</ele>
        <time>2014-04-21T06:19:37Z</time>
      </trkpt>
      <trkpt lat="45.16627" lon="4.68607">
        <ele>424.5</ele>
        <time>2014-04-21T06:19:39Z</time>
      </trkpt>
      <trkpt lat="45.16621" lon="4.68612">
        <ele>424.5</ele>
        <time>2014-04-21T06:19:41Z</time>
      </trkpt>
      <trkpt lat="45.16617" lon="4.68618">
        <ele>424.1</ele>
        <time>2014-04-21T06:19:44Z</time>
      </trkpt>
      <trkpt lat="45.16618" lon="4.68629">
        <ele>423.5</ele>
        <time>2014-04-21T06:19:46Z</time>
      </trkpt>
      <trkpt lat="45.16619" lon="4.68642">
        <ele>422.7</ele>
        <time>2014-04-21T06:19:48Z</time>
      </trkpt>
      <trkpt lat="45.16618" lon="4.6865">
        <ele>422.2</ele>
        <time>2014-04-21T06:19:49Z</time>
      </trkpt>
      <trkpt lat="45.16618" lon="4.68659">
        <ele>421.7</ele>
        <time>2014-04-21T06:19:50Z</time>
      </trkpt>
      <trkpt lat="45.16619" lon="4.68667">
        <ele>421.2</ele>
        <time>2014-04-21T06:19:51Z</time>
      </trkpt>
      <trkpt lat="45.16619" lon="4.68674">
        <ele>420.8</ele>
        <time>2014-04-21T06:19:52Z</time>
      </trkpt>
      <trkpt lat="45.1662" lon="4.68682">
        <ele>420.4</ele>
        <time>2014-04-21T06:19:53Z</time>
      </trkpt>
      <trkpt lat="45.16621" lon="4.68696">
        <ele>419.6</ele>
        <time>2014-04-21T06:19:55Z</time>
      </trkpt>
      <trkpt lat="45.16619" lon="4.68702">
        <ele>419.3</ele>
        <time>2014-04-21T06:19:56Z</time>
      </trkpt>
      <trkpt lat="45.16612" lon="4.68709">
        <ele>419.1</ele>
        <time>2014-04-21T06:19:58Z</time>
      </trkpt>
      <trkpt lat="45.16604" lon="4.68713">
        <ele>419.2</ele>
        <time>2014-04-21T06:20:00Z</time>
      </trkpt>
      <trkpt lat="45.166" lon="4.68715">
        <ele>419.2</ele>
        <time>2014-04-21T06:20:01Z</time>
      </trkpt>
      <trkpt lat="45.16595" lon="4.68718">
        <ele>419.2</ele>
        <time>2014-04-21T06:20:02Z</time>
      </trkpt>
      <trkpt lat="45.16591" lon="4.68721">
        <ele>419.1</ele>
        <time>2014-04-21T06:20:03Z</time>
      </trkpt>
      <trkpt lat="45.16588" lon="4.68726">
        <ele>419</ele>
        <time>2014-04-21T06:20:04Z</time>
      </trkpt>
      <trkpt lat="45.16584" lon="4.6873">
        <ele>419</ele>
        <time>2014-04-21T06:20:05Z</time>
      </trkpt>
      <trkpt lat="45.16581" lon="4.68734">
        <ele>418.9</ele>
        <time>2014-04-21T06:20:06Z</time>
      </trkpt>
      <trkpt lat="45.16577" lon="4.68739">
        <ele>418.8</ele>
        <time>2014-04-21T06:20:07Z</time>
      </trkpt>
      <trkpt lat="45.16573" lon="4.68744">
        <ele>418.8</ele>
        <time>2014-04-21T06:20:08Z</time>
      </trkpt>
      <trkpt lat="45.1657" lon="4.68749">
        <ele>418.7</ele>
        <time>2014-04-21T06:20:09Z</time>
      </trkpt>
      <trkpt lat="45.16567" lon="4.68754">
        <ele>418.6</ele>
        <time>2014-04-21T06:20:10Z</time>
      </trkpt>
      <trkpt lat="45.16564" lon="4.6876">
        <ele>418.6</ele>
        <time>2014-04-21T06:20:11Z</time>
      </trkpt>
      <trkpt lat="45.16561" lon="4.68766">
        <ele>418.5</ele>
        <time>2014-04-21T06:20:12Z</time>
      </trkpt>
      <trkpt lat="45.16558" lon="4.68771">
        <ele>418.4</ele>
        <time>2014-04-21T06:20:13Z</time>
      </trkpt>
      <trkpt lat="45.16555" lon="4.68777">
        <ele>418.3</ele>
        <time>2014-04-21T06:20:14Z</time>
      </trkpt>
      <trkpt lat="45.16551" lon="4.68781">
        <ele>418.3</ele>
        <time>2014-04-21T06:20:15Z</time>
      </trkpt>
      <trkpt lat="45.16548" lon="4.68786">
        <ele>418.3</ele>
        <time>2014-04-21T06:20:16Z</time>
      </trkpt>
      <trkpt lat="45.16544" lon="4.68791">
        <ele>418.2</ele>
        <time>2014-04-21T06:20:17Z</time>
      </trkpt>
      <trkpt lat="45.1654" lon="4.68796">
        <ele>418.2</ele>
        <time>2014-04-21T06:20:18Z</time>
      </trkpt>
      <trkpt lat="45.16536" lon="4.688">
        <ele>418.1</ele>
        <time>2014-04-21T06:20:19Z</time>
      </trkpt>
      <trkpt lat="45.16532" lon="4.68805">
        <ele>418.1</ele>
        <time>2014-04-21T06:20:20Z</time>
      </trkpt>
      <trkpt lat="45.16528" lon="4.6881">
        <ele>418.1</ele>
        <time>2014-04-21T06:20:21Z</time>
      </trkpt>
      <trkpt lat="45.16524" lon="4.68813">
        <ele>418.1</ele>
        <time>2014-04-21T06:20:22Z</time>
      </trkpt>
      <trkpt lat="45.1652" lon="4.68816">
        <ele>418.1</ele>
        <time>2014-04-21T06:20:23Z</time>
      </trkpt>
      <trkpt lat="45.16512" lon="4.68822">
        <ele>418.1</ele>
        <time>2014-04-21T06:20:25Z</time>
      </trkpt>
      <trkpt lat="45.16508" lon="4.68825">
        <ele>418.1</ele>
        <time>2014-04-21T06:20:26Z</time>
      </trkpt>
      <trkpt lat="45.165" lon="4.6883">
        <ele>418.2</ele>
        <time>2014-04-21T06:20:28Z</time>
      </trkpt>
      <trkpt lat="45.16493" lon="4.68834">
        <ele>418.2</ele>
        <time>2014-04-21T06:20:30Z</time>
      </trkpt>
      <trkpt lat="45.16485" lon="4.68838">
        <ele>418.3</ele>
        <time>2014-04-21T06:20:32Z</time>
      </trkpt>
      <trkpt lat="45.16477" lon="4.68843">
        <ele>418.4</ele>
        <time>2014-04-21T06:20:34Z</time>
      </trkpt>
      <trkpt lat="45.16469" lon="4.68848">
        <ele>418.6</ele>
        <time>2014-04-21T06:20:36Z</time>
      </trkpt>
      <trkpt lat="45.16462" lon="4.68853">
        <ele>418.8</ele>
        <time>2014-04-21T06:20:38Z</time>
      </trkpt>
      <trkpt lat="45.16456" lon="4.68859">
        <ele>418.9</ele>
        <time>2014-04-21T06:20:40Z</time>
      </trkpt>
      <trkpt lat="45.16451" lon="4.68866">
        <ele>419.1</ele>
        <time>2014-04-21T06:20:42Z</time>
      </trkpt>
      <trkpt lat="45.16447" lon="4.68872">
        <ele>419.2</ele>
        <time>2014-04-21T06:20:44Z</time>
      </trkpt>
      <trkpt lat="45.16443" lon="4.68879">
        <ele>419.4</ele>
        <time>2014-04-21T06:20:46Z</time>
      </trkpt>
      <trkpt lat="45.16441" lon="4.68885">
        <ele>419.5</ele>
        <time>2014-04-21T06:20:48Z</time>
      </trkpt>
      <trkpt lat="45.1644" lon="4.68891">
        <ele>419.6</ele>
        <time>2014-04-21T06:20:50Z</time>
      </trkpt>
      <trkpt lat="45.1644" lon="4.689">
        <ele>419.5</ele>
        <time>2014-04-21T06:20:52Z</time>
      </trkpt>
      <trkpt lat="45.1644" lon="4.68909">
        <ele>419.6</ele>
        <time>2014-04-21T06:20:54Z</time>
      </trkpt>
      <trkpt lat="45.1644" lon="4.68927">
        <ele>419.4</ele>
        <time>2014-04-21T06:20:58Z</time>
      </trkpt>
      <trkpt lat="45.1644" lon="4.68937">
        <ele>419.3</ele>
        <time>2014-04-21T06:21:00Z</time>
      </trkpt>
      <trkpt lat="45.16439" lon="4.68947">
        <ele>419.2</ele>
        <time>2014-04-21T06:21:02Z</time>
      </trkpt>
      <trkpt lat="45.16439" lon="4.68957">
        <ele>419.1</ele>
        <time>2014-04-21T06:21:04Z</time>
      </trkpt>
      <trkpt lat="45.16438" lon="4.68967">
        <ele>419</ele>
        <time>2014-04-21T06:21:06Z</time>
      </trkpt>
      <trkpt lat="45.16438" lon="4.68978">
        <ele>418.9</ele>
        <time>2014-04-21T06:21:08Z</time>
      </trkpt>
      <trkpt lat="45.16437" lon="4.68987">
        <ele>418.7</ele>
        <time>2014-04-21T06:21:10Z</time>
      </trkpt>
      <trkpt lat="45.16436" lon="4.68997">
        <ele>418.6</ele>
        <time>2014-04-21T06:21:12Z</time>
      </trkpt>
      <trkpt lat="45.16436" lon="4.69007">
        <ele>418.5</ele>
        <time>2014-04-21T06:21:14Z</time>
      </trkpt>
      <trkpt lat="45.16435" lon="4.69016">
        <ele>418.3</ele>
        <time>2014-04-21T06:21:16Z</time>
      </trkpt>
      <trkpt lat="45.16435" lon="4.69026">
        <ele>418.2</ele>
        <time>2014-04-21T06:21:18Z</time>
      </trkpt>
      <trkpt lat="45.16434" lon="4.69036">
        <ele>418</ele>
        <time>2014-04-21T06:21:20Z</time>
      </trkpt>
      <trkpt lat="45.16434" lon="4.69046">
        <ele>417.8</ele>
        <time>2014-04-21T06:21:22Z</time>
      </trkpt>
      <trkpt lat="45.16433" lon="4.69056">
        <ele>417.6</ele>
        <time>2014-04-21T06:21:24Z</time>
      </trkpt>
      <trkpt lat="45.16433" lon="4.69066">
        <ele>417.4</ele>
        <time>2014-04-21T06:21:26Z</time>
      </trkpt>
      <trkpt lat="45.16432" lon="4.69077">
        <ele>417.2</ele>
        <time>2014-04-21T06:21:28Z</time>
      </trkpt>
      <trkpt lat="45.16431" lon="4.69087">
        <ele>417.2</ele>
        <time>2014-04-21T06:21:30Z</time>
      </trkpt>
      <trkpt lat="45.1643" lon="4.69097">
        <ele>417.3</ele>
        <time>2014-04-21T06:21:32Z</time>
      </trkpt>
      <trkpt lat="45.1643" lon="4.69106">
        <ele>417.4</ele>
        <time>2014-04-21T06:21:34Z</time>
      </trkpt>
      <trkpt lat="45.16429" lon="4.69116">
        <ele>417.5</ele>
        <time>2014-04-21T06:21:36Z</time>
      </trkpt>
      <trkpt lat="45.16429" lon="4.69126">
        <ele>417.6</ele>
        <time>2014-04-21T06:21:38Z</time>
      </trkpt>
      <trkpt lat="45.16428" lon="4.69136">
        <ele>417.7</ele>
        <time>2014-04-21T06:21:40Z</time>
      </trkpt>
      <trkpt lat="45.16428" lon="4.69145">
        <ele>417.8</ele>
        <time>2014-04-21T06:21:42Z</time>
      </trkpt>
      <trkpt lat="45.16427" lon="4.69155">
        <ele>417.9</ele>
        <time>2014-04-21T06:21:44Z</time>
      </trkpt>
      <trkpt lat="45.16426" lon="4.69165">
        <ele>418.1</ele>
        <time>2014-04-21T06:21:46Z</time>
      </trkpt>
      <trkpt lat="45.16425" lon="4.69175">
        <ele>418.3</ele>
        <time>2014-04-21T06:21:48Z</time>
      </trkpt>
      <trkpt lat="45.16424" lon="4.69184">
        <ele>418.5</ele>
        <time>2014-04-21T06:21:50Z</time>
      </trkpt>
      <trkpt lat="45.16423" lon="4.69194">
        <ele>418.7</ele>
        <time>2014-04-21T06:21:52Z</time>
      </trkpt>
      <trkpt lat="45.16422" lon="4.69202">
        <ele>418.9</ele>
        <time>2014-04-21T06:21:54Z</time>
      </trkpt>
      <trkpt lat="45.16421" lon="4.69211">
        <ele>419.1</ele>
        <time>2014-04-21T06:21:56Z</time>
      </trkpt>
      <trkpt lat="45.16418" lon="4.69229">
        <ele>419.5</ele>
        <time>2014-04-21T06:22:00Z</time>
      </trkpt>
      <trkpt lat="45.16418" lon="4.69238">
        <ele>419.7</ele>
        <time>2014-04-21T06:22:02Z</time>
      </trkpt>
      <trkpt lat="45.16418" lon="4.69249">
        <ele>419.8</ele>
        <time>2014-04-21T06:22:04Z</time>
      </trkpt>
      <trkpt lat="45.16417" lon="4.69262">
        <ele>419.6</ele>
        <time>2014-04-21T06:22:06Z</time>
      </trkpt>
      <trkpt lat="45.16416" lon="4.69268">
        <ele>419.6</ele>
        <time>2014-04-21T06:22:07Z</time>
      </trkpt>
      <trkpt lat="45.16416" lon="4.69275">
        <ele>419.5</ele>
        <time>2014-04-21T06:22:08Z</time>
      </trkpt>
      <trkpt lat="45.16415" lon="4.69282">
        <ele>419.4</ele>
        <time>2014-04-21T06:22:09Z</time>
      </trkpt>
      <trkpt lat="45.16413" lon="4.6929">
        <ele>419.3</ele>
        <time>2014-04-21T06:22:10Z</time>
      </trkpt>
      <trkpt lat="45.16411" lon="4.69297">
        <ele>419.3</ele>
        <time>2014-04-21T06:22:11Z</time>
      </trkpt>
      <trkpt lat="45.16409" lon="4.69306">
        <ele>419.3</ele>
        <time>2014-04-21T06:22:12Z</time>
      </trkpt>
      <trkpt lat="45.16407" lon="4.69315">
        <ele>419.2</ele>
        <time>2014-04-21T06:22:13Z</time>
      </trkpt>
      <trkpt lat="45.16405" lon="4.69324">
        <ele>419.2</ele>
        <time>2014-04-21T06:22:14Z</time>
      </trkpt>
      <trkpt lat="45.16401" lon="4.69334">
        <ele>419.1</ele>
        <time>2014-04-21T06:22:15Z</time>
      </trkpt>
      <trkpt lat="45.16398" lon="4.69343">
        <ele>418.9</ele>
        <time>2014-04-21T06:22:16Z</time>
      </trkpt>
      <trkpt lat="45.16395" lon="4.69353">
        <ele>418.6</ele>
        <time>2014-04-21T06:22:17Z</time>
      </trkpt>
      <trkpt lat="45.16391" lon="4.69362">
        <ele>418.5</ele>
        <time>2014-04-21T06:22:18Z</time>
      </trkpt>
      <trkpt lat="45.16388" lon="4.6937">
        <ele>418.3</ele>
        <time>2014-04-21T06:22:19Z</time>
      </trkpt>
      <trkpt lat="45.16385" lon="4.69378">
        <ele>418.2</ele>
        <time>2014-04-21T06:22:20Z</time>
      </trkpt>
      <trkpt lat="45.16382" lon="4.69385">
        <ele>418.1</ele>
        <time>2014-04-21T06:22:21Z</time>
      </trkpt>
      <trkpt lat="45.16379" lon="4.69391">
        <ele>417.9</ele>
        <time>2014-04-21T06:22:22Z</time>
      </trkpt>
      <trkpt lat="45.16377" lon="4.69398">
        <ele>417.8</ele>
        <time>2014-04-21T06:22:23Z</time>
      </trkpt>
      <trkpt lat="45.16376" lon="4.69405">
        <ele>417.6</ele>
        <time>2014-04-21T06:22:24Z</time>
      </trkpt>
      <trkpt lat="45.16374" lon="4.69411">
        <ele>417.4</ele>
        <time>2014-04-21T06:22:25Z</time>
      </trkpt>
      <trkpt lat="45.1637" lon="4.69419">
        <ele>417.3</ele>
        <time>2014-04-21T06:22:27Z</time>
      </trkpt>
      <trkpt lat="45.16362" lon="4.69421">
        <ele>417.7</ele>
        <time>2014-04-21T06:22:29Z</time>
      </trkpt>
      <trkpt lat="45.16357" lon="4.69421">
        <ele>418.1</ele>
        <time>2014-04-21T06:22:30Z</time>
      </trkpt>
      <trkpt lat="45.16353" lon="4.69422">
        <ele>418.3</ele>
        <time>2014-04-21T06:22:31Z</time>
      </trkpt>
      <trkpt lat="45.16344" lon="4.69424">
        <ele>418.8</ele>
        <time>2014-04-21T06:22:33Z</time>
      </trkpt>
      <trkpt lat="45.16336" lon="4.69428">
        <ele>419.3</ele>
        <time>2014-04-21T06:22:35Z</time>
      </trkpt>
      <trkpt lat="45.16328" lon="4.69429">
        <ele>419.5</ele>
        <time>2014-04-21T06:22:37Z</time>
      </trkpt>
      <trkpt lat="45.1632" lon="4.69433">
        <ele>419.4</ele>
        <time>2014-04-21T06:22:39Z</time>
      </trkpt>
      <trkpt lat="45.16313" lon="4.69439">
        <ele>419.2</ele>
        <time>2014-04-21T06:22:41Z</time>
      </trkpt>
      <trkpt lat="45.16306" lon="4.69443">
        <ele>419.2</ele>
        <time>2014-04-21T06:22:43Z</time>
      </trkpt>
      <trkpt lat="45.16298" lon="4.69446">
        <ele>419.2</ele>
        <time>2014-04-21T06:22:45Z</time>
      </trkpt>
      <trkpt lat="45.1629" lon="4.69449">
        <ele>419.2</ele>
        <time>2014-04-21T06:22:47Z</time>
      </trkpt>
      <trkpt lat="45.16282" lon="4.69452">
        <ele>419.2</ele>
        <time>2014-04-21T06:22:49Z</time>
      </trkpt>
      <trkpt lat="45.16275" lon="4.69455">
        <ele>419.2</ele>
        <time>2014-04-21T06:22:51Z</time>
      </trkpt>
      <trkpt lat="45.16267" lon="4.69458">
        <ele>419.2</ele>
        <time>2014-04-21T06:22:53Z</time>
      </trkpt>
      <trkpt lat="45.16259" lon="4.69459">
        <ele>419.3</ele>
        <time>2014-04-21T06:22:55Z</time>
      </trkpt>
      <trkpt lat="45.16251" lon="4.69462">
        <ele>419.3</ele>
        <time>2014-04-21T06:22:57Z</time>
      </trkpt>
      <trkpt lat="45.16235" lon="4.69468">
        <ele>419.1</ele>
        <time>2014-04-21T06:23:01Z</time>
      </trkpt>
      <trkpt lat="45.1623" lon="4.69469">
        <ele>419</ele>
        <time>2014-04-21T06:23:02Z</time>
      </trkpt>
      <trkpt lat="45.16226" lon="4.6947">
        <ele>419</ele>
        <time>2014-04-21T06:23:03Z</time>
      </trkpt>
      <trkpt lat="45.1622" lon="4.69471">
        <ele>419</ele>
        <time>2014-04-21T06:23:04Z</time>
      </trkpt>
      <trkpt lat="45.16215" lon="4.69472">
        <ele>418.9</ele>
        <time>2014-04-21T06:23:05Z</time>
      </trkpt>
      <trkpt lat="45.1621" lon="4.69473">
        <ele>418.8</ele>
        <time>2014-04-21T06:23:06Z</time>
      </trkpt>
      <trkpt lat="45.16204" lon="4.69474">
        <ele>418.8</ele>
        <time>2014-04-21T06:23:07Z</time>
      </trkpt>
      <trkpt lat="45.16198" lon="4.69474">
        <ele>418.7</ele>
        <time>2014-04-21T06:23:08Z</time>
      </trkpt>
      <trkpt lat="45.16191" lon="4.69475">
        <ele>418.7</ele>
        <time>2014-04-21T06:23:09Z</time>
      </trkpt>
      <trkpt lat="45.16184" lon="4.69476">
        <ele>418.7</ele>
        <time>2014-04-21T06:23:10Z</time>
      </trkpt>
      <trkpt lat="45.16177" lon="4.69477">
        <ele>418.6</ele>
        <time>2014-04-21T06:23:11Z</time>
      </trkpt>
      <trkpt lat="45.1617" lon="4.69478">
        <ele>418.5</ele>
        <time>2014-04-21T06:23:12Z</time>
      </trkpt>
      <trkpt lat="45.16163" lon="4.6948">
        <ele>418.3</ele>
        <time>2014-04-21T06:23:13Z</time>
      </trkpt>
      <trkpt lat="45.16156" lon="4.69482">
        <ele>417.7</ele>
        <time>2014-04-21T06:23:14Z</time>
      </trkpt>
      <trkpt lat="45.16149" lon="4.69483">
        <ele>417.2</ele>
        <time>2014-04-21T06:23:15Z</time>
      </trkpt>
      <trkpt lat="45.16142" lon="4.69486">
        <ele>416.6</ele>
        <time>2014-04-21T06:23:16Z</time>
      </trkpt>
      <trkpt lat="45.16135" lon="4.69488">
        <ele>416.1</ele>
        <time>2014-04-21T06:23:17Z</time>
      </trkpt>
      <trkpt lat="45.16128" lon="4.69491">
        <ele>415.5</ele>
        <time>2014-04-21T06:23:18Z</time>
      </trkpt>
      <trkpt lat="45.16121" lon="4.69493">
        <ele>414.9</ele>
        <time>2014-04-21T06:23:19Z</time>
      </trkpt>
      <trkpt lat="45.16115" lon="4.69496">
        <ele>414.4</ele>
        <time>2014-04-21T06:23:20Z</time>
      </trkpt>
      <trkpt lat="45.16108" lon="4.69498">
        <ele>413.9</ele>
        <time>2014-04-21T06:23:21Z</time>
      </trkpt>
      <trkpt lat="45.16102" lon="4.69498">
        <ele>413.5</ele>
        <time>2014-04-21T06:23:22Z</time>
      </trkpt>
      <trkpt lat="45.16097" lon="4.69497">
        <ele>413.1</ele>
        <time>2014-04-21T06:23:23Z</time>
      </trkpt>
      <trkpt lat="45.16091" lon="4.69495">
        <ele>412.7</ele>
        <time>2014-04-21T06:23:24Z</time>
      </trkpt>
      <trkpt lat="45.16085" lon="4.69493">
        <ele>412.4</ele>
        <time>2014-04-21T06:23:25Z</time>
      </trkpt>
      <trkpt lat="45.16079" lon="4.6949">
        <ele>412.1</ele>
        <time>2014-04-21T06:23:26Z</time>
      </trkpt>
      <trkpt lat="45.16072" lon="4.69487">
        <ele>411.7</ele>
        <time>2014-04-21T06:23:27Z</time>
      </trkpt>
      <trkpt lat="45.16065" lon="4.69485">
        <ele>411.4</ele>
        <time>2014-04-21T06:23:28Z</time>
      </trkpt>
      <trkpt lat="45.16059" lon="4.69482">
        <ele>411.1</ele>
        <time>2014-04-21T06:23:29Z</time>
      </trkpt>
      <trkpt lat="45.16051" lon="4.69478">
        <ele>410.8</ele>
        <time>2014-04-21T06:23:30Z</time>
      </trkpt>
      <trkpt lat="45.16044" lon="4.69475">
        <ele>410.5</ele>
        <time>2014-04-21T06:23:31Z</time>
      </trkpt>
      <trkpt lat="45.16036" lon="4.69471">
        <ele>410.2</ele>
        <time>2014-04-21T06:23:32Z</time>
      </trkpt>
      <trkpt lat="45.16027" lon="4.69468">
        <ele>409.9</ele>
        <time>2014-04-21T06:23:33Z</time>
      </trkpt>
      <trkpt lat="45.16019" lon="4.69464">
        <ele>409.7</ele>
        <time>2014-04-21T06:23:34Z</time>
      </trkpt>
      <trkpt lat="45.16011" lon="4.69462">
        <ele>409.4</ele>
        <time>2014-04-21T06:23:35Z</time>
      </trkpt>
      <trkpt lat="45.16003" lon="4.69459">
        <ele>409.1</ele>
        <time>2014-04-21T06:23:36Z</time>
      </trkpt>
      <trkpt lat="45.15995" lon="4.69455">
        <ele>408.8</ele>
        <time>2014-04-21T06:23:37Z</time>
      </trkpt>
      <trkpt lat="45.15987" lon="4.69452">
        <ele>408.2</ele>
        <time>2014-04-21T06:23:38Z</time>
      </trkpt>
      <trkpt lat="45.1598" lon="4.69448">
        <ele>407.6</ele>
        <time>2014-04-21T06:23:39Z</time>
      </trkpt>
      <trkpt lat="45.15972" lon="4.69444">
        <ele>407.1</ele>
        <time>2014-04-21T06:23:40Z</time>
      </trkpt>
      <trkpt lat="45.15964" lon="4.69441">
        <ele>406.6</ele>
        <time>2014-04-21T06:23:41Z</time>
      </trkpt>
      <trkpt lat="45.15957" lon="4.69437">
        <ele>406.1</ele>
        <time>2014-04-21T06:23:42Z</time>
      </trkpt>
      <trkpt lat="45.15949" lon="4.69434">
        <ele>405.7</ele>
        <time>2014-04-21T06:23:43Z</time>
      </trkpt>
      <trkpt lat="45.15942" lon="4.69432">
        <ele>405.2</ele>
        <time>2014-04-21T06:23:44Z</time>
      </trkpt>
      <trkpt lat="45.15935" lon="4.6943">
        <ele>404.6</ele>
        <time>2014-04-21T06:23:45Z</time>
      </trkpt>
      <trkpt lat="45.15929" lon="4.69431">
        <ele>404</ele>
        <time>2014-04-21T06:23:46Z</time>
      </trkpt>
      <trkpt lat="45.15923" lon="4.69432">
        <ele>403.2</ele>
        <time>2014-04-21T06:23:47Z</time>
      </trkpt>
      <trkpt lat="45.15919" lon="4.69435">
        <ele>402.6</ele>
        <time>2014-04-21T06:23:48Z</time>
      </trkpt>
      <trkpt lat="45.15912" lon="4.69439">
        <ele>401.2</ele>
        <time>2014-04-21T06:23:50Z</time>
      </trkpt>
      <trkpt lat="45.15905" lon="4.6944">
        <ele>400.2</ele>
        <time>2014-04-21T06:23:52Z</time>
      </trkpt>
      <trkpt lat="45.15897" lon="4.69441">
        <ele>399.1</ele>
        <time>2014-04-21T06:23:54Z</time>
      </trkpt>
      <trkpt lat="45.15892" lon="4.69441">
        <ele>398.4</ele>
        <time>2014-04-21T06:23:55Z</time>
      </trkpt>
      <trkpt lat="45.15884" lon="4.69445">
        <ele>397</ele>
        <time>2014-04-21T06:23:57Z</time>
      </trkpt>
      <trkpt lat="45.15879" lon="4.69447">
        <ele>396.1</ele>
        <time>2014-04-21T06:23:58Z</time>
      </trkpt>
      <trkpt lat="45.15868" lon="4.69449">
        <ele>394.5</ele>
        <time>2014-04-21T06:24:00Z</time>
      </trkpt>
      <trkpt lat="45.15863" lon="4.6945">
        <ele>393.8</ele>
        <time>2014-04-21T06:24:01Z</time>
      </trkpt>
      <trkpt lat="45.15857" lon="4.6945">
        <ele>393.1</ele>
        <time>2014-04-21T06:24:02Z</time>
      </trkpt>
      <trkpt lat="45.15852" lon="4.69448">
        <ele>392.5</ele>
        <time>2014-04-21T06:24:03Z</time>
      </trkpt>
      <trkpt lat="45.15847" lon="4.69447">
        <ele>391.9</ele>
        <time>2014-04-21T06:24:04Z</time>
      </trkpt>
      <trkpt lat="45.15841" lon="4.69447">
        <ele>391.2</ele>
        <time>2014-04-21T06:24:05Z</time>
      </trkpt>
      <trkpt lat="45.15836" lon="4.69449">
        <ele>390.4</ele>
        <time>2014-04-21T06:24:06Z</time>
      </trkpt>
      <trkpt lat="45.15831" lon="4.69452">
        <ele>389.5</ele>
        <time>2014-04-21T06:24:07Z</time>
      </trkpt>
      <trkpt lat="45.15827" lon="4.69456">
        <ele>388.8</ele>
        <time>2014-04-21T06:24:08Z</time>
      </trkpt>
      <trkpt lat="45.15822" lon="4.6946">
        <ele>388</ele>
        <time>2014-04-21T06:24:09Z</time>
      </trkpt>
      <trkpt lat="45.15816" lon="4.69466">
        <ele>386.9</ele>
        <time>2014-04-21T06:24:11Z</time>
      </trkpt>
      <trkpt lat="45.15811" lon="4.69469">
        <ele>386.2</ele>
        <time>2014-04-21T06:24:13Z</time>
      </trkpt>
      <trkpt lat="45.15807" lon="4.69469">
        <ele>385.9</ele>
        <time>2014-04-21T06:24:15Z</time>
      </trkpt>
      <trkpt lat="45.15802" lon="4.69472">
        <ele>385.3</ele>
        <time>2014-04-21T06:24:17Z</time>
      </trkpt>
      <trkpt lat="45.15797" lon="4.69478">
        <ele>384.2</ele>
        <time>2014-04-21T06:24:19Z</time>
      </trkpt>
      <trkpt lat="45.15792" lon="4.69485">
        <ele>383.1</ele>
        <time>2014-04-21T06:24:21Z</time>
      </trkpt>
      <trkpt lat="45.15788" lon="4.6949">
        <ele>382.2</ele>
        <time>2014-04-21T06:24:23Z</time>
      </trkpt>
      <trkpt lat="45.15783" lon="4.69496">
        <ele>381.3</ele>
        <time>2014-04-21T06:24:25Z</time>
      </trkpt>
      <trkpt lat="45.15777" lon="4.69498">
        <ele>380.6</ele>
        <time>2014-04-21T06:24:27Z</time>
      </trkpt>
      <trkpt lat="45.1577" lon="4.69504">
        <ele>379.6</ele>
        <time>2014-04-21T06:24:29Z</time>
      </trkpt>
      <trkpt lat="45.15763" lon="4.69506">
        <ele>378.8</ele>
        <time>2014-04-21T06:24:31Z</time>
      </trkpt>
      <trkpt lat="45.15757" lon="4.69506">
        <ele>378.3</ele>
        <time>2014-04-21T06:24:33Z</time>
      </trkpt>
      <trkpt lat="45.15752" lon="4.69503">
        <ele>378</ele>
        <time>2014-04-21T06:24:36Z</time>
      </trkpt>
      <trkpt lat="45.1575" lon="4.69497">
        <ele>378.4</ele>
        <time>2014-04-21T06:24:39Z</time>
      </trkpt>
      <trkpt lat="45.15744" lon="4.69495">
        <ele>378</ele>
        <time>2014-04-21T06:24:42Z</time>
      </trkpt>
      <trkpt lat="45.15742" lon="4.695">
        <ele>377</ele>
        <time>2014-04-21T06:24:44Z</time>
      </trkpt>
      <trkpt lat="45.1574" lon="4.69508">
        <ele>376.2</ele>
        <time>2014-04-21T06:24:47Z</time>
      </trkpt>
      <trkpt lat="45.15737" lon="4.69513">
        <ele>375.5</ele>
        <time>2014-04-21T06:24:49Z</time>
      </trkpt>
      <trkpt lat="45.15732" lon="4.69518">
        <ele>374.4</ele>
        <time>2014-04-21T06:24:51Z</time>
      </trkpt>
      <trkpt lat="45.15725" lon="4.69518">
        <ele>373.4</ele>
        <time>2014-04-21T06:24:53Z</time>
      </trkpt>
      <trkpt lat="45.1572" lon="4.69519">
        <ele>372.5</ele>
        <time>2014-04-21T06:24:55Z</time>
      </trkpt>
      <trkpt lat="45.15717" lon="4.69527">
        <ele>371.6</ele>
        <time>2014-04-21T06:24:57Z</time>
      </trkpt>
      <trkpt lat="45.15716" lon="4.69536">
        <ele>370.6</ele>
        <time>2014-04-21T06:24:59Z</time>
      </trkpt>
      <trkpt lat="45.15707" lon="4.69554">
        <ele>367.8</ele>
        <time>2014-04-21T06:25:03Z</time>
      </trkpt>
      <trkpt lat="45.15704" lon="4.69559">
        <ele>366.8</ele>
        <time>2014-04-21T06:25:04Z</time>
      </trkpt>
      <trkpt lat="45.157" lon="4.69565">
        <ele>365.8</ele>
        <time>2014-04-21T06:25:05Z</time>
      </trkpt>
      <trkpt lat="45.15696" lon="4.69573">
        <ele>364.2</ele>
        <time>2014-04-21T06:25:07Z</time>
      </trkpt>
      <trkpt lat="45.15693" lon="4.69579">
        <ele>363.2</ele>
        <time>2014-04-21T06:25:09Z</time>
      </trkpt>
      <trkpt lat="45.15685" lon="4.69579">
        <ele>361.9</ele>
        <time>2014-04-21T06:25:11Z</time>
      </trkpt>
      <trkpt lat="45.15679" lon="4.69571">
        <ele>361.5</ele>
        <time>2014-04-21T06:25:13Z</time>
      </trkpt>
      <trkpt lat="45.15674" lon="4.69566">
        <ele>361</ele>
        <time>2014-04-21T06:25:15Z</time>
      </trkpt>
      <trkpt lat="45.15666" lon="4.69566">
        <ele>359.9</ele>
        <time>2014-04-21T06:25:17Z</time>
      </trkpt>
      <trkpt lat="45.1566" lon="4.69568">
        <ele>359</ele>
        <time>2014-04-21T06:25:19Z</time>
      </trkpt>
      <trkpt lat="45.15655" lon="4.69571">
        <ele>358.2</ele>
        <time>2014-04-21T06:25:22Z</time>
      </trkpt>
      <trkpt lat="45.1565" lon="4.69578">
        <ele>356.9</ele>
        <time>2014-04-21T06:25:25Z</time>
      </trkpt>
      <trkpt lat="45.15646" lon="4.69586">
        <ele>355.9</ele>
        <time>2014-04-21T06:25:27Z</time>
      </trkpt>
      <trkpt lat="45.15643" lon="4.69594">
        <ele>355.1</ele>
        <time>2014-04-21T06:25:29Z</time>
      </trkpt>
      <trkpt lat="45.1564" lon="4.69602">
        <ele>354.2</ele>
        <time>2014-04-21T06:25:31Z</time>
      </trkpt>
      <trkpt lat="45.15636" lon="4.6961">
        <ele>353.4</ele>
        <time>2014-04-21T06:25:33Z</time>
      </trkpt>
      <trkpt lat="45.15632" lon="4.69618">
        <ele>352.7</ele>
        <time>2014-04-21T06:25:35Z</time>
      </trkpt>
      <trkpt lat="45.15628" lon="4.69627">
        <ele>351.9</ele>
        <time>2014-04-21T06:25:37Z</time>
      </trkpt>
      <trkpt lat="45.15625" lon="4.69636">
        <ele>351.2</ele>
        <time>2014-04-21T06:25:39Z</time>
      </trkpt>
      <trkpt lat="45.1562" lon="4.69646">
        <ele>350.4</ele>
        <time>2014-04-21T06:25:41Z</time>
      </trkpt>
      <trkpt lat="45.15617" lon="4.69655">
        <ele>349.8</ele>
        <time>2014-04-21T06:25:43Z</time>
      </trkpt>
      <trkpt lat="45.15613" lon="4.69663">
        <ele>349.3</ele>
        <time>2014-04-21T06:25:45Z</time>
      </trkpt>
      <trkpt lat="45.1561" lon="4.69671">
        <ele>349.1</ele>
        <time>2014-04-21T06:25:47Z</time>
      </trkpt>
      <trkpt lat="45.15606" lon="4.69676">
        <ele>349.2</ele>
        <time>2014-04-21T06:25:49Z</time>
      </trkpt>
      <trkpt lat="45.15599" lon="4.69672">
        <ele>348.8</ele>
        <time>2014-04-21T06:25:52Z</time>
      </trkpt>
      <trkpt lat="45.15593" lon="4.69663">
        <ele>348.5</ele>
        <time>2014-04-21T06:25:54Z</time>
      </trkpt>
      <trkpt lat="45.15587" lon="4.69655">
        <ele>348.5</ele>
        <time>2014-04-21T06:25:56Z</time>
      </trkpt>
      <trkpt lat="45.15583" lon="4.6965">
        <ele>348.4</ele>
        <time>2014-04-21T06:25:57Z</time>
      </trkpt>
      <trkpt lat="45.15577" lon="4.69642">
        <ele>349.2</ele>
        <time>2014-04-21T06:25:59Z</time>
      </trkpt>
      <trkpt lat="45.15571" lon="4.69633">
        <ele>349.9</ele>
        <time>2014-04-21T06:26:01Z</time>
      </trkpt>
      <trkpt lat="45.15562" lon="4.69618">
        <ele>350.6</ele>
        <time>2014-04-21T06:26:04Z</time>
      </trkpt>
      <trkpt lat="45.15559" lon="4.69613">
        <ele>350.8</ele>
        <time>2014-04-21T06:26:05Z</time>
      </trkpt>
      <trkpt lat="45.15555" lon="4.69605">
        <ele>351</ele>
        <time>2014-04-21T06:26:07Z</time>
      </trkpt>
      <trkpt lat="45.1555" lon="4.69596">
        <ele>351</ele>
        <time>2014-04-21T06:26:09Z</time>
      </trkpt>
      <trkpt lat="45.15547" lon="4.69589">
        <ele>351</ele>
        <time>2014-04-21T06:26:11Z</time>
      </trkpt>
      <trkpt lat="45.15544" lon="4.69581">
        <ele>351.1</ele>
        <time>2014-04-21T06:26:13Z</time>
      </trkpt>
      <trkpt lat="45.15539" lon="4.69574">
        <ele>351.4</ele>
        <time>2014-04-21T06:26:15Z</time>
      </trkpt>
      <trkpt lat="45.15534" lon="4.69569">
        <ele>351.6</ele>
        <time>2014-04-21T06:26:17Z</time>
      </trkpt>
      <trkpt lat="45.1553" lon="4.69562">
        <ele>351.8</ele>
        <time>2014-04-21T06:26:19Z</time>
      </trkpt>
      <trkpt lat="45.15526" lon="4.69557">
        <ele>351.8</ele>
        <time>2014-04-21T06:26:21Z</time>
      </trkpt>
      <trkpt lat="45.15521" lon="4.69551">
        <ele>351.9</ele>
        <time>2014-04-21T06:26:24Z</time>
      </trkpt>
      <trkpt lat="45.15518" lon="4.69545">
        <ele>351.9</ele>
        <time>2014-04-21T06:26:26Z</time>
      </trkpt>
      <trkpt lat="45.15514" lon="4.69539">
        <ele>351.9</ele>
        <time>2014-04-21T06:26:28Z</time>
      </trkpt>
      <trkpt lat="45.15511" lon="4.69532">
        <ele>351.8</ele>
        <time>2014-04-21T06:26:30Z</time>
      </trkpt>
      <trkpt lat="45.15506" lon="4.69524">
        <ele>351.6</ele>
        <time>2014-04-21T06:26:32Z</time>
      </trkpt>
      <trkpt lat="45.15504" lon="4.69517">
        <ele>351.4</ele>
        <time>2014-04-21T06:26:34Z</time>
      </trkpt>
      <trkpt lat="45.155" lon="4.69512">
        <ele>351.2</ele>
        <time>2014-04-21T06:26:38Z</time>
      </trkpt>
      <trkpt lat="45.15495" lon="4.6951">
        <ele>351.8</ele>
        <time>2014-04-21T06:26:42Z</time>
      </trkpt>
      <trkpt lat="45.1549" lon="4.69508">
        <ele>352.3</ele>
        <time>2014-04-21T06:26:46Z</time>
      </trkpt>
      <trkpt lat="45.15486" lon="4.69505">
        <ele>352.8</ele>
        <time>2014-04-21T06:26:51Z</time>
      </trkpt>
      <trkpt lat="45.15485" lon="4.69497">
        <ele>352.9</ele>
        <time>2014-04-21T06:26:54Z</time>
      </trkpt>
      <trkpt lat="45.15485" lon="4.69489">
        <ele>353</ele>
        <time>2014-04-21T06:26:57Z</time>
      </trkpt>
      <trkpt lat="45.15483" lon="4.69483">
        <ele>353.3</ele>
        <time>2014-04-21T06:27:02Z</time>
      </trkpt>
      <trkpt lat="45.15474" lon="4.69493">
        <ele>354.1</ele>
        <time>2014-04-21T06:27:14Z</time>
      </trkpt>
      <trkpt lat="45.1547" lon="4.69497">
        <ele>354.6</ele>
        <time>2014-04-21T06:27:20Z</time>
      </trkpt>
      <trkpt lat="45.15464" lon="4.69497">
        <ele>355.3</ele>
        <time>2014-04-21T06:27:27Z</time>
      </trkpt>
      <trkpt lat="45.15459" lon="4.69497">
        <ele>355.9</ele>
        <time>2014-04-21T06:27:34Z</time>
      </trkpt>
      <trkpt lat="45.15454" lon="4.69497">
        <ele>356.5</ele>
        <time>2014-04-21T06:27:41Z</time>
      </trkpt>
      <trkpt lat="45.15449" lon="4.69494">
        <ele>356.9</ele>
        <time>2014-04-21T06:27:46Z</time>
      </trkpt>
      <trkpt lat="45.15445" lon="4.6949">
        <ele>357.2</ele>
        <time>2014-04-21T06:27:52Z</time>
      </trkpt>
      <trkpt lat="45.15441" lon="4.69488">
        <ele>357.5</ele>
        <time>2014-04-21T06:27:57Z</time>
      </trkpt>
      <trkpt lat="45.15437" lon="4.69485">
        <ele>357.9</ele>
        <time>2014-04-21T06:28:04Z</time>
      </trkpt>
      <trkpt lat="45.15427" lon="4.6948">
        <ele>358.5</ele>
        <time>2014-04-21T06:28:17Z</time>
      </trkpt>
      <trkpt lat="45.15423" lon="4.69477">
        <ele>358.8</ele>
        <time>2014-04-21T06:28:22Z</time>
      </trkpt>
      <trkpt lat="45.15419" lon="4.69475">
        <ele>359</ele>
        <time>2014-04-21T06:28:30Z</time>
      </trkpt>
      <trkpt lat="45.15414" lon="4.69471">
        <ele>359.5</ele>
        <time>2014-04-21T06:28:37Z</time>
      </trkpt>
      <trkpt lat="45.1541" lon="4.69469">
        <ele>360.3</ele>
        <time>2014-04-21T06:28:44Z</time>
      </trkpt>
      <trkpt lat="45.15406" lon="4.69465">
        <ele>361</ele>
        <time>2014-04-21T06:28:51Z</time>
      </trkpt>
      <trkpt lat="45.15402" lon="4.69463">
        <ele>361.8</ele>
        <time>2014-04-21T06:28:58Z</time>
      </trkpt>
      <trkpt lat="45.15397" lon="4.69461">
        <ele>362.8</ele>
        <time>2014-04-21T06:29:05Z</time>
      </trkpt>
      <trkpt lat="45.15388" lon="4.69456">
        <ele>364.7</ele>
        <time>2014-04-21T06:29:22Z</time>
      </trkpt>
      <trkpt lat="45.15382" lon="4.69454">
        <ele>366.1</ele>
        <time>2014-04-21T06:29:26Z</time>
      </trkpt>
      <trkpt lat="45.15378" lon="4.69451">
        <ele>366.9</ele>
        <time>2014-04-21T06:29:29Z</time>
      </trkpt>
      <trkpt lat="45.15373" lon="4.69449">
        <ele>367.9</ele>
        <time>2014-04-21T06:29:32Z</time>
      </trkpt>
      <trkpt lat="45.15368" lon="4.69446">
        <ele>369.1</ele>
        <time>2014-04-21T06:29:35Z</time>
      </trkpt>
      <trkpt lat="45.15366" lon="4.69441">
        <ele>369.5</ele>
        <time>2014-04-21T06:29:38Z</time>
      </trkpt>
      <trkpt lat="45.15369" lon="4.69436">
        <ele>368.4</ele>
        <time>2014-04-21T06:29:43Z</time>
      </trkpt>
      <trkpt lat="45.15373" lon="4.69435">
        <ele>367.2</ele>
        <time>2014-04-21T06:29:48Z</time>
      </trkpt>
      <trkpt lat="45.15378" lon="4.69433">
        <ele>366</ele>
        <time>2014-04-21T06:29:52Z</time>
      </trkpt>
      <trkpt lat="45.15382" lon="4.69431">
        <ele>364.8</ele>
        <time>2014-04-21T06:29:57Z</time>
      </trkpt>
      <trkpt lat="45.15387" lon="4.69427">
        <ele>363.4</ele>
        <time>2014-04-21T06:30:01Z</time>
      </trkpt>
      <trkpt lat="45.1539" lon="4.69421">
        <ele>362.2</ele>
        <time>2014-04-21T06:30:05Z</time>
      </trkpt>
      <trkpt lat="45.1539" lon="4.69414">
        <ele>362</ele>
        <time>2014-04-21T06:30:10Z</time>
      </trkpt>
      <trkpt lat="45.15384" lon="4.69404">
        <ele>362.9</ele>
        <time>2014-04-21T06:30:20Z</time>
      </trkpt>
      <trkpt lat="45.1538" lon="4.69399">
        <ele>363.5</ele>
        <time>2014-04-21T06:30:23Z</time>
      </trkpt>
      <trkpt lat="45.15376" lon="4.69396">
        <ele>364.5</ele>
        <time>2014-04-21T06:30:27Z</time>
      </trkpt>
      <trkpt lat="45.15371" lon="4.69395">
        <ele>365.6</ele>
        <time>2014-04-21T06:30:32Z</time>
      </trkpt>
      <trkpt lat="45.15365" lon="4.69392">
        <ele>366.7</ele>
        <time>2014-04-21T06:30:37Z</time>
      </trkpt>
      <trkpt lat="45.15361" lon="4.69389">
        <ele>367.3</ele>
        <time>2014-04-21T06:30:40Z</time>
      </trkpt>
      <trkpt lat="45.15357" lon="4.69385">
        <ele>368.1</ele>
        <time>2014-04-21T06:30:44Z</time>
      </trkpt>
      <trkpt lat="45.15353" lon="4.6938">
        <ele>368.6</ele>
        <time>2014-04-21T06:30:48Z</time>
      </trkpt>
      <trkpt lat="45.15348" lon="4.69377">
        <ele>369.3</ele>
        <time>2014-04-21T06:30:52Z</time>
      </trkpt>
      <trkpt lat="45.15344" lon="4.69374">
        <ele>370.1</ele>
        <time>2014-04-21T06:30:55Z</time>
      </trkpt>
      <trkpt lat="45.15339" lon="4.6937">
        <ele>370.7</ele>
        <time>2014-04-21T06:30:58Z</time>
      </trkpt>
      <trkpt lat="45.15334" lon="4.69366">
        <ele>371.3</ele>
        <time>2014-04-21T06:31:02Z</time>
      </trkpt>
      <trkpt lat="45.1533" lon="4.69365">
        <ele>372.4</ele>
        <time>2014-04-21T06:31:06Z</time>
      </trkpt>
      <trkpt lat="45.15325" lon="4.69362">
        <ele>373.4</ele>
        <time>2014-04-21T06:31:11Z</time>
      </trkpt>
      <trkpt lat="45.15316" lon="4.69353">
        <ele>375.5</ele>
        <time>2014-04-21T06:31:19Z</time>
      </trkpt>
      <trkpt lat="45.15311" lon="4.69351">
        <ele>376.8</ele>
        <time>2014-04-21T06:31:23Z</time>
      </trkpt>
      <trkpt lat="45.15307" lon="4.6935">
        <ele>378.2</ele>
        <time>2014-04-21T06:31:25Z</time>
      </trkpt>
      <trkpt lat="45.15302" lon="4.69347">
        <ele>379.7</ele>
        <time>2014-04-21T06:31:28Z</time>
      </trkpt>
      <trkpt lat="45.15298" lon="4.69342">
        <ele>380.5</ele>
        <time>2014-04-21T06:31:31Z</time>
      </trkpt>
      <trkpt lat="45.15295" lon="4.69334">
        <ele>381.3</ele>
        <time>2014-04-21T06:31:35Z</time>
      </trkpt>
      <trkpt lat="45.15292" lon="4.6933">
        <ele>382</ele>
        <time>2014-04-21T06:31:40Z</time>
      </trkpt>
      <trkpt lat="45.15287" lon="4.69325">
        <ele>383</ele>
        <time>2014-04-21T06:31:46Z</time>
      </trkpt>
      <trkpt lat="45.15282" lon="4.69324">
        <ele>384.8</ele>
        <time>2014-04-21T06:31:50Z</time>
      </trkpt>
      <trkpt lat="45.15277" lon="4.69324">
        <ele>386.5</ele>
        <time>2014-04-21T06:31:54Z</time>
      </trkpt>
      <trkpt lat="45.15272" lon="4.69321">
        <ele>387.8</ele>
        <time>2014-04-21T06:31:58Z</time>
      </trkpt>
      <trkpt lat="45.15267" lon="4.69321">
        <ele>389.7</ele>
        <time>2014-04-21T06:32:03Z</time>
      </trkpt>
      <trkpt lat="45.15261" lon="4.69324">
        <ele>391.9</ele>
        <time>2014-04-21T06:32:08Z</time>
      </trkpt>
      <trkpt lat="45.15257" lon="4.69321">
        <ele>393.2</ele>
        <time>2014-04-21T06:32:12Z</time>
      </trkpt>
      <trkpt lat="45.15247" lon="4.69319">
        <ele>395.8</ele>
        <time>2014-04-21T06:32:19Z</time>
      </trkpt>
      <trkpt lat="45.15241" lon="4.6932">
        <ele>396.7</ele>
        <time>2014-04-21T06:32:23Z</time>
      </trkpt>
      <trkpt lat="45.15235" lon="4.6932">
        <ele>397.7</ele>
        <time>2014-04-21T06:32:27Z</time>
      </trkpt>
      <trkpt lat="45.1523" lon="4.69321">
        <ele>398.7</ele>
        <time>2014-04-21T06:32:30Z</time>
      </trkpt>
      <trkpt lat="45.15225" lon="4.69321">
        <ele>399.5</ele>
        <time>2014-04-21T06:32:33Z</time>
      </trkpt>
      <trkpt lat="45.1522" lon="4.6932">
        <ele>400.3</ele>
        <time>2014-04-21T06:32:37Z</time>
      </trkpt>
      <trkpt lat="45.15215" lon="4.69319">
        <ele>401.1</ele>
        <time>2014-04-21T06:32:41Z</time>
      </trkpt>
      <trkpt lat="45.15209" lon="4.69317">
        <ele>401.9</ele>
        <time>2014-04-21T06:32:46Z</time>
      </trkpt>
      <trkpt lat="45.15205" lon="4.69314">
        <ele>402.6</ele>
        <time>2014-04-21T06:32:49Z</time>
      </trkpt>
      <trkpt lat="45.15199" lon="4.69313">
        <ele>403.5</ele>
        <time>2014-04-21T06:32:52Z</time>
      </trkpt>
      <trkpt lat="45.15193" lon="4.69312">
        <ele>404.6</ele>
        <time>2014-04-21T06:32:55Z</time>
      </trkpt>
      <trkpt lat="45.15187" lon="4.69311">
        <ele>405.6</ele>
        <time>2014-04-21T06:32:58Z</time>
      </trkpt>
      <trkpt lat="45.15181" lon="4.69308">
        <ele>406.6</ele>
        <time>2014-04-21T06:33:01Z</time>
      </trkpt>
      <trkpt lat="45.15176" lon="4.69306">
        <ele>407.6</ele>
        <time>2014-04-21T06:33:05Z</time>
      </trkpt>
      <trkpt lat="45.15171" lon="4.69305">
        <ele>408.5</ele>
        <time>2014-04-21T06:33:09Z</time>
      </trkpt>
      <trkpt lat="45.15166" lon="4.69303">
        <ele>409.4</ele>
        <time>2014-04-21T06:33:12Z</time>
      </trkpt>
      <trkpt lat="45.15162" lon="4.69302">
        <ele>409.7</ele>
        <time>2014-04-21T06:33:15Z</time>
      </trkpt>
      <trkpt lat="45.15152" lon="4.69299">
        <ele>410.4</ele>
        <time>2014-04-21T06:33:21Z</time>
      </trkpt>
      <trkpt lat="45.15147" lon="4.69296">
        <ele>410.8</ele>
        <time>2014-04-21T06:33:25Z</time>
      </trkpt>
      <trkpt lat="45.15143" lon="4.69296">
        <ele>411.1</ele>
        <time>2014-04-21T06:33:29Z</time>
      </trkpt>
      <trkpt lat="45.15138" lon="4.69296">
        <ele>411.5</ele>
        <time>2014-04-21T06:33:31Z</time>
      </trkpt>
      <trkpt lat="45.15133" lon="4.69296">
        <ele>411.8</ele>
        <time>2014-04-21T06:33:34Z</time>
      </trkpt>
      <trkpt lat="45.15127" lon="4.69294">
        <ele>412.3</ele>
        <time>2014-04-21T06:33:37Z</time>
      </trkpt>
      <trkpt lat="45.15123" lon="4.69292">
        <ele>412.7</ele>
        <time>2014-04-21T06:33:41Z</time>
      </trkpt>
      <trkpt lat="45.15118" lon="4.6929">
        <ele>413.1</ele>
        <time>2014-04-21T06:33:44Z</time>
      </trkpt>
      <trkpt lat="45.15113" lon="4.69288">
        <ele>413.5</ele>
        <time>2014-04-21T06:33:47Z</time>
      </trkpt>
      <trkpt lat="45.15108" lon="4.69286">
        <ele>414</ele>
        <time>2014-04-21T06:33:51Z</time>
      </trkpt>
      <trkpt lat="45.15103" lon="4.69283">
        <ele>414.5</ele>
        <time>2014-04-21T06:33:56Z</time>
      </trkpt>
      <trkpt lat="45.15098" lon="4.69282">
        <ele>415</ele>
        <time>2014-04-21T06:34:01Z</time>
      </trkpt>
      <trkpt lat="45.15093" lon="4.69282">
        <ele>415.4</ele>
        <time>2014-04-21T06:34:05Z</time>
      </trkpt>
      <trkpt lat="45.15087" lon="4.6928">
        <ele>415.9</ele>
        <time>2014-04-21T06:34:10Z</time>
      </trkpt>
      <trkpt lat="45.15082" lon="4.69277">
        <ele>416.6</ele>
        <time>2014-04-21T06:34:14Z</time>
      </trkpt>
      <trkpt lat="45.15077" lon="4.69274">
        <ele>417.4</ele>
        <time>2014-04-21T06:34:18Z</time>
      </trkpt>
      <trkpt lat="45.15066" lon="4.69269">
        <ele>418.9</ele>
        <time>2014-04-21T06:34:28Z</time>
      </trkpt>
      <trkpt lat="45.1506" lon="4.69267">
        <ele>419.8</ele>
        <time>2014-04-21T06:34:32Z</time>
      </trkpt>
      <trkpt lat="45.15054" lon="4.69265">
        <ele>420.7</ele>
        <time>2014-04-21T06:34:35Z</time>
      </trkpt>
      <trkpt lat="45.15048" lon="4.69266">
        <ele>421.3</ele>
        <time>2014-04-21T06:34:39Z</time>
      </trkpt>
      <trkpt lat="45.15043" lon="4.69267">
        <ele>421.9</ele>
        <time>2014-04-21T06:34:42Z</time>
      </trkpt>
      <trkpt lat="45.15038" lon="4.69267">
        <ele>422.5</ele>
        <time>2014-04-21T06:34:46Z</time>
      </trkpt>
      <trkpt lat="45.15033" lon="4.69266">
        <ele>423.1</ele>
        <time>2014-04-21T06:34:51Z</time>
      </trkpt>
      <trkpt lat="45.15028" lon="4.69263">
        <ele>423.9</ele>
        <time>2014-04-21T06:34:56Z</time>
      </trkpt>
      <trkpt lat="45.15023" lon="4.69259">
        <ele>424.7</ele>
        <time>2014-04-21T06:35:00Z</time>
      </trkpt>
      <trkpt lat="45.15018" lon="4.69258">
        <ele>425.3</ele>
        <time>2014-04-21T06:35:03Z</time>
      </trkpt>
      <trkpt lat="45.15013" lon="4.69255">
        <ele>426.2</ele>
        <time>2014-04-21T06:35:07Z</time>
      </trkpt>
      <trkpt lat="45.15008" lon="4.69254">
        <ele>426.8</ele>
        <time>2014-04-21T06:35:10Z</time>
      </trkpt>
      <trkpt lat="45.15003" lon="4.69254">
        <ele>427.4</ele>
        <time>2014-04-21T06:35:14Z</time>
      </trkpt>
      <trkpt lat="45.14998" lon="4.69255">
        <ele>427.9</ele>
        <time>2014-04-21T06:35:18Z</time>
      </trkpt>
      <trkpt lat="45.14993" lon="4.69257">
        <ele>428.4</ele>
        <time>2014-04-21T06:35:23Z</time>
      </trkpt>
      <trkpt lat="45.14982" lon="4.69259">
        <ele>429.4</ele>
        <time>2014-04-21T06:35:33Z</time>
      </trkpt>
      <trkpt lat="45.14977" lon="4.6926">
        <ele>429.9</ele>
        <time>2014-04-21T06:35:37Z</time>
      </trkpt>
      <trkpt lat="45.14972" lon="4.69261">
        <ele>430.4</ele>
        <time>2014-04-21T06:35:42Z</time>
      </trkpt>
      <trkpt lat="45.14967" lon="4.69263">
        <ele>430.9</ele>
        <time>2014-04-21T06:35:47Z</time>
      </trkpt>
      <trkpt lat="45.14962" lon="4.69264">
        <ele>431.4</ele>
        <time>2014-04-21T06:35:52Z</time>
      </trkpt>
      <trkpt lat="45.14957" lon="4.69266">
        <ele>431.8</ele>
        <time>2014-04-21T06:35:58Z</time>
      </trkpt>
      <trkpt lat="45.14952" lon="4.69268">
        <ele>432.3</ele>
        <time>2014-04-21T06:36:04Z</time>
      </trkpt>
      <trkpt lat="45.14947" lon="4.69268">
        <ele>432.8</ele>
        <time>2014-04-21T06:36:08Z</time>
      </trkpt>
      <trkpt lat="45.14942" lon="4.6927">
        <ele>433.2</ele>
        <time>2014-04-21T06:36:13Z</time>
      </trkpt>
      <trkpt lat="45.14937" lon="4.69272">
        <ele>433.6</ele>
        <time>2014-04-21T06:36:18Z</time>
      </trkpt>
      <trkpt lat="45.14933" lon="4.69274">
        <ele>434.1</ele>
        <time>2014-04-21T06:36:23Z</time>
      </trkpt>
      <trkpt lat="45.14928" lon="4.69276">
        <ele>434.6</ele>
        <time>2014-04-21T06:36:28Z</time>
      </trkpt>
      <trkpt lat="45.14919" lon="4.69279">
        <ele>435.4</ele>
        <time>2014-04-21T06:36:37Z</time>
      </trkpt>
      <trkpt lat="45.14914" lon="4.69281">
        <ele>435.8</ele>
        <time>2014-04-21T06:36:42Z</time>
      </trkpt>
      <trkpt lat="45.14909" lon="4.69283">
        <ele>436.3</ele>
        <time>2014-04-21T06:36:46Z</time>
      </trkpt>
      <trkpt lat="45.14903" lon="4.69284">
        <ele>436.9</ele>
        <time>2014-04-21T06:36:50Z</time>
      </trkpt>
      <trkpt lat="45.14898" lon="4.69285">
        <ele>437.4</ele>
        <time>2014-04-21T06:36:54Z</time>
      </trkpt>
      <trkpt lat="45.14893" lon="4.69286">
        <ele>437.9</ele>
        <time>2014-04-21T06:36:58Z</time>
      </trkpt>
      <trkpt lat="45.14888" lon="4.69287">
        <ele>438.4</ele>
        <time>2014-04-21T06:37:02Z</time>
      </trkpt>
      <trkpt lat="45.14883" lon="4.69288">
        <ele>439</ele>
        <time>2014-04-21T06:37:06Z</time>
      </trkpt>
      <trkpt lat="45.14878" lon="4.6929">
        <ele>439.5</ele>
        <time>2014-04-21T06:37:10Z</time>
      </trkpt>
      <trkpt lat="45.14873" lon="4.69291">
        <ele>440</ele>
        <time>2014-04-21T06:37:14Z</time>
      </trkpt>
      <trkpt lat="45.14868" lon="4.69292">
        <ele>440.5</ele>
        <time>2014-04-21T06:37:18Z</time>
      </trkpt>
      <trkpt lat="45.14863" lon="4.69293">
        <ele>441.1</ele>
        <time>2014-04-21T06:37:22Z</time>
      </trkpt>
      <trkpt lat="45.14858" lon="4.69294">
        <ele>441.7</ele>
        <time>2014-04-21T06:37:26Z</time>
      </trkpt>
      <trkpt lat="45.14853" lon="4.69294">
        <ele>442.2</ele>
        <time>2014-04-21T06:37:30Z</time>
      </trkpt>
      <trkpt lat="45.14842" lon="4.69296">
        <ele>443.4</ele>
        <time>2014-04-21T06:37:38Z</time>
      </trkpt>
      <trkpt lat="45.14838" lon="4.69297">
        <ele>443.9</ele>
        <time>2014-04-21T06:37:42Z</time>
      </trkpt>
      <trkpt lat="45.14833" lon="4.69298">
        <ele>444.5</ele>
        <time>2014-04-21T06:37:46Z</time>
      </trkpt>
      <trkpt lat="45.14827" lon="4.69299">
        <ele>445</ele>
        <time>2014-04-21T06:37:50Z</time>
      </trkpt>
      <trkpt lat="45.14822" lon="4.693">
        <ele>445.5</ele>
        <time>2014-04-21T06:37:54Z</time>
      </trkpt>
      <trkpt lat="45.14816" lon="4.69301">
        <ele>446</ele>
        <time>2014-04-21T06:37:58Z</time>
      </trkpt>
      <trkpt lat="45.14812" lon="4.69302">
        <ele>446.4</ele>
        <time>2014-04-21T06:38:01Z</time>
      </trkpt>
      <trkpt lat="45.14806" lon="4.69304">
        <ele>447</ele>
        <time>2014-04-21T06:38:05Z</time>
      </trkpt>
      <trkpt lat="45.14802" lon="4.69305">
        <ele>447.4</ele>
        <time>2014-04-21T06:38:08Z</time>
      </trkpt>
      <trkpt lat="45.14795" lon="4.69306">
        <ele>448</ele>
        <time>2014-04-21T06:38:12Z</time>
      </trkpt>
      <trkpt lat="45.1479" lon="4.69307">
        <ele>448.5</ele>
        <time>2014-04-21T06:38:16Z</time>
      </trkpt>
      <trkpt lat="45.14784" lon="4.69308">
        <ele>449.1</ele>
        <time>2014-04-21T06:38:20Z</time>
      </trkpt>
      <trkpt lat="45.14778" lon="4.69309">
        <ele>449.7</ele>
        <time>2014-04-21T06:38:24Z</time>
      </trkpt>
      <trkpt lat="45.14773" lon="4.6931">
        <ele>450.2</ele>
        <time>2014-04-21T06:38:28Z</time>
      </trkpt>
      <trkpt lat="45.14768" lon="4.69312">
        <ele>450.7</ele>
        <time>2014-04-21T06:38:31Z</time>
      </trkpt>
      <trkpt lat="45.14758" lon="4.69314">
        <ele>451.8</ele>
        <time>2014-04-21T06:38:39Z</time>
      </trkpt>
      <trkpt lat="45.14753" lon="4.69316">
        <ele>452.2</ele>
        <time>2014-04-21T06:38:42Z</time>
      </trkpt>
      <trkpt lat="45.14747" lon="4.69317">
        <ele>452.9</ele>
        <time>2014-04-21T06:38:46Z</time>
      </trkpt>
      <trkpt lat="45.14742" lon="4.69318">
        <ele>453.5</ele>
        <time>2014-04-21T06:38:50Z</time>
      </trkpt>
      <trkpt lat="45.14737" lon="4.6932">
        <ele>454</ele>
        <time>2014-04-21T06:38:54Z</time>
      </trkpt>
      <trkpt lat="45.14731" lon="4.69322">
        <ele>454.7</ele>
        <time>2014-04-21T06:38:58Z</time>
      </trkpt>
      <trkpt lat="45.14726" lon="4.69324">
        <ele>455.2</ele>
        <time>2014-04-21T06:39:02Z</time>
      </trkpt>
      <trkpt lat="45.14721" lon="4.69327">
        <ele>455.9</ele>
        <time>2014-04-21T06:39:06Z</time>
      </trkpt>
      <trkpt lat="45.14717" lon="4.69329">
        <ele>456.4</ele>
        <time>2014-04-21T06:39:10Z</time>
      </trkpt>
      <trkpt lat="45.14713" lon="4.69333">
        <ele>457</ele>
        <time>2014-04-21T06:39:15Z</time>
      </trkpt>
      <trkpt lat="45.14714" lon="4.6934">
        <ele>457.3</ele>
        <time>2014-04-21T06:39:21Z</time>
      </trkpt>
      <trkpt lat="45.14714" lon="4.69347">
        <ele>457.5</ele>
        <time>2014-04-21T06:39:26Z</time>
      </trkpt>
      <trkpt lat="45.14715" lon="4.69354">
        <ele>457.8</ele>
        <time>2014-04-21T06:39:30Z</time>
      </trkpt>
      <trkpt lat="45.14715" lon="4.69362">
        <ele>458.1</ele>
        <time>2014-04-21T06:39:33Z</time>
      </trkpt>
      <trkpt lat="45.14713" lon="4.69377">
        <ele>459.1</ele>
        <time>2014-04-21T06:39:39Z</time>
      </trkpt>
      <trkpt lat="45.1471" lon="4.69384">
        <ele>459.7</ele>
        <time>2014-04-21T06:39:42Z</time>
      </trkpt>
      <trkpt lat="45.14706" lon="4.6939">
        <ele>460.4</ele>
        <time>2014-04-21T06:39:45Z</time>
      </trkpt>
      <trkpt lat="45.14702" lon="4.69396">
        <ele>461.1</ele>
        <time>2014-04-21T06:39:48Z</time>
      </trkpt>
      <trkpt lat="45.14699" lon="4.69402">
        <ele>461.6</ele>
        <time>2014-04-21T06:39:50Z</time>
      </trkpt>
      <trkpt lat="45.14696" lon="4.69409">
        <ele>462.2</ele>
        <time>2014-04-21T06:39:53Z</time>
      </trkpt>
      <trkpt lat="45.14693" lon="4.69416">
        <ele>462.7</ele>
        <time>2014-04-21T06:39:56Z</time>
      </trkpt>
      <trkpt lat="45.14691" lon="4.69423">
        <ele>463.5</ele>
        <time>2014-04-21T06:39:59Z</time>
      </trkpt>
      <trkpt lat="45.1469" lon="4.69431">
        <ele>464.2</ele>
        <time>2014-04-21T06:40:02Z</time>
      </trkpt>
      <trkpt lat="45.14689" lon="4.6944">
        <ele>464.8</ele>
        <time>2014-04-21T06:40:05Z</time>
      </trkpt>
      <trkpt lat="45.14688" lon="4.69449">
        <ele>465.7</ele>
        <time>2014-04-21T06:40:08Z</time>
      </trkpt>
      <trkpt lat="45.14687" lon="4.69459">
        <ele>466.4</ele>
        <time>2014-04-21T06:40:11Z</time>
      </trkpt>
      <trkpt lat="45.14687" lon="4.69465">
        <ele>466.9</ele>
        <time>2014-04-21T06:40:13Z</time>
      </trkpt>
      <trkpt lat="45.14686" lon="4.69472">
        <ele>467.4</ele>
        <time>2014-04-21T06:40:15Z</time>
      </trkpt>
      <trkpt lat="45.14685" lon="4.6948">
        <ele>468.1</ele>
        <time>2014-04-21T06:40:18Z</time>
      </trkpt>
      <trkpt lat="45.14685" lon="4.69489">
        <ele>468.7</ele>
        <time>2014-04-21T06:40:21Z</time>
      </trkpt>
      <trkpt lat="45.14684" lon="4.69497">
        <ele>469.3</ele>
        <time>2014-04-21T06:40:24Z</time>
      </trkpt>
      <trkpt lat="45.14683" lon="4.69506">
        <ele>469.5</ele>
        <time>2014-04-21T06:40:27Z</time>
      </trkpt>
      <trkpt lat="45.14682" lon="4.69513">
        <ele>469.3</ele>
        <time>2014-04-21T06:40:29Z</time>
      </trkpt>
      <trkpt lat="45.14681" lon="4.6952">
        <ele>469.2</ele>
        <time>2014-04-21T06:40:31Z</time>
      </trkpt>
      <trkpt lat="45.1468" lon="4.69527">
        <ele>469</ele>
        <time>2014-04-21T06:40:33Z</time>
      </trkpt>
      <trkpt lat="45.14679" lon="4.69534">
        <ele>468.8</ele>
        <time>2014-04-21T06:40:35Z</time>
      </trkpt>
      <trkpt lat="45.14675" lon="4.69548">
        <ele>468.4</ele>
        <time>2014-04-21T06:40:39Z</time>
      </trkpt>
      <trkpt lat="45.14673" lon="4.69555">
        <ele>468.1</ele>
        <time>2014-04-21T06:40:41Z</time>
      </trkpt>
      <trkpt lat="45.1467" lon="4.69561">
        <ele>467.9</ele>
        <time>2014-04-21T06:40:43Z</time>
      </trkpt>
      <trkpt lat="45.14667" lon="4.69567">
        <ele>467.6</ele>
        <time>2014-04-21T06:40:45Z</time>
      </trkpt>
      <trkpt lat="45.14665" lon="4.69574">
        <ele>467.5</ele>
        <time>2014-04-21T06:40:47Z</time>
      </trkpt>
      <trkpt lat="45.14662" lon="4.69581">
        <ele>467.4</ele>
        <time>2014-04-21T06:40:49Z</time>
      </trkpt>
      <trkpt lat="45.1466" lon="4.69588">
        <ele>467.4</ele>
        <time>2014-04-21T06:40:51Z</time>
      </trkpt>
      <trkpt lat="45.14657" lon="4.69595">
        <ele>467.4</ele>
        <time>2014-04-21T06:40:53Z</time>
      </trkpt>
      <trkpt lat="45.14655" lon="4.69604">
        <ele>467.4</ele>
        <time>2014-04-21T06:40:55Z</time>
      </trkpt>
      <trkpt lat="45.14655" lon="4.69614">
        <ele>467.2</ele>
        <time>2014-04-21T06:40:57Z</time>
      </trkpt>
      <trkpt lat="45.14655" lon="4.69627">
        <ele>466.9</ele>
        <time>2014-04-21T06:40:59Z</time>
      </trkpt>
      <trkpt lat="45.14656" lon="4.69633">
        <ele>466.7</ele>
        <time>2014-04-21T06:41:00Z</time>
      </trkpt>
      <trkpt lat="45.14657" lon="4.69641">
        <ele>466.4</ele>
        <time>2014-04-21T06:41:01Z</time>
      </trkpt>
      <trkpt lat="45.14658" lon="4.69648">
        <ele>466.2</ele>
        <time>2014-04-21T06:41:02Z</time>
      </trkpt>
      <trkpt lat="45.14657" lon="4.69655">
        <ele>466.1</ele>
        <time>2014-04-21T06:41:03Z</time>
      </trkpt>
      <trkpt lat="45.14656" lon="4.69663">
        <ele>466</ele>
        <time>2014-04-21T06:41:04Z</time>
      </trkpt>
      <trkpt lat="45.14653" lon="4.6967">
        <ele>466.2</ele>
        <time>2014-04-21T06:41:05Z</time>
      </trkpt>
      <trkpt lat="45.14649" lon="4.69675">
        <ele>466.6</ele>
        <time>2014-04-21T06:41:06Z</time>
      </trkpt>
      <trkpt lat="45.14645" lon="4.69681">
        <ele>467</ele>
        <time>2014-04-21T06:41:07Z</time>
      </trkpt>
      <trkpt lat="45.14641" lon="4.69688">
        <ele>467.4</ele>
        <time>2014-04-21T06:41:08Z</time>
      </trkpt>
      <trkpt lat="45.14639" lon="4.69695">
        <ele>467.6</ele>
        <time>2014-04-21T06:41:09Z</time>
      </trkpt>
      <trkpt lat="45.14639" lon="4.69702">
        <ele>467.7</ele>
        <time>2014-04-21T06:41:10Z</time>
      </trkpt>
      <trkpt lat="45.1464" lon="4.69708">
        <ele>467.7</ele>
        <time>2014-04-21T06:41:11Z</time>
      </trkpt>
      <trkpt lat="45.14645" lon="4.69719">
        <ele>467.5</ele>
        <time>2014-04-21T06:41:13Z</time>
      </trkpt>
      <trkpt lat="45.14648" lon="4.6973">
        <ele>467.3</ele>
        <time>2014-04-21T06:41:15Z</time>
      </trkpt>
      <trkpt lat="45.1465" lon="4.6974">
        <ele>467.3</ele>
        <time>2014-04-21T06:41:17Z</time>
      </trkpt>
      <trkpt lat="45.14654" lon="4.69748">
        <ele>467.1</ele>
        <time>2014-04-21T06:41:19Z</time>
      </trkpt>
      <trkpt lat="45.14656" lon="4.69757">
        <ele>467.1</ele>
        <time>2014-04-21T06:41:21Z</time>
      </trkpt>
      <trkpt lat="45.14658" lon="4.69765">
        <ele>467.1</ele>
        <time>2014-04-21T06:41:23Z</time>
      </trkpt>
      <trkpt lat="45.14659" lon="4.69774">
        <ele>467.3</ele>
        <time>2014-04-21T06:41:25Z</time>
      </trkpt>
      <trkpt lat="45.14661" lon="4.69782">
        <ele>467.3</ele>
        <time>2014-04-21T06:41:27Z</time>
      </trkpt>
      <trkpt lat="45.14662" lon="4.6979">
        <ele>467.5</ele>
        <time>2014-04-21T06:41:29Z</time>
      </trkpt>
      <trkpt lat="45.14662" lon="4.69797">
        <ele>467.6</ele>
        <time>2014-04-21T06:41:31Z</time>
      </trkpt>
      <trkpt lat="45.14663" lon="4.69805">
        <ele>467.7</ele>
        <time>2014-04-21T06:41:33Z</time>
      </trkpt>
      <trkpt lat="45.14664" lon="4.69812">
        <ele>467.8</ele>
        <time>2014-04-21T06:41:35Z</time>
      </trkpt>
      <trkpt lat="45.14665" lon="4.69819">
        <ele>467.9</ele>
        <time>2014-04-21T06:41:37Z</time>
      </trkpt>
      <trkpt lat="45.14666" lon="4.69834">
        <ele>468</ele>
        <time>2014-04-21T06:41:41Z</time>
      </trkpt>
      <trkpt lat="45.14667" lon="4.69841">
        <ele>468.2</ele>
        <time>2014-04-21T06:41:43Z</time>
      </trkpt>
      <trkpt lat="45.14667" lon="4.69849">
        <ele>468.3</ele>
        <time>2014-04-21T06:41:45Z</time>
      </trkpt>
      <trkpt lat="45.14668" lon="4.69857">
        <ele>468.5</ele>
        <time>2014-04-21T06:41:47Z</time>
      </trkpt>
      <trkpt lat="45.14668" lon="4.69864">
        <ele>468.7</ele>
        <time>2014-04-21T06:41:49Z</time>
      </trkpt>
      <trkpt lat="45.14668" lon="4.69872">
        <ele>468.9</ele>
        <time>2014-04-21T06:41:51Z</time>
      </trkpt>
      <trkpt lat="45.14667" lon="4.69878">
        <ele>469</ele>
        <time>2014-04-21T06:41:53Z</time>
      </trkpt>
      <trkpt lat="45.14667" lon="4.69885">
        <ele>469.2</ele>
        <time>2014-04-21T06:41:55Z</time>
      </trkpt>
      <trkpt lat="45.14666" lon="4.69892">
        <ele>469.5</ele>
        <time>2014-04-21T06:41:57Z</time>
      </trkpt>
      <trkpt lat="45.14664" lon="4.699">
        <ele>469.8</ele>
        <time>2014-04-21T06:41:59Z</time>
      </trkpt>
      <trkpt lat="45.14663" lon="4.69909">
        <ele>470.1</ele>
        <time>2014-04-21T06:42:01Z</time>
      </trkpt>
      <trkpt lat="45.14661" lon="4.69919">
        <ele>470.4</ele>
        <time>2014-04-21T06:42:03Z</time>
      </trkpt>
      <trkpt lat="45.14657" lon="4.69929">
        <ele>470.4</ele>
        <time>2014-04-21T06:42:05Z</time>
      </trkpt>
      <trkpt lat="45.14655" lon="4.69935">
        <ele>470.3</ele>
        <time>2014-04-21T06:42:06Z</time>
      </trkpt>
      <trkpt lat="45.14653" lon="4.69941">
        <ele>470.3</ele>
        <time>2014-04-21T06:42:07Z</time>
      </trkpt>
      <trkpt lat="45.1465" lon="4.69948">
        <ele>470.3</ele>
        <time>2014-04-21T06:42:08Z</time>
      </trkpt>
      <trkpt lat="45.14647" lon="4.69954">
        <ele>470.2</ele>
        <time>2014-04-21T06:42:09Z</time>
      </trkpt>
      <trkpt lat="45.14644" lon="4.6996">
        <ele>470.2</ele>
        <time>2014-04-21T06:42:10Z</time>
      </trkpt>
      <trkpt lat="45.1464" lon="4.69966">
        <ele>470.2</ele>
        <time>2014-04-21T06:42:11Z</time>
      </trkpt>
      <trkpt lat="45.14637" lon="4.69972">
        <ele>470.1</ele>
        <time>2014-04-21T06:42:12Z</time>
      </trkpt>
      <trkpt lat="45.14633" lon="4.69977">
        <ele>470.1</ele>
        <time>2014-04-21T06:42:13Z</time>
      </trkpt>
      <trkpt lat="45.14629" lon="4.69982">
        <ele>470.1</ele>
        <time>2014-04-21T06:42:14Z</time>
      </trkpt>
      <trkpt lat="45.14624" lon="4.69988">
        <ele>470.1</ele>
        <time>2014-04-21T06:42:15Z</time>
      </trkpt>
      <trkpt lat="45.14621" lon="4.69994">
        <ele>469.9</ele>
        <time>2014-04-21T06:42:16Z</time>
      </trkpt>
      <trkpt lat="45.14617" lon="4.70001">
        <ele>469.8</ele>
        <time>2014-04-21T06:42:17Z</time>
      </trkpt>
      <trkpt lat="45.14614" lon="4.70007">
        <ele>469.7</ele>
        <time>2014-04-21T06:42:18Z</time>
      </trkpt>
      <trkpt lat="45.14612" lon="4.70013">
        <ele>469.6</ele>
        <time>2014-04-21T06:42:19Z</time>
      </trkpt>
      <trkpt lat="45.14609" lon="4.7002">
        <ele>469.5</ele>
        <time>2014-04-21T06:42:20Z</time>
      </trkpt>
      <trkpt lat="45.14607" lon="4.70027">
        <ele>469.4</ele>
        <time>2014-04-21T06:42:21Z</time>
      </trkpt>
      <trkpt lat="45.14605" lon="4.70034">
        <ele>469.3</ele>
        <time>2014-04-21T06:42:22Z</time>
      </trkpt>
      <trkpt lat="45.14604" lon="4.70042">
        <ele>469.1</ele>
        <time>2014-04-21T06:42:23Z</time>
      </trkpt>
      <trkpt lat="45.14603" lon="4.7005">
        <ele>469</ele>
        <time>2014-04-21T06:42:24Z</time>
      </trkpt>
      <trkpt lat="45.14603" lon="4.70058">
        <ele>468.8</ele>
        <time>2014-04-21T06:42:25Z</time>
      </trkpt>
      <trkpt lat="45.14602" lon="4.70065">
        <ele>468.6</ele>
        <time>2014-04-21T06:42:26Z</time>
      </trkpt>
      <trkpt lat="45.14602" lon="4.70073">
        <ele>468.4</ele>
        <time>2014-04-21T06:42:27Z</time>
      </trkpt>
      <trkpt lat="45.14602" lon="4.7008">
        <ele>468.2</ele>
        <time>2014-04-21T06:42:28Z</time>
      </trkpt>
      <trkpt lat="45.14602" lon="4.70087">
        <ele>468.2</ele>
        <time>2014-04-21T06:42:29Z</time>
      </trkpt>
      <trkpt lat="45.14602" lon="4.70094">
        <ele>468.2</ele>
        <time>2014-04-21T06:42:30Z</time>
      </trkpt>
      <trkpt lat="45.14602" lon="4.70101">
        <ele>468.2</ele>
        <time>2014-04-21T06:42:31Z</time>
      </trkpt>
      <trkpt lat="45.14602" lon="4.70109">
        <ele>468.3</ele>
        <time>2014-04-21T06:42:32Z</time>
      </trkpt>
      <trkpt lat="45.14602" lon="4.70116">
        <ele>468.3</ele>
        <time>2014-04-21T06:42:33Z</time>
      </trkpt>
      <trkpt lat="45.14602" lon="4.70123">
        <ele>468.4</ele>
        <time>2014-04-21T06:42:34Z</time>
      </trkpt>
      <trkpt lat="45.14602" lon="4.7013">
        <ele>468.4</ele>
        <time>2014-04-21T06:42:35Z</time>
      </trkpt>
      <trkpt lat="45.14602" lon="4.70136">
        <ele>468.5</ele>
        <time>2014-04-21T06:42:36Z</time>
      </trkpt>
      <trkpt lat="45.14602" lon="4.70143">
        <ele>468.5</ele>
        <time>2014-04-21T06:42:37Z</time>
      </trkpt>
      <trkpt lat="45.14603" lon="4.70149">
        <ele>468.4</ele>
        <time>2014-04-21T06:42:38Z</time>
      </trkpt>
      <trkpt lat="45.14606" lon="4.70163">
        <ele>468.3</ele>
        <time>2014-04-21T06:42:40Z</time>
      </trkpt>
      <trkpt lat="45.14608" lon="4.7017">
        <ele>468.2</ele>
        <time>2014-04-21T06:42:41Z</time>
      </trkpt>
      <trkpt lat="45.1461" lon="4.70177">
        <ele>468</ele>
        <time>2014-04-21T06:42:42Z</time>
      </trkpt>
      <trkpt lat="45.14612" lon="4.70184">
        <ele>467.8</ele>
        <time>2014-04-21T06:42:43Z</time>
      </trkpt>
      <trkpt lat="45.14615" lon="4.70191">
        <ele>467.6</ele>
        <time>2014-04-21T06:42:44Z</time>
      </trkpt>
      <trkpt lat="45.14617" lon="4.70198">
        <ele>467.4</ele>
        <time>2014-04-21T06:42:45Z</time>
      </trkpt>
      <trkpt lat="45.14619" lon="4.70205">
        <ele>467.2</ele>
        <time>2014-04-21T06:42:46Z</time>
      </trkpt>
      <trkpt lat="45.14622" lon="4.70212">
        <ele>467</ele>
        <time>2014-04-21T06:42:47Z</time>
      </trkpt>
      <trkpt lat="45.14624" lon="4.70219">
        <ele>466.8</ele>
        <time>2014-04-21T06:42:48Z</time>
      </trkpt>
      <trkpt lat="45.14626" lon="4.70226">
        <ele>466.6</ele>
        <time>2014-04-21T06:42:49Z</time>
      </trkpt>
      <trkpt lat="45.14628" lon="4.70233">
        <ele>466.4</ele>
        <time>2014-04-21T06:42:50Z</time>
      </trkpt>
      <trkpt lat="45.1463" lon="4.7024">
        <ele>466.1</ele>
        <time>2014-04-21T06:42:51Z</time>
      </trkpt>
      <trkpt lat="45.14633" lon="4.70247">
        <ele>465.9</ele>
        <time>2014-04-21T06:42:52Z</time>
      </trkpt>
      <trkpt lat="45.14635" lon="4.70254">
        <ele>465.7</ele>
        <time>2014-04-21T06:42:53Z</time>
      </trkpt>
      <trkpt lat="45.14637" lon="4.7026">
        <ele>465.7</ele>
        <time>2014-04-21T06:42:54Z</time>
      </trkpt>
      <trkpt lat="45.14639" lon="4.70267">
        <ele>465.7</ele>
        <time>2014-04-21T06:42:55Z</time>
      </trkpt>
      <trkpt lat="45.14641" lon="4.70274">
        <ele>465.6</ele>
        <time>2014-04-21T06:42:56Z</time>
      </trkpt>
      <trkpt lat="45.14644" lon="4.7028">
        <ele>465.6</ele>
        <time>2014-04-21T06:42:57Z</time>
      </trkpt>
      <trkpt lat="45.14646" lon="4.70286">
        <ele>465.5</ele>
        <time>2014-04-21T06:42:58Z</time>
      </trkpt>
      <trkpt lat="45.14648" lon="4.70293">
        <ele>465.5</ele>
        <time>2014-04-21T06:42:59Z</time>
      </trkpt>
      <trkpt lat="45.1465" lon="4.70299">
        <ele>465.4</ele>
        <time>2014-04-21T06:43:00Z</time>
      </trkpt>
      <trkpt lat="45.14652" lon="4.70305">
        <ele>465.4</ele>
        <time>2014-04-21T06:43:01Z</time>
      </trkpt>
      <trkpt lat="45.14654" lon="4.70312">
        <ele>465.4</ele>
        <time>2014-04-21T06:43:02Z</time>
      </trkpt>
      <trkpt lat="45.14657" lon="4.70319">
        <ele>465.4</ele>
        <time>2014-04-21T06:43:03Z</time>
      </trkpt>
      <trkpt lat="45.14659" lon="4.70325">
        <ele>465.4</ele>
        <time>2014-04-21T06:43:04Z</time>
      </trkpt>
      <trkpt lat="45.14661" lon="4.70332">
        <ele>465.3</ele>
        <time>2014-04-21T06:43:05Z</time>
      </trkpt>
      <trkpt lat="45.14663" lon="4.70338">
        <ele>465.4</ele>
        <time>2014-04-21T06:43:06Z</time>
      </trkpt>
      <trkpt lat="45.14664" lon="4.70345">
        <ele>465.4</ele>
        <time>2014-04-21T06:43:07Z</time>
      </trkpt>
      <trkpt lat="45.14665" lon="4.70352">
        <ele>465.6</ele>
        <time>2014-04-21T06:43:08Z</time>
      </trkpt>
      <trkpt lat="45.14666" lon="4.70359">
        <ele>465.7</ele>
        <time>2014-04-21T06:43:09Z</time>
      </trkpt>
      <trkpt lat="45.14666" lon="4.70366">
        <ele>465.8</ele>
        <time>2014-04-21T06:43:10Z</time>
      </trkpt>
      <trkpt lat="45.14666" lon="4.70373">
        <ele>466</ele>
        <time>2014-04-21T06:43:11Z</time>
      </trkpt>
      <trkpt lat="45.14666" lon="4.70381">
        <ele>466.2</ele>
        <time>2014-04-21T06:43:12Z</time>
      </trkpt>
      <trkpt lat="45.14666" lon="4.70388">
        <ele>466.4</ele>
        <time>2014-04-21T06:43:13Z</time>
      </trkpt>
      <trkpt lat="45.14666" lon="4.70396">
        <ele>466.5</ele>
        <time>2014-04-21T06:43:14Z</time>
      </trkpt>
      <trkpt lat="45.14666" lon="4.70403">
        <ele>466.7</ele>
        <time>2014-04-21T06:43:15Z</time>
      </trkpt>
      <trkpt lat="45.14665" lon="4.7041">
        <ele>466.9</ele>
        <time>2014-04-21T06:43:16Z</time>
      </trkpt>
      <trkpt lat="45.14665" lon="4.70418">
        <ele>467.2</ele>
        <time>2014-04-21T06:43:17Z</time>
      </trkpt>
      <trkpt lat="45.14664" lon="4.70425">
        <ele>467.4</ele>
        <time>2014-04-21T06:43:18Z</time>
      </trkpt>
      <trkpt lat="45.14664" lon="4.70433">
        <ele>467.7</ele>
        <time>2014-04-21T06:43:19Z</time>
      </trkpt>
      <trkpt lat="45.14665" lon="4.7044">
        <ele>467.9</ele>
        <time>2014-04-21T06:43:20Z</time>
      </trkpt>
      <trkpt lat="45.14665" lon="4.70447">
        <ele>468.2</ele>
        <time>2014-04-21T06:43:21Z</time>
      </trkpt>
      <trkpt lat="45.14664" lon="4.70455">
        <ele>468.5</ele>
        <time>2014-04-21T06:43:22Z</time>
      </trkpt>
      <trkpt lat="45.14663" lon="4.70462">
        <ele>468.7</ele>
        <time>2014-04-21T06:43:23Z</time>
      </trkpt>
      <trkpt lat="45.14663" lon="4.70468">
        <ele>469</ele>
        <time>2014-04-21T06:43:24Z</time>
      </trkpt>
      <trkpt lat="45.14662" lon="4.70475">
        <ele>469.3</ele>
        <time>2014-04-21T06:43:25Z</time>
      </trkpt>
      <trkpt lat="45.14662" lon="4.70482">
        <ele>469.5</ele>
        <time>2014-04-21T06:43:26Z</time>
      </trkpt>
      <trkpt lat="45.14663" lon="4.70489">
        <ele>469.7</ele>
        <time>2014-04-21T06:43:27Z</time>
      </trkpt>
      <trkpt lat="45.14663" lon="4.70495">
        <ele>470</ele>
        <time>2014-04-21T06:43:28Z</time>
      </trkpt>
      <trkpt lat="45.14663" lon="4.70502">
        <ele>470.1</ele>
        <time>2014-04-21T06:43:29Z</time>
      </trkpt>
      <trkpt lat="45.14663" lon="4.70509">
        <ele>470.1</ele>
        <time>2014-04-21T06:43:30Z</time>
      </trkpt>
      <trkpt lat="45.14663" lon="4.70515">
        <ele>470</ele>
        <time>2014-04-21T06:43:31Z</time>
      </trkpt>
      <trkpt lat="45.14663" lon="4.70528">
        <ele>469.8</ele>
        <time>2014-04-21T06:43:33Z</time>
      </trkpt>
      <trkpt lat="45.14664" lon="4.70534">
        <ele>469.7</ele>
        <time>2014-04-21T06:43:34Z</time>
      </trkpt>
      <trkpt lat="45.14665" lon="4.70546">
        <ele>469.5</ele>
        <time>2014-04-21T06:43:36Z</time>
      </trkpt>
      <trkpt lat="45.14666" lon="4.70557">
        <ele>469.3</ele>
        <time>2014-04-21T06:43:38Z</time>
      </trkpt>
      <trkpt lat="45.14666" lon="4.70568">
        <ele>469.2</ele>
        <time>2014-04-21T06:43:40Z</time>
      </trkpt>
      <trkpt lat="45.14664" lon="4.70591">
        <ele>469</ele>
        <time>2014-04-21T06:43:44Z</time>
      </trkpt>
      <trkpt lat="45.14661" lon="4.70596">
        <ele>469.1</ele>
        <time>2014-04-21T06:43:46Z</time>
      </trkpt>
      <trkpt lat="45.14656" lon="4.70594">
        <ele>469.4</ele>
        <time>2014-04-21T06:43:48Z</time>
      </trkpt>
      <trkpt lat="45.14652" lon="4.70588">
        <ele>469.7</ele>
        <time>2014-04-21T06:43:50Z</time>
      </trkpt>
      <trkpt lat="45.14648" lon="4.70584">
        <ele>469.9</ele>
        <time>2014-04-21T06:43:52Z</time>
      </trkpt>
      <trkpt lat="45.14644" lon="4.70578">
        <ele>470.2</ele>
        <time>2014-04-21T06:43:54Z</time>
      </trkpt>
      <trkpt lat="45.14639" lon="4.70572">
        <ele>470.4</ele>
        <time>2014-04-21T06:43:56Z</time>
      </trkpt>
      <trkpt lat="45.14635" lon="4.70566">
        <ele>470.7</ele>
        <time>2014-04-21T06:43:58Z</time>
      </trkpt>
      <trkpt lat="45.14628" lon="4.70561">
        <ele>471</ele>
        <time>2014-04-21T06:44:00Z</time>
      </trkpt>
      <trkpt lat="45.14622" lon="4.70557">
        <ele>471.3</ele>
        <time>2014-04-21T06:44:02Z</time>
      </trkpt>
      <trkpt lat="45.14617" lon="4.70552">
        <ele>471.6</ele>
        <time>2014-04-21T06:44:04Z</time>
      </trkpt>
      <trkpt lat="45.14611" lon="4.70547">
        <ele>471.8</ele>
        <time>2014-04-21T06:44:06Z</time>
      </trkpt>
      <trkpt lat="45.14605" lon="4.70542">
        <ele>472.1</ele>
        <time>2014-04-21T06:44:08Z</time>
      </trkpt>
      <trkpt lat="45.146" lon="4.70537">
        <ele>472.3</ele>
        <time>2014-04-21T06:44:10Z</time>
      </trkpt>
      <trkpt lat="45.14594" lon="4.70532">
        <ele>472.6</ele>
        <time>2014-04-21T06:44:12Z</time>
      </trkpt>
      <trkpt lat="45.14588" lon="4.70527">
        <ele>472.8</ele>
        <time>2014-04-21T06:44:14Z</time>
      </trkpt>
      <trkpt lat="45.14582" lon="4.70522">
        <ele>473</ele>
        <time>2014-04-21T06:44:16Z</time>
      </trkpt>
      <trkpt lat="45.14576" lon="4.70518">
        <ele>473.2</ele>
        <time>2014-04-21T06:44:18Z</time>
      </trkpt>
      <trkpt lat="45.1457" lon="4.70514">
        <ele>473.4</ele>
        <time>2014-04-21T06:44:20Z</time>
      </trkpt>
      <trkpt lat="45.14563" lon="4.7051">
        <ele>473.5</ele>
        <time>2014-04-21T06:44:22Z</time>
      </trkpt>
      <trkpt lat="45.14555" lon="4.70507">
        <ele>473.7</ele>
        <time>2014-04-21T06:44:24Z</time>
      </trkpt>
      <trkpt lat="45.14548" lon="4.70503">
        <ele>473.9</ele>
        <time>2014-04-21T06:44:26Z</time>
      </trkpt>
      <trkpt lat="45.14541" lon="4.70499">
        <ele>474</ele>
        <time>2014-04-21T06:44:28Z</time>
      </trkpt>
      <trkpt lat="45.14534" lon="4.70496">
        <ele>474.1</ele>
        <time>2014-04-21T06:44:30Z</time>
      </trkpt>
      <trkpt lat="45.14526" lon="4.70492">
        <ele>474.2</ele>
        <time>2014-04-21T06:44:32Z</time>
      </trkpt>
      <trkpt lat="45.1452" lon="4.70488">
        <ele>474.3</ele>
        <time>2014-04-21T06:44:34Z</time>
      </trkpt>
      <trkpt lat="45.14513" lon="4.70484">
        <ele>474.3</ele>
        <time>2014-04-21T06:44:36Z</time>
      </trkpt>
      <trkpt lat="45.14506" lon="4.7048">
        <ele>474.4</ele>
        <time>2014-04-21T06:44:38Z</time>
      </trkpt>
      <trkpt lat="45.145" lon="4.70476">
        <ele>474.4</ele>
        <time>2014-04-21T06:44:40Z</time>
      </trkpt>
      <trkpt lat="45.14494" lon="4.70472">
        <ele>474.4</ele>
        <time>2014-04-21T06:44:42Z</time>
      </trkpt>
      <trkpt lat="45.14482" lon="4.70464">
        <ele>474.5</ele>
        <time>2014-04-21T06:44:46Z</time>
      </trkpt>
      <trkpt lat="45.14476" lon="4.7046">
        <ele>474.6</ele>
        <time>2014-04-21T06:44:48Z</time>
      </trkpt>
      <trkpt lat="45.14469" lon="4.70455">
        <ele>474.7</ele>
        <time>2014-04-21T06:44:50Z</time>
      </trkpt>
      <trkpt lat="45.14463" lon="4.70451">
        <ele>474.8</ele>
        <time>2014-04-21T06:44:52Z</time>
      </trkpt>
      <trkpt lat="45.14456" lon="4.70447">
        <ele>474.9</ele>
        <time>2014-04-21T06:44:54Z</time>
      </trkpt>
      <trkpt lat="45.1445" lon="4.70443">
        <ele>475</ele>
        <time>2014-04-21T06:44:56Z</time>
      </trkpt>
      <trkpt lat="45.14444" lon="4.70439">
        <ele>475.2</ele>
        <time>2014-04-21T06:44:58Z</time>
      </trkpt>
      <trkpt lat="45.14438" lon="4.70435">
        <ele>475.3</ele>
        <time>2014-04-21T06:45:00Z</time>
      </trkpt>
      <trkpt lat="45.14433" lon="4.70431">
        <ele>475.5</ele>
        <time>2014-04-21T06:45:02Z</time>
      </trkpt>
      <trkpt lat="45.14427" lon="4.70427">
        <ele>475.7</ele>
        <time>2014-04-21T06:45:04Z</time>
      </trkpt>
      <trkpt lat="45.14421" lon="4.70423">
        <ele>475.8</ele>
        <time>2014-04-21T06:45:06Z</time>
      </trkpt>
      <trkpt lat="45.14415" lon="4.7042">
        <ele>476</ele>
        <time>2014-04-21T06:45:08Z</time>
      </trkpt>
      <trkpt lat="45.14409" lon="4.70416">
        <ele>476.2</ele>
        <time>2014-04-21T06:45:10Z</time>
      </trkpt>
      <trkpt lat="45.14403" lon="4.70412">
        <ele>476.4</ele>
        <time>2014-04-21T06:45:12Z</time>
      </trkpt>
      <trkpt lat="45.14398" lon="4.70408">
        <ele>476.6</ele>
        <time>2014-04-21T06:45:14Z</time>
      </trkpt>
      <trkpt lat="45.14392" lon="4.70404">
        <ele>476.8</ele>
        <time>2014-04-21T06:45:16Z</time>
      </trkpt>
      <trkpt lat="45.14386" lon="4.704">
        <ele>477</ele>
        <time>2014-04-21T06:45:18Z</time>
      </trkpt>
      <trkpt lat="45.14379" lon="4.70397">
        <ele>477.3</ele>
        <time>2014-04-21T06:45:20Z</time>
      </trkpt>
      <trkpt lat="45.14373" lon="4.70393">
        <ele>477.5</ele>
        <time>2014-04-21T06:45:22Z</time>
      </trkpt>
      <trkpt lat="45.14367" lon="4.7039">
        <ele>477.7</ele>
        <time>2014-04-21T06:45:24Z</time>
      </trkpt>
      <trkpt lat="45.14361" lon="4.70388">
        <ele>477.9</ele>
        <time>2014-04-21T06:45:26Z</time>
      </trkpt>
      <trkpt lat="45.14356" lon="4.70385">
        <ele>478.1</ele>
        <time>2014-04-21T06:45:28Z</time>
      </trkpt>
      <trkpt lat="45.1435" lon="4.70381">
        <ele>478.4</ele>
        <time>2014-04-21T06:45:30Z</time>
      </trkpt>
      <trkpt lat="45.14345" lon="4.70379">
        <ele>478.6</ele>
        <time>2014-04-21T06:45:32Z</time>
      </trkpt>
      <trkpt lat="45.14339" lon="4.70376">
        <ele>478.8</ele>
        <time>2014-04-21T06:45:34Z</time>
      </trkpt>
      <trkpt lat="45.14334" lon="4.70373">
        <ele>479.1</ele>
        <time>2014-04-21T06:45:36Z</time>
      </trkpt>
      <trkpt lat="45.14328" lon="4.70369">
        <ele>479.4</ele>
        <time>2014-04-21T06:45:38Z</time>
      </trkpt>
      <trkpt lat="45.14323" lon="4.70365">
        <ele>479.6</ele>
        <time>2014-04-21T06:45:40Z</time>
      </trkpt>
      <trkpt lat="45.14318" lon="4.70362">
        <ele>480</ele>
        <time>2014-04-21T06:45:42Z</time>
      </trkpt>
      <trkpt lat="45.14313" lon="4.70358">
        <ele>480.2</ele>
        <time>2014-04-21T06:45:44Z</time>
      </trkpt>
      <trkpt lat="45.14304" lon="4.7035">
        <ele>480.9</ele>
        <time>2014-04-21T06:45:48Z</time>
      </trkpt>
      <trkpt lat="45.143" lon="4.70346">
        <ele>481.2</ele>
        <time>2014-04-21T06:45:50Z</time>
      </trkpt>
      <trkpt lat="45.14296" lon="4.70342">
        <ele>481.5</ele>
        <time>2014-04-21T06:45:52Z</time>
      </trkpt>
      <trkpt lat="45.14292" lon="4.70337">
        <ele>481.9</ele>
        <time>2014-04-21T06:45:54Z</time>
      </trkpt>
      <trkpt lat="45.14287" lon="4.70332">
        <ele>482.2</ele>
        <time>2014-04-21T06:45:56Z</time>
      </trkpt>
      <trkpt lat="45.14283" lon="4.70328">
        <ele>482.4</ele>
        <time>2014-04-21T06:45:58Z</time>
      </trkpt>
      <trkpt lat="45.14279" lon="4.70322">
        <ele>482.6</ele>
        <time>2014-04-21T06:46:00Z</time>
      </trkpt>
      <trkpt lat="45.14275" lon="4.70317">
        <ele>482.8</ele>
        <time>2014-04-21T06:46:02Z</time>
      </trkpt>
      <trkpt lat="45.14271" lon="4.70311">
        <ele>483</ele>
        <time>2014-04-21T06:46:04Z</time>
      </trkpt>
      <trkpt lat="45.14268" lon="4.70306">
        <ele>483.2</ele>
        <time>2014-04-21T06:46:06Z</time>
      </trkpt>
      <trkpt lat="45.14264" lon="4.703">
        <ele>483.3</ele>
        <time>2014-04-21T06:46:08Z</time>
      </trkpt>
      <trkpt lat="45.14262" lon="4.70294">
        <ele>483.4</ele>
        <time>2014-04-21T06:46:10Z</time>
      </trkpt>
      <trkpt lat="45.1426" lon="4.70287">
        <ele>483.5</ele>
        <time>2014-04-21T06:46:12Z</time>
      </trkpt>
      <trkpt lat="45.14256" lon="4.70282">
        <ele>483.7</ele>
        <time>2014-04-21T06:46:14Z</time>
      </trkpt>
      <trkpt lat="45.14252" lon="4.70277">
        <ele>483.9</ele>
        <time>2014-04-21T06:46:16Z</time>
      </trkpt>
      <trkpt lat="45.14248" lon="4.70272">
        <ele>484.1</ele>
        <time>2014-04-21T06:46:18Z</time>
      </trkpt>
      <trkpt lat="45.14245" lon="4.70267">
        <ele>484.2</ele>
        <time>2014-04-21T06:46:20Z</time>
      </trkpt>
      <trkpt lat="45.14241" lon="4.70262">
        <ele>484.4</ele>
        <time>2014-04-21T06:46:22Z</time>
      </trkpt>
      <trkpt lat="45.14237" lon="4.70257">
        <ele>484.6</ele>
        <time>2014-04-21T06:46:24Z</time>
      </trkpt>
      <trkpt lat="45.14233" lon="4.70252">
        <ele>484.8</ele>
        <time>2014-04-21T06:46:26Z</time>
      </trkpt>
      <trkpt lat="45.1423" lon="4.70246">
        <ele>485</ele>
        <time>2014-04-21T06:46:28Z</time>
      </trkpt>
      <trkpt lat="45.14227" lon="4.70242">
        <ele>485.3</ele>
        <time>2014-04-21T06:46:30Z</time>
      </trkpt>
      <trkpt lat="45.14224" lon="4.70236">
        <ele>485.6</ele>
        <time>2014-04-21T06:46:32Z</time>
      </trkpt>
      <trkpt lat="45.14221" lon="4.7023">
        <ele>485.9</ele>
        <time>2014-04-21T06:46:34Z</time>
      </trkpt>
      <trkpt lat="45.14218" lon="4.70225">
        <ele>486.1</ele>
        <time>2014-04-21T06:46:36Z</time>
      </trkpt>
      <trkpt lat="45.14214" lon="4.70218">
        <ele>486.6</ele>
        <time>2014-04-21T06:46:39Z</time>
      </trkpt>
      <trkpt lat="45.1421" lon="4.70213">
        <ele>487</ele>
        <time>2014-04-21T06:46:41Z</time>
      </trkpt>
      <trkpt lat="45.14207" lon="4.70209">
        <ele>487.4</ele>
        <time>2014-04-21T06:46:43Z</time>
      </trkpt>
      <trkpt lat="45.14203" lon="4.70204">
        <ele>487.8</ele>
        <time>2014-04-21T06:46:45Z</time>
      </trkpt>
      <trkpt lat="45.14195" lon="4.70194">
        <ele>488.6</ele>
        <time>2014-04-21T06:46:49Z</time>
      </trkpt>
      <trkpt lat="45.14191" lon="4.7019">
        <ele>489</ele>
        <time>2014-04-21T06:46:51Z</time>
      </trkpt>
      <trkpt lat="45.14188" lon="4.70186">
        <ele>489.5</ele>
        <time>2014-04-21T06:46:53Z</time>
      </trkpt>
      <trkpt lat="45.14184" lon="4.70182">
        <ele>489.9</ele>
        <time>2014-04-21T06:46:55Z</time>
      </trkpt>
      <trkpt lat="45.1418" lon="4.70178">
        <ele>490.4</ele>
        <time>2014-04-21T06:46:57Z</time>
      </trkpt>
      <trkpt lat="45.14177" lon="4.70174">
        <ele>490.9</ele>
        <time>2014-04-21T06:46:59Z</time>
      </trkpt>
      <trkpt lat="45.14172" lon="4.70169">
        <ele>491.5</ele>
        <time>2014-04-21T06:47:02Z</time>
      </trkpt>
      <trkpt lat="45.14167" lon="4.70162">
        <ele>492.2</ele>
        <time>2014-04-21T06:47:05Z</time>
      </trkpt>
      <trkpt lat="45.14163" lon="4.70156">
        <ele>492.6</ele>
        <time>2014-04-21T06:47:08Z</time>
      </trkpt>
      <trkpt lat="45.14159" lon="4.70151">
        <ele>493</ele>
        <time>2014-04-21T06:47:11Z</time>
      </trkpt>
      <trkpt lat="45.14155" lon="4.70145">
        <ele>493.3</ele>
        <time>2014-04-21T06:47:14Z</time>
      </trkpt>
      <trkpt lat="45.14151" lon="4.7014">
        <ele>493.7</ele>
        <time>2014-04-21T06:47:17Z</time>
      </trkpt>
      <trkpt lat="45.14148" lon="4.70135">
        <ele>494.1</ele>
        <time>2014-04-21T06:47:20Z</time>
      </trkpt>
      <trkpt lat="45.14145" lon="4.70129">
        <ele>494.4</ele>
        <time>2014-04-21T06:47:23Z</time>
      </trkpt>
      <trkpt lat="45.14141" lon="4.70124">
        <ele>494.8</ele>
        <time>2014-04-21T06:47:26Z</time>
      </trkpt>
      <trkpt lat="45.14138" lon="4.70119">
        <ele>495.3</ele>
        <time>2014-04-21T06:47:29Z</time>
      </trkpt>
      <trkpt lat="45.14135" lon="4.70115">
        <ele>495.6</ele>
        <time>2014-04-21T06:47:32Z</time>
      </trkpt>
      <trkpt lat="45.14131" lon="4.7011">
        <ele>496</ele>
        <time>2014-04-21T06:47:35Z</time>
      </trkpt>
      <trkpt lat="45.14128" lon="4.70105">
        <ele>496.5</ele>
        <time>2014-04-21T06:47:38Z</time>
      </trkpt>
      <trkpt lat="45.14125" lon="4.70098">
        <ele>497.1</ele>
        <time>2014-04-21T06:47:42Z</time>
      </trkpt>
      <trkpt lat="45.14122" lon="4.70092">
        <ele>497.5</ele>
        <time>2014-04-21T06:47:46Z</time>
      </trkpt>
      <trkpt lat="45.14114" lon="4.70081">
        <ele>498.8</ele>
        <time>2014-04-21T06:47:54Z</time>
      </trkpt>
      <trkpt lat="45.14111" lon="4.70076">
        <ele>499.6</ele>
        <time>2014-04-21T06:47:58Z</time>
      </trkpt>
      <trkpt lat="45.14107" lon="4.70071">
        <ele>500.4</ele>
        <time>2014-04-21T06:48:02Z</time>
      </trkpt>
      <trkpt lat="45.14103" lon="4.70065">
        <ele>501.1</ele>
        <time>2014-04-21T06:48:06Z</time>
      </trkpt>
      <trkpt lat="45.141" lon="4.7006">
        <ele>501.9</ele>
        <time>2014-04-21T06:48:10Z</time>
      </trkpt>
      <trkpt lat="45.14097" lon="4.70054">
        <ele>502.8</ele>
        <time>2014-04-21T06:48:14Z</time>
      </trkpt>
      <trkpt lat="45.14094" lon="4.70048">
        <ele>503.6</ele>
        <time>2014-04-21T06:48:18Z</time>
      </trkpt>
      <trkpt lat="45.14092" lon="4.70042">
        <ele>504.5</ele>
        <time>2014-04-21T06:48:22Z</time>
      </trkpt>
      <trkpt lat="45.1409" lon="4.70036">
        <ele>505.4</ele>
        <time>2014-04-21T06:48:26Z</time>
      </trkpt>
      <trkpt lat="45.14087" lon="4.70029">
        <ele>506.3</ele>
        <time>2014-04-21T06:48:30Z</time>
      </trkpt>
      <trkpt lat="45.14085" lon="4.70023">
        <ele>507.2</ele>
        <time>2014-04-21T06:48:34Z</time>
      </trkpt>
      <trkpt lat="45.14082" lon="4.70016">
        <ele>508.1</ele>
        <time>2014-04-21T06:48:38Z</time>
      </trkpt>
      <trkpt lat="45.1408" lon="4.70009">
        <ele>509</ele>
        <time>2014-04-21T06:48:42Z</time>
      </trkpt>
      <trkpt lat="45.14077" lon="4.70002">
        <ele>509.9</ele>
        <time>2014-04-21T06:48:46Z</time>
      </trkpt>
      <trkpt lat="45.14076" lon="4.69995">
        <ele>510.6</ele>
        <time>2014-04-21T06:48:50Z</time>
      </trkpt>
      <trkpt lat="45.14072" lon="4.69982">
        <ele>512.2</ele>
        <time>2014-04-21T06:48:58Z</time>
      </trkpt>
      <trkpt lat="45.14069" lon="4.69975">
        <ele>512.9</ele>
        <time>2014-04-21T06:49:02Z</time>
      </trkpt>
      <trkpt lat="45.14065" lon="4.69969">
        <ele>513.4</ele>
        <time>2014-04-21T06:49:06Z</time>
      </trkpt>
      <trkpt lat="45.14062" lon="4.69964">
        <ele>514</ele>
        <time>2014-04-21T06:49:09Z</time>
      </trkpt>
      <trkpt lat="45.14058" lon="4.69958">
        <ele>514.5</ele>
        <time>2014-04-21T06:49:12Z</time>
      </trkpt>
      <trkpt lat="45.14053" lon="4.69952">
        <ele>515.1</ele>
        <time>2014-04-21T06:49:15Z</time>
      </trkpt>
      <trkpt lat="45.14049" lon="4.69946">
        <ele>515.8</ele>
        <time>2014-04-21T06:49:18Z</time>
      </trkpt>
      <trkpt lat="45.14044" lon="4.69941">
        <ele>516.3</ele>
        <time>2014-04-21T06:49:21Z</time>
      </trkpt>
      <trkpt lat="45.1404" lon="4.69935">
        <ele>516.7</ele>
        <time>2014-04-21T06:49:24Z</time>
      </trkpt>
      <trkpt lat="45.14036" lon="4.6993">
        <ele>517.2</ele>
        <time>2014-04-21T06:49:27Z</time>
      </trkpt>
      <trkpt lat="45.14032" lon="4.69925">
        <ele>517.7</ele>
        <time>2014-04-21T06:49:30Z</time>
      </trkpt>
      <trkpt lat="45.14027" lon="4.69919">
        <ele>518.2</ele>
        <time>2014-04-21T06:49:33Z</time>
      </trkpt>
      <trkpt lat="45.14023" lon="4.69914">
        <ele>518.4</ele>
        <time>2014-04-21T06:49:36Z</time>
      </trkpt>
      <trkpt lat="45.14019" lon="4.69909">
        <ele>518.6</ele>
        <time>2014-04-21T06:49:39Z</time>
      </trkpt>
      <trkpt lat="45.14014" lon="4.69903">
        <ele>518.9</ele>
        <time>2014-04-21T06:49:42Z</time>
      </trkpt>
      <trkpt lat="45.1401" lon="4.69899">
        <ele>519</ele>
        <time>2014-04-21T06:49:44Z</time>
      </trkpt>
      <trkpt lat="45.14006" lon="4.69893">
        <ele>519.3</ele>
        <time>2014-04-21T06:49:47Z</time>
      </trkpt>
      <trkpt lat="45.14" lon="4.69887">
        <ele>519.4</ele>
        <time>2014-04-21T06:49:50Z</time>
      </trkpt>
      <trkpt lat="45.13996" lon="4.69882">
        <ele>519.4</ele>
        <time>2014-04-21T06:49:52Z</time>
      </trkpt>
      <trkpt lat="45.13987" lon="4.69869">
        <ele>519.3</ele>
        <time>2014-04-21T06:49:56Z</time>
      </trkpt>
      <trkpt lat="45.13982" lon="4.69863">
        <ele>519.2</ele>
        <time>2014-04-21T06:49:58Z</time>
      </trkpt>
      <trkpt lat="45.13977" lon="4.69856">
        <ele>519</ele>
        <time>2014-04-21T06:50:00Z</time>
      </trkpt>
      <trkpt lat="45.13971" lon="4.69849">
        <ele>518.8</ele>
        <time>2014-04-21T06:50:02Z</time>
      </trkpt>
      <trkpt lat="45.13965" lon="4.6984">
        <ele>518.4</ele>
        <time>2014-04-21T06:50:04Z</time>
      </trkpt>
      <trkpt lat="45.13961" lon="4.69836">
        <ele>518.2</ele>
        <time>2014-04-21T06:50:05Z</time>
      </trkpt>
      <trkpt lat="45.13957" lon="4.69831">
        <ele>517.9</ele>
        <time>2014-04-21T06:50:06Z</time>
      </trkpt>
      <trkpt lat="45.13953" lon="4.69827">
        <ele>517.6</ele>
        <time>2014-04-21T06:50:07Z</time>
      </trkpt>
      <trkpt lat="45.13949" lon="4.69822">
        <ele>517.2</ele>
        <time>2014-04-21T06:50:08Z</time>
      </trkpt>
      <trkpt lat="45.13945" lon="4.69816">
        <ele>516.9</ele>
        <time>2014-04-21T06:50:09Z</time>
      </trkpt>
      <trkpt lat="45.13941" lon="4.69811">
        <ele>516.5</ele>
        <time>2014-04-21T06:50:10Z</time>
      </trkpt>
      <trkpt lat="45.13937" lon="4.69806">
        <ele>516.1</ele>
        <time>2014-04-21T06:50:11Z</time>
      </trkpt>
      <trkpt lat="45.13933" lon="4.69801">
        <ele>515.7</ele>
        <time>2014-04-21T06:50:12Z</time>
      </trkpt>
      <trkpt lat="45.13929" lon="4.69795">
        <ele>515.3</ele>
        <time>2014-04-21T06:50:13Z</time>
      </trkpt>
      <trkpt lat="45.13925" lon="4.6979">
        <ele>514.9</ele>
        <time>2014-04-21T06:50:14Z</time>
      </trkpt>
      <trkpt lat="45.1392" lon="4.69784">
        <ele>514.4</ele>
        <time>2014-04-21T06:50:15Z</time>
      </trkpt>
      <trkpt lat="45.13915" lon="4.69778">
        <ele>513.9</ele>
        <time>2014-04-21T06:50:16Z</time>
      </trkpt>
      <trkpt lat="45.13911" lon="4.69772">
        <ele>513.5</ele>
        <time>2014-04-21T06:50:17Z</time>
      </trkpt>
      <trkpt lat="45.13907" lon="4.69766">
        <ele>513.1</ele>
        <time>2014-04-21T06:50:18Z</time>
      </trkpt>
      <trkpt lat="45.13903" lon="4.69759">
        <ele>512.7</ele>
        <time>2014-04-21T06:50:19Z</time>
      </trkpt>
      <trkpt lat="45.13898" lon="4.69753">
        <ele>512.2</ele>
        <time>2014-04-21T06:50:20Z</time>
      </trkpt>
      <trkpt lat="45.13892" lon="4.69747">
        <ele>511.7</ele>
        <time>2014-04-21T06:50:21Z</time>
      </trkpt>
      <trkpt lat="45.13887" lon="4.69742">
        <ele>511.1</ele>
        <time>2014-04-21T06:50:22Z</time>
      </trkpt>
      <trkpt lat="45.13881" lon="4.69736">
        <ele>510.5</ele>
        <time>2014-04-21T06:50:23Z</time>
      </trkpt>
      <trkpt lat="45.13874" lon="4.69732">
        <ele>509.8</ele>
        <time>2014-04-21T06:50:24Z</time>
      </trkpt>
      <trkpt lat="45.13868" lon="4.69728">
        <ele>509.1</ele>
        <time>2014-04-21T06:50:25Z</time>
      </trkpt>
      <trkpt lat="45.13863" lon="4.69723">
        <ele>508.5</ele>
        <time>2014-04-21T06:50:26Z</time>
      </trkpt>
      <trkpt lat="45.13857" lon="4.69718">
        <ele>507.8</ele>
        <time>2014-04-21T06:50:27Z</time>
      </trkpt>
      <trkpt lat="45.1385" lon="4.69713">
        <ele>507</ele>
        <time>2014-04-21T06:50:28Z</time>
      </trkpt>
      <trkpt lat="45.13844" lon="4.69708">
        <ele>506.2</ele>
        <time>2014-04-21T06:50:29Z</time>
      </trkpt>
      <trkpt lat="45.13837" lon="4.69702">
        <ele>505.3</ele>
        <time>2014-04-21T06:50:30Z</time>
      </trkpt>
      <trkpt lat="45.1383" lon="4.69699">
        <ele>504.6</ele>
        <time>2014-04-21T06:50:31Z</time>
      </trkpt>
      <trkpt lat="45.13823" lon="4.69696">
        <ele>504</ele>
        <time>2014-04-21T06:50:32Z</time>
      </trkpt>
      <trkpt lat="45.13816" lon="4.69693">
        <ele>503.5</ele>
        <time>2014-04-21T06:50:33Z</time>
      </trkpt>
      <trkpt lat="45.1381" lon="4.6969">
        <ele>503</ele>
        <time>2014-04-21T06:50:34Z</time>
      </trkpt>
      <trkpt lat="45.13803" lon="4.69687">
        <ele>502.6</ele>
        <time>2014-04-21T06:50:35Z</time>
      </trkpt>
      <trkpt lat="45.13798" lon="4.69684">
        <ele>502.2</ele>
        <time>2014-04-21T06:50:36Z</time>
      </trkpt>
      <trkpt lat="45.1379" lon="4.6968">
        <ele>501.7</ele>
        <time>2014-04-21T06:50:37Z</time>
      </trkpt>
      <trkpt lat="45.13783" lon="4.69677">
        <ele>501.2</ele>
        <time>2014-04-21T06:50:38Z</time>
      </trkpt>
      <trkpt lat="45.13776" lon="4.69673">
        <ele>500.6</ele>
        <time>2014-04-21T06:50:39Z</time>
      </trkpt>
      <trkpt lat="45.1377" lon="4.69668">
        <ele>500.2</ele>
        <time>2014-04-21T06:50:40Z</time>
      </trkpt>
      <trkpt lat="45.13765" lon="4.69661">
        <ele>499.8</ele>
        <time>2014-04-21T06:50:41Z</time>
      </trkpt>
      <trkpt lat="45.13759" lon="4.69656">
        <ele>499.4</ele>
        <time>2014-04-21T06:50:42Z</time>
      </trkpt>
      <trkpt lat="45.13753" lon="4.69649">
        <ele>499</ele>
        <time>2014-04-21T06:50:43Z</time>
      </trkpt>
      <trkpt lat="45.13747" lon="4.69644">
        <ele>498.5</ele>
        <time>2014-04-21T06:50:44Z</time>
      </trkpt>
      <trkpt lat="45.13741" lon="4.6964">
        <ele>497.8</ele>
        <time>2014-04-21T06:50:45Z</time>
      </trkpt>
      <trkpt lat="45.13735" lon="4.69636">
        <ele>497.1</ele>
        <time>2014-04-21T06:50:46Z</time>
      </trkpt>
      <trkpt lat="45.13728" lon="4.69633">
        <ele>496.4</ele>
        <time>2014-04-21T06:50:47Z</time>
      </trkpt>
      <trkpt lat="45.13722" lon="4.69629">
        <ele>495.7</ele>
        <time>2014-04-21T06:50:48Z</time>
      </trkpt>
      <trkpt lat="45.13716" lon="4.69624">
        <ele>495</ele>
        <time>2014-04-21T06:50:49Z</time>
      </trkpt>
      <trkpt lat="45.13709" lon="4.6962">
        <ele>494.2</ele>
        <time>2014-04-21T06:50:50Z</time>
      </trkpt>
      <trkpt lat="45.13702" lon="4.69614">
        <ele>493.4</ele>
        <time>2014-04-21T06:50:51Z</time>
      </trkpt>
      <trkpt lat="45.13696" lon="4.69609">
        <ele>492.6</ele>
        <time>2014-04-21T06:50:52Z</time>
      </trkpt>
      <trkpt lat="45.1369" lon="4.69603">
        <ele>491.9</ele>
        <time>2014-04-21T06:50:53Z</time>
      </trkpt>
      <trkpt lat="45.13677" lon="4.69591">
        <ele>490.3</ele>
        <time>2014-04-21T06:50:55Z</time>
      </trkpt>
      <trkpt lat="45.13672" lon="4.69586">
        <ele>489.6</ele>
        <time>2014-04-21T06:50:56Z</time>
      </trkpt>
      <trkpt lat="45.13667" lon="4.69581">
        <ele>489.1</ele>
        <time>2014-04-21T06:50:57Z</time>
      </trkpt>
      <trkpt lat="45.13662" lon="4.69576">
        <ele>489</ele>
        <time>2014-04-21T06:50:58Z</time>
      </trkpt>
      <trkpt lat="45.13657" lon="4.69571">
        <ele>488.9</ele>
        <time>2014-04-21T06:50:59Z</time>
      </trkpt>
      <trkpt lat="45.13653" lon="4.69566">
        <ele>488.9</ele>
        <time>2014-04-21T06:51:00Z</time>
      </trkpt>
      <trkpt lat="45.13648" lon="4.69562">
        <ele>488.8</ele>
        <time>2014-04-21T06:51:01Z</time>
      </trkpt>
      <trkpt lat="45.13644" lon="4.69558">
        <ele>488.8</ele>
        <time>2014-04-21T06:51:02Z</time>
      </trkpt>
      <trkpt lat="45.13637" lon="4.69551">
        <ele>488.7</ele>
        <time>2014-04-21T06:51:04Z</time>
      </trkpt>
      <trkpt lat="45.13631" lon="4.69544">
        <ele>488.7</ele>
        <time>2014-04-21T06:51:06Z</time>
      </trkpt>
      <trkpt lat="45.13624" lon="4.69537">
        <ele>488.7</ele>
        <time>2014-04-21T06:51:08Z</time>
      </trkpt>
      <trkpt lat="45.13617" lon="4.69529">
        <ele>488.8</ele>
        <time>2014-04-21T06:51:10Z</time>
      </trkpt>
      <trkpt lat="45.13613" lon="4.69525">
        <ele>488.8</ele>
        <time>2014-04-21T06:51:11Z</time>
      </trkpt>
      <trkpt lat="45.13606" lon="4.69518">
        <ele>488.8</ele>
        <time>2014-04-21T06:51:13Z</time>
      </trkpt>
      <trkpt lat="45.13602" lon="4.69515">
        <ele>488.9</ele>
        <time>2014-04-21T06:51:14Z</time>
      </trkpt>
      <trkpt lat="45.13595" lon="4.6951">
        <ele>488.9</ele>
        <time>2014-04-21T06:51:16Z</time>
      </trkpt>
      <trkpt lat="45.13587" lon="4.69505">
        <ele>488.9</ele>
        <time>2014-04-21T06:51:18Z</time>
      </trkpt>
      <trkpt lat="45.1358" lon="4.69499">
        <ele>488.9</ele>
        <time>2014-04-21T06:51:20Z</time>
      </trkpt>
      <trkpt lat="45.13573" lon="4.69493">
        <ele>488.8</ele>
        <time>2014-04-21T06:51:22Z</time>
      </trkpt>
      <trkpt lat="45.13565" lon="4.69486">
        <ele>488.8</ele>
        <time>2014-04-21T06:51:24Z</time>
      </trkpt>
      <trkpt lat="45.13559" lon="4.6948">
        <ele>488.8</ele>
        <time>2014-04-21T06:51:26Z</time>
      </trkpt>
      <trkpt lat="45.13552" lon="4.69474">
        <ele>488.7</ele>
        <time>2014-04-21T06:51:28Z</time>
      </trkpt>
      <trkpt lat="45.13545" lon="4.69468">
        <ele>488.7</ele>
        <time>2014-04-21T06:51:30Z</time>
      </trkpt>
      <trkpt lat="45.13539" lon="4.69461">
        <ele>488.7</ele>
        <time>2014-04-21T06:51:32Z</time>
      </trkpt>
      <trkpt lat="45.13534" lon="4.69454">
        <ele>488.8</ele>
        <time>2014-04-21T06:51:34Z</time>
      </trkpt>
      <trkpt lat="45.13528" lon="4.69447">
        <ele>488.9</ele>
        <time>2014-04-21T06:51:36Z</time>
      </trkpt>
      <trkpt lat="45.13523" lon="4.69439">
        <ele>489.1</ele>
        <time>2014-04-21T06:51:38Z</time>
      </trkpt>
      <trkpt lat="45.13519" lon="4.69432">
        <ele>489.3</ele>
        <time>2014-04-21T06:51:40Z</time>
      </trkpt>
      <trkpt lat="45.13515" lon="4.69425">
        <ele>489.4</ele>
        <time>2014-04-21T06:51:42Z</time>
      </trkpt>
      <trkpt lat="45.13511" lon="4.69418">
        <ele>489.6</ele>
        <time>2014-04-21T06:51:44Z</time>
      </trkpt>
      <trkpt lat="45.13506" lon="4.69411">
        <ele>489.9</ele>
        <time>2014-04-21T06:51:46Z</time>
      </trkpt>
      <trkpt lat="45.13502" lon="4.69405">
        <ele>490.5</ele>
        <time>2014-04-21T06:51:48Z</time>
      </trkpt>
      <trkpt lat="45.13499" lon="4.69398">
        <ele>491.1</ele>
        <time>2014-04-21T06:51:50Z</time>
      </trkpt>
      <trkpt lat="45.13497" lon="4.6939">
        <ele>491.7</ele>
        <time>2014-04-21T06:51:52Z</time>
      </trkpt>
      <trkpt lat="45.13496" lon="4.69383">
        <ele>492.4</ele>
        <time>2014-04-21T06:51:54Z</time>
      </trkpt>
      <trkpt lat="45.13498" lon="4.69365">
        <ele>494.5</ele>
        <time>2014-04-21T06:52:00Z</time>
      </trkpt>
      <trkpt lat="45.13499" lon="4.69357">
        <ele>495.4</ele>
        <time>2014-04-21T06:52:03Z</time>
      </trkpt>
      <trkpt lat="45.13499" lon="4.69349">
        <ele>496.4</ele>
        <time>2014-04-21T06:52:06Z</time>
      </trkpt>
      <trkpt lat="45.135" lon="4.6934">
        <ele>497.3</ele>
        <time>2014-04-21T06:52:09Z</time>
      </trkpt>
      <trkpt lat="45.13501" lon="4.69332">
        <ele>498.1</ele>
        <time>2014-04-21T06:52:12Z</time>
      </trkpt>
      <trkpt lat="45.13503" lon="4.69325">
        <ele>498.7</ele>
        <time>2014-04-21T06:52:15Z</time>
      </trkpt>
      <trkpt lat="45.13503" lon="4.69317">
        <ele>499.2</ele>
        <time>2014-04-21T06:52:18Z</time>
      </trkpt>
      <trkpt lat="45.13504" lon="4.69309">
        <ele>499.7</ele>
        <time>2014-04-21T06:52:21Z</time>
      </trkpt>
      <trkpt lat="45.13504" lon="4.69302">
        <ele>500.2</ele>
        <time>2014-04-21T06:52:24Z</time>
      </trkpt>
      <trkpt lat="45.13505" lon="4.69294">
        <ele>500.7</ele>
        <time>2014-04-21T06:52:27Z</time>
      </trkpt>
      <trkpt lat="45.13505" lon="4.69286">
        <ele>501.2</ele>
        <time>2014-04-21T06:52:30Z</time>
      </trkpt>
      <trkpt lat="45.13506" lon="4.69278">
        <ele>501.7</ele>
        <time>2014-04-21T06:52:33Z</time>
      </trkpt>
      <trkpt lat="45.13507" lon="4.69271">
        <ele>502.1</ele>
        <time>2014-04-21T06:52:36Z</time>
      </trkpt>
      <trkpt lat="45.13508" lon="4.69264">
        <ele>502.6</ele>
        <time>2014-04-21T06:52:39Z</time>
      </trkpt>
      <trkpt lat="45.13512" lon="4.6926">
        <ele>503</ele>
        <time>2014-04-21T06:52:42Z</time>
      </trkpt>
      <trkpt lat="45.13518" lon="4.6926">
        <ele>503.3</ele>
        <time>2014-04-21T06:52:45Z</time>
      </trkpt>
      <trkpt lat="45.13523" lon="4.6926">
        <ele>503.6</ele>
        <time>2014-04-21T06:52:48Z</time>
      </trkpt>
      <trkpt lat="45.13528" lon="4.69258">
        <ele>503.9</ele>
        <time>2014-04-21T06:52:51Z</time>
      </trkpt>
      <trkpt lat="45.13533" lon="4.69256">
        <ele>504.3</ele>
        <time>2014-04-21T06:52:54Z</time>
      </trkpt>
      <trkpt lat="45.13537" lon="4.69254">
        <ele>504.6</ele>
        <time>2014-04-21T06:52:57Z</time>
      </trkpt>
      <trkpt lat="45.13547" lon="4.6925">
        <ele>505.3</ele>
        <time>2014-04-21T06:53:03Z</time>
      </trkpt>
      <trkpt lat="45.13552" lon="4.69247">
        <ele>505.7</ele>
        <time>2014-04-21T06:53:06Z</time>
      </trkpt>
      <trkpt lat="45.13557" lon="4.69245">
        <ele>506.1</ele>
        <time>2014-04-21T06:53:09Z</time>
      </trkpt>
      <trkpt lat="45.13561" lon="4.69242">
        <ele>506.6</ele>
        <time>2014-04-21T06:53:12Z</time>
      </trkpt>
      <trkpt lat="45.13566" lon="4.6924">
        <ele>507</ele>
        <time>2014-04-21T06:53:15Z</time>
      </trkpt>
      <trkpt lat="45.13572" lon="4.69239">
        <ele>507.3</ele>
        <time>2014-04-21T06:53:18Z</time>
      </trkpt>
      <trkpt lat="45.13577" lon="4.69239">
        <ele>507.7</ele>
        <time>2014-04-21T06:53:21Z</time>
      </trkpt>
      <trkpt lat="45.13583" lon="4.69239">
        <ele>508</ele>
        <time>2014-04-21T06:53:24Z</time>
      </trkpt>
      <trkpt lat="45.13589" lon="4.6924">
        <ele>508</ele>
        <time>2014-04-21T06:53:27Z</time>
      </trkpt>
      <trkpt lat="45.13594" lon="4.69241">
        <ele>508.1</ele>
        <time>2014-04-21T06:53:30Z</time>
      </trkpt>
      <trkpt lat="45.136" lon="4.69242">
        <ele>508.1</ele>
        <time>2014-04-21T06:53:33Z</time>
      </trkpt>
      <trkpt lat="45.13606" lon="4.69244">
        <ele>508.2</ele>
        <time>2014-04-21T06:53:36Z</time>
      </trkpt>
      <trkpt lat="45.13612" lon="4.69245">
        <ele>508.2</ele>
        <time>2014-04-21T06:53:39Z</time>
      </trkpt>
      <trkpt lat="45.13618" lon="4.69247">
        <ele>508.2</ele>
        <time>2014-04-21T06:53:42Z</time>
      </trkpt>
      <trkpt lat="45.13623" lon="4.69248">
        <ele>508.2</ele>
        <time>2014-04-21T06:53:45Z</time>
      </trkpt>
      <trkpt lat="45.13629" lon="4.69248">
        <ele>508.4</ele>
        <time>2014-04-21T06:53:48Z</time>
      </trkpt>
      <trkpt lat="45.13635" lon="4.69247">
        <ele>508.7</ele>
        <time>2014-04-21T06:53:51Z</time>
      </trkpt>
      <trkpt lat="45.13641" lon="4.69246">
        <ele>508.8</ele>
        <time>2014-04-21T06:53:54Z</time>
      </trkpt>
      <trkpt lat="45.13646" lon="4.69246">
        <ele>509.1</ele>
        <time>2014-04-21T06:53:57Z</time>
      </trkpt>
      <trkpt lat="45.13651" lon="4.69246">
        <ele>509.3</ele>
        <time>2014-04-21T06:54:00Z</time>
      </trkpt>
      <trkpt lat="45.13662" lon="4.69245">
        <ele>509.6</ele>
        <time>2014-04-21T06:54:06Z</time>
      </trkpt>
      <trkpt lat="45.13668" lon="4.69245">
        <ele>509.8</ele>
        <time>2014-04-21T06:54:09Z</time>
      </trkpt>
      <trkpt lat="45.13674" lon="4.69244">
        <ele>510.4</ele>
        <time>2014-04-21T06:54:12Z</time>
      </trkpt>
      <trkpt lat="45.13679" lon="4.69244">
        <ele>510.8</ele>
        <time>2014-04-21T06:54:15Z</time>
      </trkpt>
      <trkpt lat="45.13685" lon="4.69244">
        <ele>511.2</ele>
        <time>2014-04-21T06:54:18Z</time>
      </trkpt>
      <trkpt lat="45.13692" lon="4.69244">
        <ele>511.7</ele>
        <time>2014-04-21T06:54:21Z</time>
      </trkpt>
      <trkpt lat="45.13697" lon="4.69243">
        <ele>512.3</ele>
        <time>2014-04-21T06:54:24Z</time>
      </trkpt>
      <trkpt lat="45.13703" lon="4.69243">
        <ele>512.7</ele>
        <time>2014-04-21T06:54:27Z</time>
      </trkpt>
      <trkpt lat="45.13709" lon="4.69243">
        <ele>513.1</ele>
        <time>2014-04-21T06:54:30Z</time>
      </trkpt>
      <trkpt lat="45.13714" lon="4.69242">
        <ele>513.5</ele>
        <time>2014-04-21T06:54:33Z</time>
      </trkpt>
      <trkpt lat="45.1372" lon="4.69242">
        <ele>514.1</ele>
        <time>2014-04-21T06:54:36Z</time>
      </trkpt>
      <trkpt lat="45.13725" lon="4.69242">
        <ele>514.5</ele>
        <time>2014-04-21T06:54:39Z</time>
      </trkpt>
      <trkpt lat="45.1373" lon="4.69241">
        <ele>514.8</ele>
        <time>2014-04-21T06:54:42Z</time>
      </trkpt>
      <trkpt lat="45.13735" lon="4.6924">
        <ele>515.4</ele>
        <time>2014-04-21T06:54:45Z</time>
      </trkpt>
      <trkpt lat="45.13741" lon="4.6924">
        <ele>515.8</ele>
        <time>2014-04-21T06:54:48Z</time>
      </trkpt>
      <trkpt lat="45.13746" lon="4.69239">
        <ele>516.4</ele>
        <time>2014-04-21T06:54:51Z</time>
      </trkpt>
      <trkpt lat="45.13752" lon="4.69237">
        <ele>517</ele>
        <time>2014-04-21T06:54:54Z</time>
      </trkpt>
      <trkpt lat="45.13757" lon="4.69236">
        <ele>517.6</ele>
        <time>2014-04-21T06:54:57Z</time>
      </trkpt>
      <trkpt lat="45.13763" lon="4.69234">
        <ele>518.2</ele>
        <time>2014-04-21T06:55:00Z</time>
      </trkpt>
      <trkpt lat="45.13768" lon="4.69233">
        <ele>519</ele>
        <time>2014-04-21T06:55:03Z</time>
      </trkpt>
      <trkpt lat="45.13778" lon="4.6923">
        <ele>520.2</ele>
        <time>2014-04-21T06:55:08Z</time>
      </trkpt>
      <trkpt lat="45.13783" lon="4.69228">
        <ele>520.8</ele>
        <time>2014-04-21T06:55:12Z</time>
      </trkpt>
      <trkpt lat="45.13788" lon="4.69226">
        <ele>521.6</ele>
        <time>2014-04-21T06:55:15Z</time>
      </trkpt>
      <trkpt lat="45.13793" lon="4.69224">
        <ele>522.1</ele>
        <time>2014-04-21T06:55:18Z</time>
      </trkpt>
      <trkpt lat="45.13798" lon="4.69222">
        <ele>522.9</ele>
        <time>2014-04-21T06:55:21Z</time>
      </trkpt>
      <trkpt lat="45.13802" lon="4.6922">
        <ele>523.5</ele>
        <time>2014-04-21T06:55:24Z</time>
      </trkpt>
      <trkpt lat="45.13807" lon="4.69218">
        <ele>524.3</ele>
        <time>2014-04-21T06:55:27Z</time>
      </trkpt>
      <trkpt lat="45.13812" lon="4.69216">
        <ele>525</ele>
        <time>2014-04-21T06:55:30Z</time>
      </trkpt>
      <trkpt lat="45.13817" lon="4.69215">
        <ele>525.8</ele>
        <time>2014-04-21T06:55:33Z</time>
      </trkpt>
      <trkpt lat="45.13822" lon="4.69212">
        <ele>526.4</ele>
        <time>2014-04-21T06:55:36Z</time>
      </trkpt>
      <trkpt lat="45.13827" lon="4.6921">
        <ele>527.2</ele>
        <time>2014-04-21T06:55:39Z</time>
      </trkpt>
      <trkpt lat="45.13831" lon="4.69209">
        <ele>527.8</ele>
        <time>2014-04-21T06:55:42Z</time>
      </trkpt>
      <trkpt lat="45.13836" lon="4.69208">
        <ele>528.2</ele>
        <time>2014-04-21T06:55:45Z</time>
      </trkpt>
      <trkpt lat="45.1384" lon="4.69206">
        <ele>529</ele>
        <time>2014-04-21T06:55:49Z</time>
      </trkpt>
      <trkpt lat="45.13846" lon="4.69204">
        <ele>529.9</ele>
        <time>2014-04-21T06:55:53Z</time>
      </trkpt>
      <trkpt lat="45.1385" lon="4.69202">
        <ele>530.5</ele>
        <time>2014-04-21T06:55:56Z</time>
      </trkpt>
      <trkpt lat="45.13855" lon="4.692">
        <ele>531.3</ele>
        <time>2014-04-21T06:55:59Z</time>
      </trkpt>
      <trkpt lat="45.13859" lon="4.69199">
        <ele>531.9</ele>
        <time>2014-04-21T06:56:02Z</time>
      </trkpt>
      <trkpt lat="45.13864" lon="4.69199">
        <ele>532.1</ele>
        <time>2014-04-21T06:56:05Z</time>
      </trkpt>
      <trkpt lat="45.13875" lon="4.69199">
        <ele>533.2</ele>
        <time>2014-04-21T06:56:11Z</time>
      </trkpt>
      <trkpt lat="45.1388" lon="4.69199">
        <ele>533.7</ele>
        <time>2014-04-21T06:56:14Z</time>
      </trkpt>
      <trkpt lat="45.13885" lon="4.69198">
        <ele>534.1</ele>
        <time>2014-04-21T06:56:16Z</time>
      </trkpt>
      <trkpt lat="45.1389" lon="4.69198">
        <ele>534.5</ele>
        <time>2014-04-21T06:56:18Z</time>
      </trkpt>
      <trkpt lat="45.13896" lon="4.69199">
        <ele>535</ele>
        <time>2014-04-21T06:56:21Z</time>
      </trkpt>
      <trkpt lat="45.13902" lon="4.69199">
        <ele>535.3</ele>
        <time>2014-04-21T06:56:24Z</time>
      </trkpt>
      <trkpt lat="45.13908" lon="4.69199">
        <ele>535.8</ele>
        <time>2014-04-21T06:56:27Z</time>
      </trkpt>
      <trkpt lat="45.13913" lon="4.69201">
        <ele>536</ele>
        <time>2014-04-21T06:56:30Z</time>
      </trkpt>
      <trkpt lat="45.13918" lon="4.69203">
        <ele>536.2</ele>
        <time>2014-04-21T06:56:33Z</time>
      </trkpt>
      <trkpt lat="45.13923" lon="4.69204">
        <ele>536.6</ele>
        <time>2014-04-21T06:56:36Z</time>
      </trkpt>
      <trkpt lat="45.13928" lon="4.69206">
        <ele>536.7</ele>
        <time>2014-04-21T06:56:39Z</time>
      </trkpt>
      <trkpt lat="45.13933" lon="4.69207">
        <ele>537.1</ele>
        <time>2014-04-21T06:56:42Z</time>
      </trkpt>
      <trkpt lat="45.13938" lon="4.69209">
        <ele>537.5</ele>
        <time>2014-04-21T06:56:46Z</time>
      </trkpt>
      <trkpt lat="45.13944" lon="4.69209">
        <ele>538.1</ele>
        <time>2014-04-21T06:56:49Z</time>
      </trkpt>
      <trkpt lat="45.13948" lon="4.6921">
        <ele>538.4</ele>
        <time>2014-04-21T06:56:52Z</time>
      </trkpt>
      <trkpt lat="45.13953" lon="4.69211">
        <ele>539</ele>
        <time>2014-04-21T06:56:55Z</time>
      </trkpt>
      <trkpt lat="45.13959" lon="4.69212">
        <ele>539.5</ele>
        <time>2014-04-21T06:56:58Z</time>
      </trkpt>
      <trkpt lat="45.13964" lon="4.69214">
        <ele>539.8</ele>
        <time>2014-04-21T06:57:01Z</time>
      </trkpt>
      <trkpt lat="45.13969" lon="4.69216">
        <ele>540.1</ele>
        <time>2014-04-21T06:57:04Z</time>
      </trkpt>
      <trkpt lat="45.13975" lon="4.69218">
        <ele>540.6</ele>
        <time>2014-04-21T06:57:07Z</time>
      </trkpt>
      <trkpt lat="45.13985" lon="4.69217">
        <ele>541.8</ele>
        <time>2014-04-21T06:57:14Z</time>
      </trkpt>
      <trkpt lat="45.1399" lon="4.69214">
        <ele>542.9</ele>
        <time>2014-04-21T06:57:18Z</time>
      </trkpt>
      <trkpt lat="45.13994" lon="4.69212">
        <ele>543.6</ele>
        <time>2014-04-21T06:57:21Z</time>
      </trkpt>
      <trkpt lat="45.13999" lon="4.69208">
        <ele>544.4</ele>
        <time>2014-04-21T06:57:25Z</time>
      </trkpt>
      <trkpt lat="45.14004" lon="4.69206">
        <ele>544.8</ele>
        <time>2014-04-21T06:57:29Z</time>
      </trkpt>
      <trkpt lat="45.14009" lon="4.69205">
        <ele>544.9</ele>
        <time>2014-04-21T06:57:33Z</time>
      </trkpt>
      <trkpt lat="45.14014" lon="4.69203">
        <ele>545</ele>
        <time>2014-04-21T06:57:37Z</time>
      </trkpt>
      <trkpt lat="45.14019" lon="4.69202">
        <ele>545.2</ele>
        <time>2014-04-21T06:57:42Z</time>
      </trkpt>
      <trkpt lat="45.14024" lon="4.69202">
        <ele>545.2</ele>
        <time>2014-04-21T06:57:46Z</time>
      </trkpt>
      <trkpt lat="45.14029" lon="4.69203">
        <ele>545.2</ele>
        <time>2014-04-21T06:57:50Z</time>
      </trkpt>
      <trkpt lat="45.14034" lon="4.69203">
        <ele>545.2</ele>
        <time>2014-04-21T06:57:54Z</time>
      </trkpt>
      <trkpt lat="45.14039" lon="4.69202">
        <ele>545.3</ele>
        <time>2014-04-21T06:57:58Z</time>
      </trkpt>
      <trkpt lat="45.1404" lon="4.69196">
        <ele>545.6</ele>
        <time>2014-04-21T06:58:02Z</time>
      </trkpt>
      <trkpt lat="45.14038" lon="4.69189">
        <ele>546</ele>
        <time>2014-04-21T06:58:05Z</time>
      </trkpt>
      <trkpt lat="45.14035" lon="4.69182">
        <ele>546.3</ele>
        <time>2014-04-21T06:58:08Z</time>
      </trkpt>
      <trkpt lat="45.1403" lon="4.69171">
        <ele>547</ele>
        <time>2014-04-21T06:58:14Z</time>
      </trkpt>
      <trkpt lat="45.14028" lon="4.69165">
        <ele>547.2</ele>
        <time>2014-04-21T06:58:17Z</time>
      </trkpt>
      <trkpt lat="45.14025" lon="4.69158">
        <ele>547</ele>
        <time>2014-04-21T06:58:21Z</time>
      </trkpt>
      <trkpt lat="45.14023" lon="4.69152">
        <ele>546.7</ele>
        <time>2014-04-21T06:58:24Z</time>
      </trkpt>
      <trkpt lat="45.14019" lon="4.69146">
        <ele>546.6</ele>
        <time>2014-04-21T06:58:27Z</time>
      </trkpt>
      <trkpt lat="45.14016" lon="4.6914">
        <ele>546.4</ele>
        <time>2014-04-21T06:58:30Z</time>
      </trkpt>
      <trkpt lat="45.14013" lon="4.69136">
        <ele>546.4</ele>
        <time>2014-04-21T06:58:33Z</time>
      </trkpt>
      <trkpt lat="45.14009" lon="4.69132">
        <ele>546.4</ele>
        <time>2014-04-21T06:58:36Z</time>
      </trkpt>
      <trkpt lat="45.14006" lon="4.69126">
        <ele>546.3</ele>
        <time>2014-04-21T06:58:39Z</time>
      </trkpt>
      <trkpt lat="45.14003" lon="4.69121">
        <ele>546.2</ele>
        <time>2014-04-21T06:58:42Z</time>
      </trkpt>
      <trkpt lat="45.13999" lon="4.69114">
        <ele>546.1</ele>
        <time>2014-04-21T06:58:45Z</time>
      </trkpt>
      <trkpt lat="45.13995" lon="4.69108">
        <ele>545.9</ele>
        <time>2014-04-21T06:58:48Z</time>
      </trkpt>
      <trkpt lat="45.13991" lon="4.69101">
        <ele>545.6</ele>
        <time>2014-04-21T06:58:51Z</time>
      </trkpt>
      <trkpt lat="45.13989" lon="4.69093">
        <ele>545.5</ele>
        <time>2014-04-21T06:58:54Z</time>
      </trkpt>
      <trkpt lat="45.13988" lon="4.69085">
        <ele>545.3</ele>
        <time>2014-04-21T06:58:57Z</time>
      </trkpt>
      <trkpt lat="45.13986" lon="4.69076">
        <ele>545.3</ele>
        <time>2014-04-21T06:59:00Z</time>
      </trkpt>
      <trkpt lat="45.13984" lon="4.69068">
        <ele>545.3</ele>
        <time>2014-04-21T06:59:03Z</time>
      </trkpt>
      <trkpt lat="45.13982" lon="4.69061">
        <ele>545.3</ele>
        <time>2014-04-21T06:59:06Z</time>
      </trkpt>
      <trkpt lat="45.1398" lon="4.69054">
        <ele>545.4</ele>
        <time>2014-04-21T06:59:09Z</time>
      </trkpt>
      <trkpt lat="45.13974" lon="4.6904">
        <ele>545.6</ele>
        <time>2014-04-21T06:59:15Z</time>
      </trkpt>
      <trkpt lat="45.13972" lon="4.69034">
        <ele>545.7</ele>
        <time>2014-04-21T06:59:18Z</time>
      </trkpt>
      <trkpt lat="45.1397" lon="4.69028">
        <ele>545.8</ele>
        <time>2014-04-21T06:59:21Z</time>
      </trkpt>
      <trkpt lat="45.13966" lon="4.69022">
        <ele>546</ele>
        <time>2014-04-21T06:59:24Z</time>
      </trkpt>
      <trkpt lat="45.13964" lon="4.69015">
        <ele>546.1</ele>
        <time>2014-04-21T06:59:27Z</time>
      </trkpt>
      <trkpt lat="45.13961" lon="4.69007">
        <ele>546.3</ele>
        <time>2014-04-21T06:59:30Z</time>
      </trkpt>
      <trkpt lat="45.13959" lon="4.68999">
        <ele>546.5</ele>
        <time>2014-04-21T06:59:33Z</time>
      </trkpt>
      <trkpt lat="45.13957" lon="4.68991">
        <ele>546.7</ele>
        <time>2014-04-21T06:59:36Z</time>
      </trkpt>
      <trkpt lat="45.13954" lon="4.68984">
        <ele>547</ele>
        <time>2014-04-21T06:59:39Z</time>
      </trkpt>
      <trkpt lat="45.1395" lon="4.68979">
        <ele>547.4</ele>
        <time>2014-04-21T06:59:42Z</time>
      </trkpt>
      <trkpt lat="45.13946" lon="4.68971">
        <ele>547.9</ele>
        <time>2014-04-21T06:59:45Z</time>
      </trkpt>
      <trkpt lat="45.13943" lon="4.68964">
        <ele>548.4</ele>
        <time>2014-04-21T06:59:48Z</time>
      </trkpt>
      <trkpt lat="45.13939" lon="4.68957">
        <ele>548.9</ele>
        <time>2014-04-21T06:59:51Z</time>
      </trkpt>
      <trkpt lat="45.13935" lon="4.68951">
        <ele>549.5</ele>
        <time>2014-04-21T06:59:54Z</time>
      </trkpt>
      <trkpt lat="45.13931" lon="4.68944">
        <ele>550.1</ele>
        <time>2014-04-21T06:59:57Z</time>
      </trkpt>
      <trkpt lat="45.13928" lon="4.68937">
        <ele>550.8</ele>
        <time>2014-04-21T07:00:00Z</time>
      </trkpt>
      <trkpt lat="45.13924" lon="4.6893">
        <ele>551.5</ele>
        <time>2014-04-21T07:00:03Z</time>
      </trkpt>
      <trkpt lat="45.13921" lon="4.68922">
        <ele>552.2</ele>
        <time>2014-04-21T07:00:06Z</time>
      </trkpt>
      <trkpt lat="45.13918" lon="4.68915">
        <ele>552.8</ele>
        <time>2014-04-21T07:00:09Z</time>
      </trkpt>
      <trkpt lat="45.13914" lon="4.68908">
        <ele>552.3</ele>
        <time>2014-04-21T07:00:12Z</time>
      </trkpt>
      <trkpt lat="45.13907" lon="4.68895">
        <ele>551.5</ele>
        <time>2014-04-21T07:00:17Z</time>
      </trkpt>
      <trkpt lat="45.13904" lon="4.68888">
        <ele>551.2</ele>
        <time>2014-04-21T07:00:19Z</time>
      </trkpt>
      <trkpt lat="45.13901" lon="4.68882">
        <ele>550.9</ele>
        <time>2014-04-21T07:00:21Z</time>
      </trkpt>
      <trkpt lat="45.13897" lon="4.68874">
        <ele>550.6</ele>
        <time>2014-04-21T07:00:23Z</time>
      </trkpt>
      <trkpt lat="45.13894" lon="4.68865">
        <ele>550.2</ele>
        <time>2014-04-21T07:00:25Z</time>
      </trkpt>
      <trkpt lat="45.13889" lon="4.68856">
        <ele>550</ele>
        <time>2014-04-21T07:00:27Z</time>
      </trkpt>
      <trkpt lat="45.13884" lon="4.68846">
        <ele>549.8</ele>
        <time>2014-04-21T07:00:29Z</time>
      </trkpt>
      <trkpt lat="45.13882" lon="4.6884">
        <ele>549.7</ele>
        <time>2014-04-21T07:00:30Z</time>
      </trkpt>
      <trkpt lat="45.13877" lon="4.6883">
        <ele>549.4</ele>
        <time>2014-04-21T07:00:32Z</time>
      </trkpt>
      <trkpt lat="45.13872" lon="4.6882">
        <ele>548.9</ele>
        <time>2014-04-21T07:00:34Z</time>
      </trkpt>
      <trkpt lat="45.13867" lon="4.68809">
        <ele>548.3</ele>
        <time>2014-04-21T07:00:36Z</time>
      </trkpt>
      <trkpt lat="45.13865" lon="4.68804">
        <ele>548.1</ele>
        <time>2014-04-21T07:00:37Z</time>
      </trkpt>
      <trkpt lat="45.13861" lon="4.68793">
        <ele>547.7</ele>
        <time>2014-04-21T07:00:39Z</time>
      </trkpt>
      <trkpt lat="45.13857" lon="4.68783">
        <ele>547.2</ele>
        <time>2014-04-21T07:00:41Z</time>
      </trkpt>
      <trkpt lat="45.13853" lon="4.68773">
        <ele>546.9</ele>
        <time>2014-04-21T07:00:43Z</time>
      </trkpt>
      <trkpt lat="45.13847" lon="4.68765">
        <ele>547</ele>
        <time>2014-04-21T07:00:45Z</time>
      </trkpt>
      <trkpt lat="45.13842" lon="4.68758">
        <ele>547.3</ele>
        <time>2014-04-21T07:00:47Z</time>
      </trkpt>
      <trkpt lat="45.13836" lon="4.68751">
        <ele>547.5</ele>
        <time>2014-04-21T07:00:49Z</time>
      </trkpt>
      <trkpt lat="45.1383" lon="4.68744">
        <ele>547.3</ele>
        <time>2014-04-21T07:00:51Z</time>
      </trkpt>
      <trkpt lat="45.13824" lon="4.68738">
        <ele>546.7</ele>
        <time>2014-04-21T07:00:53Z</time>
      </trkpt>
      <trkpt lat="45.13819" lon="4.68731">
        <ele>546.2</ele>
        <time>2014-04-21T07:00:55Z</time>
      </trkpt>
      <trkpt lat="45.13813" lon="4.68726">
        <ele>545.8</ele>
        <time>2014-04-21T07:00:57Z</time>
      </trkpt>
      <trkpt lat="45.13809" lon="4.6872">
        <ele>545.5</ele>
        <time>2014-04-21T07:00:59Z</time>
      </trkpt>
      <trkpt lat="45.13805" lon="4.68714">
        <ele>545.1</ele>
        <time>2014-04-21T07:01:01Z</time>
      </trkpt>
      <trkpt lat="45.13802" lon="4.68708">
        <ele>544.7</ele>
        <time>2014-04-21T07:01:03Z</time>
      </trkpt>
      <trkpt lat="45.13798" lon="4.68702">
        <ele>544.5</ele>
        <time>2014-04-21T07:01:05Z</time>
      </trkpt>
      <trkpt lat="45.13794" lon="4.68696">
        <ele>544.2</ele>
        <time>2014-04-21T07:01:07Z</time>
      </trkpt>
      <trkpt lat="45.13791" lon="4.68689">
        <ele>544</ele>
        <time>2014-04-21T07:01:09Z</time>
      </trkpt>
      <trkpt lat="45.13788" lon="4.68682">
        <ele>543.7</ele>
        <time>2014-04-21T07:01:11Z</time>
      </trkpt>
      <trkpt lat="45.13786" lon="4.68675">
        <ele>543.5</ele>
        <time>2014-04-21T07:01:13Z</time>
      </trkpt>
      <trkpt lat="45.13781" lon="4.68664">
        <ele>543.3</ele>
        <time>2014-04-21T07:01:17Z</time>
      </trkpt>
      <trkpt lat="45.13778" lon="4.68659">
        <ele>543.3</ele>
        <time>2014-04-21T07:01:19Z</time>
      </trkpt>
      <trkpt lat="45.13774" lon="4.68655">
        <ele>543.3</ele>
        <time>2014-04-21T07:01:21Z</time>
      </trkpt>
      <trkpt lat="45.13771" lon="4.68651">
        <ele>543.5</ele>
        <time>2014-04-21T07:01:23Z</time>
      </trkpt>
      <trkpt lat="45.13766" lon="4.68648">
        <ele>543.9</ele>
        <time>2014-04-21T07:01:25Z</time>
      </trkpt>
      <trkpt lat="45.13762" lon="4.68645">
        <ele>544.3</ele>
        <time>2014-04-21T07:01:27Z</time>
      </trkpt>
      <trkpt lat="45.13758" lon="4.68642">
        <ele>544.8</ele>
        <time>2014-04-21T07:01:29Z</time>
      </trkpt>
      <trkpt lat="45.13753" lon="4.68638">
        <ele>545.3</ele>
        <time>2014-04-21T07:01:31Z</time>
      </trkpt>
      <trkpt lat="45.13748" lon="4.68634">
        <ele>545.7</ele>
        <time>2014-04-21T07:01:33Z</time>
      </trkpt>
      <trkpt lat="45.13742" lon="4.68631">
        <ele>545.9</ele>
        <time>2014-04-21T07:01:35Z</time>
      </trkpt>
      <trkpt lat="45.13737" lon="4.68629">
        <ele>546.1</ele>
        <time>2014-04-21T07:01:37Z</time>
      </trkpt>
      <trkpt lat="45.13732" lon="4.68626">
        <ele>546.3</ele>
        <time>2014-04-21T07:01:39Z</time>
      </trkpt>
      <trkpt lat="45.13728" lon="4.68624">
        <ele>546.4</ele>
        <time>2014-04-21T07:01:41Z</time>
      </trkpt>
      <trkpt lat="45.13722" lon="4.68621">
        <ele>546.6</ele>
        <time>2014-04-21T07:01:43Z</time>
      </trkpt>
      <trkpt lat="45.13717" lon="4.68618">
        <ele>546.9</ele>
        <time>2014-04-21T07:01:45Z</time>
      </trkpt>
      <trkpt lat="45.13711" lon="4.68615">
        <ele>547.1</ele>
        <time>2014-04-21T07:01:47Z</time>
      </trkpt>
      <trkpt lat="45.13706" lon="4.68612">
        <ele>547.3</ele>
        <time>2014-04-21T07:01:49Z</time>
      </trkpt>
      <trkpt lat="45.13701" lon="4.68609">
        <ele>547.5</ele>
        <time>2014-04-21T07:01:51Z</time>
      </trkpt>
      <trkpt lat="45.13697" lon="4.68606">
        <ele>547.7</ele>
        <time>2014-04-21T07:01:53Z</time>
      </trkpt>
      <trkpt lat="45.13692" lon="4.68603">
        <ele>547.9</ele>
        <time>2014-04-21T07:01:55Z</time>
      </trkpt>
      <trkpt lat="45.13688" lon="4.68601">
        <ele>548</ele>
        <time>2014-04-21T07:01:57Z</time>
      </trkpt>
      <trkpt lat="45.13682" lon="4.68598">
        <ele>548.3</ele>
        <time>2014-04-21T07:02:00Z</time>
      </trkpt>
      <trkpt lat="45.13676" lon="4.68593">
        <ele>548.6</ele>
        <time>2014-04-21T07:02:03Z</time>
      </trkpt>
      <trkpt lat="45.13671" lon="4.68589">
        <ele>548.8</ele>
        <time>2014-04-21T07:02:06Z</time>
      </trkpt>
      <trkpt lat="45.13666" lon="4.68587">
        <ele>549.1</ele>
        <time>2014-04-21T07:02:09Z</time>
      </trkpt>
      <trkpt lat="45.1366" lon="4.68586">
        <ele>549.4</ele>
        <time>2014-04-21T07:02:12Z</time>
      </trkpt>
      <trkpt lat="45.13655" lon="4.68584">
        <ele>549.7</ele>
        <time>2014-04-21T07:02:15Z</time>
      </trkpt>
      <trkpt lat="45.13644" lon="4.68579">
        <ele>550</ele>
        <time>2014-04-21T07:02:21Z</time>
      </trkpt>
      <trkpt lat="45.13638" lon="4.68576">
        <ele>550.1</ele>
        <time>2014-04-21T07:02:24Z</time>
      </trkpt>
      <trkpt lat="45.13633" lon="4.68572">
        <ele>550.1</ele>
        <time>2014-04-21T07:02:27Z</time>
      </trkpt>
      <trkpt lat="45.13627" lon="4.68568">
        <ele>550.1</ele>
        <time>2014-04-21T07:02:30Z</time>
      </trkpt>
      <trkpt lat="45.13622" lon="4.68566">
        <ele>550.2</ele>
        <time>2014-04-21T07:02:33Z</time>
      </trkpt>
      <trkpt lat="45.13617" lon="4.68563">
        <ele>550.3</ele>
        <time>2014-04-21T07:02:36Z</time>
      </trkpt>
      <trkpt lat="45.13612" lon="4.6856">
        <ele>550.4</ele>
        <time>2014-04-21T07:02:39Z</time>
      </trkpt>
      <trkpt lat="45.13608" lon="4.68556">
        <ele>550.4</ele>
        <time>2014-04-21T07:02:42Z</time>
      </trkpt>
      <trkpt lat="45.13601" lon="4.68552">
        <ele>550.4</ele>
        <time>2014-04-21T07:02:45Z</time>
      </trkpt>
      <trkpt lat="45.13596" lon="4.68549">
        <ele>550.3</ele>
        <time>2014-04-21T07:02:47Z</time>
      </trkpt>
      <trkpt lat="45.1359" lon="4.68545">
        <ele>550.3</ele>
        <time>2014-04-21T07:02:49Z</time>
      </trkpt>
      <trkpt lat="45.13585" lon="4.68542">
        <ele>550.4</ele>
        <time>2014-04-21T07:02:51Z</time>
      </trkpt>
      <trkpt lat="45.13579" lon="4.68539">
        <ele>550.6</ele>
        <time>2014-04-21T07:02:53Z</time>
      </trkpt>
      <trkpt lat="45.13573" lon="4.68535">
        <ele>551</ele>
        <time>2014-04-21T07:02:55Z</time>
      </trkpt>
      <trkpt lat="45.13567" lon="4.68532">
        <ele>551.3</ele>
        <time>2014-04-21T07:02:57Z</time>
      </trkpt>
      <trkpt lat="45.13562" lon="4.68528">
        <ele>551.5</ele>
        <time>2014-04-21T07:02:59Z</time>
      </trkpt>
      <trkpt lat="45.13557" lon="4.68523">
        <ele>551.8</ele>
        <time>2014-04-21T07:03:01Z</time>
      </trkpt>
      <trkpt lat="45.13552" lon="4.68519">
        <ele>552</ele>
        <time>2014-04-21T07:03:03Z</time>
      </trkpt>
      <trkpt lat="45.13547" lon="4.68515">
        <ele>552.3</ele>
        <time>2014-04-21T07:03:05Z</time>
      </trkpt>
      <trkpt lat="45.13541" lon="4.6851">
        <ele>552.6</ele>
        <time>2014-04-21T07:03:07Z</time>
      </trkpt>
      <trkpt lat="45.13536" lon="4.68504">
        <ele>552.9</ele>
        <time>2014-04-21T07:03:09Z</time>
      </trkpt>
      <trkpt lat="45.13532" lon="4.68498">
        <ele>553</ele>
        <time>2014-04-21T07:03:11Z</time>
      </trkpt>
      <trkpt lat="45.13527" lon="4.68491">
        <ele>553</ele>
        <time>2014-04-21T07:03:13Z</time>
      </trkpt>
      <trkpt lat="45.13523" lon="4.68485">
        <ele>553</ele>
        <time>2014-04-21T07:03:15Z</time>
      </trkpt>
      <trkpt lat="45.1352" lon="4.68478">
        <ele>553</ele>
        <time>2014-04-21T07:03:17Z</time>
      </trkpt>
      <trkpt lat="45.13513" lon="4.68465">
        <ele>553</ele>
        <time>2014-04-21T07:03:21Z</time>
      </trkpt>
      <trkpt lat="45.13509" lon="4.68459">
        <ele>553.1</ele>
        <time>2014-04-21T07:03:23Z</time>
      </trkpt>
      <trkpt lat="45.13505" lon="4.68452">
        <ele>553.3</ele>
        <time>2014-04-21T07:03:26Z</time>
      </trkpt>
      <trkpt lat="45.135" lon="4.68446">
        <ele>553.7</ele>
        <time>2014-04-21T07:03:29Z</time>
      </trkpt>
      <trkpt lat="45.13497" lon="4.68439">
        <ele>553.6</ele>
        <time>2014-04-21T07:03:32Z</time>
      </trkpt>
      <trkpt lat="45.13493" lon="4.68433">
        <ele>553.7</ele>
        <time>2014-04-21T07:03:35Z</time>
      </trkpt>
      <trkpt lat="45.13488" lon="4.68428">
        <ele>554</ele>
        <time>2014-04-21T07:03:38Z</time>
      </trkpt>
      <trkpt lat="45.13484" lon="4.68423">
        <ele>554.3</ele>
        <time>2014-04-21T07:03:41Z</time>
      </trkpt>
      <trkpt lat="45.1348" lon="4.68418">
        <ele>554.4</ele>
        <time>2014-04-21T07:03:44Z</time>
      </trkpt>
      <trkpt lat="45.13477" lon="4.68413">
        <ele>554.9</ele>
        <time>2014-04-21T07:03:47Z</time>
      </trkpt>
      <trkpt lat="45.13473" lon="4.68408">
        <ele>555.6</ele>
        <time>2014-04-21T07:03:50Z</time>
      </trkpt>
      <trkpt lat="45.13469" lon="4.68403">
        <ele>556.3</ele>
        <time>2014-04-21T07:03:53Z</time>
      </trkpt>
      <trkpt lat="45.13466" lon="4.68397">
        <ele>557</ele>
        <time>2014-04-21T07:03:56Z</time>
      </trkpt>
      <trkpt lat="45.13463" lon="4.68392">
        <ele>557.6</ele>
        <time>2014-04-21T07:03:59Z</time>
      </trkpt>
      <trkpt lat="45.13459" lon="4.68386">
        <ele>558.4</ele>
        <time>2014-04-21T07:04:02Z</time>
      </trkpt>
      <trkpt lat="45.13458" lon="4.68379">
        <ele>558.9</ele>
        <time>2014-04-21T07:04:05Z</time>
      </trkpt>
      <trkpt lat="45.1346" lon="4.68373">
        <ele>558.9</ele>
        <time>2014-04-21T07:04:10Z</time>
      </trkpt>
      <trkpt lat="45.13464" lon="4.68369">
        <ele>558.5</ele>
        <time>2014-04-21T07:04:13Z</time>
      </trkpt>
      <trkpt lat="45.13468" lon="4.68364">
        <ele>558.2</ele>
        <time>2014-04-21T07:04:16Z</time>
      </trkpt>
      <trkpt lat="45.13471" lon="4.68358">
        <ele>557.9</ele>
        <time>2014-04-21T07:04:19Z</time>
      </trkpt>
      <trkpt lat="45.13475" lon="4.68343">
        <ele>557.9</ele>
        <time>2014-04-21T07:04:25Z</time>
      </trkpt>
      <trkpt lat="45.13476" lon="4.68336">
        <ele>557.9</ele>
        <time>2014-04-21T07:04:28Z</time>
      </trkpt>
      <trkpt lat="45.13478" lon="4.68328">
        <ele>557.6</ele>
        <time>2014-04-21T07:04:31Z</time>
      </trkpt>
      <trkpt lat="45.1348" lon="4.6832">
        <ele>557.2</ele>
        <time>2014-04-21T07:04:34Z</time>
      </trkpt>
      <trkpt lat="45.13481" lon="4.68313">
        <ele>556.7</ele>
        <time>2014-04-21T07:04:37Z</time>
      </trkpt>
      <trkpt lat="45.13483" lon="4.68304">
        <ele>556.2</ele>
        <time>2014-04-21T07:04:40Z</time>
      </trkpt>
      <trkpt lat="45.13485" lon="4.68298">
        <ele>555.9</ele>
        <time>2014-04-21T07:04:42Z</time>
      </trkpt>
      <trkpt lat="45.13486" lon="4.68291">
        <ele>555.5</ele>
        <time>2014-04-21T07:04:44Z</time>
      </trkpt>
      <trkpt lat="45.13487" lon="4.68285">
        <ele>555.2</ele>
        <time>2014-04-21T07:04:46Z</time>
      </trkpt>
      <trkpt lat="45.13487" lon="4.68278">
        <ele>555</ele>
        <time>2014-04-21T07:04:48Z</time>
      </trkpt>
      <trkpt lat="45.13487" lon="4.68271">
        <ele>554.9</ele>
        <time>2014-04-21T07:04:50Z</time>
      </trkpt>
      <trkpt lat="45.13487" lon="4.68262">
        <ele>554.7</ele>
        <time>2014-04-21T07:04:52Z</time>
      </trkpt>
      <trkpt lat="45.13487" lon="4.68254">
        <ele>554.6</ele>
        <time>2014-04-21T07:04:54Z</time>
      </trkpt>
      <trkpt lat="45.13486" lon="4.68245">
        <ele>554.1</ele>
        <time>2014-04-21T07:04:56Z</time>
      </trkpt>
      <trkpt lat="45.13485" lon="4.68233">
        <ele>553.3</ele>
        <time>2014-04-21T07:04:58Z</time>
      </trkpt>
      <trkpt lat="45.13484" lon="4.6822">
        <ele>552.2</ele>
        <time>2014-04-21T07:05:00Z</time>
      </trkpt>
      <trkpt lat="45.13484" lon="4.68213">
        <ele>551.6</ele>
        <time>2014-04-21T07:05:01Z</time>
      </trkpt>
      <trkpt lat="45.13483" lon="4.68205">
        <ele>551</ele>
        <time>2014-04-21T07:05:02Z</time>
      </trkpt>
      <trkpt lat="45.13483" lon="4.68198">
        <ele>550.5</ele>
        <time>2014-04-21T07:05:03Z</time>
      </trkpt>
      <trkpt lat="45.13482" lon="4.68191">
        <ele>550</ele>
        <time>2014-04-21T07:05:04Z</time>
      </trkpt>
      <trkpt lat="45.13481" lon="4.68184">
        <ele>549.5</ele>
        <time>2014-04-21T07:05:05Z</time>
      </trkpt>
      <trkpt lat="45.1348" lon="4.68175">
        <ele>549</ele>
        <time>2014-04-21T07:05:06Z</time>
      </trkpt>
      <trkpt lat="45.13479" lon="4.68167">
        <ele>548.5</ele>
        <time>2014-04-21T07:05:07Z</time>
      </trkpt>
      <trkpt lat="45.13478" lon="4.68159">
        <ele>548.3</ele>
        <time>2014-04-21T07:05:08Z</time>
      </trkpt>
      <trkpt lat="45.13477" lon="4.68151">
        <ele>548</ele>
        <time>2014-04-21T07:05:09Z</time>
      </trkpt>
      <trkpt lat="45.13476" lon="4.68142">
        <ele>547.7</ele>
        <time>2014-04-21T07:05:10Z</time>
      </trkpt>
      <trkpt lat="45.13475" lon="4.68134">
        <ele>547.5</ele>
        <time>2014-04-21T07:05:11Z</time>
      </trkpt>
      <trkpt lat="45.13474" lon="4.68126">
        <ele>547.4</ele>
        <time>2014-04-21T07:05:12Z</time>
      </trkpt>
      <trkpt lat="45.13473" lon="4.68119">
        <ele>547.1</ele>
        <time>2014-04-21T07:05:13Z</time>
      </trkpt>
      <trkpt lat="45.13472" lon="4.68111">
        <ele>546.9</ele>
        <time>2014-04-21T07:05:14Z</time>
      </trkpt>
      <trkpt lat="45.13471" lon="4.68104">
        <ele>546.8</ele>
        <time>2014-04-21T07:05:15Z</time>
      </trkpt>
      <trkpt lat="45.1347" lon="4.68096">
        <ele>546.7</ele>
        <time>2014-04-21T07:05:16Z</time>
      </trkpt>
      <trkpt lat="45.13469" lon="4.68087">
        <ele>546.5</ele>
        <time>2014-04-21T07:05:17Z</time>
      </trkpt>
      <trkpt lat="45.13468" lon="4.68079">
        <ele>546.2</ele>
        <time>2014-04-21T07:05:18Z</time>
      </trkpt>
      <trkpt lat="45.13467" lon="4.68071">
        <ele>545.9</ele>
        <time>2014-04-21T07:05:19Z</time>
      </trkpt>
      <trkpt lat="45.13465" lon="4.68063">
        <ele>545.8</ele>
        <time>2014-04-21T07:05:20Z</time>
      </trkpt>
      <trkpt lat="45.13462" lon="4.68048">
        <ele>545.9</ele>
        <time>2014-04-21T07:05:22Z</time>
      </trkpt>
      <trkpt lat="45.1346" lon="4.68041">
        <ele>545.9</ele>
        <time>2014-04-21T07:05:23Z</time>
      </trkpt>
      <trkpt lat="45.13458" lon="4.68033">
        <ele>545.9</ele>
        <time>2014-04-21T07:05:24Z</time>
      </trkpt>
      <trkpt lat="45.13457" lon="4.68025">
        <ele>545.8</ele>
        <time>2014-04-21T07:05:25Z</time>
      </trkpt>
      <trkpt lat="45.13456" lon="4.68017">
        <ele>545.3</ele>
        <time>2014-04-21T07:05:26Z</time>
      </trkpt>
      <trkpt lat="45.13457" lon="4.68009">
        <ele>544.6</ele>
        <time>2014-04-21T07:05:27Z</time>
      </trkpt>
      <trkpt lat="45.13457" lon="4.68001">
        <ele>543.8</ele>
        <time>2014-04-21T07:05:28Z</time>
      </trkpt>
      <trkpt lat="45.13458" lon="4.67992">
        <ele>542.9</ele>
        <time>2014-04-21T07:05:29Z</time>
      </trkpt>
      <trkpt lat="45.13457" lon="4.67984">
        <ele>542</ele>
        <time>2014-04-21T07:05:30Z</time>
      </trkpt>
      <trkpt lat="45.13456" lon="4.67975">
        <ele>541.4</ele>
        <time>2014-04-21T07:05:31Z</time>
      </trkpt>
      <trkpt lat="45.13456" lon="4.67967">
        <ele>540.6</ele>
        <time>2014-04-21T07:05:32Z</time>
      </trkpt>
      <trkpt lat="45.13456" lon="4.67959">
        <ele>539.8</ele>
        <time>2014-04-21T07:05:33Z</time>
      </trkpt>
      <trkpt lat="45.13455" lon="4.67949">
        <ele>538.9</ele>
        <time>2014-04-21T07:05:34Z</time>
      </trkpt>
      <trkpt lat="45.13455" lon="4.67941">
        <ele>538.2</ele>
        <time>2014-04-21T07:05:35Z</time>
      </trkpt>
      <trkpt lat="45.13453" lon="4.67935">
        <ele>537.8</ele>
        <time>2014-04-21T07:05:36Z</time>
      </trkpt>
      <trkpt lat="45.1345" lon="4.67925">
        <ele>537.9</ele>
        <time>2014-04-21T07:05:38Z</time>
      </trkpt>
      <trkpt lat="45.13445" lon="4.67922">
        <ele>539.1</ele>
        <time>2014-04-21T07:05:40Z</time>
      </trkpt>
      <trkpt lat="45.13439" lon="4.67923">
        <ele>541</ele>
        <time>2014-04-21T07:05:42Z</time>
      </trkpt>
      <trkpt lat="45.13434" lon="4.67926">
        <ele>543</ele>
        <time>2014-04-21T07:05:44Z</time>
      </trkpt>
      <trkpt lat="45.13428" lon="4.67931">
        <ele>545.3</ele>
        <time>2014-04-21T07:05:46Z</time>
      </trkpt>
      <trkpt lat="45.13421" lon="4.67936">
        <ele>548.1</ele>
        <time>2014-04-21T07:05:48Z</time>
      </trkpt>
      <trkpt lat="45.13413" lon="4.67939">
        <ele>549.9</ele>
        <time>2014-04-21T07:05:50Z</time>
      </trkpt>
      <trkpt lat="45.13405" lon="4.67935">
        <ele>549.9</ele>
        <time>2014-04-21T07:05:52Z</time>
      </trkpt>
      <trkpt lat="45.134" lon="4.67932">
        <ele>549.9</ele>
        <time>2014-04-21T07:05:53Z</time>
      </trkpt>
      <trkpt lat="45.13396" lon="4.67928">
        <ele>549.7</ele>
        <time>2014-04-21T07:05:54Z</time>
      </trkpt>
      <trkpt lat="45.13392" lon="4.67924">
        <ele>549.4</ele>
        <time>2014-04-21T07:05:55Z</time>
      </trkpt>
      <trkpt lat="45.13387" lon="4.6792">
        <ele>549.1</ele>
        <time>2014-04-21T07:05:56Z</time>
      </trkpt>
      <trkpt lat="45.13383" lon="4.67915">
        <ele>548.7</ele>
        <time>2014-04-21T07:05:57Z</time>
      </trkpt>
      <trkpt lat="45.13378" lon="4.6791">
        <ele>547.9</ele>
        <time>2014-04-21T07:05:58Z</time>
      </trkpt>
      <trkpt lat="45.13373" lon="4.67905">
        <ele>546.7</ele>
        <time>2014-04-21T07:05:59Z</time>
      </trkpt>
      <trkpt lat="45.13368" lon="4.67899">
        <ele>545.7</ele>
        <time>2014-04-21T07:06:00Z</time>
      </trkpt>
      <trkpt lat="45.13363" lon="4.67893">
        <ele>544.4</ele>
        <time>2014-04-21T07:06:01Z</time>
      </trkpt>
      <trkpt lat="45.13359" lon="4.67887">
        <ele>543.3</ele>
        <time>2014-04-21T07:06:02Z</time>
      </trkpt>
      <trkpt lat="45.13354" lon="4.6788">
        <ele>541.9</ele>
        <time>2014-04-21T07:06:03Z</time>
      </trkpt>
      <trkpt lat="45.1335" lon="4.67875">
        <ele>540.4</ele>
        <time>2014-04-21T07:06:04Z</time>
      </trkpt>
      <trkpt lat="45.13345" lon="4.67869">
        <ele>539.1</ele>
        <time>2014-04-21T07:06:05Z</time>
      </trkpt>
      <trkpt lat="45.1334" lon="4.67864">
        <ele>537.9</ele>
        <time>2014-04-21T07:06:06Z</time>
      </trkpt>
      <trkpt lat="45.13334" lon="4.67858">
        <ele>536.5</ele>
        <time>2014-04-21T07:06:07Z</time>
      </trkpt>
      <trkpt lat="45.13328" lon="4.67853">
        <ele>535.6</ele>
        <time>2014-04-21T07:06:08Z</time>
      </trkpt>
      <trkpt lat="45.13322" lon="4.67847">
        <ele>534.4</ele>
        <time>2014-04-21T07:06:09Z</time>
      </trkpt>
      <trkpt lat="45.13317" lon="4.67839">
        <ele>532.6</ele>
        <time>2014-04-21T07:06:10Z</time>
      </trkpt>
      <trkpt lat="45.13313" lon="4.67832">
        <ele>530.9</ele>
        <time>2014-04-21T07:06:11Z</time>
      </trkpt>
      <trkpt lat="45.13309" lon="4.67824">
        <ele>529.3</ele>
        <time>2014-04-21T07:06:12Z</time>
      </trkpt>
      <trkpt lat="45.13305" lon="4.67816">
        <ele>527.8</ele>
        <time>2014-04-21T07:06:13Z</time>
      </trkpt>
      <trkpt lat="45.13302" lon="4.67808">
        <ele>526.3</ele>
        <time>2014-04-21T07:06:14Z</time>
      </trkpt>
      <trkpt lat="45.13298" lon="4.67801">
        <ele>524.8</ele>
        <time>2014-04-21T07:06:15Z</time>
      </trkpt>
      <trkpt lat="45.13296" lon="4.67793">
        <ele>523.6</ele>
        <time>2014-04-21T07:06:16Z</time>
      </trkpt>
      <trkpt lat="45.13293" lon="4.67785">
        <ele>522.2</ele>
        <time>2014-04-21T07:06:17Z</time>
      </trkpt>
      <trkpt lat="45.13291" lon="4.67777">
        <ele>520.3</ele>
        <time>2014-04-21T07:06:18Z</time>
      </trkpt>
      <trkpt lat="45.1329" lon="4.67769">
        <ele>518.7</ele>
        <time>2014-04-21T07:06:19Z</time>
      </trkpt>
      <trkpt lat="45.13289" lon="4.67761">
        <ele>517.2</ele>
        <time>2014-04-21T07:06:20Z</time>
      </trkpt>
      <trkpt lat="45.13288" lon="4.67754">
        <ele>515.9</ele>
        <time>2014-04-21T07:06:21Z</time>
      </trkpt>
      <trkpt lat="45.13287" lon="4.67733">
        <ele>513</ele>
        <time>2014-04-21T07:06:25Z</time>
      </trkpt>
      <trkpt lat="45.13286" lon="4.67723">
        <ele>511.8</ele>
        <time>2014-04-21T07:06:27Z</time>
      </trkpt>
      <trkpt lat="45.13283" lon="4.67711">
        <ele>510.8</ele>
        <time>2014-04-21T07:06:29Z</time>
      </trkpt>
      <trkpt lat="45.1328" lon="4.67698">
        <ele>509.8</ele>
        <time>2014-04-21T07:06:31Z</time>
      </trkpt>
      <trkpt lat="45.13278" lon="4.67691">
        <ele>509.4</ele>
        <time>2014-04-21T07:06:32Z</time>
      </trkpt>
      <trkpt lat="45.13275" lon="4.67684">
        <ele>509.3</ele>
        <time>2014-04-21T07:06:33Z</time>
      </trkpt>
      <trkpt lat="45.13271" lon="4.67677">
        <ele>509.2</ele>
        <time>2014-04-21T07:06:34Z</time>
      </trkpt>
      <trkpt lat="45.13268" lon="4.67669">
        <ele>509.1</ele>
        <time>2014-04-21T07:06:35Z</time>
      </trkpt>
      <trkpt lat="45.13265" lon="4.67661">
        <ele>508.9</ele>
        <time>2014-04-21T07:06:36Z</time>
      </trkpt>
      <trkpt lat="45.13261" lon="4.67653">
        <ele>509.1</ele>
        <time>2014-04-21T07:06:37Z</time>
      </trkpt>
      <trkpt lat="45.13257" lon="4.67647">
        <ele>509.5</ele>
        <time>2014-04-21T07:06:38Z</time>
      </trkpt>
      <trkpt lat="45.13253" lon="4.67645">
        <ele>510.3</ele>
        <time>2014-04-21T07:06:39Z</time>
      </trkpt>
      <trkpt lat="45.13247" lon="4.67642">
        <ele>510.9</ele>
        <time>2014-04-21T07:06:40Z</time>
      </trkpt>
      <trkpt lat="45.13241" lon="4.67641">
        <ele>511.5</ele>
        <time>2014-04-21T07:06:41Z</time>
      </trkpt>
      <trkpt lat="45.13234" lon="4.6764">
        <ele>512</ele>
        <time>2014-04-21T07:06:42Z</time>
      </trkpt>
      <trkpt lat="45.13228" lon="4.67639">
        <ele>512.5</ele>
        <time>2014-04-21T07:06:43Z</time>
      </trkpt>
      <trkpt lat="45.13221" lon="4.67638">
        <ele>513.2</ele>
        <time>2014-04-21T07:06:44Z</time>
      </trkpt>
      <trkpt lat="45.13215" lon="4.6764">
        <ele>514.1</ele>
        <time>2014-04-21T07:06:45Z</time>
      </trkpt>
      <trkpt lat="45.13208" lon="4.67641">
        <ele>514.9</ele>
        <time>2014-04-21T07:06:46Z</time>
      </trkpt>
      <trkpt lat="45.13201" lon="4.67642">
        <ele>515.9</ele>
        <time>2014-04-21T07:06:47Z</time>
      </trkpt>
      <trkpt lat="45.13194" lon="4.67644">
        <ele>516.8</ele>
        <time>2014-04-21T07:06:48Z</time>
      </trkpt>
      <trkpt lat="45.13188" lon="4.67646">
        <ele>517.9</ele>
        <time>2014-04-21T07:06:49Z</time>
      </trkpt>
      <trkpt lat="45.13181" lon="4.67647">
        <ele>518.6</ele>
        <time>2014-04-21T07:06:50Z</time>
      </trkpt>
      <trkpt lat="45.13175" lon="4.67647">
        <ele>519.6</ele>
        <time>2014-04-21T07:06:51Z</time>
      </trkpt>
      <trkpt lat="45.13168" lon="4.67647">
        <ele>520.3</ele>
        <time>2014-04-21T07:06:52Z</time>
      </trkpt>
      <trkpt lat="45.13161" lon="4.67648">
        <ele>520.5</ele>
        <time>2014-04-21T07:06:53Z</time>
      </trkpt>
      <trkpt lat="45.13155" lon="4.67647">
        <ele>520.6</ele>
        <time>2014-04-21T07:06:54Z</time>
      </trkpt>
      <trkpt lat="45.13148" lon="4.67647">
        <ele>520.5</ele>
        <time>2014-04-21T07:06:55Z</time>
      </trkpt>
      <trkpt lat="45.13142" lon="4.67645">
        <ele>520.3</ele>
        <time>2014-04-21T07:06:56Z</time>
      </trkpt>
      <trkpt lat="45.13138" lon="4.67643">
        <ele>520</ele>
        <time>2014-04-21T07:06:57Z</time>
      </trkpt>
      <trkpt lat="45.13133" lon="4.6764">
        <ele>519.7</ele>
        <time>2014-04-21T07:06:58Z</time>
      </trkpt>
      <trkpt lat="45.13126" lon="4.67635">
        <ele>519.4</ele>
        <time>2014-04-21T07:07:00Z</time>
      </trkpt>
      <trkpt lat="45.13118" lon="4.67629">
        <ele>518.7</ele>
        <time>2014-04-21T07:07:02Z</time>
      </trkpt>
      <trkpt lat="45.13115" lon="4.67624">
        <ele>518.2</ele>
        <time>2014-04-21T07:07:03Z</time>
      </trkpt>
      <trkpt lat="45.13114" lon="4.67614">
        <ele>517</ele>
        <time>2014-04-21T07:07:05Z</time>
      </trkpt>
      <trkpt lat="45.13117" lon="4.67608">
        <ele>516.1</ele>
        <time>2014-04-21T07:07:07Z</time>
      </trkpt>
      <trkpt lat="45.1312" lon="4.67601">
        <ele>515.1</ele>
        <time>2014-04-21T07:07:09Z</time>
      </trkpt>
      <trkpt lat="45.13122" lon="4.67595">
        <ele>514.1</ele>
        <time>2014-04-21T07:07:11Z</time>
      </trkpt>
      <trkpt lat="45.13124" lon="4.67589">
        <ele>513.3</ele>
        <time>2014-04-21T07:07:13Z</time>
      </trkpt>
      <trkpt lat="45.13127" lon="4.67584">
        <ele>512.4</ele>
        <time>2014-04-21T07:07:15Z</time>
      </trkpt>
      <trkpt lat="45.13129" lon="4.67578">
        <ele>511.8</ele>
        <time>2014-04-21T07:07:17Z</time>
      </trkpt>
      <trkpt lat="45.13131" lon="4.67572">
        <ele>511</ele>
        <time>2014-04-21T07:07:19Z</time>
      </trkpt>
      <trkpt lat="45.13134" lon="4.67565">
        <ele>510.3</ele>
        <time>2014-04-21T07:07:21Z</time>
      </trkpt>
      <trkpt lat="45.13137" lon="4.67558">
        <ele>509.2</ele>
        <time>2014-04-21T07:07:23Z</time>
      </trkpt>
      <trkpt lat="45.13141" lon="4.67544">
        <ele>507.3</ele>
        <time>2014-04-21T07:07:27Z</time>
      </trkpt>
      <trkpt lat="45.13143" lon="4.67537">
        <ele>506.3</ele>
        <time>2014-04-21T07:07:29Z</time>
      </trkpt>
      <trkpt lat="45.13146" lon="4.67531">
        <ele>505.1</ele>
        <time>2014-04-21T07:07:31Z</time>
      </trkpt>
      <trkpt lat="45.1315" lon="4.67524">
        <ele>503.7</ele>
        <time>2014-04-21T07:07:33Z</time>
      </trkpt>
      <trkpt lat="45.13153" lon="4.67518">
        <ele>502.4</ele>
        <time>2014-04-21T07:07:35Z</time>
      </trkpt>
      <trkpt lat="45.13156" lon="4.67514">
        <ele>501.1</ele>
        <time>2014-04-21T07:07:37Z</time>
      </trkpt>
      <trkpt lat="45.1316" lon="4.67509">
        <ele>499.7</ele>
        <time>2014-04-21T07:07:39Z</time>
      </trkpt>
      <trkpt lat="45.13165" lon="4.67501">
        <ele>497.5</ele>
        <time>2014-04-21T07:07:42Z</time>
      </trkpt>
      <trkpt lat="45.13168" lon="4.67495">
        <ele>497.3</ele>
        <time>2014-04-21T07:07:44Z</time>
      </trkpt>
      <trkpt lat="45.13171" lon="4.6749">
        <ele>497.5</ele>
        <time>2014-04-21T07:07:46Z</time>
      </trkpt>
      <trkpt lat="45.13172" lon="4.67481">
        <ele>498</ele>
        <time>2014-04-21T07:07:49Z</time>
      </trkpt>
      <trkpt lat="45.13174" lon="4.67472">
        <ele>498.4</ele>
        <time>2014-04-21T07:07:52Z</time>
      </trkpt>
      <trkpt lat="45.13176" lon="4.67466">
        <ele>498.5</ele>
        <time>2014-04-21T07:07:54Z</time>
      </trkpt>
      <trkpt lat="45.13181" lon="4.6746">
        <ele>498.1</ele>
        <time>2014-04-21T07:07:57Z</time>
      </trkpt>
      <trkpt lat="45.13183" lon="4.67453">
        <ele>498</ele>
        <time>2014-04-21T07:08:00Z</time>
      </trkpt>
      <trkpt lat="45.13187" lon="4.67444">
        <ele>497.6</ele>
        <time>2014-04-21T07:08:03Z</time>
      </trkpt>
      <trkpt lat="45.1319" lon="4.67437">
        <ele>497.3</ele>
        <time>2014-04-21T07:08:07Z</time>
      </trkpt>
      <trkpt lat="45.13192" lon="4.67431">
        <ele>496.9</ele>
        <time>2014-04-21T07:08:10Z</time>
      </trkpt>
      <trkpt lat="45.13195" lon="4.67425">
        <ele>496.5</ele>
        <time>2014-04-21T07:08:13Z</time>
      </trkpt>
      <trkpt lat="45.13197" lon="4.67418">
        <ele>495.9</ele>
        <time>2014-04-21T07:08:16Z</time>
      </trkpt>
      <trkpt lat="45.132" lon="4.6741">
        <ele>495.7</ele>
        <time>2014-04-21T07:08:19Z</time>
      </trkpt>
      <trkpt lat="45.13203" lon="4.67403">
        <ele>495.6</ele>
        <time>2014-04-21T07:08:22Z</time>
      </trkpt>
      <trkpt lat="45.13206" lon="4.67398">
        <ele>495.1</ele>
        <time>2014-04-21T07:08:25Z</time>
      </trkpt>
      <trkpt lat="45.13214" lon="4.67389">
        <ele>493.6</ele>
        <time>2014-04-21T07:08:31Z</time>
      </trkpt>
      <trkpt lat="45.13218" lon="4.67385">
        <ele>492.6</ele>
        <time>2014-04-21T07:08:33Z</time>
      </trkpt>
      <trkpt lat="45.13221" lon="4.6738">
        <ele>492.4</ele>
        <time>2014-04-21T07:08:35Z</time>
      </trkpt>
      <trkpt lat="45.13224" lon="4.67374">
        <ele>491.9</ele>
        <time>2014-04-21T07:08:37Z</time>
      </trkpt>
      <trkpt lat="45.13226" lon="4.67368">
        <ele>491.7</ele>
        <time>2014-04-21T07:08:39Z</time>
      </trkpt>
      <trkpt lat="45.13229" lon="4.67359">
        <ele>491.4</ele>
        <time>2014-04-21T07:08:41Z</time>
      </trkpt>
      <trkpt lat="45.13233" lon="4.67349">
        <ele>490.9</ele>
        <time>2014-04-21T07:08:43Z</time>
      </trkpt>
      <trkpt lat="45.13235" lon="4.67342">
        <ele>491</ele>
        <time>2014-04-21T07:08:44Z</time>
      </trkpt>
      <trkpt lat="45.13236" lon="4.67335">
        <ele>491</ele>
        <time>2014-04-21T07:08:45Z</time>
      </trkpt>
      <trkpt lat="45.13238" lon="4.67329">
        <ele>490.7</ele>
        <time>2014-04-21T07:08:46Z</time>
      </trkpt>
      <trkpt lat="45.13241" lon="4.67322">
        <ele>489.9</ele>
        <time>2014-04-21T07:08:47Z</time>
      </trkpt>
      <trkpt lat="45.13244" lon="4.67314">
        <ele>489.4</ele>
        <time>2014-04-21T07:08:48Z</time>
      </trkpt>
      <trkpt lat="45.13248" lon="4.67307">
        <ele>488.6</ele>
        <time>2014-04-21T07:08:49Z</time>
      </trkpt>
      <trkpt lat="45.13252" lon="4.67299">
        <ele>488</ele>
        <time>2014-04-21T07:08:50Z</time>
      </trkpt>
      <trkpt lat="45.13256" lon="4.6729">
        <ele>487.4</ele>
        <time>2014-04-21T07:08:51Z</time>
      </trkpt>
      <trkpt lat="45.1326" lon="4.67281">
        <ele>487.1</ele>
        <time>2014-04-21T07:08:52Z</time>
      </trkpt>
      <trkpt lat="45.13265" lon="4.67271">
        <ele>486.8</ele>
        <time>2014-04-21T07:08:53Z</time>
      </trkpt>
      <trkpt lat="45.13269" lon="4.67262">
        <ele>486.4</ele>
        <time>2014-04-21T07:08:54Z</time>
      </trkpt>
      <trkpt lat="45.13274" lon="4.67253">
        <ele>486.2</ele>
        <time>2014-04-21T07:08:55Z</time>
      </trkpt>
      <trkpt lat="45.13277" lon="4.67243">
        <ele>485.9</ele>
        <time>2014-04-21T07:08:56Z</time>
      </trkpt>
      <trkpt lat="45.1328" lon="4.67234">
        <ele>485.7</ele>
        <time>2014-04-21T07:08:57Z</time>
      </trkpt>
      <trkpt lat="45.13283" lon="4.67223">
        <ele>485.6</ele>
        <time>2014-04-21T07:08:58Z</time>
      </trkpt>
      <trkpt lat="45.13287" lon="4.67215">
        <ele>485.3</ele>
        <time>2014-04-21T07:08:59Z</time>
      </trkpt>
      <trkpt lat="45.13293" lon="4.67207">
        <ele>484.9</ele>
        <time>2014-04-21T07:09:00Z</time>
      </trkpt>
      <trkpt lat="45.133" lon="4.672">
        <ele>484.5</ele>
        <time>2014-04-21T07:09:01Z</time>
      </trkpt>
      <trkpt lat="45.13306" lon="4.67195">
        <ele>484.2</ele>
        <time>2014-04-21T07:09:02Z</time>
      </trkpt>
      <trkpt lat="45.13313" lon="4.67188">
        <ele>484</ele>
        <time>2014-04-21T07:09:03Z</time>
      </trkpt>
      <trkpt lat="45.13319" lon="4.67181">
        <ele>483.9</ele>
        <time>2014-04-21T07:09:04Z</time>
      </trkpt>
      <trkpt lat="45.13324" lon="4.67174">
        <ele>484</ele>
        <time>2014-04-21T07:09:05Z</time>
      </trkpt>
      <trkpt lat="45.13329" lon="4.67165">
        <ele>484.2</ele>
        <time>2014-04-21T07:09:06Z</time>
      </trkpt>
      <trkpt lat="45.13335" lon="4.67155">
        <ele>483.5</ele>
        <time>2014-04-21T07:09:07Z</time>
      </trkpt>
      <trkpt lat="45.13341" lon="4.67148">
        <ele>482.3</ele>
        <time>2014-04-21T07:09:08Z</time>
      </trkpt>
      <trkpt lat="45.13347" lon="4.67143">
        <ele>481</ele>
        <time>2014-04-21T07:09:09Z</time>
      </trkpt>
      <trkpt lat="45.13354" lon="4.6714">
        <ele>479.7</ele>
        <time>2014-04-21T07:09:10Z</time>
      </trkpt>
      <trkpt lat="45.13362" lon="4.6714">
        <ele>478.5</ele>
        <time>2014-04-21T07:09:11Z</time>
      </trkpt>
      <trkpt lat="45.13369" lon="4.67142">
        <ele>477.4</ele>
        <time>2014-04-21T07:09:12Z</time>
      </trkpt>
      <trkpt lat="45.13375" lon="4.67145">
        <ele>476.3</ele>
        <time>2014-04-21T07:09:13Z</time>
      </trkpt>
      <trkpt lat="45.13381" lon="4.67149">
        <ele>475.4</ele>
        <time>2014-04-21T07:09:14Z</time>
      </trkpt>
      <trkpt lat="45.13388" lon="4.67154">
        <ele>474.4</ele>
        <time>2014-04-21T07:09:15Z</time>
      </trkpt>
      <trkpt lat="45.13394" lon="4.6716">
        <ele>473.5</ele>
        <time>2014-04-21T07:09:16Z</time>
      </trkpt>
      <trkpt lat="45.134" lon="4.67167">
        <ele>472.7</ele>
        <time>2014-04-21T07:09:17Z</time>
      </trkpt>
      <trkpt lat="45.13406" lon="4.67174">
        <ele>471.3</ele>
        <time>2014-04-21T07:09:18Z</time>
      </trkpt>
      <trkpt lat="45.13413" lon="4.67181">
        <ele>469.9</ele>
        <time>2014-04-21T07:09:19Z</time>
      </trkpt>
      <trkpt lat="45.1342" lon="4.67187">
        <ele>467.8</ele>
        <time>2014-04-21T07:09:20Z</time>
      </trkpt>
      <trkpt lat="45.13427" lon="4.67192">
        <ele>465</ele>
        <time>2014-04-21T07:09:21Z</time>
      </trkpt>
      <trkpt lat="45.13434" lon="4.67195">
        <ele>462.5</ele>
        <time>2014-04-21T07:09:22Z</time>
      </trkpt>
      <trkpt lat="45.13441" lon="4.67197">
        <ele>460.2</ele>
        <time>2014-04-21T07:09:23Z</time>
      </trkpt>
      <trkpt lat="45.13448" lon="4.67199">
        <ele>458.2</ele>
        <time>2014-04-21T07:09:24Z</time>
      </trkpt>
      <trkpt lat="45.13454" lon="4.672">
        <ele>456.1</ele>
        <time>2014-04-21T07:09:25Z</time>
      </trkpt>
      <trkpt lat="45.1346" lon="4.672">
        <ele>454.1</ele>
        <time>2014-04-21T07:09:26Z</time>
      </trkpt>
      <trkpt lat="45.13473" lon="4.67196">
        <ele>450</ele>
        <time>2014-04-21T07:09:28Z</time>
      </trkpt>
      <trkpt lat="45.13479" lon="4.67194">
        <ele>447.9</ele>
        <time>2014-04-21T07:09:29Z</time>
      </trkpt>
      <trkpt lat="45.13485" lon="4.67191">
        <ele>445.8</ele>
        <time>2014-04-21T07:09:30Z</time>
      </trkpt>
      <trkpt lat="45.13491" lon="4.67187">
        <ele>443.5</ele>
        <time>2014-04-21T07:09:31Z</time>
      </trkpt>
      <trkpt lat="45.13496" lon="4.67183">
        <ele>441.4</ele>
        <time>2014-04-21T07:09:32Z</time>
      </trkpt>
      <trkpt lat="45.13501" lon="4.67179">
        <ele>439.7</ele>
        <time>2014-04-21T07:09:33Z</time>
      </trkpt>
      <trkpt lat="45.13504" lon="4.67174">
        <ele>438.7</ele>
        <time>2014-04-21T07:09:34Z</time>
      </trkpt>
      <trkpt lat="45.13507" lon="4.67168">
        <ele>437.9</ele>
        <time>2014-04-21T07:09:35Z</time>
      </trkpt>
      <trkpt lat="45.13509" lon="4.67162">
        <ele>437.8</ele>
        <time>2014-04-21T07:09:36Z</time>
      </trkpt>
      <trkpt lat="45.13511" lon="4.67155">
        <ele>437.7</ele>
        <time>2014-04-21T07:09:37Z</time>
      </trkpt>
      <trkpt lat="45.13514" lon="4.67147">
        <ele>437.9</ele>
        <time>2014-04-21T07:09:38Z</time>
      </trkpt>
      <trkpt lat="45.13516" lon="4.67139">
        <ele>437.9</ele>
        <time>2014-04-21T07:09:39Z</time>
      </trkpt>
      <trkpt lat="45.13518" lon="4.6713">
        <ele>438.1</ele>
        <time>2014-04-21T07:09:40Z</time>
      </trkpt>
      <trkpt lat="45.1352" lon="4.67122">
        <ele>438.3</ele>
        <time>2014-04-21T07:09:41Z</time>
      </trkpt>
      <trkpt lat="45.13521" lon="4.67114">
        <ele>438.6</ele>
        <time>2014-04-21T07:09:42Z</time>
      </trkpt>
      <trkpt lat="45.13523" lon="4.67107">
        <ele>438.7</ele>
        <time>2014-04-21T07:09:43Z</time>
      </trkpt>
      <trkpt lat="45.13524" lon="4.671">
        <ele>438.8</ele>
        <time>2014-04-21T07:09:44Z</time>
      </trkpt>
      <trkpt lat="45.13524" lon="4.67093">
        <ele>439.2</ele>
        <time>2014-04-21T07:09:45Z</time>
      </trkpt>
      <trkpt lat="45.13524" lon="4.67086">
        <ele>439.6</ele>
        <time>2014-04-21T07:09:46Z</time>
      </trkpt>
      <trkpt lat="45.13523" lon="4.67079">
        <ele>439.7</ele>
        <time>2014-04-21T07:09:47Z</time>
      </trkpt>
      <trkpt lat="45.13523" lon="4.67071">
        <ele>439.5</ele>
        <time>2014-04-21T07:09:48Z</time>
      </trkpt>
      <trkpt lat="45.13521" lon="4.67064">
        <ele>439.2</ele>
        <time>2014-04-21T07:09:49Z</time>
      </trkpt>
      <trkpt lat="45.1352" lon="4.67056">
        <ele>439.3</ele>
        <time>2014-04-21T07:09:50Z</time>
      </trkpt>
      <trkpt lat="45.13516" lon="4.67051">
        <ele>439.8</ele>
        <time>2014-04-21T07:09:51Z</time>
      </trkpt>
      <trkpt lat="45.13512" lon="4.67045">
        <ele>440.2</ele>
        <time>2014-04-21T07:09:52Z</time>
      </trkpt>
      <trkpt lat="45.13507" lon="4.6704">
        <ele>440.9</ele>
        <time>2014-04-21T07:09:53Z</time>
      </trkpt>
      <trkpt lat="45.13501" lon="4.67034">
        <ele>441.9</ele>
        <time>2014-04-21T07:09:54Z</time>
      </trkpt>
      <trkpt lat="45.13495" lon="4.67027">
        <ele>442.5</ele>
        <time>2014-04-21T07:09:55Z</time>
      </trkpt>
      <trkpt lat="45.1349" lon="4.67022">
        <ele>442.8</ele>
        <time>2014-04-21T07:09:56Z</time>
      </trkpt>
      <trkpt lat="45.13485" lon="4.67016">
        <ele>443.2</ele>
        <time>2014-04-21T07:09:57Z</time>
      </trkpt>
      <trkpt lat="45.13481" lon="4.67011">
        <ele>443.5</ele>
        <time>2014-04-21T07:09:58Z</time>
      </trkpt>
      <trkpt lat="45.13477" lon="4.67007">
        <ele>443.7</ele>
        <time>2014-04-21T07:09:59Z</time>
      </trkpt>
      <trkpt lat="45.13471" lon="4.67001">
        <ele>443.9</ele>
        <time>2014-04-21T07:10:00Z</time>
      </trkpt>
      <trkpt lat="45.13466" lon="4.66995">
        <ele>443.6</ele>
        <time>2014-04-21T07:10:01Z</time>
      </trkpt>
      <trkpt lat="45.13461" lon="4.66988">
        <ele>443</ele>
        <time>2014-04-21T07:10:02Z</time>
      </trkpt>
      <trkpt lat="45.13456" lon="4.66979">
        <ele>442.4</ele>
        <time>2014-04-21T07:10:03Z</time>
      </trkpt>
      <trkpt lat="45.13452" lon="4.66971">
        <ele>441.6</ele>
        <time>2014-04-21T07:10:04Z</time>
      </trkpt>
      <trkpt lat="45.13449" lon="4.66964">
        <ele>440.7</ele>
        <time>2014-04-21T07:10:05Z</time>
      </trkpt>
      <trkpt lat="45.13445" lon="4.66957">
        <ele>439.8</ele>
        <time>2014-04-21T07:10:06Z</time>
      </trkpt>
      <trkpt lat="45.13442" lon="4.66949">
        <ele>439.1</ele>
        <time>2014-04-21T07:10:07Z</time>
      </trkpt>
      <trkpt lat="45.13437" lon="4.66942">
        <ele>438.3</ele>
        <time>2014-04-21T07:10:08Z</time>
      </trkpt>
      <trkpt lat="45.13431" lon="4.66935">
        <ele>437.8</ele>
        <time>2014-04-21T07:10:09Z</time>
      </trkpt>
      <trkpt lat="45.13426" lon="4.66929">
        <ele>437.2</ele>
        <time>2014-04-21T07:10:10Z</time>
      </trkpt>
      <trkpt lat="45.13421" lon="4.66922">
        <ele>436.5</ele>
        <time>2014-04-21T07:10:11Z</time>
      </trkpt>
      <trkpt lat="45.13418" lon="4.66914">
        <ele>435.9</ele>
        <time>2014-04-21T07:10:12Z</time>
      </trkpt>
      <trkpt lat="45.13415" lon="4.66907">
        <ele>436.4</ele>
        <time>2014-04-21T07:10:13Z</time>
      </trkpt>
      <trkpt lat="45.13415" lon="4.669">
        <ele>436.5</ele>
        <time>2014-04-21T07:10:14Z</time>
      </trkpt>
      <trkpt lat="45.13413" lon="4.66889">
        <ele>436.8</ele>
        <time>2014-04-21T07:10:16Z</time>
      </trkpt>
      <trkpt lat="45.1341" lon="4.66882">
        <ele>437.4</ele>
        <time>2014-04-21T07:10:18Z</time>
      </trkpt>
      <trkpt lat="45.13406" lon="4.66877">
        <ele>437.9</ele>
        <time>2014-04-21T07:10:20Z</time>
      </trkpt>
      <trkpt lat="45.13401" lon="4.66871">
        <ele>438.4</ele>
        <time>2014-04-21T07:10:23Z</time>
      </trkpt>
      <trkpt lat="45.13396" lon="4.66865">
        <ele>438.9</ele>
        <time>2014-04-21T07:10:26Z</time>
      </trkpt>
      <trkpt lat="45.1339" lon="4.66859">
        <ele>439.3</ele>
        <time>2014-04-21T07:10:29Z</time>
      </trkpt>
      <trkpt lat="45.13381" lon="4.66847">
        <ele>439.5</ele>
        <time>2014-04-21T07:10:33Z</time>
      </trkpt>
      <trkpt lat="45.13379" lon="4.66837">
        <ele>438.9</ele>
        <time>2014-04-21T07:10:35Z</time>
      </trkpt>
      <trkpt lat="45.13377" lon="4.6683">
        <ele>439.2</ele>
        <time>2014-04-21T07:10:37Z</time>
      </trkpt>
      <trkpt lat="45.13374" lon="4.66824">
        <ele>439.7</ele>
        <time>2014-04-21T07:10:39Z</time>
      </trkpt>
      <trkpt lat="45.13371" lon="4.66815">
        <ele>440.2</ele>
        <time>2014-04-21T07:10:41Z</time>
      </trkpt>
      <trkpt lat="45.13369" lon="4.66806">
        <ele>440.7</ele>
        <time>2014-04-21T07:10:43Z</time>
      </trkpt>
      <trkpt lat="45.13368" lon="4.66796">
        <ele>441.2</ele>
        <time>2014-04-21T07:10:45Z</time>
      </trkpt>
      <trkpt lat="45.13367" lon="4.66784">
        <ele>441.6</ele>
        <time>2014-04-21T07:10:47Z</time>
      </trkpt>
      <trkpt lat="45.13365" lon="4.66772">
        <ele>442.1</ele>
        <time>2014-04-21T07:10:49Z</time>
      </trkpt>
      <trkpt lat="45.13364" lon="4.66765">
        <ele>442.3</ele>
        <time>2014-04-21T07:10:50Z</time>
      </trkpt>
      <trkpt lat="45.13362" lon="4.66753">
        <ele>442.4</ele>
        <time>2014-04-21T07:10:52Z</time>
      </trkpt>
      <trkpt lat="45.13361" lon="4.66743">
        <ele>443.7</ele>
        <time>2014-04-21T07:10:54Z</time>
      </trkpt>
      <trkpt lat="45.13356" lon="4.66734">
        <ele>444.6</ele>
        <time>2014-04-21T07:10:56Z</time>
      </trkpt>
      <trkpt lat="45.13352" lon="4.66731">
        <ele>444.2</ele>
        <time>2014-04-21T07:10:57Z</time>
      </trkpt>
      <trkpt lat="45.13343" lon="4.66731">
        <ele>442.5</ele>
        <time>2014-04-21T07:10:59Z</time>
      </trkpt>
      <trkpt lat="45.13337" lon="4.66726">
        <ele>442.1</ele>
        <time>2014-04-21T07:11:01Z</time>
      </trkpt>
      <trkpt lat="45.13338" lon="4.66716">
        <ele>443.7</ele>
        <time>2014-04-21T07:11:03Z</time>
      </trkpt>
      <trkpt lat="45.13342" lon="4.66707">
        <ele>445.7</ele>
        <time>2014-04-21T07:11:05Z</time>
      </trkpt>
      <trkpt lat="45.13346" lon="4.66698">
        <ele>448</ele>
        <time>2014-04-21T07:11:07Z</time>
      </trkpt>
      <trkpt lat="45.1335" lon="4.66691">
        <ele>450.4</ele>
        <time>2014-04-21T07:11:09Z</time>
      </trkpt>
      <trkpt lat="45.13356" lon="4.66688">
        <ele>452.5</ele>
        <time>2014-04-21T07:11:11Z</time>
      </trkpt>
      <trkpt lat="45.13361" lon="4.66686">
        <ele>454</ele>
        <time>2014-04-21T07:11:13Z</time>
      </trkpt>
      <trkpt lat="45.13365" lon="4.66689">
        <ele>454.8</ele>
        <time>2014-04-21T07:11:15Z</time>
      </trkpt>
      <trkpt lat="45.1337" lon="4.66691">
        <ele>455.8</ele>
        <time>2014-04-21T07:11:17Z</time>
      </trkpt>
      <trkpt lat="45.13376" lon="4.66694">
        <ele>456.9</ele>
        <time>2014-04-21T07:11:20Z</time>
      </trkpt>
      <trkpt lat="45.13381" lon="4.66694">
        <ele>457.8</ele>
        <time>2014-04-21T07:11:22Z</time>
      </trkpt>
      <trkpt lat="45.13386" lon="4.66697">
        <ele>458.6</ele>
        <time>2014-04-21T07:11:25Z</time>
      </trkpt>
      <trkpt lat="45.13392" lon="4.667">
        <ele>459.3</ele>
        <time>2014-04-21T07:11:28Z</time>
      </trkpt>
      <trkpt lat="45.13397" lon="4.66703">
        <ele>459.6</ele>
        <time>2014-04-21T07:11:31Z</time>
      </trkpt>
      <trkpt lat="45.13407" lon="4.66711">
        <ele>460.1</ele>
        <time>2014-04-21T07:11:37Z</time>
      </trkpt>
      <trkpt lat="45.13413" lon="4.66715">
        <ele>460.2</ele>
        <time>2014-04-21T07:11:40Z</time>
      </trkpt>
      <trkpt lat="45.13418" lon="4.66719">
        <ele>460.1</ele>
        <time>2014-04-21T07:11:43Z</time>
      </trkpt>
      <trkpt lat="45.13423" lon="4.66723">
        <ele>459.8</ele>
        <time>2014-04-21T07:11:46Z</time>
      </trkpt>
      <trkpt lat="45.13427" lon="4.66725">
        <ele>460.1</ele>
        <time>2014-04-21T07:11:48Z</time>
      </trkpt>
      <trkpt lat="45.13432" lon="4.66728">
        <ele>459.7</ele>
        <time>2014-04-21T07:11:51Z</time>
      </trkpt>
      <trkpt lat="45.13437" lon="4.66733">
        <ele>459.3</ele>
        <time>2014-04-21T07:11:54Z</time>
      </trkpt>
      <trkpt lat="45.13441" lon="4.66737">
        <ele>458.5</ele>
        <time>2014-04-21T07:11:57Z</time>
      </trkpt>
      <trkpt lat="45.13446" lon="4.66742">
        <ele>458</ele>
        <time>2014-04-21T07:12:00Z</time>
      </trkpt>
      <trkpt lat="45.13449" lon="4.66747">
        <ele>457.1</ele>
        <time>2014-04-21T07:12:03Z</time>
      </trkpt>
      <trkpt lat="45.13454" lon="4.66751">
        <ele>456.7</ele>
        <time>2014-04-21T07:12:06Z</time>
      </trkpt>
      <trkpt lat="45.13458" lon="4.66757">
        <ele>456</ele>
        <time>2014-04-21T07:12:09Z</time>
      </trkpt>
      <trkpt lat="45.13463" lon="4.66762">
        <ele>455.5</ele>
        <time>2014-04-21T07:12:12Z</time>
      </trkpt>
      <trkpt lat="45.13466" lon="4.66766">
        <ele>455.1</ele>
        <time>2014-04-21T07:12:15Z</time>
      </trkpt>
      <trkpt lat="45.13471" lon="4.6677">
        <ele>454.9</ele>
        <time>2014-04-21T07:12:18Z</time>
      </trkpt>
      <trkpt lat="45.13476" lon="4.66774">
        <ele>454.5</ele>
        <time>2014-04-21T07:12:21Z</time>
      </trkpt>
      <trkpt lat="45.1348" lon="4.66778">
        <ele>454.1</ele>
        <time>2014-04-21T07:12:24Z</time>
      </trkpt>
      <trkpt lat="45.13485" lon="4.66782">
        <ele>453.6</ele>
        <time>2014-04-21T07:12:27Z</time>
      </trkpt>
      <trkpt lat="45.13489" lon="4.66787">
        <ele>452.7</ele>
        <time>2014-04-21T07:12:30Z</time>
      </trkpt>
      <trkpt lat="45.13493" lon="4.66792">
        <ele>451.8</ele>
        <time>2014-04-21T07:12:33Z</time>
      </trkpt>
      <trkpt lat="45.13502" lon="4.66802">
        <ele>450</ele>
        <time>2014-04-21T07:12:39Z</time>
      </trkpt>
      <trkpt lat="45.13507" lon="4.66807">
        <ele>448.7</ele>
        <time>2014-04-21T07:12:42Z</time>
      </trkpt>
      <trkpt lat="45.13512" lon="4.66811">
        <ele>447.4</ele>
        <time>2014-04-21T07:12:45Z</time>
      </trkpt>
      <trkpt lat="45.13517" lon="4.66816">
        <ele>446.1</ele>
        <time>2014-04-21T07:12:48Z</time>
      </trkpt>
      <trkpt lat="45.13521" lon="4.66821">
        <ele>445.1</ele>
        <time>2014-04-21T07:12:51Z</time>
      </trkpt>
      <trkpt lat="45.13526" lon="4.66825">
        <ele>444.2</ele>
        <time>2014-04-21T07:12:54Z</time>
      </trkpt>
      <trkpt lat="45.13531" lon="4.66827">
        <ele>443.6</ele>
        <time>2014-04-21T07:12:57Z</time>
      </trkpt>
      <trkpt lat="45.13536" lon="4.66826">
        <ele>444.1</ele>
        <time>2014-04-21T07:13:01Z</time>
      </trkpt>
      <trkpt lat="45.13541" lon="4.66824">
        <ele>444.9</ele>
        <time>2014-04-21T07:13:04Z</time>
      </trkpt>
      <trkpt lat="45.13545" lon="4.66822">
        <ele>445.4</ele>
        <time>2014-04-21T07:13:08Z</time>
      </trkpt>
      <trkpt lat="45.1355" lon="4.6682">
        <ele>445.9</ele>
        <time>2014-04-21T07:13:12Z</time>
      </trkpt>
      <trkpt lat="45.13555" lon="4.66819">
        <ele>446.8</ele>
        <time>2014-04-21T07:13:15Z</time>
      </trkpt>
      <trkpt lat="45.1356" lon="4.66817">
        <ele>447.2</ele>
        <time>2014-04-21T07:13:18Z</time>
      </trkpt>
      <trkpt lat="45.13565" lon="4.66815">
        <ele>448.1</ele>
        <time>2014-04-21T07:13:20Z</time>
      </trkpt>
      <trkpt lat="45.13571" lon="4.66813">
        <ele>448.7</ele>
        <time>2014-04-21T07:13:23Z</time>
      </trkpt>
      <trkpt lat="45.13575" lon="4.66811">
        <ele>449.2</ele>
        <time>2014-04-21T07:13:26Z</time>
      </trkpt>
      <trkpt lat="45.13581" lon="4.66809">
        <ele>450.1</ele>
        <time>2014-04-21T07:13:29Z</time>
      </trkpt>
      <trkpt lat="45.13586" lon="4.66807">
        <ele>450.8</ele>
        <time>2014-04-21T07:13:32Z</time>
      </trkpt>
      <trkpt lat="45.13593" lon="4.66807">
        <ele>451.9</ele>
        <time>2014-04-21T07:13:36Z</time>
      </trkpt>
      <trkpt lat="45.13602" lon="4.66802">
        <ele>454.2</ele>
        <time>2014-04-21T07:13:42Z</time>
      </trkpt>
      <trkpt lat="45.13607" lon="4.66799">
        <ele>455.3</ele>
        <time>2014-04-21T07:13:45Z</time>
      </trkpt>
      <trkpt lat="45.13613" lon="4.66797">
        <ele>456.6</ele>
        <time>2014-04-21T07:13:48Z</time>
      </trkpt>
      <trkpt lat="45.13618" lon="4.66795">
        <ele>457.4</ele>
        <time>2014-04-21T07:13:50Z</time>
      </trkpt>
      <trkpt lat="45.13622" lon="4.66794">
        <ele>458.1</ele>
        <time>2014-04-21T07:13:52Z</time>
      </trkpt>
      <trkpt lat="45.13627" lon="4.66792">
        <ele>458.9</ele>
        <time>2014-04-21T07:13:54Z</time>
      </trkpt>
      <trkpt lat="45.13632" lon="4.66789">
        <ele>460</ele>
        <time>2014-04-21T07:13:57Z</time>
      </trkpt>
      <trkpt lat="45.13637" lon="4.66787">
        <ele>461.1</ele>
        <time>2014-04-21T07:14:01Z</time>
      </trkpt>
      <trkpt lat="45.13642" lon="4.66786">
        <ele>461.9</ele>
        <time>2014-04-21T07:14:05Z</time>
      </trkpt>
      <trkpt lat="45.13647" lon="4.66786">
        <ele>462.3</ele>
        <time>2014-04-21T07:14:09Z</time>
      </trkpt>
      <trkpt lat="45.13653" lon="4.66785">
        <ele>462.8</ele>
        <time>2014-04-21T07:14:16Z</time>
      </trkpt>
      <trkpt lat="45.13657" lon="4.66785">
        <ele>463.2</ele>
        <time>2014-04-21T07:14:20Z</time>
      </trkpt>
      <trkpt lat="45.13662" lon="4.66784">
        <ele>464.1</ele>
        <time>2014-04-21T07:14:24Z</time>
      </trkpt>
      <trkpt lat="45.13666" lon="4.66783">
        <ele>464.6</ele>
        <time>2014-04-21T07:14:29Z</time>
      </trkpt>
      <trkpt lat="45.13671" lon="4.66783">
        <ele>465</ele>
        <time>2014-04-21T07:14:36Z</time>
      </trkpt>
      <trkpt lat="45.13676" lon="4.66784">
        <ele>465.4</ele>
        <time>2014-04-21T07:14:43Z</time>
      </trkpt>
      <trkpt lat="45.13686" lon="4.66783">
        <ele>466.4</ele>
        <time>2014-04-21T07:16:50Z</time>
      </trkpt>
      <trkpt lat="45.13697" lon="4.66782">
        <ele>467.7</ele>
        <time>2014-04-21T07:16:58Z</time>
      </trkpt>
      <trkpt lat="45.13702" lon="4.66783">
        <ele>468</ele>
        <time>2014-04-21T07:17:02Z</time>
      </trkpt>
      <trkpt lat="45.13708" lon="4.66785">
        <ele>468</ele>
        <time>2014-04-21T07:17:06Z</time>
      </trkpt>
      <trkpt lat="45.13713" lon="4.66789">
        <ele>468.1</ele>
        <time>2014-04-21T07:17:10Z</time>
      </trkpt>
      <trkpt lat="45.13717" lon="4.66791">
        <ele>468.2</ele>
        <time>2014-04-21T07:17:13Z</time>
      </trkpt>
      <trkpt lat="45.13723" lon="4.66793">
        <ele>468.5</ele>
        <time>2014-04-21T07:17:17Z</time>
      </trkpt>
      <trkpt lat="45.13729" lon="4.66793">
        <ele>469.2</ele>
        <time>2014-04-21T07:17:21Z</time>
      </trkpt>
      <trkpt lat="45.13734" lon="4.66792">
        <ele>469.7</ele>
        <time>2014-04-21T07:17:24Z</time>
      </trkpt>
      <trkpt lat="45.13739" lon="4.66789">
        <ele>470.7</ele>
        <time>2014-04-21T07:17:28Z</time>
      </trkpt>
      <trkpt lat="45.13745" lon="4.66787">
        <ele>471.5</ele>
        <time>2014-04-21T07:17:32Z</time>
      </trkpt>
      <trkpt lat="45.1375" lon="4.66786">
        <ele>472</ele>
        <time>2014-04-21T07:17:35Z</time>
      </trkpt>
      <trkpt lat="45.13755" lon="4.66786">
        <ele>472.4</ele>
        <time>2014-04-21T07:17:39Z</time>
      </trkpt>
      <trkpt lat="45.1376" lon="4.66787">
        <ele>472.4</ele>
        <time>2014-04-21T07:17:42Z</time>
      </trkpt>
      <trkpt lat="45.13766" lon="4.66787">
        <ele>472.7</ele>
        <time>2014-04-21T07:17:46Z</time>
      </trkpt>
      <trkpt lat="45.13772" lon="4.66787">
        <ele>472.9</ele>
        <time>2014-04-21T07:17:50Z</time>
      </trkpt>
      <trkpt lat="45.13776" lon="4.66786">
        <ele>473.2</ele>
        <time>2014-04-21T07:17:53Z</time>
      </trkpt>
      <trkpt lat="45.13786" lon="4.66786">
        <ele>473.6</ele>
        <time>2014-04-21T07:18:01Z</time>
      </trkpt>
      <trkpt lat="45.13791" lon="4.66786">
        <ele>473.6</ele>
        <time>2014-04-21T07:18:05Z</time>
      </trkpt>
      <trkpt lat="45.13796" lon="4.66787">
        <ele>473.8</ele>
        <time>2014-04-21T07:18:09Z</time>
      </trkpt>
      <trkpt lat="45.13801" lon="4.66789">
        <ele>473.8</ele>
        <time>2014-04-21T07:18:13Z</time>
      </trkpt>
      <trkpt lat="45.13805" lon="4.66792">
        <ele>473.8</ele>
        <time>2014-04-21T07:18:17Z</time>
      </trkpt>
      <trkpt lat="45.1381" lon="4.66793">
        <ele>474</ele>
        <time>2014-04-21T07:18:24Z</time>
      </trkpt>
      <trkpt lat="45.13815" lon="4.66795">
        <ele>474.1</ele>
        <time>2014-04-21T07:18:30Z</time>
      </trkpt>
      <trkpt lat="45.13819" lon="4.66798">
        <ele>474</ele>
        <time>2014-04-21T07:18:36Z</time>
      </trkpt>
      <trkpt lat="45.13822" lon="4.66793">
        <ele>474.4</ele>
        <time>2014-04-21T07:18:42Z</time>
      </trkpt>
      <trkpt lat="45.13822" lon="4.66787">
        <ele>474.8</ele>
        <time>2014-04-21T07:18:49Z</time>
      </trkpt>
      <trkpt lat="45.1382" lon="4.6678">
        <ele>475.2</ele>
        <time>2014-04-21T07:18:56Z</time>
      </trkpt>
      <trkpt lat="45.13817" lon="4.66767">
        <ele>475.8</ele>
        <time>2014-04-21T07:19:05Z</time>
      </trkpt>
      <trkpt lat="45.13814" lon="4.66761">
        <ele>476.1</ele>
        <time>2014-04-21T07:19:11Z</time>
      </trkpt>
      <trkpt lat="45.13813" lon="4.66755">
        <ele>476.5</ele>
        <time>2014-04-21T07:19:18Z</time>
      </trkpt>
      <trkpt lat="45.13813" lon="4.66748">
        <ele>477</ele>
        <time>2014-04-21T07:19:27Z</time>
      </trkpt>
      <trkpt lat="45.13811" lon="4.6674">
        <ele>477.8</ele>
        <time>2014-04-21T07:19:31Z</time>
      </trkpt>
      <trkpt lat="45.13811" lon="4.66732">
        <ele>478.5</ele>
        <time>2014-04-21T07:19:35Z</time>
      </trkpt>
      <trkpt lat="45.13812" lon="4.66725">
        <ele>479.3</ele>
        <time>2014-04-21T07:19:40Z</time>
      </trkpt>
      <trkpt lat="45.13813" lon="4.66718">
        <ele>480</ele>
        <time>2014-04-21T07:19:44Z</time>
      </trkpt>
      <trkpt lat="45.13813" lon="4.66711">
        <ele>480.6</ele>
        <time>2014-04-21T07:19:48Z</time>
      </trkpt>
      <trkpt lat="45.13815" lon="4.66704">
        <ele>481.3</ele>
        <time>2014-04-21T07:19:52Z</time>
      </trkpt>
      <trkpt lat="45.13816" lon="4.66698">
        <ele>481.9</ele>
        <time>2014-04-21T07:19:56Z</time>
      </trkpt>
      <trkpt lat="45.13817" lon="4.66691">
        <ele>482.7</ele>
        <time>2014-04-21T07:20:02Z</time>
      </trkpt>
      <trkpt lat="45.13818" lon="4.66677">
        <ele>484</ele>
        <time>2014-04-21T07:20:10Z</time>
      </trkpt>
      <trkpt lat="45.1382" lon="4.66671">
        <ele>484.6</ele>
        <time>2014-04-21T07:20:14Z</time>
      </trkpt>
      <trkpt lat="45.13822" lon="4.66665">
        <ele>485.4</ele>
        <time>2014-04-21T07:20:18Z</time>
      </trkpt>
      <trkpt lat="45.13824" lon="4.66657">
        <ele>486.5</ele>
        <time>2014-04-21T07:20:22Z</time>
      </trkpt>
      <trkpt lat="45.13827" lon="4.66651">
        <ele>487.4</ele>
        <time>2014-04-21T07:20:26Z</time>
      </trkpt>
      <trkpt lat="45.1383" lon="4.66644">
        <ele>488.4</ele>
        <time>2014-04-21T07:20:30Z</time>
      </trkpt>
      <trkpt lat="45.13834" lon="4.66638">
        <ele>489.1</ele>
        <time>2014-04-21T07:20:33Z</time>
      </trkpt>
      <trkpt lat="45.13839" lon="4.66635">
        <ele>489.7</ele>
        <time>2014-04-21T07:20:36Z</time>
      </trkpt>
      <trkpt lat="45.13843" lon="4.66631">
        <ele>490.3</ele>
        <time>2014-04-21T07:20:39Z</time>
      </trkpt>
      <trkpt lat="45.13848" lon="4.66627">
        <ele>490.9</ele>
        <time>2014-04-21T07:20:43Z</time>
      </trkpt>
      <trkpt lat="45.13853" lon="4.66624">
        <ele>491.3</ele>
        <time>2014-04-21T07:20:46Z</time>
      </trkpt>
      <trkpt lat="45.13858" lon="4.66622">
        <ele>491.5</ele>
        <time>2014-04-21T07:20:49Z</time>
      </trkpt>
      <trkpt lat="45.13863" lon="4.66622">
        <ele>491.7</ele>
        <time>2014-04-21T07:20:52Z</time>
      </trkpt>
      <trkpt lat="45.13867" lon="4.66622">
        <ele>491.7</ele>
        <time>2014-04-21T07:20:55Z</time>
      </trkpt>
      <trkpt lat="45.13872" lon="4.66623">
        <ele>491.6</ele>
        <time>2014-04-21T07:20:58Z</time>
      </trkpt>
      <trkpt lat="45.13878" lon="4.66623">
        <ele>491.6</ele>
        <time>2014-04-21T07:21:02Z</time>
      </trkpt>
      <trkpt lat="45.13884" lon="4.66622">
        <ele>491.8</ele>
        <time>2014-04-21T07:21:06Z</time>
      </trkpt>
      <trkpt lat="45.13895" lon="4.6662">
        <ele>492.2</ele>
        <time>2014-04-21T07:21:13Z</time>
      </trkpt>
      <trkpt lat="45.13899" lon="4.66618">
        <ele>492.4</ele>
        <time>2014-04-21T07:21:16Z</time>
      </trkpt>
      <trkpt lat="45.13905" lon="4.66616">
        <ele>492.6</ele>
        <time>2014-04-21T07:21:20Z</time>
      </trkpt>
      <trkpt lat="45.1391" lon="4.66614">
        <ele>493</ele>
        <time>2014-04-21T07:21:24Z</time>
      </trkpt>
      <trkpt lat="45.13915" lon="4.66612">
        <ele>493.4</ele>
        <time>2014-04-21T07:21:27Z</time>
      </trkpt>
      <trkpt lat="45.1392" lon="4.66609">
        <ele>494</ele>
        <time>2014-04-21T07:21:30Z</time>
      </trkpt>
      <trkpt lat="45.13925" lon="4.66606">
        <ele>494.7</ele>
        <time>2014-04-21T07:21:33Z</time>
      </trkpt>
      <trkpt lat="45.1393" lon="4.66602">
        <ele>495.6</ele>
        <time>2014-04-21T07:21:36Z</time>
      </trkpt>
      <trkpt lat="45.13936" lon="4.66599">
        <ele>496.5</ele>
        <time>2014-04-21T07:21:39Z</time>
      </trkpt>
      <trkpt lat="45.13942" lon="4.66596">
        <ele>497.1</ele>
        <time>2014-04-21T07:21:42Z</time>
      </trkpt>
      <trkpt lat="45.13947" lon="4.66592">
        <ele>497.8</ele>
        <time>2014-04-21T07:21:45Z</time>
      </trkpt>
      <trkpt lat="45.13952" lon="4.66589">
        <ele>498.6</ele>
        <time>2014-04-21T07:21:48Z</time>
      </trkpt>
      <trkpt lat="45.13958" lon="4.66586">
        <ele>499.3</ele>
        <time>2014-04-21T07:21:51Z</time>
      </trkpt>
      <trkpt lat="45.13963" lon="4.66583">
        <ele>499.9</ele>
        <time>2014-04-21T07:21:54Z</time>
      </trkpt>
      <trkpt lat="45.13968" lon="4.6658">
        <ele>500.5</ele>
        <time>2014-04-21T07:21:57Z</time>
      </trkpt>
      <trkpt lat="45.13973" lon="4.66578">
        <ele>500.9</ele>
        <time>2014-04-21T07:22:00Z</time>
      </trkpt>
      <trkpt lat="45.13978" lon="4.66576">
        <ele>501.5</ele>
        <time>2014-04-21T07:22:03Z</time>
      </trkpt>
      <trkpt lat="45.13982" lon="4.66573">
        <ele>502</ele>
        <time>2014-04-21T07:22:06Z</time>
      </trkpt>
      <trkpt lat="45.13987" lon="4.66571">
        <ele>502.5</ele>
        <time>2014-04-21T07:22:09Z</time>
      </trkpt>
      <trkpt lat="45.13999" lon="4.66566">
        <ele>503.7</ele>
        <time>2014-04-21T07:22:15Z</time>
      </trkpt>
      <trkpt lat="45.14004" lon="4.66564">
        <ele>504.1</ele>
        <time>2014-04-21T07:22:18Z</time>
      </trkpt>
      <trkpt lat="45.14009" lon="4.66563">
        <ele>504.4</ele>
        <time>2014-04-21T07:22:21Z</time>
      </trkpt>
      <trkpt lat="45.14014" lon="4.66562">
        <ele>504.7</ele>
        <time>2014-04-21T07:22:24Z</time>
      </trkpt>
      <trkpt lat="45.14018" lon="4.66561">
        <ele>505.1</ele>
        <time>2014-04-21T07:22:27Z</time>
      </trkpt>
      <trkpt lat="45.14023" lon="4.6656">
        <ele>505.5</ele>
        <time>2014-04-21T07:22:30Z</time>
      </trkpt>
      <trkpt lat="45.14029" lon="4.66558">
        <ele>505.9</ele>
        <time>2014-04-21T07:22:34Z</time>
      </trkpt>
      <trkpt lat="45.14034" lon="4.66557">
        <ele>506.2</ele>
        <time>2014-04-21T07:22:37Z</time>
      </trkpt>
      <trkpt lat="45.14039" lon="4.66556">
        <ele>506.5</ele>
        <time>2014-04-21T07:22:40Z</time>
      </trkpt>
      <trkpt lat="45.14044" lon="4.66556">
        <ele>506.8</ele>
        <time>2014-04-21T07:22:43Z</time>
      </trkpt>
      <trkpt lat="45.14048" lon="4.66554">
        <ele>507.2</ele>
        <time>2014-04-21T07:22:46Z</time>
      </trkpt>
      <trkpt lat="45.14053" lon="4.66552">
        <ele>507.5</ele>
        <time>2014-04-21T07:22:49Z</time>
      </trkpt>
      <trkpt lat="45.14058" lon="4.6655">
        <ele>507.9</ele>
        <time>2014-04-21T07:22:52Z</time>
      </trkpt>
      <trkpt lat="45.14062" lon="4.66549">
        <ele>508.2</ele>
        <time>2014-04-21T07:22:55Z</time>
      </trkpt>
      <trkpt lat="45.14066" lon="4.66547">
        <ele>508.5</ele>
        <time>2014-04-21T07:22:58Z</time>
      </trkpt>
      <trkpt lat="45.14071" lon="4.66544">
        <ele>508.8</ele>
        <time>2014-04-21T07:23:01Z</time>
      </trkpt>
      <trkpt lat="45.14075" lon="4.66541">
        <ele>509.3</ele>
        <time>2014-04-21T07:23:04Z</time>
      </trkpt>
      <trkpt lat="45.1408" lon="4.66537">
        <ele>509.7</ele>
        <time>2014-04-21T07:23:07Z</time>
      </trkpt>
      <trkpt lat="45.14084" lon="4.66534">
        <ele>510</ele>
        <time>2014-04-21T07:23:10Z</time>
      </trkpt>
      <trkpt lat="45.14088" lon="4.66529">
        <ele>510.3</ele>
        <time>2014-04-21T07:23:13Z</time>
      </trkpt>
      <trkpt lat="45.14094" lon="4.66519">
        <ele>510.9</ele>
        <time>2014-04-21T07:23:19Z</time>
      </trkpt>
      <trkpt lat="45.14097" lon="4.66512">
        <ele>511.3</ele>
        <time>2014-04-21T07:23:23Z</time>
      </trkpt>
      <trkpt lat="45.141" lon="4.66508">
        <ele>511.6</ele>
        <time>2014-04-21T07:23:26Z</time>
      </trkpt>
      <trkpt lat="45.14104" lon="4.66503">
        <ele>511.8</ele>
        <time>2014-04-21T07:23:29Z</time>
      </trkpt>
      <trkpt lat="45.14108" lon="4.66497">
        <ele>512.1</ele>
        <time>2014-04-21T07:23:32Z</time>
      </trkpt>
      <trkpt lat="45.14111" lon="4.66491">
        <ele>512.3</ele>
        <time>2014-04-21T07:23:35Z</time>
      </trkpt>
      <trkpt lat="45.14114" lon="4.66486">
        <ele>512.5</ele>
        <time>2014-04-21T07:23:38Z</time>
      </trkpt>
      <trkpt lat="45.14118" lon="4.6648">
        <ele>512.7</ele>
        <time>2014-04-21T07:23:41Z</time>
      </trkpt>
      <trkpt lat="45.14121" lon="4.66474">
        <ele>512.9</ele>
        <time>2014-04-21T07:23:44Z</time>
      </trkpt>
      <trkpt lat="45.14124" lon="4.66468">
        <ele>513.2</ele>
        <time>2014-04-21T07:23:47Z</time>
      </trkpt>
      <trkpt lat="45.14127" lon="4.66461">
        <ele>513.4</ele>
        <time>2014-04-21T07:23:50Z</time>
      </trkpt>
      <trkpt lat="45.1413" lon="4.66455">
        <ele>513.6</ele>
        <time>2014-04-21T07:23:53Z</time>
      </trkpt>
      <trkpt lat="45.14134" lon="4.66448">
        <ele>513.9</ele>
        <time>2014-04-21T07:23:56Z</time>
      </trkpt>
      <trkpt lat="45.14137" lon="4.6644">
        <ele>514.2</ele>
        <time>2014-04-21T07:23:59Z</time>
      </trkpt>
      <trkpt lat="45.14141" lon="4.66432">
        <ele>514.5</ele>
        <time>2014-04-21T07:24:02Z</time>
      </trkpt>
      <trkpt lat="45.14143" lon="4.66426">
        <ele>514.7</ele>
        <time>2014-04-21T07:24:04Z</time>
      </trkpt>
      <trkpt lat="45.14146" lon="4.66421">
        <ele>514.9</ele>
        <time>2014-04-21T07:24:06Z</time>
      </trkpt>
      <trkpt lat="45.14149" lon="4.66415">
        <ele>515</ele>
        <time>2014-04-21T07:24:08Z</time>
      </trkpt>
      <trkpt lat="45.14152" lon="4.6641">
        <ele>515</ele>
        <time>2014-04-21T07:24:10Z</time>
      </trkpt>
      <trkpt lat="45.14156" lon="4.66402">
        <ele>515</ele>
        <time>2014-04-21T07:24:13Z</time>
      </trkpt>
      <trkpt lat="45.14159" lon="4.66397">
        <ele>515</ele>
        <time>2014-04-21T07:24:15Z</time>
      </trkpt>
      <trkpt lat="45.14164" lon="4.66386">
        <ele>515</ele>
        <time>2014-04-21T07:24:19Z</time>
      </trkpt>
      <trkpt lat="45.14167" lon="4.66382">
        <ele>515</ele>
        <time>2014-04-21T07:24:22Z</time>
      </trkpt>
      <trkpt lat="45.14167" lon="4.66375">
        <ele>515</ele>
        <time>2014-04-21T07:24:30Z</time>
      </trkpt>
      <trkpt lat="45.14164" lon="4.66366">
        <ele>515</ele>
        <time>2014-04-21T07:24:33Z</time>
      </trkpt>
      <trkpt lat="45.14163" lon="4.6636">
        <ele>515.1</ele>
        <time>2014-04-21T07:24:35Z</time>
      </trkpt>
      <trkpt lat="45.14162" lon="4.66354">
        <ele>515.1</ele>
        <time>2014-04-21T07:24:37Z</time>
      </trkpt>
      <trkpt lat="45.1416" lon="4.66347">
        <ele>515.1</ele>
        <time>2014-04-21T07:24:39Z</time>
      </trkpt>
      <trkpt lat="45.1416" lon="4.66339">
        <ele>515.2</ele>
        <time>2014-04-21T07:24:42Z</time>
      </trkpt>
      <trkpt lat="45.14158" lon="4.66333">
        <ele>515.2</ele>
        <time>2014-04-21T07:24:44Z</time>
      </trkpt>
      <trkpt lat="45.14153" lon="4.66327">
        <ele>515.2</ele>
        <time>2014-04-21T07:24:47Z</time>
      </trkpt>
      <trkpt lat="45.14147" lon="4.66328">
        <ele>515.4</ele>
        <time>2014-04-21T07:24:50Z</time>
      </trkpt>
      <trkpt lat="45.14142" lon="4.66331">
        <ele>515.5</ele>
        <time>2014-04-21T07:24:53Z</time>
      </trkpt>
      <trkpt lat="45.14136" lon="4.66331">
        <ele>515.7</ele>
        <time>2014-04-21T07:24:56Z</time>
      </trkpt>
      <trkpt lat="45.1413" lon="4.66329">
        <ele>515.8</ele>
        <time>2014-04-21T07:24:59Z</time>
      </trkpt>
      <trkpt lat="45.14124" lon="4.66328">
        <ele>516</ele>
        <time>2014-04-21T07:25:02Z</time>
      </trkpt>
      <trkpt lat="45.14118" lon="4.66327">
        <ele>516.1</ele>
        <time>2014-04-21T07:25:05Z</time>
      </trkpt>
      <trkpt lat="45.14113" lon="4.66325">
        <ele>516.2</ele>
        <time>2014-04-21T07:25:08Z</time>
      </trkpt>
      <trkpt lat="45.14107" lon="4.66323">
        <ele>516.4</ele>
        <time>2014-04-21T07:25:11Z</time>
      </trkpt>
      <trkpt lat="45.141" lon="4.66322">
        <ele>516.5</ele>
        <time>2014-04-21T07:25:14Z</time>
      </trkpt>
      <trkpt lat="45.14094" lon="4.66323">
        <ele>516.7</ele>
        <time>2014-04-21T07:25:17Z</time>
      </trkpt>
      <trkpt lat="45.14084" lon="4.66325">
        <ele>517</ele>
        <time>2014-04-21T07:25:22Z</time>
      </trkpt>
      <trkpt lat="45.14079" lon="4.66326">
        <ele>517.3</ele>
        <time>2014-04-21T07:25:24Z</time>
      </trkpt>
      <trkpt lat="45.14075" lon="4.66328">
        <ele>517.5</ele>
        <time>2014-04-21T07:25:26Z</time>
      </trkpt>
      <trkpt lat="45.14069" lon="4.6633">
        <ele>517.9</ele>
        <time>2014-04-21T07:25:29Z</time>
      </trkpt>
      <trkpt lat="45.14062" lon="4.66333">
        <ele>518.3</ele>
        <time>2014-04-21T07:25:32Z</time>
      </trkpt>
      <trkpt lat="45.14057" lon="4.66335">
        <ele>518.5</ele>
        <time>2014-04-21T07:25:34Z</time>
      </trkpt>
      <trkpt lat="45.14053" lon="4.66336">
        <ele>518.8</ele>
        <time>2014-04-21T07:25:36Z</time>
      </trkpt>
      <trkpt lat="45.14048" lon="4.66336">
        <ele>519.1</ele>
        <time>2014-04-21T07:25:38Z</time>
      </trkpt>
      <trkpt lat="45.14043" lon="4.66336">
        <ele>519.4</ele>
        <time>2014-04-21T07:25:40Z</time>
      </trkpt>
      <trkpt lat="45.14038" lon="4.66336">
        <ele>519.6</ele>
        <time>2014-04-21T07:25:42Z</time>
      </trkpt>
      <trkpt lat="45.14032" lon="4.66335">
        <ele>520</ele>
        <time>2014-04-21T07:25:44Z</time>
      </trkpt>
      <trkpt lat="45.14027" lon="4.66334">
        <ele>520.4</ele>
        <time>2014-04-21T07:25:46Z</time>
      </trkpt>
      <trkpt lat="45.14022" lon="4.66332">
        <ele>520.7</ele>
        <time>2014-04-21T07:25:48Z</time>
      </trkpt>
      <trkpt lat="45.14017" lon="4.66331">
        <ele>521.1</ele>
        <time>2014-04-21T07:25:50Z</time>
      </trkpt>
      <trkpt lat="45.14012" lon="4.6633">
        <ele>521.4</ele>
        <time>2014-04-21T07:25:52Z</time>
      </trkpt>
      <trkpt lat="45.14006" lon="4.66327">
        <ele>521.8</ele>
        <time>2014-04-21T07:25:54Z</time>
      </trkpt>
      <trkpt lat="45.14001" lon="4.66321">
        <ele>522.4</ele>
        <time>2014-04-21T07:25:56Z</time>
      </trkpt>
      <trkpt lat="45.13997" lon="4.66314">
        <ele>522.8</ele>
        <time>2014-04-21T07:25:59Z</time>
      </trkpt>
      <trkpt lat="45.13992" lon="4.66309">
        <ele>523.3</ele>
        <time>2014-04-21T07:26:02Z</time>
      </trkpt>
      <trkpt lat="45.13987" lon="4.66306">
        <ele>523.6</ele>
        <time>2014-04-21T07:26:04Z</time>
      </trkpt>
      <trkpt lat="45.13983" lon="4.66303">
        <ele>523.9</ele>
        <time>2014-04-21T07:26:06Z</time>
      </trkpt>
      <trkpt lat="45.13979" lon="4.66299">
        <ele>524.2</ele>
        <time>2014-04-21T07:26:08Z</time>
      </trkpt>
      <trkpt lat="45.13975" lon="4.66296">
        <ele>524.4</ele>
        <time>2014-04-21T07:26:10Z</time>
      </trkpt>
      <trkpt lat="45.13971" lon="4.66292">
        <ele>524.7</ele>
        <time>2014-04-21T07:26:12Z</time>
      </trkpt>
      <trkpt lat="45.13968" lon="4.66287">
        <ele>525</ele>
        <time>2014-04-21T07:26:14Z</time>
      </trkpt>
      <trkpt lat="45.13964" lon="4.66278">
        <ele>525.4</ele>
        <time>2014-04-21T07:26:17Z</time>
      </trkpt>
      <trkpt lat="45.13962" lon="4.66273">
        <ele>525.7</ele>
        <time>2014-04-21T07:26:19Z</time>
      </trkpt>
      <trkpt lat="45.13954" lon="4.66271">
        <ele>526</ele>
        <time>2014-04-21T07:38:56Z</time>
      </trkpt>
      <trkpt lat="45.13945" lon="4.66279">
        <ele>526.2</ele>
        <time>2014-04-21T07:39:02Z</time>
      </trkpt>
      <trkpt lat="45.13939" lon="4.66279">
        <ele>526.4</ele>
        <time>2014-04-21T07:39:05Z</time>
      </trkpt>
      <trkpt lat="45.13935" lon="4.66276">
        <ele>526.7</ele>
        <time>2014-04-21T07:39:08Z</time>
      </trkpt>
      <trkpt lat="45.13931" lon="4.66271">
        <ele>527</ele>
        <time>2014-04-21T07:39:11Z</time>
      </trkpt>
      <trkpt lat="45.13927" lon="4.66265">
        <ele>527.3</ele>
        <time>2014-04-21T07:39:14Z</time>
      </trkpt>
      <trkpt lat="45.13921" lon="4.66259">
        <ele>527.6</ele>
        <time>2014-04-21T07:39:17Z</time>
      </trkpt>
      <trkpt lat="45.13916" lon="4.66254">
        <ele>527.9</ele>
        <time>2014-04-21T07:39:20Z</time>
      </trkpt>
      <trkpt lat="45.13911" lon="4.66249">
        <ele>528.2</ele>
        <time>2014-04-21T07:39:23Z</time>
      </trkpt>
      <trkpt lat="45.13908" lon="4.66246">
        <ele>528.3</ele>
        <time>2014-04-21T07:39:25Z</time>
      </trkpt>
      <trkpt lat="45.13904" lon="4.66242">
        <ele>528.5</ele>
        <time>2014-04-21T07:39:27Z</time>
      </trkpt>
      <trkpt lat="45.139" lon="4.66238">
        <ele>528.6</ele>
        <time>2014-04-21T07:39:29Z</time>
      </trkpt>
      <trkpt lat="45.13896" lon="4.66234">
        <ele>528.8</ele>
        <time>2014-04-21T07:39:31Z</time>
      </trkpt>
      <trkpt lat="45.13892" lon="4.6623">
        <ele>529</ele>
        <time>2014-04-21T07:39:33Z</time>
      </trkpt>
      <trkpt lat="45.13888" lon="4.66226">
        <ele>529.1</ele>
        <time>2014-04-21T07:39:35Z</time>
      </trkpt>
      <trkpt lat="45.13884" lon="4.66221">
        <ele>529.3</ele>
        <time>2014-04-21T07:39:37Z</time>
      </trkpt>
      <trkpt lat="45.1388" lon="4.66216">
        <ele>529.5</ele>
        <time>2014-04-21T07:39:39Z</time>
      </trkpt>
      <trkpt lat="45.13876" lon="4.66211">
        <ele>529.7</ele>
        <time>2014-04-21T07:39:41Z</time>
      </trkpt>
      <trkpt lat="45.13872" lon="4.66206">
        <ele>529.9</ele>
        <time>2014-04-21T07:39:43Z</time>
      </trkpt>
      <trkpt lat="45.13867" lon="4.66201">
        <ele>530.1</ele>
        <time>2014-04-21T07:39:45Z</time>
      </trkpt>
      <trkpt lat="45.13863" lon="4.66196">
        <ele>530.4</ele>
        <time>2014-04-21T07:39:47Z</time>
      </trkpt>
      <trkpt lat="45.13858" lon="4.66191">
        <ele>530.6</ele>
        <time>2014-04-21T07:39:49Z</time>
      </trkpt>
      <trkpt lat="45.13853" lon="4.66187">
        <ele>530.9</ele>
        <time>2014-04-21T07:39:51Z</time>
      </trkpt>
      <trkpt lat="45.13849" lon="4.66183">
        <ele>531.1</ele>
        <time>2014-04-21T07:39:53Z</time>
      </trkpt>
      <trkpt lat="45.13844" lon="4.66179">
        <ele>531.3</ele>
        <time>2014-04-21T07:39:55Z</time>
      </trkpt>
      <trkpt lat="45.1384" lon="4.66175">
        <ele>531.6</ele>
        <time>2014-04-21T07:39:57Z</time>
      </trkpt>
      <trkpt lat="45.13835" lon="4.66172">
        <ele>531.9</ele>
        <time>2014-04-21T07:39:59Z</time>
      </trkpt>
      <trkpt lat="45.13828" lon="4.66162">
        <ele>532</ele>
        <time>2014-04-21T07:40:03Z</time>
      </trkpt>
      <trkpt lat="45.13826" lon="4.66153">
        <ele>532</ele>
        <time>2014-04-21T07:40:06Z</time>
      </trkpt>
      <trkpt lat="45.13826" lon="4.66144">
        <ele>532</ele>
        <time>2014-04-21T07:40:09Z</time>
      </trkpt>
      <trkpt lat="45.13827" lon="4.66138">
        <ele>532</ele>
        <time>2014-04-21T07:40:11Z</time>
      </trkpt>
      <trkpt lat="45.13828" lon="4.66131">
        <ele>532</ele>
        <time>2014-04-21T07:40:13Z</time>
      </trkpt>
      <trkpt lat="45.13829" lon="4.66125">
        <ele>532.1</ele>
        <time>2014-04-21T07:40:15Z</time>
      </trkpt>
      <trkpt lat="45.13829" lon="4.66118">
        <ele>532.1</ele>
        <time>2014-04-21T07:40:17Z</time>
      </trkpt>
      <trkpt lat="45.1383" lon="4.66111">
        <ele>532.1</ele>
        <time>2014-04-21T07:40:19Z</time>
      </trkpt>
      <trkpt lat="45.13831" lon="4.66105">
        <ele>532.1</ele>
        <time>2014-04-21T07:40:21Z</time>
      </trkpt>
      <trkpt lat="45.13831" lon="4.66098">
        <ele>532.1</ele>
        <time>2014-04-21T07:40:23Z</time>
      </trkpt>
      <trkpt lat="45.13832" lon="4.66091">
        <ele>532.1</ele>
        <time>2014-04-21T07:40:25Z</time>
      </trkpt>
      <trkpt lat="45.13832" lon="4.66082">
        <ele>532</ele>
        <time>2014-04-21T07:40:28Z</time>
      </trkpt>
      <trkpt lat="45.13834" lon="4.66073">
        <ele>532</ele>
        <time>2014-04-21T07:40:31Z</time>
      </trkpt>
      <trkpt lat="45.13835" lon="4.66066">
        <ele>531.9</ele>
        <time>2014-04-21T07:40:33Z</time>
      </trkpt>
      <trkpt lat="45.13837" lon="4.66059">
        <ele>531.8</ele>
        <time>2014-04-21T07:40:35Z</time>
      </trkpt>
      <trkpt lat="45.13838" lon="4.66053">
        <ele>531.7</ele>
        <time>2014-04-21T07:40:37Z</time>
      </trkpt>
      <trkpt lat="45.1384" lon="4.66046">
        <ele>531.6</ele>
        <time>2014-04-21T07:40:39Z</time>
      </trkpt>
      <trkpt lat="45.13842" lon="4.6604">
        <ele>531.5</ele>
        <time>2014-04-21T07:40:41Z</time>
      </trkpt>
      <trkpt lat="45.13844" lon="4.66033">
        <ele>531.4</ele>
        <time>2014-04-21T07:40:43Z</time>
      </trkpt>
      <trkpt lat="45.13846" lon="4.66026">
        <ele>531.3</ele>
        <time>2014-04-21T07:40:45Z</time>
      </trkpt>
      <trkpt lat="45.13849" lon="4.66019">
        <ele>531.2</ele>
        <time>2014-04-21T07:40:47Z</time>
      </trkpt>
      <trkpt lat="45.13852" lon="4.66011">
        <ele>531.1</ele>
        <time>2014-04-21T07:40:49Z</time>
      </trkpt>
      <trkpt lat="45.13855" lon="4.66004">
        <ele>530.9</ele>
        <time>2014-04-21T07:40:51Z</time>
      </trkpt>
      <trkpt lat="45.13858" lon="4.65997">
        <ele>530.8</ele>
        <time>2014-04-21T07:40:53Z</time>
      </trkpt>
      <trkpt lat="45.13861" lon="4.6599">
        <ele>530.8</ele>
        <time>2014-04-21T07:40:55Z</time>
      </trkpt>
      <trkpt lat="45.13864" lon="4.65983">
        <ele>530.7</ele>
        <time>2014-04-21T07:40:57Z</time>
      </trkpt>
      <trkpt lat="45.13868" lon="4.65977">
        <ele>530.6</ele>
        <time>2014-04-21T07:40:59Z</time>
      </trkpt>
      <trkpt lat="45.13871" lon="4.6597">
        <ele>530.5</ele>
        <time>2014-04-21T07:41:01Z</time>
      </trkpt>
      <trkpt lat="45.13878" lon="4.65955">
        <ele>530.4</ele>
        <time>2014-04-21T07:41:05Z</time>
      </trkpt>
      <trkpt lat="45.13882" lon="4.65948">
        <ele>530.3</ele>
        <time>2014-04-21T07:41:07Z</time>
      </trkpt>
      <trkpt lat="45.13885" lon="4.65941">
        <ele>530.2</ele>
        <time>2014-04-21T07:41:09Z</time>
      </trkpt>
      <trkpt lat="45.13888" lon="4.65935">
        <ele>530.2</ele>
        <time>2014-04-21T07:41:11Z</time>
      </trkpt>
      <trkpt lat="45.1389" lon="4.65928">
        <ele>530.1</ele>
        <time>2014-04-21T07:41:13Z</time>
      </trkpt>
      <trkpt lat="45.13894" lon="4.65922">
        <ele>530.1</ele>
        <time>2014-04-21T07:41:15Z</time>
      </trkpt>
      <trkpt lat="45.13897" lon="4.65915">
        <ele>530</ele>
        <time>2014-04-21T07:41:17Z</time>
      </trkpt>
      <trkpt lat="45.13899" lon="4.65909">
        <ele>530</ele>
        <time>2014-04-21T07:41:19Z</time>
      </trkpt>
      <trkpt lat="45.13901" lon="4.65902">
        <ele>529.9</ele>
        <time>2014-04-21T07:41:21Z</time>
      </trkpt>
      <trkpt lat="45.13903" lon="4.65896">
        <ele>529.9</ele>
        <time>2014-04-21T07:41:23Z</time>
      </trkpt>
      <trkpt lat="45.13904" lon="4.65889">
        <ele>530</ele>
        <time>2014-04-21T07:41:25Z</time>
      </trkpt>
      <trkpt lat="45.13904" lon="4.65882">
        <ele>530</ele>
        <time>2014-04-21T07:41:27Z</time>
      </trkpt>
      <trkpt lat="45.13904" lon="4.65875">
        <ele>530.1</ele>
        <time>2014-04-21T07:41:29Z</time>
      </trkpt>
      <trkpt lat="45.13904" lon="4.65868">
        <ele>530.2</ele>
        <time>2014-04-21T07:41:31Z</time>
      </trkpt>
      <trkpt lat="45.13905" lon="4.65861">
        <ele>530.2</ele>
        <time>2014-04-21T07:41:33Z</time>
      </trkpt>
      <trkpt lat="45.13905" lon="4.65853">
        <ele>530.3</ele>
        <time>2014-04-21T07:41:35Z</time>
      </trkpt>
      <trkpt lat="45.13906" lon="4.65846">
        <ele>530.4</ele>
        <time>2014-04-21T07:41:37Z</time>
      </trkpt>
      <trkpt lat="45.13905" lon="4.65839">
        <ele>530.5</ele>
        <time>2014-04-21T07:41:39Z</time>
      </trkpt>
      <trkpt lat="45.13905" lon="4.65831">
        <ele>530.6</ele>
        <time>2014-04-21T07:41:41Z</time>
      </trkpt>
      <trkpt lat="45.13905" lon="4.65824">
        <ele>530.7</ele>
        <time>2014-04-21T07:41:43Z</time>
      </trkpt>
      <trkpt lat="45.13904" lon="4.65816">
        <ele>530.9</ele>
        <time>2014-04-21T07:41:45Z</time>
      </trkpt>
      <trkpt lat="45.13904" lon="4.65808">
        <ele>531</ele>
        <time>2014-04-21T07:41:47Z</time>
      </trkpt>
      <trkpt lat="45.13903" lon="4.658">
        <ele>531.2</ele>
        <time>2014-04-21T07:41:49Z</time>
      </trkpt>
      <trkpt lat="45.13903" lon="4.65791">
        <ele>531.4</ele>
        <time>2014-04-21T07:41:51Z</time>
      </trkpt>
      <trkpt lat="45.13903" lon="4.65784">
        <ele>531.5</ele>
        <time>2014-04-21T07:41:53Z</time>
      </trkpt>
      <trkpt lat="45.13904" lon="4.65776">
        <ele>531.5</ele>
        <time>2014-04-21T07:41:55Z</time>
      </trkpt>
      <trkpt lat="45.13904" lon="4.65768">
        <ele>531.6</ele>
        <time>2014-04-21T07:41:57Z</time>
      </trkpt>
      <trkpt lat="45.13905" lon="4.65759">
        <ele>531.7</ele>
        <time>2014-04-21T07:41:59Z</time>
      </trkpt>
      <trkpt lat="45.13906" lon="4.65751">
        <ele>531.8</ele>
        <time>2014-04-21T07:42:01Z</time>
      </trkpt>
      <trkpt lat="45.13907" lon="4.65742">
        <ele>531.6</ele>
        <time>2014-04-21T07:42:03Z</time>
      </trkpt>
      <trkpt lat="45.13909" lon="4.65725">
        <ele>531.4</ele>
        <time>2014-04-21T07:42:07Z</time>
      </trkpt>
      <trkpt lat="45.13909" lon="4.65717">
        <ele>531.2</ele>
        <time>2014-04-21T07:42:09Z</time>
      </trkpt>
      <trkpt lat="45.1391" lon="4.65708">
        <ele>531.1</ele>
        <time>2014-04-21T07:42:11Z</time>
      </trkpt>
      <trkpt lat="45.1391" lon="4.657">
        <ele>531</ele>
        <time>2014-04-21T07:42:13Z</time>
      </trkpt>
      <trkpt lat="45.13911" lon="4.65691">
        <ele>530.9</ele>
        <time>2014-04-21T07:42:15Z</time>
      </trkpt>
      <trkpt lat="45.13911" lon="4.65682">
        <ele>530.7</ele>
        <time>2014-04-21T07:42:17Z</time>
      </trkpt>
      <trkpt lat="45.13912" lon="4.65673">
        <ele>530.6</ele>
        <time>2014-04-21T07:42:19Z</time>
      </trkpt>
      <trkpt lat="45.13911" lon="4.65665">
        <ele>530.5</ele>
        <time>2014-04-21T07:42:21Z</time>
      </trkpt>
      <trkpt lat="45.13911" lon="4.65657">
        <ele>530.4</ele>
        <time>2014-04-21T07:42:23Z</time>
      </trkpt>
      <trkpt lat="45.1391" lon="4.65649">
        <ele>530.3</ele>
        <time>2014-04-21T07:42:25Z</time>
      </trkpt>
      <trkpt lat="45.13909" lon="4.6564">
        <ele>530.2</ele>
        <time>2014-04-21T07:42:27Z</time>
      </trkpt>
      <trkpt lat="45.13908" lon="4.65631">
        <ele>530.2</ele>
        <time>2014-04-21T07:42:29Z</time>
      </trkpt>
      <trkpt lat="45.13906" lon="4.65622">
        <ele>530.2</ele>
        <time>2014-04-21T07:42:31Z</time>
      </trkpt>
      <trkpt lat="45.13904" lon="4.65613">
        <ele>530.2</ele>
        <time>2014-04-21T07:42:33Z</time>
      </trkpt>
      <trkpt lat="45.13901" lon="4.65605">
        <ele>530.3</ele>
        <time>2014-04-21T07:42:35Z</time>
      </trkpt>
      <trkpt lat="45.13899" lon="4.65598">
        <ele>530.5</ele>
        <time>2014-04-21T07:42:37Z</time>
      </trkpt>
      <trkpt lat="45.13896" lon="4.65591">
        <ele>530.6</ele>
        <time>2014-04-21T07:42:39Z</time>
      </trkpt>
      <trkpt lat="45.13893" lon="4.65584">
        <ele>530.9</ele>
        <time>2014-04-21T07:42:41Z</time>
      </trkpt>
      <trkpt lat="45.1389" lon="4.65575">
        <ele>530.8</ele>
        <time>2014-04-21T07:42:43Z</time>
      </trkpt>
      <trkpt lat="45.13887" lon="4.65565">
        <ele>530.8</ele>
        <time>2014-04-21T07:42:45Z</time>
      </trkpt>
      <trkpt lat="45.13883" lon="4.65555">
        <ele>530.7</ele>
        <time>2014-04-21T07:42:47Z</time>
      </trkpt>
      <trkpt lat="45.1388" lon="4.65547">
        <ele>530.7</ele>
        <time>2014-04-21T07:42:49Z</time>
      </trkpt>
      <trkpt lat="45.13875" lon="4.65541">
        <ele>530.9</ele>
        <time>2014-04-21T07:42:51Z</time>
      </trkpt>
      <trkpt lat="45.1387" lon="4.65535">
        <ele>531.2</ele>
        <time>2014-04-21T07:42:53Z</time>
      </trkpt>
      <trkpt lat="45.13866" lon="4.65529">
        <ele>531.3</ele>
        <time>2014-04-21T07:42:55Z</time>
      </trkpt>
      <trkpt lat="45.13861" lon="4.65523">
        <ele>531.5</ele>
        <time>2014-04-21T07:42:57Z</time>
      </trkpt>
      <trkpt lat="45.13856" lon="4.65516">
        <ele>531.6</ele>
        <time>2014-04-21T07:42:59Z</time>
      </trkpt>
      <trkpt lat="45.13851" lon="4.65511">
        <ele>531.9</ele>
        <time>2014-04-21T07:43:01Z</time>
      </trkpt>
      <trkpt lat="45.13847" lon="4.65505">
        <ele>531.9</ele>
        <time>2014-04-21T07:43:03Z</time>
      </trkpt>
      <trkpt lat="45.13842" lon="4.65499">
        <ele>532.1</ele>
        <time>2014-04-21T07:43:05Z</time>
      </trkpt>
      <trkpt lat="45.13832" lon="4.65486">
        <ele>532.5</ele>
        <time>2014-04-21T07:43:09Z</time>
      </trkpt>
      <trkpt lat="45.13827" lon="4.65479">
        <ele>532.7</ele>
        <time>2014-04-21T07:43:11Z</time>
      </trkpt>
      <trkpt lat="45.13821" lon="4.65472">
        <ele>532.9</ele>
        <time>2014-04-21T07:43:13Z</time>
      </trkpt>
      <trkpt lat="45.13816" lon="4.65465">
        <ele>533.2</ele>
        <time>2014-04-21T07:43:15Z</time>
      </trkpt>
      <trkpt lat="45.1381" lon="4.65458">
        <ele>533.4</ele>
        <time>2014-04-21T07:43:17Z</time>
      </trkpt>
      <trkpt lat="45.13804" lon="4.65451">
        <ele>533.8</ele>
        <time>2014-04-21T07:43:19Z</time>
      </trkpt>
      <trkpt lat="45.13798" lon="4.65443">
        <ele>534</ele>
        <time>2014-04-21T07:43:21Z</time>
      </trkpt>
      <trkpt lat="45.13793" lon="4.65435">
        <ele>534.3</ele>
        <time>2014-04-21T07:43:23Z</time>
      </trkpt>
      <trkpt lat="45.13786" lon="4.65427">
        <ele>534.6</ele>
        <time>2014-04-21T07:43:25Z</time>
      </trkpt>
      <trkpt lat="45.1378" lon="4.65419">
        <ele>534.9</ele>
        <time>2014-04-21T07:43:27Z</time>
      </trkpt>
      <trkpt lat="45.13774" lon="4.65411">
        <ele>535.1</ele>
        <time>2014-04-21T07:43:29Z</time>
      </trkpt>
      <trkpt lat="45.1377" lon="4.65407">
        <ele>535.3</ele>
        <time>2014-04-21T07:43:30Z</time>
      </trkpt>
      <trkpt lat="45.13764" lon="4.65398">
        <ele>535.6</ele>
        <time>2014-04-21T07:43:32Z</time>
      </trkpt>
      <trkpt lat="45.13758" lon="4.65391">
        <ele>535.9</ele>
        <time>2014-04-21T07:43:34Z</time>
      </trkpt>
      <trkpt lat="45.13752" lon="4.65383">
        <ele>536.2</ele>
        <time>2014-04-21T07:43:36Z</time>
      </trkpt>
      <trkpt lat="45.13746" lon="4.65375">
        <ele>536.4</ele>
        <time>2014-04-21T07:43:38Z</time>
      </trkpt>
      <trkpt lat="45.1374" lon="4.65367">
        <ele>536.6</ele>
        <time>2014-04-21T07:43:40Z</time>
      </trkpt>
      <trkpt lat="45.13734" lon="4.65359">
        <ele>536.8</ele>
        <time>2014-04-21T07:43:42Z</time>
      </trkpt>
      <trkpt lat="45.13728" lon="4.65352">
        <ele>537</ele>
        <time>2014-04-21T07:43:44Z</time>
      </trkpt>
      <trkpt lat="45.13722" lon="4.65344">
        <ele>537.2</ele>
        <time>2014-04-21T07:43:46Z</time>
      </trkpt>
      <trkpt lat="45.13716" lon="4.65336">
        <ele>537.4</ele>
        <time>2014-04-21T07:43:48Z</time>
      </trkpt>
      <trkpt lat="45.1371" lon="4.65328">
        <ele>537.7</ele>
        <time>2014-04-21T07:43:50Z</time>
      </trkpt>
      <trkpt lat="45.13704" lon="4.6532">
        <ele>538</ele>
        <time>2014-04-21T07:43:52Z</time>
      </trkpt>
      <trkpt lat="45.13698" lon="4.65312">
        <ele>538.3</ele>
        <time>2014-04-21T07:43:54Z</time>
      </trkpt>
      <trkpt lat="45.13692" lon="4.65304">
        <ele>538.7</ele>
        <time>2014-04-21T07:43:56Z</time>
      </trkpt>
      <trkpt lat="45.13686" lon="4.65296">
        <ele>539.1</ele>
        <time>2014-04-21T07:43:58Z</time>
      </trkpt>
      <trkpt lat="45.1368" lon="4.65288">
        <ele>539.5</ele>
        <time>2014-04-21T07:44:00Z</time>
      </trkpt>
      <trkpt lat="45.13674" lon="4.65281">
        <ele>540</ele>
        <time>2014-04-21T07:44:02Z</time>
      </trkpt>
      <trkpt lat="45.13668" lon="4.65273">
        <ele>540.4</ele>
        <time>2014-04-21T07:44:04Z</time>
      </trkpt>
      <trkpt lat="45.13662" lon="4.65265">
        <ele>540.8</ele>
        <time>2014-04-21T07:44:06Z</time>
      </trkpt>
      <trkpt lat="45.1365" lon="4.6525">
        <ele>541.4</ele>
        <time>2014-04-21T07:44:10Z</time>
      </trkpt>
      <trkpt lat="45.13644" lon="4.65242">
        <ele>541.7</ele>
        <time>2014-04-21T07:44:12Z</time>
      </trkpt>
      <trkpt lat="45.13638" lon="4.65234">
        <ele>541.9</ele>
        <time>2014-04-21T07:44:14Z</time>
      </trkpt>
      <trkpt lat="45.13631" lon="4.65226">
        <ele>542.1</ele>
        <time>2014-04-21T07:44:16Z</time>
      </trkpt>
      <trkpt lat="45.13625" lon="4.65219">
        <ele>542.4</ele>
        <time>2014-04-21T07:44:18Z</time>
      </trkpt>
      <trkpt lat="45.13619" lon="4.65211">
        <ele>542.5</ele>
        <time>2014-04-21T07:44:20Z</time>
      </trkpt>
      <trkpt lat="45.13612" lon="4.65204">
        <ele>542.7</ele>
        <time>2014-04-21T07:44:22Z</time>
      </trkpt>
      <trkpt lat="45.13606" lon="4.65197">
        <ele>542.9</ele>
        <time>2014-04-21T07:44:24Z</time>
      </trkpt>
      <trkpt lat="45.136" lon="4.65189">
        <ele>543</ele>
        <time>2014-04-21T07:44:26Z</time>
      </trkpt>
      <trkpt lat="45.13594" lon="4.65182">
        <ele>543</ele>
        <time>2014-04-21T07:44:28Z</time>
      </trkpt>
      <trkpt lat="45.13588" lon="4.65174">
        <ele>543.1</ele>
        <time>2014-04-21T07:44:30Z</time>
      </trkpt>
      <trkpt lat="45.13581" lon="4.65167">
        <ele>543.2</ele>
        <time>2014-04-21T07:44:32Z</time>
      </trkpt>
      <trkpt lat="45.13575" lon="4.6516">
        <ele>543.7</ele>
        <time>2014-04-21T07:44:34Z</time>
      </trkpt>
      <trkpt lat="45.13569" lon="4.65153">
        <ele>544.1</ele>
        <time>2014-04-21T07:44:36Z</time>
      </trkpt>
      <trkpt lat="45.13563" lon="4.65145">
        <ele>544.6</ele>
        <time>2014-04-21T07:44:38Z</time>
      </trkpt>
      <trkpt lat="45.13557" lon="4.65138">
        <ele>545</ele>
        <time>2014-04-21T07:44:40Z</time>
      </trkpt>
      <trkpt lat="45.1355" lon="4.65131">
        <ele>545.4</ele>
        <time>2014-04-21T07:44:42Z</time>
      </trkpt>
      <trkpt lat="45.13544" lon="4.65123">
        <ele>545.7</ele>
        <time>2014-04-21T07:44:44Z</time>
      </trkpt>
      <trkpt lat="45.13538" lon="4.65116">
        <ele>546</ele>
        <time>2014-04-21T07:44:46Z</time>
      </trkpt>
      <trkpt lat="45.13533" lon="4.65107">
        <ele>546.1</ele>
        <time>2014-04-21T07:44:48Z</time>
      </trkpt>
      <trkpt lat="45.13529" lon="4.65097">
        <ele>546.1</ele>
        <time>2014-04-21T07:44:50Z</time>
      </trkpt>
      <trkpt lat="45.13526" lon="4.65092">
        <ele>546.2</ele>
        <time>2014-04-21T07:44:51Z</time>
      </trkpt>
      <trkpt lat="45.13523" lon="4.65087">
        <ele>546.2</ele>
        <time>2014-04-21T07:44:52Z</time>
      </trkpt>
      <trkpt lat="45.13521" lon="4.6508">
        <ele>546</ele>
        <time>2014-04-21T07:44:53Z</time>
      </trkpt>
      <trkpt lat="45.13519" lon="4.65074">
        <ele>545.7</ele>
        <time>2014-04-21T07:44:54Z</time>
      </trkpt>
      <trkpt lat="45.13518" lon="4.65067">
        <ele>545.3</ele>
        <time>2014-04-21T07:44:55Z</time>
      </trkpt>
      <trkpt lat="45.13517" lon="4.6506">
        <ele>544.8</ele>
        <time>2014-04-21T07:44:56Z</time>
      </trkpt>
      <trkpt lat="45.13516" lon="4.65052">
        <ele>544.4</ele>
        <time>2014-04-21T07:44:57Z</time>
      </trkpt>
      <trkpt lat="45.13515" lon="4.65045">
        <ele>543.9</ele>
        <time>2014-04-21T07:44:58Z</time>
      </trkpt>
      <trkpt lat="45.13514" lon="4.65037">
        <ele>543.4</ele>
        <time>2014-04-21T07:44:59Z</time>
      </trkpt>
      <trkpt lat="45.13513" lon="4.65029">
        <ele>543</ele>
        <time>2014-04-21T07:45:00Z</time>
      </trkpt>
      <trkpt lat="45.13512" lon="4.65021">
        <ele>542.5</ele>
        <time>2014-04-21T07:45:01Z</time>
      </trkpt>
      <trkpt lat="45.1351" lon="4.65013">
        <ele>542.1</ele>
        <time>2014-04-21T07:45:02Z</time>
      </trkpt>
      <trkpt lat="45.13508" lon="4.65004">
        <ele>541.6</ele>
        <time>2014-04-21T07:45:03Z</time>
      </trkpt>
      <trkpt lat="45.13506" lon="4.64996">
        <ele>541.1</ele>
        <time>2014-04-21T07:45:04Z</time>
      </trkpt>
      <trkpt lat="45.13505" lon="4.64987">
        <ele>540.7</ele>
        <time>2014-04-21T07:45:05Z</time>
      </trkpt>
      <trkpt lat="45.13503" lon="4.64978">
        <ele>540.1</ele>
        <time>2014-04-21T07:45:06Z</time>
      </trkpt>
      <trkpt lat="45.13501" lon="4.64969">
        <ele>539.7</ele>
        <time>2014-04-21T07:45:07Z</time>
      </trkpt>
      <trkpt lat="45.13497" lon="4.64951">
        <ele>538.7</ele>
        <time>2014-04-21T07:45:09Z</time>
      </trkpt>
      <trkpt lat="45.13495" lon="4.64941">
        <ele>538.3</ele>
        <time>2014-04-21T07:45:10Z</time>
      </trkpt>
      <trkpt lat="45.13492" lon="4.64932">
        <ele>538</ele>
        <time>2014-04-21T07:45:11Z</time>
      </trkpt>
      <trkpt lat="45.13488" lon="4.64923">
        <ele>537.8</ele>
        <time>2014-04-21T07:45:12Z</time>
      </trkpt>
      <trkpt lat="45.13485" lon="4.64914">
        <ele>537.6</ele>
        <time>2014-04-21T07:45:13Z</time>
      </trkpt>
      <trkpt lat="45.1348" lon="4.64905">
        <ele>537.5</ele>
        <time>2014-04-21T07:45:14Z</time>
      </trkpt>
      <trkpt lat="45.13476" lon="4.64896">
        <ele>537.4</ele>
        <time>2014-04-21T07:45:15Z</time>
      </trkpt>
      <trkpt lat="45.13471" lon="4.64888">
        <ele>537.3</ele>
        <time>2014-04-21T07:45:16Z</time>
      </trkpt>
      <trkpt lat="45.13466" lon="4.64881">
        <ele>537.2</ele>
        <time>2014-04-21T07:45:17Z</time>
      </trkpt>
      <trkpt lat="45.13461" lon="4.64873">
        <ele>537</ele>
        <time>2014-04-21T07:45:18Z</time>
      </trkpt>
      <trkpt lat="45.13457" lon="4.64866">
        <ele>536.9</ele>
        <time>2014-04-21T07:45:19Z</time>
      </trkpt>
      <trkpt lat="45.13452" lon="4.64859">
        <ele>536.6</ele>
        <time>2014-04-21T07:45:20Z</time>
      </trkpt>
      <trkpt lat="45.13447" lon="4.64852">
        <ele>536.4</ele>
        <time>2014-04-21T07:45:21Z</time>
      </trkpt>
      <trkpt lat="45.13443" lon="4.64845">
        <ele>536.1</ele>
        <time>2014-04-21T07:45:22Z</time>
      </trkpt>
      <trkpt lat="45.13439" lon="4.64838">
        <ele>535.8</ele>
        <time>2014-04-21T07:45:23Z</time>
      </trkpt>
      <trkpt lat="45.13434" lon="4.64831">
        <ele>535.6</ele>
        <time>2014-04-21T07:45:24Z</time>
      </trkpt>
      <trkpt lat="45.1343" lon="4.64825">
        <ele>535.4</ele>
        <time>2014-04-21T07:45:25Z</time>
      </trkpt>
      <trkpt lat="45.13428" lon="4.64819">
        <ele>535.3</ele>
        <time>2014-04-21T07:45:26Z</time>
      </trkpt>
      <trkpt lat="45.13426" lon="4.64813">
        <ele>534.9</ele>
        <time>2014-04-21T07:45:27Z</time>
      </trkpt>
      <trkpt lat="45.13427" lon="4.64806">
        <ele>534.5</ele>
        <time>2014-04-21T07:45:28Z</time>
      </trkpt>
      <trkpt lat="45.13428" lon="4.64798">
        <ele>533.8</ele>
        <time>2014-04-21T07:45:29Z</time>
      </trkpt>
      <trkpt lat="45.1343" lon="4.64788">
        <ele>533</ele>
        <time>2014-04-21T07:45:30Z</time>
      </trkpt>
      <trkpt lat="45.13432" lon="4.64777">
        <ele>532</ele>
        <time>2014-04-21T07:45:31Z</time>
      </trkpt>
      <trkpt lat="45.13434" lon="4.64765">
        <ele>530.9</ele>
        <time>2014-04-21T07:45:32Z</time>
      </trkpt>
      <trkpt lat="45.13437" lon="4.64753">
        <ele>529.8</ele>
        <time>2014-04-21T07:45:33Z</time>
      </trkpt>
      <trkpt lat="45.13439" lon="4.6474">
        <ele>529.1</ele>
        <time>2014-04-21T07:45:34Z</time>
      </trkpt>
      <trkpt lat="45.13441" lon="4.64726">
        <ele>528.5</ele>
        <time>2014-04-21T07:45:35Z</time>
      </trkpt>
      <trkpt lat="45.13444" lon="4.64714">
        <ele>528</ele>
        <time>2014-04-21T07:45:36Z</time>
      </trkpt>
      <trkpt lat="45.13447" lon="4.64701">
        <ele>527.4</ele>
        <time>2014-04-21T07:45:37Z</time>
      </trkpt>
      <trkpt lat="45.13451" lon="4.6469">
        <ele>526.7</ele>
        <time>2014-04-21T07:45:38Z</time>
      </trkpt>
      <trkpt lat="45.13455" lon="4.6468">
        <ele>526.1</ele>
        <time>2014-04-21T07:45:39Z</time>
      </trkpt>
      <trkpt lat="45.13459" lon="4.64671">
        <ele>525.5</ele>
        <time>2014-04-21T07:45:40Z</time>
      </trkpt>
      <trkpt lat="45.13463" lon="4.64664">
        <ele>525.1</ele>
        <time>2014-04-21T07:45:41Z</time>
      </trkpt>
      <trkpt lat="45.13466" lon="4.64657">
        <ele>525.4</ele>
        <time>2014-04-21T07:45:42Z</time>
      </trkpt>
      <trkpt lat="45.13467" lon="4.64649">
        <ele>525.8</ele>
        <time>2014-04-21T07:45:43Z</time>
      </trkpt>
      <trkpt lat="45.13468" lon="4.64641">
        <ele>526.4</ele>
        <time>2014-04-21T07:45:44Z</time>
      </trkpt>
      <trkpt lat="45.13467" lon="4.64634">
        <ele>526.9</ele>
        <time>2014-04-21T07:45:45Z</time>
      </trkpt>
      <trkpt lat="45.13466" lon="4.64626">
        <ele>527.5</ele>
        <time>2014-04-21T07:45:46Z</time>
      </trkpt>
      <trkpt lat="45.13465" lon="4.64618">
        <ele>528.1</ele>
        <time>2014-04-21T07:45:47Z</time>
      </trkpt>
      <trkpt lat="45.13463" lon="4.6461">
        <ele>528.6</ele>
        <time>2014-04-21T07:45:48Z</time>
      </trkpt>
      <trkpt lat="45.13462" lon="4.64602">
        <ele>529.1</ele>
        <time>2014-04-21T07:45:49Z</time>
      </trkpt>
      <trkpt lat="45.13462" lon="4.64593">
        <ele>529.6</ele>
        <time>2014-04-21T07:45:50Z</time>
      </trkpt>
      <trkpt lat="45.13462" lon="4.64583">
        <ele>530.2</ele>
        <time>2014-04-21T07:45:51Z</time>
      </trkpt>
      <trkpt lat="45.13461" lon="4.64573">
        <ele>531.5</ele>
        <time>2014-04-21T07:45:52Z</time>
      </trkpt>
      <trkpt lat="45.13461" lon="4.64564">
        <ele>532.8</ele>
        <time>2014-04-21T07:45:53Z</time>
      </trkpt>
      <trkpt lat="45.13459" lon="4.64554">
        <ele>533.8</ele>
        <time>2014-04-21T07:45:54Z</time>
      </trkpt>
      <trkpt lat="45.13458" lon="4.64546">
        <ele>534.7</ele>
        <time>2014-04-21T07:45:55Z</time>
      </trkpt>
      <trkpt lat="45.13456" lon="4.64538">
        <ele>535.7</ele>
        <time>2014-04-21T07:45:56Z</time>
      </trkpt>
      <trkpt lat="45.13455" lon="4.64531">
        <ele>536.4</ele>
        <time>2014-04-21T07:45:57Z</time>
      </trkpt>
      <trkpt lat="45.13454" lon="4.64523">
        <ele>537.1</ele>
        <time>2014-04-21T07:45:58Z</time>
      </trkpt>
      <trkpt lat="45.13451" lon="4.64512">
        <ele>538.2</ele>
        <time>2014-04-21T07:46:00Z</time>
      </trkpt>
      <trkpt lat="45.13448" lon="4.64501">
        <ele>539</ele>
        <time>2014-04-21T07:46:02Z</time>
      </trkpt>
      <trkpt lat="45.1345" lon="4.64494">
        <ele>540.6</ele>
        <time>2014-04-21T07:46:04Z</time>
      </trkpt>
      <trkpt lat="45.13453" lon="4.6449">
        <ele>541.8</ele>
        <time>2014-04-21T07:46:06Z</time>
      </trkpt>
      <trkpt lat="45.13459" lon="4.64492">
        <ele>542.1</ele>
        <time>2014-04-21T07:46:11Z</time>
      </trkpt>
      <trkpt lat="45.13469" lon="4.64501">
        <ele>541.9</ele>
        <time>2014-04-21T07:46:16Z</time>
      </trkpt>
      <trkpt lat="45.13474" lon="4.64504">
        <ele>542</ele>
        <time>2014-04-21T07:46:18Z</time>
      </trkpt>
      <trkpt lat="45.13479" lon="4.64507">
        <ele>542.3</ele>
        <time>2014-04-21T07:46:20Z</time>
      </trkpt>
      <trkpt lat="45.13485" lon="4.6451">
        <ele>542.6</ele>
        <time>2014-04-21T07:46:22Z</time>
      </trkpt>
      <trkpt lat="45.1349" lon="4.64513">
        <ele>542.7</ele>
        <time>2014-04-21T07:46:24Z</time>
      </trkpt>
      <trkpt lat="45.13495" lon="4.64516">
        <ele>542.7</ele>
        <time>2014-04-21T07:46:26Z</time>
      </trkpt>
      <trkpt lat="45.13499" lon="4.6452">
        <ele>542.6</ele>
        <time>2014-04-21T07:46:28Z</time>
      </trkpt>
      <trkpt lat="45.13504" lon="4.64524">
        <ele>542.7</ele>
        <time>2014-04-21T07:46:31Z</time>
      </trkpt>
      <trkpt lat="45.1351" lon="4.64529">
        <ele>542.5</ele>
        <time>2014-04-21T07:46:34Z</time>
      </trkpt>
      <trkpt lat="45.13514" lon="4.64533">
        <ele>542.4</ele>
        <time>2014-04-21T07:46:36Z</time>
      </trkpt>
      <trkpt lat="45.13518" lon="4.64536">
        <ele>542.5</ele>
        <time>2014-04-21T07:46:38Z</time>
      </trkpt>
      <trkpt lat="45.13523" lon="4.64539">
        <ele>542.5</ele>
        <time>2014-04-21T07:46:40Z</time>
      </trkpt>
      <trkpt lat="45.13527" lon="4.64542">
        <ele>542.6</ele>
        <time>2014-04-21T07:46:42Z</time>
      </trkpt>
      <trkpt lat="45.13532" lon="4.64545">
        <ele>542.8</ele>
        <time>2014-04-21T07:46:44Z</time>
      </trkpt>
      <trkpt lat="45.13538" lon="4.64548">
        <ele>543</ele>
        <time>2014-04-21T07:46:46Z</time>
      </trkpt>
      <trkpt lat="45.13542" lon="4.64551">
        <ele>543.1</ele>
        <time>2014-04-21T07:46:48Z</time>
      </trkpt>
      <trkpt lat="45.13548" lon="4.64555">
        <ele>542.9</ele>
        <time>2014-04-21T07:46:51Z</time>
      </trkpt>
      <trkpt lat="45.13553" lon="4.64559">
        <ele>542.9</ele>
        <time>2014-04-21T07:46:54Z</time>
      </trkpt>
      <trkpt lat="45.13559" lon="4.64563">
        <ele>542.9</ele>
        <time>2014-04-21T07:46:57Z</time>
      </trkpt>
      <trkpt lat="45.13565" lon="4.64566">
        <ele>543.2</ele>
        <time>2014-04-21T07:47:00Z</time>
      </trkpt>
      <trkpt lat="45.13571" lon="4.64568">
        <ele>543.5</ele>
        <time>2014-04-21T07:47:03Z</time>
      </trkpt>
      <trkpt lat="45.13578" lon="4.64571">
        <ele>543.8</ele>
        <time>2014-04-21T07:47:06Z</time>
      </trkpt>
      <trkpt lat="45.13582" lon="4.64575">
        <ele>543.6</ele>
        <time>2014-04-21T07:47:08Z</time>
      </trkpt>
      <trkpt lat="45.13587" lon="4.64579">
        <ele>543.2</ele>
        <time>2014-04-21T07:47:10Z</time>
      </trkpt>
      <trkpt lat="45.13593" lon="4.64583">
        <ele>543</ele>
        <time>2014-04-21T07:47:12Z</time>
      </trkpt>
      <trkpt lat="45.13598" lon="4.64588">
        <ele>542.9</ele>
        <time>2014-04-21T07:47:14Z</time>
      </trkpt>
      <trkpt lat="45.13608" lon="4.64596">
        <ele>542.1</ele>
        <time>2014-04-21T07:47:18Z</time>
      </trkpt>
      <trkpt lat="45.13613" lon="4.646">
        <ele>542.2</ele>
        <time>2014-04-21T07:47:20Z</time>
      </trkpt>
      <trkpt lat="45.13619" lon="4.64604">
        <ele>541.9</ele>
        <time>2014-04-21T07:47:22Z</time>
      </trkpt>
      <trkpt lat="45.13624" lon="4.64607">
        <ele>541.7</ele>
        <time>2014-04-21T07:47:24Z</time>
      </trkpt>
      <trkpt lat="45.13629" lon="4.6461">
        <ele>541.8</ele>
        <time>2014-04-21T07:47:26Z</time>
      </trkpt>
      <trkpt lat="45.13634" lon="4.64612">
        <ele>541.8</ele>
        <time>2014-04-21T07:47:28Z</time>
      </trkpt>
      <trkpt lat="45.1364" lon="4.64615">
        <ele>541.9</ele>
        <time>2014-04-21T07:47:30Z</time>
      </trkpt>
      <trkpt lat="45.13646" lon="4.64617">
        <ele>541.9</ele>
        <time>2014-04-21T07:47:32Z</time>
      </trkpt>
      <trkpt lat="45.13651" lon="4.64619">
        <ele>542.2</ele>
        <time>2014-04-21T07:47:34Z</time>
      </trkpt>
      <trkpt lat="45.13656" lon="4.6462">
        <ele>542.5</ele>
        <time>2014-04-21T07:47:36Z</time>
      </trkpt>
      <trkpt lat="45.13661" lon="4.64621">
        <ele>542.8</ele>
        <time>2014-04-21T07:47:38Z</time>
      </trkpt>
      <trkpt lat="45.13667" lon="4.64623">
        <ele>543</ele>
        <time>2014-04-21T07:47:40Z</time>
      </trkpt>
      <trkpt lat="45.13673" lon="4.64623">
        <ele>544.2</ele>
        <time>2014-04-21T07:47:42Z</time>
      </trkpt>
      <trkpt lat="45.13678" lon="4.64624">
        <ele>544.9</ele>
        <time>2014-04-21T07:47:44Z</time>
      </trkpt>
      <trkpt lat="45.13685" lon="4.64624">
        <ele>546</ele>
        <time>2014-04-21T07:47:46Z</time>
      </trkpt>
      <trkpt lat="45.1369" lon="4.64624">
        <ele>546.9</ele>
        <time>2014-04-21T07:47:48Z</time>
      </trkpt>
      <trkpt lat="45.13696" lon="4.64623">
        <ele>548.2</ele>
        <time>2014-04-21T07:47:50Z</time>
      </trkpt>
      <trkpt lat="45.13703" lon="4.64623">
        <ele>549.4</ele>
        <time>2014-04-21T07:47:53Z</time>
      </trkpt>
      <trkpt lat="45.13707" lon="4.64623">
        <ele>550.3</ele>
        <time>2014-04-21T07:47:55Z</time>
      </trkpt>
      <trkpt lat="45.13713" lon="4.64624">
        <ele>551.1</ele>
        <time>2014-04-21T07:47:58Z</time>
      </trkpt>
      <trkpt lat="45.13719" lon="4.64623">
        <ele>552.5</ele>
        <time>2014-04-21T07:48:01Z</time>
      </trkpt>
      <trkpt lat="45.13724" lon="4.64623">
        <ele>553.3</ele>
        <time>2014-04-21T07:48:03Z</time>
      </trkpt>
      <trkpt lat="45.1373" lon="4.64622">
        <ele>554.4</ele>
        <time>2014-04-21T07:48:06Z</time>
      </trkpt>
      <trkpt lat="45.13735" lon="4.64621">
        <ele>555.6</ele>
        <time>2014-04-21T07:48:09Z</time>
      </trkpt>
      <trkpt lat="45.1374" lon="4.64621">
        <ele>556.6</ele>
        <time>2014-04-21T07:48:11Z</time>
      </trkpt>
      <trkpt lat="45.13746" lon="4.6462">
        <ele>557.7</ele>
        <time>2014-04-21T07:48:14Z</time>
      </trkpt>
      <trkpt lat="45.13751" lon="4.6462">
        <ele>558.5</ele>
        <time>2014-04-21T07:48:16Z</time>
      </trkpt>
      <trkpt lat="45.13761" lon="4.6462">
        <ele>558.9</ele>
        <time>2014-04-21T07:48:20Z</time>
      </trkpt>
      <trkpt lat="45.13765" lon="4.64622">
        <ele>558.9</ele>
        <time>2014-04-21T07:48:23Z</time>
      </trkpt>
      <trkpt lat="45.13771" lon="4.64625">
        <ele>558.7</ele>
        <time>2014-04-21T07:48:26Z</time>
      </trkpt>
      <trkpt lat="45.13776" lon="4.64628">
        <ele>558.3</ele>
        <time>2014-04-21T07:48:29Z</time>
      </trkpt>
      <trkpt lat="45.13781" lon="4.64632">
        <ele>558</ele>
        <time>2014-04-21T07:48:32Z</time>
      </trkpt>
      <trkpt lat="45.13787" lon="4.64634">
        <ele>557.8</ele>
        <time>2014-04-21T07:48:35Z</time>
      </trkpt>
      <trkpt lat="45.13792" lon="4.64638">
        <ele>557.7</ele>
        <time>2014-04-21T07:48:38Z</time>
      </trkpt>
      <trkpt lat="45.13797" lon="4.64641">
        <ele>557.4</ele>
        <time>2014-04-21T07:48:41Z</time>
      </trkpt>
      <trkpt lat="45.13803" lon="4.64644">
        <ele>557.3</ele>
        <time>2014-04-21T07:48:44Z</time>
      </trkpt>
      <trkpt lat="45.13809" lon="4.64649">
        <ele>556.9</ele>
        <time>2014-04-21T07:48:47Z</time>
      </trkpt>
      <trkpt lat="45.13813" lon="4.64652">
        <ele>556.8</ele>
        <time>2014-04-21T07:48:50Z</time>
      </trkpt>
      <trkpt lat="45.13819" lon="4.64656">
        <ele>556.6</ele>
        <time>2014-04-21T07:48:53Z</time>
      </trkpt>
      <trkpt lat="45.13822" lon="4.64661">
        <ele>556.1</ele>
        <time>2014-04-21T07:48:56Z</time>
      </trkpt>
      <trkpt lat="45.13826" lon="4.64663">
        <ele>556</ele>
        <time>2014-04-21T07:48:59Z</time>
      </trkpt>
      <trkpt lat="45.13831" lon="4.64668">
        <ele>555.8</ele>
        <time>2014-04-21T07:49:02Z</time>
      </trkpt>
      <trkpt lat="45.13836" lon="4.64673">
        <ele>555.2</ele>
        <time>2014-04-21T07:49:05Z</time>
      </trkpt>
      <trkpt lat="45.13842" lon="4.64676">
        <ele>554.5</ele>
        <time>2014-04-21T07:49:08Z</time>
      </trkpt>
      <trkpt lat="45.13847" lon="4.64679">
        <ele>554</ele>
        <time>2014-04-21T07:49:11Z</time>
      </trkpt>
      <trkpt lat="45.13851" lon="4.64683">
        <ele>553.3</ele>
        <time>2014-04-21T07:49:14Z</time>
      </trkpt>
      <trkpt lat="45.13855" lon="4.64686">
        <ele>552.8</ele>
        <time>2014-04-21T07:49:17Z</time>
      </trkpt>
      <trkpt lat="45.13861" lon="4.64687">
        <ele>552.5</ele>
        <time>2014-04-21T07:49:19Z</time>
      </trkpt>
      <trkpt lat="45.13873" lon="4.64691">
        <ele>551.6</ele>
        <time>2014-04-21T07:49:24Z</time>
      </trkpt>
      <trkpt lat="45.13879" lon="4.64695">
        <ele>550.8</ele>
        <time>2014-04-21T07:49:27Z</time>
      </trkpt>
      <trkpt lat="45.13885" lon="4.64698">
        <ele>550.3</ele>
        <time>2014-04-21T07:49:29Z</time>
      </trkpt>
      <trkpt lat="45.13889" lon="4.647">
        <ele>549.7</ele>
        <time>2014-04-21T07:49:31Z</time>
      </trkpt>
      <trkpt lat="45.13893" lon="4.64702">
        <ele>549.2</ele>
        <time>2014-04-21T07:49:33Z</time>
      </trkpt>
      <trkpt lat="45.13898" lon="4.64703">
        <ele>548.9</ele>
        <time>2014-04-21T07:49:35Z</time>
      </trkpt>
      <trkpt lat="45.13903" lon="4.64704">
        <ele>548.8</ele>
        <time>2014-04-21T07:49:37Z</time>
      </trkpt>
      <trkpt lat="45.13908" lon="4.64707">
        <ele>547.9</ele>
        <time>2014-04-21T07:49:39Z</time>
      </trkpt>
      <trkpt lat="45.13914" lon="4.64709">
        <ele>547.6</ele>
        <time>2014-04-21T07:49:41Z</time>
      </trkpt>
      <trkpt lat="45.13922" lon="4.64709">
        <ele>547.3</ele>
        <time>2014-04-21T07:49:43Z</time>
      </trkpt>
      <trkpt lat="45.13927" lon="4.64709">
        <ele>547.1</ele>
        <time>2014-04-21T07:49:45Z</time>
      </trkpt>
      <trkpt lat="45.13935" lon="4.64711">
        <ele>546.6</ele>
        <time>2014-04-21T07:49:47Z</time>
      </trkpt>
      <trkpt lat="45.13946" lon="4.64712">
        <ele>546</ele>
        <time>2014-04-21T07:49:49Z</time>
      </trkpt>
      <trkpt lat="45.13954" lon="4.64712">
        <ele>545.7</ele>
        <time>2014-04-21T07:49:51Z</time>
      </trkpt>
      <trkpt lat="45.1396" lon="4.64712">
        <ele>545.2</ele>
        <time>2014-04-21T07:49:53Z</time>
      </trkpt>
      <trkpt lat="45.13965" lon="4.64712">
        <ele>545</ele>
        <time>2014-04-21T07:49:55Z</time>
      </trkpt>
      <trkpt lat="45.13971" lon="4.64711">
        <ele>545.1</ele>
        <time>2014-04-21T07:49:57Z</time>
      </trkpt>
      <trkpt lat="45.13978" lon="4.64711">
        <ele>544.8</ele>
        <time>2014-04-21T07:49:59Z</time>
      </trkpt>
      <trkpt lat="45.13984" lon="4.64711">
        <ele>544.8</ele>
        <time>2014-04-21T07:50:01Z</time>
      </trkpt>
      <trkpt lat="45.13991" lon="4.64711">
        <ele>544.6</ele>
        <time>2014-04-21T07:50:03Z</time>
      </trkpt>
      <trkpt lat="45.13998" lon="4.6471">
        <ele>544.3</ele>
        <time>2014-04-21T07:50:05Z</time>
      </trkpt>
      <trkpt lat="45.14004" lon="4.64709">
        <ele>544.4</ele>
        <time>2014-04-21T07:50:07Z</time>
      </trkpt>
      <trkpt lat="45.14011" lon="4.64709">
        <ele>544.2</ele>
        <time>2014-04-21T07:50:09Z</time>
      </trkpt>
      <trkpt lat="45.14017" lon="4.64709">
        <ele>544.1</ele>
        <time>2014-04-21T07:50:11Z</time>
      </trkpt>
      <trkpt lat="45.14024" lon="4.64709">
        <ele>543.9</ele>
        <time>2014-04-21T07:50:13Z</time>
      </trkpt>
      <trkpt lat="45.14033" lon="4.64708">
        <ele>543.9</ele>
        <time>2014-04-21T07:50:15Z</time>
      </trkpt>
      <trkpt lat="45.14038" lon="4.64707">
        <ele>543.8</ele>
        <time>2014-04-21T07:50:16Z</time>
      </trkpt>
      <trkpt lat="45.14047" lon="4.64707">
        <ele>543.6</ele>
        <time>2014-04-21T07:50:18Z</time>
      </trkpt>
      <trkpt lat="45.14056" lon="4.64706">
        <ele>543.6</ele>
        <time>2014-04-21T07:50:20Z</time>
      </trkpt>
      <trkpt lat="45.14061" lon="4.64705">
        <ele>543.7</ele>
        <time>2014-04-21T07:50:21Z</time>
      </trkpt>
      <trkpt lat="45.1407" lon="4.64706">
        <ele>543.5</ele>
        <time>2014-04-21T07:50:23Z</time>
      </trkpt>
      <trkpt lat="45.14075" lon="4.64706">
        <ele>543.2</ele>
        <time>2014-04-21T07:50:24Z</time>
      </trkpt>
      <trkpt lat="45.14079" lon="4.64706">
        <ele>543.1</ele>
        <time>2014-04-21T07:50:25Z</time>
      </trkpt>
      <trkpt lat="45.14084" lon="4.64706">
        <ele>543</ele>
        <time>2014-04-21T07:50:26Z</time>
      </trkpt>
      <trkpt lat="45.14088" lon="4.64706">
        <ele>543.2</ele>
        <time>2014-04-21T07:50:27Z</time>
      </trkpt>
      <trkpt lat="45.14097" lon="4.64705">
        <ele>543.8</ele>
        <time>2014-04-21T07:50:29Z</time>
      </trkpt>
      <trkpt lat="45.14102" lon="4.64703">
        <ele>544.2</ele>
        <time>2014-04-21T07:50:30Z</time>
      </trkpt>
      <trkpt lat="45.14107" lon="4.64702">
        <ele>544.6</ele>
        <time>2014-04-21T07:50:31Z</time>
      </trkpt>
      <trkpt lat="45.14115" lon="4.647">
        <ele>545.4</ele>
        <time>2014-04-21T07:50:33Z</time>
      </trkpt>
      <trkpt lat="45.14123" lon="4.64698">
        <ele>546</ele>
        <time>2014-04-21T07:50:35Z</time>
      </trkpt>
      <trkpt lat="45.14131" lon="4.64696">
        <ele>546.8</ele>
        <time>2014-04-21T07:50:37Z</time>
      </trkpt>
      <trkpt lat="45.14138" lon="4.64694">
        <ele>547.5</ele>
        <time>2014-04-21T07:50:39Z</time>
      </trkpt>
      <trkpt lat="45.14146" lon="4.64691">
        <ele>548.2</ele>
        <time>2014-04-21T07:50:41Z</time>
      </trkpt>
      <trkpt lat="45.14152" lon="4.64689">
        <ele>548.7</ele>
        <time>2014-04-21T07:50:43Z</time>
      </trkpt>
      <trkpt lat="45.14159" lon="4.64687">
        <ele>549.4</ele>
        <time>2014-04-21T07:50:45Z</time>
      </trkpt>
      <trkpt lat="45.14166" lon="4.64685">
        <ele>549.9</ele>
        <time>2014-04-21T07:50:47Z</time>
      </trkpt>
      <trkpt lat="45.14171" lon="4.64683">
        <ele>550.7</ele>
        <time>2014-04-21T07:50:49Z</time>
      </trkpt>
      <trkpt lat="45.14177" lon="4.6468">
        <ele>551.5</ele>
        <time>2014-04-21T07:50:51Z</time>
      </trkpt>
      <trkpt lat="45.14183" lon="4.64677">
        <ele>552.2</ele>
        <time>2014-04-21T07:50:54Z</time>
      </trkpt>
      <trkpt lat="45.14187" lon="4.64675">
        <ele>552.9</ele>
        <time>2014-04-21T07:50:56Z</time>
      </trkpt>
      <trkpt lat="45.14192" lon="4.64673">
        <ele>553.5</ele>
        <time>2014-04-21T07:50:58Z</time>
      </trkpt>
      <trkpt lat="45.14196" lon="4.6467">
        <ele>554.1</ele>
        <time>2014-04-21T07:51:00Z</time>
      </trkpt>
      <trkpt lat="45.14201" lon="4.64667">
        <ele>554.7</ele>
        <time>2014-04-21T07:51:02Z</time>
      </trkpt>
      <trkpt lat="45.14206" lon="4.64664">
        <ele>555</ele>
        <time>2014-04-21T07:51:04Z</time>
      </trkpt>
      <trkpt lat="45.1421" lon="4.64661">
        <ele>555.4</ele>
        <time>2014-04-21T07:51:06Z</time>
      </trkpt>
      <trkpt lat="45.14215" lon="4.64658">
        <ele>555.6</ele>
        <time>2014-04-21T07:51:08Z</time>
      </trkpt>
      <trkpt lat="45.14219" lon="4.64656">
        <ele>555.9</ele>
        <time>2014-04-21T07:51:10Z</time>
      </trkpt>
      <trkpt lat="45.14226" lon="4.64654">
        <ele>556.2</ele>
        <time>2014-04-21T07:51:13Z</time>
      </trkpt>
      <trkpt lat="45.14232" lon="4.64651">
        <ele>556.4</ele>
        <time>2014-04-21T07:51:16Z</time>
      </trkpt>
      <trkpt lat="45.14236" lon="4.6465">
        <ele>556.6</ele>
        <time>2014-04-21T07:51:18Z</time>
      </trkpt>
      <trkpt lat="45.14242" lon="4.64647">
        <ele>556.8</ele>
        <time>2014-04-21T07:51:21Z</time>
      </trkpt>
      <trkpt lat="45.14248" lon="4.64644">
        <ele>557</ele>
        <time>2014-04-21T07:51:24Z</time>
      </trkpt>
      <trkpt lat="45.14259" lon="4.64639">
        <ele>556.6</ele>
        <time>2014-04-21T07:51:30Z</time>
      </trkpt>
      <trkpt lat="45.14264" lon="4.64636">
        <ele>556.3</ele>
        <time>2014-04-21T07:51:33Z</time>
      </trkpt>
      <trkpt lat="45.1427" lon="4.64635">
        <ele>556</ele>
        <time>2014-04-21T07:51:36Z</time>
      </trkpt>
      <trkpt lat="45.14274" lon="4.64634">
        <ele>555.7</ele>
        <time>2014-04-21T07:51:39Z</time>
      </trkpt>
      <trkpt lat="45.1428" lon="4.64632">
        <ele>555.4</ele>
        <time>2014-04-21T07:51:42Z</time>
      </trkpt>
      <trkpt lat="45.14286" lon="4.6463">
        <ele>555</ele>
        <time>2014-04-21T07:51:45Z</time>
      </trkpt>
      <trkpt lat="45.14292" lon="4.64628">
        <ele>554.6</ele>
        <time>2014-04-21T07:51:48Z</time>
      </trkpt>
      <trkpt lat="45.14298" lon="4.64624">
        <ele>554.1</ele>
        <time>2014-04-21T07:51:51Z</time>
      </trkpt>
      <trkpt lat="45.14302" lon="4.64622">
        <ele>553.7</ele>
        <time>2014-04-21T07:51:53Z</time>
      </trkpt>
      <trkpt lat="45.14307" lon="4.64619">
        <ele>553.3</ele>
        <time>2014-04-21T07:51:55Z</time>
      </trkpt>
      <trkpt lat="45.14312" lon="4.64621">
        <ele>553.1</ele>
        <time>2014-04-21T07:51:57Z</time>
      </trkpt>
      <trkpt lat="45.14318" lon="4.64628">
        <ele>553.1</ele>
        <time>2014-04-21T07:51:59Z</time>
      </trkpt>
      <trkpt lat="45.14322" lon="4.64631">
        <ele>553</ele>
        <time>2014-04-21T07:52:00Z</time>
      </trkpt>
      <trkpt lat="45.14327" lon="4.64633">
        <ele>552.9</ele>
        <time>2014-04-21T07:52:01Z</time>
      </trkpt>
      <trkpt lat="45.14332" lon="4.64636">
        <ele>552.8</ele>
        <time>2014-04-21T07:52:02Z</time>
      </trkpt>
      <trkpt lat="45.14337" lon="4.64638">
        <ele>552.7</ele>
        <time>2014-04-21T07:52:03Z</time>
      </trkpt>
      <trkpt lat="45.14343" lon="4.6464">
        <ele>552.4</ele>
        <time>2014-04-21T07:52:04Z</time>
      </trkpt>
      <trkpt lat="45.14348" lon="4.64642">
        <ele>552.2</ele>
        <time>2014-04-21T07:52:05Z</time>
      </trkpt>
      <trkpt lat="45.14353" lon="4.64645">
        <ele>552</ele>
        <time>2014-04-21T07:52:06Z</time>
      </trkpt>
      <trkpt lat="45.14358" lon="4.64647">
        <ele>551.8</ele>
        <time>2014-04-21T07:52:07Z</time>
      </trkpt>
      <trkpt lat="45.14363" lon="4.64649">
        <ele>551.6</ele>
        <time>2014-04-21T07:52:08Z</time>
      </trkpt>
      <trkpt lat="45.14368" lon="4.64652">
        <ele>551.4</ele>
        <time>2014-04-21T07:52:09Z</time>
      </trkpt>
      <trkpt lat="45.14373" lon="4.64654">
        <ele>551.3</ele>
        <time>2014-04-21T07:52:10Z</time>
      </trkpt>
      <trkpt lat="45.14379" lon="4.64657">
        <ele>551</ele>
        <time>2014-04-21T07:52:11Z</time>
      </trkpt>
      <trkpt lat="45.14386" lon="4.64659">
        <ele>550.7</ele>
        <time>2014-04-21T07:52:12Z</time>
      </trkpt>
      <trkpt lat="45.14392" lon="4.64662">
        <ele>550.5</ele>
        <time>2014-04-21T07:52:13Z</time>
      </trkpt>
      <trkpt lat="45.14397" lon="4.64665">
        <ele>550.3</ele>
        <time>2014-04-21T07:52:14Z</time>
      </trkpt>
      <trkpt lat="45.14402" lon="4.64668">
        <ele>550.1</ele>
        <time>2014-04-21T07:52:15Z</time>
      </trkpt>
      <trkpt lat="45.14406" lon="4.64671">
        <ele>549.8</ele>
        <time>2014-04-21T07:52:16Z</time>
      </trkpt>
      <trkpt lat="45.14411" lon="4.64674">
        <ele>549.4</ele>
        <time>2014-04-21T07:52:17Z</time>
      </trkpt>
      <trkpt lat="45.14415" lon="4.64677">
        <ele>549.1</ele>
        <time>2014-04-21T07:52:18Z</time>
      </trkpt>
      <trkpt lat="45.14419" lon="4.6468">
        <ele>548.7</ele>
        <time>2014-04-21T07:52:19Z</time>
      </trkpt>
      <trkpt lat="45.14423" lon="4.64683">
        <ele>548.3</ele>
        <time>2014-04-21T07:52:20Z</time>
      </trkpt>
      <trkpt lat="45.14428" lon="4.64687">
        <ele>547.7</ele>
        <time>2014-04-21T07:52:21Z</time>
      </trkpt>
      <trkpt lat="45.14433" lon="4.6469">
        <ele>547.2</ele>
        <time>2014-04-21T07:52:22Z</time>
      </trkpt>
      <trkpt lat="45.14437" lon="4.64694">
        <ele>546.8</ele>
        <time>2014-04-21T07:52:23Z</time>
      </trkpt>
      <trkpt lat="45.14445" lon="4.64698">
        <ele>545.8</ele>
        <time>2014-04-21T07:52:24Z</time>
      </trkpt>
      <trkpt lat="45.14451" lon="4.64702">
        <ele>545.2</ele>
        <time>2014-04-21T07:52:25Z</time>
      </trkpt>
      <trkpt lat="45.14461" lon="4.64709">
        <ele>543.9</ele>
        <time>2014-04-21T07:52:27Z</time>
      </trkpt>
      <trkpt lat="45.14467" lon="4.64711">
        <ele>543.3</ele>
        <time>2014-04-21T07:52:28Z</time>
      </trkpt>
      <trkpt lat="45.14473" lon="4.64714">
        <ele>542.5</ele>
        <time>2014-04-21T07:52:29Z</time>
      </trkpt>
      <trkpt lat="45.14481" lon="4.64717">
        <ele>541.7</ele>
        <time>2014-04-21T07:52:30Z</time>
      </trkpt>
      <trkpt lat="45.14488" lon="4.6472">
        <ele>540.8</ele>
        <time>2014-04-21T07:52:31Z</time>
      </trkpt>
      <trkpt lat="45.14496" lon="4.64723">
        <ele>539.8</ele>
        <time>2014-04-21T07:52:32Z</time>
      </trkpt>
      <trkpt lat="45.14503" lon="4.64726">
        <ele>538.9</ele>
        <time>2014-04-21T07:52:33Z</time>
      </trkpt>
      <trkpt lat="45.14511" lon="4.64729">
        <ele>537.9</ele>
        <time>2014-04-21T07:52:34Z</time>
      </trkpt>
      <trkpt lat="45.14518" lon="4.64731">
        <ele>537</ele>
        <time>2014-04-21T07:52:35Z</time>
      </trkpt>
      <trkpt lat="45.14524" lon="4.64733">
        <ele>536.2</ele>
        <time>2014-04-21T07:52:36Z</time>
      </trkpt>
      <trkpt lat="45.1453" lon="4.64734">
        <ele>535.4</ele>
        <time>2014-04-21T07:52:37Z</time>
      </trkpt>
      <trkpt lat="45.14536" lon="4.64736">
        <ele>534.7</ele>
        <time>2014-04-21T07:52:38Z</time>
      </trkpt>
      <trkpt lat="45.14542" lon="4.64738">
        <ele>534</ele>
        <time>2014-04-21T07:52:39Z</time>
      </trkpt>
      <trkpt lat="45.14548" lon="4.6474">
        <ele>533.2</ele>
        <time>2014-04-21T07:52:40Z</time>
      </trkpt>
      <trkpt lat="45.14555" lon="4.64743">
        <ele>532.4</ele>
        <time>2014-04-21T07:52:41Z</time>
      </trkpt>
      <trkpt lat="45.14561" lon="4.64746">
        <ele>531.6</ele>
        <time>2014-04-21T07:52:42Z</time>
      </trkpt>
      <trkpt lat="45.14568" lon="4.64749">
        <ele>530.8</ele>
        <time>2014-04-21T07:52:43Z</time>
      </trkpt>
      <trkpt lat="45.14574" lon="4.64752">
        <ele>530.1</ele>
        <time>2014-04-21T07:52:44Z</time>
      </trkpt>
      <trkpt lat="45.14579" lon="4.64753">
        <ele>529.6</ele>
        <time>2014-04-21T07:52:45Z</time>
      </trkpt>
      <trkpt lat="45.14586" lon="4.64749">
        <ele>528.8</ele>
        <time>2014-04-21T07:52:47Z</time>
      </trkpt>
      <trkpt lat="45.14589" lon="4.6474">
        <ele>528.4</ele>
        <time>2014-04-21T07:52:49Z</time>
      </trkpt>
      <trkpt lat="45.1459" lon="4.64733">
        <ele>528.1</ele>
        <time>2014-04-21T07:52:51Z</time>
      </trkpt>
      <trkpt lat="45.14592" lon="4.64725">
        <ele>527.9</ele>
        <time>2014-04-21T07:52:53Z</time>
      </trkpt>
      <trkpt lat="45.14593" lon="4.64716">
        <ele>527.6</ele>
        <time>2014-04-21T07:52:55Z</time>
      </trkpt>
      <trkpt lat="45.14594" lon="4.64706">
        <ele>527.4</ele>
        <time>2014-04-21T07:52:57Z</time>
      </trkpt>
      <trkpt lat="45.14594" lon="4.64697">
        <ele>527.2</ele>
        <time>2014-04-21T07:52:59Z</time>
      </trkpt>
      <trkpt lat="45.14594" lon="4.64686">
        <ele>527.1</ele>
        <time>2014-04-21T07:53:01Z</time>
      </trkpt>
      <trkpt lat="45.14593" lon="4.64677">
        <ele>527</ele>
        <time>2014-04-21T07:53:03Z</time>
      </trkpt>
      <trkpt lat="45.14593" lon="4.64668">
        <ele>526.9</ele>
        <time>2014-04-21T07:53:05Z</time>
      </trkpt>
      <trkpt lat="45.14591" lon="4.64658">
        <ele>526.6</ele>
        <time>2014-04-21T07:53:07Z</time>
      </trkpt>
      <trkpt lat="45.14589" lon="4.64647">
        <ele>526.2</ele>
        <time>2014-04-21T07:53:09Z</time>
      </trkpt>
      <trkpt lat="45.14587" lon="4.64637">
        <ele>525.9</ele>
        <time>2014-04-21T07:53:11Z</time>
      </trkpt>
      <trkpt lat="45.14584" lon="4.64627">
        <ele>525.5</ele>
        <time>2014-04-21T07:53:13Z</time>
      </trkpt>
      <trkpt lat="45.14581" lon="4.64618">
        <ele>525.4</ele>
        <time>2014-04-21T07:53:15Z</time>
      </trkpt>
      <trkpt lat="45.14578" lon="4.64609">
        <ele>525.3</ele>
        <time>2014-04-21T07:53:17Z</time>
      </trkpt>
      <trkpt lat="45.14574" lon="4.64601">
        <ele>525.4</ele>
        <time>2014-04-21T07:53:19Z</time>
      </trkpt>
      <trkpt lat="45.14568" lon="4.64592">
        <ele>525.9</ele>
        <time>2014-04-21T07:53:21Z</time>
      </trkpt>
      <trkpt lat="45.14566" lon="4.64587">
        <ele>525.9</ele>
        <time>2014-04-21T07:53:22Z</time>
      </trkpt>
      <trkpt lat="45.14563" lon="4.64581">
        <ele>526.2</ele>
        <time>2014-04-21T07:53:23Z</time>
      </trkpt>
      <trkpt lat="45.1456" lon="4.64575">
        <ele>526.6</ele>
        <time>2014-04-21T07:53:24Z</time>
      </trkpt>
      <trkpt lat="45.14557" lon="4.64568">
        <ele>527.1</ele>
        <time>2014-04-21T07:53:25Z</time>
      </trkpt>
      <trkpt lat="45.14553" lon="4.64561">
        <ele>527.4</ele>
        <time>2014-04-21T07:53:26Z</time>
      </trkpt>
      <trkpt lat="45.14548" lon="4.64548">
        <ele>527.8</ele>
        <time>2014-04-21T07:53:28Z</time>
      </trkpt>
      <trkpt lat="45.14546" lon="4.64542">
        <ele>527.9</ele>
        <time>2014-04-21T07:53:29Z</time>
      </trkpt>
      <trkpt lat="45.14544" lon="4.64535">
        <ele>527.9</ele>
        <time>2014-04-21T07:53:30Z</time>
      </trkpt>
      <trkpt lat="45.14542" lon="4.64528">
        <ele>527.8</ele>
        <time>2014-04-21T07:53:31Z</time>
      </trkpt>
      <trkpt lat="45.1454" lon="4.64521">
        <ele>527.7</ele>
        <time>2014-04-21T07:53:32Z</time>
      </trkpt>
      <trkpt lat="45.14539" lon="4.64515">
        <ele>527.6</ele>
        <time>2014-04-21T07:53:33Z</time>
      </trkpt>
      <trkpt lat="45.14537" lon="4.64508">
        <ele>527.4</ele>
        <time>2014-04-21T07:53:34Z</time>
      </trkpt>
      <trkpt lat="45.14535" lon="4.64501">
        <ele>527.1</ele>
        <time>2014-04-21T07:53:35Z</time>
      </trkpt>
      <trkpt lat="45.14534" lon="4.64494">
        <ele>527.7</ele>
        <time>2014-04-21T07:53:36Z</time>
      </trkpt>
      <trkpt lat="45.14533" lon="4.64486">
        <ele>528.3</ele>
        <time>2014-04-21T07:53:37Z</time>
      </trkpt>
      <trkpt lat="45.14533" lon="4.64479">
        <ele>528.9</ele>
        <time>2014-04-21T07:53:38Z</time>
      </trkpt>
      <trkpt lat="45.14533" lon="4.64472">
        <ele>529.5</ele>
        <time>2014-04-21T07:53:39Z</time>
      </trkpt>
      <trkpt lat="45.14533" lon="4.64465">
        <ele>530</ele>
        <time>2014-04-21T07:53:40Z</time>
      </trkpt>
      <trkpt lat="45.14534" lon="4.64458">
        <ele>530.5</ele>
        <time>2014-04-21T07:53:41Z</time>
      </trkpt>
      <trkpt lat="45.14535" lon="4.64452">
        <ele>531</ele>
        <time>2014-04-21T07:53:42Z</time>
      </trkpt>
      <trkpt lat="45.14536" lon="4.64446">
        <ele>531.5</ele>
        <time>2014-04-21T07:53:43Z</time>
      </trkpt>
      <trkpt lat="45.14538" lon="4.64434">
        <ele>532.5</ele>
        <time>2014-04-21T07:53:45Z</time>
      </trkpt>
      <trkpt lat="45.14542" lon="4.64423">
        <ele>533.5</ele>
        <time>2014-04-21T07:53:47Z</time>
      </trkpt>
      <trkpt lat="45.14545" lon="4.64415">
        <ele>534.2</ele>
        <time>2014-04-21T07:53:49Z</time>
      </trkpt>
      <trkpt lat="45.14548" lon="4.64408">
        <ele>535.2</ele>
        <time>2014-04-21T07:53:51Z</time>
      </trkpt>
      <trkpt lat="45.14552" lon="4.64403">
        <ele>535.9</ele>
        <time>2014-04-21T07:53:53Z</time>
      </trkpt>
      <trkpt lat="45.14556" lon="4.64398">
        <ele>536.5</ele>
        <time>2014-04-21T07:53:55Z</time>
      </trkpt>
      <trkpt lat="45.14561" lon="4.64393">
        <ele>537</ele>
        <time>2014-04-21T07:53:57Z</time>
      </trkpt>
      <trkpt lat="45.14566" lon="4.6439">
        <ele>537.5</ele>
        <time>2014-04-21T07:53:59Z</time>
      </trkpt>
      <trkpt lat="45.14571" lon="4.64385">
        <ele>537.9</ele>
        <time>2014-04-21T07:54:02Z</time>
      </trkpt>
      <trkpt lat="45.14576" lon="4.6438">
        <ele>538.6</ele>
        <time>2014-04-21T07:54:05Z</time>
      </trkpt>
      <trkpt lat="45.1458" lon="4.64374">
        <ele>539.1</ele>
        <time>2014-04-21T07:54:08Z</time>
      </trkpt>
      <trkpt lat="45.14584" lon="4.64369">
        <ele>539.6</ele>
        <time>2014-04-21T07:54:11Z</time>
      </trkpt>
      <trkpt lat="45.14588" lon="4.64364">
        <ele>540</ele>
        <time>2014-04-21T07:54:14Z</time>
      </trkpt>
      <trkpt lat="45.14592" lon="4.64359">
        <ele>540.5</ele>
        <time>2014-04-21T07:54:17Z</time>
      </trkpt>
      <trkpt lat="45.14596" lon="4.64354">
        <ele>540.9</ele>
        <time>2014-04-21T07:54:20Z</time>
      </trkpt>
      <trkpt lat="45.14599" lon="4.64349">
        <ele>541.3</ele>
        <time>2014-04-21T07:54:23Z</time>
      </trkpt>
      <trkpt lat="45.14604" lon="4.64344">
        <ele>541.6</ele>
        <time>2014-04-21T07:54:26Z</time>
      </trkpt>
      <trkpt lat="45.14608" lon="4.64342">
        <ele>541.7</ele>
        <time>2014-04-21T07:54:29Z</time>
      </trkpt>
      <trkpt lat="45.14616" lon="4.64333">
        <ele>542.3</ele>
        <time>2014-04-21T07:54:35Z</time>
      </trkpt>
      <trkpt lat="45.14621" lon="4.64329">
        <ele>542.5</ele>
        <time>2014-04-21T07:54:39Z</time>
      </trkpt>
      <trkpt lat="45.14625" lon="4.64324">
        <ele>542.7</ele>
        <time>2014-04-21T07:54:42Z</time>
      </trkpt>
      <trkpt lat="45.14629" lon="4.64319">
        <ele>543</ele>
        <time>2014-04-21T07:54:45Z</time>
      </trkpt>
      <trkpt lat="45.14633" lon="4.64312">
        <ele>543.4</ele>
        <time>2014-04-21T07:54:48Z</time>
      </trkpt>
      <trkpt lat="45.14637" lon="4.64306">
        <ele>543.8</ele>
        <time>2014-04-21T07:54:51Z</time>
      </trkpt>
      <trkpt lat="45.14641" lon="4.64299">
        <ele>544.2</ele>
        <time>2014-04-21T07:54:54Z</time>
      </trkpt>
      <trkpt lat="45.14644" lon="4.64292">
        <ele>544.5</ele>
        <time>2014-04-21T07:54:57Z</time>
      </trkpt>
      <trkpt lat="45.14648" lon="4.64284">
        <ele>545</ele>
        <time>2014-04-21T07:55:00Z</time>
      </trkpt>
      <trkpt lat="45.14651" lon="4.64276">
        <ele>545.5</ele>
        <time>2014-04-21T07:55:03Z</time>
      </trkpt>
      <trkpt lat="45.14655" lon="4.6427">
        <ele>545.9</ele>
        <time>2014-04-21T07:55:06Z</time>
      </trkpt>
      <trkpt lat="45.14658" lon="4.64263">
        <ele>546.3</ele>
        <time>2014-04-21T07:55:09Z</time>
      </trkpt>
      <trkpt lat="45.14661" lon="4.64256">
        <ele>546.7</ele>
        <time>2014-04-21T07:55:12Z</time>
      </trkpt>
      <trkpt lat="45.14664" lon="4.6425">
        <ele>547.1</ele>
        <time>2014-04-21T07:55:15Z</time>
      </trkpt>
      <trkpt lat="45.14668" lon="4.64242">
        <ele>547.5</ele>
        <time>2014-04-21T07:55:18Z</time>
      </trkpt>
      <trkpt lat="45.14671" lon="4.64234">
        <ele>548.4</ele>
        <time>2014-04-21T07:55:21Z</time>
      </trkpt>
      <trkpt lat="45.14674" lon="4.64226">
        <ele>549.3</ele>
        <time>2014-04-21T07:55:24Z</time>
      </trkpt>
      <trkpt lat="45.14676" lon="4.64221">
        <ele>549.9</ele>
        <time>2014-04-21T07:55:26Z</time>
      </trkpt>
      <trkpt lat="45.14679" lon="4.64215">
        <ele>550.7</ele>
        <time>2014-04-21T07:55:28Z</time>
      </trkpt>
      <trkpt lat="45.14683" lon="4.64211">
        <ele>551.6</ele>
        <time>2014-04-21T07:55:30Z</time>
      </trkpt>
      <trkpt lat="45.14687" lon="4.64207">
        <ele>552.5</ele>
        <time>2014-04-21T07:55:32Z</time>
      </trkpt>
      <trkpt lat="45.14695" lon="4.64195">
        <ele>554.3</ele>
        <time>2014-04-21T07:55:37Z</time>
      </trkpt>
      <trkpt lat="45.14698" lon="4.6419">
        <ele>555.1</ele>
        <time>2014-04-21T07:55:39Z</time>
      </trkpt>
      <trkpt lat="45.14702" lon="4.64186">
        <ele>555.9</ele>
        <time>2014-04-21T07:55:41Z</time>
      </trkpt>
      <trkpt lat="45.14707" lon="4.6418">
        <ele>556.9</ele>
        <time>2014-04-21T07:55:44Z</time>
      </trkpt>
      <trkpt lat="45.1471" lon="4.64175">
        <ele>557.7</ele>
        <time>2014-04-21T07:55:46Z</time>
      </trkpt>
      <trkpt lat="45.14714" lon="4.6417">
        <ele>558.4</ele>
        <time>2014-04-21T07:55:48Z</time>
      </trkpt>
      <trkpt lat="45.14717" lon="4.64165">
        <ele>559.2</ele>
        <time>2014-04-21T07:55:50Z</time>
      </trkpt>
      <trkpt lat="45.14721" lon="4.6416">
        <ele>560.1</ele>
        <time>2014-04-21T07:55:52Z</time>
      </trkpt>
      <trkpt lat="45.14724" lon="4.64154">
        <ele>560.9</ele>
        <time>2014-04-21T07:55:54Z</time>
      </trkpt>
      <trkpt lat="45.14727" lon="4.64146">
        <ele>561.7</ele>
        <time>2014-04-21T07:55:56Z</time>
      </trkpt>
      <trkpt lat="45.14732" lon="4.64138">
        <ele>562.7</ele>
        <time>2014-04-21T07:55:58Z</time>
      </trkpt>
      <trkpt lat="45.14737" lon="4.64132">
        <ele>563.8</ele>
        <time>2014-04-21T07:56:00Z</time>
      </trkpt>
      <trkpt lat="45.14742" lon="4.64128">
        <ele>564.8</ele>
        <time>2014-04-21T07:56:02Z</time>
      </trkpt>
      <trkpt lat="45.14747" lon="4.64125">
        <ele>565.6</ele>
        <time>2014-04-21T07:56:04Z</time>
      </trkpt>
      <trkpt lat="45.14753" lon="4.64124">
        <ele>566.5</ele>
        <time>2014-04-21T07:56:06Z</time>
      </trkpt>
      <trkpt lat="45.14758" lon="4.64123">
        <ele>567.5</ele>
        <time>2014-04-21T07:56:08Z</time>
      </trkpt>
      <trkpt lat="45.14762" lon="4.64119">
        <ele>568.4</ele>
        <time>2014-04-21T07:56:11Z</time>
      </trkpt>
      <trkpt lat="45.14767" lon="4.64116">
        <ele>569.3</ele>
        <time>2014-04-21T07:56:15Z</time>
      </trkpt>
      <trkpt lat="45.14771" lon="4.6411">
        <ele>570.2</ele>
        <time>2014-04-21T07:56:20Z</time>
      </trkpt>
      <trkpt lat="45.14775" lon="4.64106">
        <ele>571.1</ele>
        <time>2014-04-21T07:56:25Z</time>
      </trkpt>
      <trkpt lat="45.1478" lon="4.64104">
        <ele>572.1</ele>
        <time>2014-04-21T07:56:30Z</time>
      </trkpt>
      <trkpt lat="45.14785" lon="4.64104">
        <ele>573</ele>
        <time>2014-04-21T07:56:35Z</time>
      </trkpt>
      <trkpt lat="45.14795" lon="4.64105">
        <ele>575</ele>
        <time>2014-04-21T07:56:45Z</time>
      </trkpt>
      <trkpt lat="45.148" lon="4.64105">
        <ele>575.9</ele>
        <time>2014-04-21T07:56:50Z</time>
      </trkpt>
      <trkpt lat="45.14803" lon="4.641">
        <ele>576.6</ele>
        <time>2014-04-21T07:56:54Z</time>
      </trkpt>
      <trkpt lat="45.14806" lon="4.64093">
        <ele>577.3</ele>
        <time>2014-04-21T07:56:59Z</time>
      </trkpt>
      <trkpt lat="45.14809" lon="4.64088">
        <ele>578.1</ele>
        <time>2014-04-21T07:57:04Z</time>
      </trkpt>
      <trkpt lat="45.14811" lon="4.64082">
        <ele>578.7</ele>
        <time>2014-04-21T07:57:08Z</time>
      </trkpt>
      <trkpt lat="45.14814" lon="4.64076">
        <ele>579.6</ele>
        <time>2014-04-21T07:57:12Z</time>
      </trkpt>
      <trkpt lat="45.14818" lon="4.64071">
        <ele>580.6</ele>
        <time>2014-04-21T07:57:17Z</time>
      </trkpt>
      <trkpt lat="45.14821" lon="4.64065">
        <ele>581.4</ele>
        <time>2014-04-21T07:57:21Z</time>
      </trkpt>
      <trkpt lat="45.14823" lon="4.64059">
        <ele>582.3</ele>
        <time>2014-04-21T07:57:25Z</time>
      </trkpt>
      <trkpt lat="45.14826" lon="4.64052">
        <ele>583.2</ele>
        <time>2014-04-21T07:57:29Z</time>
      </trkpt>
      <trkpt lat="45.14829" lon="4.64046">
        <ele>584</ele>
        <time>2014-04-21T07:57:32Z</time>
      </trkpt>
      <trkpt lat="45.14831" lon="4.6404">
        <ele>584.7</ele>
        <time>2014-04-21T07:57:35Z</time>
      </trkpt>
      <trkpt lat="45.14833" lon="4.64034">
        <ele>585.4</ele>
        <time>2014-04-21T07:57:38Z</time>
      </trkpt>
      <trkpt lat="45.14837" lon="4.6402">
        <ele>586.4</ele>
        <time>2014-04-21T07:57:45Z</time>
      </trkpt>
      <trkpt lat="45.14838" lon="4.64012">
        <ele>587</ele>
        <time>2014-04-21T07:57:49Z</time>
      </trkpt>
      <trkpt lat="45.14839" lon="4.64006">
        <ele>587.4</ele>
        <time>2014-04-21T07:57:52Z</time>
      </trkpt>
      <trkpt lat="45.14841" lon="4.63998">
        <ele>587.9</ele>
        <time>2014-04-21T07:57:56Z</time>
      </trkpt>
      <trkpt lat="45.14842" lon="4.63991">
        <ele>588.3</ele>
        <time>2014-04-21T07:58:00Z</time>
      </trkpt>
      <trkpt lat="45.14844" lon="4.63984">
        <ele>588.8</ele>
        <time>2014-04-21T07:58:04Z</time>
      </trkpt>
      <trkpt lat="45.14846" lon="4.63977">
        <ele>589.3</ele>
        <time>2014-04-21T07:58:09Z</time>
      </trkpt>
      <trkpt lat="45.14848" lon="4.63969">
        <ele>589.8</ele>
        <time>2014-04-21T07:58:13Z</time>
      </trkpt>
      <trkpt lat="45.14849" lon="4.63962">
        <ele>590.2</ele>
        <time>2014-04-21T07:58:16Z</time>
      </trkpt>
      <trkpt lat="45.14849" lon="4.63954">
        <ele>590.6</ele>
        <time>2014-04-21T07:58:19Z</time>
      </trkpt>
      <trkpt lat="45.14849" lon="4.63947">
        <ele>590.8</ele>
        <time>2014-04-21T07:58:22Z</time>
      </trkpt>
      <trkpt lat="45.14849" lon="4.63939">
        <ele>591.1</ele>
        <time>2014-04-21T07:58:25Z</time>
      </trkpt>
      <trkpt lat="45.14849" lon="4.63932">
        <ele>591.4</ele>
        <time>2014-04-21T07:58:28Z</time>
      </trkpt>
      <trkpt lat="45.14849" lon="4.63925">
        <ele>591.8</ele>
        <time>2014-04-21T07:58:31Z</time>
      </trkpt>
      <trkpt lat="45.1485" lon="4.63917">
        <ele>592.2</ele>
        <time>2014-04-21T07:58:34Z</time>
      </trkpt>
      <trkpt lat="45.14851" lon="4.6391">
        <ele>592.4</ele>
        <time>2014-04-21T07:58:37Z</time>
      </trkpt>
      <trkpt lat="45.14853" lon="4.63902">
        <ele>592.7</ele>
        <time>2014-04-21T07:58:40Z</time>
      </trkpt>
      <trkpt lat="45.14855" lon="4.63888">
        <ele>593</ele>
        <time>2014-04-21T07:58:46Z</time>
      </trkpt>
      <trkpt lat="45.14858" lon="4.63881">
        <ele>593.4</ele>
        <time>2014-04-21T07:58:49Z</time>
      </trkpt>
      <trkpt lat="45.1486" lon="4.63875">
        <ele>593.7</ele>
        <time>2014-04-21T07:58:52Z</time>
      </trkpt>
      <trkpt lat="45.14862" lon="4.63867">
        <ele>594</ele>
        <time>2014-04-21T07:58:55Z</time>
      </trkpt>
      <trkpt lat="45.14864" lon="4.6386">
        <ele>594.2</ele>
        <time>2014-04-21T07:58:58Z</time>
      </trkpt>
      <trkpt lat="45.14865" lon="4.63853">
        <ele>594.4</ele>
        <time>2014-04-21T07:59:01Z</time>
      </trkpt>
      <trkpt lat="45.14867" lon="4.63845">
        <ele>594.6</ele>
        <time>2014-04-21T07:59:04Z</time>
      </trkpt>
      <trkpt lat="45.14871" lon="4.6384">
        <ele>595</ele>
        <time>2014-04-21T07:59:07Z</time>
      </trkpt>
      <trkpt lat="45.14876" lon="4.6384">
        <ele>595.6</ele>
        <time>2014-04-21T07:59:10Z</time>
      </trkpt>
      <trkpt lat="45.14879" lon="4.63846">
        <ele>595.9</ele>
        <time>2014-04-21T07:59:13Z</time>
      </trkpt>
      <trkpt lat="45.14881" lon="4.63852">
        <ele>596.2</ele>
        <time>2014-04-21T07:59:16Z</time>
      </trkpt>
      <trkpt lat="45.14884" lon="4.63857">
        <ele>596.5</ele>
        <time>2014-04-21T07:59:19Z</time>
      </trkpt>
      <trkpt lat="45.14887" lon="4.63862">
        <ele>596.9</ele>
        <time>2014-04-21T07:59:22Z</time>
      </trkpt>
      <trkpt lat="45.1489" lon="4.63866">
        <ele>597.3</ele>
        <time>2014-04-21T07:59:25Z</time>
      </trkpt>
      <trkpt lat="45.14894" lon="4.6387">
        <ele>597.7</ele>
        <time>2014-04-21T07:59:28Z</time>
      </trkpt>
      <trkpt lat="45.14897" lon="4.63875">
        <ele>598.2</ele>
        <time>2014-04-21T07:59:31Z</time>
      </trkpt>
      <trkpt lat="45.14901" lon="4.6388">
        <ele>598.7</ele>
        <time>2014-04-21T07:59:34Z</time>
      </trkpt>
      <trkpt lat="45.14904" lon="4.63885">
        <ele>599.1</ele>
        <time>2014-04-21T07:59:37Z</time>
      </trkpt>
      <trkpt lat="45.14908" lon="4.63889">
        <ele>599.6</ele>
        <time>2014-04-21T07:59:40Z</time>
      </trkpt>
      <trkpt lat="45.14911" lon="4.63895">
        <ele>600</ele>
        <time>2014-04-21T07:59:43Z</time>
      </trkpt>
      <trkpt lat="45.14917" lon="4.63907">
        <ele>600.9</ele>
        <time>2014-04-21T07:59:49Z</time>
      </trkpt>
      <trkpt lat="45.14921" lon="4.63913">
        <ele>601.1</ele>
        <time>2014-04-21T07:59:52Z</time>
      </trkpt>
      <trkpt lat="45.14924" lon="4.63919">
        <ele>601</ele>
        <time>2014-04-21T07:59:55Z</time>
      </trkpt>
      <trkpt lat="45.14927" lon="4.63925">
        <ele>600.8</ele>
        <time>2014-04-21T07:59:58Z</time>
      </trkpt>
      <trkpt lat="45.1493" lon="4.63932">
        <ele>600.6</ele>
        <time>2014-04-21T08:00:01Z</time>
      </trkpt>
      <trkpt lat="45.14933" lon="4.63938">
        <ele>600.3</ele>
        <time>2014-04-21T08:00:04Z</time>
      </trkpt>
      <trkpt lat="45.14936" lon="4.63945">
        <ele>600</ele>
        <time>2014-04-21T08:00:07Z</time>
      </trkpt>
      <trkpt lat="45.14939" lon="4.63952">
        <ele>599.8</ele>
        <time>2014-04-21T08:00:10Z</time>
      </trkpt>
      <trkpt lat="45.14942" lon="4.6396">
        <ele>599.5</ele>
        <time>2014-04-21T08:00:13Z</time>
      </trkpt>
      <trkpt lat="45.14945" lon="4.63967">
        <ele>599.2</ele>
        <time>2014-04-21T08:00:16Z</time>
      </trkpt>
      <trkpt lat="45.14949" lon="4.63973">
        <ele>599.2</ele>
        <time>2014-04-21T08:00:19Z</time>
      </trkpt>
      <trkpt lat="45.14955" lon="4.63976">
        <ele>599.3</ele>
        <time>2014-04-21T08:00:22Z</time>
      </trkpt>
      <trkpt lat="45.14957" lon="4.63969">
        <ele>599.8</ele>
        <time>2014-04-21T08:00:26Z</time>
      </trkpt>
      <trkpt lat="45.14954" lon="4.63964">
        <ele>599.8</ele>
        <time>2014-04-21T08:00:28Z</time>
      </trkpt>
      <trkpt lat="45.14951" lon="4.63959">
        <ele>599.9</ele>
        <time>2014-04-21T08:00:30Z</time>
      </trkpt>
      <trkpt lat="45.14948" lon="4.63952">
        <ele>600.1</ele>
        <time>2014-04-21T08:00:32Z</time>
      </trkpt>
      <trkpt lat="45.14945" lon="4.63946">
        <ele>600.3</ele>
        <time>2014-04-21T08:00:34Z</time>
      </trkpt>
      <trkpt lat="45.14942" lon="4.63939">
        <ele>600.5</ele>
        <time>2014-04-21T08:00:36Z</time>
      </trkpt>
      <trkpt lat="45.14939" lon="4.63933">
        <ele>600.8</ele>
        <time>2014-04-21T08:00:38Z</time>
      </trkpt>
      <trkpt lat="45.14936" lon="4.63925">
        <ele>601.1</ele>
        <time>2014-04-21T08:00:40Z</time>
      </trkpt>
      <trkpt lat="45.14932" lon="4.63918">
        <ele>601.3</ele>
        <time>2014-04-21T08:00:42Z</time>
      </trkpt>
      <trkpt lat="45.14929" lon="4.63911">
        <ele>601.2</ele>
        <time>2014-04-21T08:00:44Z</time>
      </trkpt>
      <trkpt lat="45.14921" lon="4.63895">
        <ele>600.8</ele>
        <time>2014-04-21T08:00:48Z</time>
      </trkpt>
      <trkpt lat="45.14917" lon="4.63886">
        <ele>600.6</ele>
        <time>2014-04-21T08:00:50Z</time>
      </trkpt>
      <trkpt lat="45.14914" lon="4.63878">
        <ele>600.3</ele>
        <time>2014-04-21T08:00:52Z</time>
      </trkpt>
      <trkpt lat="45.14912" lon="4.63869">
        <ele>599.9</ele>
        <time>2014-04-21T08:00:54Z</time>
      </trkpt>
      <trkpt lat="45.14911" lon="4.63861">
        <ele>599.6</ele>
        <time>2014-04-21T08:00:56Z</time>
      </trkpt>
      <trkpt lat="45.14909" lon="4.63852">
        <ele>599.4</ele>
        <time>2014-04-21T08:00:58Z</time>
      </trkpt>
      <trkpt lat="45.14907" lon="4.63843">
        <ele>599.1</ele>
        <time>2014-04-21T08:01:00Z</time>
      </trkpt>
      <trkpt lat="45.14905" lon="4.63834">
        <ele>598.7</ele>
        <time>2014-04-21T08:01:02Z</time>
      </trkpt>
      <trkpt lat="45.14903" lon="4.63825">
        <ele>597.9</ele>
        <time>2014-04-21T08:01:04Z</time>
      </trkpt>
      <trkpt lat="45.14901" lon="4.63815">
        <ele>597.2</ele>
        <time>2014-04-21T08:01:06Z</time>
      </trkpt>
      <trkpt lat="45.149" lon="4.63807">
        <ele>596.6</ele>
        <time>2014-04-21T08:01:08Z</time>
      </trkpt>
      <trkpt lat="45.14899" lon="4.638">
        <ele>596</ele>
        <time>2014-04-21T08:01:10Z</time>
      </trkpt>
      <trkpt lat="45.14897" lon="4.63792">
        <ele>595.5</ele>
        <time>2014-04-21T08:01:12Z</time>
      </trkpt>
      <trkpt lat="45.14896" lon="4.63784">
        <ele>594.9</ele>
        <time>2014-04-21T08:01:14Z</time>
      </trkpt>
      <trkpt lat="45.14895" lon="4.63777">
        <ele>594.5</ele>
        <time>2014-04-21T08:01:16Z</time>
      </trkpt>
      <trkpt lat="45.14894" lon="4.63769">
        <ele>594</ele>
        <time>2014-04-21T08:01:18Z</time>
      </trkpt>
      <trkpt lat="45.14892" lon="4.63762">
        <ele>593.6</ele>
        <time>2014-04-21T08:01:20Z</time>
      </trkpt>
      <trkpt lat="45.1489" lon="4.63756">
        <ele>593.3</ele>
        <time>2014-04-21T08:01:22Z</time>
      </trkpt>
      <trkpt lat="45.14886" lon="4.63751">
        <ele>593</ele>
        <time>2014-04-21T08:01:24Z</time>
      </trkpt>
      <trkpt lat="45.14882" lon="4.63746">
        <ele>593</ele>
        <time>2014-04-21T08:01:26Z</time>
      </trkpt>
      <trkpt lat="45.14878" lon="4.63742">
        <ele>593</ele>
        <time>2014-04-21T08:01:28Z</time>
      </trkpt>
      <trkpt lat="45.14873" lon="4.63738">
        <ele>593.1</ele>
        <time>2014-04-21T08:01:30Z</time>
      </trkpt>
      <trkpt lat="45.14868" lon="4.63735">
        <ele>593.2</ele>
        <time>2014-04-21T08:01:32Z</time>
      </trkpt>
      <trkpt lat="45.14863" lon="4.63731">
        <ele>593.4</ele>
        <time>2014-04-21T08:01:34Z</time>
      </trkpt>
      <trkpt lat="45.14858" lon="4.63728">
        <ele>593.6</ele>
        <time>2014-04-21T08:01:36Z</time>
      </trkpt>
      <trkpt lat="45.14854" lon="4.63724">
        <ele>593.9</ele>
        <time>2014-04-21T08:01:38Z</time>
      </trkpt>
      <trkpt lat="45.14849" lon="4.6372">
        <ele>594.2</ele>
        <time>2014-04-21T08:01:40Z</time>
      </trkpt>
      <trkpt lat="45.14845" lon="4.63716">
        <ele>594.5</ele>
        <time>2014-04-21T08:01:42Z</time>
      </trkpt>
      <trkpt lat="45.1484" lon="4.63713">
        <ele>594.9</ele>
        <time>2014-04-21T08:01:44Z</time>
      </trkpt>
      <trkpt lat="45.14835" lon="4.6371">
        <ele>595.3</ele>
        <time>2014-04-21T08:01:46Z</time>
      </trkpt>
      <trkpt lat="45.14826" lon="4.63705">
        <ele>596.1</ele>
        <time>2014-04-21T08:01:50Z</time>
      </trkpt>
      <trkpt lat="45.14821" lon="4.63702">
        <ele>596.5</ele>
        <time>2014-04-21T08:01:52Z</time>
      </trkpt>
      <trkpt lat="45.14817" lon="4.637">
        <ele>596.9</ele>
        <time>2014-04-21T08:01:54Z</time>
      </trkpt>
      <trkpt lat="45.14812" lon="4.63697">
        <ele>597.4</ele>
        <time>2014-04-21T08:01:56Z</time>
      </trkpt>
      <trkpt lat="45.14805" lon="4.63693">
        <ele>598.1</ele>
        <time>2014-04-21T08:01:58Z</time>
      </trkpt>
      <trkpt lat="45.14799" lon="4.63689">
        <ele>598.8</ele>
        <time>2014-04-21T08:02:00Z</time>
      </trkpt>
      <trkpt lat="45.14793" lon="4.63686">
        <ele>599.6</ele>
        <time>2014-04-21T08:02:02Z</time>
      </trkpt>
      <trkpt lat="45.14787" lon="4.63681">
        <ele>600.4</ele>
        <time>2014-04-21T08:02:04Z</time>
      </trkpt>
      <trkpt lat="45.14781" lon="4.63677">
        <ele>601.2</ele>
        <time>2014-04-21T08:02:06Z</time>
      </trkpt>
      <trkpt lat="45.14775" lon="4.63674">
        <ele>602.1</ele>
        <time>2014-04-21T08:02:08Z</time>
      </trkpt>
      <trkpt lat="45.14768" lon="4.63669">
        <ele>603.1</ele>
        <time>2014-04-21T08:02:10Z</time>
      </trkpt>
      <trkpt lat="45.14762" lon="4.63666">
        <ele>604.1</ele>
        <time>2014-04-21T08:02:12Z</time>
      </trkpt>
      <trkpt lat="45.14756" lon="4.63663">
        <ele>604.8</ele>
        <time>2014-04-21T08:02:14Z</time>
      </trkpt>
      <trkpt lat="45.14751" lon="4.63659">
        <ele>605.7</ele>
        <time>2014-04-21T08:02:16Z</time>
      </trkpt>
      <trkpt lat="45.14745" lon="4.63655">
        <ele>605.8</ele>
        <time>2014-04-21T08:02:18Z</time>
      </trkpt>
      <trkpt lat="45.1474" lon="4.6365">
        <ele>606</ele>
        <time>2014-04-21T08:02:20Z</time>
      </trkpt>
      <trkpt lat="45.14737" lon="4.63645">
        <ele>606.4</ele>
        <time>2014-04-21T08:02:22Z</time>
      </trkpt>
      <trkpt lat="45.14734" lon="4.6364">
        <ele>606.8</ele>
        <time>2014-04-21T08:02:24Z</time>
      </trkpt>
      <trkpt lat="45.14731" lon="4.63635">
        <ele>607.2</ele>
        <time>2014-04-21T08:02:26Z</time>
      </trkpt>
      <trkpt lat="45.14727" lon="4.63631">
        <ele>607.5</ele>
        <time>2014-04-21T08:02:28Z</time>
      </trkpt>
      <trkpt lat="45.14723" lon="4.63627">
        <ele>607.7</ele>
        <time>2014-04-21T08:02:30Z</time>
      </trkpt>
      <trkpt lat="45.14718" lon="4.63623">
        <ele>608</ele>
        <time>2014-04-21T08:02:32Z</time>
      </trkpt>
      <trkpt lat="45.14715" lon="4.63619">
        <ele>608.3</ele>
        <time>2014-04-21T08:02:34Z</time>
      </trkpt>
      <trkpt lat="45.14712" lon="4.63611">
        <ele>609.2</ele>
        <time>2014-04-21T08:02:37Z</time>
      </trkpt>
      <trkpt lat="45.14709" lon="4.63603">
        <ele>610.2</ele>
        <time>2014-04-21T08:02:40Z</time>
      </trkpt>
      <trkpt lat="45.14706" lon="4.63595">
        <ele>611</ele>
        <time>2014-04-21T08:02:43Z</time>
      </trkpt>
      <trkpt lat="45.14703" lon="4.63587">
        <ele>612.1</ele>
        <time>2014-04-21T08:02:46Z</time>
      </trkpt>
      <trkpt lat="45.14698" lon="4.63582">
        <ele>612.6</ele>
        <time>2014-04-21T08:02:49Z</time>
      </trkpt>
      <trkpt lat="45.14688" lon="4.63576">
        <ele>613.5</ele>
        <time>2014-04-21T08:02:55Z</time>
      </trkpt>
      <trkpt lat="45.14682" lon="4.63576">
        <ele>613.5</ele>
        <time>2014-04-21T08:02:58Z</time>
      </trkpt>
      <trkpt lat="45.14675" lon="4.6358">
        <ele>612.8</ele>
        <time>2014-04-21T08:03:01Z</time>
      </trkpt>
      <trkpt lat="45.1467" lon="4.6358">
        <ele>612.7</ele>
        <time>2014-04-21T08:03:03Z</time>
      </trkpt>
      <trkpt lat="45.14665" lon="4.6358">
        <ele>612.5</ele>
        <time>2014-04-21T08:03:05Z</time>
      </trkpt>
      <trkpt lat="45.14659" lon="4.63579">
        <ele>612.2</ele>
        <time>2014-04-21T08:03:07Z</time>
      </trkpt>
      <trkpt lat="45.14653" lon="4.63578">
        <ele>611.6</ele>
        <time>2014-04-21T08:03:09Z</time>
      </trkpt>
      <trkpt lat="45.14647" lon="4.63578">
        <ele>611.2</ele>
        <time>2014-04-21T08:03:11Z</time>
      </trkpt>
      <trkpt lat="45.1464" lon="4.63576">
        <ele>610.8</ele>
        <time>2014-04-21T08:03:13Z</time>
      </trkpt>
      <trkpt lat="45.14633" lon="4.63575">
        <ele>610.4</ele>
        <time>2014-04-21T08:03:15Z</time>
      </trkpt>
      <trkpt lat="45.14627" lon="4.63573">
        <ele>610</ele>
        <time>2014-04-21T08:03:17Z</time>
      </trkpt>
      <trkpt lat="45.1462" lon="4.63572">
        <ele>609.6</ele>
        <time>2014-04-21T08:03:19Z</time>
      </trkpt>
      <trkpt lat="45.14614" lon="4.63572">
        <ele>609</ele>
        <time>2014-04-21T08:03:21Z</time>
      </trkpt>
      <trkpt lat="45.14608" lon="4.63573">
        <ele>608.4</ele>
        <time>2014-04-21T08:03:23Z</time>
      </trkpt>
      <trkpt lat="45.14602" lon="4.63573">
        <ele>607.8</ele>
        <time>2014-04-21T08:03:25Z</time>
      </trkpt>
      <trkpt lat="45.14596" lon="4.63572">
        <ele>607.2</ele>
        <time>2014-04-21T08:03:27Z</time>
      </trkpt>
      <trkpt lat="45.1459" lon="4.63573">
        <ele>606.6</ele>
        <time>2014-04-21T08:03:29Z</time>
      </trkpt>
      <trkpt lat="45.14584" lon="4.63573">
        <ele>605.8</ele>
        <time>2014-04-21T08:03:31Z</time>
      </trkpt>
      <trkpt lat="45.14579" lon="4.63574">
        <ele>605.6</ele>
        <time>2014-04-21T08:03:33Z</time>
      </trkpt>
      <trkpt lat="45.14573" lon="4.63575">
        <ele>605.6</ele>
        <time>2014-04-21T08:03:35Z</time>
      </trkpt>
      <trkpt lat="45.14568" lon="4.63576">
        <ele>605.4</ele>
        <time>2014-04-21T08:03:37Z</time>
      </trkpt>
      <trkpt lat="45.14563" lon="4.63577">
        <ele>605.4</ele>
        <time>2014-04-21T08:03:39Z</time>
      </trkpt>
      <trkpt lat="45.14558" lon="4.63577">
        <ele>605.3</ele>
        <time>2014-04-21T08:03:41Z</time>
      </trkpt>
      <trkpt lat="45.14553" lon="4.63578">
        <ele>605.1</ele>
        <time>2014-04-21T08:03:43Z</time>
      </trkpt>
      <trkpt lat="45.14547" lon="4.6358">
        <ele>605</ele>
        <time>2014-04-21T08:03:46Z</time>
      </trkpt>
      <trkpt lat="45.14541" lon="4.63582">
        <ele>604.7</ele>
        <time>2014-04-21T08:03:49Z</time>
      </trkpt>
      <trkpt lat="45.14537" lon="4.63584">
        <ele>604.6</ele>
        <time>2014-04-21T08:03:51Z</time>
      </trkpt>
      <trkpt lat="45.14527" lon="4.6359">
        <ele>604.1</ele>
        <time>2014-04-21T08:03:56Z</time>
      </trkpt>
      <trkpt lat="45.14522" lon="4.63594">
        <ele>603.6</ele>
        <time>2014-04-21T08:03:59Z</time>
      </trkpt>
      <trkpt lat="45.14517" lon="4.636">
        <ele>602.9</ele>
        <time>2014-04-21T08:04:02Z</time>
      </trkpt>
      <trkpt lat="45.14513" lon="4.63607">
        <ele>602.3</ele>
        <time>2014-04-21T08:04:05Z</time>
      </trkpt>
      <trkpt lat="45.14508" lon="4.63612">
        <ele>601.8</ele>
        <time>2014-04-21T08:04:08Z</time>
      </trkpt>
      <trkpt lat="45.14503" lon="4.63617">
        <ele>601.3</ele>
        <time>2014-04-21T08:04:11Z</time>
      </trkpt>
      <trkpt lat="45.14497" lon="4.63623">
        <ele>601.1</ele>
        <time>2014-04-21T08:04:14Z</time>
      </trkpt>
      <trkpt lat="45.14492" lon="4.63628">
        <ele>601.1</ele>
        <time>2014-04-21T08:04:17Z</time>
      </trkpt>
      <trkpt lat="45.14489" lon="4.63633">
        <ele>600.9</ele>
        <time>2014-04-21T08:04:19Z</time>
      </trkpt>
      <trkpt lat="45.14485" lon="4.63637">
        <ele>600.9</ele>
        <time>2014-04-21T08:04:21Z</time>
      </trkpt>
      <trkpt lat="45.14482" lon="4.63641">
        <ele>601</ele>
        <time>2014-04-21T08:04:23Z</time>
      </trkpt>
      <trkpt lat="45.14478" lon="4.63646">
        <ele>601</ele>
        <time>2014-04-21T08:04:25Z</time>
      </trkpt>
      <trkpt lat="45.14474" lon="4.6365">
        <ele>601</ele>
        <time>2014-04-21T08:04:27Z</time>
      </trkpt>
      <trkpt lat="45.14469" lon="4.63657">
        <ele>601</ele>
        <time>2014-04-21T08:04:30Z</time>
      </trkpt>
      <trkpt lat="45.14467" lon="4.63664">
        <ele>600.6</ele>
        <time>2014-04-21T08:04:32Z</time>
      </trkpt>
      <trkpt lat="45.14465" lon="4.63672">
        <ele>600.2</ele>
        <time>2014-04-21T08:04:34Z</time>
      </trkpt>
      <trkpt lat="45.14464" lon="4.63681">
        <ele>599.9</ele>
        <time>2014-04-21T08:04:36Z</time>
      </trkpt>
      <trkpt lat="45.14462" lon="4.63689">
        <ele>599.4</ele>
        <time>2014-04-21T08:04:38Z</time>
      </trkpt>
      <trkpt lat="45.14461" lon="4.63697">
        <ele>599</ele>
        <time>2014-04-21T08:04:40Z</time>
      </trkpt>
      <trkpt lat="45.14459" lon="4.63705">
        <ele>598.6</ele>
        <time>2014-04-21T08:04:42Z</time>
      </trkpt>
      <trkpt lat="45.14457" lon="4.63714">
        <ele>598.3</ele>
        <time>2014-04-21T08:04:44Z</time>
      </trkpt>
      <trkpt lat="45.14456" lon="4.63722">
        <ele>597.9</ele>
        <time>2014-04-21T08:04:46Z</time>
      </trkpt>
      <trkpt lat="45.14455" lon="4.63732">
        <ele>597.4</ele>
        <time>2014-04-21T08:04:48Z</time>
      </trkpt>
      <trkpt lat="45.14453" lon="4.63741">
        <ele>597.1</ele>
        <time>2014-04-21T08:04:50Z</time>
      </trkpt>
      <trkpt lat="45.14451" lon="4.63751">
        <ele>596.5</ele>
        <time>2014-04-21T08:04:52Z</time>
      </trkpt>
      <trkpt lat="45.14449" lon="4.6376">
        <ele>595.9</ele>
        <time>2014-04-21T08:04:54Z</time>
      </trkpt>
      <trkpt lat="45.14444" lon="4.63778">
        <ele>594.6</ele>
        <time>2014-04-21T08:04:58Z</time>
      </trkpt>
      <trkpt lat="45.14441" lon="4.63788">
        <ele>593.8</ele>
        <time>2014-04-21T08:05:00Z</time>
      </trkpt>
      <trkpt lat="45.1444" lon="4.63795">
        <ele>593.3</ele>
        <time>2014-04-21T08:05:01Z</time>
      </trkpt>
      <trkpt lat="45.14438" lon="4.63801">
        <ele>592.7</ele>
        <time>2014-04-21T08:05:02Z</time>
      </trkpt>
      <trkpt lat="45.14435" lon="4.63813">
        <ele>591.7</ele>
        <time>2014-04-21T08:05:04Z</time>
      </trkpt>
      <trkpt lat="45.14432" lon="4.63819">
        <ele>591.4</ele>
        <time>2014-04-21T08:05:05Z</time>
      </trkpt>
      <trkpt lat="45.14429" lon="4.63829">
        <ele>590.4</ele>
        <time>2014-04-21T08:05:07Z</time>
      </trkpt>
      <trkpt lat="45.14427" lon="4.63838">
        <ele>589.6</ele>
        <time>2014-04-21T08:05:09Z</time>
      </trkpt>
      <trkpt lat="45.14425" lon="4.63847">
        <ele>589</ele>
        <time>2014-04-21T08:05:11Z</time>
      </trkpt>
      <trkpt lat="45.14422" lon="4.63855">
        <ele>588.5</ele>
        <time>2014-04-21T08:05:13Z</time>
      </trkpt>
      <trkpt lat="45.14421" lon="4.63861">
        <ele>588</ele>
        <time>2014-04-21T08:05:15Z</time>
      </trkpt>
      <trkpt lat="45.14419" lon="4.63867">
        <ele>587.6</ele>
        <time>2014-04-21T08:05:17Z</time>
      </trkpt>
      <trkpt lat="45.14417" lon="4.63873">
        <ele>587.2</ele>
        <time>2014-04-21T08:05:19Z</time>
      </trkpt>
      <trkpt lat="45.14413" lon="4.63878">
        <ele>587.6</ele>
        <time>2014-04-21T08:05:21Z</time>
      </trkpt>
      <trkpt lat="45.1441" lon="4.63883">
        <ele>587.9</ele>
        <time>2014-04-21T08:05:23Z</time>
      </trkpt>
      <trkpt lat="45.14406" lon="4.63891">
        <ele>588.2</ele>
        <time>2014-04-21T08:05:26Z</time>
      </trkpt>
      <trkpt lat="45.14403" lon="4.63895">
        <ele>588.6</ele>
        <time>2014-04-21T08:05:28Z</time>
      </trkpt>
      <trkpt lat="45.14399" lon="4.63902">
        <ele>589</ele>
        <time>2014-04-21T08:05:31Z</time>
      </trkpt>
      <trkpt lat="45.14394" lon="4.63908">
        <ele>589.3</ele>
        <time>2014-04-21T08:05:34Z</time>
      </trkpt>
      <trkpt lat="45.1439" lon="4.63913">
        <ele>589.9</ele>
        <time>2014-04-21T08:05:37Z</time>
      </trkpt>
      <trkpt lat="45.14385" lon="4.63918">
        <ele>590.5</ele>
        <time>2014-04-21T08:05:40Z</time>
      </trkpt>
      <trkpt lat="45.1438" lon="4.63922">
        <ele>591.3</ele>
        <time>2014-04-21T08:05:43Z</time>
      </trkpt>
      <trkpt lat="45.14375" lon="4.63927">
        <ele>592.1</ele>
        <time>2014-04-21T08:05:46Z</time>
      </trkpt>
      <trkpt lat="45.14369" lon="4.63931">
        <ele>592.9</ele>
        <time>2014-04-21T08:05:49Z</time>
      </trkpt>
      <trkpt lat="45.14364" lon="4.63935">
        <ele>593.6</ele>
        <time>2014-04-21T08:05:52Z</time>
      </trkpt>
      <trkpt lat="45.14358" lon="4.63938">
        <ele>594.7</ele>
        <time>2014-04-21T08:05:55Z</time>
      </trkpt>
      <trkpt lat="45.14348" lon="4.63943">
        <ele>596.2</ele>
        <time>2014-04-21T08:05:59Z</time>
      </trkpt>
      <trkpt lat="45.14342" lon="4.63946">
        <ele>597</ele>
        <time>2014-04-21T08:06:01Z</time>
      </trkpt>
      <trkpt lat="45.14337" lon="4.63947">
        <ele>597.8</ele>
        <time>2014-04-21T08:06:03Z</time>
      </trkpt>
      <trkpt lat="45.14331" lon="4.63944">
        <ele>599.4</ele>
        <time>2014-04-21T08:06:06Z</time>
      </trkpt>
      <trkpt lat="45.14327" lon="4.63939">
        <ele>601</ele>
        <time>2014-04-21T08:06:09Z</time>
      </trkpt>
      <trkpt lat="45.14322" lon="4.63936">
        <ele>602.3</ele>
        <time>2014-04-21T08:06:12Z</time>
      </trkpt>
      <trkpt lat="45.14317" lon="4.63934">
        <ele>603.6</ele>
        <time>2014-04-21T08:06:15Z</time>
      </trkpt>
      <trkpt lat="45.14313" lon="4.6393">
        <ele>605</ele>
        <time>2014-04-21T08:06:18Z</time>
      </trkpt>
      <trkpt lat="45.14309" lon="4.63926">
        <ele>606.3</ele>
        <time>2014-04-21T08:06:21Z</time>
      </trkpt>
      <trkpt lat="45.14304" lon="4.63921">
        <ele>608.1</ele>
        <time>2014-04-21T08:06:25Z</time>
      </trkpt>
      <trkpt lat="45.14299" lon="4.6392">
        <ele>609.2</ele>
        <time>2014-04-21T08:06:28Z</time>
      </trkpt>
      <trkpt lat="45.14294" lon="4.63921">
        <ele>610</ele>
        <time>2014-04-21T08:06:31Z</time>
      </trkpt>
      <trkpt lat="45.14289" lon="4.63923">
        <ele>610.8</ele>
        <time>2014-04-21T08:06:34Z</time>
      </trkpt>
      <trkpt lat="45.14283" lon="4.63924">
        <ele>611.6</ele>
        <time>2014-04-21T08:06:37Z</time>
      </trkpt>
      <trkpt lat="45.14278" lon="4.63925">
        <ele>612.4</ele>
        <time>2014-04-21T08:06:40Z</time>
      </trkpt>
      <trkpt lat="45.14273" lon="4.63926">
        <ele>613.2</ele>
        <time>2014-04-21T08:06:43Z</time>
      </trkpt>
      <trkpt lat="45.14268" lon="4.63927">
        <ele>614</ele>
        <time>2014-04-21T08:06:46Z</time>
      </trkpt>
      <trkpt lat="45.14263" lon="4.63928">
        <ele>614.8</ele>
        <time>2014-04-21T08:06:49Z</time>
      </trkpt>
      <trkpt lat="45.14258" lon="4.63929">
        <ele>615.7</ele>
        <time>2014-04-21T08:06:52Z</time>
      </trkpt>
      <trkpt lat="45.14253" lon="4.63929">
        <ele>616.7</ele>
        <time>2014-04-21T08:06:55Z</time>
      </trkpt>
      <trkpt lat="45.14247" lon="4.63929">
        <ele>617.4</ele>
        <time>2014-04-21T08:06:59Z</time>
      </trkpt>
      <trkpt lat="45.14238" lon="4.63928">
        <ele>618.5</ele>
        <time>2014-04-21T08:07:05Z</time>
      </trkpt>
      <trkpt lat="45.14233" lon="4.63929">
        <ele>618.7</ele>
        <time>2014-04-21T08:07:08Z</time>
      </trkpt>
      <trkpt lat="45.14227" lon="4.63931">
        <ele>618.7</ele>
        <time>2014-04-21T08:07:11Z</time>
      </trkpt>
      <trkpt lat="45.14222" lon="4.63935">
        <ele>618.8</ele>
        <time>2014-04-21T08:07:14Z</time>
      </trkpt>
      <trkpt lat="45.14218" lon="4.63937">
        <ele>618.7</ele>
        <time>2014-04-21T08:07:17Z</time>
      </trkpt>
      <trkpt lat="45.14214" lon="4.6394">
        <ele>618.6</ele>
        <time>2014-04-21T08:07:20Z</time>
      </trkpt>
      <trkpt lat="45.1421" lon="4.63944">
        <ele>617.9</ele>
        <time>2014-04-21T08:07:23Z</time>
      </trkpt>
      <trkpt lat="45.14206" lon="4.63947">
        <ele>617.8</ele>
        <time>2014-04-21T08:07:26Z</time>
      </trkpt>
      <trkpt lat="45.14201" lon="4.63949">
        <ele>617.9</ele>
        <time>2014-04-21T08:07:29Z</time>
      </trkpt>
      <trkpt lat="45.14196" lon="4.63952">
        <ele>617.6</ele>
        <time>2014-04-21T08:07:32Z</time>
      </trkpt>
      <trkpt lat="45.14191" lon="4.63956">
        <ele>617.5</ele>
        <time>2014-04-21T08:07:35Z</time>
      </trkpt>
      <trkpt lat="45.14186" lon="4.63959">
        <ele>617.1</ele>
        <time>2014-04-21T08:07:38Z</time>
      </trkpt>
      <trkpt lat="45.14181" lon="4.63962">
        <ele>616.7</ele>
        <time>2014-04-21T08:07:41Z</time>
      </trkpt>
      <trkpt lat="45.14176" lon="4.63966">
        <ele>616.5</ele>
        <time>2014-04-21T08:07:44Z</time>
      </trkpt>
      <trkpt lat="45.14171" lon="4.63969">
        <ele>616.1</ele>
        <time>2014-04-21T08:07:46Z</time>
      </trkpt>
      <trkpt lat="45.14167" lon="4.63972">
        <ele>615.8</ele>
        <time>2014-04-21T08:07:48Z</time>
      </trkpt>
      <trkpt lat="45.14162" lon="4.63976">
        <ele>615.8</ele>
        <time>2014-04-21T08:07:50Z</time>
      </trkpt>
      <trkpt lat="45.14156" lon="4.63981">
        <ele>615.7</ele>
        <time>2014-04-21T08:07:52Z</time>
      </trkpt>
      <trkpt lat="45.14146" lon="4.63986">
        <ele>615.9</ele>
        <time>2014-04-21T08:07:54Z</time>
      </trkpt>
      <trkpt lat="45.14142" lon="4.63989">
        <ele>616</ele>
        <time>2014-04-21T08:07:55Z</time>
      </trkpt>
      <trkpt lat="45.14137" lon="4.63992">
        <ele>616</ele>
        <time>2014-04-21T08:07:56Z</time>
      </trkpt>
      <trkpt lat="45.14132" lon="4.63994">
        <ele>616.1</ele>
        <time>2014-04-21T08:07:57Z</time>
      </trkpt>
      <trkpt lat="45.14128" lon="4.63996">
        <ele>616.1</ele>
        <time>2014-04-21T08:07:58Z</time>
      </trkpt>
      <trkpt lat="45.14119" lon="4.63999">
        <ele>616.6</ele>
        <time>2014-04-21T08:08:00Z</time>
      </trkpt>
      <trkpt lat="45.14109" lon="4.63999">
        <ele>617.9</ele>
        <time>2014-04-21T08:08:02Z</time>
      </trkpt>
      <trkpt lat="45.14104" lon="4.63998">
        <ele>619</ele>
        <time>2014-04-21T08:08:03Z</time>
      </trkpt>
      <trkpt lat="45.141" lon="4.63994">
        <ele>620.6</ele>
        <time>2014-04-21T08:08:04Z</time>
      </trkpt>
      <trkpt lat="45.14096" lon="4.6399">
        <ele>622.2</ele>
        <time>2014-04-21T08:08:05Z</time>
      </trkpt>
      <trkpt lat="45.14089" lon="4.63983">
        <ele>625</ele>
        <time>2014-04-21T08:08:07Z</time>
      </trkpt>
      <trkpt lat="45.14084" lon="4.63977">
        <ele>627.7</ele>
        <time>2014-04-21T08:08:09Z</time>
      </trkpt>
      <trkpt lat="45.1408" lon="4.63971">
        <ele>629.6</ele>
        <time>2014-04-21T08:08:11Z</time>
      </trkpt>
      <trkpt lat="45.14075" lon="4.63965">
        <ele>631.2</ele>
        <time>2014-04-21T08:08:13Z</time>
      </trkpt>
      <trkpt lat="45.14072" lon="4.63959">
        <ele>633.1</ele>
        <time>2014-04-21T08:08:15Z</time>
      </trkpt>
      <trkpt lat="45.14068" lon="4.63955">
        <ele>634.4</ele>
        <time>2014-04-21T08:08:17Z</time>
      </trkpt>
      <trkpt lat="45.14064" lon="4.63952">
        <ele>635.6</ele>
        <time>2014-04-21T08:08:19Z</time>
      </trkpt>
      <trkpt lat="45.14059" lon="4.63949">
        <ele>636.1</ele>
        <time>2014-04-21T08:08:21Z</time>
      </trkpt>
      <trkpt lat="45.14054" lon="4.63947">
        <ele>637</ele>
        <time>2014-04-21T08:08:24Z</time>
      </trkpt>
      <trkpt lat="45.14048" lon="4.63946">
        <ele>637.6</ele>
        <time>2014-04-21T08:08:27Z</time>
      </trkpt>
      <trkpt lat="45.14043" lon="4.63944">
        <ele>638.1</ele>
        <time>2014-04-21T08:08:30Z</time>
      </trkpt>
      <trkpt lat="45.14037" lon="4.63942">
        <ele>639.1</ele>
        <time>2014-04-21T08:08:33Z</time>
      </trkpt>
      <trkpt lat="45.14031" lon="4.6394">
        <ele>639.7</ele>
        <time>2014-04-21T08:08:36Z</time>
      </trkpt>
      <trkpt lat="45.14026" lon="4.6394">
        <ele>639.8</ele>
        <time>2014-04-21T08:08:39Z</time>
      </trkpt>
      <trkpt lat="45.1402" lon="4.63941">
        <ele>640</ele>
        <time>2014-04-21T08:08:42Z</time>
      </trkpt>
      <trkpt lat="45.14016" lon="4.63942">
        <ele>639.7</ele>
        <time>2014-04-21T08:08:45Z</time>
      </trkpt>
      <trkpt lat="45.14011" lon="4.63942">
        <ele>639.8</ele>
        <time>2014-04-21T08:08:48Z</time>
      </trkpt>
      <trkpt lat="45.14006" lon="4.63942">
        <ele>639.9</ele>
        <time>2014-04-21T08:08:51Z</time>
      </trkpt>
      <trkpt lat="45.14" lon="4.63942">
        <ele>640.1</ele>
        <time>2014-04-21T08:08:54Z</time>
      </trkpt>
      <trkpt lat="45.13995" lon="4.63941">
        <ele>639.8</ele>
        <time>2014-04-21T08:08:57Z</time>
      </trkpt>
      <trkpt lat="45.13991" lon="4.63941">
        <ele>640</ele>
        <time>2014-04-21T08:09:00Z</time>
      </trkpt>
      <trkpt lat="45.13986" lon="4.63942">
        <ele>639.3</ele>
        <time>2014-04-21T08:09:03Z</time>
      </trkpt>
      <trkpt lat="45.13976" lon="4.63945">
        <ele>637.4</ele>
        <time>2014-04-21T08:09:09Z</time>
      </trkpt>
      <trkpt lat="45.13972" lon="4.63947">
        <ele>636.6</ele>
        <time>2014-04-21T08:09:12Z</time>
      </trkpt>
      <trkpt lat="45.13967" lon="4.63949">
        <ele>635.4</ele>
        <time>2014-04-21T08:09:15Z</time>
      </trkpt>
      <trkpt lat="45.13962" lon="4.63952">
        <ele>634.3</ele>
        <time>2014-04-21T08:09:18Z</time>
      </trkpt>
      <trkpt lat="45.13957" lon="4.63955">
        <ele>633.1</ele>
        <time>2014-04-21T08:09:21Z</time>
      </trkpt>
      <trkpt lat="45.13953" lon="4.63958">
        <ele>631.9</ele>
        <time>2014-04-21T08:09:24Z</time>
      </trkpt>
      <trkpt lat="45.13948" lon="4.63961">
        <ele>630.3</ele>
        <time>2014-04-21T08:09:27Z</time>
      </trkpt>
      <trkpt lat="45.13944" lon="4.63964">
        <ele>629.1</ele>
        <time>2014-04-21T08:09:30Z</time>
      </trkpt>
      <trkpt lat="45.13939" lon="4.63964">
        <ele>628.9</ele>
        <time>2014-04-21T08:09:33Z</time>
      </trkpt>
      <trkpt lat="45.13935" lon="4.63963">
        <ele>629.1</ele>
        <time>2014-04-21T08:09:36Z</time>
      </trkpt>
      <trkpt lat="45.13929" lon="4.63962">
        <ele>628.8</ele>
        <time>2014-04-21T08:09:40Z</time>
      </trkpt>
      <trkpt lat="45.13923" lon="4.63962">
        <ele>628.9</ele>
        <time>2014-04-21T08:09:44Z</time>
      </trkpt>
      <trkpt lat="45.13917" lon="4.63961">
        <ele>628.6</ele>
        <time>2014-04-21T08:09:48Z</time>
      </trkpt>
      <trkpt lat="45.13911" lon="4.63961">
        <ele>629.8</ele>
        <time>2014-04-21T08:09:52Z</time>
      </trkpt>
      <trkpt lat="45.13906" lon="4.6396">
        <ele>630.5</ele>
        <time>2014-04-21T08:09:56Z</time>
      </trkpt>
      <trkpt lat="45.13901" lon="4.63959">
        <ele>631.6</ele>
        <time>2014-04-21T08:10:00Z</time>
      </trkpt>
      <trkpt lat="45.13895" lon="4.63958">
        <ele>632.3</ele>
        <time>2014-04-21T08:10:04Z</time>
      </trkpt>
      <trkpt lat="45.13886" lon="4.63954">
        <ele>635.2</ele>
        <time>2014-04-21T08:10:12Z</time>
      </trkpt>
      <trkpt lat="45.13881" lon="4.63951">
        <ele>636.5</ele>
        <time>2014-04-21T08:10:16Z</time>
      </trkpt>
      <trkpt lat="45.13877" lon="4.63948">
        <ele>637.9</ele>
        <time>2014-04-21T08:10:20Z</time>
      </trkpt>
      <trkpt lat="45.13872" lon="4.63946">
        <ele>639.3</ele>
        <time>2014-04-21T08:10:24Z</time>
      </trkpt>
      <trkpt lat="45.13866" lon="4.63944">
        <ele>640.3</ele>
        <time>2014-04-21T08:10:28Z</time>
      </trkpt>
      <trkpt lat="45.13861" lon="4.63944">
        <ele>641.3</ele>
        <time>2014-04-21T08:10:32Z</time>
      </trkpt>
      <trkpt lat="45.13855" lon="4.63941">
        <ele>642.6</ele>
        <time>2014-04-21T08:10:36Z</time>
      </trkpt>
      <trkpt lat="45.13851" lon="4.63938">
        <ele>643.8</ele>
        <time>2014-04-21T08:10:39Z</time>
      </trkpt>
      <trkpt lat="45.13847" lon="4.63935">
        <ele>644.9</ele>
        <time>2014-04-21T08:10:42Z</time>
      </trkpt>
      <trkpt lat="45.13843" lon="4.63931">
        <ele>646.4</ele>
        <time>2014-04-21T08:10:45Z</time>
      </trkpt>
      <trkpt lat="45.13839" lon="4.63927">
        <ele>648.1</ele>
        <time>2014-04-21T08:10:48Z</time>
      </trkpt>
      <trkpt lat="45.13834" lon="4.63921">
        <ele>650</ele>
        <time>2014-04-21T08:10:51Z</time>
      </trkpt>
      <trkpt lat="45.13829" lon="4.63916">
        <ele>651</ele>
        <time>2014-04-21T08:10:53Z</time>
      </trkpt>
      <trkpt lat="45.13824" lon="4.6391">
        <ele>651.7</ele>
        <time>2014-04-21T08:10:55Z</time>
      </trkpt>
      <trkpt lat="45.13818" lon="4.63903">
        <ele>652.7</ele>
        <time>2014-04-21T08:10:57Z</time>
      </trkpt>
      <trkpt lat="45.13812" lon="4.63895">
        <ele>653.5</ele>
        <time>2014-04-21T08:10:59Z</time>
      </trkpt>
      <trkpt lat="45.13808" lon="4.63889">
        <ele>654</ele>
        <time>2014-04-21T08:11:00Z</time>
      </trkpt>
      <trkpt lat="45.13804" lon="4.63884">
        <ele>654.4</ele>
        <time>2014-04-21T08:11:01Z</time>
      </trkpt>
      <trkpt lat="45.138" lon="4.63878">
        <ele>654.9</ele>
        <time>2014-04-21T08:11:02Z</time>
      </trkpt>
      <trkpt lat="45.13796" lon="4.63872">
        <ele>655.3</ele>
        <time>2014-04-21T08:11:03Z</time>
      </trkpt>
      <trkpt lat="45.13792" lon="4.63865">
        <ele>655.7</ele>
        <time>2014-04-21T08:11:04Z</time>
      </trkpt>
      <trkpt lat="45.13789" lon="4.63857">
        <ele>656.5</ele>
        <time>2014-04-21T08:11:05Z</time>
      </trkpt>
      <trkpt lat="45.13784" lon="4.63838">
        <ele>658.1</ele>
        <time>2014-04-21T08:11:07Z</time>
      </trkpt>
      <trkpt lat="45.13781" lon="4.63829">
        <ele>658.6</ele>
        <time>2014-04-21T08:11:08Z</time>
      </trkpt>
      <trkpt lat="45.13777" lon="4.63821">
        <ele>658.5</ele>
        <time>2014-04-21T08:11:09Z</time>
      </trkpt>
      <trkpt lat="45.13771" lon="4.63814">
        <ele>658.2</ele>
        <time>2014-04-21T08:11:10Z</time>
      </trkpt>
      <trkpt lat="45.13765" lon="4.63808">
        <ele>657.6</ele>
        <time>2014-04-21T08:11:11Z</time>
      </trkpt>
      <trkpt lat="45.13759" lon="4.63802">
        <ele>656.9</ele>
        <time>2014-04-21T08:11:12Z</time>
      </trkpt>
      <trkpt lat="45.13753" lon="4.63796">
        <ele>656.3</ele>
        <time>2014-04-21T08:11:13Z</time>
      </trkpt>
      <trkpt lat="45.13747" lon="4.63788">
        <ele>655.8</ele>
        <time>2014-04-21T08:11:14Z</time>
      </trkpt>
      <trkpt lat="45.13741" lon="4.63782">
        <ele>655.1</ele>
        <time>2014-04-21T08:11:15Z</time>
      </trkpt>
      <trkpt lat="45.13734" lon="4.63775">
        <ele>654.3</ele>
        <time>2014-04-21T08:11:16Z</time>
      </trkpt>
      <trkpt lat="45.13727" lon="4.63769">
        <ele>653.4</ele>
        <time>2014-04-21T08:11:17Z</time>
      </trkpt>
      <trkpt lat="45.1372" lon="4.63763">
        <ele>652.3</ele>
        <time>2014-04-21T08:11:18Z</time>
      </trkpt>
      <trkpt lat="45.13713" lon="4.63758">
        <ele>651.4</ele>
        <time>2014-04-21T08:11:19Z</time>
      </trkpt>
      <trkpt lat="45.13706" lon="4.63752">
        <ele>650.3</ele>
        <time>2014-04-21T08:11:20Z</time>
      </trkpt>
      <trkpt lat="45.13699" lon="4.63747">
        <ele>649.4</ele>
        <time>2014-04-21T08:11:21Z</time>
      </trkpt>
      <trkpt lat="45.13692" lon="4.63741">
        <ele>648.4</ele>
        <time>2014-04-21T08:11:22Z</time>
      </trkpt>
      <trkpt lat="45.13686" lon="4.63735">
        <ele>647.7</ele>
        <time>2014-04-21T08:11:23Z</time>
      </trkpt>
      <trkpt lat="45.13679" lon="4.63729">
        <ele>647</ele>
        <time>2014-04-21T08:11:24Z</time>
      </trkpt>
      <trkpt lat="45.13674" lon="4.63723">
        <ele>646.4</ele>
        <time>2014-04-21T08:11:25Z</time>
      </trkpt>
      <trkpt lat="45.13668" lon="4.63717">
        <ele>646</ele>
        <time>2014-04-21T08:11:26Z</time>
      </trkpt>
      <trkpt lat="45.13664" lon="4.6371">
        <ele>645.9</ele>
        <time>2014-04-21T08:11:27Z</time>
      </trkpt>
      <trkpt lat="45.1366" lon="4.63703">
        <ele>645.9</ele>
        <time>2014-04-21T08:11:28Z</time>
      </trkpt>
      <trkpt lat="45.13655" lon="4.63697">
        <ele>645.9</ele>
        <time>2014-04-21T08:11:29Z</time>
      </trkpt>
      <trkpt lat="45.13651" lon="4.63692">
        <ele>645.9</ele>
        <time>2014-04-21T08:11:30Z</time>
      </trkpt>
      <trkpt lat="45.13647" lon="4.63687">
        <ele>645.8</ele>
        <time>2014-04-21T08:11:31Z</time>
      </trkpt>
      <trkpt lat="45.13644" lon="4.63683">
        <ele>645.7</ele>
        <time>2014-04-21T08:11:32Z</time>
      </trkpt>
      <trkpt lat="45.1364" lon="4.63678">
        <ele>645.7</ele>
        <time>2014-04-21T08:11:33Z</time>
      </trkpt>
      <trkpt lat="45.13637" lon="4.63673">
        <ele>645.7</ele>
        <time>2014-04-21T08:11:34Z</time>
      </trkpt>
      <trkpt lat="45.13631" lon="4.63665">
        <ele>645.9</ele>
        <time>2014-04-21T08:11:36Z</time>
      </trkpt>
      <trkpt lat="45.13626" lon="4.63656">
        <ele>646.6</ele>
        <time>2014-04-21T08:11:38Z</time>
      </trkpt>
      <trkpt lat="45.13622" lon="4.63646">
        <ele>647.4</ele>
        <time>2014-04-21T08:11:40Z</time>
      </trkpt>
      <trkpt lat="45.13617" lon="4.63637">
        <ele>648.2</ele>
        <time>2014-04-21T08:11:42Z</time>
      </trkpt>
      <trkpt lat="45.13612" lon="4.63628">
        <ele>648.6</ele>
        <time>2014-04-21T08:11:44Z</time>
      </trkpt>
      <trkpt lat="45.13608" lon="4.63622">
        <ele>648.9</ele>
        <time>2014-04-21T08:11:46Z</time>
      </trkpt>
      <trkpt lat="45.13602" lon="4.63616">
        <ele>648.7</ele>
        <time>2014-04-21T08:11:48Z</time>
      </trkpt>
      <trkpt lat="45.13596" lon="4.63611">
        <ele>648.3</ele>
        <time>2014-04-21T08:11:50Z</time>
      </trkpt>
      <trkpt lat="45.13588" lon="4.63607">
        <ele>647.5</ele>
        <time>2014-04-21T08:11:52Z</time>
      </trkpt>
      <trkpt lat="45.1358" lon="4.63604">
        <ele>646.6</ele>
        <time>2014-04-21T08:11:54Z</time>
      </trkpt>
      <trkpt lat="45.13573" lon="4.63599">
        <ele>646</ele>
        <time>2014-04-21T08:11:56Z</time>
      </trkpt>
      <trkpt lat="45.13567" lon="4.63594">
        <ele>645.7</ele>
        <time>2014-04-21T08:11:58Z</time>
      </trkpt>
      <trkpt lat="45.13563" lon="4.63588">
        <ele>645.9</ele>
        <time>2014-04-21T08:12:00Z</time>
      </trkpt>
      <trkpt lat="45.13561" lon="4.63581">
        <ele>646.4</ele>
        <time>2014-04-21T08:12:03Z</time>
      </trkpt>
      <trkpt lat="45.1356" lon="4.63575">
        <ele>647.2</ele>
        <time>2014-04-21T08:12:06Z</time>
      </trkpt>
      <trkpt lat="45.13555" lon="4.63561">
        <ele>648.5</ele>
        <time>2014-04-21T08:12:12Z</time>
      </trkpt>
      <trkpt lat="45.13551" lon="4.63556">
        <ele>648.6</ele>
        <time>2014-04-21T08:12:15Z</time>
      </trkpt>
      <trkpt lat="45.13546" lon="4.63552">
        <ele>648.1</ele>
        <time>2014-04-21T08:12:18Z</time>
      </trkpt>
      <trkpt lat="45.13539" lon="4.63548">
        <ele>647.5</ele>
        <time>2014-04-21T08:12:21Z</time>
      </trkpt>
      <trkpt lat="45.13533" lon="4.63546">
        <ele>646.8</ele>
        <time>2014-04-21T08:12:23Z</time>
      </trkpt>
      <trkpt lat="45.13526" lon="4.63543">
        <ele>645.9</ele>
        <time>2014-04-21T08:12:25Z</time>
      </trkpt>
      <trkpt lat="45.13518" lon="4.63538">
        <ele>645.3</ele>
        <time>2014-04-21T08:12:27Z</time>
      </trkpt>
      <trkpt lat="45.13514" lon="4.63535">
        <ele>645</ele>
        <time>2014-04-21T08:12:28Z</time>
      </trkpt>
      <trkpt lat="45.13509" lon="4.63532">
        <ele>644.7</ele>
        <time>2014-04-21T08:12:29Z</time>
      </trkpt>
      <trkpt lat="45.13504" lon="4.63529">
        <ele>644.2</ele>
        <time>2014-04-21T08:12:30Z</time>
      </trkpt>
      <trkpt lat="45.13499" lon="4.63525">
        <ele>644</ele>
        <time>2014-04-21T08:12:31Z</time>
      </trkpt>
      <trkpt lat="45.13493" lon="4.63522">
        <ele>643.8</ele>
        <time>2014-04-21T08:12:32Z</time>
      </trkpt>
      <trkpt lat="45.13487" lon="4.63517">
        <ele>643.6</ele>
        <time>2014-04-21T08:12:33Z</time>
      </trkpt>
      <trkpt lat="45.13481" lon="4.63513">
        <ele>643.6</ele>
        <time>2014-04-21T08:12:34Z</time>
      </trkpt>
      <trkpt lat="45.13475" lon="4.63508">
        <ele>643.3</ele>
        <time>2014-04-21T08:12:35Z</time>
      </trkpt>
      <trkpt lat="45.1347" lon="4.63503">
        <ele>643.3</ele>
        <time>2014-04-21T08:12:36Z</time>
      </trkpt>
      <trkpt lat="45.13464" lon="4.63498">
        <ele>643.2</ele>
        <time>2014-04-21T08:12:37Z</time>
      </trkpt>
      <trkpt lat="45.13458" lon="4.63492">
        <ele>643.3</ele>
        <time>2014-04-21T08:12:38Z</time>
      </trkpt>
      <trkpt lat="45.13453" lon="4.63486">
        <ele>643.5</ele>
        <time>2014-04-21T08:12:39Z</time>
      </trkpt>
      <trkpt lat="45.13447" lon="4.6348">
        <ele>643.7</ele>
        <time>2014-04-21T08:12:40Z</time>
      </trkpt>
      <trkpt lat="45.13442" lon="4.63474">
        <ele>643.7</ele>
        <time>2014-04-21T08:12:41Z</time>
      </trkpt>
      <trkpt lat="45.13436" lon="4.63468">
        <ele>643.8</ele>
        <time>2014-04-21T08:12:42Z</time>
      </trkpt>
      <trkpt lat="45.13431" lon="4.63462">
        <ele>643.9</ele>
        <time>2014-04-21T08:12:43Z</time>
      </trkpt>
      <trkpt lat="45.13426" lon="4.63456">
        <ele>643.8</ele>
        <time>2014-04-21T08:12:44Z</time>
      </trkpt>
      <trkpt lat="45.1342" lon="4.6345">
        <ele>643.9</ele>
        <time>2014-04-21T08:12:45Z</time>
      </trkpt>
      <trkpt lat="45.13415" lon="4.63444">
        <ele>643.8</ele>
        <time>2014-04-21T08:12:46Z</time>
      </trkpt>
      <trkpt lat="45.1341" lon="4.63438">
        <ele>643.9</ele>
        <time>2014-04-21T08:12:47Z</time>
      </trkpt>
      <trkpt lat="45.13405" lon="4.63432">
        <ele>644</ele>
        <time>2014-04-21T08:12:48Z</time>
      </trkpt>
      <trkpt lat="45.134" lon="4.63426">
        <ele>643.9</ele>
        <time>2014-04-21T08:12:49Z</time>
      </trkpt>
      <trkpt lat="45.13395" lon="4.63419">
        <ele>644.1</ele>
        <time>2014-04-21T08:12:50Z</time>
      </trkpt>
      <trkpt lat="45.1339" lon="4.63412">
        <ele>644.1</ele>
        <time>2014-04-21T08:12:51Z</time>
      </trkpt>
      <trkpt lat="45.13386" lon="4.63403">
        <ele>644.4</ele>
        <time>2014-04-21T08:12:52Z</time>
      </trkpt>
      <trkpt lat="45.13383" lon="4.63395">
        <ele>644.6</ele>
        <time>2014-04-21T08:12:53Z</time>
      </trkpt>
      <trkpt lat="45.13381" lon="4.63387">
        <ele>645</ele>
        <time>2014-04-21T08:12:54Z</time>
      </trkpt>
      <trkpt lat="45.1338" lon="4.6338">
        <ele>645.5</ele>
        <time>2014-04-21T08:12:55Z</time>
      </trkpt>
      <trkpt lat="45.13378" lon="4.63373">
        <ele>645.9</ele>
        <time>2014-04-21T08:12:56Z</time>
      </trkpt>
      <trkpt lat="45.13377" lon="4.63367">
        <ele>646.1</ele>
        <time>2014-04-21T08:12:57Z</time>
      </trkpt>
      <trkpt lat="45.13374" lon="4.63356">
        <ele>646.7</ele>
        <time>2014-04-21T08:12:59Z</time>
      </trkpt>
      <trkpt lat="45.13372" lon="4.63345">
        <ele>647.2</ele>
        <time>2014-04-21T08:13:01Z</time>
      </trkpt>
      <trkpt lat="45.13368" lon="4.63335">
        <ele>647.5</ele>
        <time>2014-04-21T08:13:03Z</time>
      </trkpt>
      <trkpt lat="45.13365" lon="4.63325">
        <ele>647.9</ele>
        <time>2014-04-21T08:13:05Z</time>
      </trkpt>
      <trkpt lat="45.13361" lon="4.63314">
        <ele>648.5</ele>
        <time>2014-04-21T08:13:07Z</time>
      </trkpt>
      <trkpt lat="45.13352" lon="4.63294">
        <ele>649</ele>
        <time>2014-04-21T08:13:11Z</time>
      </trkpt>
      <trkpt lat="45.13348" lon="4.63284">
        <ele>649</ele>
        <time>2014-04-21T08:13:13Z</time>
      </trkpt>
      <trkpt lat="45.13343" lon="4.63276">
        <ele>648.8</ele>
        <time>2014-04-21T08:13:15Z</time>
      </trkpt>
      <trkpt lat="45.13338" lon="4.63268">
        <ele>648.9</ele>
        <time>2014-04-21T08:13:17Z</time>
      </trkpt>
      <trkpt lat="45.13335" lon="4.63261">
        <ele>649.1</ele>
        <time>2014-04-21T08:13:19Z</time>
      </trkpt>
      <trkpt lat="45.13332" lon="4.63254">
        <ele>649.2</ele>
        <time>2014-04-21T08:13:21Z</time>
      </trkpt>
      <trkpt lat="45.13329" lon="4.63247">
        <ele>650.2</ele>
        <time>2014-04-21T08:13:23Z</time>
      </trkpt>
      <trkpt lat="45.13327" lon="4.6324">
        <ele>651.4</ele>
        <time>2014-04-21T08:13:25Z</time>
      </trkpt>
      <trkpt lat="45.13323" lon="4.63232">
        <ele>652.9</ele>
        <time>2014-04-21T08:13:27Z</time>
      </trkpt>
      <trkpt lat="45.13318" lon="4.63225">
        <ele>653.6</ele>
        <time>2014-04-21T08:13:29Z</time>
      </trkpt>
      <trkpt lat="45.13313" lon="4.6322">
        <ele>653.9</ele>
        <time>2014-04-21T08:13:31Z</time>
      </trkpt>
      <trkpt lat="45.13307" lon="4.63214">
        <ele>654</ele>
        <time>2014-04-21T08:13:33Z</time>
      </trkpt>
      <trkpt lat="45.13301" lon="4.63207">
        <ele>654.5</ele>
        <time>2014-04-21T08:13:35Z</time>
      </trkpt>
      <trkpt lat="45.13295" lon="4.63199">
        <ele>654.8</ele>
        <time>2014-04-21T08:13:37Z</time>
      </trkpt>
      <trkpt lat="45.1329" lon="4.63192">
        <ele>655.4</ele>
        <time>2014-04-21T08:13:39Z</time>
      </trkpt>
      <trkpt lat="45.13285" lon="4.63187">
        <ele>655.5</ele>
        <time>2014-04-21T08:13:41Z</time>
      </trkpt>
      <trkpt lat="45.1328" lon="4.63181">
        <ele>655.9</ele>
        <time>2014-04-21T08:13:43Z</time>
      </trkpt>
      <trkpt lat="45.13276" lon="4.63175">
        <ele>656.2</ele>
        <time>2014-04-21T08:13:45Z</time>
      </trkpt>
      <trkpt lat="45.13272" lon="4.63169">
        <ele>656.8</ele>
        <time>2014-04-21T08:13:47Z</time>
      </trkpt>
      <trkpt lat="45.13269" lon="4.63164">
        <ele>657.3</ele>
        <time>2014-04-21T08:13:49Z</time>
      </trkpt>
      <trkpt lat="45.13266" lon="4.63159">
        <ele>657.9</ele>
        <time>2014-04-21T08:13:51Z</time>
      </trkpt>
      <trkpt lat="45.13263" lon="4.63151">
        <ele>658.6</ele>
        <time>2014-04-21T08:13:54Z</time>
      </trkpt>
      <trkpt lat="45.13259" lon="4.63144">
        <ele>659.5</ele>
        <time>2014-04-21T08:13:57Z</time>
      </trkpt>
      <trkpt lat="45.13255" lon="4.63136">
        <ele>660.4</ele>
        <time>2014-04-21T08:14:00Z</time>
      </trkpt>
      <trkpt lat="45.13251" lon="4.63129">
        <ele>660.9</ele>
        <time>2014-04-21T08:14:03Z</time>
      </trkpt>
      <trkpt lat="45.13248" lon="4.63122">
        <ele>661.8</ele>
        <time>2014-04-21T08:14:06Z</time>
      </trkpt>
      <trkpt lat="45.13244" lon="4.63116">
        <ele>662.2</ele>
        <time>2014-04-21T08:14:09Z</time>
      </trkpt>
      <trkpt lat="45.13239" lon="4.63102">
        <ele>664.1</ele>
        <time>2014-04-21T08:14:15Z</time>
      </trkpt>
      <trkpt lat="45.13236" lon="4.63095">
        <ele>664.8</ele>
        <time>2014-04-21T08:14:18Z</time>
      </trkpt>
      <trkpt lat="45.13234" lon="4.63089">
        <ele>665.6</ele>
        <time>2014-04-21T08:14:21Z</time>
      </trkpt>
      <trkpt lat="45.13231" lon="4.63083">
        <ele>666</ele>
        <time>2014-04-21T08:14:24Z</time>
      </trkpt>
      <trkpt lat="45.13228" lon="4.63078">
        <ele>666.4</ele>
        <time>2014-04-21T08:14:27Z</time>
      </trkpt>
      <trkpt lat="45.13224" lon="4.63073">
        <ele>666.7</ele>
        <time>2014-04-21T08:14:30Z</time>
      </trkpt>
      <trkpt lat="45.1322" lon="4.63068">
        <ele>666.8</ele>
        <time>2014-04-21T08:14:33Z</time>
      </trkpt>
      <trkpt lat="45.13216" lon="4.63064">
        <ele>666.6</ele>
        <time>2014-04-21T08:14:36Z</time>
      </trkpt>
      <trkpt lat="45.13211" lon="4.63059">
        <ele>666.6</ele>
        <time>2014-04-21T08:14:40Z</time>
      </trkpt>
      <trkpt lat="45.13207" lon="4.63054">
        <ele>666.9</ele>
        <time>2014-04-21T08:14:43Z</time>
      </trkpt>
      <trkpt lat="45.13204" lon="4.6305">
        <ele>666.8</ele>
        <time>2014-04-21T08:14:46Z</time>
      </trkpt>
      <trkpt lat="45.132" lon="4.63046">
        <ele>666.7</ele>
        <time>2014-04-21T08:14:49Z</time>
      </trkpt>
      <trkpt lat="45.13196" lon="4.63042">
        <ele>666.5</ele>
        <time>2014-04-21T08:14:52Z</time>
      </trkpt>
      <trkpt lat="45.13192" lon="4.63038">
        <ele>666.4</ele>
        <time>2014-04-21T08:14:55Z</time>
      </trkpt>
      <trkpt lat="45.13188" lon="4.63034">
        <ele>666.3</ele>
        <time>2014-04-21T08:14:58Z</time>
      </trkpt>
      <trkpt lat="45.13183" lon="4.63031">
        <ele>665.6</ele>
        <time>2014-04-21T08:15:02Z</time>
      </trkpt>
      <trkpt lat="45.13177" lon="4.63029">
        <ele>664.5</ele>
        <time>2014-04-21T08:15:04Z</time>
      </trkpt>
      <trkpt lat="45.1317" lon="4.63029">
        <ele>662.4</ele>
        <time>2014-04-21T08:15:06Z</time>
      </trkpt>
      <trkpt lat="45.13162" lon="4.63029">
        <ele>660.8</ele>
        <time>2014-04-21T08:15:08Z</time>
      </trkpt>
      <trkpt lat="45.13154" lon="4.6303">
        <ele>659.4</ele>
        <time>2014-04-21T08:15:10Z</time>
      </trkpt>
      <trkpt lat="45.13136" lon="4.63031">
        <ele>656.9</ele>
        <time>2014-04-21T08:15:14Z</time>
      </trkpt>
      <trkpt lat="45.13128" lon="4.6303">
        <ele>655.8</ele>
        <time>2014-04-21T08:15:16Z</time>
      </trkpt>
      <trkpt lat="45.1312" lon="4.63028">
        <ele>655.5</ele>
        <time>2014-04-21T08:15:18Z</time>
      </trkpt>
      <trkpt lat="45.13114" lon="4.63024">
        <ele>655.7</ele>
        <time>2014-04-21T08:15:20Z</time>
      </trkpt>
      <trkpt lat="45.13109" lon="4.63021">
        <ele>655.7</ele>
        <time>2014-04-21T08:15:22Z</time>
      </trkpt>
      <trkpt lat="45.13104" lon="4.63017">
        <ele>656</ele>
        <time>2014-04-21T08:15:24Z</time>
      </trkpt>
      <trkpt lat="45.13099" lon="4.63013">
        <ele>656.4</ele>
        <time>2014-04-21T08:15:26Z</time>
      </trkpt>
      <trkpt lat="45.13095" lon="4.63008">
        <ele>657.3</ele>
        <time>2014-04-21T08:15:28Z</time>
      </trkpt>
      <trkpt lat="45.1309" lon="4.63002">
        <ele>658.5</ele>
        <time>2014-04-21T08:15:30Z</time>
      </trkpt>
      <trkpt lat="45.13087" lon="4.62998">
        <ele>659.3</ele>
        <time>2014-04-21T08:15:32Z</time>
      </trkpt>
      <trkpt lat="45.13083" lon="4.62994">
        <ele>660.1</ele>
        <time>2014-04-21T08:15:34Z</time>
      </trkpt>
      <trkpt lat="45.13077" lon="4.62989">
        <ele>660.9</ele>
        <time>2014-04-21T08:15:37Z</time>
      </trkpt>
      <trkpt lat="45.13073" lon="4.62985">
        <ele>661.7</ele>
        <time>2014-04-21T08:15:39Z</time>
      </trkpt>
      <trkpt lat="45.13069" lon="4.62981">
        <ele>662.3</ele>
        <time>2014-04-21T08:15:41Z</time>
      </trkpt>
      <trkpt lat="45.13065" lon="4.62977">
        <ele>662.9</ele>
        <time>2014-04-21T08:15:43Z</time>
      </trkpt>
      <trkpt lat="45.13061" lon="4.62972">
        <ele>663.9</ele>
        <time>2014-04-21T08:15:45Z</time>
      </trkpt>
      <trkpt lat="45.13057" lon="4.62967">
        <ele>664.9</ele>
        <time>2014-04-21T08:15:47Z</time>
      </trkpt>
      <trkpt lat="45.13053" lon="4.6296">
        <ele>666.1</ele>
        <time>2014-04-21T08:15:49Z</time>
      </trkpt>
      <trkpt lat="45.13048" lon="4.62954">
        <ele>667.2</ele>
        <time>2014-04-21T08:15:51Z</time>
      </trkpt>
      <trkpt lat="45.13044" lon="4.62947">
        <ele>668.4</ele>
        <time>2014-04-21T08:15:53Z</time>
      </trkpt>
      <trkpt lat="45.1304" lon="4.62941">
        <ele>669.7</ele>
        <time>2014-04-21T08:15:55Z</time>
      </trkpt>
      <trkpt lat="45.13038" lon="4.62935">
        <ele>670.7</ele>
        <time>2014-04-21T08:15:57Z</time>
      </trkpt>
      <trkpt lat="45.13035" lon="4.62929">
        <ele>672.1</ele>
        <time>2014-04-21T08:15:59Z</time>
      </trkpt>
      <trkpt lat="45.13033" lon="4.62922">
        <ele>673.6</ele>
        <time>2014-04-21T08:16:01Z</time>
      </trkpt>
      <trkpt lat="45.1303" lon="4.62915">
        <ele>674.9</ele>
        <time>2014-04-21T08:16:03Z</time>
      </trkpt>
      <trkpt lat="45.13028" lon="4.62907">
        <ele>677.1</ele>
        <time>2014-04-21T08:16:05Z</time>
      </trkpt>
      <trkpt lat="45.13025" lon="4.62898">
        <ele>678.8</ele>
        <time>2014-04-21T08:16:07Z</time>
      </trkpt>
      <trkpt lat="45.1302" lon="4.62889">
        <ele>680.7</ele>
        <time>2014-04-21T08:16:09Z</time>
      </trkpt>
      <trkpt lat="45.13017" lon="4.62883">
        <ele>681.4</ele>
        <time>2014-04-21T08:16:10Z</time>
      </trkpt>
      <trkpt lat="45.13015" lon="4.62876">
        <ele>682.9</ele>
        <time>2014-04-21T08:16:11Z</time>
      </trkpt>
      <trkpt lat="45.13011" lon="4.62861">
        <ele>685.8</ele>
        <time>2014-04-21T08:16:13Z</time>
      </trkpt>
      <trkpt lat="45.1301" lon="4.62854">
        <ele>687.1</ele>
        <time>2014-04-21T08:16:14Z</time>
      </trkpt>
      <trkpt lat="45.13009" lon="4.62843">
        <ele>689.9</ele>
        <time>2014-04-21T08:16:16Z</time>
      </trkpt>
      <trkpt lat="45.13009" lon="4.62833">
        <ele>692.4</ele>
        <time>2014-04-21T08:16:18Z</time>
      </trkpt>
      <trkpt lat="45.13009" lon="4.62825">
        <ele>692.9</ele>
        <time>2014-04-21T08:16:20Z</time>
      </trkpt>
      <trkpt lat="45.13008" lon="4.62818">
        <ele>693</ele>
        <time>2014-04-21T08:16:22Z</time>
      </trkpt>
      <trkpt lat="45.13005" lon="4.62808">
        <ele>692.5</ele>
        <time>2014-04-21T08:16:24Z</time>
      </trkpt>
      <trkpt lat="45.13003" lon="4.62797">
        <ele>692.6</ele>
        <time>2014-04-21T08:16:26Z</time>
      </trkpt>
      <trkpt lat="45.13001" lon="4.62789">
        <ele>692.1</ele>
        <time>2014-04-21T08:16:28Z</time>
      </trkpt>
      <trkpt lat="45.12997" lon="4.62783">
        <ele>690.7</ele>
        <time>2014-04-21T08:16:30Z</time>
      </trkpt>
      <trkpt lat="45.12994" lon="4.62775">
        <ele>689.4</ele>
        <time>2014-04-21T08:16:32Z</time>
      </trkpt>
      <trkpt lat="45.12991" lon="4.62763">
        <ele>688.5</ele>
        <time>2014-04-21T08:16:34Z</time>
      </trkpt>
      <trkpt lat="45.12989" lon="4.62757">
        <ele>688.1</ele>
        <time>2014-04-21T08:16:35Z</time>
      </trkpt>
      <trkpt lat="45.12986" lon="4.62749">
        <ele>687</ele>
        <time>2014-04-21T08:16:36Z</time>
      </trkpt>
      <trkpt lat="45.12983" lon="4.6274">
        <ele>686.1</ele>
        <time>2014-04-21T08:16:37Z</time>
      </trkpt>
      <trkpt lat="45.12981" lon="4.6273">
        <ele>685</ele>
        <time>2014-04-21T08:16:38Z</time>
      </trkpt>
      <trkpt lat="45.12979" lon="4.62722">
        <ele>684.2</ele>
        <time>2014-04-21T08:16:39Z</time>
      </trkpt>
      <trkpt lat="45.12977" lon="4.62715">
        <ele>683.4</ele>
        <time>2014-04-21T08:16:40Z</time>
      </trkpt>
      <trkpt lat="45.12975" lon="4.62703">
        <ele>683</ele>
        <time>2014-04-21T08:16:42Z</time>
      </trkpt>
      <trkpt lat="45.12977" lon="4.6269">
        <ele>683.9</ele>
        <time>2014-04-21T08:16:44Z</time>
      </trkpt>
      <trkpt lat="45.12978" lon="4.62683">
        <ele>684.5</ele>
        <time>2014-04-21T08:16:45Z</time>
      </trkpt>
      <trkpt lat="45.12979" lon="4.62676">
        <ele>685.3</ele>
        <time>2014-04-21T08:16:46Z</time>
      </trkpt>
      <trkpt lat="45.12981" lon="4.6267">
        <ele>686.1</ele>
        <time>2014-04-21T08:16:47Z</time>
      </trkpt>
      <trkpt lat="45.12984" lon="4.62659">
        <ele>687.8</ele>
        <time>2014-04-21T08:16:49Z</time>
      </trkpt>
      <trkpt lat="45.12987" lon="4.62653">
        <ele>688.7</ele>
        <time>2014-04-21T08:16:50Z</time>
      </trkpt>
      <trkpt lat="45.12989" lon="4.62642">
        <ele>689.4</ele>
        <time>2014-04-21T08:16:52Z</time>
      </trkpt>
      <trkpt lat="45.1299" lon="4.6263">
        <ele>689.3</ele>
        <time>2014-04-21T08:16:54Z</time>
      </trkpt>
      <trkpt lat="45.12991" lon="4.62619">
        <ele>689.4</ele>
        <time>2014-04-21T08:16:56Z</time>
      </trkpt>
      <trkpt lat="45.1299" lon="4.62607">
        <ele>688.6</ele>
        <time>2014-04-21T08:16:58Z</time>
      </trkpt>
      <trkpt lat="45.12987" lon="4.62594">
        <ele>686.3</ele>
        <time>2014-04-21T08:17:00Z</time>
      </trkpt>
      <trkpt lat="45.12986" lon="4.62587">
        <ele>685.5</ele>
        <time>2014-04-21T08:17:01Z</time>
      </trkpt>
      <trkpt lat="45.12983" lon="4.62579">
        <ele>684</ele>
        <time>2014-04-21T08:17:03Z</time>
      </trkpt>
      <trkpt lat="45.12978" lon="4.62579">
        <ele>681.3</ele>
        <time>2014-04-21T08:17:06Z</time>
      </trkpt>
      <trkpt lat="45.12974" lon="4.62584">
        <ele>679.7</ele>
        <time>2014-04-21T08:17:09Z</time>
      </trkpt>
      <trkpt lat="45.12971" lon="4.62591">
        <ele>678.6</ele>
        <time>2014-04-21T08:17:12Z</time>
      </trkpt>
      <trkpt lat="45.12964" lon="4.62603">
        <ele>675.9</ele>
        <time>2014-04-21T08:17:18Z</time>
      </trkpt>
      <trkpt lat="45.12959" lon="4.62608">
        <ele>673.7</ele>
        <time>2014-04-21T08:17:22Z</time>
      </trkpt>
      <trkpt lat="45.12955" lon="4.62614">
        <ele>671.8</ele>
        <time>2014-04-21T08:17:25Z</time>
      </trkpt>
      <trkpt lat="45.12951" lon="4.62619">
        <ele>669.9</ele>
        <time>2014-04-21T08:17:28Z</time>
      </trkpt>
      <trkpt lat="45.12946" lon="4.62623">
        <ele>667.7</ele>
        <time>2014-04-21T08:17:32Z</time>
      </trkpt>
      <trkpt lat="45.12941" lon="4.62626">
        <ele>665.2</ele>
        <time>2014-04-21T08:17:36Z</time>
      </trkpt>
      <trkpt lat="45.12937" lon="4.6263">
        <ele>663.4</ele>
        <time>2014-04-21T08:17:39Z</time>
      </trkpt>
      <trkpt lat="45.12931" lon="4.62633">
        <ele>660.6</ele>
        <time>2014-04-21T08:17:43Z</time>
      </trkpt>
      <trkpt lat="45.12927" lon="4.62629">
        <ele>658.5</ele>
        <time>2014-04-21T08:17:47Z</time>
      </trkpt>
      <trkpt lat="45.12928" lon="4.62622">
        <ele>658.8</ele>
        <time>2014-04-21T08:17:53Z</time>
      </trkpt>
      <trkpt lat="45.12931" lon="4.62616">
        <ele>660.1</ele>
        <time>2014-04-21T08:17:58Z</time>
      </trkpt>
      <trkpt lat="45.12933" lon="4.62609">
        <ele>660.9</ele>
        <time>2014-04-21T08:18:03Z</time>
      </trkpt>
      <trkpt lat="45.12934" lon="4.62601">
        <ele>661.6</ele>
        <time>2014-04-21T08:18:08Z</time>
      </trkpt>
      <trkpt lat="45.12934" lon="4.62594">
        <ele>661.3</ele>
        <time>2014-04-21T08:18:14Z</time>
      </trkpt>
      <trkpt lat="45.12898" lon="4.62583">
        <ele>654</ele>
        <time>2014-04-21T08:18:55Z</time>
      </trkpt>
      <trkpt lat="45.12893" lon="4.62585">
        <ele>654</ele>
        <time>2014-04-21T08:18:58Z</time>
      </trkpt>
      <trkpt lat="45.12889" lon="4.62585">
        <ele>654.2</ele>
        <time>2014-04-21T08:19:02Z</time>
      </trkpt>
      <trkpt lat="45.12883" lon="4.62587">
        <ele>654.4</ele>
        <time>2014-04-21T08:19:06Z</time>
      </trkpt>
      <trkpt lat="45.12878" lon="4.62586">
        <ele>654.7</ele>
        <time>2014-04-21T08:19:11Z</time>
      </trkpt>
      <trkpt lat="45.12873" lon="4.62584">
        <ele>655.1</ele>
        <time>2014-04-21T08:19:16Z</time>
      </trkpt>
      <trkpt lat="45.12864" lon="4.62588">
        <ele>655</ele>
        <time>2014-04-21T08:19:24Z</time>
      </trkpt>
      <trkpt lat="45.12859" lon="4.6259">
        <ele>654.9</ele>
        <time>2014-04-21T08:19:30Z</time>
      </trkpt>
      <trkpt lat="45.12854" lon="4.62592">
        <ele>654.6</ele>
        <time>2014-04-21T08:19:33Z</time>
      </trkpt>
      <trkpt lat="45.12849" lon="4.62595">
        <ele>654</ele>
        <time>2014-04-21T08:19:37Z</time>
      </trkpt>
      <trkpt lat="45.12845" lon="4.62595">
        <ele>654</ele>
        <time>2014-04-21T08:19:43Z</time>
      </trkpt>
      <trkpt lat="45.1284" lon="4.62594">
        <ele>654.4</ele>
        <time>2014-04-21T08:19:49Z</time>
      </trkpt>
      <trkpt lat="45.12835" lon="4.62595">
        <ele>654.2</ele>
        <time>2014-04-21T08:19:54Z</time>
      </trkpt>
      <trkpt lat="45.1283" lon="4.62597">
        <ele>654.7</ele>
        <time>2014-04-21T08:19:58Z</time>
      </trkpt>
      <trkpt lat="45.12825" lon="4.62601">
        <ele>654.9</ele>
        <time>2014-04-21T08:20:02Z</time>
      </trkpt>
      <trkpt lat="45.12821" lon="4.62603">
        <ele>655.9</ele>
        <time>2014-04-21T08:20:05Z</time>
      </trkpt>
      <trkpt lat="45.12816" lon="4.62605">
        <ele>656.3</ele>
        <time>2014-04-21T08:20:09Z</time>
      </trkpt>
      <trkpt lat="45.12811" lon="4.62607">
        <ele>656.9</ele>
        <time>2014-04-21T08:20:13Z</time>
      </trkpt>
      <trkpt lat="45.12806" lon="4.6261">
        <ele>657.5</ele>
        <time>2014-04-21T08:20:18Z</time>
      </trkpt>
      <trkpt lat="45.12796" lon="4.62616">
        <ele>658.4</ele>
        <time>2014-04-21T08:20:26Z</time>
      </trkpt>
      <trkpt lat="45.12791" lon="4.62619">
        <ele>658.5</ele>
        <time>2014-04-21T08:20:29Z</time>
      </trkpt>
      <trkpt lat="45.12787" lon="4.62622">
        <ele>658.8</ele>
        <time>2014-04-21T08:20:32Z</time>
      </trkpt>
      <trkpt lat="45.12782" lon="4.62627">
        <ele>658.4</ele>
        <time>2014-04-21T08:20:35Z</time>
      </trkpt>
      <trkpt lat="45.12776" lon="4.6263">
        <ele>658.4</ele>
        <time>2014-04-21T08:20:39Z</time>
      </trkpt>
      <trkpt lat="45.12771" lon="4.62633">
        <ele>658.7</ele>
        <time>2014-04-21T08:20:43Z</time>
      </trkpt>
      <trkpt lat="45.12767" lon="4.62637">
        <ele>658.4</ele>
        <time>2014-04-21T08:20:46Z</time>
      </trkpt>
      <trkpt lat="45.12763" lon="4.62641">
        <ele>658</ele>
        <time>2014-04-21T08:20:50Z</time>
      </trkpt>
      <trkpt lat="45.12759" lon="4.62646">
        <ele>657.2</ele>
        <time>2014-04-21T08:20:54Z</time>
      </trkpt>
      <trkpt lat="45.12755" lon="4.62652">
        <ele>656.3</ele>
        <time>2014-04-21T08:20:56Z</time>
      </trkpt>
      <trkpt lat="45.12751" lon="4.62659">
        <ele>654.5</ele>
        <time>2014-04-21T08:20:58Z</time>
      </trkpt>
      <trkpt lat="45.12749" lon="4.62665">
        <ele>653.3</ele>
        <time>2014-04-21T08:21:00Z</time>
      </trkpt>
      <trkpt lat="45.12749" lon="4.62673">
        <ele>651.6</ele>
        <time>2014-04-21T08:21:04Z</time>
      </trkpt>
      <trkpt lat="45.12748" lon="4.6268">
        <ele>651.1</ele>
        <time>2014-04-21T08:21:07Z</time>
      </trkpt>
      <trkpt lat="45.12746" lon="4.62688">
        <ele>650.8</ele>
        <time>2014-04-21T08:21:10Z</time>
      </trkpt>
      <trkpt lat="45.12744" lon="4.62695">
        <ele>650.7</ele>
        <time>2014-04-21T08:21:13Z</time>
      </trkpt>
      <trkpt lat="45.12743" lon="4.62703">
        <ele>650.3</ele>
        <time>2014-04-21T08:21:16Z</time>
      </trkpt>
      <trkpt lat="45.12741" lon="4.62711">
        <ele>650.2</ele>
        <time>2014-04-21T08:21:20Z</time>
      </trkpt>
      <trkpt lat="45.12734" lon="4.62724">
        <ele>651.6</ele>
        <time>2014-04-21T08:21:26Z</time>
      </trkpt>
      <trkpt lat="45.1273" lon="4.62729">
        <ele>652.3</ele>
        <time>2014-04-21T08:21:29Z</time>
      </trkpt>
      <trkpt lat="45.12727" lon="4.62735">
        <ele>653</ele>
        <time>2014-04-21T08:21:32Z</time>
      </trkpt>
      <trkpt lat="45.12723" lon="4.62739">
        <ele>654</ele>
        <time>2014-04-21T08:21:35Z</time>
      </trkpt>
      <trkpt lat="45.12719" lon="4.62744">
        <ele>655.2</ele>
        <time>2014-04-21T08:21:39Z</time>
      </trkpt>
      <trkpt lat="45.12714" lon="4.62749">
        <ele>656.5</ele>
        <time>2014-04-21T08:21:43Z</time>
      </trkpt>
      <trkpt lat="45.12711" lon="4.62753">
        <ele>657.7</ele>
        <time>2014-04-21T08:21:46Z</time>
      </trkpt>
      <trkpt lat="45.12708" lon="4.62759">
        <ele>658.4</ele>
        <time>2014-04-21T08:21:50Z</time>
      </trkpt>
      <trkpt lat="45.12705" lon="4.62764">
        <ele>659.6</ele>
        <time>2014-04-21T08:21:57Z</time>
      </trkpt>
      <trkpt lat="45.12698" lon="4.62768">
        <ele>662.2</ele>
        <time>2014-04-21T08:22:01Z</time>
      </trkpt>
      <trkpt lat="45.12693" lon="4.62773">
        <ele>663.9</ele>
        <time>2014-04-21T08:22:04Z</time>
      </trkpt>
      <trkpt lat="45.12689" lon="4.62776">
        <ele>665.3</ele>
        <time>2014-04-21T08:22:08Z</time>
      </trkpt>
      <trkpt lat="45.12685" lon="4.6278">
        <ele>666.4</ele>
        <time>2014-04-21T08:22:12Z</time>
      </trkpt>
      <trkpt lat="45.12682" lon="4.62785">
        <ele>667.3</ele>
        <time>2014-04-21T08:22:16Z</time>
      </trkpt>
      <trkpt lat="45.12678" lon="4.6279">
        <ele>668.4</ele>
        <time>2014-04-21T08:22:20Z</time>
      </trkpt>
      <trkpt lat="45.12675" lon="4.62795">
        <ele>669</ele>
        <time>2014-04-21T08:22:25Z</time>
      </trkpt>
      <trkpt lat="45.12668" lon="4.62807">
        <ele>670.3</ele>
        <time>2014-04-21T08:22:34Z</time>
      </trkpt>
      <trkpt lat="45.12665" lon="4.62813">
        <ele>670.7</ele>
        <time>2014-04-21T08:22:38Z</time>
      </trkpt>
      <trkpt lat="45.12663" lon="4.62819">
        <ele>670.8</ele>
        <time>2014-04-21T08:22:43Z</time>
      </trkpt>
      <trkpt lat="45.12662" lon="4.62827">
        <ele>670.5</ele>
        <time>2014-04-21T08:22:47Z</time>
      </trkpt>
      <trkpt lat="45.12659" lon="4.62834">
        <ele>670.7</ele>
        <time>2014-04-21T08:22:51Z</time>
      </trkpt>
      <trkpt lat="45.12657" lon="4.62841">
        <ele>670.5</ele>
        <time>2014-04-21T08:22:56Z</time>
      </trkpt>
      <trkpt lat="45.12655" lon="4.62848">
        <ele>670.6</ele>
        <time>2014-04-21T08:23:00Z</time>
      </trkpt>
      <trkpt lat="45.12652" lon="4.62854">
        <ele>671</ele>
        <time>2014-04-21T08:23:03Z</time>
      </trkpt>
      <trkpt lat="45.12648" lon="4.62861">
        <ele>671.4</ele>
        <time>2014-04-21T08:23:06Z</time>
      </trkpt>
      <trkpt lat="45.12645" lon="4.62868">
        <ele>671.8</ele>
        <time>2014-04-21T08:23:09Z</time>
      </trkpt>
      <trkpt lat="45.12641" lon="4.62875">
        <ele>672.3</ele>
        <time>2014-04-21T08:23:12Z</time>
      </trkpt>
      <trkpt lat="45.12638" lon="4.62881">
        <ele>672.6</ele>
        <time>2014-04-21T08:23:14Z</time>
      </trkpt>
      <trkpt lat="45.12634" lon="4.62888">
        <ele>673</ele>
        <time>2014-04-21T08:23:17Z</time>
      </trkpt>
      <trkpt lat="45.1263" lon="4.62893">
        <ele>674.2</ele>
        <time>2014-04-21T08:23:20Z</time>
      </trkpt>
      <trkpt lat="45.12626" lon="4.62897">
        <ele>675</ele>
        <time>2014-04-21T08:23:22Z</time>
      </trkpt>
      <trkpt lat="45.12622" lon="4.62901">
        <ele>676.2</ele>
        <time>2014-04-21T08:23:24Z</time>
      </trkpt>
      <trkpt lat="45.12616" lon="4.62904">
        <ele>677.8</ele>
        <time>2014-04-21T08:23:27Z</time>
      </trkpt>
      <trkpt lat="45.12604" lon="4.62912">
        <ele>681.2</ele>
        <time>2014-04-21T08:23:33Z</time>
      </trkpt>
      <trkpt lat="45.12598" lon="4.62915">
        <ele>683.2</ele>
        <time>2014-04-21T08:23:36Z</time>
      </trkpt>
      <trkpt lat="45.12592" lon="4.62917">
        <ele>685</ele>
        <time>2014-04-21T08:23:39Z</time>
      </trkpt>
      <trkpt lat="45.12586" lon="4.62919">
        <ele>687</ele>
        <time>2014-04-21T08:23:42Z</time>
      </trkpt>
      <trkpt lat="45.12581" lon="4.6292">
        <ele>687.9</ele>
        <time>2014-04-21T08:23:45Z</time>
      </trkpt>
      <trkpt lat="45.12575" lon="4.62919">
        <ele>688.7</ele>
        <time>2014-04-21T08:23:49Z</time>
      </trkpt>
      <trkpt lat="45.12571" lon="4.62914">
        <ele>689.5</ele>
        <time>2014-04-21T08:23:53Z</time>
      </trkpt>
      <trkpt lat="45.12568" lon="4.62909">
        <ele>690.5</ele>
        <time>2014-04-21T08:23:57Z</time>
      </trkpt>
      <trkpt lat="45.12565" lon="4.62903">
        <ele>691.7</ele>
        <time>2014-04-21T08:24:01Z</time>
      </trkpt>
      <trkpt lat="45.12562" lon="4.62897">
        <ele>692.8</ele>
        <time>2014-04-21T08:24:05Z</time>
      </trkpt>
      <trkpt lat="45.12558" lon="4.62891">
        <ele>694.1</ele>
        <time>2014-04-21T08:24:09Z</time>
      </trkpt>
      <trkpt lat="45.12555" lon="4.62884">
        <ele>695.6</ele>
        <time>2014-04-21T08:24:13Z</time>
      </trkpt>
      <trkpt lat="45.12552" lon="4.62877">
        <ele>696.9</ele>
        <time>2014-04-21T08:24:17Z</time>
      </trkpt>
      <trkpt lat="45.1255" lon="4.62871">
        <ele>698.2</ele>
        <time>2014-04-21T08:24:21Z</time>
      </trkpt>
      <trkpt lat="45.12547" lon="4.62864">
        <ele>699.6</ele>
        <time>2014-04-21T08:24:25Z</time>
      </trkpt>
      <trkpt lat="45.12544" lon="4.62857">
        <ele>701</ele>
        <time>2014-04-21T08:24:29Z</time>
      </trkpt>
      <trkpt lat="45.12538" lon="4.62845">
        <ele>704</ele>
        <time>2014-04-21T08:24:36Z</time>
      </trkpt>
      <trkpt lat="45.12534" lon="4.62839">
        <ele>705.5</ele>
        <time>2014-04-21T08:24:39Z</time>
      </trkpt>
      <trkpt lat="45.1253" lon="4.62834">
        <ele>706.9</ele>
        <time>2014-04-21T08:24:41Z</time>
      </trkpt>
      <trkpt lat="45.12527" lon="4.62829">
        <ele>708.3</ele>
        <time>2014-04-21T08:24:43Z</time>
      </trkpt>
      <trkpt lat="45.12522" lon="4.62823">
        <ele>710</ele>
        <time>2014-04-21T08:24:45Z</time>
      </trkpt>
      <trkpt lat="45.12518" lon="4.62817">
        <ele>711.4</ele>
        <time>2014-04-21T08:24:47Z</time>
      </trkpt>
      <trkpt lat="45.12515" lon="4.62812">
        <ele>712.9</ele>
        <time>2014-04-21T08:24:49Z</time>
      </trkpt>
      <trkpt lat="45.12511" lon="4.62805">
        <ele>714.5</ele>
        <time>2014-04-21T08:24:52Z</time>
      </trkpt>
      <trkpt lat="45.12509" lon="4.62798">
        <ele>716.1</ele>
        <time>2014-04-21T08:24:55Z</time>
      </trkpt>
      <trkpt lat="45.12506" lon="4.62791">
        <ele>717.6</ele>
        <time>2014-04-21T08:24:58Z</time>
      </trkpt>
      <trkpt lat="45.12502" lon="4.62784">
        <ele>719.3</ele>
        <time>2014-04-21T08:25:01Z</time>
      </trkpt>
      <trkpt lat="45.12497" lon="4.62778">
        <ele>720.5</ele>
        <time>2014-04-21T08:25:04Z</time>
      </trkpt>
      <trkpt lat="45.12493" lon="4.62774">
        <ele>720.8</ele>
        <time>2014-04-21T08:25:06Z</time>
      </trkpt>
      <trkpt lat="45.12489" lon="4.62771">
        <ele>720.9</ele>
        <time>2014-04-21T08:25:08Z</time>
      </trkpt>
      <trkpt lat="45.12484" lon="4.62767">
        <ele>721.1</ele>
        <time>2014-04-21T08:25:10Z</time>
      </trkpt>
      <trkpt lat="45.1248" lon="4.62764">
        <ele>721.5</ele>
        <time>2014-04-21T08:25:12Z</time>
      </trkpt>
      <trkpt lat="45.12474" lon="4.62758">
        <ele>722</ele>
        <time>2014-04-21T08:25:15Z</time>
      </trkpt>
      <trkpt lat="45.12469" lon="4.62754">
        <ele>722.4</ele>
        <time>2014-04-21T08:25:18Z</time>
      </trkpt>
      <trkpt lat="45.12463" lon="4.62751">
        <ele>722.5</ele>
        <time>2014-04-21T08:25:21Z</time>
      </trkpt>
      <trkpt lat="45.12457" lon="4.62751">
        <ele>722.4</ele>
        <time>2014-04-21T08:25:23Z</time>
      </trkpt>
      <trkpt lat="45.1245" lon="4.62751">
        <ele>722</ele>
        <time>2014-04-21T08:25:25Z</time>
      </trkpt>
      <trkpt lat="45.12442" lon="4.6275">
        <ele>721.5</ele>
        <time>2014-04-21T08:25:27Z</time>
      </trkpt>
      <trkpt lat="45.12434" lon="4.62747">
        <ele>722.3</ele>
        <time>2014-04-21T08:25:29Z</time>
      </trkpt>
      <trkpt lat="45.12427" lon="4.62745">
        <ele>722.3</ele>
        <time>2014-04-21T08:25:31Z</time>
      </trkpt>
      <trkpt lat="45.12414" lon="4.62743">
        <ele>722.1</ele>
        <time>2014-04-21T08:25:35Z</time>
      </trkpt>
      <trkpt lat="45.12408" lon="4.62742">
        <ele>721.4</ele>
        <time>2014-04-21T08:25:37Z</time>
      </trkpt>
      <trkpt lat="45.12402" lon="4.62747">
        <ele>719.3</ele>
        <time>2014-04-21T08:25:40Z</time>
      </trkpt>
      <trkpt lat="45.12399" lon="4.62754">
        <ele>717.1</ele>
        <time>2014-04-21T08:25:43Z</time>
      </trkpt>
      <trkpt lat="45.12398" lon="4.62762">
        <ele>715.1</ele>
        <time>2014-04-21T08:25:46Z</time>
      </trkpt>
      <trkpt lat="45.12399" lon="4.62768">
        <ele>713.7</ele>
        <time>2014-04-21T08:25:49Z</time>
      </trkpt>
      <trkpt lat="45.124" lon="4.62776">
        <ele>712.2</ele>
        <time>2014-04-21T08:25:53Z</time>
      </trkpt>
      <trkpt lat="45.12402" lon="4.62784">
        <ele>710.9</ele>
        <time>2014-04-21T08:25:57Z</time>
      </trkpt>
      <trkpt lat="45.12403" lon="4.6279">
        <ele>709.3</ele>
        <time>2014-04-21T08:26:01Z</time>
      </trkpt>
      <trkpt lat="45.124" lon="4.62796">
        <ele>707.9</ele>
        <time>2014-04-21T08:26:06Z</time>
      </trkpt>
      <trkpt lat="45.12396" lon="4.62791">
        <ele>708.8</ele>
        <time>2014-04-21T08:26:10Z</time>
      </trkpt>
      <trkpt lat="45.12394" lon="4.62784">
        <ele>710</ele>
        <time>2014-04-21T08:26:14Z</time>
      </trkpt>
      <trkpt lat="45.12391" lon="4.62779">
        <ele>710.8</ele>
        <time>2014-04-21T08:26:18Z</time>
      </trkpt>
      <trkpt lat="45.12388" lon="4.62775">
        <ele>711.6</ele>
        <time>2014-04-21T08:26:23Z</time>
      </trkpt>
      <trkpt lat="45.12383" lon="4.62772">
        <ele>711.4</ele>
        <time>2014-04-21T08:26:28Z</time>
      </trkpt>
      <trkpt lat="45.12378" lon="4.62775">
        <ele>710.4</ele>
        <time>2014-04-21T08:26:33Z</time>
      </trkpt>
      <trkpt lat="45.1237" lon="4.62784">
        <ele>708</ele>
        <time>2014-04-21T08:26:42Z</time>
      </trkpt>
      <trkpt lat="45.12368" lon="4.62791">
        <ele>706.7</ele>
        <time>2014-04-21T08:26:46Z</time>
      </trkpt>
      <trkpt lat="45.12364" lon="4.62798">
        <ele>705.2</ele>
        <time>2014-04-21T08:26:48Z</time>
      </trkpt>
      <trkpt lat="45.12357" lon="4.62805">
        <ele>703.7</ele>
        <time>2014-04-21T08:26:50Z</time>
      </trkpt>
      <trkpt lat="45.1235" lon="4.62808">
        <ele>703</ele>
        <time>2014-04-21T08:26:52Z</time>
      </trkpt>
      <trkpt lat="45.12344" lon="4.6281">
        <ele>702.5</ele>
        <time>2014-04-21T08:26:55Z</time>
      </trkpt>
      <trkpt lat="45.1234" lon="4.62812">
        <ele>701.8</ele>
        <time>2014-04-21T08:26:58Z</time>
      </trkpt>
      <trkpt lat="45.12336" lon="4.62817">
        <ele>701.1</ele>
        <time>2014-04-21T08:27:01Z</time>
      </trkpt>
      <trkpt lat="45.12333" lon="4.62823">
        <ele>700.3</ele>
        <time>2014-04-21T08:27:04Z</time>
      </trkpt>
      <trkpt lat="45.1233" lon="4.6283">
        <ele>700.1</ele>
        <time>2014-04-21T08:27:07Z</time>
      </trkpt>
      <trkpt lat="45.12327" lon="4.62837">
        <ele>699.5</ele>
        <time>2014-04-21T08:27:10Z</time>
      </trkpt>
      <trkpt lat="45.12324" lon="4.62845">
        <ele>698.9</ele>
        <time>2014-04-21T08:27:13Z</time>
      </trkpt>
      <trkpt lat="45.1232" lon="4.62851">
        <ele>698.5</ele>
        <time>2014-04-21T08:27:16Z</time>
      </trkpt>
      <trkpt lat="45.12316" lon="4.62856">
        <ele>698.3</ele>
        <time>2014-04-21T08:27:19Z</time>
      </trkpt>
      <trkpt lat="45.12312" lon="4.62861">
        <ele>698.2</ele>
        <time>2014-04-21T08:27:22Z</time>
      </trkpt>
      <trkpt lat="45.12308" lon="4.62864">
        <ele>698.4</ele>
        <time>2014-04-21T08:27:25Z</time>
      </trkpt>
      <trkpt lat="45.12303" lon="4.62868">
        <ele>698.4</ele>
        <time>2014-04-21T08:27:28Z</time>
      </trkpt>
      <trkpt lat="45.12298" lon="4.6287">
        <ele>698.7</ele>
        <time>2014-04-21T08:27:31Z</time>
      </trkpt>
      <trkpt lat="45.12292" lon="4.62871">
        <ele>699.3</ele>
        <time>2014-04-21T08:27:34Z</time>
      </trkpt>
      <trkpt lat="45.12281" lon="4.62872">
        <ele>700.8</ele>
        <time>2014-04-21T08:27:40Z</time>
      </trkpt>
      <trkpt lat="45.12276" lon="4.62872">
        <ele>701.6</ele>
        <time>2014-04-21T08:27:43Z</time>
      </trkpt>
      <trkpt lat="45.12271" lon="4.62872">
        <ele>702.3</ele>
        <time>2014-04-21T08:27:46Z</time>
      </trkpt>
      <trkpt lat="45.12265" lon="4.62871">
        <ele>703.2</ele>
        <time>2014-04-21T08:27:49Z</time>
      </trkpt>
      <trkpt lat="45.12259" lon="4.6287">
        <ele>704.4</ele>
        <time>2014-04-21T08:27:52Z</time>
      </trkpt>
      <trkpt lat="45.12254" lon="4.62867">
        <ele>705.4</ele>
        <time>2014-04-21T08:27:55Z</time>
      </trkpt>
      <trkpt lat="45.12248" lon="4.62864">
        <ele>706.9</ele>
        <time>2014-04-21T08:27:58Z</time>
      </trkpt>
      <trkpt lat="45.12243" lon="4.62863">
        <ele>707.9</ele>
        <time>2014-04-21T08:28:01Z</time>
      </trkpt>
      <trkpt lat="45.12238" lon="4.6286">
        <ele>709.1</ele>
        <time>2014-04-21T08:28:04Z</time>
      </trkpt>
      <trkpt lat="45.12233" lon="4.62858">
        <ele>710.1</ele>
        <time>2014-04-21T08:28:07Z</time>
      </trkpt>
      <trkpt lat="45.12228" lon="4.62856">
        <ele>711.5</ele>
        <time>2014-04-21T08:28:10Z</time>
      </trkpt>
      <trkpt lat="45.12222" lon="4.62854">
        <ele>712.9</ele>
        <time>2014-04-21T08:28:13Z</time>
      </trkpt>
      <trkpt lat="45.12217" lon="4.62853">
        <ele>714.1</ele>
        <time>2014-04-21T08:28:16Z</time>
      </trkpt>
      <trkpt lat="45.12211" lon="4.62852">
        <ele>714.9</ele>
        <time>2014-04-21T08:28:19Z</time>
      </trkpt>
      <trkpt lat="45.12205" lon="4.62853">
        <ele>715.6</ele>
        <time>2014-04-21T08:28:22Z</time>
      </trkpt>
      <trkpt lat="45.12199" lon="4.62853">
        <ele>716.5</ele>
        <time>2014-04-21T08:28:25Z</time>
      </trkpt>
      <trkpt lat="45.12194" lon="4.62853">
        <ele>717.3</ele>
        <time>2014-04-21T08:28:28Z</time>
      </trkpt>
      <trkpt lat="45.12189" lon="4.6285">
        <ele>718.9</ele>
        <time>2014-04-21T08:28:32Z</time>
      </trkpt>
      <trkpt lat="45.12184" lon="4.62848">
        <ele>720.4</ele>
        <time>2014-04-21T08:28:36Z</time>
      </trkpt>
      <trkpt lat="45.12174" lon="4.62843">
        <ele>723.8</ele>
        <time>2014-04-21T08:28:44Z</time>
      </trkpt>
      <trkpt lat="45.12169" lon="4.62839">
        <ele>726</ele>
        <time>2014-04-21T08:28:47Z</time>
      </trkpt>
      <trkpt lat="45.12164" lon="4.62838">
        <ele>726.5</ele>
        <time>2014-04-21T08:28:50Z</time>
      </trkpt>
      <trkpt lat="45.1216" lon="4.62837">
        <ele>727.2</ele>
        <time>2014-04-21T08:28:53Z</time>
      </trkpt>
      <trkpt lat="45.12154" lon="4.62836">
        <ele>728</ele>
        <time>2014-04-21T08:28:57Z</time>
      </trkpt>
      <trkpt lat="45.12149" lon="4.62833">
        <ele>729</ele>
        <time>2014-04-21T08:29:01Z</time>
      </trkpt>
      <trkpt lat="45.12145" lon="4.62833">
        <ele>729.7</ele>
        <time>2014-04-21T08:29:05Z</time>
      </trkpt>
      <trkpt lat="45.12141" lon="4.6283">
        <ele>730.7</ele>
        <time>2014-04-21T08:29:09Z</time>
      </trkpt>
      <trkpt lat="45.12135" lon="4.62827">
        <ele>731.9</ele>
        <time>2014-04-21T08:29:14Z</time>
      </trkpt>
      <trkpt lat="45.12129" lon="4.62825">
        <ele>733.1</ele>
        <time>2014-04-21T08:29:17Z</time>
      </trkpt>
      <trkpt lat="45.12124" lon="4.62823">
        <ele>733.8</ele>
        <time>2014-04-21T08:29:21Z</time>
      </trkpt>
      <trkpt lat="45.12118" lon="4.62824">
        <ele>734.2</ele>
        <time>2014-04-21T08:29:25Z</time>
      </trkpt>
      <trkpt lat="45.12114" lon="4.62827">
        <ele>733.3</ele>
        <time>2014-04-21T08:29:28Z</time>
      </trkpt>
      <trkpt lat="45.1211" lon="4.62833">
        <ele>731.8</ele>
        <time>2014-04-21T08:29:31Z</time>
      </trkpt>
      <trkpt lat="45.12107" lon="4.62839">
        <ele>730.5</ele>
        <time>2014-04-21T08:29:33Z</time>
      </trkpt>
      <trkpt lat="45.12104" lon="4.62845">
        <ele>729.6</ele>
        <time>2014-04-21T08:29:35Z</time>
      </trkpt>
      <trkpt lat="45.12104" lon="4.62853">
        <ele>727.8</ele>
        <time>2014-04-21T08:29:37Z</time>
      </trkpt>
      <trkpt lat="45.12109" lon="4.62876">
        <ele>722.2</ele>
        <time>2014-04-21T08:29:41Z</time>
      </trkpt>
      <trkpt lat="45.1211" lon="4.62882">
        <ele>720.8</ele>
        <time>2014-04-21T08:29:42Z</time>
      </trkpt>
      <trkpt lat="45.12114" lon="4.62894">
        <ele>717.4</ele>
        <time>2014-04-21T08:29:44Z</time>
      </trkpt>
      <trkpt lat="45.12115" lon="4.62901">
        <ele>715.6</ele>
        <time>2014-04-21T08:29:45Z</time>
      </trkpt>
      <trkpt lat="45.12117" lon="4.62908">
        <ele>713.8</ele>
        <time>2014-04-21T08:29:46Z</time>
      </trkpt>
      <trkpt lat="45.12119" lon="4.62915">
        <ele>712</ele>
        <time>2014-04-21T08:29:47Z</time>
      </trkpt>
      <trkpt lat="45.1212" lon="4.62922">
        <ele>710.8</ele>
        <time>2014-04-21T08:29:48Z</time>
      </trkpt>
      <trkpt lat="45.12121" lon="4.62929">
        <ele>710</ele>
        <time>2014-04-21T08:29:49Z</time>
      </trkpt>
      <trkpt lat="45.12122" lon="4.62936">
        <ele>709.2</ele>
        <time>2014-04-21T08:29:50Z</time>
      </trkpt>
      <trkpt lat="45.12122" lon="4.62948">
        <ele>708.3</ele>
        <time>2014-04-21T08:29:52Z</time>
      </trkpt>
      <trkpt lat="45.12122" lon="4.62958">
        <ele>707.7</ele>
        <time>2014-04-21T08:29:54Z</time>
      </trkpt>
      <trkpt lat="45.12123" lon="4.62967">
        <ele>706.6</ele>
        <time>2014-04-21T08:29:56Z</time>
      </trkpt>
      <trkpt lat="45.12123" lon="4.62976">
        <ele>706.1</ele>
        <time>2014-04-21T08:29:58Z</time>
      </trkpt>
      <trkpt lat="45.12124" lon="4.62984">
        <ele>705.2</ele>
        <time>2014-04-21T08:30:00Z</time>
      </trkpt>
      <trkpt lat="45.12124" lon="4.62993">
        <ele>704.2</ele>
        <time>2014-04-21T08:30:03Z</time>
      </trkpt>
      <trkpt lat="45.12125" lon="4.63">
        <ele>703.5</ele>
        <time>2014-04-21T08:30:05Z</time>
      </trkpt>
      <trkpt lat="45.12126" lon="4.63008">
        <ele>702.7</ele>
        <time>2014-04-21T08:30:08Z</time>
      </trkpt>
      <trkpt lat="45.12125" lon="4.63015">
        <ele>702.5</ele>
        <time>2014-04-21T08:30:11Z</time>
      </trkpt>
      <trkpt lat="45.12123" lon="4.63022">
        <ele>702.3</ele>
        <time>2014-04-21T08:30:14Z</time>
      </trkpt>
      <trkpt lat="45.12122" lon="4.6303">
        <ele>702.4</ele>
        <time>2014-04-21T08:30:16Z</time>
      </trkpt>
      <trkpt lat="45.12121" lon="4.63036">
        <ele>702.3</ele>
        <time>2014-04-21T08:30:18Z</time>
      </trkpt>
      <trkpt lat="45.1212" lon="4.63043">
        <ele>701.8</ele>
        <time>2014-04-21T08:30:19Z</time>
      </trkpt>
      <trkpt lat="45.12119" lon="4.63051">
        <ele>701.7</ele>
        <time>2014-04-21T08:30:21Z</time>
      </trkpt>
      <trkpt lat="45.12116" lon="4.63059">
        <ele>702.1</ele>
        <time>2014-04-21T08:30:23Z</time>
      </trkpt>
      <trkpt lat="45.12114" lon="4.63066">
        <ele>702.5</ele>
        <time>2014-04-21T08:30:25Z</time>
      </trkpt>
      <trkpt lat="45.12112" lon="4.63073">
        <ele>702.6</ele>
        <time>2014-04-21T08:30:27Z</time>
      </trkpt>
      <trkpt lat="45.12109" lon="4.63079">
        <ele>703</ele>
        <time>2014-04-21T08:30:29Z</time>
      </trkpt>
      <trkpt lat="45.12106" lon="4.63086">
        <ele>703.5</ele>
        <time>2014-04-21T08:30:31Z</time>
      </trkpt>
      <trkpt lat="45.12103" lon="4.63094">
        <ele>703.4</ele>
        <time>2014-04-21T08:30:34Z</time>
      </trkpt>
      <trkpt lat="45.12099" lon="4.63101">
        <ele>703.7</ele>
        <time>2014-04-21T08:30:37Z</time>
      </trkpt>
      <trkpt lat="45.12096" lon="4.63107">
        <ele>704</ele>
        <time>2014-04-21T08:30:40Z</time>
      </trkpt>
      <trkpt lat="45.12088" lon="4.63109">
        <ele>706.4</ele>
        <time>2014-04-21T08:30:50Z</time>
      </trkpt>
      <trkpt lat="45.12089" lon="4.63101">
        <ele>707.4</ele>
        <time>2014-04-21T08:30:54Z</time>
      </trkpt>
      <trkpt lat="45.1209" lon="4.63094">
        <ele>708.1</ele>
        <time>2014-04-21T08:30:57Z</time>
      </trkpt>
      <trkpt lat="45.12092" lon="4.63087">
        <ele>708.6</ele>
        <time>2014-04-21T08:31:00Z</time>
      </trkpt>
      <trkpt lat="45.12093" lon="4.63079">
        <ele>708.9</ele>
        <time>2014-04-21T08:31:03Z</time>
      </trkpt>
      <trkpt lat="45.12093" lon="4.63073">
        <ele>709.4</ele>
        <time>2014-04-21T08:31:06Z</time>
      </trkpt>
      <trkpt lat="45.12093" lon="4.63064">
        <ele>710</ele>
        <time>2014-04-21T08:31:11Z</time>
      </trkpt>
      <trkpt lat="45.12094" lon="4.63058">
        <ele>710</ele>
        <time>2014-04-21T08:31:14Z</time>
      </trkpt>
      <trkpt lat="45.12096" lon="4.6305">
        <ele>710</ele>
        <time>2014-04-21T08:31:17Z</time>
      </trkpt>
      <trkpt lat="45.12096" lon="4.63044">
        <ele>710.3</ele>
        <time>2014-04-21T08:31:20Z</time>
      </trkpt>
      <trkpt lat="45.12096" lon="4.63036">
        <ele>711</ele>
        <time>2014-04-21T08:31:22Z</time>
      </trkpt>
      <trkpt lat="45.12097" lon="4.63029">
        <ele>711.2</ele>
        <time>2014-04-21T08:31:24Z</time>
      </trkpt>
      <trkpt lat="45.12096" lon="4.6302">
        <ele>712</ele>
        <time>2014-04-21T08:31:27Z</time>
      </trkpt>
      <trkpt lat="45.12097" lon="4.63012">
        <ele>712.5</ele>
        <time>2014-04-21T08:31:30Z</time>
      </trkpt>
      <trkpt lat="45.12096" lon="4.63006">
        <ele>713.2</ele>
        <time>2014-04-21T08:31:33Z</time>
      </trkpt>
      <trkpt lat="45.12095" lon="4.62998">
        <ele>713.9</ele>
        <time>2014-04-21T08:31:36Z</time>
      </trkpt>
      <trkpt lat="45.12094" lon="4.62992">
        <ele>714.4</ele>
        <time>2014-04-21T08:31:39Z</time>
      </trkpt>
      <trkpt lat="45.12095" lon="4.62985">
        <ele>714.4</ele>
        <time>2014-04-21T08:31:42Z</time>
      </trkpt>
      <trkpt lat="45.12094" lon="4.6297">
        <ele>715.2</ele>
        <time>2014-04-21T08:31:49Z</time>
      </trkpt>
      <trkpt lat="45.12093" lon="4.62962">
        <ele>715.8</ele>
        <time>2014-04-21T08:31:52Z</time>
      </trkpt>
      <trkpt lat="45.12092" lon="4.62955">
        <ele>716.1</ele>
        <time>2014-04-21T08:31:55Z</time>
      </trkpt>
      <trkpt lat="45.12091" lon="4.62947">
        <ele>716.7</ele>
        <time>2014-04-21T08:31:58Z</time>
      </trkpt>
      <trkpt lat="45.1209" lon="4.62939">
        <ele>717</ele>
        <time>2014-04-21T08:32:01Z</time>
      </trkpt>
      <trkpt lat="45.12089" lon="4.62932">
        <ele>717.5</ele>
        <time>2014-04-21T08:32:04Z</time>
      </trkpt>
      <trkpt lat="45.12088" lon="4.62925">
        <ele>717.9</ele>
        <time>2014-04-21T08:32:07Z</time>
      </trkpt>
      <trkpt lat="45.12086" lon="4.62917">
        <ele>718.4</ele>
        <time>2014-04-21T08:32:11Z</time>
      </trkpt>
      <trkpt lat="45.12086" lon="4.62909">
        <ele>719.9</ele>
        <time>2014-04-21T08:32:15Z</time>
      </trkpt>
      <trkpt lat="45.12084" lon="4.62901">
        <ele>721.4</ele>
        <time>2014-04-21T08:32:19Z</time>
      </trkpt>
      <trkpt lat="45.12082" lon="4.62895">
        <ele>723</ele>
        <time>2014-04-21T08:32:22Z</time>
      </trkpt>
      <trkpt lat="45.1208" lon="4.62889">
        <ele>724.5</ele>
        <time>2014-04-21T08:32:24Z</time>
      </trkpt>
      <trkpt lat="45.12078" lon="4.62882">
        <ele>726.5</ele>
        <time>2014-04-21T08:32:27Z</time>
      </trkpt>
      <trkpt lat="45.12076" lon="4.62875">
        <ele>728</ele>
        <time>2014-04-21T08:32:30Z</time>
      </trkpt>
      <trkpt lat="45.12073" lon="4.62869">
        <ele>729.6</ele>
        <time>2014-04-21T08:32:33Z</time>
      </trkpt>
      <trkpt lat="45.12071" lon="4.62863">
        <ele>731.1</ele>
        <time>2014-04-21T08:32:36Z</time>
      </trkpt>
      <trkpt lat="45.12069" lon="4.62856">
        <ele>732.5</ele>
        <time>2014-04-21T08:32:39Z</time>
      </trkpt>
      <trkpt lat="45.12068" lon="4.6285">
        <ele>733.8</ele>
        <time>2014-04-21T08:32:42Z</time>
      </trkpt>
      <trkpt lat="45.12067" lon="4.62844">
        <ele>734.9</ele>
        <time>2014-04-21T08:32:45Z</time>
      </trkpt>
      <trkpt lat="45.12062" lon="4.62832">
        <ele>738</ele>
        <time>2014-04-21T08:32:51Z</time>
      </trkpt>
      <trkpt lat="45.12056" lon="4.62831">
        <ele>739.4</ele>
        <time>2014-04-21T08:32:55Z</time>
      </trkpt>
      <trkpt lat="45.12052" lon="4.62834">
        <ele>738.9</ele>
        <time>2014-04-21T08:32:58Z</time>
      </trkpt>
      <trkpt lat="45.1205" lon="4.6284">
        <ele>738.6</ele>
        <time>2014-04-21T08:33:01Z</time>
      </trkpt>
      <trkpt lat="45.12051" lon="4.62846">
        <ele>737.7</ele>
        <time>2014-04-21T08:33:04Z</time>
      </trkpt>
      <trkpt lat="45.12053" lon="4.62852">
        <ele>736.6</ele>
        <time>2014-04-21T08:33:07Z</time>
      </trkpt>
      <trkpt lat="45.12056" lon="4.62859">
        <ele>735.2</ele>
        <time>2014-04-21T08:33:11Z</time>
      </trkpt>
      <trkpt lat="45.12058" lon="4.62866">
        <ele>733.8</ele>
        <time>2014-04-21T08:33:15Z</time>
      </trkpt>
      <trkpt lat="45.12058" lon="4.62873">
        <ele>733</ele>
        <time>2014-04-21T08:33:19Z</time>
      </trkpt>
      <trkpt lat="45.12058" lon="4.6288">
        <ele>732.1</ele>
        <time>2014-04-21T08:33:23Z</time>
      </trkpt>
      <trkpt lat="45.12058" lon="4.62888">
        <ele>731.1</ele>
        <time>2014-04-21T08:33:26Z</time>
      </trkpt>
      <trkpt lat="45.12058" lon="4.62894">
        <ele>730.1</ele>
        <time>2014-04-21T08:33:29Z</time>
      </trkpt>
      <trkpt lat="45.12057" lon="4.62901">
        <ele>729.6</ele>
        <time>2014-04-21T08:33:32Z</time>
      </trkpt>
      <trkpt lat="45.12056" lon="4.62907">
        <ele>729.2</ele>
        <time>2014-04-21T08:33:35Z</time>
      </trkpt>
      <trkpt lat="45.12055" lon="4.62913">
        <ele>728.7</ele>
        <time>2014-04-21T08:33:38Z</time>
      </trkpt>
      <trkpt lat="45.12054" lon="4.6292">
        <ele>728.4</ele>
        <time>2014-04-21T08:33:41Z</time>
      </trkpt>
      <trkpt lat="45.12053" lon="4.62927">
        <ele>728.6</ele>
        <time>2014-04-21T08:33:44Z</time>
      </trkpt>
      <trkpt lat="45.12052" lon="4.62934">
        <ele>728.9</ele>
        <time>2014-04-21T08:33:47Z</time>
      </trkpt>
      <trkpt lat="45.12048" lon="4.62949">
        <ele>730.2</ele>
        <time>2014-04-21T08:33:53Z</time>
      </trkpt>
      <trkpt lat="45.12045" lon="4.62956">
        <ele>731</ele>
        <time>2014-04-21T08:33:56Z</time>
      </trkpt>
      <trkpt lat="45.12044" lon="4.62964">
        <ele>731.6</ele>
        <time>2014-04-21T08:33:59Z</time>
      </trkpt>
      <trkpt lat="45.12041" lon="4.62972">
        <ele>732.5</ele>
        <time>2014-04-21T08:34:03Z</time>
      </trkpt>
      <trkpt lat="45.12038" lon="4.62977">
        <ele>733.3</ele>
        <time>2014-04-21T08:34:06Z</time>
      </trkpt>
      <trkpt lat="45.12035" lon="4.62983">
        <ele>734.2</ele>
        <time>2014-04-21T08:34:09Z</time>
      </trkpt>
      <trkpt lat="45.12032" lon="4.62989">
        <ele>735.2</ele>
        <time>2014-04-21T08:34:12Z</time>
      </trkpt>
      <trkpt lat="45.12028" lon="4.62996">
        <ele>736.6</ele>
        <time>2014-04-21T08:34:15Z</time>
      </trkpt>
      <trkpt lat="45.12025" lon="4.63001">
        <ele>737.5</ele>
        <time>2014-04-21T08:34:17Z</time>
      </trkpt>
      <trkpt lat="45.12021" lon="4.63007">
        <ele>738.5</ele>
        <time>2014-04-21T08:34:20Z</time>
      </trkpt>
      <trkpt lat="45.12017" lon="4.63013">
        <ele>739.6</ele>
        <time>2014-04-21T08:34:23Z</time>
      </trkpt>
      <trkpt lat="45.12013" lon="4.63018">
        <ele>740.9</ele>
        <time>2014-04-21T08:34:26Z</time>
      </trkpt>
      <trkpt lat="45.12009" lon="4.63024">
        <ele>742</ele>
        <time>2014-04-21T08:34:29Z</time>
      </trkpt>
      <trkpt lat="45.12006" lon="4.63029">
        <ele>742.9</ele>
        <time>2014-04-21T08:34:32Z</time>
      </trkpt>
      <trkpt lat="45.12002" lon="4.63034">
        <ele>744.2</ele>
        <time>2014-04-21T08:34:35Z</time>
      </trkpt>
      <trkpt lat="45.11997" lon="4.63039">
        <ele>745.1</ele>
        <time>2014-04-21T08:34:38Z</time>
      </trkpt>
      <trkpt lat="45.11993" lon="4.63043">
        <ele>745.7</ele>
        <time>2014-04-21T08:34:41Z</time>
      </trkpt>
      <trkpt lat="45.11989" lon="4.63047">
        <ele>746.3</ele>
        <time>2014-04-21T08:34:44Z</time>
      </trkpt>
      <trkpt lat="45.11985" lon="4.6305">
        <ele>747</ele>
        <time>2014-04-21T08:34:47Z</time>
      </trkpt>
      <trkpt lat="45.1198" lon="4.63053">
        <ele>747.7</ele>
        <time>2014-04-21T08:34:50Z</time>
      </trkpt>
      <trkpt lat="45.11972" lon="4.6306">
        <ele>748.8</ele>
        <time>2014-04-21T08:34:56Z</time>
      </trkpt>
      <trkpt lat="45.11967" lon="4.63062">
        <ele>749.4</ele>
        <time>2014-04-21T08:34:59Z</time>
      </trkpt>
      <trkpt lat="45.11962" lon="4.63066">
        <ele>750</ele>
        <time>2014-04-21T08:35:03Z</time>
      </trkpt>
      <trkpt lat="45.11957" lon="4.63069">
        <ele>750.7</ele>
        <time>2014-04-21T08:35:07Z</time>
      </trkpt>
      <trkpt lat="45.11951" lon="4.63073">
        <ele>751.4</ele>
        <time>2014-04-21T08:35:11Z</time>
      </trkpt>
      <trkpt lat="45.11947" lon="4.63075">
        <ele>752</ele>
        <time>2014-04-21T08:35:14Z</time>
      </trkpt>
      <trkpt lat="45.11942" lon="4.63078">
        <ele>752.5</ele>
        <time>2014-04-21T08:35:17Z</time>
      </trkpt>
      <trkpt lat="45.11937" lon="4.63081">
        <ele>753</ele>
        <time>2014-04-21T08:35:20Z</time>
      </trkpt>
      <trkpt lat="45.11932" lon="4.63083">
        <ele>753.6</ele>
        <time>2014-04-21T08:35:23Z</time>
      </trkpt>
      <trkpt lat="45.11928" lon="4.63086">
        <ele>754.1</ele>
        <time>2014-04-21T08:35:26Z</time>
      </trkpt>
      <trkpt lat="45.11923" lon="4.63087">
        <ele>754.6</ele>
        <time>2014-04-21T08:35:29Z</time>
      </trkpt>
      <trkpt lat="45.11917" lon="4.63089">
        <ele>755.2</ele>
        <time>2014-04-21T08:35:32Z</time>
      </trkpt>
      <trkpt lat="45.11911" lon="4.63091">
        <ele>755.8</ele>
        <time>2014-04-21T08:35:35Z</time>
      </trkpt>
      <trkpt lat="45.11907" lon="4.63092">
        <ele>756.3</ele>
        <time>2014-04-21T08:35:38Z</time>
      </trkpt>
      <trkpt lat="45.11901" lon="4.63092">
        <ele>757.1</ele>
        <time>2014-04-21T08:35:41Z</time>
      </trkpt>
      <trkpt lat="45.11895" lon="4.63093">
        <ele>757.8</ele>
        <time>2014-04-21T08:35:44Z</time>
      </trkpt>
      <trkpt lat="45.11889" lon="4.63093">
        <ele>758.7</ele>
        <time>2014-04-21T08:35:47Z</time>
      </trkpt>
      <trkpt lat="45.11883" lon="4.63093">
        <ele>759.6</ele>
        <time>2014-04-21T08:35:50Z</time>
      </trkpt>
      <trkpt lat="45.11877" lon="4.63091">
        <ele>760.7</ele>
        <time>2014-04-21T08:35:53Z</time>
      </trkpt>
      <trkpt lat="45.11868" lon="4.63082">
        <ele>763.4</ele>
        <time>2014-04-21T08:35:59Z</time>
      </trkpt>
      <trkpt lat="45.11862" lon="4.63078">
        <ele>764.8</ele>
        <time>2014-04-21T08:36:02Z</time>
      </trkpt>
      <trkpt lat="45.11857" lon="4.63073">
        <ele>766</ele>
        <time>2014-04-21T08:36:05Z</time>
      </trkpt>
      <trkpt lat="45.11853" lon="4.63067">
        <ele>767.6</ele>
        <time>2014-04-21T08:36:08Z</time>
      </trkpt>
      <trkpt lat="45.11848" lon="4.63062">
        <ele>769.1</ele>
        <time>2014-04-21T08:36:11Z</time>
      </trkpt>
      <trkpt lat="45.11844" lon="4.63056">
        <ele>770.5</ele>
        <time>2014-04-21T08:36:14Z</time>
      </trkpt>
      <trkpt lat="45.11841" lon="4.6305">
        <ele>772.1</ele>
        <time>2014-04-21T08:36:17Z</time>
      </trkpt>
      <trkpt lat="45.11837" lon="4.63045">
        <ele>773.4</ele>
        <time>2014-04-21T08:36:20Z</time>
      </trkpt>
      <trkpt lat="45.11834" lon="4.6304">
        <ele>774.8</ele>
        <time>2014-04-21T08:36:23Z</time>
      </trkpt>
      <trkpt lat="45.1183" lon="4.63034">
        <ele>775.6</ele>
        <time>2014-04-21T08:36:26Z</time>
      </trkpt>
      <trkpt lat="45.11826" lon="4.63028">
        <ele>776.5</ele>
        <time>2014-04-21T08:36:29Z</time>
      </trkpt>
      <trkpt lat="45.11823" lon="4.63021">
        <ele>777.5</ele>
        <time>2014-04-21T08:36:32Z</time>
      </trkpt>
      <trkpt lat="45.1182" lon="4.63016">
        <ele>778.2</ele>
        <time>2014-04-21T08:36:35Z</time>
      </trkpt>
      <trkpt lat="45.11816" lon="4.6301">
        <ele>779.1</ele>
        <time>2014-04-21T08:36:38Z</time>
      </trkpt>
      <trkpt lat="45.11813" lon="4.63004">
        <ele>779.9</ele>
        <time>2014-04-21T08:36:41Z</time>
      </trkpt>
      <trkpt lat="45.11809" lon="4.62999">
        <ele>780.6</ele>
        <time>2014-04-21T08:36:44Z</time>
      </trkpt>
      <trkpt lat="45.11806" lon="4.62993">
        <ele>781.4</ele>
        <time>2014-04-21T08:36:47Z</time>
      </trkpt>
      <trkpt lat="45.11804" lon="4.62987">
        <ele>782.1</ele>
        <time>2014-04-21T08:36:50Z</time>
      </trkpt>
      <trkpt lat="45.11802" lon="4.6298">
        <ele>783.2</ele>
        <time>2014-04-21T08:36:54Z</time>
      </trkpt>
      <trkpt lat="45.11798" lon="4.62968">
        <ele>784.8</ele>
        <time>2014-04-21T08:37:01Z</time>
      </trkpt>
      <trkpt lat="45.11795" lon="4.62961">
        <ele>785.9</ele>
        <time>2014-04-21T08:37:03Z</time>
      </trkpt>
      <trkpt lat="45.11794" lon="4.62953">
        <ele>786.8</ele>
        <time>2014-04-21T08:37:07Z</time>
      </trkpt>
      <trkpt lat="45.11793" lon="4.62946">
        <ele>787.9</ele>
        <time>2014-04-21T08:37:11Z</time>
      </trkpt>
      <trkpt lat="45.11791" lon="4.62939">
        <ele>789</ele>
        <time>2014-04-21T08:37:15Z</time>
      </trkpt>
      <trkpt lat="45.11791" lon="4.62932">
        <ele>789.9</ele>
        <time>2014-04-21T08:37:18Z</time>
      </trkpt>
      <trkpt lat="45.11791" lon="4.62924">
        <ele>790.9</ele>
        <time>2014-04-21T08:37:22Z</time>
      </trkpt>
      <trkpt lat="45.11791" lon="4.62917">
        <ele>792</ele>
        <time>2014-04-21T08:37:26Z</time>
      </trkpt>
      <trkpt lat="45.11792" lon="4.62909">
        <ele>792.7</ele>
        <time>2014-04-21T08:37:31Z</time>
      </trkpt>
      <trkpt lat="45.11794" lon="4.62902">
        <ele>793</ele>
        <time>2014-04-21T08:37:35Z</time>
      </trkpt>
      <trkpt lat="45.11794" lon="4.62895">
        <ele>793.6</ele>
        <time>2014-04-21T08:37:42Z</time>
      </trkpt>
      <trkpt lat="45.11796" lon="4.62888">
        <ele>794.1</ele>
        <time>2014-04-21T08:37:46Z</time>
      </trkpt>
      <trkpt lat="45.11798" lon="4.62882">
        <ele>794.6</ele>
        <time>2014-04-21T08:37:50Z</time>
      </trkpt>
      <trkpt lat="45.118" lon="4.62875">
        <ele>795.2</ele>
        <time>2014-04-21T08:37:54Z</time>
      </trkpt>
      <trkpt lat="45.11802" lon="4.62867">
        <ele>795.8</ele>
        <time>2014-04-21T08:37:58Z</time>
      </trkpt>
      <trkpt lat="45.11804" lon="4.62853">
        <ele>796.8</ele>
        <time>2014-04-21T08:38:05Z</time>
      </trkpt>
      <trkpt lat="45.11806" lon="4.62847">
        <ele>797.4</ele>
        <time>2014-04-21T08:38:08Z</time>
      </trkpt>
      <trkpt lat="45.11808" lon="4.6284">
        <ele>797.9</ele>
        <time>2014-04-21T08:38:12Z</time>
      </trkpt>
      <trkpt lat="45.1181" lon="4.62833">
        <ele>798.5</ele>
        <time>2014-04-21T08:38:16Z</time>
      </trkpt>
      <trkpt lat="45.11811" lon="4.62825">
        <ele>799</ele>
        <time>2014-04-21T08:38:19Z</time>
      </trkpt>
      <trkpt lat="45.11813" lon="4.62819">
        <ele>799.3</ele>
        <time>2014-04-21T08:38:22Z</time>
      </trkpt>
      <trkpt lat="45.11814" lon="4.62812">
        <ele>799.8</ele>
        <time>2014-04-21T08:38:25Z</time>
      </trkpt>
      <trkpt lat="45.11815" lon="4.62805">
        <ele>800.2</ele>
        <time>2014-04-21T08:38:28Z</time>
      </trkpt>
      <trkpt lat="45.11815" lon="4.62798">
        <ele>800.6</ele>
        <time>2014-04-21T08:38:31Z</time>
      </trkpt>
      <trkpt lat="45.11815" lon="4.62789">
        <ele>801.1</ele>
        <time>2014-04-21T08:38:34Z</time>
      </trkpt>
      <trkpt lat="45.11815" lon="4.62781">
        <ele>801.6</ele>
        <time>2014-04-21T08:38:37Z</time>
      </trkpt>
      <trkpt lat="45.11815" lon="4.62773">
        <ele>802</ele>
        <time>2014-04-21T08:38:40Z</time>
      </trkpt>
      <trkpt lat="45.11814" lon="4.62765">
        <ele>802.4</ele>
        <time>2014-04-21T08:38:43Z</time>
      </trkpt>
      <trkpt lat="45.11814" lon="4.62757">
        <ele>802.8</ele>
        <time>2014-04-21T08:38:46Z</time>
      </trkpt>
      <trkpt lat="45.11814" lon="4.62747">
        <ele>803.4</ele>
        <time>2014-04-21T08:38:49Z</time>
      </trkpt>
      <trkpt lat="45.11814" lon="4.62739">
        <ele>804.3</ele>
        <time>2014-04-21T08:38:52Z</time>
      </trkpt>
      <trkpt lat="45.11814" lon="4.6273">
        <ele>805.1</ele>
        <time>2014-04-21T08:38:55Z</time>
      </trkpt>
      <trkpt lat="45.11814" lon="4.62723">
        <ele>805.8</ele>
        <time>2014-04-21T08:38:57Z</time>
      </trkpt>
      <trkpt lat="45.11814" lon="4.62714">
        <ele>806.7</ele>
        <time>2014-04-21T08:39:00Z</time>
      </trkpt>
      <trkpt lat="45.11815" lon="4.62698">
        <ele>808.5</ele>
        <time>2014-04-21T08:39:05Z</time>
      </trkpt>
      <trkpt lat="45.11816" lon="4.62691">
        <ele>809.3</ele>
        <time>2014-04-21T08:39:07Z</time>
      </trkpt>
      <trkpt lat="45.11817" lon="4.62683">
        <ele>810.2</ele>
        <time>2014-04-21T08:39:09Z</time>
      </trkpt>
      <trkpt lat="45.11818" lon="4.62675">
        <ele>811</ele>
        <time>2014-04-21T08:39:11Z</time>
      </trkpt>
      <trkpt lat="45.11817" lon="4.62667">
        <ele>811.7</ele>
        <time>2014-04-21T08:39:13Z</time>
      </trkpt>
      <trkpt lat="45.11817" lon="4.6266">
        <ele>812.5</ele>
        <time>2014-04-21T08:39:15Z</time>
      </trkpt>
      <trkpt lat="45.11816" lon="4.62652">
        <ele>813.1</ele>
        <time>2014-04-21T08:39:17Z</time>
      </trkpt>
      <trkpt lat="45.11815" lon="4.62645">
        <ele>813.7</ele>
        <time>2014-04-21T08:39:19Z</time>
      </trkpt>
      <trkpt lat="45.11813" lon="4.62639">
        <ele>814</ele>
        <time>2014-04-21T08:39:21Z</time>
      </trkpt>
      <trkpt lat="45.1181" lon="4.62632">
        <ele>814.4</ele>
        <time>2014-04-21T08:39:23Z</time>
      </trkpt>
      <trkpt lat="45.11808" lon="4.62624">
        <ele>814.8</ele>
        <time>2014-04-21T08:39:25Z</time>
      </trkpt>
      <trkpt lat="45.11806" lon="4.62618">
        <ele>815.2</ele>
        <time>2014-04-21T08:39:27Z</time>
      </trkpt>
      <trkpt lat="45.11804" lon="4.62611">
        <ele>815.5</ele>
        <time>2014-04-21T08:39:29Z</time>
      </trkpt>
      <trkpt lat="45.11802" lon="4.62605">
        <ele>815.8</ele>
        <time>2014-04-21T08:39:31Z</time>
      </trkpt>
      <trkpt lat="45.11799" lon="4.62596">
        <ele>816.1</ele>
        <time>2014-04-21T08:39:34Z</time>
      </trkpt>
      <trkpt lat="45.11797" lon="4.6259">
        <ele>816.4</ele>
        <time>2014-04-21T08:39:36Z</time>
      </trkpt>
      <trkpt lat="45.11795" lon="4.62585">
        <ele>816.6</ele>
        <time>2014-04-21T08:39:38Z</time>
      </trkpt>
      <trkpt lat="45.11793" lon="4.62578">
        <ele>816.7</ele>
        <time>2014-04-21T08:39:40Z</time>
      </trkpt>
      <trkpt lat="45.11791" lon="4.62572">
        <ele>816.6</ele>
        <time>2014-04-21T08:39:42Z</time>
      </trkpt>
      <trkpt lat="45.1179" lon="4.62566">
        <ele>816.6</ele>
        <time>2014-04-21T08:39:44Z</time>
      </trkpt>
      <trkpt lat="45.11788" lon="4.62559">
        <ele>816.7</ele>
        <time>2014-04-21T08:39:46Z</time>
      </trkpt>
      <trkpt lat="45.11787" lon="4.62552">
        <ele>816.8</ele>
        <time>2014-04-21T08:39:48Z</time>
      </trkpt>
      <trkpt lat="45.11785" lon="4.62545">
        <ele>816.9</ele>
        <time>2014-04-21T08:39:50Z</time>
      </trkpt>
      <trkpt lat="45.11785" lon="4.62538">
        <ele>817.1</ele>
        <time>2014-04-21T08:39:52Z</time>
      </trkpt>
      <trkpt lat="45.11783" lon="4.62531">
        <ele>817.3</ele>
        <time>2014-04-21T08:39:54Z</time>
      </trkpt>
      <trkpt lat="45.11782" lon="4.62524">
        <ele>817.4</ele>
        <time>2014-04-21T08:39:56Z</time>
      </trkpt>
      <trkpt lat="45.11782" lon="4.62517">
        <ele>817.8</ele>
        <time>2014-04-21T08:39:58Z</time>
      </trkpt>
      <trkpt lat="45.11781" lon="4.6251">
        <ele>818.1</ele>
        <time>2014-04-21T08:40:00Z</time>
      </trkpt>
      <trkpt lat="45.11781" lon="4.62503">
        <ele>818.4</ele>
        <time>2014-04-21T08:40:02Z</time>
      </trkpt>
      <trkpt lat="45.11781" lon="4.62489">
        <ele>818.5</ele>
        <time>2014-04-21T08:40:06Z</time>
      </trkpt>
      <trkpt lat="45.11782" lon="4.62482">
        <ele>818.4</ele>
        <time>2014-04-21T08:40:08Z</time>
      </trkpt>
      <trkpt lat="45.11783" lon="4.62474">
        <ele>818.4</ele>
        <time>2014-04-21T08:40:10Z</time>
      </trkpt>
      <trkpt lat="45.11783" lon="4.62466">
        <ele>818.4</ele>
        <time>2014-04-21T08:40:12Z</time>
      </trkpt>
      <trkpt lat="45.11784" lon="4.62459">
        <ele>818.5</ele>
        <time>2014-04-21T08:40:14Z</time>
      </trkpt>
      <trkpt lat="45.11785" lon="4.62451">
        <ele>818.5</ele>
        <time>2014-04-21T08:40:16Z</time>
      </trkpt>
      <trkpt lat="45.11785" lon="4.62442">
        <ele>818.4</ele>
        <time>2014-04-21T08:40:18Z</time>
      </trkpt>
      <trkpt lat="45.11786" lon="4.62434">
        <ele>818.5</ele>
        <time>2014-04-21T08:40:20Z</time>
      </trkpt>
      <trkpt lat="45.11786" lon="4.62426">
        <ele>818.4</ele>
        <time>2014-04-21T08:40:22Z</time>
      </trkpt>
      <trkpt lat="45.11787" lon="4.62419">
        <ele>818.5</ele>
        <time>2014-04-21T08:40:24Z</time>
      </trkpt>
      <trkpt lat="45.11788" lon="4.62412">
        <ele>818.7</ele>
        <time>2014-04-21T08:40:26Z</time>
      </trkpt>
      <trkpt lat="45.11788" lon="4.62406">
        <ele>819.1</ele>
        <time>2014-04-21T08:40:28Z</time>
      </trkpt>
      <trkpt lat="45.11788" lon="4.62398">
        <ele>819.3</ele>
        <time>2014-04-21T08:40:30Z</time>
      </trkpt>
      <trkpt lat="45.11788" lon="4.62392">
        <ele>819.4</ele>
        <time>2014-04-21T08:40:32Z</time>
      </trkpt>
      <trkpt lat="45.11789" lon="4.62385">
        <ele>819.7</ele>
        <time>2014-04-21T08:40:34Z</time>
      </trkpt>
      <trkpt lat="45.11789" lon="4.62378">
        <ele>819.9</ele>
        <time>2014-04-21T08:40:36Z</time>
      </trkpt>
      <trkpt lat="45.11789" lon="4.62368">
        <ele>820.1</ele>
        <time>2014-04-21T08:40:39Z</time>
      </trkpt>
      <trkpt lat="45.11788" lon="4.62361">
        <ele>820.1</ele>
        <time>2014-04-21T08:40:41Z</time>
      </trkpt>
      <trkpt lat="45.11787" lon="4.62354">
        <ele>820.1</ele>
        <time>2014-04-21T08:40:43Z</time>
      </trkpt>
      <trkpt lat="45.11784" lon="4.62347">
        <ele>819.8</ele>
        <time>2014-04-21T08:40:45Z</time>
      </trkpt>
      <trkpt lat="45.11782" lon="4.62338">
        <ele>819.6</ele>
        <time>2014-04-21T08:40:47Z</time>
      </trkpt>
      <trkpt lat="45.11779" lon="4.6233">
        <ele>819</ele>
        <time>2014-04-21T08:40:49Z</time>
      </trkpt>
      <trkpt lat="45.11777" lon="4.62323">
        <ele>818</ele>
        <time>2014-04-21T08:40:51Z</time>
      </trkpt>
      <trkpt lat="45.11774" lon="4.62316">
        <ele>817.1</ele>
        <time>2014-04-21T08:40:53Z</time>
      </trkpt>
      <trkpt lat="45.11771" lon="4.62311">
        <ele>816.2</ele>
        <time>2014-04-21T08:40:55Z</time>
      </trkpt>
      <trkpt lat="45.11767" lon="4.62307">
        <ele>815.4</ele>
        <time>2014-04-21T08:40:57Z</time>
      </trkpt>
      <trkpt lat="45.11762" lon="4.62302">
        <ele>814.5</ele>
        <time>2014-04-21T08:40:59Z</time>
      </trkpt>
      <trkpt lat="45.11756" lon="4.62299">
        <ele>813.5</ele>
        <time>2014-04-21T08:41:01Z</time>
      </trkpt>
      <trkpt lat="45.1175" lon="4.62293">
        <ele>812.5</ele>
        <time>2014-04-21T08:41:03Z</time>
      </trkpt>
      <trkpt lat="45.11738" lon="4.62283">
        <ele>809.7</ele>
        <time>2014-04-21T08:41:07Z</time>
      </trkpt>
      <trkpt lat="45.11732" lon="4.62278">
        <ele>808.5</ele>
        <time>2014-04-21T08:41:09Z</time>
      </trkpt>
      <trkpt lat="45.11727" lon="4.62271">
        <ele>807.5</ele>
        <time>2014-04-21T08:41:11Z</time>
      </trkpt>
      <trkpt lat="45.11722" lon="4.62264">
        <ele>806.5</ele>
        <time>2014-04-21T08:41:13Z</time>
      </trkpt>
      <trkpt lat="45.11716" lon="4.62256">
        <ele>805.7</ele>
        <time>2014-04-21T08:41:15Z</time>
      </trkpt>
      <trkpt lat="45.11711" lon="4.62247">
        <ele>804.6</ele>
        <time>2014-04-21T08:41:17Z</time>
      </trkpt>
      <trkpt lat="45.11706" lon="4.62238">
        <ele>803</ele>
        <time>2014-04-21T08:41:19Z</time>
      </trkpt>
      <trkpt lat="45.11702" lon="4.62226">
        <ele>801.6</ele>
        <time>2014-04-21T08:41:21Z</time>
      </trkpt>
      <trkpt lat="45.11701" lon="4.62214">
        <ele>800.5</ele>
        <time>2014-04-21T08:41:23Z</time>
      </trkpt>
      <trkpt lat="45.11701" lon="4.62207">
        <ele>800</ele>
        <time>2014-04-21T08:41:24Z</time>
      </trkpt>
      <trkpt lat="45.11701" lon="4.62201">
        <ele>799.5</ele>
        <time>2014-04-21T08:41:25Z</time>
      </trkpt>
      <trkpt lat="45.11701" lon="4.62194">
        <ele>798.9</ele>
        <time>2014-04-21T08:41:26Z</time>
      </trkpt>
      <trkpt lat="45.11701" lon="4.62187">
        <ele>798.4</ele>
        <time>2014-04-21T08:41:27Z</time>
      </trkpt>
      <trkpt lat="45.11702" lon="4.6218">
        <ele>797.9</ele>
        <time>2014-04-21T08:41:28Z</time>
      </trkpt>
      <trkpt lat="45.11703" lon="4.62173">
        <ele>797.3</ele>
        <time>2014-04-21T08:41:29Z</time>
      </trkpt>
      <trkpt lat="45.11704" lon="4.62165">
        <ele>796.5</ele>
        <time>2014-04-21T08:41:30Z</time>
      </trkpt>
      <trkpt lat="45.11705" lon="4.62157">
        <ele>795.2</ele>
        <time>2014-04-21T08:41:31Z</time>
      </trkpt>
      <trkpt lat="45.11707" lon="4.62149">
        <ele>794</ele>
        <time>2014-04-21T08:41:32Z</time>
      </trkpt>
      <trkpt lat="45.11709" lon="4.62141">
        <ele>792.8</ele>
        <time>2014-04-21T08:41:33Z</time>
      </trkpt>
      <trkpt lat="45.11711" lon="4.62134">
        <ele>791.6</ele>
        <time>2014-04-21T08:41:34Z</time>
      </trkpt>
      <trkpt lat="45.11714" lon="4.62127">
        <ele>790.6</ele>
        <time>2014-04-21T08:41:35Z</time>
      </trkpt>
      <trkpt lat="45.11717" lon="4.62119">
        <ele>789.3</ele>
        <time>2014-04-21T08:41:36Z</time>
      </trkpt>
      <trkpt lat="45.1172" lon="4.62111">
        <ele>788.1</ele>
        <time>2014-04-21T08:41:37Z</time>
      </trkpt>
      <trkpt lat="45.11724" lon="4.62103">
        <ele>786.9</ele>
        <time>2014-04-21T08:41:38Z</time>
      </trkpt>
      <trkpt lat="45.11728" lon="4.62095">
        <ele>785.7</ele>
        <time>2014-04-21T08:41:39Z</time>
      </trkpt>
      <trkpt lat="45.11733" lon="4.62088">
        <ele>784.4</ele>
        <time>2014-04-21T08:41:40Z</time>
      </trkpt>
      <trkpt lat="45.11738" lon="4.62081">
        <ele>783.4</ele>
        <time>2014-04-21T08:41:41Z</time>
      </trkpt>
      <trkpt lat="45.11743" lon="4.62074">
        <ele>782.3</ele>
        <time>2014-04-21T08:41:42Z</time>
      </trkpt>
      <trkpt lat="45.11749" lon="4.62068">
        <ele>781.2</ele>
        <time>2014-04-21T08:41:43Z</time>
      </trkpt>
      <trkpt lat="45.11755" lon="4.62062">
        <ele>779.1</ele>
        <time>2014-04-21T08:41:44Z</time>
      </trkpt>
      <trkpt lat="45.11761" lon="4.62057">
        <ele>776.9</ele>
        <time>2014-04-21T08:41:45Z</time>
      </trkpt>
      <trkpt lat="45.11768" lon="4.62053">
        <ele>775</ele>
        <time>2014-04-21T08:41:46Z</time>
      </trkpt>
      <trkpt lat="45.11774" lon="4.62049">
        <ele>773</ele>
        <time>2014-04-21T08:41:47Z</time>
      </trkpt>
      <trkpt lat="45.1178" lon="4.62047">
        <ele>771.6</ele>
        <time>2014-04-21T08:41:48Z</time>
      </trkpt>
      <trkpt lat="45.11785" lon="4.62046">
        <ele>770.2</ele>
        <time>2014-04-21T08:41:49Z</time>
      </trkpt>
      <trkpt lat="45.1179" lon="4.62046">
        <ele>769.2</ele>
        <time>2014-04-21T08:41:50Z</time>
      </trkpt>
      <trkpt lat="45.11798" lon="4.62047">
        <ele>767.9</ele>
        <time>2014-04-21T08:41:52Z</time>
      </trkpt>
      <trkpt lat="45.11806" lon="4.6205">
        <ele>767</ele>
        <time>2014-04-21T08:41:54Z</time>
      </trkpt>
      <trkpt lat="45.11813" lon="4.62054">
        <ele>766.6</ele>
        <time>2014-04-21T08:41:56Z</time>
      </trkpt>
      <trkpt lat="45.11819" lon="4.62058">
        <ele>766.4</ele>
        <time>2014-04-21T08:41:58Z</time>
      </trkpt>
      <trkpt lat="45.11825" lon="4.62063">
        <ele>766.8</ele>
        <time>2014-04-21T08:42:00Z</time>
      </trkpt>
      <trkpt lat="45.1183" lon="4.6207">
        <ele>767.6</ele>
        <time>2014-04-21T08:42:02Z</time>
      </trkpt>
      <trkpt lat="45.11834" lon="4.62077">
        <ele>769.2</ele>
        <time>2014-04-21T08:42:04Z</time>
      </trkpt>
      <trkpt lat="45.11841" lon="4.62093">
        <ele>772.5</ele>
        <time>2014-04-21T08:42:08Z</time>
      </trkpt>
      <trkpt lat="45.11845" lon="4.62101">
        <ele>774.1</ele>
        <time>2014-04-21T08:42:10Z</time>
      </trkpt>
      <trkpt lat="45.11849" lon="4.62108">
        <ele>775.3</ele>
        <time>2014-04-21T08:42:12Z</time>
      </trkpt>
      <trkpt lat="45.11855" lon="4.62112">
        <ele>776</ele>
        <time>2014-04-21T08:42:14Z</time>
      </trkpt>
      <trkpt lat="45.1186" lon="4.62117">
        <ele>776.8</ele>
        <time>2014-04-21T08:42:16Z</time>
      </trkpt>
      <trkpt lat="45.11865" lon="4.62121">
        <ele>776.9</ele>
        <time>2014-04-21T08:42:18Z</time>
      </trkpt>
      <trkpt lat="45.11871" lon="4.62124">
        <ele>777.3</ele>
        <time>2014-04-21T08:42:20Z</time>
      </trkpt>
      <trkpt lat="45.11877" lon="4.62127">
        <ele>777.4</ele>
        <time>2014-04-21T08:42:22Z</time>
      </trkpt>
      <trkpt lat="45.11883" lon="4.62129">
        <ele>777.5</ele>
        <time>2014-04-21T08:42:24Z</time>
      </trkpt>
      <trkpt lat="45.11888" lon="4.62131">
        <ele>777.6</ele>
        <time>2014-04-21T08:42:26Z</time>
      </trkpt>
      <trkpt lat="45.11894" lon="4.62133">
        <ele>777.3</ele>
        <time>2014-04-21T08:42:28Z</time>
      </trkpt>
      <trkpt lat="45.11899" lon="4.62134">
        <ele>777.1</ele>
        <time>2014-04-21T08:42:30Z</time>
      </trkpt>
      <trkpt lat="45.11904" lon="4.62135">
        <ele>777</ele>
        <time>2014-04-21T08:42:32Z</time>
      </trkpt>
      <trkpt lat="45.11911" lon="4.62136">
        <ele>776.3</ele>
        <time>2014-04-21T08:42:35Z</time>
      </trkpt>
      <trkpt lat="45.11917" lon="4.62138">
        <ele>776.1</ele>
        <time>2014-04-21T08:42:38Z</time>
      </trkpt>
      <trkpt lat="45.11921" lon="4.62139">
        <ele>776.8</ele>
        <time>2014-04-21T08:42:40Z</time>
      </trkpt>
      <trkpt lat="45.11926" lon="4.62141">
        <ele>777</ele>
        <time>2014-04-21T08:42:42Z</time>
      </trkpt>
      <trkpt lat="45.1193" lon="4.62143">
        <ele>777.3</ele>
        <time>2014-04-21T08:42:44Z</time>
      </trkpt>
      <trkpt lat="45.11936" lon="4.62145">
        <ele>777.8</ele>
        <time>2014-04-21T08:42:47Z</time>
      </trkpt>
      <trkpt lat="45.11941" lon="4.62146">
        <ele>778</ele>
        <time>2014-04-21T08:42:50Z</time>
      </trkpt>
      <trkpt lat="45.11945" lon="4.6215">
        <ele>778.7</ele>
        <time>2014-04-21T08:42:53Z</time>
      </trkpt>
      <trkpt lat="45.1195" lon="4.62152">
        <ele>778.7</ele>
        <time>2014-04-21T08:42:56Z</time>
      </trkpt>
      <trkpt lat="45.11956" lon="4.62154">
        <ele>779</ele>
        <time>2014-04-21T08:43:00Z</time>
      </trkpt>
      <trkpt lat="45.1196" lon="4.62157">
        <ele>779.2</ele>
        <time>2014-04-21T08:43:03Z</time>
      </trkpt>
      <trkpt lat="45.11965" lon="4.62161">
        <ele>779.6</ele>
        <time>2014-04-21T08:43:06Z</time>
      </trkpt>
      <trkpt lat="45.11976" lon="4.6217">
        <ele>780.5</ele>
        <time>2014-04-21T08:43:12Z</time>
      </trkpt>
      <trkpt lat="45.1198" lon="4.62174">
        <ele>781.3</ele>
        <time>2014-04-21T08:43:14Z</time>
      </trkpt>
      <trkpt lat="45.11985" lon="4.62179">
        <ele>782.4</ele>
        <time>2014-04-21T08:43:17Z</time>
      </trkpt>
      <trkpt lat="45.1199" lon="4.62184">
        <ele>783.5</ele>
        <time>2014-04-21T08:43:20Z</time>
      </trkpt>
      <trkpt lat="45.11995" lon="4.62187">
        <ele>784.2</ele>
        <time>2014-04-21T08:43:23Z</time>
      </trkpt>
      <trkpt lat="45.11999" lon="4.62191">
        <ele>784.6</ele>
        <time>2014-04-21T08:43:26Z</time>
      </trkpt>
      <trkpt lat="45.12004" lon="4.62194">
        <ele>786.4</ele>
        <time>2014-04-21T08:43:29Z</time>
      </trkpt>
      <trkpt lat="45.12008" lon="4.62198">
        <ele>788.2</ele>
        <time>2014-04-21T08:43:31Z</time>
      </trkpt>
      <trkpt lat="45.12013" lon="4.62204">
        <ele>790.6</ele>
        <time>2014-04-21T08:43:34Z</time>
      </trkpt>
      <trkpt lat="45.12018" lon="4.62209">
        <ele>792.6</ele>
        <time>2014-04-21T08:43:37Z</time>
      </trkpt>
      <trkpt lat="45.12022" lon="4.62213">
        <ele>794.1</ele>
        <time>2014-04-21T08:43:39Z</time>
      </trkpt>
      <trkpt lat="45.12027" lon="4.62217">
        <ele>795.8</ele>
        <time>2014-04-21T08:43:42Z</time>
      </trkpt>
      <trkpt lat="45.12032" lon="4.62223">
        <ele>797.6</ele>
        <time>2014-04-21T08:43:45Z</time>
      </trkpt>
      <trkpt lat="45.12036" lon="4.62227">
        <ele>798.8</ele>
        <time>2014-04-21T08:43:47Z</time>
      </trkpt>
      <trkpt lat="45.1204" lon="4.62229">
        <ele>799.7</ele>
        <time>2014-04-21T08:43:49Z</time>
      </trkpt>
      <trkpt lat="45.12046" lon="4.62233">
        <ele>800.9</ele>
        <time>2014-04-21T08:43:52Z</time>
      </trkpt>
      <trkpt lat="45.12052" lon="4.62237">
        <ele>801.9</ele>
        <time>2014-04-21T08:43:55Z</time>
      </trkpt>
      <trkpt lat="45.12058" lon="4.62241">
        <ele>802.9</ele>
        <time>2014-04-21T08:43:58Z</time>
      </trkpt>
      <trkpt lat="45.12063" lon="4.62243">
        <ele>803.3</ele>
        <time>2014-04-21T08:44:00Z</time>
      </trkpt>
      <trkpt lat="45.12069" lon="4.62246">
        <ele>804</ele>
        <time>2014-04-21T08:44:03Z</time>
      </trkpt>
      <trkpt lat="45.12074" lon="4.62248">
        <ele>804.4</ele>
        <time>2014-04-21T08:44:06Z</time>
      </trkpt>
      <trkpt lat="45.1208" lon="4.62251">
        <ele>804.9</ele>
        <time>2014-04-21T08:44:09Z</time>
      </trkpt>
      <trkpt lat="45.12089" lon="4.62254">
        <ele>807.2</ele>
        <time>2014-04-21T08:44:13Z</time>
      </trkpt>
      <trkpt lat="45.12094" lon="4.62256">
        <ele>808.7</ele>
        <time>2014-04-21T08:44:15Z</time>
      </trkpt>
      <trkpt lat="45.121" lon="4.62256">
        <ele>810.5</ele>
        <time>2014-04-21T08:44:17Z</time>
      </trkpt>
      <trkpt lat="45.12106" lon="4.62257">
        <ele>812.1</ele>
        <time>2014-04-21T08:44:19Z</time>
      </trkpt>
      <trkpt lat="45.12112" lon="4.62258">
        <ele>813.8</ele>
        <time>2014-04-21T08:44:21Z</time>
      </trkpt>
      <trkpt lat="45.12117" lon="4.6226">
        <ele>815.3</ele>
        <time>2014-04-21T08:44:23Z</time>
      </trkpt>
      <trkpt lat="45.12121" lon="4.62262">
        <ele>816.5</ele>
        <time>2014-04-21T08:44:25Z</time>
      </trkpt>
      <trkpt lat="45.12126" lon="4.62264">
        <ele>817.7</ele>
        <time>2014-04-21T08:44:27Z</time>
      </trkpt>
      <trkpt lat="45.12131" lon="4.62265">
        <ele>819</ele>
        <time>2014-04-21T08:44:29Z</time>
      </trkpt>
      <trkpt lat="45.12136" lon="4.62266">
        <ele>820.3</ele>
        <time>2014-04-21T08:44:31Z</time>
      </trkpt>
      <trkpt lat="45.12142" lon="4.62266">
        <ele>821.9</ele>
        <time>2014-04-21T08:44:33Z</time>
      </trkpt>
      <trkpt lat="45.12148" lon="4.62261">
        <ele>824</ele>
        <time>2014-04-21T08:44:35Z</time>
      </trkpt>
      <trkpt lat="45.12154" lon="4.62256">
        <ele>826.3</ele>
        <time>2014-04-21T08:44:37Z</time>
      </trkpt>
      <trkpt lat="45.12159" lon="4.62249">
        <ele>828.8</ele>
        <time>2014-04-21T08:44:39Z</time>
      </trkpt>
      <trkpt lat="45.12164" lon="4.62242">
        <ele>831</ele>
        <time>2014-04-21T08:44:41Z</time>
      </trkpt>
      <trkpt lat="45.12169" lon="4.62234">
        <ele>833.2</ele>
        <time>2014-04-21T08:44:43Z</time>
      </trkpt>
      <trkpt lat="45.12172" lon="4.62224">
        <ele>834.9</ele>
        <time>2014-04-21T08:44:45Z</time>
      </trkpt>
      <trkpt lat="45.12176" lon="4.62215">
        <ele>837</ele>
        <time>2014-04-21T08:44:47Z</time>
      </trkpt>
      <trkpt lat="45.12178" lon="4.62205">
        <ele>838.9</ele>
        <time>2014-04-21T08:44:49Z</time>
      </trkpt>
      <trkpt lat="45.12179" lon="4.62195">
        <ele>840.3</ele>
        <time>2014-04-21T08:44:51Z</time>
      </trkpt>
      <trkpt lat="45.12181" lon="4.62184">
        <ele>841.9</ele>
        <time>2014-04-21T08:44:53Z</time>
      </trkpt>
      <trkpt lat="45.12181" lon="4.62174">
        <ele>843</ele>
        <time>2014-04-21T08:44:55Z</time>
      </trkpt>
      <trkpt lat="45.12181" lon="4.62165">
        <ele>843.6</ele>
        <time>2014-04-21T08:44:57Z</time>
      </trkpt>
      <trkpt lat="45.12181" lon="4.62155">
        <ele>843.3</ele>
        <time>2014-04-21T08:44:59Z</time>
      </trkpt>
      <trkpt lat="45.12181" lon="4.62145">
        <ele>842.9</ele>
        <time>2014-04-21T08:45:01Z</time>
      </trkpt>
      <trkpt lat="45.12181" lon="4.62135">
        <ele>842.7</ele>
        <time>2014-04-21T08:45:03Z</time>
      </trkpt>
      <trkpt lat="45.12181" lon="4.62126">
        <ele>842.3</ele>
        <time>2014-04-21T08:45:05Z</time>
      </trkpt>
      <trkpt lat="45.1218" lon="4.62115">
        <ele>841.8</ele>
        <time>2014-04-21T08:45:07Z</time>
      </trkpt>
      <trkpt lat="45.12181" lon="4.62104">
        <ele>841.6</ele>
        <time>2014-04-21T08:45:09Z</time>
      </trkpt>
      <trkpt lat="45.12181" lon="4.62092">
        <ele>841.2</ele>
        <time>2014-04-21T08:45:11Z</time>
      </trkpt>
      <trkpt lat="45.12182" lon="4.62078">
        <ele>840.6</ele>
        <time>2014-04-21T08:45:13Z</time>
      </trkpt>
      <trkpt lat="45.12183" lon="4.62071">
        <ele>840</ele>
        <time>2014-04-21T08:45:14Z</time>
      </trkpt>
      <trkpt lat="45.12184" lon="4.62063">
        <ele>839.3</ele>
        <time>2014-04-21T08:45:15Z</time>
      </trkpt>
      <trkpt lat="45.12185" lon="4.62055">
        <ele>838.7</ele>
        <time>2014-04-21T08:45:16Z</time>
      </trkpt>
      <trkpt lat="45.12186" lon="4.62047">
        <ele>838.2</ele>
        <time>2014-04-21T08:45:17Z</time>
      </trkpt>
      <trkpt lat="45.12188" lon="4.62034">
        <ele>837.5</ele>
        <time>2014-04-21T08:45:18Z</time>
      </trkpt>
      <trkpt lat="45.1219" lon="4.62024">
        <ele>836.8</ele>
        <time>2014-04-21T08:45:19Z</time>
      </trkpt>
      <trkpt lat="45.12192" lon="4.62015">
        <ele>836.4</ele>
        <time>2014-04-21T08:45:20Z</time>
      </trkpt>
      <trkpt lat="45.12194" lon="4.62005">
        <ele>836.1</ele>
        <time>2014-04-21T08:45:21Z</time>
      </trkpt>
      <trkpt lat="45.12198" lon="4.61995">
        <ele>836.7</ele>
        <time>2014-04-21T08:45:22Z</time>
      </trkpt>
      <trkpt lat="45.12201" lon="4.61986">
        <ele>837.5</ele>
        <time>2014-04-21T08:45:23Z</time>
      </trkpt>
      <trkpt lat="45.12204" lon="4.61978">
        <ele>838.2</ele>
        <time>2014-04-21T08:45:24Z</time>
      </trkpt>
      <trkpt lat="45.12206" lon="4.61971">
        <ele>838.8</ele>
        <time>2014-04-21T08:45:25Z</time>
      </trkpt>
      <trkpt lat="45.12206" lon="4.61964">
        <ele>838.9</ele>
        <time>2014-04-21T08:45:26Z</time>
      </trkpt>
      <trkpt lat="45.12205" lon="4.61957">
        <ele>838.5</ele>
        <time>2014-04-21T08:45:27Z</time>
      </trkpt>
      <trkpt lat="45.12203" lon="4.6195">
        <ele>837.7</ele>
        <time>2014-04-21T08:45:28Z</time>
      </trkpt>
      <trkpt lat="45.12199" lon="4.61943">
        <ele>836.6</ele>
        <time>2014-04-21T08:45:29Z</time>
      </trkpt>
      <trkpt lat="45.12194" lon="4.61937">
        <ele>834.9</ele>
        <time>2014-04-21T08:45:30Z</time>
      </trkpt>
      <trkpt lat="45.12189" lon="4.61932">
        <ele>833.1</ele>
        <time>2014-04-21T08:45:31Z</time>
      </trkpt>
      <trkpt lat="45.12183" lon="4.61928">
        <ele>831.3</ele>
        <time>2014-04-21T08:45:32Z</time>
      </trkpt>
      <trkpt lat="45.12177" lon="4.61924">
        <ele>829.4</ele>
        <time>2014-04-21T08:45:33Z</time>
      </trkpt>
      <trkpt lat="45.12172" lon="4.61921">
        <ele>827.7</ele>
        <time>2014-04-21T08:45:34Z</time>
      </trkpt>
      <trkpt lat="45.12166" lon="4.61919">
        <ele>825.7</ele>
        <time>2014-04-21T08:45:35Z</time>
      </trkpt>
      <trkpt lat="45.1216" lon="4.61916">
        <ele>823.8</ele>
        <time>2014-04-21T08:45:36Z</time>
      </trkpt>
      <trkpt lat="45.12155" lon="4.61912">
        <ele>822.1</ele>
        <time>2014-04-21T08:45:37Z</time>
      </trkpt>
      <trkpt lat="45.12149" lon="4.61907">
        <ele>820.5</ele>
        <time>2014-04-21T08:45:38Z</time>
      </trkpt>
      <trkpt lat="45.12145" lon="4.61901">
        <ele>819.1</ele>
        <time>2014-04-21T08:45:39Z</time>
      </trkpt>
      <trkpt lat="45.1214" lon="4.61896">
        <ele>817.6</ele>
        <time>2014-04-21T08:45:40Z</time>
      </trkpt>
      <trkpt lat="45.12137" lon="4.6189">
        <ele>816.8</ele>
        <time>2014-04-21T08:45:41Z</time>
      </trkpt>
      <trkpt lat="45.12134" lon="4.61884">
        <ele>815.7</ele>
        <time>2014-04-21T08:45:42Z</time>
      </trkpt>
      <trkpt lat="45.12131" lon="4.61879">
        <ele>815.1</ele>
        <time>2014-04-21T08:45:43Z</time>
      </trkpt>
      <trkpt lat="45.12127" lon="4.61868">
        <ele>813.9</ele>
        <time>2014-04-21T08:45:45Z</time>
      </trkpt>
      <trkpt lat="45.12123" lon="4.61859">
        <ele>813.1</ele>
        <time>2014-04-21T08:45:47Z</time>
      </trkpt>
      <trkpt lat="45.1212" lon="4.61848">
        <ele>812.3</ele>
        <time>2014-04-21T08:45:49Z</time>
      </trkpt>
      <trkpt lat="45.12118" lon="4.61839">
        <ele>811.9</ele>
        <time>2014-04-21T08:45:51Z</time>
      </trkpt>
      <trkpt lat="45.12116" lon="4.61829">
        <ele>811.4</ele>
        <time>2014-04-21T08:45:53Z</time>
      </trkpt>
      <trkpt lat="45.12115" lon="4.61821">
        <ele>811</ele>
        <time>2014-04-21T08:45:55Z</time>
      </trkpt>
      <trkpt lat="45.12114" lon="4.61812">
        <ele>810.4</ele>
        <time>2014-04-21T08:45:57Z</time>
      </trkpt>
      <trkpt lat="45.12113" lon="4.61804">
        <ele>810.1</ele>
        <time>2014-04-21T08:45:59Z</time>
      </trkpt>
      <trkpt lat="45.12113" lon="4.61796">
        <ele>810</ele>
        <time>2014-04-21T08:46:01Z</time>
      </trkpt>
      <trkpt lat="45.12113" lon="4.61789">
        <ele>809.9</ele>
        <time>2014-04-21T08:46:03Z</time>
      </trkpt>
      <trkpt lat="45.12113" lon="4.61781">
        <ele>809.8</ele>
        <time>2014-04-21T08:46:05Z</time>
      </trkpt>
      <trkpt lat="45.12114" lon="4.61774">
        <ele>809.9</ele>
        <time>2014-04-21T08:46:07Z</time>
      </trkpt>
      <trkpt lat="45.12115" lon="4.61767">
        <ele>810.2</ele>
        <time>2014-04-21T08:46:09Z</time>
      </trkpt>
      <trkpt lat="45.12116" lon="4.6176">
        <ele>810.5</ele>
        <time>2014-04-21T08:46:11Z</time>
      </trkpt>
      <trkpt lat="45.12119" lon="4.61753">
        <ele>810.9</ele>
        <time>2014-04-21T08:46:13Z</time>
      </trkpt>
      <trkpt lat="45.12125" lon="4.61741">
        <ele>811.4</ele>
        <time>2014-04-21T08:46:17Z</time>
      </trkpt>
      <trkpt lat="45.12129" lon="4.61735">
        <ele>811.7</ele>
        <time>2014-04-21T08:46:19Z</time>
      </trkpt>
      <trkpt lat="45.12132" lon="4.6173">
        <ele>812.1</ele>
        <time>2014-04-21T08:46:21Z</time>
      </trkpt>
      <trkpt lat="45.12135" lon="4.61724">
        <ele>812.3</ele>
        <time>2014-04-21T08:46:23Z</time>
      </trkpt>
      <trkpt lat="45.12139" lon="4.61718">
        <ele>812.7</ele>
        <time>2014-04-21T08:46:25Z</time>
      </trkpt>
      <trkpt lat="45.12141" lon="4.61712">
        <ele>812.7</ele>
        <time>2014-04-21T08:46:27Z</time>
      </trkpt>
      <trkpt lat="45.12145" lon="4.61706">
        <ele>813.4</ele>
        <time>2014-04-21T08:46:29Z</time>
      </trkpt>
      <trkpt lat="45.1215" lon="4.61701">
        <ele>814.1</ele>
        <time>2014-04-21T08:46:31Z</time>
      </trkpt>
      <trkpt lat="45.12154" lon="4.61697">
        <ele>815</ele>
        <time>2014-04-21T08:46:33Z</time>
      </trkpt>
      <trkpt lat="45.12159" lon="4.61692">
        <ele>815.9</ele>
        <time>2014-04-21T08:46:35Z</time>
      </trkpt>
      <trkpt lat="45.12164" lon="4.61689">
        <ele>817</ele>
        <time>2014-04-21T08:46:37Z</time>
      </trkpt>
      <trkpt lat="45.12169" lon="4.61684">
        <ele>818.1</ele>
        <time>2014-04-21T08:46:40Z</time>
      </trkpt>
      <trkpt lat="45.12175" lon="4.6168">
        <ele>819.4</ele>
        <time>2014-04-21T08:46:43Z</time>
      </trkpt>
      <trkpt lat="45.12181" lon="4.61676">
        <ele>821</ele>
        <time>2014-04-21T08:46:46Z</time>
      </trkpt>
      <trkpt lat="45.12187" lon="4.61672">
        <ele>822.2</ele>
        <time>2014-04-21T08:46:48Z</time>
      </trkpt>
      <trkpt lat="45.12191" lon="4.61669">
        <ele>823.2</ele>
        <time>2014-04-21T08:46:50Z</time>
      </trkpt>
      <trkpt lat="45.12197" lon="4.61664">
        <ele>824.3</ele>
        <time>2014-04-21T08:46:52Z</time>
      </trkpt>
      <trkpt lat="45.12201" lon="4.6166">
        <ele>825.1</ele>
        <time>2014-04-21T08:46:54Z</time>
      </trkpt>
      <trkpt lat="45.12205" lon="4.61656">
        <ele>825.5</ele>
        <time>2014-04-21T08:46:56Z</time>
      </trkpt>
      <trkpt lat="45.12209" lon="4.61652">
        <ele>826.1</ele>
        <time>2014-04-21T08:46:58Z</time>
      </trkpt>
      <trkpt lat="45.12212" lon="4.61645">
        <ele>826.4</ele>
        <time>2014-04-21T08:47:01Z</time>
      </trkpt>
      <trkpt lat="45.12216" lon="4.6164">
        <ele>826.9</ele>
        <time>2014-04-21T08:47:03Z</time>
      </trkpt>
      <trkpt lat="45.12219" lon="4.61635">
        <ele>827.4</ele>
        <time>2014-04-21T08:47:05Z</time>
      </trkpt>
      <trkpt lat="45.12222" lon="4.6163">
        <ele>827.6</ele>
        <time>2014-04-21T08:47:07Z</time>
      </trkpt>
      <trkpt lat="45.12226" lon="4.61623">
        <ele>827.9</ele>
        <time>2014-04-21T08:47:10Z</time>
      </trkpt>
      <trkpt lat="45.1223" lon="4.61617">
        <ele>828.8</ele>
        <time>2014-04-21T08:47:13Z</time>
      </trkpt>
      <trkpt lat="45.12234" lon="4.61609">
        <ele>829.2</ele>
        <time>2014-04-21T08:47:16Z</time>
      </trkpt>
      <trkpt lat="45.1224" lon="4.61595">
        <ele>829.7</ele>
        <time>2014-04-21T08:47:21Z</time>
      </trkpt>
      <trkpt lat="45.12243" lon="4.6159">
        <ele>830.2</ele>
        <time>2014-04-21T08:47:23Z</time>
      </trkpt>
      <trkpt lat="45.12246" lon="4.61585">
        <ele>830.8</ele>
        <time>2014-04-21T08:47:25Z</time>
      </trkpt>
      <trkpt lat="45.12251" lon="4.6158">
        <ele>832.2</ele>
        <time>2014-04-21T08:47:28Z</time>
      </trkpt>
      <trkpt lat="45.12254" lon="4.61575">
        <ele>833.1</ele>
        <time>2014-04-21T08:47:30Z</time>
      </trkpt>
      <trkpt lat="45.12256" lon="4.61569">
        <ele>833.8</ele>
        <time>2014-04-21T08:47:32Z</time>
      </trkpt>
      <trkpt lat="45.12259" lon="4.61564">
        <ele>834.8</ele>
        <time>2014-04-21T08:47:34Z</time>
      </trkpt>
      <trkpt lat="45.12263" lon="4.61558">
        <ele>835.9</ele>
        <time>2014-04-21T08:47:36Z</time>
      </trkpt>
      <trkpt lat="45.12266" lon="4.61553">
        <ele>836.9</ele>
        <time>2014-04-21T08:47:38Z</time>
      </trkpt>
      <trkpt lat="45.1227" lon="4.61547">
        <ele>838.5</ele>
        <time>2014-04-21T08:47:40Z</time>
      </trkpt>
      <trkpt lat="45.12273" lon="4.61541">
        <ele>839.7</ele>
        <time>2014-04-21T08:47:42Z</time>
      </trkpt>
      <trkpt lat="45.12276" lon="4.61534">
        <ele>840.8</ele>
        <time>2014-04-21T08:47:44Z</time>
      </trkpt>
      <trkpt lat="45.12279" lon="4.61525">
        <ele>841.9</ele>
        <time>2014-04-21T08:47:47Z</time>
      </trkpt>
      <trkpt lat="45.12281" lon="4.61518">
        <ele>842.7</ele>
        <time>2014-04-21T08:47:49Z</time>
      </trkpt>
      <trkpt lat="45.12282" lon="4.61513">
        <ele>843.6</ele>
        <time>2014-04-21T08:47:51Z</time>
      </trkpt>
      <trkpt lat="45.12284" lon="4.61504">
        <ele>844.3</ele>
        <time>2014-04-21T08:47:54Z</time>
      </trkpt>
      <trkpt lat="45.12285" lon="4.61496">
        <ele>845.3</ele>
        <time>2014-04-21T08:47:57Z</time>
      </trkpt>
      <trkpt lat="45.12286" lon="4.61488">
        <ele>846.4</ele>
        <time>2014-04-21T08:48:00Z</time>
      </trkpt>
      <trkpt lat="45.12287" lon="4.61481">
        <ele>847.2</ele>
        <time>2014-04-21T08:48:03Z</time>
      </trkpt>
      <trkpt lat="45.12286" lon="4.61474">
        <ele>847.4</ele>
        <time>2014-04-21T08:48:06Z</time>
      </trkpt>
      <trkpt lat="45.12285" lon="4.61466">
        <ele>847.8</ele>
        <time>2014-04-21T08:48:09Z</time>
      </trkpt>
      <trkpt lat="45.12285" lon="4.61458">
        <ele>848.4</ele>
        <time>2014-04-21T08:48:12Z</time>
      </trkpt>
      <trkpt lat="45.12285" lon="4.61451">
        <ele>848.8</ele>
        <time>2014-04-21T08:48:15Z</time>
      </trkpt>
      <trkpt lat="45.12284" lon="4.61443">
        <ele>849.2</ele>
        <time>2014-04-21T08:48:18Z</time>
      </trkpt>
      <trkpt lat="45.12282" lon="4.61428">
        <ele>849.5</ele>
        <time>2014-04-21T08:48:24Z</time>
      </trkpt>
      <trkpt lat="45.12282" lon="4.6142">
        <ele>849.8</ele>
        <time>2014-04-21T08:48:27Z</time>
      </trkpt>
      <trkpt lat="45.12281" lon="4.61412">
        <ele>849.9</ele>
        <time>2014-04-21T08:48:30Z</time>
      </trkpt>
      <trkpt lat="45.1228" lon="4.61405">
        <ele>850</ele>
        <time>2014-04-21T08:48:33Z</time>
      </trkpt>
      <trkpt lat="45.1228" lon="4.61397">
        <ele>850.3</ele>
        <time>2014-04-21T08:48:36Z</time>
      </trkpt>
      <trkpt lat="45.1228" lon="4.6139">
        <ele>850.3</ele>
        <time>2014-04-21T08:48:39Z</time>
      </trkpt>
      <trkpt lat="45.12279" lon="4.61384">
        <ele>850.2</ele>
        <time>2014-04-21T08:48:42Z</time>
      </trkpt>
      <trkpt lat="45.12278" lon="4.61377">
        <ele>850.2</ele>
        <time>2014-04-21T08:48:45Z</time>
      </trkpt>
      <trkpt lat="45.12278" lon="4.61369">
        <ele>850.4</ele>
        <time>2014-04-21T08:48:49Z</time>
      </trkpt>
      <trkpt lat="45.12278" lon="4.61362">
        <ele>850.6</ele>
        <time>2014-04-21T08:48:52Z</time>
      </trkpt>
      <trkpt lat="45.12277" lon="4.61354">
        <ele>850.6</ele>
        <time>2014-04-21T08:48:55Z</time>
      </trkpt>
      <trkpt lat="45.12277" lon="4.61347">
        <ele>850.6</ele>
        <time>2014-04-21T08:48:58Z</time>
      </trkpt>
      <trkpt lat="45.12277" lon="4.6134">
        <ele>851</ele>
        <time>2014-04-21T08:49:01Z</time>
      </trkpt>
      <trkpt lat="45.12277" lon="4.61334">
        <ele>851.3</ele>
        <time>2014-04-21T08:49:04Z</time>
      </trkpt>
      <trkpt lat="45.12277" lon="4.61327">
        <ele>852.3</ele>
        <time>2014-04-21T08:49:07Z</time>
      </trkpt>
      <trkpt lat="45.12277" lon="4.6132">
        <ele>853.3</ele>
        <time>2014-04-21T08:49:10Z</time>
      </trkpt>
      <trkpt lat="45.12277" lon="4.61313">
        <ele>854.2</ele>
        <time>2014-04-21T08:49:13Z</time>
      </trkpt>
      <trkpt lat="45.12278" lon="4.61305">
        <ele>855.5</ele>
        <time>2014-04-21T08:49:17Z</time>
      </trkpt>
      <trkpt lat="45.12278" lon="4.61298">
        <ele>856.3</ele>
        <time>2014-04-21T08:49:20Z</time>
      </trkpt>
      <trkpt lat="45.12275" lon="4.61285">
        <ele>857.1</ele>
        <time>2014-04-21T08:49:26Z</time>
      </trkpt>
      <trkpt lat="45.12273" lon="4.61278">
        <ele>857.1</ele>
        <time>2014-04-21T08:49:29Z</time>
      </trkpt>
      <trkpt lat="45.12271" lon="4.61271">
        <ele>857</ele>
        <time>2014-04-21T08:49:32Z</time>
      </trkpt>
      <trkpt lat="45.12268" lon="4.61264">
        <ele>857</ele>
        <time>2014-04-21T08:49:35Z</time>
      </trkpt>
      <trkpt lat="45.12265" lon="4.61257">
        <ele>856.4</ele>
        <time>2014-04-21T08:49:38Z</time>
      </trkpt>
      <trkpt lat="45.12262" lon="4.61249">
        <ele>856.1</ele>
        <time>2014-04-21T08:49:41Z</time>
      </trkpt>
      <trkpt lat="45.12258" lon="4.61241">
        <ele>855.9</ele>
        <time>2014-04-21T08:49:44Z</time>
      </trkpt>
      <trkpt lat="45.12254" lon="4.61233">
        <ele>855.8</ele>
        <time>2014-04-21T08:49:47Z</time>
      </trkpt>
      <trkpt lat="45.12251" lon="4.61226">
        <ele>855.8</ele>
        <time>2014-04-21T08:49:50Z</time>
      </trkpt>
      <trkpt lat="45.12247" lon="4.61219">
        <ele>855.7</ele>
        <time>2014-04-21T08:49:53Z</time>
      </trkpt>
      <trkpt lat="45.12241" lon="4.61214">
        <ele>854.9</ele>
        <time>2014-04-21T08:49:56Z</time>
      </trkpt>
      <trkpt lat="45.12237" lon="4.61212">
        <ele>854.1</ele>
        <time>2014-04-21T08:49:58Z</time>
      </trkpt>
      <trkpt lat="45.12231" lon="4.6121">
        <ele>852.6</ele>
        <time>2014-04-21T08:50:01Z</time>
      </trkpt>
      <trkpt lat="45.12226" lon="4.61209">
        <ele>851.3</ele>
        <time>2014-04-21T08:50:04Z</time>
      </trkpt>
      <trkpt lat="45.12221" lon="4.61209">
        <ele>849.7</ele>
        <time>2014-04-21T08:50:07Z</time>
      </trkpt>
      <trkpt lat="45.12215" lon="4.61211">
        <ele>847.5</ele>
        <time>2014-04-21T08:50:10Z</time>
      </trkpt>
      <trkpt lat="45.1221" lon="4.61213">
        <ele>845.4</ele>
        <time>2014-04-21T08:50:13Z</time>
      </trkpt>
      <trkpt lat="45.12205" lon="4.61214">
        <ele>843.7</ele>
        <time>2014-04-21T08:50:15Z</time>
      </trkpt>
      <trkpt lat="45.12199" lon="4.61215">
        <ele>841.3</ele>
        <time>2014-04-21T08:50:18Z</time>
      </trkpt>
      <trkpt lat="45.12193" lon="4.61214">
        <ele>839.9</ele>
        <time>2014-04-21T08:50:21Z</time>
      </trkpt>
      <trkpt lat="45.12181" lon="4.61217">
        <ele>835.5</ele>
        <time>2014-04-21T08:50:27Z</time>
      </trkpt>
      <trkpt lat="45.12177" lon="4.61219">
        <ele>833.3</ele>
        <time>2014-04-21T08:50:29Z</time>
      </trkpt>
      <trkpt lat="45.12172" lon="4.6122">
        <ele>831.7</ele>
        <time>2014-04-21T08:50:31Z</time>
      </trkpt>
      <trkpt lat="45.12167" lon="4.61219">
        <ele>830.1</ele>
        <time>2014-04-21T08:50:33Z</time>
      </trkpt>
      <trkpt lat="45.12162" lon="4.61219">
        <ele>829.6</ele>
        <time>2014-04-21T08:50:35Z</time>
      </trkpt>
      <trkpt lat="45.12156" lon="4.6122">
        <ele>828.6</ele>
        <time>2014-04-21T08:50:37Z</time>
      </trkpt>
      <trkpt lat="45.1215" lon="4.61219">
        <ele>828.3</ele>
        <time>2014-04-21T08:50:39Z</time>
      </trkpt>
      <trkpt lat="45.12145" lon="4.61218">
        <ele>828.1</ele>
        <time>2014-04-21T08:50:41Z</time>
      </trkpt>
      <trkpt lat="45.12139" lon="4.61218">
        <ele>827.5</ele>
        <time>2014-04-21T08:50:43Z</time>
      </trkpt>
      <trkpt lat="45.12132" lon="4.61217">
        <ele>827.3</ele>
        <time>2014-04-21T08:50:45Z</time>
      </trkpt>
      <trkpt lat="45.12126" lon="4.61213">
        <ele>827.9</ele>
        <time>2014-04-21T08:50:47Z</time>
      </trkpt>
      <trkpt lat="45.12119" lon="4.61209">
        <ele>828.6</ele>
        <time>2014-04-21T08:50:49Z</time>
      </trkpt>
      <trkpt lat="45.12112" lon="4.61207">
        <ele>828.4</ele>
        <time>2014-04-21T08:50:51Z</time>
      </trkpt>
      <trkpt lat="45.12106" lon="4.61204">
        <ele>829.2</ele>
        <time>2014-04-21T08:50:53Z</time>
      </trkpt>
      <trkpt lat="45.12099" lon="4.61203">
        <ele>829</ele>
        <time>2014-04-21T08:50:55Z</time>
      </trkpt>
      <trkpt lat="45.12092" lon="4.61202">
        <ele>828.8</ele>
        <time>2014-04-21T08:50:57Z</time>
      </trkpt>
      <trkpt lat="45.12087" lon="4.61201">
        <ele>828.4</ele>
        <time>2014-04-21T08:50:58Z</time>
      </trkpt>
      <trkpt lat="45.12081" lon="4.612">
        <ele>828.4</ele>
        <time>2014-04-21T08:51:00Z</time>
      </trkpt>
      <trkpt lat="45.12074" lon="4.61196">
        <ele>829.7</ele>
        <time>2014-04-21T08:51:02Z</time>
      </trkpt>
      <trkpt lat="45.12067" lon="4.61194">
        <ele>829.9</ele>
        <time>2014-04-21T08:51:04Z</time>
      </trkpt>
      <trkpt lat="45.1206" lon="4.61191">
        <ele>830.7</ele>
        <time>2014-04-21T08:51:06Z</time>
      </trkpt>
      <trkpt lat="45.12054" lon="4.61189">
        <ele>831.4</ele>
        <time>2014-04-21T08:51:08Z</time>
      </trkpt>
      <trkpt lat="45.12048" lon="4.61187">
        <ele>832.2</ele>
        <time>2014-04-21T08:51:10Z</time>
      </trkpt>
      <trkpt lat="45.12042" lon="4.61183">
        <ele>833.5</ele>
        <time>2014-04-21T08:51:12Z</time>
      </trkpt>
      <trkpt lat="45.12036" lon="4.6118">
        <ele>834.3</ele>
        <time>2014-04-21T08:51:14Z</time>
      </trkpt>
      <trkpt lat="45.1203" lon="4.61176">
        <ele>836.1</ele>
        <time>2014-04-21T08:51:16Z</time>
      </trkpt>
      <trkpt lat="45.12024" lon="4.61172">
        <ele>837.4</ele>
        <time>2014-04-21T08:51:18Z</time>
      </trkpt>
      <trkpt lat="45.12019" lon="4.61167">
        <ele>838.7</ele>
        <time>2014-04-21T08:51:20Z</time>
      </trkpt>
      <trkpt lat="45.12013" lon="4.61162">
        <ele>840.1</ele>
        <time>2014-04-21T08:51:22Z</time>
      </trkpt>
      <trkpt lat="45.12002" lon="4.61152">
        <ele>842.5</ele>
        <time>2014-04-21T08:51:26Z</time>
      </trkpt>
      <trkpt lat="45.11997" lon="4.61147">
        <ele>843.4</ele>
        <time>2014-04-21T08:51:28Z</time>
      </trkpt>
      <trkpt lat="45.11991" lon="4.61142">
        <ele>844.4</ele>
        <time>2014-04-21T08:51:30Z</time>
      </trkpt>
      <trkpt lat="45.11987" lon="4.61134">
        <ele>845.8</ele>
        <time>2014-04-21T08:51:32Z</time>
      </trkpt>
      <trkpt lat="45.11983" lon="4.61128">
        <ele>846.5</ele>
        <time>2014-04-21T08:51:34Z</time>
      </trkpt>
      <trkpt lat="45.11979" lon="4.61123">
        <ele>847.1</ele>
        <time>2014-04-21T08:51:36Z</time>
      </trkpt>
      <trkpt lat="45.11975" lon="4.61116">
        <ele>848.1</ele>
        <time>2014-04-21T08:51:38Z</time>
      </trkpt>
      <trkpt lat="45.11972" lon="4.61111">
        <ele>848.8</ele>
        <time>2014-04-21T08:51:40Z</time>
      </trkpt>
      <trkpt lat="45.11967" lon="4.61105">
        <ele>849.6</ele>
        <time>2014-04-21T08:51:42Z</time>
      </trkpt>
      <trkpt lat="45.11963" lon="4.611">
        <ele>850</ele>
        <time>2014-04-21T08:51:44Z</time>
      </trkpt>
      <trkpt lat="45.11959" lon="4.61094">
        <ele>850.4</ele>
        <time>2014-04-21T08:51:46Z</time>
      </trkpt>
      <trkpt lat="45.11955" lon="4.61088">
        <ele>851.1</ele>
        <time>2014-04-21T08:51:48Z</time>
      </trkpt>
      <trkpt lat="45.11951" lon="4.61082">
        <ele>851.4</ele>
        <time>2014-04-21T08:51:50Z</time>
      </trkpt>
      <trkpt lat="45.11947" lon="4.61077">
        <ele>851.4</ele>
        <time>2014-04-21T08:51:52Z</time>
      </trkpt>
      <trkpt lat="45.11943" lon="4.61072">
        <ele>851.3</ele>
        <time>2014-04-21T08:51:54Z</time>
      </trkpt>
      <trkpt lat="45.11938" lon="4.61066">
        <ele>851.4</ele>
        <time>2014-04-21T08:51:56Z</time>
      </trkpt>
      <trkpt lat="45.11934" lon="4.61061">
        <ele>851.3</ele>
        <time>2014-04-21T08:51:58Z</time>
      </trkpt>
      <trkpt lat="45.11929" lon="4.61055">
        <ele>851.2</ele>
        <time>2014-04-21T08:52:00Z</time>
      </trkpt>
      <trkpt lat="45.11926" lon="4.61048">
        <ele>851.8</ele>
        <time>2014-04-21T08:52:02Z</time>
      </trkpt>
      <trkpt lat="45.11922" lon="4.6104">
        <ele>852.2</ele>
        <time>2014-04-21T08:52:04Z</time>
      </trkpt>
      <trkpt lat="45.11918" lon="4.61033">
        <ele>852.8</ele>
        <time>2014-04-21T08:52:06Z</time>
      </trkpt>
      <trkpt lat="45.11915" lon="4.61025">
        <ele>853.5</ele>
        <time>2014-04-21T08:52:08Z</time>
      </trkpt>
      <trkpt lat="45.11913" lon="4.61017">
        <ele>854.4</ele>
        <time>2014-04-21T08:52:10Z</time>
      </trkpt>
      <trkpt lat="45.11911" lon="4.61009">
        <ele>855.2</ele>
        <time>2014-04-21T08:52:12Z</time>
      </trkpt>
      <trkpt lat="45.1191" lon="4.61001">
        <ele>856.5</ele>
        <time>2014-04-21T08:52:14Z</time>
      </trkpt>
      <trkpt lat="45.11909" lon="4.60993">
        <ele>856.5</ele>
        <time>2014-04-21T08:52:16Z</time>
      </trkpt>
      <trkpt lat="45.11909" lon="4.60986">
        <ele>856.5</ele>
        <time>2014-04-21T08:52:18Z</time>
      </trkpt>
      <trkpt lat="45.11909" lon="4.60979">
        <ele>856.5</ele>
        <time>2014-04-21T08:52:20Z</time>
      </trkpt>
      <trkpt lat="45.1191" lon="4.60972">
        <ele>856.9</ele>
        <time>2014-04-21T08:52:22Z</time>
      </trkpt>
      <trkpt lat="45.11911" lon="4.60965">
        <ele>857.3</ele>
        <time>2014-04-21T08:52:24Z</time>
      </trkpt>
      <trkpt lat="45.11913" lon="4.60951">
        <ele>858.4</ele>
        <time>2014-04-21T08:52:28Z</time>
      </trkpt>
      <trkpt lat="45.11915" lon="4.60945">
        <ele>859.1</ele>
        <time>2014-04-21T08:52:30Z</time>
      </trkpt>
      <trkpt lat="45.11916" lon="4.60938">
        <ele>859.5</ele>
        <time>2014-04-21T08:52:32Z</time>
      </trkpt>
      <trkpt lat="45.11917" lon="4.60932">
        <ele>860</ele>
        <time>2014-04-21T08:52:34Z</time>
      </trkpt>
      <trkpt lat="45.11919" lon="4.60926">
        <ele>860.6</ele>
        <time>2014-04-21T08:52:36Z</time>
      </trkpt>
      <trkpt lat="45.11921" lon="4.60919">
        <ele>861.4</ele>
        <time>2014-04-21T08:52:38Z</time>
      </trkpt>
      <trkpt lat="45.11923" lon="4.60913">
        <ele>861.7</ele>
        <time>2014-04-21T08:52:40Z</time>
      </trkpt>
      <trkpt lat="45.11925" lon="4.60907">
        <ele>861.8</ele>
        <time>2014-04-21T08:52:42Z</time>
      </trkpt>
      <trkpt lat="45.11928" lon="4.60901">
        <ele>861.9</ele>
        <time>2014-04-21T08:52:44Z</time>
      </trkpt>
      <trkpt lat="45.11931" lon="4.60894">
        <ele>862.1</ele>
        <time>2014-04-21T08:52:46Z</time>
      </trkpt>
      <trkpt lat="45.11933" lon="4.60888">
        <ele>862.3</ele>
        <time>2014-04-21T08:52:48Z</time>
      </trkpt>
      <trkpt lat="45.11937" lon="4.60882">
        <ele>862.9</ele>
        <time>2014-04-21T08:52:50Z</time>
      </trkpt>
      <trkpt lat="45.1194" lon="4.60876">
        <ele>863.4</ele>
        <time>2014-04-21T08:52:52Z</time>
      </trkpt>
      <trkpt lat="45.11943" lon="4.60871">
        <ele>864.1</ele>
        <time>2014-04-21T08:52:54Z</time>
      </trkpt>
      <trkpt lat="45.11946" lon="4.60866">
        <ele>864.5</ele>
        <time>2014-04-21T08:52:56Z</time>
      </trkpt>
      <trkpt lat="45.11949" lon="4.6086">
        <ele>865.1</ele>
        <time>2014-04-21T08:52:58Z</time>
      </trkpt>
      <trkpt lat="45.11952" lon="4.60855">
        <ele>865.8</ele>
        <time>2014-04-21T08:53:00Z</time>
      </trkpt>
      <trkpt lat="45.11955" lon="4.60849">
        <ele>866.8</ele>
        <time>2014-04-21T08:53:02Z</time>
      </trkpt>
      <trkpt lat="45.11959" lon="4.60845">
        <ele>867.9</ele>
        <time>2014-04-21T08:53:04Z</time>
      </trkpt>
      <trkpt lat="45.11964" lon="4.60839">
        <ele>869.3</ele>
        <time>2014-04-21T08:53:07Z</time>
      </trkpt>
      <trkpt lat="45.11969" lon="4.60834">
        <ele>870.9</ele>
        <time>2014-04-21T08:53:10Z</time>
      </trkpt>
      <trkpt lat="45.11972" lon="4.60829">
        <ele>872.3</ele>
        <time>2014-04-21T08:53:12Z</time>
      </trkpt>
      <trkpt lat="45.11976" lon="4.60826">
        <ele>873.9</ele>
        <time>2014-04-21T08:53:14Z</time>
      </trkpt>
      <trkpt lat="45.11982" lon="4.60821">
        <ele>876.4</ele>
        <time>2014-04-21T08:53:17Z</time>
      </trkpt>
      <trkpt lat="45.11986" lon="4.60818">
        <ele>878.2</ele>
        <time>2014-04-21T08:53:19Z</time>
      </trkpt>
      <trkpt lat="45.11991" lon="4.60815">
        <ele>880.2</ele>
        <time>2014-04-21T08:53:21Z</time>
      </trkpt>
      <trkpt lat="45.11995" lon="4.60812">
        <ele>881.9</ele>
        <time>2014-04-21T08:53:23Z</time>
      </trkpt>
      <trkpt lat="45.11999" lon="4.60808">
        <ele>883.9</ele>
        <time>2014-04-21T08:53:25Z</time>
      </trkpt>
      <trkpt lat="45.12004" lon="4.60793">
        <ele>886.4</ele>
        <time>2014-04-21T08:53:31Z</time>
      </trkpt>
      <trkpt lat="45.12005" lon="4.60785">
        <ele>887</ele>
        <time>2014-04-21T08:53:34Z</time>
      </trkpt>
      <trkpt lat="45.12005" lon="4.60776">
        <ele>886.8</ele>
        <time>2014-04-21T08:53:37Z</time>
      </trkpt>
      <trkpt lat="45.12004" lon="4.60767">
        <ele>886.5</ele>
        <time>2014-04-21T08:53:40Z</time>
      </trkpt>
      <trkpt lat="45.12002" lon="4.60759">
        <ele>885.8</ele>
        <time>2014-04-21T08:53:43Z</time>
      </trkpt>
      <trkpt lat="45.12002" lon="4.60752">
        <ele>885.7</ele>
        <time>2014-04-21T08:53:46Z</time>
      </trkpt>
      <trkpt lat="45.12001" lon="4.60744">
        <ele>886</ele>
        <time>2014-04-21T08:53:49Z</time>
      </trkpt>
      <trkpt lat="45.11999" lon="4.60736">
        <ele>886</ele>
        <time>2014-04-21T08:53:52Z</time>
      </trkpt>
      <trkpt lat="45.11997" lon="4.60729">
        <ele>885.9</ele>
        <time>2014-04-21T08:53:55Z</time>
      </trkpt>
      <trkpt lat="45.11995" lon="4.60721">
        <ele>885.9</ele>
        <time>2014-04-21T08:53:58Z</time>
      </trkpt>
      <trkpt lat="45.11994" lon="4.60713">
        <ele>886</ele>
        <time>2014-04-21T08:54:01Z</time>
      </trkpt>
      <trkpt lat="45.11992" lon="4.60706">
        <ele>885.8</ele>
        <time>2014-04-21T08:54:04Z</time>
      </trkpt>
      <trkpt lat="45.11991" lon="4.60697">
        <ele>886</ele>
        <time>2014-04-21T08:54:07Z</time>
      </trkpt>
      <trkpt lat="45.1199" lon="4.60689">
        <ele>886.6</ele>
        <time>2014-04-21T08:54:10Z</time>
      </trkpt>
      <trkpt lat="45.11989" lon="4.60681">
        <ele>887.1</ele>
        <time>2014-04-21T08:54:13Z</time>
      </trkpt>
      <trkpt lat="45.11988" lon="4.60674">
        <ele>887.5</ele>
        <time>2014-04-21T08:54:16Z</time>
      </trkpt>
      <trkpt lat="45.11988" lon="4.60666">
        <ele>888.3</ele>
        <time>2014-04-21T08:54:19Z</time>
      </trkpt>
      <trkpt lat="45.11988" lon="4.60658">
        <ele>889.5</ele>
        <time>2014-04-21T08:54:22Z</time>
      </trkpt>
      <trkpt lat="45.11988" lon="4.60649">
        <ele>891</ele>
        <time>2014-04-21T08:54:25Z</time>
      </trkpt>
      <trkpt lat="45.11988" lon="4.60641">
        <ele>892.2</ele>
        <time>2014-04-21T08:54:28Z</time>
      </trkpt>
      <trkpt lat="45.11987" lon="4.60625">
        <ele>894.2</ele>
        <time>2014-04-21T08:54:34Z</time>
      </trkpt>
      <trkpt lat="45.11987" lon="4.60618">
        <ele>895.6</ele>
        <time>2014-04-21T08:54:37Z</time>
      </trkpt>
      <trkpt lat="45.11987" lon="4.6061">
        <ele>896.6</ele>
        <time>2014-04-21T08:54:40Z</time>
      </trkpt>
      <trkpt lat="45.11984" lon="4.60604">
        <ele>896.4</ele>
        <time>2014-04-21T08:54:43Z</time>
      </trkpt>
      <trkpt lat="45.1198" lon="4.60598">
        <ele>895.9</ele>
        <time>2014-04-21T08:54:46Z</time>
      </trkpt>
      <trkpt lat="45.11976" lon="4.60595">
        <ele>894.6</ele>
        <time>2014-04-21T08:54:48Z</time>
      </trkpt>
      <trkpt lat="45.1197" lon="4.60592">
        <ele>892.6</ele>
        <time>2014-04-21T08:54:51Z</time>
      </trkpt>
      <trkpt lat="45.11965" lon="4.6059">
        <ele>891.1</ele>
        <time>2014-04-21T08:54:53Z</time>
      </trkpt>
      <trkpt lat="45.11961" lon="4.60586">
        <ele>889.9</ele>
        <time>2014-04-21T08:54:55Z</time>
      </trkpt>
      <trkpt lat="45.11955" lon="4.60584">
        <ele>888.2</ele>
        <time>2014-04-21T08:54:57Z</time>
      </trkpt>
      <trkpt lat="45.1195" lon="4.60581">
        <ele>887.1</ele>
        <time>2014-04-21T08:54:59Z</time>
      </trkpt>
      <trkpt lat="45.11945" lon="4.60579">
        <ele>885.8</ele>
        <time>2014-04-21T08:55:01Z</time>
      </trkpt>
      <trkpt lat="45.11941" lon="4.60577">
        <ele>884.4</ele>
        <time>2014-04-21T08:55:03Z</time>
      </trkpt>
      <trkpt lat="45.11936" lon="4.60575">
        <ele>883</ele>
        <time>2014-04-21T08:55:05Z</time>
      </trkpt>
      <trkpt lat="45.11931" lon="4.60574">
        <ele>881.9</ele>
        <time>2014-04-21T08:55:08Z</time>
      </trkpt>
      <trkpt lat="45.11927" lon="4.60572">
        <ele>880.6</ele>
        <time>2014-04-21T08:55:11Z</time>
      </trkpt>
      <trkpt lat="45.11922" lon="4.60569">
        <ele>879.6</ele>
        <time>2014-04-21T08:55:14Z</time>
      </trkpt>
      <trkpt lat="45.11917" lon="4.60567">
        <ele>878.6</ele>
        <time>2014-04-21T08:55:17Z</time>
      </trkpt>
      <trkpt lat="45.11911" lon="4.60566">
        <ele>877.9</ele>
        <time>2014-04-21T08:55:20Z</time>
      </trkpt>
      <trkpt lat="45.11906" lon="4.60566">
        <ele>877.1</ele>
        <time>2014-04-21T08:55:22Z</time>
      </trkpt>
      <trkpt lat="45.11901" lon="4.60564">
        <ele>876.5</ele>
        <time>2014-04-21T08:55:25Z</time>
      </trkpt>
      <trkpt lat="45.11895" lon="4.60562">
        <ele>876.2</ele>
        <time>2014-04-21T08:55:28Z</time>
      </trkpt>
      <trkpt lat="45.11889" lon="4.6056">
        <ele>875.5</ele>
        <time>2014-04-21T08:55:31Z</time>
      </trkpt>
      <trkpt lat="45.11878" lon="4.60554">
        <ele>875.5</ele>
        <time>2014-04-21T08:55:37Z</time>
      </trkpt>
      <trkpt lat="45.11872" lon="4.6055">
        <ele>875.7</ele>
        <time>2014-04-21T08:55:40Z</time>
      </trkpt>
      <trkpt lat="45.11867" lon="4.60545">
        <ele>876.4</ele>
        <time>2014-04-21T08:55:43Z</time>
      </trkpt>
      <trkpt lat="45.11861" lon="4.60541">
        <ele>876.6</ele>
        <time>2014-04-21T08:55:46Z</time>
      </trkpt>
      <trkpt lat="45.11856" lon="4.60536">
        <ele>877.3</ele>
        <time>2014-04-21T08:55:49Z</time>
      </trkpt>
      <trkpt lat="45.1185" lon="4.60532">
        <ele>877.5</ele>
        <time>2014-04-21T08:55:52Z</time>
      </trkpt>
      <trkpt lat="45.11845" lon="4.60528">
        <ele>877.6</ele>
        <time>2014-04-21T08:55:55Z</time>
      </trkpt>
      <trkpt lat="45.11839" lon="4.60523">
        <ele>878.2</ele>
        <time>2014-04-21T08:55:58Z</time>
      </trkpt>
      <trkpt lat="45.11833" lon="4.60518">
        <ele>878.7</ele>
        <time>2014-04-21T08:56:01Z</time>
      </trkpt>
      <trkpt lat="45.11828" lon="4.60513">
        <ele>878.7</ele>
        <time>2014-04-21T08:56:04Z</time>
      </trkpt>
      <trkpt lat="45.11822" lon="4.60508">
        <ele>879.4</ele>
        <time>2014-04-21T08:56:07Z</time>
      </trkpt>
      <trkpt lat="45.11817" lon="4.60502">
        <ele>879.7</ele>
        <time>2014-04-21T08:56:10Z</time>
      </trkpt>
      <trkpt lat="45.11811" lon="4.60498">
        <ele>879</ele>
        <time>2014-04-21T08:56:13Z</time>
      </trkpt>
      <trkpt lat="45.11806" lon="4.60495">
        <ele>878</ele>
        <time>2014-04-21T08:56:16Z</time>
      </trkpt>
      <trkpt lat="45.118" lon="4.60492">
        <ele>877</ele>
        <time>2014-04-21T08:56:19Z</time>
      </trkpt>
      <trkpt lat="45.11796" lon="4.60488">
        <ele>876.5</ele>
        <time>2014-04-21T08:56:23Z</time>
      </trkpt>
      <trkpt lat="45.11795" lon="4.60481">
        <ele>876.9</ele>
        <time>2014-04-21T08:56:27Z</time>
      </trkpt>
      <trkpt lat="45.11795" lon="4.60473">
        <ele>877.9</ele>
        <time>2014-04-21T08:56:30Z</time>
      </trkpt>
      <trkpt lat="45.11796" lon="4.60464">
        <ele>879.2</ele>
        <time>2014-04-21T08:56:33Z</time>
      </trkpt>
      <trkpt lat="45.118" lon="4.60448">
        <ele>882</ele>
        <time>2014-04-21T08:56:39Z</time>
      </trkpt>
      <trkpt lat="45.11803" lon="4.6044">
        <ele>883.8</ele>
        <time>2014-04-21T08:56:42Z</time>
      </trkpt>
      <trkpt lat="45.11806" lon="4.60433">
        <ele>885.7</ele>
        <time>2014-04-21T08:56:45Z</time>
      </trkpt>
      <trkpt lat="45.1181" lon="4.60426">
        <ele>887.7</ele>
        <time>2014-04-21T08:56:48Z</time>
      </trkpt>
      <trkpt lat="45.11815" lon="4.60421">
        <ele>889.6</ele>
        <time>2014-04-21T08:56:51Z</time>
      </trkpt>
      <trkpt lat="45.11819" lon="4.60415">
        <ele>891.4</ele>
        <time>2014-04-21T08:56:54Z</time>
      </trkpt>
      <trkpt lat="45.11822" lon="4.60408">
        <ele>892.2</ele>
        <time>2014-04-21T08:56:57Z</time>
      </trkpt>
      <trkpt lat="45.11826" lon="4.60401">
        <ele>893.3</ele>
        <time>2014-04-21T08:57:00Z</time>
      </trkpt>
      <trkpt lat="45.1183" lon="4.60393">
        <ele>894.3</ele>
        <time>2014-04-21T08:57:03Z</time>
      </trkpt>
      <trkpt lat="45.11833" lon="4.60386">
        <ele>895.2</ele>
        <time>2014-04-21T08:57:06Z</time>
      </trkpt>
      <trkpt lat="45.11837" lon="4.6038">
        <ele>896.5</ele>
        <time>2014-04-21T08:57:09Z</time>
      </trkpt>
      <trkpt lat="45.1184" lon="4.60375">
        <ele>897.5</ele>
        <time>2014-04-21T08:57:11Z</time>
      </trkpt>
      <trkpt lat="45.11844" lon="4.60371">
        <ele>898.7</ele>
        <time>2014-04-21T08:57:13Z</time>
      </trkpt>
      <trkpt lat="45.11849" lon="4.60365">
        <ele>900.3</ele>
        <time>2014-04-21T08:57:16Z</time>
      </trkpt>
      <trkpt lat="45.11852" lon="4.60358">
        <ele>901.7</ele>
        <time>2014-04-21T08:57:19Z</time>
      </trkpt>
      <trkpt lat="45.11857" lon="4.60352">
        <ele>903.3</ele>
        <time>2014-04-21T08:57:22Z</time>
      </trkpt>
      <trkpt lat="45.1186" lon="4.60347">
        <ele>904.4</ele>
        <time>2014-04-21T08:57:24Z</time>
      </trkpt>
      <trkpt lat="45.11864" lon="4.6034">
        <ele>906.1</ele>
        <time>2014-04-21T08:57:27Z</time>
      </trkpt>
      <trkpt lat="45.11868" lon="4.60333">
        <ele>907.6</ele>
        <time>2014-04-21T08:57:30Z</time>
      </trkpt>
      <trkpt lat="45.11872" lon="4.60324">
        <ele>908.8</ele>
        <time>2014-04-21T08:57:33Z</time>
      </trkpt>
      <trkpt lat="45.11875" lon="4.60319">
        <ele>909.6</ele>
        <time>2014-04-21T08:57:35Z</time>
      </trkpt>
      <trkpt lat="45.11881" lon="4.60306">
        <ele>911.6</ele>
        <time>2014-04-21T08:57:40Z</time>
      </trkpt>
      <trkpt lat="45.11884" lon="4.60301">
        <ele>912.4</ele>
        <time>2014-04-21T08:57:42Z</time>
      </trkpt>
      <trkpt lat="45.11886" lon="4.60295">
        <ele>913.1</ele>
        <time>2014-04-21T08:57:44Z</time>
      </trkpt>
      <trkpt lat="45.11889" lon="4.60289">
        <ele>913.9</ele>
        <time>2014-04-21T08:57:46Z</time>
      </trkpt>
      <trkpt lat="45.11892" lon="4.60284">
        <ele>915</ele>
        <time>2014-04-21T08:57:48Z</time>
      </trkpt>
      <trkpt lat="45.11896" lon="4.60277">
        <ele>916.7</ele>
        <time>2014-04-21T08:57:51Z</time>
      </trkpt>
      <trkpt lat="45.11899" lon="4.60271">
        <ele>917.6</ele>
        <time>2014-04-21T08:57:53Z</time>
      </trkpt>
      <trkpt lat="45.11901" lon="4.60263">
        <ele>918.3</ele>
        <time>2014-04-21T08:57:56Z</time>
      </trkpt>
      <trkpt lat="45.11902" lon="4.60254">
        <ele>918.6</ele>
        <time>2014-04-21T08:57:59Z</time>
      </trkpt>
      <trkpt lat="45.11902" lon="4.60245">
        <ele>918.6</ele>
        <time>2014-04-21T08:58:02Z</time>
      </trkpt>
      <trkpt lat="45.11902" lon="4.60236">
        <ele>919</ele>
        <time>2014-04-21T08:58:05Z</time>
      </trkpt>
      <trkpt lat="45.11901" lon="4.60227">
        <ele>919</ele>
        <time>2014-04-21T08:58:08Z</time>
      </trkpt>
      <trkpt lat="45.119" lon="4.60221">
        <ele>919.1</ele>
        <time>2014-04-21T08:58:10Z</time>
      </trkpt>
      <trkpt lat="45.11899" lon="4.60214">
        <ele>919.1</ele>
        <time>2014-04-21T08:58:12Z</time>
      </trkpt>
      <trkpt lat="45.11899" lon="4.60205">
        <ele>919.3</ele>
        <time>2014-04-21T08:58:15Z</time>
      </trkpt>
      <trkpt lat="45.11899" lon="4.60198">
        <ele>919.7</ele>
        <time>2014-04-21T08:58:17Z</time>
      </trkpt>
      <trkpt lat="45.11898" lon="4.60189">
        <ele>920</ele>
        <time>2014-04-21T08:58:20Z</time>
      </trkpt>
      <trkpt lat="45.11899" lon="4.6018">
        <ele>920.7</ele>
        <time>2014-04-21T08:58:23Z</time>
      </trkpt>
      <trkpt lat="45.11899" lon="4.60174">
        <ele>921</ele>
        <time>2014-04-21T08:58:25Z</time>
      </trkpt>
      <trkpt lat="45.11899" lon="4.60166">
        <ele>921.6</ele>
        <time>2014-04-21T08:58:27Z</time>
      </trkpt>
      <trkpt lat="45.11898" lon="4.60159">
        <ele>922.2</ele>
        <time>2014-04-21T08:58:29Z</time>
      </trkpt>
      <trkpt lat="45.11898" lon="4.60152">
        <ele>922.9</ele>
        <time>2014-04-21T08:58:31Z</time>
      </trkpt>
      <trkpt lat="45.11896" lon="4.60146">
        <ele>923.2</ele>
        <time>2014-04-21T08:58:33Z</time>
      </trkpt>
      <trkpt lat="45.11895" lon="4.60139">
        <ele>923.5</ele>
        <time>2014-04-21T08:58:35Z</time>
      </trkpt>
      <trkpt lat="45.11893" lon="4.60133">
        <ele>923.6</ele>
        <time>2014-04-21T08:58:37Z</time>
      </trkpt>
      <trkpt lat="45.1189" lon="4.60117">
        <ele>924.3</ele>
        <time>2014-04-21T08:58:42Z</time>
      </trkpt>
      <trkpt lat="45.1189" lon="4.6011">
        <ele>925.1</ele>
        <time>2014-04-21T08:58:44Z</time>
      </trkpt>
      <trkpt lat="45.1189" lon="4.60103">
        <ele>926.3</ele>
        <time>2014-04-21T08:58:46Z</time>
      </trkpt>
      <trkpt lat="45.1189" lon="4.60096">
        <ele>927.3</ele>
        <time>2014-04-21T08:58:48Z</time>
      </trkpt>
      <trkpt lat="45.11889" lon="4.60089">
        <ele>927.8</ele>
        <time>2014-04-21T08:58:50Z</time>
      </trkpt>
      <trkpt lat="45.11889" lon="4.60081">
        <ele>928.7</ele>
        <time>2014-04-21T08:58:52Z</time>
      </trkpt>
      <trkpt lat="45.11888" lon="4.60074">
        <ele>929</ele>
        <time>2014-04-21T08:58:54Z</time>
      </trkpt>
      <trkpt lat="45.11887" lon="4.60067">
        <ele>929.2</ele>
        <time>2014-04-21T08:58:56Z</time>
      </trkpt>
      <trkpt lat="45.11886" lon="4.60061">
        <ele>929.5</ele>
        <time>2014-04-21T08:58:58Z</time>
      </trkpt>
      <trkpt lat="45.11885" lon="4.60054">
        <ele>929.6</ele>
        <time>2014-04-21T08:59:00Z</time>
      </trkpt>
      <trkpt lat="45.11883" lon="4.60047">
        <ele>929.9</ele>
        <time>2014-04-21T08:59:02Z</time>
      </trkpt>
      <trkpt lat="45.11882" lon="4.60041">
        <ele>930.1</ele>
        <time>2014-04-21T08:59:04Z</time>
      </trkpt>
      <trkpt lat="45.11881" lon="4.60034">
        <ele>930.4</ele>
        <time>2014-04-21T08:59:06Z</time>
      </trkpt>
      <trkpt lat="45.1188" lon="4.60027">
        <ele>930.7</ele>
        <time>2014-04-21T08:59:08Z</time>
      </trkpt>
      <trkpt lat="45.11878" lon="4.6002">
        <ele>930.7</ele>
        <time>2014-04-21T08:59:10Z</time>
      </trkpt>
      <trkpt lat="45.11876" lon="4.60013">
        <ele>930.3</ele>
        <time>2014-04-21T08:59:12Z</time>
      </trkpt>
      <trkpt lat="45.11875" lon="4.60006">
        <ele>930.5</ele>
        <time>2014-04-21T08:59:14Z</time>
      </trkpt>
      <trkpt lat="45.11873" lon="4.6">
        <ele>930.7</ele>
        <time>2014-04-21T08:59:16Z</time>
      </trkpt>
      <trkpt lat="45.11871" lon="4.59994">
        <ele>929.7</ele>
        <time>2014-04-21T08:59:18Z</time>
      </trkpt>
      <trkpt lat="45.11869" lon="4.59987">
        <ele>929</ele>
        <time>2014-04-21T08:59:20Z</time>
      </trkpt>
      <trkpt lat="45.11867" lon="4.59981">
        <ele>928.3</ele>
        <time>2014-04-21T08:59:22Z</time>
      </trkpt>
      <trkpt lat="45.11865" lon="4.59974">
        <ele>927.7</ele>
        <time>2014-04-21T08:59:24Z</time>
      </trkpt>
      <trkpt lat="45.11863" lon="4.59967">
        <ele>927</ele>
        <time>2014-04-21T08:59:26Z</time>
      </trkpt>
      <trkpt lat="45.11861" lon="4.5996">
        <ele>926.4</ele>
        <time>2014-04-21T08:59:28Z</time>
      </trkpt>
      <trkpt lat="45.11859" lon="4.59952">
        <ele>926.1</ele>
        <time>2014-04-21T08:59:30Z</time>
      </trkpt>
      <trkpt lat="45.11857" lon="4.59946">
        <ele>925.5</ele>
        <time>2014-04-21T08:59:32Z</time>
      </trkpt>
      <trkpt lat="45.11854" lon="4.59938">
        <ele>924.8</ele>
        <time>2014-04-21T08:59:35Z</time>
      </trkpt>
      <trkpt lat="45.11852" lon="4.59931">
        <ele>924.3</ele>
        <time>2014-04-21T08:59:37Z</time>
      </trkpt>
      <trkpt lat="45.1185" lon="4.59925">
        <ele>923.7</ele>
        <time>2014-04-21T08:59:39Z</time>
      </trkpt>
      <trkpt lat="45.11844" lon="4.5991">
        <ele>921.4</ele>
        <time>2014-04-21T08:59:44Z</time>
      </trkpt>
      <trkpt lat="45.11843" lon="4.59903">
        <ele>920.6</ele>
        <time>2014-04-21T08:59:46Z</time>
      </trkpt>
      <trkpt lat="45.1184" lon="4.59897">
        <ele>919.2</ele>
        <time>2014-04-21T08:59:48Z</time>
      </trkpt>
      <trkpt lat="45.11837" lon="4.59891">
        <ele>918</ele>
        <time>2014-04-21T08:59:50Z</time>
      </trkpt>
      <trkpt lat="45.11835" lon="4.59884">
        <ele>917</ele>
        <time>2014-04-21T08:59:52Z</time>
      </trkpt>
      <trkpt lat="45.11834" lon="4.59876">
        <ele>916.3</ele>
        <time>2014-04-21T08:59:54Z</time>
      </trkpt>
      <trkpt lat="45.11833" lon="4.59867">
        <ele>915.5</ele>
        <time>2014-04-21T08:59:56Z</time>
      </trkpt>
      <trkpt lat="45.11832" lon="4.59858">
        <ele>914.8</ele>
        <time>2014-04-21T08:59:58Z</time>
      </trkpt>
      <trkpt lat="45.11831" lon="4.59849">
        <ele>914.3</ele>
        <time>2014-04-21T09:00:00Z</time>
      </trkpt>
      <trkpt lat="45.11831" lon="4.5984">
        <ele>914</ele>
        <time>2014-04-21T09:00:02Z</time>
      </trkpt>
      <trkpt lat="45.1183" lon="4.59831">
        <ele>913.4</ele>
        <time>2014-04-21T09:00:04Z</time>
      </trkpt>
      <trkpt lat="45.11831" lon="4.59821">
        <ele>912.9</ele>
        <time>2014-04-21T09:00:06Z</time>
      </trkpt>
      <trkpt lat="45.11832" lon="4.59812">
        <ele>912.4</ele>
        <time>2014-04-21T09:00:08Z</time>
      </trkpt>
      <trkpt lat="45.11833" lon="4.59802">
        <ele>912</ele>
        <time>2014-04-21T09:00:10Z</time>
      </trkpt>
      <trkpt lat="45.11835" lon="4.59792">
        <ele>911.7</ele>
        <time>2014-04-21T09:00:12Z</time>
      </trkpt>
      <trkpt lat="45.11837" lon="4.59783">
        <ele>911.5</ele>
        <time>2014-04-21T09:00:14Z</time>
      </trkpt>
      <trkpt lat="45.11839" lon="4.59773">
        <ele>910.8</ele>
        <time>2014-04-21T09:00:16Z</time>
      </trkpt>
      <trkpt lat="45.11842" lon="4.59764">
        <ele>911.1</ele>
        <time>2014-04-21T09:00:18Z</time>
      </trkpt>
      <trkpt lat="45.11846" lon="4.59754">
        <ele>911.3</ele>
        <time>2014-04-21T09:00:20Z</time>
      </trkpt>
      <trkpt lat="45.11849" lon="4.59744">
        <ele>911.3</ele>
        <time>2014-04-21T09:00:22Z</time>
      </trkpt>
      <trkpt lat="45.1185" lon="4.59734">
        <ele>911.2</ele>
        <time>2014-04-21T09:00:24Z</time>
      </trkpt>
      <trkpt lat="45.11853" lon="4.59723">
        <ele>911.3</ele>
        <time>2014-04-21T09:00:26Z</time>
      </trkpt>
      <trkpt lat="45.11857" lon="4.59713">
        <ele>911.6</ele>
        <time>2014-04-21T09:00:28Z</time>
      </trkpt>
      <trkpt lat="45.1186" lon="4.59706">
        <ele>911.9</ele>
        <time>2014-04-21T09:00:30Z</time>
      </trkpt>
      <trkpt lat="45.11863" lon="4.59695">
        <ele>911.8</ele>
        <time>2014-04-21T09:00:32Z</time>
      </trkpt>
      <trkpt lat="45.11866" lon="4.59686">
        <ele>911.7</ele>
        <time>2014-04-21T09:00:34Z</time>
      </trkpt>
      <trkpt lat="45.1187" lon="4.59677">
        <ele>911.6</ele>
        <time>2014-04-21T09:00:36Z</time>
      </trkpt>
      <trkpt lat="45.11873" lon="4.59667">
        <ele>911.5</ele>
        <time>2014-04-21T09:00:38Z</time>
      </trkpt>
      <trkpt lat="45.11875" lon="4.59659">
        <ele>911.8</ele>
        <time>2014-04-21T09:00:40Z</time>
      </trkpt>
      <trkpt lat="45.1188" lon="4.59642">
        <ele>912.2</ele>
        <time>2014-04-21T09:00:44Z</time>
      </trkpt>
      <trkpt lat="45.11882" lon="4.59632">
        <ele>912.2</ele>
        <time>2014-04-21T09:00:46Z</time>
      </trkpt>
      <trkpt lat="45.11884" lon="4.59623">
        <ele>912.4</ele>
        <time>2014-04-21T09:00:48Z</time>
      </trkpt>
      <trkpt lat="45.11884" lon="4.59615">
        <ele>912.1</ele>
        <time>2014-04-21T09:00:50Z</time>
      </trkpt>
      <trkpt lat="45.11885" lon="4.59606">
        <ele>911.8</ele>
        <time>2014-04-21T09:00:52Z</time>
      </trkpt>
      <trkpt lat="45.11884" lon="4.59598">
        <ele>911.5</ele>
        <time>2014-04-21T09:00:54Z</time>
      </trkpt>
      <trkpt lat="45.11885" lon="4.59588">
        <ele>911.3</ele>
        <time>2014-04-21T09:00:56Z</time>
      </trkpt>
      <trkpt lat="45.11885" lon="4.59578">
        <ele>910.9</ele>
        <time>2014-04-21T09:00:58Z</time>
      </trkpt>
      <trkpt lat="45.11884" lon="4.59568">
        <ele>910.4</ele>
        <time>2014-04-21T09:01:00Z</time>
      </trkpt>
      <trkpt lat="45.11883" lon="4.59557">
        <ele>909.8</ele>
        <time>2014-04-21T09:01:02Z</time>
      </trkpt>
      <trkpt lat="45.11882" lon="4.59547">
        <ele>909.3</ele>
        <time>2014-04-21T09:01:04Z</time>
      </trkpt>
      <trkpt lat="45.11881" lon="4.59537">
        <ele>908.8</ele>
        <time>2014-04-21T09:01:06Z</time>
      </trkpt>
      <trkpt lat="45.1188" lon="4.59527">
        <ele>908.3</ele>
        <time>2014-04-21T09:01:08Z</time>
      </trkpt>
      <trkpt lat="45.11878" lon="4.59517">
        <ele>907.8</ele>
        <time>2014-04-21T09:01:10Z</time>
      </trkpt>
      <trkpt lat="45.11874" lon="4.59509">
        <ele>907.2</ele>
        <time>2014-04-21T09:01:12Z</time>
      </trkpt>
      <trkpt lat="45.11872" lon="4.59499">
        <ele>906.7</ele>
        <time>2014-04-21T09:01:14Z</time>
      </trkpt>
      <trkpt lat="45.11871" lon="4.59489">
        <ele>906.3</ele>
        <time>2014-04-21T09:01:16Z</time>
      </trkpt>
      <trkpt lat="45.11868" lon="4.5948">
        <ele>905.9</ele>
        <time>2014-04-21T09:01:18Z</time>
      </trkpt>
      <trkpt lat="45.11866" lon="4.5947">
        <ele>905.5</ele>
        <time>2014-04-21T09:01:20Z</time>
      </trkpt>
      <trkpt lat="45.11863" lon="4.59462">
        <ele>905.3</ele>
        <time>2014-04-21T09:01:22Z</time>
      </trkpt>
      <trkpt lat="45.1186" lon="4.59454">
        <ele>905.1</ele>
        <time>2014-04-21T09:01:24Z</time>
      </trkpt>
      <trkpt lat="45.11856" lon="4.59446">
        <ele>905</ele>
        <time>2014-04-21T09:01:26Z</time>
      </trkpt>
      <trkpt lat="45.11853" lon="4.59438">
        <ele>905</ele>
        <time>2014-04-21T09:01:28Z</time>
      </trkpt>
      <trkpt lat="45.1185" lon="4.5943">
        <ele>905.1</ele>
        <time>2014-04-21T09:01:30Z</time>
      </trkpt>
      <trkpt lat="45.11847" lon="4.59422">
        <ele>905.3</ele>
        <time>2014-04-21T09:01:32Z</time>
      </trkpt>
      <trkpt lat="45.11845" lon="4.59413">
        <ele>905.2</ele>
        <time>2014-04-21T09:01:34Z</time>
      </trkpt>
      <trkpt lat="45.11842" lon="4.59404">
        <ele>905</ele>
        <time>2014-04-21T09:01:36Z</time>
      </trkpt>
      <trkpt lat="45.11839" lon="4.59394">
        <ele>904.7</ele>
        <time>2014-04-21T09:01:38Z</time>
      </trkpt>
      <trkpt lat="45.11837" lon="4.59386">
        <ele>904.5</ele>
        <time>2014-04-21T09:01:40Z</time>
      </trkpt>
      <trkpt lat="45.11834" lon="4.59378">
        <ele>904.5</ele>
        <time>2014-04-21T09:01:42Z</time>
      </trkpt>
      <trkpt lat="45.11829" lon="4.59361">
        <ele>903</ele>
        <time>2014-04-21T09:01:46Z</time>
      </trkpt>
      <trkpt lat="45.11826" lon="4.59352">
        <ele>902.4</ele>
        <time>2014-04-21T09:01:48Z</time>
      </trkpt>
      <trkpt lat="45.11825" lon="4.59342">
        <ele>901.8</ele>
        <time>2014-04-21T09:01:50Z</time>
      </trkpt>
      <trkpt lat="45.11822" lon="4.59333">
        <ele>901.3</ele>
        <time>2014-04-21T09:01:52Z</time>
      </trkpt>
      <trkpt lat="45.1182" lon="4.59324">
        <ele>900.5</ele>
        <time>2014-04-21T09:01:54Z</time>
      </trkpt>
      <trkpt lat="45.11818" lon="4.59315">
        <ele>899.7</ele>
        <time>2014-04-21T09:01:56Z</time>
      </trkpt>
      <trkpt lat="45.11815" lon="4.59306">
        <ele>898.9</ele>
        <time>2014-04-21T09:01:58Z</time>
      </trkpt>
      <trkpt lat="45.11811" lon="4.59297">
        <ele>898.3</ele>
        <time>2014-04-21T09:02:00Z</time>
      </trkpt>
      <trkpt lat="45.11807" lon="4.59288">
        <ele>897.7</ele>
        <time>2014-04-21T09:02:02Z</time>
      </trkpt>
      <trkpt lat="45.11803" lon="4.59279">
        <ele>897.2</ele>
        <time>2014-04-21T09:02:04Z</time>
      </trkpt>
      <trkpt lat="45.11799" lon="4.59271">
        <ele>896.8</ele>
        <time>2014-04-21T09:02:06Z</time>
      </trkpt>
      <trkpt lat="45.11796" lon="4.59262">
        <ele>896.6</ele>
        <time>2014-04-21T09:02:08Z</time>
      </trkpt>
      <trkpt lat="45.11792" lon="4.59254">
        <ele>896.5</ele>
        <time>2014-04-21T09:02:10Z</time>
      </trkpt>
      <trkpt lat="45.11787" lon="4.59247">
        <ele>896</ele>
        <time>2014-04-21T09:02:12Z</time>
      </trkpt>
      <trkpt lat="45.11782" lon="4.59241">
        <ele>895.5</ele>
        <time>2014-04-21T09:02:14Z</time>
      </trkpt>
      <trkpt lat="45.11777" lon="4.59236">
        <ele>895</ele>
        <time>2014-04-21T09:02:16Z</time>
      </trkpt>
      <trkpt lat="45.11772" lon="4.59231">
        <ele>894.6</ele>
        <time>2014-04-21T09:02:18Z</time>
      </trkpt>
      <trkpt lat="45.11767" lon="4.59225">
        <ele>894.1</ele>
        <time>2014-04-21T09:02:20Z</time>
      </trkpt>
      <trkpt lat="45.11761" lon="4.5922">
        <ele>893.9</ele>
        <time>2014-04-21T09:02:22Z</time>
      </trkpt>
      <trkpt lat="45.11756" lon="4.59214">
        <ele>893.6</ele>
        <time>2014-04-21T09:02:24Z</time>
      </trkpt>
      <trkpt lat="45.1175" lon="4.59208">
        <ele>893.4</ele>
        <time>2014-04-21T09:02:26Z</time>
      </trkpt>
      <trkpt lat="45.11745" lon="4.59202">
        <ele>892.4</ele>
        <time>2014-04-21T09:02:28Z</time>
      </trkpt>
      <trkpt lat="45.1174" lon="4.59194">
        <ele>891.6</ele>
        <time>2014-04-21T09:02:30Z</time>
      </trkpt>
      <trkpt lat="45.11735" lon="4.59187">
        <ele>890.8</ele>
        <time>2014-04-21T09:02:32Z</time>
      </trkpt>
      <trkpt lat="45.11729" lon="4.59179">
        <ele>890.2</ele>
        <time>2014-04-21T09:02:34Z</time>
      </trkpt>
      <trkpt lat="45.11724" lon="4.5917">
        <ele>889.8</ele>
        <time>2014-04-21T09:02:36Z</time>
      </trkpt>
      <trkpt lat="45.11721" lon="4.59161">
        <ele>889.2</ele>
        <time>2014-04-21T09:02:38Z</time>
      </trkpt>
      <trkpt lat="45.11719" lon="4.5915">
        <ele>888.6</ele>
        <time>2014-04-21T09:02:40Z</time>
      </trkpt>
      <trkpt lat="45.11717" lon="4.5914">
        <ele>888</ele>
        <time>2014-04-21T09:02:42Z</time>
      </trkpt>
      <trkpt lat="45.11716" lon="4.5913">
        <ele>887.6</ele>
        <time>2014-04-21T09:02:44Z</time>
      </trkpt>
      <trkpt lat="45.11714" lon="4.59112">
        <ele>886.8</ele>
        <time>2014-04-21T09:02:48Z</time>
      </trkpt>
      <trkpt lat="45.11714" lon="4.59103">
        <ele>886.4</ele>
        <time>2014-04-21T09:02:50Z</time>
      </trkpt>
      <trkpt lat="45.11713" lon="4.59095">
        <ele>886</ele>
        <time>2014-04-21T09:02:52Z</time>
      </trkpt>
      <trkpt lat="45.11712" lon="4.59087">
        <ele>885.8</ele>
        <time>2014-04-21T09:02:54Z</time>
      </trkpt>
      <trkpt lat="45.11711" lon="4.59079">
        <ele>885.5</ele>
        <time>2014-04-21T09:02:56Z</time>
      </trkpt>
      <trkpt lat="45.11711" lon="4.59072">
        <ele>885.3</ele>
        <time>2014-04-21T09:02:58Z</time>
      </trkpt>
      <trkpt lat="45.11711" lon="4.59065">
        <ele>885.1</ele>
        <time>2014-04-21T09:03:00Z</time>
      </trkpt>
      <trkpt lat="45.11711" lon="4.59058">
        <ele>884.8</ele>
        <time>2014-04-21T09:03:02Z</time>
      </trkpt>
      <trkpt lat="45.11711" lon="4.59051">
        <ele>884.6</ele>
        <time>2014-04-21T09:03:04Z</time>
      </trkpt>
      <trkpt lat="45.11711" lon="4.59044">
        <ele>884.2</ele>
        <time>2014-04-21T09:03:06Z</time>
      </trkpt>
      <trkpt lat="45.11712" lon="4.59035">
        <ele>883.8</ele>
        <time>2014-04-21T09:03:09Z</time>
      </trkpt>
      <trkpt lat="45.11713" lon="4.59026">
        <ele>883.3</ele>
        <time>2014-04-21T09:03:12Z</time>
      </trkpt>
      <trkpt lat="45.11715" lon="4.59017">
        <ele>882.7</ele>
        <time>2014-04-21T09:03:15Z</time>
      </trkpt>
      <trkpt lat="45.11718" lon="4.59009">
        <ele>882</ele>
        <time>2014-04-21T09:03:18Z</time>
      </trkpt>
      <trkpt lat="45.1172" lon="4.59">
        <ele>881.3</ele>
        <time>2014-04-21T09:03:21Z</time>
      </trkpt>
      <trkpt lat="45.11722" lon="4.58992">
        <ele>880.3</ele>
        <time>2014-04-21T09:03:24Z</time>
      </trkpt>
      <trkpt lat="45.11725" lon="4.58985">
        <ele>879.3</ele>
        <time>2014-04-21T09:03:27Z</time>
      </trkpt>
      <trkpt lat="45.11727" lon="4.58978">
        <ele>878.1</ele>
        <time>2014-04-21T09:03:30Z</time>
      </trkpt>
      <trkpt lat="45.1173" lon="4.58972">
        <ele>877.2</ele>
        <time>2014-04-21T09:03:33Z</time>
      </trkpt>
      <trkpt lat="45.11731" lon="4.58964">
        <ele>876.2</ele>
        <time>2014-04-21T09:03:36Z</time>
      </trkpt>
      <trkpt lat="45.11733" lon="4.58957">
        <ele>875.1</ele>
        <time>2014-04-21T09:03:40Z</time>
      </trkpt>
      <trkpt lat="45.11738" lon="4.58956">
        <ele>874.3</ele>
        <time>2014-04-21T09:06:48Z</time>
      </trkpt>
      <trkpt lat="45.11742" lon="4.58977">
        <ele>875.7</ele>
        <time>2014-04-21T09:10:45Z</time>
      </trkpt>
      <trkpt lat="45.11744" lon="4.58984">
        <ele>876.2</ele>
        <time>2014-04-21T09:10:48Z</time>
      </trkpt>
      <trkpt lat="45.11747" lon="4.58992">
        <ele>876.5</ele>
        <time>2014-04-21T09:10:51Z</time>
      </trkpt>
      <trkpt lat="45.11749" lon="4.59">
        <ele>877</ele>
        <time>2014-04-21T09:10:54Z</time>
      </trkpt>
      <trkpt lat="45.11751" lon="4.59009">
        <ele>877.2</ele>
        <time>2014-04-21T09:10:57Z</time>
      </trkpt>
      <trkpt lat="45.11754" lon="4.59016">
        <ele>877</ele>
        <time>2014-04-21T09:11:00Z</time>
      </trkpt>
      <trkpt lat="45.11756" lon="4.59022">
        <ele>876.8</ele>
        <time>2014-04-21T09:11:02Z</time>
      </trkpt>
      <trkpt lat="45.11758" lon="4.59028">
        <ele>876.6</ele>
        <time>2014-04-21T09:11:04Z</time>
      </trkpt>
      <trkpt lat="45.11762" lon="4.59036">
        <ele>876.3</ele>
        <time>2014-04-21T09:11:07Z</time>
      </trkpt>
      <trkpt lat="45.11765" lon="4.59042">
        <ele>876.2</ele>
        <time>2014-04-21T09:11:09Z</time>
      </trkpt>
      <trkpt lat="45.11769" lon="4.59049">
        <ele>875.9</ele>
        <time>2014-04-21T09:11:12Z</time>
      </trkpt>
      <trkpt lat="45.11772" lon="4.59054">
        <ele>875.8</ele>
        <time>2014-04-21T09:11:14Z</time>
      </trkpt>
      <trkpt lat="45.11775" lon="4.5906">
        <ele>875.8</ele>
        <time>2014-04-21T09:11:16Z</time>
      </trkpt>
      <trkpt lat="45.11777" lon="4.59066">
        <ele>875.9</ele>
        <time>2014-04-21T09:11:18Z</time>
      </trkpt>
      <trkpt lat="45.11779" lon="4.59074">
        <ele>876.3</ele>
        <time>2014-04-21T09:11:20Z</time>
      </trkpt>
      <trkpt lat="45.1178" lon="4.59082">
        <ele>877.1</ele>
        <time>2014-04-21T09:11:22Z</time>
      </trkpt>
      <trkpt lat="45.11781" lon="4.5909">
        <ele>878</ele>
        <time>2014-04-21T09:11:24Z</time>
      </trkpt>
      <trkpt lat="45.11782" lon="4.59099">
        <ele>878.9</ele>
        <time>2014-04-21T09:11:26Z</time>
      </trkpt>
      <trkpt lat="45.11784" lon="4.59107">
        <ele>879.9</ele>
        <time>2014-04-21T09:11:28Z</time>
      </trkpt>
      <trkpt lat="45.11786" lon="4.59115">
        <ele>880.7</ele>
        <time>2014-04-21T09:11:30Z</time>
      </trkpt>
      <trkpt lat="45.11788" lon="4.59123">
        <ele>881.5</ele>
        <time>2014-04-21T09:11:32Z</time>
      </trkpt>
      <trkpt lat="45.11791" lon="4.59131">
        <ele>882.4</ele>
        <time>2014-04-21T09:11:34Z</time>
      </trkpt>
      <trkpt lat="45.11793" lon="4.59138">
        <ele>883.2</ele>
        <time>2014-04-21T09:11:36Z</time>
      </trkpt>
      <trkpt lat="45.11796" lon="4.59144">
        <ele>883.6</ele>
        <time>2014-04-21T09:11:38Z</time>
      </trkpt>
      <trkpt lat="45.118" lon="4.59149">
        <ele>884.1</ele>
        <time>2014-04-21T09:11:40Z</time>
      </trkpt>
      <trkpt lat="45.11809" lon="4.59163">
        <ele>885.4</ele>
        <time>2014-04-21T09:11:44Z</time>
      </trkpt>
      <trkpt lat="45.11815" lon="4.5917">
        <ele>885.9</ele>
        <time>2014-04-21T09:11:46Z</time>
      </trkpt>
      <trkpt lat="45.11819" lon="4.59177">
        <ele>886.5</ele>
        <time>2014-04-21T09:11:48Z</time>
      </trkpt>
      <trkpt lat="45.11823" lon="4.59183">
        <ele>887.1</ele>
        <time>2014-04-21T09:11:50Z</time>
      </trkpt>
      <trkpt lat="45.11827" lon="4.59188">
        <ele>887.6</ele>
        <time>2014-04-21T09:11:52Z</time>
      </trkpt>
      <trkpt lat="45.11831" lon="4.59192">
        <ele>888</ele>
        <time>2014-04-21T09:11:54Z</time>
      </trkpt>
      <trkpt lat="45.11836" lon="4.59196">
        <ele>887.9</ele>
        <time>2014-04-21T09:11:57Z</time>
      </trkpt>
      <trkpt lat="45.11842" lon="4.59198">
        <ele>886.8</ele>
        <time>2014-04-21T09:12:00Z</time>
      </trkpt>
      <trkpt lat="45.11848" lon="4.59198">
        <ele>885.6</ele>
        <time>2014-04-21T09:12:03Z</time>
      </trkpt>
      <trkpt lat="45.11852" lon="4.59198">
        <ele>884.8</ele>
        <time>2014-04-21T09:12:06Z</time>
      </trkpt>
      <trkpt lat="45.11857" lon="4.59201">
        <ele>884.2</ele>
        <time>2014-04-21T09:12:10Z</time>
      </trkpt>
      <trkpt lat="45.11861" lon="4.59206">
        <ele>884.1</ele>
        <time>2014-04-21T09:12:14Z</time>
      </trkpt>
      <trkpt lat="45.11863" lon="4.59211">
        <ele>884.3</ele>
        <time>2014-04-21T09:12:32Z</time>
      </trkpt>
      <trkpt lat="45.11866" lon="4.59217">
        <ele>884.3</ele>
        <time>2014-04-21T09:12:41Z</time>
      </trkpt>
      <trkpt lat="45.11872" lon="4.59228">
        <ele>884.6</ele>
        <time>2014-04-21T09:12:57Z</time>
      </trkpt>
      <trkpt lat="45.11874" lon="4.59236">
        <ele>885.2</ele>
        <time>2014-04-21T09:13:01Z</time>
      </trkpt>
      <trkpt lat="45.11877" lon="4.59242">
        <ele>885.4</ele>
        <time>2014-04-21T09:13:07Z</time>
      </trkpt>
      <trkpt lat="45.1188" lon="4.59247">
        <ele>885.3</ele>
        <time>2014-04-21T09:13:14Z</time>
      </trkpt>
      <trkpt lat="45.11883" lon="4.59253">
        <ele>885.3</ele>
        <time>2014-04-21T09:13:18Z</time>
      </trkpt>
      <trkpt lat="45.11886" lon="4.5926">
        <ele>885.3</ele>
        <time>2014-04-21T09:13:22Z</time>
      </trkpt>
      <trkpt lat="45.11888" lon="4.59268">
        <ele>885.8</ele>
        <time>2014-04-21T09:13:26Z</time>
      </trkpt>
      <trkpt lat="45.1189" lon="4.59276">
        <ele>886.3</ele>
        <time>2014-04-21T09:13:30Z</time>
      </trkpt>
      <trkpt lat="45.11893" lon="4.59281">
        <ele>886.2</ele>
        <time>2014-04-21T09:13:33Z</time>
      </trkpt>
      <trkpt lat="45.11897" lon="4.59288">
        <ele>886.1</ele>
        <time>2014-04-21T09:13:36Z</time>
      </trkpt>
      <trkpt lat="45.119" lon="4.59294">
        <ele>886.2</ele>
        <time>2014-04-21T09:13:38Z</time>
      </trkpt>
      <trkpt lat="45.11901" lon="4.593">
        <ele>886.8</ele>
        <time>2014-04-21T09:13:40Z</time>
      </trkpt>
      <trkpt lat="45.11899" lon="4.59307">
        <ele>888</ele>
        <time>2014-04-21T09:13:43Z</time>
      </trkpt>
      <trkpt lat="45.11898" lon="4.59321">
        <ele>889.9</ele>
        <time>2014-04-21T09:13:48Z</time>
      </trkpt>
      <trkpt lat="45.119" lon="4.59328">
        <ele>890.2</ele>
        <time>2014-04-21T09:13:50Z</time>
      </trkpt>
      <trkpt lat="45.11903" lon="4.59335">
        <ele>890.7</ele>
        <time>2014-04-21T09:13:52Z</time>
      </trkpt>
      <trkpt lat="45.11906" lon="4.59344">
        <ele>891.5</ele>
        <time>2014-04-21T09:13:54Z</time>
      </trkpt>
      <trkpt lat="45.11909" lon="4.59354">
        <ele>892.4</ele>
        <time>2014-04-21T09:13:56Z</time>
      </trkpt>
      <trkpt lat="45.11911" lon="4.59363">
        <ele>893.6</ele>
        <time>2014-04-21T09:13:58Z</time>
      </trkpt>
      <trkpt lat="45.11914" lon="4.5937">
        <ele>894.4</ele>
        <time>2014-04-21T09:14:00Z</time>
      </trkpt>
      <trkpt lat="45.11918" lon="4.59376">
        <ele>894.7</ele>
        <time>2014-04-21T09:14:02Z</time>
      </trkpt>
      <trkpt lat="45.11921" lon="4.59382">
        <ele>894.9</ele>
        <time>2014-04-21T09:14:04Z</time>
      </trkpt>
      <trkpt lat="45.11924" lon="4.59388">
        <ele>895.6</ele>
        <time>2014-04-21T09:14:06Z</time>
      </trkpt>
      <trkpt lat="45.11927" lon="4.59394">
        <ele>895.6</ele>
        <time>2014-04-21T09:14:08Z</time>
      </trkpt>
      <trkpt lat="45.11931" lon="4.59399">
        <ele>895.6</ele>
        <time>2014-04-21T09:14:10Z</time>
      </trkpt>
      <trkpt lat="45.11935" lon="4.59403">
        <ele>895.3</ele>
        <time>2014-04-21T09:14:12Z</time>
      </trkpt>
      <trkpt lat="45.11939" lon="4.59408">
        <ele>895.4</ele>
        <time>2014-04-21T09:14:14Z</time>
      </trkpt>
      <trkpt lat="45.11941" lon="4.59414">
        <ele>895.8</ele>
        <time>2014-04-21T09:14:16Z</time>
      </trkpt>
      <trkpt lat="45.11943" lon="4.59421">
        <ele>896.3</ele>
        <time>2014-04-21T09:14:19Z</time>
      </trkpt>
      <trkpt lat="45.11945" lon="4.59427">
        <ele>896.6</ele>
        <time>2014-04-21T09:14:21Z</time>
      </trkpt>
      <trkpt lat="45.11949" lon="4.59433">
        <ele>896.3</ele>
        <time>2014-04-21T09:14:23Z</time>
      </trkpt>
      <trkpt lat="45.11954" lon="4.59435">
        <ele>895.5</ele>
        <time>2014-04-21T09:14:25Z</time>
      </trkpt>
      <trkpt lat="45.1196" lon="4.59436">
        <ele>894.2</ele>
        <time>2014-04-21T09:14:28Z</time>
      </trkpt>
      <trkpt lat="45.11965" lon="4.59442">
        <ele>893.6</ele>
        <time>2014-04-21T09:14:31Z</time>
      </trkpt>
      <trkpt lat="45.11968" lon="4.5945">
        <ele>893.9</ele>
        <time>2014-04-21T09:14:34Z</time>
      </trkpt>
      <trkpt lat="45.1197" lon="4.59459">
        <ele>894.4</ele>
        <time>2014-04-21T09:14:37Z</time>
      </trkpt>
      <trkpt lat="45.11972" lon="4.59468">
        <ele>894.9</ele>
        <time>2014-04-21T09:14:40Z</time>
      </trkpt>
      <trkpt lat="45.11974" lon="4.59475">
        <ele>895.1</ele>
        <time>2014-04-21T09:14:43Z</time>
      </trkpt>
      <trkpt lat="45.11977" lon="4.59481">
        <ele>895.2</ele>
        <time>2014-04-21T09:14:46Z</time>
      </trkpt>
      <trkpt lat="45.11982" lon="4.59492">
        <ele>895.4</ele>
        <time>2014-04-21T09:14:52Z</time>
      </trkpt>
      <trkpt lat="45.11985" lon="4.59499">
        <ele>895.3</ele>
        <time>2014-04-21T09:14:56Z</time>
      </trkpt>
      <trkpt lat="45.11989" lon="4.59505">
        <ele>895</ele>
        <time>2014-04-21T09:14:59Z</time>
      </trkpt>
      <trkpt lat="45.11992" lon="4.59512">
        <ele>895</ele>
        <time>2014-04-21T09:15:01Z</time>
      </trkpt>
      <trkpt lat="45.11996" lon="4.5952">
        <ele>895</ele>
        <time>2014-04-21T09:15:03Z</time>
      </trkpt>
      <trkpt lat="45.11998" lon="4.59528">
        <ele>895.4</ele>
        <time>2014-04-21T09:15:06Z</time>
      </trkpt>
      <trkpt lat="45.12" lon="4.59535">
        <ele>895.7</ele>
        <time>2014-04-21T09:15:10Z</time>
      </trkpt>
      <trkpt lat="45.12003" lon="4.59541">
        <ele>895.3</ele>
        <time>2014-04-21T09:15:15Z</time>
      </trkpt>
      <trkpt lat="45.12006" lon="4.59548">
        <ele>895.4</ele>
        <time>2014-04-21T09:15:19Z</time>
      </trkpt>
      <trkpt lat="45.12008" lon="4.59556">
        <ele>895.6</ele>
        <time>2014-04-21T09:15:23Z</time>
      </trkpt>
      <trkpt lat="45.1201" lon="4.59564">
        <ele>895.6</ele>
        <time>2014-04-21T09:15:27Z</time>
      </trkpt>
      <trkpt lat="45.12012" lon="4.5957">
        <ele>895.8</ele>
        <time>2014-04-21T09:15:31Z</time>
      </trkpt>
      <trkpt lat="45.12013" lon="4.59577">
        <ele>896</ele>
        <time>2014-04-21T09:15:34Z</time>
      </trkpt>
      <trkpt lat="45.12013" lon="4.59583">
        <ele>896.7</ele>
        <time>2014-04-21T09:15:41Z</time>
      </trkpt>
      <trkpt lat="45.12015" lon="4.59589">
        <ele>897.1</ele>
        <time>2014-04-21T09:15:52Z</time>
      </trkpt>
      <trkpt lat="45.12014" lon="4.59604">
        <ele>899.9</ele>
        <time>2014-04-21T09:16:08Z</time>
      </trkpt>
      <trkpt lat="45.12013" lon="4.59611">
        <ele>901.3</ele>
        <time>2014-04-21T09:16:11Z</time>
      </trkpt>
      <trkpt lat="45.12011" lon="4.59619">
        <ele>903.1</ele>
        <time>2014-04-21T09:16:15Z</time>
      </trkpt>
      <trkpt lat="45.1201" lon="4.59626">
        <ele>904.4</ele>
        <time>2014-04-21T09:16:19Z</time>
      </trkpt>
      <trkpt lat="45.1201" lon="4.59633">
        <ele>905.7</ele>
        <time>2014-04-21T09:16:23Z</time>
      </trkpt>
      <trkpt lat="45.12011" lon="4.59641">
        <ele>906.5</ele>
        <time>2014-04-21T09:16:27Z</time>
      </trkpt>
      <trkpt lat="45.12011" lon="4.59648">
        <ele>907.3</ele>
        <time>2014-04-21T09:16:30Z</time>
      </trkpt>
      <trkpt lat="45.12012" lon="4.59655">
        <ele>908.4</ele>
        <time>2014-04-21T09:16:33Z</time>
      </trkpt>
      <trkpt lat="45.12012" lon="4.59663">
        <ele>909.4</ele>
        <time>2014-04-21T09:16:37Z</time>
      </trkpt>
      <trkpt lat="45.12014" lon="4.59671">
        <ele>910.3</ele>
        <time>2014-04-21T09:16:40Z</time>
      </trkpt>
      <trkpt lat="45.12016" lon="4.59677">
        <ele>910.8</ele>
        <time>2014-04-21T09:16:43Z</time>
      </trkpt>
      <trkpt lat="45.12017" lon="4.59684">
        <ele>912.2</ele>
        <time>2014-04-21T09:16:47Z</time>
      </trkpt>
      <trkpt lat="45.12019" lon="4.59691">
        <ele>912.8</ele>
        <time>2014-04-21T09:16:51Z</time>
      </trkpt>
      <trkpt lat="45.12021" lon="4.59697">
        <ele>913.6</ele>
        <time>2014-04-21T09:16:57Z</time>
      </trkpt>
      <trkpt lat="45.12027" lon="4.59707">
        <ele>914</ele>
        <time>2014-04-21T09:17:07Z</time>
      </trkpt>
      <trkpt lat="45.1203" lon="4.59713">
        <ele>914.3</ele>
        <time>2014-04-21T09:17:13Z</time>
      </trkpt>
      <trkpt lat="45.12033" lon="4.5972">
        <ele>915</ele>
        <time>2014-04-21T09:17:18Z</time>
      </trkpt>
      <trkpt lat="45.12036" lon="4.59725">
        <ele>915.2</ele>
        <time>2014-04-21T09:17:26Z</time>
      </trkpt>
      <trkpt lat="45.12039" lon="4.59729">
        <ele>915.4</ele>
        <time>2014-04-21T09:17:33Z</time>
      </trkpt>
      <trkpt lat="45.12043" lon="4.59736">
        <ele>915.9</ele>
        <time>2014-04-21T09:17:46Z</time>
      </trkpt>
      <trkpt lat="45.12046" lon="4.59741">
        <ele>916.1</ele>
        <time>2014-04-21T09:17:50Z</time>
      </trkpt>
      <trkpt lat="45.1205" lon="4.59747">
        <ele>916.3</ele>
        <time>2014-04-21T09:17:54Z</time>
      </trkpt>
      <trkpt lat="45.12054" lon="4.59753">
        <ele>916.8</ele>
        <time>2014-04-21T09:17:58Z</time>
      </trkpt>
      <trkpt lat="45.1206" lon="4.59764">
        <ele>917.8</ele>
        <time>2014-04-21T09:18:07Z</time>
      </trkpt>
      <trkpt lat="45.12062" lon="4.59771">
        <ele>918.2</ele>
        <time>2014-04-21T09:18:11Z</time>
      </trkpt>
      <trkpt lat="45.12065" lon="4.59776">
        <ele>919.1</ele>
        <time>2014-04-21T09:18:15Z</time>
      </trkpt>
      <trkpt lat="45.12068" lon="4.59781">
        <ele>919.4</ele>
        <time>2014-04-21T09:18:19Z</time>
      </trkpt>
      <trkpt lat="45.12071" lon="4.59787">
        <ele>919.6</ele>
        <time>2014-04-21T09:18:23Z</time>
      </trkpt>
      <trkpt lat="45.12075" lon="4.59792">
        <ele>919.6</ele>
        <time>2014-04-21T09:18:28Z</time>
      </trkpt>
      <trkpt lat="45.12079" lon="4.59797">
        <ele>919.8</ele>
        <time>2014-04-21T09:18:32Z</time>
      </trkpt>
      <trkpt lat="45.12083" lon="4.59803">
        <ele>920</ele>
        <time>2014-04-21T09:18:36Z</time>
      </trkpt>
      <trkpt lat="45.12086" lon="4.5981">
        <ele>920.4</ele>
        <time>2014-04-21T09:18:40Z</time>
      </trkpt>
      <trkpt lat="45.12089" lon="4.59815">
        <ele>920</ele>
        <time>2014-04-21T09:18:43Z</time>
      </trkpt>
      <trkpt lat="45.12093" lon="4.5982">
        <ele>919.4</ele>
        <time>2014-04-21T09:18:46Z</time>
      </trkpt>
      <trkpt lat="45.12097" lon="4.59826">
        <ele>919.1</ele>
        <time>2014-04-21T09:18:49Z</time>
      </trkpt>
      <trkpt lat="45.12103" lon="4.59832">
        <ele>918.1</ele>
        <time>2014-04-21T09:18:52Z</time>
      </trkpt>
      <trkpt lat="45.12106" lon="4.59838">
        <ele>917.3</ele>
        <time>2014-04-21T09:18:54Z</time>
      </trkpt>
      <trkpt lat="45.12111" lon="4.59845">
        <ele>916.3</ele>
        <time>2014-04-21T09:18:57Z</time>
      </trkpt>
      <trkpt lat="45.12115" lon="4.5985">
        <ele>915.5</ele>
        <time>2014-04-21T09:19:00Z</time>
      </trkpt>
      <trkpt lat="45.12121" lon="4.59861">
        <ele>914.5</ele>
        <time>2014-04-21T09:19:06Z</time>
      </trkpt>
      <trkpt lat="45.12126" lon="4.59871">
        <ele>913.9</ele>
        <time>2014-04-21T09:19:09Z</time>
      </trkpt>
      <trkpt lat="45.12132" lon="4.5988">
        <ele>912.4</ele>
        <time>2014-04-21T09:19:11Z</time>
      </trkpt>
      <trkpt lat="45.12136" lon="4.59888">
        <ele>911.7</ele>
        <time>2014-04-21T09:19:13Z</time>
      </trkpt>
      <trkpt lat="45.12142" lon="4.59897">
        <ele>910.4</ele>
        <time>2014-04-21T09:19:15Z</time>
      </trkpt>
      <trkpt lat="45.12147" lon="4.59904">
        <ele>908.8</ele>
        <time>2014-04-21T09:19:17Z</time>
      </trkpt>
      <trkpt lat="45.12154" lon="4.59911">
        <ele>907</ele>
        <time>2014-04-21T09:19:19Z</time>
      </trkpt>
      <trkpt lat="45.1216" lon="4.59922">
        <ele>905.8</ele>
        <time>2014-04-21T09:19:21Z</time>
      </trkpt>
      <trkpt lat="45.12163" lon="4.59928">
        <ele>905</ele>
        <time>2014-04-21T09:19:22Z</time>
      </trkpt>
      <trkpt lat="45.12166" lon="4.59933">
        <ele>904.4</ele>
        <time>2014-04-21T09:19:23Z</time>
      </trkpt>
      <trkpt lat="45.12169" lon="4.59938">
        <ele>903.7</ele>
        <time>2014-04-21T09:19:24Z</time>
      </trkpt>
      <trkpt lat="45.12171" lon="4.59944">
        <ele>903.2</ele>
        <time>2014-04-21T09:19:25Z</time>
      </trkpt>
      <trkpt lat="45.12174" lon="4.59949">
        <ele>902.6</ele>
        <time>2014-04-21T09:19:26Z</time>
      </trkpt>
      <trkpt lat="45.1218" lon="4.59959">
        <ele>901.3</ele>
        <time>2014-04-21T09:19:28Z</time>
      </trkpt>
      <trkpt lat="45.12185" lon="4.59969">
        <ele>900.3</ele>
        <time>2014-04-21T09:19:30Z</time>
      </trkpt>
      <trkpt lat="45.12189" lon="4.59975">
        <ele>899.6</ele>
        <time>2014-04-21T09:19:31Z</time>
      </trkpt>
      <trkpt lat="45.12191" lon="4.59981">
        <ele>899.3</ele>
        <time>2014-04-21T09:19:32Z</time>
      </trkpt>
      <trkpt lat="45.12193" lon="4.59987">
        <ele>899.1</ele>
        <time>2014-04-21T09:19:33Z</time>
      </trkpt>
      <trkpt lat="45.12196" lon="4.59993">
        <ele>898.5</ele>
        <time>2014-04-21T09:19:34Z</time>
      </trkpt>
      <trkpt lat="45.12199" lon="4.59998">
        <ele>898</ele>
        <time>2014-04-21T09:19:35Z</time>
      </trkpt>
      <trkpt lat="45.12202" lon="4.60008">
        <ele>898.5</ele>
        <time>2014-04-21T09:19:37Z</time>
      </trkpt>
      <trkpt lat="45.12205" lon="4.60019">
        <ele>899.2</ele>
        <time>2014-04-21T09:19:39Z</time>
      </trkpt>
      <trkpt lat="45.12208" lon="4.60028">
        <ele>900.1</ele>
        <time>2014-04-21T09:19:41Z</time>
      </trkpt>
      <trkpt lat="45.12211" lon="4.60036">
        <ele>900.1</ele>
        <time>2014-04-21T09:19:43Z</time>
      </trkpt>
      <trkpt lat="45.12214" lon="4.60043">
        <ele>900.1</ele>
        <time>2014-04-21T09:19:45Z</time>
      </trkpt>
      <trkpt lat="45.12216" lon="4.60051">
        <ele>900.7</ele>
        <time>2014-04-21T09:19:47Z</time>
      </trkpt>
      <trkpt lat="45.1222" lon="4.60059">
        <ele>900.6</ele>
        <time>2014-04-21T09:19:49Z</time>
      </trkpt>
      <trkpt lat="45.12223" lon="4.60067">
        <ele>900.6</ele>
        <time>2014-04-21T09:19:51Z</time>
      </trkpt>
      <trkpt lat="45.12227" lon="4.60077">
        <ele>900.2</ele>
        <time>2014-04-21T09:19:53Z</time>
      </trkpt>
      <trkpt lat="45.12231" lon="4.60084">
        <ele>899.7</ele>
        <time>2014-04-21T09:19:55Z</time>
      </trkpt>
      <trkpt lat="45.12235" lon="4.6009">
        <ele>898.9</ele>
        <time>2014-04-21T09:19:57Z</time>
      </trkpt>
      <trkpt lat="45.12237" lon="4.60099">
        <ele>899.1</ele>
        <time>2014-04-21T09:19:59Z</time>
      </trkpt>
      <trkpt lat="45.12243" lon="4.60109">
        <ele>897.6</ele>
        <time>2014-04-21T09:20:01Z</time>
      </trkpt>
      <trkpt lat="45.12249" lon="4.60121">
        <ele>897</ele>
        <time>2014-04-21T09:20:03Z</time>
      </trkpt>
      <trkpt lat="45.12251" lon="4.60128">
        <ele>896.8</ele>
        <time>2014-04-21T09:20:04Z</time>
      </trkpt>
      <trkpt lat="45.12255" lon="4.60133">
        <ele>896.2</ele>
        <time>2014-04-21T09:20:05Z</time>
      </trkpt>
      <trkpt lat="45.1226" lon="4.60144">
        <ele>895.6</ele>
        <time>2014-04-21T09:20:07Z</time>
      </trkpt>
      <trkpt lat="45.12263" lon="4.6015">
        <ele>895.3</ele>
        <time>2014-04-21T09:20:08Z</time>
      </trkpt>
      <trkpt lat="45.12265" lon="4.60155">
        <ele>895</ele>
        <time>2014-04-21T09:20:09Z</time>
      </trkpt>
      <trkpt lat="45.12268" lon="4.60161">
        <ele>894.6</ele>
        <time>2014-04-21T09:20:10Z</time>
      </trkpt>
      <trkpt lat="45.12271" lon="4.60166">
        <ele>894.3</ele>
        <time>2014-04-21T09:20:11Z</time>
      </trkpt>
      <trkpt lat="45.12274" lon="4.6017">
        <ele>893.3</ele>
        <time>2014-04-21T09:20:12Z</time>
      </trkpt>
      <trkpt lat="45.12278" lon="4.60174">
        <ele>892.2</ele>
        <time>2014-04-21T09:20:13Z</time>
      </trkpt>
      <trkpt lat="45.12284" lon="4.60182">
        <ele>890.3</ele>
        <time>2014-04-21T09:20:15Z</time>
      </trkpt>
      <trkpt lat="45.12289" lon="4.60188">
        <ele>888.4</ele>
        <time>2014-04-21T09:20:17Z</time>
      </trkpt>
      <trkpt lat="45.12294" lon="4.60195">
        <ele>886.8</ele>
        <time>2014-04-21T09:20:19Z</time>
      </trkpt>
      <trkpt lat="45.12299" lon="4.60202">
        <ele>885.2</ele>
        <time>2014-04-21T09:20:21Z</time>
      </trkpt>
      <trkpt lat="45.12305" lon="4.60209">
        <ele>883.6</ele>
        <time>2014-04-21T09:20:23Z</time>
      </trkpt>
      <trkpt lat="45.12309" lon="4.60216">
        <ele>882.2</ele>
        <time>2014-04-21T09:20:25Z</time>
      </trkpt>
      <trkpt lat="45.12313" lon="4.60219">
        <ele>881</ele>
        <time>2014-04-21T09:20:26Z</time>
      </trkpt>
      <trkpt lat="45.12317" lon="4.60226">
        <ele>879.8</ele>
        <time>2014-04-21T09:20:28Z</time>
      </trkpt>
      <trkpt lat="45.12321" lon="4.60232">
        <ele>878.7</ele>
        <time>2014-04-21T09:20:31Z</time>
      </trkpt>
      <trkpt lat="45.12324" lon="4.60238">
        <ele>877.6</ele>
        <time>2014-04-21T09:20:33Z</time>
      </trkpt>
      <trkpt lat="45.12328" lon="4.60244">
        <ele>876.5</ele>
        <time>2014-04-21T09:20:35Z</time>
      </trkpt>
      <trkpt lat="45.12332" lon="4.60251">
        <ele>875.6</ele>
        <time>2014-04-21T09:20:37Z</time>
      </trkpt>
      <trkpt lat="45.12336" lon="4.6026">
        <ele>874.1</ele>
        <time>2014-04-21T09:20:39Z</time>
      </trkpt>
      <trkpt lat="45.12339" lon="4.60268">
        <ele>873.1</ele>
        <time>2014-04-21T09:20:41Z</time>
      </trkpt>
      <trkpt lat="45.12341" lon="4.60277">
        <ele>872.3</ele>
        <time>2014-04-21T09:20:43Z</time>
      </trkpt>
      <trkpt lat="45.12343" lon="4.60286">
        <ele>872</ele>
        <time>2014-04-21T09:20:45Z</time>
      </trkpt>
      <trkpt lat="45.12346" lon="4.60295">
        <ele>870.9</ele>
        <time>2014-04-21T09:20:47Z</time>
      </trkpt>
      <trkpt lat="45.12349" lon="4.60303">
        <ele>870</ele>
        <time>2014-04-21T09:20:49Z</time>
      </trkpt>
      <trkpt lat="45.12352" lon="4.60311">
        <ele>868.9</ele>
        <time>2014-04-21T09:20:51Z</time>
      </trkpt>
      <trkpt lat="45.12357" lon="4.60318">
        <ele>867.1</ele>
        <time>2014-04-21T09:20:53Z</time>
      </trkpt>
      <trkpt lat="45.12359" lon="4.60323">
        <ele>866</ele>
        <time>2014-04-21T09:20:54Z</time>
      </trkpt>
      <trkpt lat="45.12362" lon="4.60333">
        <ele>865.3</ele>
        <time>2014-04-21T09:20:56Z</time>
      </trkpt>
      <trkpt lat="45.12365" lon="4.60343">
        <ele>864.2</ele>
        <time>2014-04-21T09:20:58Z</time>
      </trkpt>
      <trkpt lat="45.12369" lon="4.60351">
        <ele>863.1</ele>
        <time>2014-04-21T09:21:00Z</time>
      </trkpt>
      <trkpt lat="45.12372" lon="4.60358">
        <ele>862.2</ele>
        <time>2014-04-21T09:21:02Z</time>
      </trkpt>
      <trkpt lat="45.12378" lon="4.60376">
        <ele>860.5</ele>
        <time>2014-04-21T09:21:06Z</time>
      </trkpt>
      <trkpt lat="45.12381" lon="4.60385">
        <ele>859.4</ele>
        <time>2014-04-21T09:21:08Z</time>
      </trkpt>
      <trkpt lat="45.12384" lon="4.60392">
        <ele>858.7</ele>
        <time>2014-04-21T09:21:10Z</time>
      </trkpt>
      <trkpt lat="45.12387" lon="4.604">
        <ele>857.7</ele>
        <time>2014-04-21T09:21:12Z</time>
      </trkpt>
      <trkpt lat="45.12391" lon="4.60408">
        <ele>856.7</ele>
        <time>2014-04-21T09:21:14Z</time>
      </trkpt>
      <trkpt lat="45.12394" lon="4.60416">
        <ele>855.9</ele>
        <time>2014-04-21T09:21:16Z</time>
      </trkpt>
      <trkpt lat="45.12398" lon="4.60426">
        <ele>856.1</ele>
        <time>2014-04-21T09:21:18Z</time>
      </trkpt>
      <trkpt lat="45.12401" lon="4.60431">
        <ele>856</ele>
        <time>2014-04-21T09:21:19Z</time>
      </trkpt>
      <trkpt lat="45.12404" lon="4.60437">
        <ele>855.8</ele>
        <time>2014-04-21T09:21:20Z</time>
      </trkpt>
      <trkpt lat="45.12407" lon="4.60441">
        <ele>855.6</ele>
        <time>2014-04-21T09:21:21Z</time>
      </trkpt>
      <trkpt lat="45.12413" lon="4.6045">
        <ele>855.3</ele>
        <time>2014-04-21T09:21:23Z</time>
      </trkpt>
      <trkpt lat="45.12418" lon="4.60456">
        <ele>854.9</ele>
        <time>2014-04-21T09:21:25Z</time>
      </trkpt>
      <trkpt lat="45.12424" lon="4.60462">
        <ele>854.7</ele>
        <time>2014-04-21T09:21:27Z</time>
      </trkpt>
      <trkpt lat="45.12428" lon="4.60468">
        <ele>855</ele>
        <time>2014-04-21T09:21:29Z</time>
      </trkpt>
      <trkpt lat="45.12432" lon="4.60472">
        <ele>854.7</ele>
        <time>2014-04-21T09:21:45Z</time>
      </trkpt>
      <trkpt lat="45.12436" lon="4.60476">
        <ele>854.6</ele>
        <time>2014-04-21T09:21:47Z</time>
      </trkpt>
      <trkpt lat="45.12441" lon="4.60482">
        <ele>855.2</ele>
        <time>2014-04-21T09:21:49Z</time>
      </trkpt>
      <trkpt lat="45.12446" lon="4.60489">
        <ele>855.6</ele>
        <time>2014-04-21T09:21:51Z</time>
      </trkpt>
      <trkpt lat="45.12453" lon="4.60495">
        <ele>855.7</ele>
        <time>2014-04-21T09:21:53Z</time>
      </trkpt>
      <trkpt lat="45.1246" lon="4.60499">
        <ele>855.1</ele>
        <time>2014-04-21T09:21:55Z</time>
      </trkpt>
      <trkpt lat="45.12467" lon="4.60503">
        <ele>854.7</ele>
        <time>2014-04-21T09:21:57Z</time>
      </trkpt>
      <trkpt lat="45.12473" lon="4.60506">
        <ele>853.9</ele>
        <time>2014-04-21T09:21:59Z</time>
      </trkpt>
      <trkpt lat="45.1248" lon="4.60509">
        <ele>853</ele>
        <time>2014-04-21T09:22:01Z</time>
      </trkpt>
      <trkpt lat="45.12489" lon="4.60512">
        <ele>852.1</ele>
        <time>2014-04-21T09:22:03Z</time>
      </trkpt>
      <trkpt lat="45.12502" lon="4.60518">
        <ele>850.3</ele>
        <time>2014-04-21T09:22:06Z</time>
      </trkpt>
      <trkpt lat="45.12506" lon="4.6052">
        <ele>849.5</ele>
        <time>2014-04-21T09:22:07Z</time>
      </trkpt>
      <trkpt lat="45.12511" lon="4.60523">
        <ele>848.5</ele>
        <time>2014-04-21T09:22:08Z</time>
      </trkpt>
      <trkpt lat="45.12517" lon="4.60526">
        <ele>847.7</ele>
        <time>2014-04-21T09:22:09Z</time>
      </trkpt>
      <trkpt lat="45.12523" lon="4.6053">
        <ele>846.5</ele>
        <time>2014-04-21T09:22:10Z</time>
      </trkpt>
      <trkpt lat="45.12529" lon="4.60533">
        <ele>845.5</ele>
        <time>2014-04-21T09:22:11Z</time>
      </trkpt>
      <trkpt lat="45.12535" lon="4.60537">
        <ele>844.4</ele>
        <time>2014-04-21T09:22:12Z</time>
      </trkpt>
      <trkpt lat="45.12541" lon="4.60542">
        <ele>843.6</ele>
        <time>2014-04-21T09:22:13Z</time>
      </trkpt>
      <trkpt lat="45.12548" lon="4.60546">
        <ele>842.5</ele>
        <time>2014-04-21T09:22:14Z</time>
      </trkpt>
      <trkpt lat="45.12554" lon="4.6055">
        <ele>841.4</ele>
        <time>2014-04-21T09:22:15Z</time>
      </trkpt>
      <trkpt lat="45.1256" lon="4.60554">
        <ele>840.2</ele>
        <time>2014-04-21T09:22:16Z</time>
      </trkpt>
      <trkpt lat="45.12567" lon="4.60559">
        <ele>839.3</ele>
        <time>2014-04-21T09:22:17Z</time>
      </trkpt>
      <trkpt lat="45.12573" lon="4.60563">
        <ele>838.2</ele>
        <time>2014-04-21T09:22:18Z</time>
      </trkpt>
      <trkpt lat="45.12578" lon="4.60567">
        <ele>837.3</ele>
        <time>2014-04-21T09:22:19Z</time>
      </trkpt>
      <trkpt lat="45.12584" lon="4.6057">
        <ele>836.4</ele>
        <time>2014-04-21T09:22:20Z</time>
      </trkpt>
      <trkpt lat="45.12589" lon="4.60573">
        <ele>836</ele>
        <time>2014-04-21T09:22:21Z</time>
      </trkpt>
      <trkpt lat="45.12594" lon="4.60576">
        <ele>835.6</ele>
        <time>2014-04-21T09:22:22Z</time>
      </trkpt>
      <trkpt lat="45.12599" lon="4.6058">
        <ele>835.6</ele>
        <time>2014-04-21T09:22:23Z</time>
      </trkpt>
      <trkpt lat="45.12604" lon="4.60584">
        <ele>835.6</ele>
        <time>2014-04-21T09:22:24Z</time>
      </trkpt>
      <trkpt lat="45.12609" lon="4.60587">
        <ele>834.9</ele>
        <time>2014-04-21T09:22:25Z</time>
      </trkpt>
      <trkpt lat="45.12615" lon="4.6059">
        <ele>834.5</ele>
        <time>2014-04-21T09:22:26Z</time>
      </trkpt>
      <trkpt lat="45.1262" lon="4.60597">
        <ele>834.7</ele>
        <time>2014-04-21T09:22:27Z</time>
      </trkpt>
      <trkpt lat="45.12625" lon="4.60603">
        <ele>834.6</ele>
        <time>2014-04-21T09:22:28Z</time>
      </trkpt>
      <trkpt lat="45.12629" lon="4.60608">
        <ele>834.8</ele>
        <time>2014-04-21T09:22:29Z</time>
      </trkpt>
      <trkpt lat="45.12633" lon="4.60613">
        <ele>834.5</ele>
        <time>2014-04-21T09:22:30Z</time>
      </trkpt>
      <trkpt lat="45.12638" lon="4.60619">
        <ele>834.8</ele>
        <time>2014-04-21T09:22:31Z</time>
      </trkpt>
      <trkpt lat="45.12642" lon="4.60624">
        <ele>834.7</ele>
        <time>2014-04-21T09:22:32Z</time>
      </trkpt>
      <trkpt lat="45.12647" lon="4.60629">
        <ele>834.2</ele>
        <time>2014-04-21T09:22:33Z</time>
      </trkpt>
      <trkpt lat="45.12652" lon="4.60635">
        <ele>834.2</ele>
        <time>2014-04-21T09:22:34Z</time>
      </trkpt>
      <trkpt lat="45.12657" lon="4.60641">
        <ele>834.1</ele>
        <time>2014-04-21T09:22:35Z</time>
      </trkpt>
      <trkpt lat="45.12661" lon="4.60647">
        <ele>834</ele>
        <time>2014-04-21T09:22:36Z</time>
      </trkpt>
      <trkpt lat="45.12666" lon="4.60654">
        <ele>833.9</ele>
        <time>2014-04-21T09:22:37Z</time>
      </trkpt>
      <trkpt lat="45.1267" lon="4.6066">
        <ele>835.4</ele>
        <time>2014-04-21T09:22:38Z</time>
      </trkpt>
      <trkpt lat="45.12674" lon="4.60668">
        <ele>837</ele>
        <time>2014-04-21T09:22:39Z</time>
      </trkpt>
      <trkpt lat="45.12677" lon="4.60675">
        <ele>838.4</ele>
        <time>2014-04-21T09:22:40Z</time>
      </trkpt>
      <trkpt lat="45.12679" lon="4.60684">
        <ele>839.9</ele>
        <time>2014-04-21T09:22:41Z</time>
      </trkpt>
      <trkpt lat="45.12682" lon="4.60693">
        <ele>841.4</ele>
        <time>2014-04-21T09:22:42Z</time>
      </trkpt>
      <trkpt lat="45.12686" lon="4.607">
        <ele>842.6</ele>
        <time>2014-04-21T09:22:43Z</time>
      </trkpt>
      <trkpt lat="45.12691" lon="4.60706">
        <ele>843.8</ele>
        <time>2014-04-21T09:22:44Z</time>
      </trkpt>
      <trkpt lat="45.12695" lon="4.60711">
        <ele>844.9</ele>
        <time>2014-04-21T09:22:45Z</time>
      </trkpt>
      <trkpt lat="45.127" lon="4.60715">
        <ele>845.7</ele>
        <time>2014-04-21T09:22:46Z</time>
      </trkpt>
      <trkpt lat="45.12705" lon="4.60719">
        <ele>846.5</ele>
        <time>2014-04-21T09:22:47Z</time>
      </trkpt>
      <trkpt lat="45.1271" lon="4.60723">
        <ele>847.2</ele>
        <time>2014-04-21T09:22:48Z</time>
      </trkpt>
      <trkpt lat="45.12715" lon="4.60727">
        <ele>847.9</ele>
        <time>2014-04-21T09:22:49Z</time>
      </trkpt>
      <trkpt lat="45.12721" lon="4.60731">
        <ele>848.5</ele>
        <time>2014-04-21T09:22:50Z</time>
      </trkpt>
      <trkpt lat="45.12726" lon="4.60735">
        <ele>849.1</ele>
        <time>2014-04-21T09:22:51Z</time>
      </trkpt>
      <trkpt lat="45.12731" lon="4.60739">
        <ele>849.6</ele>
        <time>2014-04-21T09:22:52Z</time>
      </trkpt>
      <trkpt lat="45.12737" lon="4.60742">
        <ele>850</ele>
        <time>2014-04-21T09:22:53Z</time>
      </trkpt>
      <trkpt lat="45.12743" lon="4.60745">
        <ele>850.5</ele>
        <time>2014-04-21T09:22:54Z</time>
      </trkpt>
      <trkpt lat="45.12749" lon="4.60748">
        <ele>850.9</ele>
        <time>2014-04-21T09:22:55Z</time>
      </trkpt>
      <trkpt lat="45.12756" lon="4.6075">
        <ele>851.2</ele>
        <time>2014-04-21T09:22:56Z</time>
      </trkpt>
      <trkpt lat="45.12762" lon="4.60751">
        <ele>851.4</ele>
        <time>2014-04-21T09:22:57Z</time>
      </trkpt>
      <trkpt lat="45.12767" lon="4.60752">
        <ele>851.5</ele>
        <time>2014-04-21T09:22:58Z</time>
      </trkpt>
      <trkpt lat="45.12773" lon="4.60753">
        <ele>851.6</ele>
        <time>2014-04-21T09:22:59Z</time>
      </trkpt>
      <trkpt lat="45.12778" lon="4.60754">
        <ele>851.7</ele>
        <time>2014-04-21T09:23:00Z</time>
      </trkpt>
      <trkpt lat="45.12784" lon="4.60755">
        <ele>851.8</ele>
        <time>2014-04-21T09:23:01Z</time>
      </trkpt>
      <trkpt lat="45.12789" lon="4.60756">
        <ele>852</ele>
        <time>2014-04-21T09:23:02Z</time>
      </trkpt>
      <trkpt lat="45.12794" lon="4.60758">
        <ele>851.9</ele>
        <time>2014-04-21T09:23:03Z</time>
      </trkpt>
      <trkpt lat="45.12798" lon="4.6076">
        <ele>851.9</ele>
        <time>2014-04-21T09:23:04Z</time>
      </trkpt>
      <trkpt lat="45.1281" lon="4.60772">
        <ele>851.1</ele>
        <time>2014-04-21T09:23:08Z</time>
      </trkpt>
      <trkpt lat="45.12815" lon="4.60781">
        <ele>850.4</ele>
        <time>2014-04-21T09:23:10Z</time>
      </trkpt>
      <trkpt lat="45.12817" lon="4.60787">
        <ele>849.8</ele>
        <time>2014-04-21T09:23:11Z</time>
      </trkpt>
      <trkpt lat="45.12821" lon="4.60792">
        <ele>849.3</ele>
        <time>2014-04-21T09:23:12Z</time>
      </trkpt>
      <trkpt lat="45.12825" lon="4.60798">
        <ele>848.7</ele>
        <time>2014-04-21T09:23:13Z</time>
      </trkpt>
      <trkpt lat="45.12828" lon="4.60804">
        <ele>848.2</ele>
        <time>2014-04-21T09:23:14Z</time>
      </trkpt>
      <trkpt lat="45.12832" lon="4.6081">
        <ele>847.5</ele>
        <time>2014-04-21T09:23:15Z</time>
      </trkpt>
      <trkpt lat="45.12836" lon="4.60816">
        <ele>847.6</ele>
        <time>2014-04-21T09:23:16Z</time>
      </trkpt>
      <trkpt lat="45.12841" lon="4.60823">
        <ele>847.8</ele>
        <time>2014-04-21T09:23:17Z</time>
      </trkpt>
      <trkpt lat="45.12845" lon="4.60829">
        <ele>848.1</ele>
        <time>2014-04-21T09:23:18Z</time>
      </trkpt>
      <trkpt lat="45.1285" lon="4.60837">
        <ele>848.6</ele>
        <time>2014-04-21T09:23:19Z</time>
      </trkpt>
      <trkpt lat="45.12856" lon="4.60843">
        <ele>849.3</ele>
        <time>2014-04-21T09:23:20Z</time>
      </trkpt>
      <trkpt lat="45.12861" lon="4.6085">
        <ele>849.8</ele>
        <time>2014-04-21T09:23:21Z</time>
      </trkpt>
      <trkpt lat="45.12866" lon="4.60857">
        <ele>850.4</ele>
        <time>2014-04-21T09:23:22Z</time>
      </trkpt>
      <trkpt lat="45.12871" lon="4.60863">
        <ele>850.9</ele>
        <time>2014-04-21T09:23:23Z</time>
      </trkpt>
      <trkpt lat="45.12876" lon="4.6087">
        <ele>851.4</ele>
        <time>2014-04-21T09:23:24Z</time>
      </trkpt>
      <trkpt lat="45.12881" lon="4.60876">
        <ele>852</ele>
        <time>2014-04-21T09:23:25Z</time>
      </trkpt>
      <trkpt lat="45.12885" lon="4.60883">
        <ele>852.4</ele>
        <time>2014-04-21T09:23:26Z</time>
      </trkpt>
      <trkpt lat="45.12889" lon="4.60889">
        <ele>852.6</ele>
        <time>2014-04-21T09:23:27Z</time>
      </trkpt>
      <trkpt lat="45.12893" lon="4.60897">
        <ele>852.9</ele>
        <time>2014-04-21T09:23:28Z</time>
      </trkpt>
      <trkpt lat="45.12898" lon="4.60906">
        <ele>853</ele>
        <time>2014-04-21T09:23:29Z</time>
      </trkpt>
      <trkpt lat="45.12902" lon="4.60914">
        <ele>853.1</ele>
        <time>2014-04-21T09:23:30Z</time>
      </trkpt>
      <trkpt lat="45.12907" lon="4.60923">
        <ele>853.1</ele>
        <time>2014-04-21T09:23:31Z</time>
      </trkpt>
      <trkpt lat="45.12911" lon="4.60932">
        <ele>852.6</ele>
        <time>2014-04-21T09:23:32Z</time>
      </trkpt>
      <trkpt lat="45.12914" lon="4.60942">
        <ele>851.9</ele>
        <time>2014-04-21T09:23:33Z</time>
      </trkpt>
      <trkpt lat="45.12917" lon="4.60953">
        <ele>850.8</ele>
        <time>2014-04-21T09:23:34Z</time>
      </trkpt>
      <trkpt lat="45.12919" lon="4.60964">
        <ele>849.8</ele>
        <time>2014-04-21T09:23:35Z</time>
      </trkpt>
      <trkpt lat="45.12922" lon="4.60974">
        <ele>849</ele>
        <time>2014-04-21T09:23:36Z</time>
      </trkpt>
      <trkpt lat="45.12925" lon="4.60984">
        <ele>848.5</ele>
        <time>2014-04-21T09:23:37Z</time>
      </trkpt>
      <trkpt lat="45.12929" lon="4.60992">
        <ele>848.2</ele>
        <time>2014-04-21T09:23:38Z</time>
      </trkpt>
      <trkpt lat="45.12933" lon="4.61">
        <ele>848.5</ele>
        <time>2014-04-21T09:23:39Z</time>
      </trkpt>
      <trkpt lat="45.12939" lon="4.61006">
        <ele>849.3</ele>
        <time>2014-04-21T09:23:40Z</time>
      </trkpt>
      <trkpt lat="45.12945" lon="4.61011">
        <ele>850.3</ele>
        <time>2014-04-21T09:23:41Z</time>
      </trkpt>
      <trkpt lat="45.12951" lon="4.61015">
        <ele>851.5</ele>
        <time>2014-04-21T09:23:42Z</time>
      </trkpt>
      <trkpt lat="45.12957" lon="4.61018">
        <ele>852.8</ele>
        <time>2014-04-21T09:23:43Z</time>
      </trkpt>
      <trkpt lat="45.12962" lon="4.61021">
        <ele>854</ele>
        <time>2014-04-21T09:23:44Z</time>
      </trkpt>
      <trkpt lat="45.12968" lon="4.61026">
        <ele>854.9</ele>
        <time>2014-04-21T09:23:45Z</time>
      </trkpt>
      <trkpt lat="45.12971" lon="4.61033">
        <ele>855.2</ele>
        <time>2014-04-21T09:23:46Z</time>
      </trkpt>
      <trkpt lat="45.12972" lon="4.61041">
        <ele>854.6</ele>
        <time>2014-04-21T09:23:47Z</time>
      </trkpt>
      <trkpt lat="45.12972" lon="4.61048">
        <ele>853.8</ele>
        <time>2014-04-21T09:23:48Z</time>
      </trkpt>
      <trkpt lat="45.1297" lon="4.61054">
        <ele>852.8</ele>
        <time>2014-04-21T09:23:49Z</time>
      </trkpt>
      <trkpt lat="45.12968" lon="4.61066">
        <ele>851</ele>
        <time>2014-04-21T09:23:51Z</time>
      </trkpt>
      <trkpt lat="45.12968" lon="4.61073">
        <ele>850.2</ele>
        <time>2014-04-21T09:23:52Z</time>
      </trkpt>
      <trkpt lat="45.12968" lon="4.61082">
        <ele>849.1</ele>
        <time>2014-04-21T09:23:53Z</time>
      </trkpt>
      <trkpt lat="45.12968" lon="4.6109">
        <ele>848.3</ele>
        <time>2014-04-21T09:23:54Z</time>
      </trkpt>
      <trkpt lat="45.12969" lon="4.61099">
        <ele>847.5</ele>
        <time>2014-04-21T09:23:55Z</time>
      </trkpt>
      <trkpt lat="45.1297" lon="4.61108">
        <ele>846.7</ele>
        <time>2014-04-21T09:23:56Z</time>
      </trkpt>
      <trkpt lat="45.12972" lon="4.61116">
        <ele>846.1</ele>
        <time>2014-04-21T09:23:57Z</time>
      </trkpt>
      <trkpt lat="45.12974" lon="4.61124">
        <ele>845.6</ele>
        <time>2014-04-21T09:23:58Z</time>
      </trkpt>
      <trkpt lat="45.12977" lon="4.61133">
        <ele>845.3</ele>
        <time>2014-04-21T09:23:59Z</time>
      </trkpt>
      <trkpt lat="45.12981" lon="4.61144">
        <ele>845</ele>
        <time>2014-04-21T09:24:00Z</time>
      </trkpt>
      <trkpt lat="45.12985" lon="4.61154">
        <ele>844.8</ele>
        <time>2014-04-21T09:24:01Z</time>
      </trkpt>
      <trkpt lat="45.12988" lon="4.61163">
        <ele>844.4</ele>
        <time>2014-04-21T09:24:02Z</time>
      </trkpt>
      <trkpt lat="45.12992" lon="4.61172">
        <ele>844.2</ele>
        <time>2014-04-21T09:24:03Z</time>
      </trkpt>
      <trkpt lat="45.12996" lon="4.6118">
        <ele>844</ele>
        <time>2014-04-21T09:24:04Z</time>
      </trkpt>
      <trkpt lat="45.12999" lon="4.61188">
        <ele>843.8</ele>
        <time>2014-04-21T09:24:05Z</time>
      </trkpt>
      <trkpt lat="45.13005" lon="4.61207">
        <ele>840.9</ele>
        <time>2014-04-21T09:24:07Z</time>
      </trkpt>
      <trkpt lat="45.13007" lon="4.61218">
        <ele>839.2</ele>
        <time>2014-04-21T09:24:08Z</time>
      </trkpt>
      <trkpt lat="45.13009" lon="4.61227">
        <ele>837.8</ele>
        <time>2014-04-21T09:24:09Z</time>
      </trkpt>
      <trkpt lat="45.13011" lon="4.61236">
        <ele>836.2</ele>
        <time>2014-04-21T09:24:10Z</time>
      </trkpt>
      <trkpt lat="45.13013" lon="4.61245">
        <ele>834.7</ele>
        <time>2014-04-21T09:24:11Z</time>
      </trkpt>
      <trkpt lat="45.13015" lon="4.61255">
        <ele>833.1</ele>
        <time>2014-04-21T09:24:12Z</time>
      </trkpt>
      <trkpt lat="45.13019" lon="4.61265">
        <ele>831.2</ele>
        <time>2014-04-21T09:24:13Z</time>
      </trkpt>
      <trkpt lat="45.13021" lon="4.61275">
        <ele>829.3</ele>
        <time>2014-04-21T09:24:14Z</time>
      </trkpt>
      <trkpt lat="45.13024" lon="4.61286">
        <ele>827.3</ele>
        <time>2014-04-21T09:24:15Z</time>
      </trkpt>
      <trkpt lat="45.13027" lon="4.61297">
        <ele>825.2</ele>
        <time>2014-04-21T09:24:16Z</time>
      </trkpt>
      <trkpt lat="45.13032" lon="4.61307">
        <ele>823.4</ele>
        <time>2014-04-21T09:24:17Z</time>
      </trkpt>
      <trkpt lat="45.13036" lon="4.61318">
        <ele>821.1</ele>
        <time>2014-04-21T09:24:18Z</time>
      </trkpt>
      <trkpt lat="45.1304" lon="4.61327">
        <ele>819.2</ele>
        <time>2014-04-21T09:24:19Z</time>
      </trkpt>
      <trkpt lat="45.13045" lon="4.61336">
        <ele>817.4</ele>
        <time>2014-04-21T09:24:20Z</time>
      </trkpt>
      <trkpt lat="45.13049" lon="4.61345">
        <ele>816.2</ele>
        <time>2014-04-21T09:24:21Z</time>
      </trkpt>
      <trkpt lat="45.13053" lon="4.61354">
        <ele>815.2</ele>
        <time>2014-04-21T09:24:22Z</time>
      </trkpt>
      <trkpt lat="45.13058" lon="4.61362">
        <ele>814.1</ele>
        <time>2014-04-21T09:24:23Z</time>
      </trkpt>
      <trkpt lat="45.13062" lon="4.61369">
        <ele>813.4</ele>
        <time>2014-04-21T09:24:24Z</time>
      </trkpt>
      <trkpt lat="45.13066" lon="4.61377">
        <ele>812.6</ele>
        <time>2014-04-21T09:24:25Z</time>
      </trkpt>
      <trkpt lat="45.13069" lon="4.61384">
        <ele>812.1</ele>
        <time>2014-04-21T09:24:26Z</time>
      </trkpt>
      <trkpt lat="45.13072" lon="4.61391">
        <ele>811.5</ele>
        <time>2014-04-21T09:24:27Z</time>
      </trkpt>
      <trkpt lat="45.13075" lon="4.61398">
        <ele>811</ele>
        <time>2014-04-21T09:24:28Z</time>
      </trkpt>
      <trkpt lat="45.13078" lon="4.61406">
        <ele>810.6</ele>
        <time>2014-04-21T09:24:29Z</time>
      </trkpt>
      <trkpt lat="45.13081" lon="4.61413">
        <ele>810.2</ele>
        <time>2014-04-21T09:24:30Z</time>
      </trkpt>
      <trkpt lat="45.13084" lon="4.6142">
        <ele>809.4</ele>
        <time>2014-04-21T09:24:31Z</time>
      </trkpt>
      <trkpt lat="45.13087" lon="4.61432">
        <ele>807.7</ele>
        <time>2014-04-21T09:24:33Z</time>
      </trkpt>
      <trkpt lat="45.13089" lon="4.61438">
        <ele>806.6</ele>
        <time>2014-04-21T09:24:34Z</time>
      </trkpt>
      <trkpt lat="45.13091" lon="4.61444">
        <ele>805.5</ele>
        <time>2014-04-21T09:24:35Z</time>
      </trkpt>
      <trkpt lat="45.13093" lon="4.6145">
        <ele>804.4</ele>
        <time>2014-04-21T09:24:36Z</time>
      </trkpt>
      <trkpt lat="45.13096" lon="4.61455">
        <ele>803.3</ele>
        <time>2014-04-21T09:24:37Z</time>
      </trkpt>
      <trkpt lat="45.13099" lon="4.61462">
        <ele>802.4</ele>
        <time>2014-04-21T09:24:38Z</time>
      </trkpt>
      <trkpt lat="45.13102" lon="4.61467">
        <ele>801.3</ele>
        <time>2014-04-21T09:24:39Z</time>
      </trkpt>
      <trkpt lat="45.13105" lon="4.61472">
        <ele>800.5</ele>
        <time>2014-04-21T09:24:40Z</time>
      </trkpt>
      <trkpt lat="45.13112" lon="4.61481">
        <ele>799</ele>
        <time>2014-04-21T09:24:42Z</time>
      </trkpt>
      <trkpt lat="45.13116" lon="4.61484">
        <ele>798.1</ele>
        <time>2014-04-21T09:24:43Z</time>
      </trkpt>
      <trkpt lat="45.1312" lon="4.61489">
        <ele>797.4</ele>
        <time>2014-04-21T09:24:44Z</time>
      </trkpt>
      <trkpt lat="45.13125" lon="4.61494">
        <ele>796.8</ele>
        <time>2014-04-21T09:24:45Z</time>
      </trkpt>
      <trkpt lat="45.1313" lon="4.61498">
        <ele>796.2</ele>
        <time>2014-04-21T09:24:46Z</time>
      </trkpt>
      <trkpt lat="45.13134" lon="4.61504">
        <ele>795.7</ele>
        <time>2014-04-21T09:24:47Z</time>
      </trkpt>
      <trkpt lat="45.13139" lon="4.61509">
        <ele>795.2</ele>
        <time>2014-04-21T09:24:48Z</time>
      </trkpt>
      <trkpt lat="45.13144" lon="4.61514">
        <ele>794.8</ele>
        <time>2014-04-21T09:24:49Z</time>
      </trkpt>
      <trkpt lat="45.1315" lon="4.61519">
        <ele>794.3</ele>
        <time>2014-04-21T09:24:50Z</time>
      </trkpt>
      <trkpt lat="45.13157" lon="4.61524">
        <ele>794</ele>
        <time>2014-04-21T09:24:51Z</time>
      </trkpt>
      <trkpt lat="45.13164" lon="4.6153">
        <ele>794</ele>
        <time>2014-04-21T09:24:52Z</time>
      </trkpt>
      <trkpt lat="45.13171" lon="4.61536">
        <ele>794.1</ele>
        <time>2014-04-21T09:24:53Z</time>
      </trkpt>
      <trkpt lat="45.13176" lon="4.61543">
        <ele>794.3</ele>
        <time>2014-04-21T09:24:54Z</time>
      </trkpt>
      <trkpt lat="45.13182" lon="4.61551">
        <ele>794.7</ele>
        <time>2014-04-21T09:24:55Z</time>
      </trkpt>
      <trkpt lat="45.13186" lon="4.61558">
        <ele>795.4</ele>
        <time>2014-04-21T09:24:56Z</time>
      </trkpt>
      <trkpt lat="45.13191" lon="4.61566">
        <ele>796.2</ele>
        <time>2014-04-21T09:24:57Z</time>
      </trkpt>
      <trkpt lat="45.13194" lon="4.61575">
        <ele>797.4</ele>
        <time>2014-04-21T09:24:58Z</time>
      </trkpt>
      <trkpt lat="45.13196" lon="4.61584">
        <ele>798.6</ele>
        <time>2014-04-21T09:24:59Z</time>
      </trkpt>
      <trkpt lat="45.13197" lon="4.61593">
        <ele>799</ele>
        <time>2014-04-21T09:25:00Z</time>
      </trkpt>
      <trkpt lat="45.13197" lon="4.61601">
        <ele>799.4</ele>
        <time>2014-04-21T09:25:01Z</time>
      </trkpt>
      <trkpt lat="45.13198" lon="4.6161">
        <ele>799.8</ele>
        <time>2014-04-21T09:25:02Z</time>
      </trkpt>
      <trkpt lat="45.13201" lon="4.61618">
        <ele>800.3</ele>
        <time>2014-04-21T09:25:03Z</time>
      </trkpt>
      <trkpt lat="45.13205" lon="4.61625">
        <ele>800.9</ele>
        <time>2014-04-21T09:25:04Z</time>
      </trkpt>
      <trkpt lat="45.13209" lon="4.6163">
        <ele>801.7</ele>
        <time>2014-04-21T09:25:05Z</time>
      </trkpt>
      <trkpt lat="45.13213" lon="4.61636">
        <ele>802.4</ele>
        <time>2014-04-21T09:25:06Z</time>
      </trkpt>
      <trkpt lat="45.13221" lon="4.61647">
        <ele>804.3</ele>
        <time>2014-04-21T09:25:08Z</time>
      </trkpt>
      <trkpt lat="45.13226" lon="4.61652">
        <ele>805.4</ele>
        <time>2014-04-21T09:25:09Z</time>
      </trkpt>
      <trkpt lat="45.1323" lon="4.61657">
        <ele>806.5</ele>
        <time>2014-04-21T09:25:10Z</time>
      </trkpt>
      <trkpt lat="45.13234" lon="4.61661">
        <ele>807.6</ele>
        <time>2014-04-21T09:25:11Z</time>
      </trkpt>
      <trkpt lat="45.13238" lon="4.61665">
        <ele>808.6</ele>
        <time>2014-04-21T09:25:12Z</time>
      </trkpt>
      <trkpt lat="45.13242" lon="4.61667">
        <ele>809.7</ele>
        <time>2014-04-21T09:25:13Z</time>
      </trkpt>
      <trkpt lat="45.13249" lon="4.61673">
        <ele>810.1</ele>
        <time>2014-04-21T09:25:15Z</time>
      </trkpt>
      <trkpt lat="45.13255" lon="4.6168">
        <ele>809.4</ele>
        <time>2014-04-21T09:25:17Z</time>
      </trkpt>
      <trkpt lat="45.13262" lon="4.61685">
        <ele>808.7</ele>
        <time>2014-04-21T09:25:19Z</time>
      </trkpt>
      <trkpt lat="45.13268" lon="4.61691">
        <ele>808.2</ele>
        <time>2014-04-21T09:25:21Z</time>
      </trkpt>
      <trkpt lat="45.13274" lon="4.61697">
        <ele>807.9</ele>
        <time>2014-04-21T09:25:23Z</time>
      </trkpt>
      <trkpt lat="45.1328" lon="4.61703">
        <ele>807.7</ele>
        <time>2014-04-21T09:25:25Z</time>
      </trkpt>
      <trkpt lat="45.13285" lon="4.61709">
        <ele>807.8</ele>
        <time>2014-04-21T09:25:27Z</time>
      </trkpt>
      <trkpt lat="45.13291" lon="4.61715">
        <ele>807.9</ele>
        <time>2014-04-21T09:25:29Z</time>
      </trkpt>
      <trkpt lat="45.13297" lon="4.61721">
        <ele>808.3</ele>
        <time>2014-04-21T09:25:31Z</time>
      </trkpt>
      <trkpt lat="45.13303" lon="4.61728">
        <ele>809</ele>
        <time>2014-04-21T09:25:33Z</time>
      </trkpt>
      <trkpt lat="45.13308" lon="4.61735">
        <ele>809.7</ele>
        <time>2014-04-21T09:25:35Z</time>
      </trkpt>
      <trkpt lat="45.13313" lon="4.61741">
        <ele>810.5</ele>
        <time>2014-04-21T09:25:37Z</time>
      </trkpt>
      <trkpt lat="45.13318" lon="4.61747">
        <ele>811.6</ele>
        <time>2014-04-21T09:25:39Z</time>
      </trkpt>
      <trkpt lat="45.13324" lon="4.61753">
        <ele>812.3</ele>
        <time>2014-04-21T09:25:41Z</time>
      </trkpt>
      <trkpt lat="45.13329" lon="4.6176">
        <ele>812.3</ele>
        <time>2014-04-21T09:25:43Z</time>
      </trkpt>
      <trkpt lat="45.13333" lon="4.61766">
        <ele>812.3</ele>
        <time>2014-04-21T09:25:45Z</time>
      </trkpt>
      <trkpt lat="45.13338" lon="4.61772">
        <ele>811.5</ele>
        <time>2014-04-21T09:25:47Z</time>
      </trkpt>
      <trkpt lat="45.13344" lon="4.61778">
        <ele>810.6</ele>
        <time>2014-04-21T09:25:49Z</time>
      </trkpt>
      <trkpt lat="45.1335" lon="4.61784">
        <ele>809.9</ele>
        <time>2014-04-21T09:25:51Z</time>
      </trkpt>
      <trkpt lat="45.13355" lon="4.61789">
        <ele>809.5</ele>
        <time>2014-04-21T09:25:53Z</time>
      </trkpt>
      <trkpt lat="45.13361" lon="4.61794">
        <ele>809.1</ele>
        <time>2014-04-21T09:25:55Z</time>
      </trkpt>
      <trkpt lat="45.13367" lon="4.61798">
        <ele>808.9</ele>
        <time>2014-04-21T09:25:57Z</time>
      </trkpt>
      <trkpt lat="45.13373" lon="4.61802">
        <ele>808.9</ele>
        <time>2014-04-21T09:25:59Z</time>
      </trkpt>
      <trkpt lat="45.13379" lon="4.61807">
        <ele>808.9</ele>
        <time>2014-04-21T09:26:01Z</time>
      </trkpt>
      <trkpt lat="45.13384" lon="4.61812">
        <ele>809.1</ele>
        <time>2014-04-21T09:26:03Z</time>
      </trkpt>
      <trkpt lat="45.13392" lon="4.61816">
        <ele>809.4</ele>
        <time>2014-04-21T09:26:05Z</time>
      </trkpt>
      <trkpt lat="45.13398" lon="4.6182">
        <ele>809.8</ele>
        <time>2014-04-21T09:26:07Z</time>
      </trkpt>
      <trkpt lat="45.13409" lon="4.61828">
        <ele>811</ele>
        <time>2014-04-21T09:26:11Z</time>
      </trkpt>
      <trkpt lat="45.13416" lon="4.61831">
        <ele>811.7</ele>
        <time>2014-04-21T09:26:13Z</time>
      </trkpt>
      <trkpt lat="45.13422" lon="4.61834">
        <ele>811.5</ele>
        <time>2014-04-21T09:26:15Z</time>
      </trkpt>
      <trkpt lat="45.13428" lon="4.61836">
        <ele>810.8</ele>
        <time>2014-04-21T09:26:17Z</time>
      </trkpt>
      <trkpt lat="45.13434" lon="4.61838">
        <ele>810.3</ele>
        <time>2014-04-21T09:26:19Z</time>
      </trkpt>
      <trkpt lat="45.1344" lon="4.61841">
        <ele>809.8</ele>
        <time>2014-04-21T09:26:21Z</time>
      </trkpt>
      <trkpt lat="45.13445" lon="4.61844">
        <ele>809.3</ele>
        <time>2014-04-21T09:26:23Z</time>
      </trkpt>
      <trkpt lat="45.13449" lon="4.61847">
        <ele>809</ele>
        <time>2014-04-21T09:26:25Z</time>
      </trkpt>
      <trkpt lat="45.13454" lon="4.61849">
        <ele>808.7</ele>
        <time>2014-04-21T09:26:27Z</time>
      </trkpt>
      <trkpt lat="45.13459" lon="4.6185">
        <ele>808.5</ele>
        <time>2014-04-21T09:26:29Z</time>
      </trkpt>
      <trkpt lat="45.13463" lon="4.61852">
        <ele>808.3</ele>
        <time>2014-04-21T09:26:31Z</time>
      </trkpt>
      <trkpt lat="45.13468" lon="4.61855">
        <ele>808.2</ele>
        <time>2014-04-21T09:26:33Z</time>
      </trkpt>
      <trkpt lat="45.13473" lon="4.61858">
        <ele>808.1</ele>
        <time>2014-04-21T09:26:35Z</time>
      </trkpt>
      <trkpt lat="45.13478" lon="4.61862">
        <ele>808.1</ele>
        <time>2014-04-21T09:26:37Z</time>
      </trkpt>
      <trkpt lat="45.13484" lon="4.61865">
        <ele>808.2</ele>
        <time>2014-04-21T09:26:40Z</time>
      </trkpt>
      <trkpt lat="45.13489" lon="4.61868">
        <ele>808.3</ele>
        <time>2014-04-21T09:26:42Z</time>
      </trkpt>
      <trkpt lat="45.13493" lon="4.61871">
        <ele>808.5</ele>
        <time>2014-04-21T09:26:44Z</time>
      </trkpt>
      <trkpt lat="45.13497" lon="4.61875">
        <ele>808.8</ele>
        <time>2014-04-21T09:26:46Z</time>
      </trkpt>
      <trkpt lat="45.13501" lon="4.61878">
        <ele>809.2</ele>
        <time>2014-04-21T09:26:48Z</time>
      </trkpt>
      <trkpt lat="45.13507" lon="4.61883">
        <ele>809.3</ele>
        <time>2014-04-21T09:26:51Z</time>
      </trkpt>
      <trkpt lat="45.13513" lon="4.61887">
        <ele>809.2</ele>
        <time>2014-04-21T09:26:54Z</time>
      </trkpt>
      <trkpt lat="45.13518" lon="4.61893">
        <ele>809.4</ele>
        <time>2014-04-21T09:26:57Z</time>
      </trkpt>
      <trkpt lat="45.13522" lon="4.61896">
        <ele>809.5</ele>
        <time>2014-04-21T09:26:59Z</time>
      </trkpt>
      <trkpt lat="45.13526" lon="4.619">
        <ele>809.7</ele>
        <time>2014-04-21T09:27:01Z</time>
      </trkpt>
      <trkpt lat="45.13531" lon="4.61905">
        <ele>810.1</ele>
        <time>2014-04-21T09:27:04Z</time>
      </trkpt>
      <trkpt lat="45.13536" lon="4.61911">
        <ele>810.5</ele>
        <time>2014-04-21T09:27:07Z</time>
      </trkpt>
      <trkpt lat="45.13541" lon="4.61916">
        <ele>810.9</ele>
        <time>2014-04-21T09:27:10Z</time>
      </trkpt>
      <trkpt lat="45.1355" lon="4.61928">
        <ele>811.5</ele>
        <time>2014-04-21T09:27:16Z</time>
      </trkpt>
      <trkpt lat="45.13554" lon="4.61935">
        <ele>811.9</ele>
        <time>2014-04-21T09:27:19Z</time>
      </trkpt>
      <trkpt lat="45.13559" lon="4.61941">
        <ele>812.4</ele>
        <time>2014-04-21T09:27:22Z</time>
      </trkpt>
      <trkpt lat="45.13563" lon="4.61948">
        <ele>813.1</ele>
        <time>2014-04-21T09:27:25Z</time>
      </trkpt>
      <trkpt lat="45.13568" lon="4.61954">
        <ele>813.7</ele>
        <time>2014-04-21T09:27:28Z</time>
      </trkpt>
      <trkpt lat="45.13572" lon="4.6196">
        <ele>814.5</ele>
        <time>2014-04-21T09:27:31Z</time>
      </trkpt>
      <trkpt lat="45.13576" lon="4.61966">
        <ele>815.4</ele>
        <time>2014-04-21T09:27:34Z</time>
      </trkpt>
      <trkpt lat="45.13579" lon="4.61973">
        <ele>816.3</ele>
        <time>2014-04-21T09:27:37Z</time>
      </trkpt>
      <trkpt lat="45.13583" lon="4.61979">
        <ele>817.2</ele>
        <time>2014-04-21T09:27:40Z</time>
      </trkpt>
      <trkpt lat="45.13587" lon="4.61982">
        <ele>817.3</ele>
        <time>2014-04-21T09:27:43Z</time>
      </trkpt>
      <trkpt lat="45.13588" lon="4.61975">
        <ele>816.4</ele>
        <time>2014-04-21T09:27:47Z</time>
      </trkpt>
      <trkpt lat="45.13588" lon="4.61969">
        <ele>815.5</ele>
        <time>2014-04-21T09:27:50Z</time>
      </trkpt>
      <trkpt lat="45.13588" lon="4.61962">
        <ele>814.5</ele>
        <time>2014-04-21T09:27:53Z</time>
      </trkpt>
      <trkpt lat="45.13587" lon="4.61956">
        <ele>813.7</ele>
        <time>2014-04-21T09:27:56Z</time>
      </trkpt>
      <trkpt lat="45.13585" lon="4.61949">
        <ele>813</ele>
        <time>2014-04-21T09:27:59Z</time>
      </trkpt>
      <trkpt lat="45.13583" lon="4.61943">
        <ele>812.4</ele>
        <time>2014-04-21T09:28:02Z</time>
      </trkpt>
      <trkpt lat="45.13579" lon="4.61937">
        <ele>811.8</ele>
        <time>2014-04-21T09:28:06Z</time>
      </trkpt>
      <trkpt lat="45.13583" lon="4.61941">
        <ele>812.1</ele>
        <time>2014-04-21T09:44:38Z</time>
      </trkpt>
      <trkpt lat="45.13587" lon="4.61955">
        <ele>813.6</ele>
        <time>2014-04-21T09:44:45Z</time>
      </trkpt>
      <trkpt lat="45.13592" lon="4.61957">
        <ele>813.6</ele>
        <time>2014-04-21T09:44:49Z</time>
      </trkpt>
      <trkpt lat="45.13595" lon="4.6195">
        <ele>812.4</ele>
        <time>2014-04-21T09:44:52Z</time>
      </trkpt>
      <trkpt lat="45.13597" lon="4.61941">
        <ele>810.9</ele>
        <time>2014-04-21T09:44:55Z</time>
      </trkpt>
      <trkpt lat="45.13599" lon="4.61935">
        <ele>810</ele>
        <time>2014-04-21T09:44:57Z</time>
      </trkpt>
      <trkpt lat="45.13603" lon="4.61929">
        <ele>808.7</ele>
        <time>2014-04-21T09:45:00Z</time>
      </trkpt>
      <trkpt lat="45.13608" lon="4.61921">
        <ele>807.2</ele>
        <time>2014-04-21T09:45:02Z</time>
      </trkpt>
      <trkpt lat="45.13612" lon="4.61916">
        <ele>806</ele>
        <time>2014-04-21T09:45:04Z</time>
      </trkpt>
      <trkpt lat="45.13618" lon="4.61916">
        <ele>805.4</ele>
        <time>2014-04-21T09:45:54Z</time>
      </trkpt>
      <trkpt lat="45.13628" lon="4.61914">
        <ele>804.3</ele>
        <time>2014-04-21T09:45:58Z</time>
      </trkpt>
      <trkpt lat="45.13634" lon="4.61914">
        <ele>803.5</ele>
        <time>2014-04-21T09:46:00Z</time>
      </trkpt>
      <trkpt lat="45.13642" lon="4.61914">
        <ele>802.9</ele>
        <time>2014-04-21T09:46:02Z</time>
      </trkpt>
      <trkpt lat="45.13647" lon="4.61914">
        <ele>802.4</ele>
        <time>2014-04-21T09:46:03Z</time>
      </trkpt>
      <trkpt lat="45.13652" lon="4.61914">
        <ele>801.9</ele>
        <time>2014-04-21T09:46:04Z</time>
      </trkpt>
      <trkpt lat="45.13657" lon="4.61915">
        <ele>801.4</ele>
        <time>2014-04-21T09:46:05Z</time>
      </trkpt>
      <trkpt lat="45.13662" lon="4.61915">
        <ele>801.2</ele>
        <time>2014-04-21T09:46:06Z</time>
      </trkpt>
      <trkpt lat="45.13667" lon="4.61915">
        <ele>800.5</ele>
        <time>2014-04-21T09:46:07Z</time>
      </trkpt>
      <trkpt lat="45.13672" lon="4.61914">
        <ele>799.5</ele>
        <time>2014-04-21T09:46:08Z</time>
      </trkpt>
      <trkpt lat="45.13677" lon="4.61913">
        <ele>798.5</ele>
        <time>2014-04-21T09:46:09Z</time>
      </trkpt>
      <trkpt lat="45.13683" lon="4.61911">
        <ele>797.3</ele>
        <time>2014-04-21T09:46:10Z</time>
      </trkpt>
      <trkpt lat="45.1369" lon="4.61909">
        <ele>796.1</ele>
        <time>2014-04-21T09:46:11Z</time>
      </trkpt>
      <trkpt lat="45.13696" lon="4.61907">
        <ele>794.6</ele>
        <time>2014-04-21T09:46:12Z</time>
      </trkpt>
      <trkpt lat="45.13703" lon="4.61905">
        <ele>793.4</ele>
        <time>2014-04-21T09:46:13Z</time>
      </trkpt>
      <trkpt lat="45.13709" lon="4.61904">
        <ele>792.2</ele>
        <time>2014-04-21T09:46:14Z</time>
      </trkpt>
      <trkpt lat="45.13715" lon="4.61903">
        <ele>791.1</ele>
        <time>2014-04-21T09:46:15Z</time>
      </trkpt>
      <trkpt lat="45.1372" lon="4.61903">
        <ele>790.3</ele>
        <time>2014-04-21T09:46:16Z</time>
      </trkpt>
      <trkpt lat="45.13725" lon="4.61903">
        <ele>789.5</ele>
        <time>2014-04-21T09:46:17Z</time>
      </trkpt>
      <trkpt lat="45.13731" lon="4.61904">
        <ele>788.9</ele>
        <time>2014-04-21T09:46:18Z</time>
      </trkpt>
      <trkpt lat="45.13736" lon="4.61906">
        <ele>788.4</ele>
        <time>2014-04-21T09:46:19Z</time>
      </trkpt>
      <trkpt lat="45.13741" lon="4.61906">
        <ele>787.8</ele>
        <time>2014-04-21T09:46:20Z</time>
      </trkpt>
      <trkpt lat="45.13747" lon="4.61906">
        <ele>786.8</ele>
        <time>2014-04-21T09:46:21Z</time>
      </trkpt>
      <trkpt lat="45.13753" lon="4.61906">
        <ele>785.6</ele>
        <time>2014-04-21T09:46:22Z</time>
      </trkpt>
      <trkpt lat="45.1376" lon="4.61906">
        <ele>783.9</ele>
        <time>2014-04-21T09:46:23Z</time>
      </trkpt>
      <trkpt lat="45.13767" lon="4.61905">
        <ele>782.4</ele>
        <time>2014-04-21T09:46:24Z</time>
      </trkpt>
      <trkpt lat="45.13773" lon="4.61905">
        <ele>780.9</ele>
        <time>2014-04-21T09:46:25Z</time>
      </trkpt>
      <trkpt lat="45.1378" lon="4.61905">
        <ele>779.4</ele>
        <time>2014-04-21T09:46:26Z</time>
      </trkpt>
      <trkpt lat="45.13786" lon="4.61905">
        <ele>777.9</ele>
        <time>2014-04-21T09:46:27Z</time>
      </trkpt>
      <trkpt lat="45.13791" lon="4.61905">
        <ele>776.7</ele>
        <time>2014-04-21T09:46:28Z</time>
      </trkpt>
      <trkpt lat="45.13797" lon="4.61904">
        <ele>775.5</ele>
        <time>2014-04-21T09:46:29Z</time>
      </trkpt>
      <trkpt lat="45.13802" lon="4.61905">
        <ele>774.2</ele>
        <time>2014-04-21T09:46:30Z</time>
      </trkpt>
      <trkpt lat="45.13807" lon="4.61905">
        <ele>773.3</ele>
        <time>2014-04-21T09:46:31Z</time>
      </trkpt>
      <trkpt lat="45.13813" lon="4.61906">
        <ele>772.1</ele>
        <time>2014-04-21T09:46:32Z</time>
      </trkpt>
      <trkpt lat="45.13818" lon="4.61907">
        <ele>771.1</ele>
        <time>2014-04-21T09:46:33Z</time>
      </trkpt>
      <trkpt lat="45.13822" lon="4.61908">
        <ele>770.3</ele>
        <time>2014-04-21T09:46:34Z</time>
      </trkpt>
      <trkpt lat="45.13827" lon="4.6191">
        <ele>769.4</ele>
        <time>2014-04-21T09:46:35Z</time>
      </trkpt>
      <trkpt lat="45.13832" lon="4.61912">
        <ele>768.6</ele>
        <time>2014-04-21T09:46:36Z</time>
      </trkpt>
      <trkpt lat="45.13837" lon="4.61913">
        <ele>767.9</ele>
        <time>2014-04-21T09:46:37Z</time>
      </trkpt>
      <trkpt lat="45.13841" lon="4.61914">
        <ele>767.3</ele>
        <time>2014-04-21T09:46:38Z</time>
      </trkpt>
      <trkpt lat="45.13847" lon="4.61915">
        <ele>766.5</ele>
        <time>2014-04-21T09:46:39Z</time>
      </trkpt>
      <trkpt lat="45.13853" lon="4.61918">
        <ele>765.7</ele>
        <time>2014-04-21T09:46:40Z</time>
      </trkpt>
      <trkpt lat="45.13859" lon="4.6192">
        <ele>765.1</ele>
        <time>2014-04-21T09:46:41Z</time>
      </trkpt>
      <trkpt lat="45.13865" lon="4.61921">
        <ele>764.2</ele>
        <time>2014-04-21T09:46:42Z</time>
      </trkpt>
      <trkpt lat="45.13871" lon="4.61923">
        <ele>763.3</ele>
        <time>2014-04-21T09:46:43Z</time>
      </trkpt>
      <trkpt lat="45.13877" lon="4.61925">
        <ele>762.7</ele>
        <time>2014-04-21T09:46:44Z</time>
      </trkpt>
      <trkpt lat="45.13882" lon="4.61926">
        <ele>761.9</ele>
        <time>2014-04-21T09:46:45Z</time>
      </trkpt>
      <trkpt lat="45.13888" lon="4.61927">
        <ele>760.8</ele>
        <time>2014-04-21T09:46:46Z</time>
      </trkpt>
      <trkpt lat="45.13894" lon="4.61928">
        <ele>760.1</ele>
        <time>2014-04-21T09:46:47Z</time>
      </trkpt>
      <trkpt lat="45.13901" lon="4.6193">
        <ele>759</ele>
        <time>2014-04-21T09:46:48Z</time>
      </trkpt>
      <trkpt lat="45.13907" lon="4.61931">
        <ele>758</ele>
        <time>2014-04-21T09:46:49Z</time>
      </trkpt>
      <trkpt lat="45.13914" lon="4.61933">
        <ele>756.9</ele>
        <time>2014-04-21T09:46:50Z</time>
      </trkpt>
      <trkpt lat="45.13922" lon="4.61936">
        <ele>755.8</ele>
        <time>2014-04-21T09:46:51Z</time>
      </trkpt>
      <trkpt lat="45.13929" lon="4.61939">
        <ele>754.8</ele>
        <time>2014-04-21T09:46:52Z</time>
      </trkpt>
      <trkpt lat="45.13936" lon="4.61943">
        <ele>753.7</ele>
        <time>2014-04-21T09:46:53Z</time>
      </trkpt>
      <trkpt lat="45.13942" lon="4.61948">
        <ele>752.8</ele>
        <time>2014-04-21T09:46:54Z</time>
      </trkpt>
      <trkpt lat="45.13949" lon="4.61952">
        <ele>751.7</ele>
        <time>2014-04-21T09:46:55Z</time>
      </trkpt>
      <trkpt lat="45.13962" lon="4.61963">
        <ele>749.7</ele>
        <time>2014-04-21T09:46:57Z</time>
      </trkpt>
      <trkpt lat="45.13968" lon="4.61969">
        <ele>748.9</ele>
        <time>2014-04-21T09:46:58Z</time>
      </trkpt>
      <trkpt lat="45.13973" lon="4.61976">
        <ele>748.1</ele>
        <time>2014-04-21T09:46:59Z</time>
      </trkpt>
      <trkpt lat="45.13978" lon="4.61982">
        <ele>747.4</ele>
        <time>2014-04-21T09:47:00Z</time>
      </trkpt>
      <trkpt lat="45.13981" lon="4.61988">
        <ele>746.9</ele>
        <time>2014-04-21T09:47:01Z</time>
      </trkpt>
      <trkpt lat="45.13985" lon="4.61995">
        <ele>746.4</ele>
        <time>2014-04-21T09:47:02Z</time>
      </trkpt>
      <trkpt lat="45.13988" lon="4.62003">
        <ele>746.3</ele>
        <time>2014-04-21T09:47:03Z</time>
      </trkpt>
      <trkpt lat="45.13991" lon="4.6201">
        <ele>746.3</ele>
        <time>2014-04-21T09:47:04Z</time>
      </trkpt>
      <trkpt lat="45.13994" lon="4.62017">
        <ele>746.5</ele>
        <time>2014-04-21T09:47:05Z</time>
      </trkpt>
      <trkpt lat="45.13997" lon="4.62025">
        <ele>746.8</ele>
        <time>2014-04-21T09:47:06Z</time>
      </trkpt>
      <trkpt lat="45.13999" lon="4.62032">
        <ele>747</ele>
        <time>2014-04-21T09:47:07Z</time>
      </trkpt>
      <trkpt lat="45.14001" lon="4.6204">
        <ele>747.5</ele>
        <time>2014-04-21T09:47:08Z</time>
      </trkpt>
      <trkpt lat="45.14002" lon="4.62047">
        <ele>748.3</ele>
        <time>2014-04-21T09:47:09Z</time>
      </trkpt>
      <trkpt lat="45.14003" lon="4.62054">
        <ele>748.9</ele>
        <time>2014-04-21T09:47:10Z</time>
      </trkpt>
      <trkpt lat="45.14003" lon="4.6206">
        <ele>749.6</ele>
        <time>2014-04-21T09:47:11Z</time>
      </trkpt>
      <trkpt lat="45.14004" lon="4.6207">
        <ele>750.8</ele>
        <time>2014-04-21T09:47:13Z</time>
      </trkpt>
      <trkpt lat="45.14003" lon="4.6208">
        <ele>752.1</ele>
        <time>2014-04-21T09:47:15Z</time>
      </trkpt>
      <trkpt lat="45.14002" lon="4.62088">
        <ele>753.7</ele>
        <time>2014-04-21T09:47:17Z</time>
      </trkpt>
      <trkpt lat="45.14002" lon="4.62097">
        <ele>756</ele>
        <time>2014-04-21T09:47:19Z</time>
      </trkpt>
      <trkpt lat="45.14005" lon="4.62105">
        <ele>757.9</ele>
        <time>2014-04-21T09:47:21Z</time>
      </trkpt>
      <trkpt lat="45.1401" lon="4.62112">
        <ele>758.6</ele>
        <time>2014-04-21T09:47:23Z</time>
      </trkpt>
      <trkpt lat="45.14017" lon="4.62116">
        <ele>759.1</ele>
        <time>2014-04-21T09:47:25Z</time>
      </trkpt>
      <trkpt lat="45.14024" lon="4.62122">
        <ele>759.5</ele>
        <time>2014-04-21T09:47:27Z</time>
      </trkpt>
      <trkpt lat="45.14029" lon="4.62125">
        <ele>759.5</ele>
        <time>2014-04-21T09:47:28Z</time>
      </trkpt>
      <trkpt lat="45.14034" lon="4.62127">
        <ele>759.5</ele>
        <time>2014-04-21T09:47:29Z</time>
      </trkpt>
      <trkpt lat="45.1404" lon="4.62127">
        <ele>758.7</ele>
        <time>2014-04-21T09:47:30Z</time>
      </trkpt>
      <trkpt lat="45.14046" lon="4.62127">
        <ele>758</ele>
        <time>2014-04-21T09:47:31Z</time>
      </trkpt>
      <trkpt lat="45.14053" lon="4.62128">
        <ele>757.5</ele>
        <time>2014-04-21T09:47:32Z</time>
      </trkpt>
      <trkpt lat="45.1406" lon="4.62129">
        <ele>756.9</ele>
        <time>2014-04-21T09:47:33Z</time>
      </trkpt>
      <trkpt lat="45.14067" lon="4.6213">
        <ele>756.3</ele>
        <time>2014-04-21T09:47:34Z</time>
      </trkpt>
      <trkpt lat="45.14075" lon="4.62131">
        <ele>755.3</ele>
        <time>2014-04-21T09:47:35Z</time>
      </trkpt>
      <trkpt lat="45.14081" lon="4.62131">
        <ele>754.5</ele>
        <time>2014-04-21T09:47:36Z</time>
      </trkpt>
      <trkpt lat="45.14088" lon="4.62131">
        <ele>754</ele>
        <time>2014-04-21T09:47:37Z</time>
      </trkpt>
      <trkpt lat="45.14094" lon="4.62131">
        <ele>753.7</ele>
        <time>2014-04-21T09:47:38Z</time>
      </trkpt>
      <trkpt lat="45.14101" lon="4.62132">
        <ele>753.6</ele>
        <time>2014-04-21T09:47:39Z</time>
      </trkpt>
      <trkpt lat="45.14108" lon="4.62133">
        <ele>753.3</ele>
        <time>2014-04-21T09:47:40Z</time>
      </trkpt>
      <trkpt lat="45.14115" lon="4.62134">
        <ele>753.2</ele>
        <time>2014-04-21T09:47:41Z</time>
      </trkpt>
      <trkpt lat="45.14122" lon="4.62136">
        <ele>753.4</ele>
        <time>2014-04-21T09:47:42Z</time>
      </trkpt>
      <trkpt lat="45.14129" lon="4.62138">
        <ele>753.3</ele>
        <time>2014-04-21T09:47:43Z</time>
      </trkpt>
      <trkpt lat="45.14136" lon="4.62139">
        <ele>753.2</ele>
        <time>2014-04-21T09:47:44Z</time>
      </trkpt>
      <trkpt lat="45.14143" lon="4.6214">
        <ele>753.1</ele>
        <time>2014-04-21T09:47:45Z</time>
      </trkpt>
      <trkpt lat="45.1415" lon="4.62141">
        <ele>752.9</ele>
        <time>2014-04-21T09:47:46Z</time>
      </trkpt>
      <trkpt lat="45.14157" lon="4.6214">
        <ele>752.3</ele>
        <time>2014-04-21T09:47:47Z</time>
      </trkpt>
      <trkpt lat="45.14165" lon="4.62138">
        <ele>751.4</ele>
        <time>2014-04-21T09:47:48Z</time>
      </trkpt>
      <trkpt lat="45.14172" lon="4.62134">
        <ele>749.9</ele>
        <time>2014-04-21T09:47:49Z</time>
      </trkpt>
      <trkpt lat="45.1418" lon="4.6213">
        <ele>748</ele>
        <time>2014-04-21T09:47:50Z</time>
      </trkpt>
      <trkpt lat="45.14188" lon="4.62126">
        <ele>745.8</ele>
        <time>2014-04-21T09:47:51Z</time>
      </trkpt>
      <trkpt lat="45.14197" lon="4.62121">
        <ele>743.7</ele>
        <time>2014-04-21T09:47:52Z</time>
      </trkpt>
      <trkpt lat="45.14206" lon="4.62117">
        <ele>741.6</ele>
        <time>2014-04-21T09:47:53Z</time>
      </trkpt>
      <trkpt lat="45.14214" lon="4.62113">
        <ele>739.5</ele>
        <time>2014-04-21T09:47:54Z</time>
      </trkpt>
      <trkpt lat="45.14222" lon="4.62111">
        <ele>737.8</ele>
        <time>2014-04-21T09:47:55Z</time>
      </trkpt>
      <trkpt lat="45.1423" lon="4.62109">
        <ele>736</ele>
        <time>2014-04-21T09:47:56Z</time>
      </trkpt>
      <trkpt lat="45.14247" lon="4.62109">
        <ele>733.4</ele>
        <time>2014-04-21T09:47:58Z</time>
      </trkpt>
      <trkpt lat="45.14256" lon="4.62109">
        <ele>731.9</ele>
        <time>2014-04-21T09:47:59Z</time>
      </trkpt>
      <trkpt lat="45.14265" lon="4.62109">
        <ele>730.4</ele>
        <time>2014-04-21T09:48:00Z</time>
      </trkpt>
      <trkpt lat="45.14274" lon="4.6211">
        <ele>728.8</ele>
        <time>2014-04-21T09:48:01Z</time>
      </trkpt>
      <trkpt lat="45.14282" lon="4.62112">
        <ele>727.5</ele>
        <time>2014-04-21T09:48:02Z</time>
      </trkpt>
      <trkpt lat="45.14291" lon="4.62113">
        <ele>726.4</ele>
        <time>2014-04-21T09:48:03Z</time>
      </trkpt>
      <trkpt lat="45.14298" lon="4.62116">
        <ele>725.5</ele>
        <time>2014-04-21T09:48:04Z</time>
      </trkpt>
      <trkpt lat="45.14306" lon="4.6212">
        <ele>724.8</ele>
        <time>2014-04-21T09:48:05Z</time>
      </trkpt>
      <trkpt lat="45.14314" lon="4.62123">
        <ele>723.6</ele>
        <time>2014-04-21T09:48:06Z</time>
      </trkpt>
      <trkpt lat="45.14324" lon="4.62126">
        <ele>722.6</ele>
        <time>2014-04-21T09:48:07Z</time>
      </trkpt>
      <trkpt lat="45.14333" lon="4.62129">
        <ele>721</ele>
        <time>2014-04-21T09:48:08Z</time>
      </trkpt>
      <trkpt lat="45.14342" lon="4.6213">
        <ele>718.6</ele>
        <time>2014-04-21T09:48:09Z</time>
      </trkpt>
      <trkpt lat="45.14351" lon="4.62131">
        <ele>716.3</ele>
        <time>2014-04-21T09:48:10Z</time>
      </trkpt>
      <trkpt lat="45.14359" lon="4.62132">
        <ele>714.1</ele>
        <time>2014-04-21T09:48:11Z</time>
      </trkpt>
      <trkpt lat="45.14367" lon="4.62133">
        <ele>711.9</ele>
        <time>2014-04-21T09:48:12Z</time>
      </trkpt>
      <trkpt lat="45.14375" lon="4.62134">
        <ele>709.7</ele>
        <time>2014-04-21T09:48:13Z</time>
      </trkpt>
      <trkpt lat="45.14383" lon="4.62136">
        <ele>707.4</ele>
        <time>2014-04-21T09:48:14Z</time>
      </trkpt>
      <trkpt lat="45.14391" lon="4.62139">
        <ele>705.4</ele>
        <time>2014-04-21T09:48:15Z</time>
      </trkpt>
      <trkpt lat="45.14399" lon="4.62143">
        <ele>703.5</ele>
        <time>2014-04-21T09:48:16Z</time>
      </trkpt>
      <trkpt lat="45.14406" lon="4.62147">
        <ele>701.6</ele>
        <time>2014-04-21T09:48:17Z</time>
      </trkpt>
      <trkpt lat="45.14414" lon="4.62151">
        <ele>699.9</ele>
        <time>2014-04-21T09:48:18Z</time>
      </trkpt>
      <trkpt lat="45.14421" lon="4.62155">
        <ele>697.6</ele>
        <time>2014-04-21T09:48:19Z</time>
      </trkpt>
      <trkpt lat="45.14428" lon="4.62159">
        <ele>694.8</ele>
        <time>2014-04-21T09:48:20Z</time>
      </trkpt>
      <trkpt lat="45.14436" lon="4.62163">
        <ele>691.9</ele>
        <time>2014-04-21T09:48:21Z</time>
      </trkpt>
      <trkpt lat="45.14444" lon="4.62167">
        <ele>688.7</ele>
        <time>2014-04-21T09:48:22Z</time>
      </trkpt>
      <trkpt lat="45.14451" lon="4.62171">
        <ele>685.2</ele>
        <time>2014-04-21T09:48:23Z</time>
      </trkpt>
      <trkpt lat="45.14459" lon="4.62176">
        <ele>681.9</ele>
        <time>2014-04-21T09:48:24Z</time>
      </trkpt>
      <trkpt lat="45.14465" lon="4.62182">
        <ele>678.8</ele>
        <time>2014-04-21T09:48:25Z</time>
      </trkpt>
      <trkpt lat="45.14471" lon="4.62189">
        <ele>676</ele>
        <time>2014-04-21T09:48:26Z</time>
      </trkpt>
      <trkpt lat="45.14476" lon="4.62196">
        <ele>673.3</ele>
        <time>2014-04-21T09:48:27Z</time>
      </trkpt>
      <trkpt lat="45.1448" lon="4.62202">
        <ele>671.1</ele>
        <time>2014-04-21T09:48:28Z</time>
      </trkpt>
      <trkpt lat="45.14485" lon="4.6221">
        <ele>668.6</ele>
        <time>2014-04-21T09:48:29Z</time>
      </trkpt>
      <trkpt lat="45.1449" lon="4.62218">
        <ele>666</ele>
        <time>2014-04-21T09:48:30Z</time>
      </trkpt>
      <trkpt lat="45.14493" lon="4.62226">
        <ele>664</ele>
        <time>2014-04-21T09:48:31Z</time>
      </trkpt>
      <trkpt lat="45.14496" lon="4.62234">
        <ele>662.1</ele>
        <time>2014-04-21T09:48:32Z</time>
      </trkpt>
      <trkpt lat="45.14498" lon="4.62243">
        <ele>660.5</ele>
        <time>2014-04-21T09:48:33Z</time>
      </trkpt>
      <trkpt lat="45.145" lon="4.62252">
        <ele>659.2</ele>
        <time>2014-04-21T09:48:34Z</time>
      </trkpt>
      <trkpt lat="45.14501" lon="4.62262">
        <ele>658.9</ele>
        <time>2014-04-21T09:48:35Z</time>
      </trkpt>
      <trkpt lat="45.14501" lon="4.62272">
        <ele>659.1</ele>
        <time>2014-04-21T09:48:36Z</time>
      </trkpt>
      <trkpt lat="45.14501" lon="4.62283">
        <ele>659.3</ele>
        <time>2014-04-21T09:48:37Z</time>
      </trkpt>
      <trkpt lat="45.145" lon="4.62294">
        <ele>660.1</ele>
        <time>2014-04-21T09:48:38Z</time>
      </trkpt>
      <trkpt lat="45.14499" lon="4.62306">
        <ele>660.7</ele>
        <time>2014-04-21T09:48:39Z</time>
      </trkpt>
      <trkpt lat="45.145" lon="4.62317">
        <ele>660.8</ele>
        <time>2014-04-21T09:48:40Z</time>
      </trkpt>
      <trkpt lat="45.14501" lon="4.62328">
        <ele>660.6</ele>
        <time>2014-04-21T09:48:41Z</time>
      </trkpt>
      <trkpt lat="45.14502" lon="4.6234">
        <ele>661</ele>
        <time>2014-04-21T09:48:42Z</time>
      </trkpt>
      <trkpt lat="45.14504" lon="4.62351">
        <ele>661.4</ele>
        <time>2014-04-21T09:48:43Z</time>
      </trkpt>
      <trkpt lat="45.14506" lon="4.62363">
        <ele>661.9</ele>
        <time>2014-04-21T09:48:44Z</time>
      </trkpt>
      <trkpt lat="45.14509" lon="4.62375">
        <ele>662</ele>
        <time>2014-04-21T09:48:45Z</time>
      </trkpt>
      <trkpt lat="45.14513" lon="4.62386">
        <ele>662.2</ele>
        <time>2014-04-21T09:48:46Z</time>
      </trkpt>
      <trkpt lat="45.14516" lon="4.62398">
        <ele>662.4</ele>
        <time>2014-04-21T09:48:47Z</time>
      </trkpt>
      <trkpt lat="45.14519" lon="4.62409">
        <ele>662.6</ele>
        <time>2014-04-21T09:48:48Z</time>
      </trkpt>
      <trkpt lat="45.14523" lon="4.6242">
        <ele>662.6</ele>
        <time>2014-04-21T09:48:49Z</time>
      </trkpt>
      <trkpt lat="45.14528" lon="4.6243">
        <ele>662.6</ele>
        <time>2014-04-21T09:48:50Z</time>
      </trkpt>
      <trkpt lat="45.14535" lon="4.6244">
        <ele>661.9</ele>
        <time>2014-04-21T09:48:51Z</time>
      </trkpt>
      <trkpt lat="45.14541" lon="4.62449">
        <ele>661.6</ele>
        <time>2014-04-21T09:48:52Z</time>
      </trkpt>
      <trkpt lat="45.14547" lon="4.6246">
        <ele>661.5</ele>
        <time>2014-04-21T09:48:53Z</time>
      </trkpt>
      <trkpt lat="45.14554" lon="4.6247">
        <ele>661.2</ele>
        <time>2014-04-21T09:48:54Z</time>
      </trkpt>
      <trkpt lat="45.1456" lon="4.6248">
        <ele>661</ele>
        <time>2014-04-21T09:48:55Z</time>
      </trkpt>
      <trkpt lat="45.14566" lon="4.62491">
        <ele>661</ele>
        <time>2014-04-21T09:48:56Z</time>
      </trkpt>
      <trkpt lat="45.14572" lon="4.62502">
        <ele>661.2</ele>
        <time>2014-04-21T09:48:57Z</time>
      </trkpt>
      <trkpt lat="45.14584" lon="4.62522">
        <ele>661.7</ele>
        <time>2014-04-21T09:48:59Z</time>
      </trkpt>
      <trkpt lat="45.14589" lon="4.62532">
        <ele>662.1</ele>
        <time>2014-04-21T09:49:00Z</time>
      </trkpt>
      <trkpt lat="45.14594" lon="4.62541">
        <ele>662.7</ele>
        <time>2014-04-21T09:49:01Z</time>
      </trkpt>
      <trkpt lat="45.14599" lon="4.6255">
        <ele>663.3</ele>
        <time>2014-04-21T09:49:02Z</time>
      </trkpt>
      <trkpt lat="45.14603" lon="4.6256">
        <ele>663.8</ele>
        <time>2014-04-21T09:49:03Z</time>
      </trkpt>
      <trkpt lat="45.14607" lon="4.62569">
        <ele>664.7</ele>
        <time>2014-04-21T09:49:04Z</time>
      </trkpt>
      <trkpt lat="45.14611" lon="4.62578">
        <ele>665</ele>
        <time>2014-04-21T09:49:05Z</time>
      </trkpt>
      <trkpt lat="45.14616" lon="4.62587">
        <ele>665</ele>
        <time>2014-04-21T09:49:06Z</time>
      </trkpt>
      <trkpt lat="45.14622" lon="4.62595">
        <ele>664.4</ele>
        <time>2014-04-21T09:49:07Z</time>
      </trkpt>
      <trkpt lat="45.14629" lon="4.62603">
        <ele>663.2</ele>
        <time>2014-04-21T09:49:08Z</time>
      </trkpt>
      <trkpt lat="45.14636" lon="4.62611">
        <ele>662</ele>
        <time>2014-04-21T09:49:09Z</time>
      </trkpt>
      <trkpt lat="45.14643" lon="4.62619">
        <ele>660.8</ele>
        <time>2014-04-21T09:49:10Z</time>
      </trkpt>
      <trkpt lat="45.14648" lon="4.62626">
        <ele>659.9</ele>
        <time>2014-04-21T09:49:11Z</time>
      </trkpt>
      <trkpt lat="45.14654" lon="4.62633">
        <ele>659.2</ele>
        <time>2014-04-21T09:49:12Z</time>
      </trkpt>
      <trkpt lat="45.14659" lon="4.6264">
        <ele>658.3</ele>
        <time>2014-04-21T09:49:13Z</time>
      </trkpt>
      <trkpt lat="45.14662" lon="4.62646">
        <ele>657.9</ele>
        <time>2014-04-21T09:49:14Z</time>
      </trkpt>
      <trkpt lat="45.14665" lon="4.62652">
        <ele>657.6</ele>
        <time>2014-04-21T09:49:15Z</time>
      </trkpt>
      <trkpt lat="45.14668" lon="4.62658">
        <ele>657.4</ele>
        <time>2014-04-21T09:49:17Z</time>
      </trkpt>
      <trkpt lat="45.14672" lon="4.62665">
        <ele>656.7</ele>
        <time>2014-04-21T09:49:25Z</time>
      </trkpt>
      <trkpt lat="45.14675" lon="4.62672">
        <ele>655.9</ele>
        <time>2014-04-21T09:49:27Z</time>
      </trkpt>
      <trkpt lat="45.14679" lon="4.62679">
        <ele>654.6</ele>
        <time>2014-04-21T09:49:29Z</time>
      </trkpt>
      <trkpt lat="45.14685" lon="4.62685">
        <ele>652.5</ele>
        <time>2014-04-21T09:49:31Z</time>
      </trkpt>
      <trkpt lat="45.1469" lon="4.62691">
        <ele>650.5</ele>
        <time>2014-04-21T09:49:33Z</time>
      </trkpt>
      <trkpt lat="45.14698" lon="4.62699">
        <ele>647.8</ele>
        <time>2014-04-21T09:49:35Z</time>
      </trkpt>
      <trkpt lat="45.14703" lon="4.62709">
        <ele>646.2</ele>
        <time>2014-04-21T09:49:37Z</time>
      </trkpt>
      <trkpt lat="45.14706" lon="4.62716">
        <ele>645.3</ele>
        <time>2014-04-21T09:49:38Z</time>
      </trkpt>
      <trkpt lat="45.14709" lon="4.62722">
        <ele>644.3</ele>
        <time>2014-04-21T09:49:39Z</time>
      </trkpt>
      <trkpt lat="45.14713" lon="4.62728">
        <ele>643.2</ele>
        <time>2014-04-21T09:49:40Z</time>
      </trkpt>
      <trkpt lat="45.14716" lon="4.62735">
        <ele>642.5</ele>
        <time>2014-04-21T09:49:41Z</time>
      </trkpt>
      <trkpt lat="45.14718" lon="4.62742">
        <ele>642.1</ele>
        <time>2014-04-21T09:49:42Z</time>
      </trkpt>
      <trkpt lat="45.14719" lon="4.62749">
        <ele>641.7</ele>
        <time>2014-04-21T09:49:43Z</time>
      </trkpt>
      <trkpt lat="45.1472" lon="4.62756">
        <ele>641.2</ele>
        <time>2014-04-21T09:49:44Z</time>
      </trkpt>
      <trkpt lat="45.14722" lon="4.62765">
        <ele>640.4</ele>
        <time>2014-04-21T09:49:45Z</time>
      </trkpt>
      <trkpt lat="45.14725" lon="4.62772">
        <ele>639.5</ele>
        <time>2014-04-21T09:49:46Z</time>
      </trkpt>
      <trkpt lat="45.14727" lon="4.6278">
        <ele>638.6</ele>
        <time>2014-04-21T09:49:47Z</time>
      </trkpt>
      <trkpt lat="45.14732" lon="4.62788">
        <ele>636.7</ele>
        <time>2014-04-21T09:49:49Z</time>
      </trkpt>
      <trkpt lat="45.14741" lon="4.62783">
        <ele>634.1</ele>
        <time>2014-04-21T09:49:51Z</time>
      </trkpt>
      <trkpt lat="45.14745" lon="4.62778">
        <ele>632.7</ele>
        <time>2014-04-21T09:49:52Z</time>
      </trkpt>
      <trkpt lat="45.14748" lon="4.62773">
        <ele>631.8</ele>
        <time>2014-04-21T09:49:53Z</time>
      </trkpt>
      <trkpt lat="45.14751" lon="4.62768">
        <ele>630.6</ele>
        <time>2014-04-21T09:49:54Z</time>
      </trkpt>
      <trkpt lat="45.14754" lon="4.62762">
        <ele>629.5</ele>
        <time>2014-04-21T09:49:55Z</time>
      </trkpt>
      <trkpt lat="45.14757" lon="4.62755">
        <ele>628.3</ele>
        <time>2014-04-21T09:49:56Z</time>
      </trkpt>
      <trkpt lat="45.14761" lon="4.62747">
        <ele>626.7</ele>
        <time>2014-04-21T09:49:57Z</time>
      </trkpt>
      <trkpt lat="45.14764" lon="4.62738">
        <ele>625.2</ele>
        <time>2014-04-21T09:49:58Z</time>
      </trkpt>
      <trkpt lat="45.14769" lon="4.62722">
        <ele>622.9</ele>
        <time>2014-04-21T09:50:00Z</time>
      </trkpt>
      <trkpt lat="45.14771" lon="4.62713">
        <ele>621.9</ele>
        <time>2014-04-21T09:50:01Z</time>
      </trkpt>
      <trkpt lat="45.14773" lon="4.62705">
        <ele>621</ele>
        <time>2014-04-21T09:50:02Z</time>
      </trkpt>
      <trkpt lat="45.14776" lon="4.62695">
        <ele>619.8</ele>
        <time>2014-04-21T09:50:03Z</time>
      </trkpt>
      <trkpt lat="45.14778" lon="4.62685">
        <ele>618.8</ele>
        <time>2014-04-21T09:50:04Z</time>
      </trkpt>
      <trkpt lat="45.14779" lon="4.62676">
        <ele>618.3</ele>
        <time>2014-04-21T09:50:05Z</time>
      </trkpt>
      <trkpt lat="45.14779" lon="4.62665">
        <ele>617.7</ele>
        <time>2014-04-21T09:50:06Z</time>
      </trkpt>
      <trkpt lat="45.1478" lon="4.62655">
        <ele>616.7</ele>
        <time>2014-04-21T09:50:07Z</time>
      </trkpt>
      <trkpt lat="45.14781" lon="4.62646">
        <ele>615.7</ele>
        <time>2014-04-21T09:50:08Z</time>
      </trkpt>
      <trkpt lat="45.14782" lon="4.62637">
        <ele>614.7</ele>
        <time>2014-04-21T09:50:09Z</time>
      </trkpt>
      <trkpt lat="45.14783" lon="4.62629">
        <ele>613.9</ele>
        <time>2014-04-21T09:50:10Z</time>
      </trkpt>
      <trkpt lat="45.14783" lon="4.6262">
        <ele>613.2</ele>
        <time>2014-04-21T09:50:11Z</time>
      </trkpt>
      <trkpt lat="45.14784" lon="4.6261">
        <ele>612.3</ele>
        <time>2014-04-21T09:50:12Z</time>
      </trkpt>
      <trkpt lat="45.14784" lon="4.62602">
        <ele>611.6</ele>
        <time>2014-04-21T09:50:13Z</time>
      </trkpt>
      <trkpt lat="45.14784" lon="4.62594">
        <ele>610.8</ele>
        <time>2014-04-21T09:50:14Z</time>
      </trkpt>
      <trkpt lat="45.14785" lon="4.62586">
        <ele>610.1</ele>
        <time>2014-04-21T09:50:15Z</time>
      </trkpt>
      <trkpt lat="45.14784" lon="4.62578">
        <ele>609</ele>
        <time>2014-04-21T09:50:16Z</time>
      </trkpt>
      <trkpt lat="45.14784" lon="4.62569">
        <ele>608</ele>
        <time>2014-04-21T09:50:17Z</time>
      </trkpt>
      <trkpt lat="45.14784" lon="4.62561">
        <ele>606.5</ele>
        <time>2014-04-21T09:50:18Z</time>
      </trkpt>
      <trkpt lat="45.14785" lon="4.62554">
        <ele>605.3</ele>
        <time>2014-04-21T09:50:19Z</time>
      </trkpt>
      <trkpt lat="45.14786" lon="4.62542">
        <ele>603.1</ele>
        <time>2014-04-21T09:50:21Z</time>
      </trkpt>
      <trkpt lat="45.14786" lon="4.62536">
        <ele>602.1</ele>
        <time>2014-04-21T09:50:22Z</time>
      </trkpt>
      <trkpt lat="45.14786" lon="4.62529">
        <ele>601</ele>
        <time>2014-04-21T09:50:23Z</time>
      </trkpt>
      <trkpt lat="45.14786" lon="4.62522">
        <ele>599.9</ele>
        <time>2014-04-21T09:50:24Z</time>
      </trkpt>
      <trkpt lat="45.14786" lon="4.62515">
        <ele>598.7</ele>
        <time>2014-04-21T09:50:25Z</time>
      </trkpt>
      <trkpt lat="45.14786" lon="4.62504">
        <ele>597.1</ele>
        <time>2014-04-21T09:50:27Z</time>
      </trkpt>
      <trkpt lat="45.1479" lon="4.62498">
        <ele>595.1</ele>
        <time>2014-04-21T09:50:30Z</time>
      </trkpt>
      <trkpt lat="45.14793" lon="4.62506">
        <ele>595.4</ele>
        <time>2014-04-21T09:50:33Z</time>
      </trkpt>
      <trkpt lat="45.14795" lon="4.62514">
        <ele>596</ele>
        <time>2014-04-21T09:50:35Z</time>
      </trkpt>
      <trkpt lat="45.14799" lon="4.62521">
        <ele>596.2</ele>
        <time>2014-04-21T09:50:37Z</time>
      </trkpt>
      <trkpt lat="45.14805" lon="4.62528">
        <ele>595.7</ele>
        <time>2014-04-21T09:50:39Z</time>
      </trkpt>
      <trkpt lat="45.14809" lon="4.62536">
        <ele>595.7</ele>
        <time>2014-04-21T09:50:41Z</time>
      </trkpt>
      <trkpt lat="45.14813" lon="4.62545">
        <ele>595.9</ele>
        <time>2014-04-21T09:50:43Z</time>
      </trkpt>
      <trkpt lat="45.14818" lon="4.62554">
        <ele>595.9</ele>
        <time>2014-04-21T09:50:45Z</time>
      </trkpt>
      <trkpt lat="45.14822" lon="4.62562">
        <ele>595.8</ele>
        <time>2014-04-21T09:50:47Z</time>
      </trkpt>
      <trkpt lat="45.14826" lon="4.62572">
        <ele>596.4</ele>
        <time>2014-04-21T09:50:49Z</time>
      </trkpt>
      <trkpt lat="45.1483" lon="4.62582">
        <ele>596.7</ele>
        <time>2014-04-21T09:50:51Z</time>
      </trkpt>
      <trkpt lat="45.14833" lon="4.62591">
        <ele>596.6</ele>
        <time>2014-04-21T09:50:53Z</time>
      </trkpt>
      <trkpt lat="45.14838" lon="4.62601">
        <ele>595.6</ele>
        <time>2014-04-21T09:50:55Z</time>
      </trkpt>
      <trkpt lat="45.14841" lon="4.62611">
        <ele>595.3</ele>
        <time>2014-04-21T09:50:57Z</time>
      </trkpt>
      <trkpt lat="45.14844" lon="4.62622">
        <ele>594.8</ele>
        <time>2014-04-21T09:50:59Z</time>
      </trkpt>
      <trkpt lat="45.1485" lon="4.62638">
        <ele>594.1</ele>
        <time>2014-04-21T09:51:02Z</time>
      </trkpt>
      <trkpt lat="45.14851" lon="4.62649">
        <ele>594.4</ele>
        <time>2014-04-21T09:51:04Z</time>
      </trkpt>
      <trkpt lat="45.14852" lon="4.6266">
        <ele>594.4</ele>
        <time>2014-04-21T09:51:06Z</time>
      </trkpt>
      <trkpt lat="45.14855" lon="4.62671">
        <ele>593.9</ele>
        <time>2014-04-21T09:51:08Z</time>
      </trkpt>
      <trkpt lat="45.14857" lon="4.62678">
        <ele>593</ele>
        <time>2014-04-21T09:51:09Z</time>
      </trkpt>
      <trkpt lat="45.14858" lon="4.62686">
        <ele>592.6</ele>
        <time>2014-04-21T09:51:10Z</time>
      </trkpt>
      <trkpt lat="45.14858" lon="4.62695">
        <ele>592.4</ele>
        <time>2014-04-21T09:51:11Z</time>
      </trkpt>
      <trkpt lat="45.14859" lon="4.62703">
        <ele>592</ele>
        <time>2014-04-21T09:51:12Z</time>
      </trkpt>
      <trkpt lat="45.1486" lon="4.62712">
        <ele>591.6</ele>
        <time>2014-04-21T09:51:13Z</time>
      </trkpt>
      <trkpt lat="45.1486" lon="4.62721">
        <ele>591.2</ele>
        <time>2014-04-21T09:51:14Z</time>
      </trkpt>
      <trkpt lat="45.14861" lon="4.6273">
        <ele>590.9</ele>
        <time>2014-04-21T09:51:15Z</time>
      </trkpt>
      <trkpt lat="45.1486" lon="4.62739">
        <ele>590.9</ele>
        <time>2014-04-21T09:51:16Z</time>
      </trkpt>
      <trkpt lat="45.1486" lon="4.62748">
        <ele>590.8</ele>
        <time>2014-04-21T09:51:17Z</time>
      </trkpt>
      <trkpt lat="45.14861" lon="4.62756">
        <ele>590.5</ele>
        <time>2014-04-21T09:51:18Z</time>
      </trkpt>
      <trkpt lat="45.14863" lon="4.62764">
        <ele>589.7</ele>
        <time>2014-04-21T09:51:19Z</time>
      </trkpt>
      <trkpt lat="45.14866" lon="4.62772">
        <ele>588.8</ele>
        <time>2014-04-21T09:51:20Z</time>
      </trkpt>
      <trkpt lat="45.14869" lon="4.6278">
        <ele>587.6</ele>
        <time>2014-04-21T09:51:21Z</time>
      </trkpt>
      <trkpt lat="45.14872" lon="4.62788">
        <ele>586.6</ele>
        <time>2014-04-21T09:51:22Z</time>
      </trkpt>
      <trkpt lat="45.14876" lon="4.62797">
        <ele>585.6</ele>
        <time>2014-04-21T09:51:23Z</time>
      </trkpt>
      <trkpt lat="45.14879" lon="4.62805">
        <ele>584.3</ele>
        <time>2014-04-21T09:51:24Z</time>
      </trkpt>
      <trkpt lat="45.14884" lon="4.62814">
        <ele>583</ele>
        <time>2014-04-21T09:51:25Z</time>
      </trkpt>
      <trkpt lat="45.14887" lon="4.62824">
        <ele>581.9</ele>
        <time>2014-04-21T09:51:26Z</time>
      </trkpt>
      <trkpt lat="45.1489" lon="4.62834">
        <ele>580.9</ele>
        <time>2014-04-21T09:51:27Z</time>
      </trkpt>
      <trkpt lat="45.14893" lon="4.62845">
        <ele>581</ele>
        <time>2014-04-21T09:51:28Z</time>
      </trkpt>
      <trkpt lat="45.14894" lon="4.62856">
        <ele>581.4</ele>
        <time>2014-04-21T09:51:29Z</time>
      </trkpt>
      <trkpt lat="45.14896" lon="4.62868">
        <ele>582.1</ele>
        <time>2014-04-21T09:51:30Z</time>
      </trkpt>
      <trkpt lat="45.14897" lon="4.6288">
        <ele>582.7</ele>
        <time>2014-04-21T09:51:31Z</time>
      </trkpt>
      <trkpt lat="45.14898" lon="4.62892">
        <ele>583.5</ele>
        <time>2014-04-21T09:51:32Z</time>
      </trkpt>
      <trkpt lat="45.149" lon="4.62902">
        <ele>583.8</ele>
        <time>2014-04-21T09:51:33Z</time>
      </trkpt>
      <trkpt lat="45.14906" lon="4.6291">
        <ele>582.9</ele>
        <time>2014-04-21T09:51:35Z</time>
      </trkpt>
      <trkpt lat="45.14911" lon="4.62913">
        <ele>582.2</ele>
        <time>2014-04-21T09:51:36Z</time>
      </trkpt>
      <trkpt lat="45.14921" lon="4.62918">
        <ele>580.1</ele>
        <time>2014-04-21T09:51:38Z</time>
      </trkpt>
      <trkpt lat="45.14925" lon="4.62921">
        <ele>579.2</ele>
        <time>2014-04-21T09:51:39Z</time>
      </trkpt>
      <trkpt lat="45.14931" lon="4.62925">
        <ele>578</ele>
        <time>2014-04-21T09:51:40Z</time>
      </trkpt>
      <trkpt lat="45.14938" lon="4.62928">
        <ele>576.4</ele>
        <time>2014-04-21T09:51:41Z</time>
      </trkpt>
      <trkpt lat="45.14945" lon="4.62929">
        <ele>575</ele>
        <time>2014-04-21T09:51:42Z</time>
      </trkpt>
      <trkpt lat="45.14949" lon="4.6293">
        <ele>574</ele>
        <time>2014-04-21T09:51:43Z</time>
      </trkpt>
      <trkpt lat="45.14957" lon="4.62932">
        <ele>572.3</ele>
        <time>2014-04-21T09:51:45Z</time>
      </trkpt>
      <trkpt lat="45.14965" lon="4.62935">
        <ele>570.6</ele>
        <time>2014-04-21T09:51:47Z</time>
      </trkpt>
      <trkpt lat="45.14972" lon="4.62942">
        <ele>569.2</ele>
        <time>2014-04-21T09:51:49Z</time>
      </trkpt>
      <trkpt lat="45.14976" lon="4.62951">
        <ele>568.4</ele>
        <time>2014-04-21T09:51:51Z</time>
      </trkpt>
      <trkpt lat="45.1498" lon="4.62962">
        <ele>567.7</ele>
        <time>2014-04-21T09:51:53Z</time>
      </trkpt>
      <trkpt lat="45.14984" lon="4.62972">
        <ele>566.9</ele>
        <time>2014-04-21T09:51:55Z</time>
      </trkpt>
      <trkpt lat="45.14988" lon="4.62982">
        <ele>566.3</ele>
        <time>2014-04-21T09:51:57Z</time>
      </trkpt>
      <trkpt lat="45.14995" lon="4.62987">
        <ele>564.8</ele>
        <time>2014-04-21T09:51:59Z</time>
      </trkpt>
      <trkpt lat="45.15" lon="4.62989">
        <ele>563.8</ele>
        <time>2014-04-21T09:52:00Z</time>
      </trkpt>
      <trkpt lat="45.15011" lon="4.62995">
        <ele>561.9</ele>
        <time>2014-04-21T09:52:02Z</time>
      </trkpt>
      <trkpt lat="45.15016" lon="4.62997">
        <ele>561</ele>
        <time>2014-04-21T09:52:03Z</time>
      </trkpt>
      <trkpt lat="45.15021" lon="4.63">
        <ele>560.2</ele>
        <time>2014-04-21T09:52:04Z</time>
      </trkpt>
      <trkpt lat="45.15027" lon="4.63004">
        <ele>559.3</ele>
        <time>2014-04-21T09:52:05Z</time>
      </trkpt>
      <trkpt lat="45.15032" lon="4.63009">
        <ele>558.5</ele>
        <time>2014-04-21T09:52:06Z</time>
      </trkpt>
      <trkpt lat="45.15038" lon="4.63015">
        <ele>557.7</ele>
        <time>2014-04-21T09:52:07Z</time>
      </trkpt>
      <trkpt lat="45.15044" lon="4.63022">
        <ele>557.1</ele>
        <time>2014-04-21T09:52:08Z</time>
      </trkpt>
      <trkpt lat="45.1505" lon="4.6303">
        <ele>556.5</ele>
        <time>2014-04-21T09:52:09Z</time>
      </trkpt>
      <trkpt lat="45.15057" lon="4.63039">
        <ele>556</ele>
        <time>2014-04-21T09:52:10Z</time>
      </trkpt>
      <trkpt lat="45.15063" lon="4.63046">
        <ele>555.6</ele>
        <time>2014-04-21T09:52:11Z</time>
      </trkpt>
      <trkpt lat="45.1507" lon="4.63054">
        <ele>555.2</ele>
        <time>2014-04-21T09:52:12Z</time>
      </trkpt>
      <trkpt lat="45.15076" lon="4.63061">
        <ele>555</ele>
        <time>2014-04-21T09:52:13Z</time>
      </trkpt>
      <trkpt lat="45.15083" lon="4.63068">
        <ele>554.7</ele>
        <time>2014-04-21T09:52:14Z</time>
      </trkpt>
      <trkpt lat="45.15089" lon="4.63075">
        <ele>554.2</ele>
        <time>2014-04-21T09:52:15Z</time>
      </trkpt>
      <trkpt lat="45.15096" lon="4.6308">
        <ele>553.6</ele>
        <time>2014-04-21T09:52:16Z</time>
      </trkpt>
      <trkpt lat="45.15103" lon="4.63086">
        <ele>552.8</ele>
        <time>2014-04-21T09:52:17Z</time>
      </trkpt>
      <trkpt lat="45.1511" lon="4.63091">
        <ele>551.6</ele>
        <time>2014-04-21T09:52:18Z</time>
      </trkpt>
      <trkpt lat="45.15117" lon="4.63096">
        <ele>550.4</ele>
        <time>2014-04-21T09:52:19Z</time>
      </trkpt>
      <trkpt lat="45.15123" lon="4.63101">
        <ele>549.5</ele>
        <time>2014-04-21T09:52:20Z</time>
      </trkpt>
      <trkpt lat="45.1513" lon="4.63106">
        <ele>548.5</ele>
        <time>2014-04-21T09:52:21Z</time>
      </trkpt>
      <trkpt lat="45.15137" lon="4.63111">
        <ele>547.6</ele>
        <time>2014-04-21T09:52:22Z</time>
      </trkpt>
      <trkpt lat="45.15144" lon="4.63117">
        <ele>546.8</ele>
        <time>2014-04-21T09:52:23Z</time>
      </trkpt>
      <trkpt lat="45.15151" lon="4.63122">
        <ele>546</ele>
        <time>2014-04-21T09:52:24Z</time>
      </trkpt>
      <trkpt lat="45.15159" lon="4.63127">
        <ele>545.1</ele>
        <time>2014-04-21T09:52:25Z</time>
      </trkpt>
      <trkpt lat="45.15166" lon="4.6313">
        <ele>544.3</ele>
        <time>2014-04-21T09:52:26Z</time>
      </trkpt>
      <trkpt lat="45.15173" lon="4.63132">
        <ele>543</ele>
        <time>2014-04-21T09:52:27Z</time>
      </trkpt>
      <trkpt lat="45.15178" lon="4.63134">
        <ele>541.9</ele>
        <time>2014-04-21T09:52:28Z</time>
      </trkpt>
      <trkpt lat="45.15183" lon="4.63137">
        <ele>541</ele>
        <time>2014-04-21T09:52:29Z</time>
      </trkpt>
      <trkpt lat="45.15187" lon="4.6314">
        <ele>540.3</ele>
        <time>2014-04-21T09:52:30Z</time>
      </trkpt>
      <trkpt lat="45.15193" lon="4.63148">
        <ele>539.6</ele>
        <time>2014-04-21T09:52:32Z</time>
      </trkpt>
      <trkpt lat="45.15194" lon="4.63157">
        <ele>540.1</ele>
        <time>2014-04-21T09:52:34Z</time>
      </trkpt>
      <trkpt lat="45.1519" lon="4.63166">
        <ele>541.5</ele>
        <time>2014-04-21T09:52:36Z</time>
      </trkpt>
      <trkpt lat="45.15183" lon="4.63173">
        <ele>542.7</ele>
        <time>2014-04-21T09:52:38Z</time>
      </trkpt>
      <trkpt lat="45.15178" lon="4.63181">
        <ele>543.4</ele>
        <time>2014-04-21T09:52:40Z</time>
      </trkpt>
      <trkpt lat="45.15178" lon="4.63189">
        <ele>543</ele>
        <time>2014-04-21T09:52:42Z</time>
      </trkpt>
      <trkpt lat="45.15185" lon="4.63196">
        <ele>541.7</ele>
        <time>2014-04-21T09:52:44Z</time>
      </trkpt>
      <trkpt lat="45.15189" lon="4.632">
        <ele>540.9</ele>
        <time>2014-04-21T09:52:45Z</time>
      </trkpt>
      <trkpt lat="45.15193" lon="4.63204">
        <ele>540.1</ele>
        <time>2014-04-21T09:52:46Z</time>
      </trkpt>
      <trkpt lat="45.15198" lon="4.63208">
        <ele>539.3</ele>
        <time>2014-04-21T09:52:47Z</time>
      </trkpt>
      <trkpt lat="45.15202" lon="4.63212">
        <ele>538.6</ele>
        <time>2014-04-21T09:52:48Z</time>
      </trkpt>
      <trkpt lat="45.15207" lon="4.63215">
        <ele>537.9</ele>
        <time>2014-04-21T09:52:49Z</time>
      </trkpt>
      <trkpt lat="45.15212" lon="4.63217">
        <ele>537.2</ele>
        <time>2014-04-21T09:52:50Z</time>
      </trkpt>
      <trkpt lat="45.15218" lon="4.63219">
        <ele>536.4</ele>
        <time>2014-04-21T09:52:51Z</time>
      </trkpt>
      <trkpt lat="45.15223" lon="4.63221">
        <ele>535.6</ele>
        <time>2014-04-21T09:52:52Z</time>
      </trkpt>
      <trkpt lat="45.15229" lon="4.63222">
        <ele>534.8</ele>
        <time>2014-04-21T09:52:53Z</time>
      </trkpt>
      <trkpt lat="45.15235" lon="4.63222">
        <ele>534.1</ele>
        <time>2014-04-21T09:52:54Z</time>
      </trkpt>
      <trkpt lat="45.15241" lon="4.63223">
        <ele>533.3</ele>
        <time>2014-04-21T09:52:55Z</time>
      </trkpt>
      <trkpt lat="45.15247" lon="4.63224">
        <ele>532.5</ele>
        <time>2014-04-21T09:52:56Z</time>
      </trkpt>
      <trkpt lat="45.15254" lon="4.63225">
        <ele>531.6</ele>
        <time>2014-04-21T09:52:57Z</time>
      </trkpt>
      <trkpt lat="45.1526" lon="4.63226">
        <ele>530.8</ele>
        <time>2014-04-21T09:52:58Z</time>
      </trkpt>
      <trkpt lat="45.15266" lon="4.63228">
        <ele>530</ele>
        <time>2014-04-21T09:52:59Z</time>
      </trkpt>
      <trkpt lat="45.15272" lon="4.63229">
        <ele>529.2</ele>
        <time>2014-04-21T09:53:00Z</time>
      </trkpt>
      <trkpt lat="45.15279" lon="4.6323">
        <ele>528.4</ele>
        <time>2014-04-21T09:53:01Z</time>
      </trkpt>
      <trkpt lat="45.15292" lon="4.63233">
        <ele>526.9</ele>
        <time>2014-04-21T09:53:03Z</time>
      </trkpt>
      <trkpt lat="45.15299" lon="4.63235">
        <ele>526.1</ele>
        <time>2014-04-21T09:53:04Z</time>
      </trkpt>
      <trkpt lat="45.15306" lon="4.63238">
        <ele>525.4</ele>
        <time>2014-04-21T09:53:05Z</time>
      </trkpt>
      <trkpt lat="45.15313" lon="4.6324">
        <ele>524.7</ele>
        <time>2014-04-21T09:53:06Z</time>
      </trkpt>
      <trkpt lat="45.1532" lon="4.63242">
        <ele>524</ele>
        <time>2014-04-21T09:53:07Z</time>
      </trkpt>
      <trkpt lat="45.15328" lon="4.63245">
        <ele>523.3</ele>
        <time>2014-04-21T09:53:08Z</time>
      </trkpt>
      <trkpt lat="45.15335" lon="4.63247">
        <ele>522.5</ele>
        <time>2014-04-21T09:53:09Z</time>
      </trkpt>
      <trkpt lat="45.15342" lon="4.63251">
        <ele>521</ele>
        <time>2014-04-21T09:53:10Z</time>
      </trkpt>
      <trkpt lat="45.1535" lon="4.63255">
        <ele>519.5</ele>
        <time>2014-04-21T09:53:11Z</time>
      </trkpt>
      <trkpt lat="45.15358" lon="4.63259">
        <ele>518.1</ele>
        <time>2014-04-21T09:53:12Z</time>
      </trkpt>
      <trkpt lat="45.15366" lon="4.63263">
        <ele>516.8</ele>
        <time>2014-04-21T09:53:13Z</time>
      </trkpt>
      <trkpt lat="45.15375" lon="4.63267">
        <ele>515.4</ele>
        <time>2014-04-21T09:53:14Z</time>
      </trkpt>
      <trkpt lat="45.15383" lon="4.6327">
        <ele>514.1</ele>
        <time>2014-04-21T09:53:15Z</time>
      </trkpt>
      <trkpt lat="45.15391" lon="4.63274">
        <ele>512.8</ele>
        <time>2014-04-21T09:53:16Z</time>
      </trkpt>
      <trkpt lat="45.15399" lon="4.63277">
        <ele>511.7</ele>
        <time>2014-04-21T09:53:17Z</time>
      </trkpt>
      <trkpt lat="45.15407" lon="4.63281">
        <ele>510.4</ele>
        <time>2014-04-21T09:53:18Z</time>
      </trkpt>
      <trkpt lat="45.15415" lon="4.63283">
        <ele>509.2</ele>
        <time>2014-04-21T09:53:19Z</time>
      </trkpt>
      <trkpt lat="45.15422" lon="4.63284">
        <ele>507.7</ele>
        <time>2014-04-21T09:53:20Z</time>
      </trkpt>
      <trkpt lat="45.15429" lon="4.63286">
        <ele>506.1</ele>
        <time>2014-04-21T09:53:21Z</time>
      </trkpt>
      <trkpt lat="45.15434" lon="4.63288">
        <ele>505.1</ele>
        <time>2014-04-21T09:53:22Z</time>
      </trkpt>
      <trkpt lat="45.1544" lon="4.63289">
        <ele>503.6</ele>
        <time>2014-04-21T09:53:24Z</time>
      </trkpt>
      <trkpt lat="45.1544" lon="4.63281">
        <ele>502.6</ele>
        <time>2014-04-21T09:53:26Z</time>
      </trkpt>
      <trkpt lat="45.15436" lon="4.63275">
        <ele>503</ele>
        <time>2014-04-21T09:53:28Z</time>
      </trkpt>
      <trkpt lat="45.15429" lon="4.6327">
        <ele>504.1</ele>
        <time>2014-04-21T09:53:30Z</time>
      </trkpt>
      <trkpt lat="45.15425" lon="4.63266">
        <ele>504.6</ele>
        <time>2014-04-21T09:53:31Z</time>
      </trkpt>
      <trkpt lat="45.15421" lon="4.63261">
        <ele>505.1</ele>
        <time>2014-04-21T09:53:32Z</time>
      </trkpt>
      <trkpt lat="45.15417" lon="4.63256">
        <ele>505.6</ele>
        <time>2014-04-21T09:53:33Z</time>
      </trkpt>
      <trkpt lat="45.15413" lon="4.6325">
        <ele>505.7</ele>
        <time>2014-04-21T09:53:34Z</time>
      </trkpt>
      <trkpt lat="45.1541" lon="4.63243">
        <ele>505.7</ele>
        <time>2014-04-21T09:53:35Z</time>
      </trkpt>
      <trkpt lat="45.15408" lon="4.63235">
        <ele>505.6</ele>
        <time>2014-04-21T09:53:36Z</time>
      </trkpt>
      <trkpt lat="45.15405" lon="4.63226">
        <ele>505.4</ele>
        <time>2014-04-21T09:53:37Z</time>
      </trkpt>
      <trkpt lat="45.15403" lon="4.63218">
        <ele>505.2</ele>
        <time>2014-04-21T09:53:38Z</time>
      </trkpt>
      <trkpt lat="45.15401" lon="4.63209">
        <ele>504.8</ele>
        <time>2014-04-21T09:53:39Z</time>
      </trkpt>
      <trkpt lat="45.15401" lon="4.632">
        <ele>504.1</ele>
        <time>2014-04-21T09:53:40Z</time>
      </trkpt>
      <trkpt lat="45.15401" lon="4.63191">
        <ele>503.3</ele>
        <time>2014-04-21T09:53:41Z</time>
      </trkpt>
      <trkpt lat="45.15403" lon="4.63181">
        <ele>502.2</ele>
        <time>2014-04-21T09:53:42Z</time>
      </trkpt>
      <trkpt lat="45.15404" lon="4.63172">
        <ele>501.1</ele>
        <time>2014-04-21T09:53:43Z</time>
      </trkpt>
      <trkpt lat="45.15406" lon="4.63162">
        <ele>499.8</ele>
        <time>2014-04-21T09:53:44Z</time>
      </trkpt>
      <trkpt lat="45.15407" lon="4.63152">
        <ele>498.5</ele>
        <time>2014-04-21T09:53:45Z</time>
      </trkpt>
      <trkpt lat="45.15408" lon="4.63142">
        <ele>497.5</ele>
        <time>2014-04-21T09:53:46Z</time>
      </trkpt>
      <trkpt lat="45.15408" lon="4.63133">
        <ele>496.6</ele>
        <time>2014-04-21T09:53:47Z</time>
      </trkpt>
      <trkpt lat="45.15407" lon="4.63125">
        <ele>495.8</ele>
        <time>2014-04-21T09:53:48Z</time>
      </trkpt>
      <trkpt lat="45.15405" lon="4.63115">
        <ele>495.4</ele>
        <time>2014-04-21T09:53:49Z</time>
      </trkpt>
      <trkpt lat="45.15402" lon="4.63106">
        <ele>495</ele>
        <time>2014-04-21T09:53:50Z</time>
      </trkpt>
      <trkpt lat="45.15399" lon="4.63099">
        <ele>494.8</ele>
        <time>2014-04-21T09:53:51Z</time>
      </trkpt>
      <trkpt lat="45.15395" lon="4.63092">
        <ele>494.9</ele>
        <time>2014-04-21T09:53:52Z</time>
      </trkpt>
      <trkpt lat="45.15392" lon="4.63086">
        <ele>495.1</ele>
        <time>2014-04-21T09:53:53Z</time>
      </trkpt>
      <trkpt lat="45.15388" lon="4.63081">
        <ele>495.1</ele>
        <time>2014-04-21T09:53:54Z</time>
      </trkpt>
      <trkpt lat="45.15387" lon="4.63072">
        <ele>494</ele>
        <time>2014-04-21T09:53:56Z</time>
      </trkpt>
      <trkpt lat="45.15394" lon="4.63071">
        <ele>492.5</ele>
        <time>2014-04-21T09:53:58Z</time>
      </trkpt>
      <trkpt lat="45.15398" lon="4.63074">
        <ele>492.1</ele>
        <time>2014-04-21T09:53:59Z</time>
      </trkpt>
      <trkpt lat="45.15403" lon="4.63077">
        <ele>491.8</ele>
        <time>2014-04-21T09:54:00Z</time>
      </trkpt>
      <trkpt lat="45.15408" lon="4.63081">
        <ele>491.4</ele>
        <time>2014-04-21T09:54:01Z</time>
      </trkpt>
      <trkpt lat="45.15413" lon="4.63085">
        <ele>490.8</ele>
        <time>2014-04-21T09:54:02Z</time>
      </trkpt>
      <trkpt lat="45.15422" lon="4.63096">
        <ele>489.6</ele>
        <time>2014-04-21T09:54:04Z</time>
      </trkpt>
      <trkpt lat="45.15425" lon="4.63101">
        <ele>489.3</ele>
        <time>2014-04-21T09:54:05Z</time>
      </trkpt>
      <trkpt lat="45.15428" lon="4.63106">
        <ele>488.8</ele>
        <time>2014-04-21T09:54:08Z</time>
      </trkpt>
      <trkpt lat="45.1543" lon="4.63098">
        <ele>487.6</ele>
        <time>2014-04-21T09:54:14Z</time>
      </trkpt>
      <trkpt lat="45.15429" lon="4.63091">
        <ele>487.3</ele>
        <time>2014-04-21T09:54:17Z</time>
      </trkpt>
      <trkpt lat="45.15434" lon="4.6309">
        <ele>485.8</ele>
        <time>2014-04-21T09:54:21Z</time>
      </trkpt>
      <trkpt lat="45.15438" lon="4.63096">
        <ele>485.4</ele>
        <time>2014-04-21T09:54:23Z</time>
      </trkpt>
      <trkpt lat="45.15442" lon="4.63104">
        <ele>484.8</ele>
        <time>2014-04-21T09:54:25Z</time>
      </trkpt>
      <trkpt lat="45.15445" lon="4.6311">
        <ele>484.5</ele>
        <time>2014-04-21T09:54:27Z</time>
      </trkpt>
      <trkpt lat="45.15449" lon="4.63117">
        <ele>483.8</ele>
        <time>2014-04-21T09:54:30Z</time>
      </trkpt>
      <trkpt lat="45.15453" lon="4.63122">
        <ele>483.1</ele>
        <time>2014-04-21T09:54:33Z</time>
      </trkpt>
      <trkpt lat="45.15456" lon="4.63127">
        <ele>482.4</ele>
        <time>2014-04-21T09:54:36Z</time>
      </trkpt>
      <trkpt lat="45.1546" lon="4.63134">
        <ele>481.8</ele>
        <time>2014-04-21T09:54:38Z</time>
      </trkpt>
      <trkpt lat="45.15466" lon="4.63143">
        <ele>480.5</ele>
        <time>2014-04-21T09:54:40Z</time>
      </trkpt>
      <trkpt lat="45.1547" lon="4.63152">
        <ele>479.8</ele>
        <time>2014-04-21T09:54:42Z</time>
      </trkpt>
      <trkpt lat="45.15474" lon="4.63161">
        <ele>479.2</ele>
        <time>2014-04-21T09:54:44Z</time>
      </trkpt>
      <trkpt lat="45.15477" lon="4.63171">
        <ele>479</ele>
        <time>2014-04-21T09:54:46Z</time>
      </trkpt>
      <trkpt lat="45.15481" lon="4.63181">
        <ele>479.1</ele>
        <time>2014-04-21T09:54:48Z</time>
      </trkpt>
      <trkpt lat="45.15484" lon="4.63192">
        <ele>479.3</ele>
        <time>2014-04-21T09:54:50Z</time>
      </trkpt>
      <trkpt lat="45.15487" lon="4.63198">
        <ele>479.5</ele>
        <time>2014-04-21T09:54:51Z</time>
      </trkpt>
      <trkpt lat="45.15489" lon="4.63204">
        <ele>479.5</ele>
        <time>2014-04-21T09:54:52Z</time>
      </trkpt>
      <trkpt lat="45.15491" lon="4.63209">
        <ele>479.5</ele>
        <time>2014-04-21T09:54:53Z</time>
      </trkpt>
      <trkpt lat="45.15494" lon="4.63215">
        <ele>479.6</ele>
        <time>2014-04-21T09:54:54Z</time>
      </trkpt>
      <trkpt lat="45.15497" lon="4.6322">
        <ele>479.2</ele>
        <time>2014-04-21T09:54:55Z</time>
      </trkpt>
      <trkpt lat="45.155" lon="4.63225">
        <ele>479.2</ele>
        <time>2014-04-21T09:54:56Z</time>
      </trkpt>
      <trkpt lat="45.15503" lon="4.6323">
        <ele>478.9</ele>
        <time>2014-04-21T09:54:57Z</time>
      </trkpt>
      <trkpt lat="45.15507" lon="4.63236">
        <ele>478.8</ele>
        <time>2014-04-21T09:54:58Z</time>
      </trkpt>
      <trkpt lat="45.15511" lon="4.63241">
        <ele>478.2</ele>
        <time>2014-04-21T09:54:59Z</time>
      </trkpt>
      <trkpt lat="45.15515" lon="4.63247">
        <ele>477.7</ele>
        <time>2014-04-21T09:55:00Z</time>
      </trkpt>
      <trkpt lat="45.15519" lon="4.63253">
        <ele>477.1</ele>
        <time>2014-04-21T09:55:01Z</time>
      </trkpt>
      <trkpt lat="45.15524" lon="4.63259">
        <ele>476.6</ele>
        <time>2014-04-21T09:55:02Z</time>
      </trkpt>
      <trkpt lat="45.15528" lon="4.63265">
        <ele>476.1</ele>
        <time>2014-04-21T09:55:03Z</time>
      </trkpt>
      <trkpt lat="45.15539" lon="4.63277">
        <ele>474.8</ele>
        <time>2014-04-21T09:55:05Z</time>
      </trkpt>
      <trkpt lat="45.15543" lon="4.63283">
        <ele>474.4</ele>
        <time>2014-04-21T09:55:06Z</time>
      </trkpt>
      <trkpt lat="45.15547" lon="4.63288">
        <ele>473.9</ele>
        <time>2014-04-21T09:55:07Z</time>
      </trkpt>
      <trkpt lat="45.1555" lon="4.63292">
        <ele>473.6</ele>
        <time>2014-04-21T09:55:08Z</time>
      </trkpt>
      <trkpt lat="45.15557" lon="4.63299">
        <ele>472.8</ele>
        <time>2014-04-21T09:55:10Z</time>
      </trkpt>
      <trkpt lat="45.15561" lon="4.63305">
        <ele>472.4</ele>
        <time>2014-04-21T09:55:12Z</time>
      </trkpt>
      <trkpt lat="45.15565" lon="4.63309">
        <ele>472.1</ele>
        <time>2014-04-21T09:55:29Z</time>
      </trkpt>
      <trkpt lat="45.15568" lon="4.63314">
        <ele>472</ele>
        <time>2014-04-21T09:55:31Z</time>
      </trkpt>
      <trkpt lat="45.15573" lon="4.63317">
        <ele>471.1</ele>
        <time>2014-04-21T09:55:36Z</time>
      </trkpt>
      <trkpt lat="45.15575" lon="4.63324">
        <ele>471.7</ele>
        <time>2014-04-21T10:00:16Z</time>
      </trkpt>
      <trkpt lat="45.15585" lon="4.63339">
        <ele>471.7</ele>
        <time>2014-04-21T10:00:20Z</time>
      </trkpt>
      <trkpt lat="45.15589" lon="4.63342">
        <ele>471.7</ele>
        <time>2014-04-21T10:00:21Z</time>
      </trkpt>
      <trkpt lat="45.15593" lon="4.63346">
        <ele>471.9</ele>
        <time>2014-04-21T10:00:22Z</time>
      </trkpt>
      <trkpt lat="45.15597" lon="4.6335">
        <ele>472.1</ele>
        <time>2014-04-21T10:00:23Z</time>
      </trkpt>
      <trkpt lat="45.15602" lon="4.63354">
        <ele>472.5</ele>
        <time>2014-04-21T10:00:24Z</time>
      </trkpt>
      <trkpt lat="45.15606" lon="4.63359">
        <ele>472.6</ele>
        <time>2014-04-21T10:00:25Z</time>
      </trkpt>
      <trkpt lat="45.1561" lon="4.63364">
        <ele>473</ele>
        <time>2014-04-21T10:00:26Z</time>
      </trkpt>
      <trkpt lat="45.15615" lon="4.63368">
        <ele>473</ele>
        <time>2014-04-21T10:00:27Z</time>
      </trkpt>
      <trkpt lat="45.15621" lon="4.63372">
        <ele>472.9</ele>
        <time>2014-04-21T10:00:28Z</time>
      </trkpt>
      <trkpt lat="45.15626" lon="4.63376">
        <ele>472.8</ele>
        <time>2014-04-21T10:00:29Z</time>
      </trkpt>
      <trkpt lat="45.15633" lon="4.63379">
        <ele>472.6</ele>
        <time>2014-04-21T10:00:30Z</time>
      </trkpt>
      <trkpt lat="45.15639" lon="4.63383">
        <ele>472.4</ele>
        <time>2014-04-21T10:00:31Z</time>
      </trkpt>
      <trkpt lat="45.15645" lon="4.63387">
        <ele>472.2</ele>
        <time>2014-04-21T10:00:32Z</time>
      </trkpt>
      <trkpt lat="45.15651" lon="4.63393">
        <ele>472.2</ele>
        <time>2014-04-21T10:00:33Z</time>
      </trkpt>
      <trkpt lat="45.15657" lon="4.63398">
        <ele>472.3</ele>
        <time>2014-04-21T10:00:34Z</time>
      </trkpt>
      <trkpt lat="45.15664" lon="4.63404">
        <ele>472.2</ele>
        <time>2014-04-21T10:00:35Z</time>
      </trkpt>
      <trkpt lat="45.1567" lon="4.63409">
        <ele>472.1</ele>
        <time>2014-04-21T10:00:36Z</time>
      </trkpt>
      <trkpt lat="45.15677" lon="4.63414">
        <ele>471.7</ele>
        <time>2014-04-21T10:00:37Z</time>
      </trkpt>
      <trkpt lat="45.15683" lon="4.63419">
        <ele>471.4</ele>
        <time>2014-04-21T10:00:38Z</time>
      </trkpt>
      <trkpt lat="45.1569" lon="4.63423">
        <ele>470.5</ele>
        <time>2014-04-21T10:00:39Z</time>
      </trkpt>
      <trkpt lat="45.15698" lon="4.63426">
        <ele>469.3</ele>
        <time>2014-04-21T10:00:40Z</time>
      </trkpt>
      <trkpt lat="45.15706" lon="4.63427">
        <ele>467.9</ele>
        <time>2014-04-21T10:00:41Z</time>
      </trkpt>
      <trkpt lat="45.15714" lon="4.63425">
        <ele>466.5</ele>
        <time>2014-04-21T10:00:42Z</time>
      </trkpt>
      <trkpt lat="45.15723" lon="4.63422">
        <ele>464.9</ele>
        <time>2014-04-21T10:00:43Z</time>
      </trkpt>
      <trkpt lat="45.15731" lon="4.63417">
        <ele>463.2</ele>
        <time>2014-04-21T10:00:44Z</time>
      </trkpt>
      <trkpt lat="45.15738" lon="4.63411">
        <ele>461.1</ele>
        <time>2014-04-21T10:00:45Z</time>
      </trkpt>
      <trkpt lat="45.15744" lon="4.63405">
        <ele>459.4</ele>
        <time>2014-04-21T10:00:46Z</time>
      </trkpt>
      <trkpt lat="45.15751" lon="4.63402">
        <ele>457.9</ele>
        <time>2014-04-21T10:00:47Z</time>
      </trkpt>
      <trkpt lat="45.15757" lon="4.63401">
        <ele>456.9</ele>
        <time>2014-04-21T10:00:48Z</time>
      </trkpt>
      <trkpt lat="45.15763" lon="4.63402">
        <ele>456.2</ele>
        <time>2014-04-21T10:00:49Z</time>
      </trkpt>
      <trkpt lat="45.15769" lon="4.63404">
        <ele>455.6</ele>
        <time>2014-04-21T10:00:50Z</time>
      </trkpt>
      <trkpt lat="45.15776" lon="4.63407">
        <ele>454.9</ele>
        <time>2014-04-21T10:00:51Z</time>
      </trkpt>
      <trkpt lat="45.15783" lon="4.6341">
        <ele>454.1</ele>
        <time>2014-04-21T10:00:52Z</time>
      </trkpt>
      <trkpt lat="45.1579" lon="4.63413">
        <ele>453.1</ele>
        <time>2014-04-21T10:00:53Z</time>
      </trkpt>
      <trkpt lat="45.15797" lon="4.63416">
        <ele>452.1</ele>
        <time>2014-04-21T10:00:54Z</time>
      </trkpt>
      <trkpt lat="45.15804" lon="4.63417">
        <ele>450.9</ele>
        <time>2014-04-21T10:00:55Z</time>
      </trkpt>
      <trkpt lat="45.15811" lon="4.63418">
        <ele>449.8</ele>
        <time>2014-04-21T10:00:56Z</time>
      </trkpt>
      <trkpt lat="45.15819" lon="4.63419">
        <ele>448.6</ele>
        <time>2014-04-21T10:00:57Z</time>
      </trkpt>
      <trkpt lat="45.15827" lon="4.63419">
        <ele>447.3</ele>
        <time>2014-04-21T10:00:58Z</time>
      </trkpt>
      <trkpt lat="45.15834" lon="4.6342">
        <ele>446.4</ele>
        <time>2014-04-21T10:00:59Z</time>
      </trkpt>
      <trkpt lat="45.1584" lon="4.63423">
        <ele>447</ele>
        <time>2014-04-21T10:01:00Z</time>
      </trkpt>
      <trkpt lat="45.15846" lon="4.63427">
        <ele>447.6</ele>
        <time>2014-04-21T10:01:01Z</time>
      </trkpt>
      <trkpt lat="45.1585" lon="4.63432">
        <ele>448.2</ele>
        <time>2014-04-21T10:01:02Z</time>
      </trkpt>
      <trkpt lat="45.15851" lon="4.63443">
        <ele>449.3</ele>
        <time>2014-04-21T10:01:04Z</time>
      </trkpt>
      <trkpt lat="45.15845" lon="4.63453">
        <ele>450.3</ele>
        <time>2014-04-21T10:01:06Z</time>
      </trkpt>
      <trkpt lat="45.15839" lon="4.63462">
        <ele>451.6</ele>
        <time>2014-04-21T10:01:08Z</time>
      </trkpt>
      <trkpt lat="45.15836" lon="4.63467">
        <ele>452.4</ele>
        <time>2014-04-21T10:01:09Z</time>
      </trkpt>
      <trkpt lat="45.15832" lon="4.63472">
        <ele>453.4</ele>
        <time>2014-04-21T10:01:10Z</time>
      </trkpt>
      <trkpt lat="45.15828" lon="4.63478">
        <ele>454.7</ele>
        <time>2014-04-21T10:01:11Z</time>
      </trkpt>
      <trkpt lat="45.15825" lon="4.63485">
        <ele>455.9</ele>
        <time>2014-04-21T10:01:12Z</time>
      </trkpt>
      <trkpt lat="45.15822" lon="4.63491">
        <ele>457</ele>
        <time>2014-04-21T10:01:13Z</time>
      </trkpt>
      <trkpt lat="45.15819" lon="4.63498">
        <ele>458.1</ele>
        <time>2014-04-21T10:01:14Z</time>
      </trkpt>
      <trkpt lat="45.15816" lon="4.63506">
        <ele>459.4</ele>
        <time>2014-04-21T10:01:15Z</time>
      </trkpt>
      <trkpt lat="45.15815" lon="4.63514">
        <ele>461</ele>
        <time>2014-04-21T10:01:16Z</time>
      </trkpt>
      <trkpt lat="45.15814" lon="4.63523">
        <ele>462.3</ele>
        <time>2014-04-21T10:01:17Z</time>
      </trkpt>
      <trkpt lat="45.15815" lon="4.63539">
        <ele>464.9</ele>
        <time>2014-04-21T10:01:19Z</time>
      </trkpt>
      <trkpt lat="45.15816" lon="4.63547">
        <ele>466</ele>
        <time>2014-04-21T10:01:20Z</time>
      </trkpt>
      <trkpt lat="45.15822" lon="4.63555">
        <ele>467.1</ele>
        <time>2014-04-21T10:01:22Z</time>
      </trkpt>
      <trkpt lat="45.15828" lon="4.63553">
        <ele>466.5</ele>
        <time>2014-04-21T10:01:24Z</time>
      </trkpt>
      <trkpt lat="45.15832" lon="4.63547">
        <ele>465.5</ele>
        <time>2014-04-21T10:01:26Z</time>
      </trkpt>
      <trkpt lat="45.15837" lon="4.63541">
        <ele>463.6</ele>
        <time>2014-04-21T10:01:28Z</time>
      </trkpt>
      <trkpt lat="45.15843" lon="4.63536">
        <ele>461.9</ele>
        <time>2014-04-21T10:01:30Z</time>
      </trkpt>
      <trkpt lat="45.15848" lon="4.63533">
        <ele>460.7</ele>
        <time>2014-04-21T10:01:32Z</time>
      </trkpt>
      <trkpt lat="45.15854" lon="4.63529">
        <ele>459.2</ele>
        <time>2014-04-21T10:01:34Z</time>
      </trkpt>
      <trkpt lat="45.1586" lon="4.63527">
        <ele>458</ele>
        <time>2014-04-21T10:01:36Z</time>
      </trkpt>
      <trkpt lat="45.15866" lon="4.63524">
        <ele>456.8</ele>
        <time>2014-04-21T10:01:38Z</time>
      </trkpt>
      <trkpt lat="45.15872" lon="4.63523">
        <ele>455.8</ele>
        <time>2014-04-21T10:01:40Z</time>
      </trkpt>
      <trkpt lat="45.15878" lon="4.63522">
        <ele>455</ele>
        <time>2014-04-21T10:01:42Z</time>
      </trkpt>
      <trkpt lat="45.15884" lon="4.63522">
        <ele>454.2</ele>
        <time>2014-04-21T10:01:44Z</time>
      </trkpt>
      <trkpt lat="45.15889" lon="4.63524">
        <ele>453.7</ele>
        <time>2014-04-21T10:01:46Z</time>
      </trkpt>
      <trkpt lat="45.15894" lon="4.63526">
        <ele>453.2</ele>
        <time>2014-04-21T10:01:48Z</time>
      </trkpt>
      <trkpt lat="45.15898" lon="4.63529">
        <ele>453</ele>
        <time>2014-04-21T10:01:50Z</time>
      </trkpt>
      <trkpt lat="45.15903" lon="4.63532">
        <ele>452.6</ele>
        <time>2014-04-21T10:01:52Z</time>
      </trkpt>
      <trkpt lat="45.15907" lon="4.63535">
        <ele>452.5</ele>
        <time>2014-04-21T10:01:54Z</time>
      </trkpt>
      <trkpt lat="45.15911" lon="4.63538">
        <ele>452.1</ele>
        <time>2014-04-21T10:01:56Z</time>
      </trkpt>
      <trkpt lat="45.15916" lon="4.63543">
        <ele>451.7</ele>
        <time>2014-04-21T10:01:59Z</time>
      </trkpt>
      <trkpt lat="45.15922" lon="4.63548">
        <ele>451.8</ele>
        <time>2014-04-21T10:02:02Z</time>
      </trkpt>
      <trkpt lat="45.15925" lon="4.63553">
        <ele>451.9</ele>
        <time>2014-04-21T10:02:04Z</time>
      </trkpt>
      <trkpt lat="45.15929" lon="4.6356">
        <ele>452.1</ele>
        <time>2014-04-21T10:02:07Z</time>
      </trkpt>
      <trkpt lat="45.15931" lon="4.63569">
        <ele>452.5</ele>
        <time>2014-04-21T10:02:10Z</time>
      </trkpt>
      <trkpt lat="45.15933" lon="4.63575">
        <ele>452.7</ele>
        <time>2014-04-21T10:02:12Z</time>
      </trkpt>
      <trkpt lat="45.15932" lon="4.63585">
        <ele>453.3</ele>
        <time>2014-04-21T10:02:15Z</time>
      </trkpt>
      <trkpt lat="45.1593" lon="4.63591">
        <ele>454</ele>
        <time>2014-04-21T10:02:17Z</time>
      </trkpt>
      <trkpt lat="45.15928" lon="4.63599">
        <ele>455</ele>
        <time>2014-04-21T10:02:20Z</time>
      </trkpt>
      <trkpt lat="45.1592" lon="4.63611">
        <ele>457.1</ele>
        <time>2014-04-21T10:02:26Z</time>
      </trkpt>
      <trkpt lat="45.15916" lon="4.63615">
        <ele>458.1</ele>
        <time>2014-04-21T10:02:29Z</time>
      </trkpt>
      <trkpt lat="45.15911" lon="4.63618">
        <ele>459.4</ele>
        <time>2014-04-21T10:02:32Z</time>
      </trkpt>
      <trkpt lat="45.15906" lon="4.63621">
        <ele>460.6</ele>
        <time>2014-04-21T10:02:35Z</time>
      </trkpt>
      <trkpt lat="45.15903" lon="4.63628">
        <ele>461.7</ele>
        <time>2014-04-21T10:02:38Z</time>
      </trkpt>
      <trkpt lat="45.15904" lon="4.63638">
        <ele>462.6</ele>
        <time>2014-04-21T10:02:41Z</time>
      </trkpt>
      <trkpt lat="45.15905" lon="4.63646">
        <ele>463.1</ele>
        <time>2014-04-21T10:02:43Z</time>
      </trkpt>
      <trkpt lat="45.15907" lon="4.63656">
        <ele>463.6</ele>
        <time>2014-04-21T10:02:45Z</time>
      </trkpt>
      <trkpt lat="45.15909" lon="4.63666">
        <ele>464.2</ele>
        <time>2014-04-21T10:02:47Z</time>
      </trkpt>
      <trkpt lat="45.1591" lon="4.63677">
        <ele>464.3</ele>
        <time>2014-04-21T10:02:49Z</time>
      </trkpt>
      <trkpt lat="45.15911" lon="4.63688">
        <ele>464.4</ele>
        <time>2014-04-21T10:02:51Z</time>
      </trkpt>
      <trkpt lat="45.15912" lon="4.637">
        <ele>464.5</ele>
        <time>2014-04-21T10:02:53Z</time>
      </trkpt>
      <trkpt lat="45.15913" lon="4.63712">
        <ele>464.6</ele>
        <time>2014-04-21T10:02:55Z</time>
      </trkpt>
      <trkpt lat="45.15915" lon="4.63725">
        <ele>464.7</ele>
        <time>2014-04-21T10:02:57Z</time>
      </trkpt>
      <trkpt lat="45.15916" lon="4.63736">
        <ele>464.7</ele>
        <time>2014-04-21T10:02:59Z</time>
      </trkpt>
      <trkpt lat="45.15918" lon="4.63748">
        <ele>464.8</ele>
        <time>2014-04-21T10:03:01Z</time>
      </trkpt>
      <trkpt lat="45.15919" lon="4.6376">
        <ele>464.6</ele>
        <time>2014-04-21T10:03:03Z</time>
      </trkpt>
      <trkpt lat="45.15921" lon="4.63771">
        <ele>464.4</ele>
        <time>2014-04-21T10:03:05Z</time>
      </trkpt>
      <trkpt lat="45.15922" lon="4.63782">
        <ele>464.1</ele>
        <time>2014-04-21T10:03:07Z</time>
      </trkpt>
      <trkpt lat="45.15924" lon="4.63793">
        <ele>463.8</ele>
        <time>2014-04-21T10:03:09Z</time>
      </trkpt>
      <trkpt lat="45.15926" lon="4.63804">
        <ele>463.5</ele>
        <time>2014-04-21T10:03:11Z</time>
      </trkpt>
      <trkpt lat="45.15929" lon="4.63816">
        <ele>463.1</ele>
        <time>2014-04-21T10:03:13Z</time>
      </trkpt>
      <trkpt lat="45.15931" lon="4.63827">
        <ele>462.7</ele>
        <time>2014-04-21T10:03:15Z</time>
      </trkpt>
      <trkpt lat="45.15934" lon="4.63838">
        <ele>462.5</ele>
        <time>2014-04-21T10:03:17Z</time>
      </trkpt>
      <trkpt lat="45.15937" lon="4.63848">
        <ele>462.5</ele>
        <time>2014-04-21T10:03:19Z</time>
      </trkpt>
      <trkpt lat="45.1594" lon="4.63859">
        <ele>462.6</ele>
        <time>2014-04-21T10:03:21Z</time>
      </trkpt>
      <trkpt lat="45.15946" lon="4.63879">
        <ele>462.9</ele>
        <time>2014-04-21T10:03:25Z</time>
      </trkpt>
      <trkpt lat="45.15948" lon="4.6389">
        <ele>463.2</ele>
        <time>2014-04-21T10:03:27Z</time>
      </trkpt>
      <trkpt lat="45.1595" lon="4.639">
        <ele>463.5</ele>
        <time>2014-04-21T10:03:29Z</time>
      </trkpt>
      <trkpt lat="45.15952" lon="4.6391">
        <ele>463.8</ele>
        <time>2014-04-21T10:03:31Z</time>
      </trkpt>
      <trkpt lat="45.15955" lon="4.6392">
        <ele>464.1</ele>
        <time>2014-04-21T10:03:33Z</time>
      </trkpt>
      <trkpt lat="45.15956" lon="4.63929">
        <ele>464.5</ele>
        <time>2014-04-21T10:03:35Z</time>
      </trkpt>
      <trkpt lat="45.15958" lon="4.63939">
        <ele>464.9</ele>
        <time>2014-04-21T10:03:37Z</time>
      </trkpt>
      <trkpt lat="45.15959" lon="4.63948">
        <ele>465.4</ele>
        <time>2014-04-21T10:03:39Z</time>
      </trkpt>
      <trkpt lat="45.15959" lon="4.63957">
        <ele>466</ele>
        <time>2014-04-21T10:03:41Z</time>
      </trkpt>
      <trkpt lat="45.15958" lon="4.63965">
        <ele>466.7</ele>
        <time>2014-04-21T10:03:43Z</time>
      </trkpt>
      <trkpt lat="45.15954" lon="4.63972">
        <ele>467.5</ele>
        <time>2014-04-21T10:03:45Z</time>
      </trkpt>
      <trkpt lat="45.1595" lon="4.63976">
        <ele>468.1</ele>
        <time>2014-04-21T10:03:47Z</time>
      </trkpt>
      <trkpt lat="45.15945" lon="4.63979">
        <ele>468.6</ele>
        <time>2014-04-21T10:03:49Z</time>
      </trkpt>
      <trkpt lat="45.15941" lon="4.63981">
        <ele>469.1</ele>
        <time>2014-04-21T10:03:51Z</time>
      </trkpt>
      <trkpt lat="45.15937" lon="4.63984">
        <ele>469.6</ele>
        <time>2014-04-21T10:03:53Z</time>
      </trkpt>
      <trkpt lat="45.15931" lon="4.63988">
        <ele>470.3</ele>
        <time>2014-04-21T10:03:56Z</time>
      </trkpt>
      <trkpt lat="45.15925" lon="4.63992">
        <ele>471</ele>
        <time>2014-04-21T10:03:59Z</time>
      </trkpt>
      <trkpt lat="45.1592" lon="4.63995">
        <ele>471.4</ele>
        <time>2014-04-21T10:04:01Z</time>
      </trkpt>
      <trkpt lat="45.15916" lon="4.63997">
        <ele>472</ele>
        <time>2014-04-21T10:04:03Z</time>
      </trkpt>
      <trkpt lat="45.15911" lon="4.64003">
        <ele>473</ele>
        <time>2014-04-21T10:04:06Z</time>
      </trkpt>
      <trkpt lat="45.15908" lon="4.64008">
        <ele>473.7</ele>
        <time>2014-04-21T10:04:09Z</time>
      </trkpt>
      <trkpt lat="45.15905" lon="4.64016">
        <ele>474.5</ele>
        <time>2014-04-21T10:04:12Z</time>
      </trkpt>
      <trkpt lat="45.15902" lon="4.64024">
        <ele>475.1</ele>
        <time>2014-04-21T10:04:15Z</time>
      </trkpt>
      <trkpt lat="45.15902" lon="4.64033">
        <ele>475.5</ele>
        <time>2014-04-21T10:04:18Z</time>
      </trkpt>
      <trkpt lat="45.15903" lon="4.64042">
        <ele>475.8</ele>
        <time>2014-04-21T10:04:21Z</time>
      </trkpt>
      <trkpt lat="45.15904" lon="4.64052">
        <ele>475.9</ele>
        <time>2014-04-21T10:04:24Z</time>
      </trkpt>
      <trkpt lat="45.15908" lon="4.64066">
        <ele>475.8</ele>
        <time>2014-04-21T10:04:29Z</time>
      </trkpt>
      <trkpt lat="45.15909" lon="4.64075">
        <ele>476</ele>
        <time>2014-04-21T10:04:32Z</time>
      </trkpt>
      <trkpt lat="45.1591" lon="4.64082">
        <ele>476</ele>
        <time>2014-04-21T10:04:35Z</time>
      </trkpt>
      <trkpt lat="45.15912" lon="4.6409">
        <ele>476.4</ele>
        <time>2014-04-21T10:04:38Z</time>
      </trkpt>
      <trkpt lat="45.15914" lon="4.64097">
        <ele>476.5</ele>
        <time>2014-04-21T10:04:41Z</time>
      </trkpt>
      <trkpt lat="45.15916" lon="4.64104">
        <ele>476.9</ele>
        <time>2014-04-21T10:04:44Z</time>
      </trkpt>
      <trkpt lat="45.15917" lon="4.64112">
        <ele>477.4</ele>
        <time>2014-04-21T10:04:47Z</time>
      </trkpt>
      <trkpt lat="45.1592" lon="4.64121">
        <ele>477.8</ele>
        <time>2014-04-21T10:04:50Z</time>
      </trkpt>
      <trkpt lat="45.15922" lon="4.64127">
        <ele>478.2</ele>
        <time>2014-04-21T10:04:52Z</time>
      </trkpt>
      <trkpt lat="45.15924" lon="4.64133">
        <ele>478.6</ele>
        <time>2014-04-21T10:04:54Z</time>
      </trkpt>
      <trkpt lat="45.15926" lon="4.64142">
        <ele>479.1</ele>
        <time>2014-04-21T10:04:57Z</time>
      </trkpt>
      <trkpt lat="45.15928" lon="4.64148">
        <ele>479.5</ele>
        <time>2014-04-21T10:04:59Z</time>
      </trkpt>
      <trkpt lat="45.1593" lon="4.64155">
        <ele>479.7</ele>
        <time>2014-04-21T10:05:01Z</time>
      </trkpt>
      <trkpt lat="45.15933" lon="4.64161">
        <ele>480</ele>
        <time>2014-04-21T10:05:03Z</time>
      </trkpt>
      <trkpt lat="45.15936" lon="4.64168">
        <ele>480.2</ele>
        <time>2014-04-21T10:05:05Z</time>
      </trkpt>
      <trkpt lat="45.15939" lon="4.64175">
        <ele>480.4</ele>
        <time>2014-04-21T10:05:07Z</time>
      </trkpt>
      <trkpt lat="45.15943" lon="4.64184">
        <ele>480.7</ele>
        <time>2014-04-21T10:05:09Z</time>
      </trkpt>
      <trkpt lat="45.15947" lon="4.64192">
        <ele>480.9</ele>
        <time>2014-04-21T10:05:11Z</time>
      </trkpt>
      <trkpt lat="45.1595" lon="4.64201">
        <ele>481.2</ele>
        <time>2014-04-21T10:05:13Z</time>
      </trkpt>
      <trkpt lat="45.15954" lon="4.6421">
        <ele>481.5</ele>
        <time>2014-04-21T10:05:15Z</time>
      </trkpt>
      <trkpt lat="45.15957" lon="4.64219">
        <ele>481.8</ele>
        <time>2014-04-21T10:05:17Z</time>
      </trkpt>
      <trkpt lat="45.1596" lon="4.64229">
        <ele>482.2</ele>
        <time>2014-04-21T10:05:19Z</time>
      </trkpt>
      <trkpt lat="45.15962" lon="4.64239">
        <ele>482.8</ele>
        <time>2014-04-21T10:05:21Z</time>
      </trkpt>
      <trkpt lat="45.15962" lon="4.64249">
        <ele>483.6</ele>
        <time>2014-04-21T10:05:23Z</time>
      </trkpt>
      <trkpt lat="45.1596" lon="4.64258">
        <ele>484</ele>
        <time>2014-04-21T10:05:25Z</time>
      </trkpt>
      <trkpt lat="45.15951" lon="4.64273">
        <ele>485</ele>
        <time>2014-04-21T10:05:29Z</time>
      </trkpt>
      <trkpt lat="45.15947" lon="4.64277">
        <ele>485.6</ele>
        <time>2014-04-21T10:05:31Z</time>
      </trkpt>
      <trkpt lat="45.15944" lon="4.64283">
        <ele>485.9</ele>
        <time>2014-04-21T10:05:33Z</time>
      </trkpt>
      <trkpt lat="45.15948" lon="4.64287">
        <ele>485.6</ele>
        <time>2014-04-21T10:05:36Z</time>
      </trkpt>
      <trkpt lat="45.15954" lon="4.64288">
        <ele>485.1</ele>
        <time>2014-04-21T10:05:38Z</time>
      </trkpt>
      <trkpt lat="45.1596" lon="4.64292">
        <ele>484.6</ele>
        <time>2014-04-21T10:05:40Z</time>
      </trkpt>
      <trkpt lat="45.15962" lon="4.64304">
        <ele>484.6</ele>
        <time>2014-04-21T10:05:42Z</time>
      </trkpt>
      <trkpt lat="45.15962" lon="4.64311">
        <ele>484.8</ele>
        <time>2014-04-21T10:05:43Z</time>
      </trkpt>
      <trkpt lat="45.15962" lon="4.64318">
        <ele>484.9</ele>
        <time>2014-04-21T10:05:44Z</time>
      </trkpt>
      <trkpt lat="45.15962" lon="4.64326">
        <ele>485.1</ele>
        <time>2014-04-21T10:05:45Z</time>
      </trkpt>
      <trkpt lat="45.15962" lon="4.64333">
        <ele>485.1</ele>
        <time>2014-04-21T10:05:46Z</time>
      </trkpt>
      <trkpt lat="45.15962" lon="4.6434">
        <ele>484.9</ele>
        <time>2014-04-21T10:05:47Z</time>
      </trkpt>
      <trkpt lat="45.15963" lon="4.64346">
        <ele>484.6</ele>
        <time>2014-04-21T10:05:48Z</time>
      </trkpt>
      <trkpt lat="45.15965" lon="4.64359">
        <ele>484</ele>
        <time>2014-04-21T10:05:50Z</time>
      </trkpt>
      <trkpt lat="45.15967" lon="4.64365">
        <ele>483.6</ele>
        <time>2014-04-21T10:05:51Z</time>
      </trkpt>
      <trkpt lat="45.15969" lon="4.64371">
        <ele>483.2</ele>
        <time>2014-04-21T10:05:52Z</time>
      </trkpt>
      <trkpt lat="45.15971" lon="4.64378">
        <ele>482.8</ele>
        <time>2014-04-21T10:05:53Z</time>
      </trkpt>
      <trkpt lat="45.15974" lon="4.64384">
        <ele>482.4</ele>
        <time>2014-04-21T10:05:54Z</time>
      </trkpt>
      <trkpt lat="45.15977" lon="4.64389">
        <ele>482</ele>
        <time>2014-04-21T10:05:55Z</time>
      </trkpt>
      <trkpt lat="45.15979" lon="4.64395">
        <ele>481.5</ele>
        <time>2014-04-21T10:05:56Z</time>
      </trkpt>
      <trkpt lat="45.15982" lon="4.644">
        <ele>481.1</ele>
        <time>2014-04-21T10:05:57Z</time>
      </trkpt>
      <trkpt lat="45.15984" lon="4.64406">
        <ele>480.8</ele>
        <time>2014-04-21T10:05:58Z</time>
      </trkpt>
      <trkpt lat="45.15989" lon="4.64417">
        <ele>479.9</ele>
        <time>2014-04-21T10:06:00Z</time>
      </trkpt>
      <trkpt lat="45.15992" lon="4.64421">
        <ele>479.4</ele>
        <time>2014-04-21T10:06:01Z</time>
      </trkpt>
      <trkpt lat="45.15999" lon="4.6443">
        <ele>478.3</ele>
        <time>2014-04-21T10:06:03Z</time>
      </trkpt>
      <trkpt lat="45.16003" lon="4.64434">
        <ele>477.5</ele>
        <time>2014-04-21T10:06:04Z</time>
      </trkpt>
      <trkpt lat="45.16007" lon="4.64438">
        <ele>476.7</ele>
        <time>2014-04-21T10:06:05Z</time>
      </trkpt>
      <trkpt lat="45.1601" lon="4.64443">
        <ele>475.8</ele>
        <time>2014-04-21T10:06:06Z</time>
      </trkpt>
      <trkpt lat="45.16014" lon="4.64448">
        <ele>474.7</ele>
        <time>2014-04-21T10:06:07Z</time>
      </trkpt>
      <trkpt lat="45.16019" lon="4.64451">
        <ele>473.8</ele>
        <time>2014-04-21T10:06:08Z</time>
      </trkpt>
      <trkpt lat="45.16024" lon="4.64453">
        <ele>472.7</ele>
        <time>2014-04-21T10:06:09Z</time>
      </trkpt>
      <trkpt lat="45.1603" lon="4.64458">
        <ele>471.4</ele>
        <time>2014-04-21T10:06:10Z</time>
      </trkpt>
      <trkpt lat="45.16035" lon="4.64463">
        <ele>469.9</ele>
        <time>2014-04-21T10:06:11Z</time>
      </trkpt>
      <trkpt lat="45.1604" lon="4.6447">
        <ele>468.5</ele>
        <time>2014-04-21T10:06:12Z</time>
      </trkpt>
      <trkpt lat="45.16045" lon="4.64478">
        <ele>466.9</ele>
        <time>2014-04-21T10:06:13Z</time>
      </trkpt>
      <trkpt lat="45.16049" lon="4.64486">
        <ele>465.3</ele>
        <time>2014-04-21T10:06:14Z</time>
      </trkpt>
      <trkpt lat="45.16054" lon="4.64494">
        <ele>463.7</ele>
        <time>2014-04-21T10:06:15Z</time>
      </trkpt>
      <trkpt lat="45.16058" lon="4.64501">
        <ele>462.1</ele>
        <time>2014-04-21T10:06:16Z</time>
      </trkpt>
      <trkpt lat="45.16063" lon="4.64507">
        <ele>461</ele>
        <time>2014-04-21T10:06:17Z</time>
      </trkpt>
      <trkpt lat="45.16067" lon="4.64513">
        <ele>460.2</ele>
        <time>2014-04-21T10:06:18Z</time>
      </trkpt>
      <trkpt lat="45.16067" lon="4.64524">
        <ele>459.9</ele>
        <time>2014-04-21T10:06:20Z</time>
      </trkpt>
      <trkpt lat="45.16064" lon="4.64535">
        <ele>460.2</ele>
        <time>2014-04-21T10:06:22Z</time>
      </trkpt>
      <trkpt lat="45.16057" lon="4.6454">
        <ele>461.1</ele>
        <time>2014-04-21T10:06:24Z</time>
      </trkpt>
      <trkpt lat="45.1605" lon="4.64538">
        <ele>462.4</ele>
        <time>2014-04-21T10:06:26Z</time>
      </trkpt>
      <trkpt lat="45.16033" lon="4.64538">
        <ele>465.1</ele>
        <time>2014-04-21T10:06:30Z</time>
      </trkpt>
      <trkpt lat="45.16028" lon="4.64541">
        <ele>465.7</ele>
        <time>2014-04-21T10:06:31Z</time>
      </trkpt>
      <trkpt lat="45.16024" lon="4.64544">
        <ele>466.1</ele>
        <time>2014-04-21T10:06:32Z</time>
      </trkpt>
      <trkpt lat="45.16021" lon="4.6455">
        <ele>466.1</ele>
        <time>2014-04-21T10:06:33Z</time>
      </trkpt>
      <trkpt lat="45.16019" lon="4.64563">
        <ele>465.4</ele>
        <time>2014-04-21T10:06:35Z</time>
      </trkpt>
      <trkpt lat="45.1602" lon="4.6457">
        <ele>464.8</ele>
        <time>2014-04-21T10:06:36Z</time>
      </trkpt>
      <trkpt lat="45.1602" lon="4.64577">
        <ele>464.3</ele>
        <time>2014-04-21T10:06:37Z</time>
      </trkpt>
      <trkpt lat="45.16023" lon="4.64588">
        <ele>463.2</ele>
        <time>2014-04-21T10:06:39Z</time>
      </trkpt>
      <trkpt lat="45.16027" lon="4.64598">
        <ele>461.8</ele>
        <time>2014-04-21T10:06:41Z</time>
      </trkpt>
      <trkpt lat="45.16031" lon="4.64606">
        <ele>460.8</ele>
        <time>2014-04-21T10:06:43Z</time>
      </trkpt>
      <trkpt lat="45.16033" lon="4.64614">
        <ele>459.9</ele>
        <time>2014-04-21T10:06:45Z</time>
      </trkpt>
      <trkpt lat="45.16037" lon="4.64622">
        <ele>458.7</ele>
        <time>2014-04-21T10:06:47Z</time>
      </trkpt>
      <trkpt lat="45.16042" lon="4.64634">
        <ele>457</ele>
        <time>2014-04-21T10:06:49Z</time>
      </trkpt>
      <trkpt lat="45.16046" lon="4.6464">
        <ele>455.9</ele>
        <time>2014-04-21T10:06:50Z</time>
      </trkpt>
      <trkpt lat="45.1605" lon="4.64648">
        <ele>454.6</ele>
        <time>2014-04-21T10:06:51Z</time>
      </trkpt>
      <trkpt lat="45.16055" lon="4.64656">
        <ele>453.1</ele>
        <time>2014-04-21T10:06:52Z</time>
      </trkpt>
      <trkpt lat="45.16059" lon="4.64666">
        <ele>451.6</ele>
        <time>2014-04-21T10:06:53Z</time>
      </trkpt>
      <trkpt lat="45.16064" lon="4.64676">
        <ele>450.3</ele>
        <time>2014-04-21T10:06:54Z</time>
      </trkpt>
      <trkpt lat="45.16068" lon="4.64686">
        <ele>449.2</ele>
        <time>2014-04-21T10:06:55Z</time>
      </trkpt>
      <trkpt lat="45.16073" lon="4.64696">
        <ele>447.9</ele>
        <time>2014-04-21T10:06:56Z</time>
      </trkpt>
      <trkpt lat="45.16077" lon="4.64705">
        <ele>446.6</ele>
        <time>2014-04-21T10:06:57Z</time>
      </trkpt>
      <trkpt lat="45.16082" lon="4.64712">
        <ele>445.4</ele>
        <time>2014-04-21T10:06:58Z</time>
      </trkpt>
      <trkpt lat="45.16087" lon="4.64719">
        <ele>444.3</ele>
        <time>2014-04-21T10:06:59Z</time>
      </trkpt>
      <trkpt lat="45.16092" lon="4.64726">
        <ele>443.2</ele>
        <time>2014-04-21T10:07:00Z</time>
      </trkpt>
      <trkpt lat="45.16096" lon="4.64733">
        <ele>442.2</ele>
        <time>2014-04-21T10:07:01Z</time>
      </trkpt>
      <trkpt lat="45.16101" lon="4.6474">
        <ele>441.2</ele>
        <time>2014-04-21T10:07:02Z</time>
      </trkpt>
      <trkpt lat="45.16105" lon="4.64745">
        <ele>440.3</ele>
        <time>2014-04-21T10:07:03Z</time>
      </trkpt>
      <trkpt lat="45.16109" lon="4.64751">
        <ele>439.6</ele>
        <time>2014-04-21T10:07:04Z</time>
      </trkpt>
      <trkpt lat="45.16113" lon="4.64756">
        <ele>438.9</ele>
        <time>2014-04-21T10:07:05Z</time>
      </trkpt>
      <trkpt lat="45.16116" lon="4.64761">
        <ele>438.3</ele>
        <time>2014-04-21T10:07:06Z</time>
      </trkpt>
      <trkpt lat="45.16122" lon="4.64771">
        <ele>437.2</ele>
        <time>2014-04-21T10:07:08Z</time>
      </trkpt>
      <trkpt lat="45.16125" lon="4.64776">
        <ele>436.6</ele>
        <time>2014-04-21T10:07:09Z</time>
      </trkpt>
      <trkpt lat="45.16128" lon="4.64782">
        <ele>436</ele>
        <time>2014-04-21T10:07:10Z</time>
      </trkpt>
      <trkpt lat="45.16131" lon="4.64788">
        <ele>435.4</ele>
        <time>2014-04-21T10:07:11Z</time>
      </trkpt>
      <trkpt lat="45.16134" lon="4.64795">
        <ele>434.9</ele>
        <time>2014-04-21T10:07:12Z</time>
      </trkpt>
      <trkpt lat="45.16136" lon="4.64802">
        <ele>434.4</ele>
        <time>2014-04-21T10:07:13Z</time>
      </trkpt>
      <trkpt lat="45.16138" lon="4.6481">
        <ele>433.9</ele>
        <time>2014-04-21T10:07:14Z</time>
      </trkpt>
      <trkpt lat="45.1614" lon="4.64818">
        <ele>433.4</ele>
        <time>2014-04-21T10:07:15Z</time>
      </trkpt>
      <trkpt lat="45.16143" lon="4.64825">
        <ele>432.8</ele>
        <time>2014-04-21T10:07:16Z</time>
      </trkpt>
      <trkpt lat="45.16147" lon="4.64832">
        <ele>432.3</ele>
        <time>2014-04-21T10:07:17Z</time>
      </trkpt>
      <trkpt lat="45.1615" lon="4.64837">
        <ele>431.8</ele>
        <time>2014-04-21T10:07:18Z</time>
      </trkpt>
      <trkpt lat="45.16154" lon="4.64842">
        <ele>431.3</ele>
        <time>2014-04-21T10:07:19Z</time>
      </trkpt>
      <trkpt lat="45.16157" lon="4.64846">
        <ele>430.9</ele>
        <time>2014-04-21T10:07:20Z</time>
      </trkpt>
      <trkpt lat="45.16161" lon="4.64852">
        <ele>430.5</ele>
        <time>2014-04-21T10:07:21Z</time>
      </trkpt>
      <trkpt lat="45.16164" lon="4.64857">
        <ele>430</ele>
        <time>2014-04-21T10:07:22Z</time>
      </trkpt>
      <trkpt lat="45.16167" lon="4.64862">
        <ele>429.7</ele>
        <time>2014-04-21T10:07:23Z</time>
      </trkpt>
      <trkpt lat="45.16173" lon="4.6487">
        <ele>430.6</ele>
        <time>2014-04-21T10:07:25Z</time>
      </trkpt>
      <trkpt lat="45.16179" lon="4.64873">
        <ele>431.8</ele>
        <time>2014-04-21T10:07:27Z</time>
      </trkpt>
      <trkpt lat="45.16186" lon="4.64885">
        <ele>433</ele>
        <time>2014-04-21T10:07:30Z</time>
      </trkpt>
      <trkpt lat="45.16191" lon="4.64895">
        <ele>433.8</ele>
        <time>2014-04-21T10:07:32Z</time>
      </trkpt>
      <trkpt lat="45.16195" lon="4.64905">
        <ele>434.5</ele>
        <time>2014-04-21T10:07:34Z</time>
      </trkpt>
      <trkpt lat="45.16196" lon="4.64911">
        <ele>434.7</ele>
        <time>2014-04-21T10:07:43Z</time>
      </trkpt>
      <trkpt lat="45.16198" lon="4.64918">
        <ele>434.9</ele>
        <time>2014-04-21T10:07:45Z</time>
      </trkpt>
      <trkpt lat="45.16202" lon="4.64927">
        <ele>435.4</ele>
        <time>2014-04-21T10:07:47Z</time>
      </trkpt>
      <trkpt lat="45.16205" lon="4.64932">
        <ele>435.8</ele>
        <time>2014-04-21T10:07:48Z</time>
      </trkpt>
      <trkpt lat="45.16208" lon="4.64937">
        <ele>436.2</ele>
        <time>2014-04-21T10:07:49Z</time>
      </trkpt>
      <trkpt lat="45.16211" lon="4.64942">
        <ele>436.5</ele>
        <time>2014-04-21T10:07:50Z</time>
      </trkpt>
      <trkpt lat="45.16213" lon="4.64947">
        <ele>436.8</ele>
        <time>2014-04-21T10:07:51Z</time>
      </trkpt>
      <trkpt lat="45.16216" lon="4.64953">
        <ele>437</ele>
        <time>2014-04-21T10:07:52Z</time>
      </trkpt>
      <trkpt lat="45.16219" lon="4.64965">
        <ele>437.1</ele>
        <time>2014-04-21T10:07:54Z</time>
      </trkpt>
      <trkpt lat="45.16221" lon="4.64976">
        <ele>436.9</ele>
        <time>2014-04-21T10:07:56Z</time>
      </trkpt>
      <trkpt lat="45.16223" lon="4.64982">
        <ele>436.9</ele>
        <time>2014-04-21T10:07:57Z</time>
      </trkpt>
      <trkpt lat="45.16225" lon="4.64988">
        <ele>436.9</ele>
        <time>2014-04-21T10:07:58Z</time>
      </trkpt>
      <trkpt lat="45.16228" lon="4.64998">
        <ele>436.9</ele>
        <time>2014-04-21T10:08:00Z</time>
      </trkpt>
      <trkpt lat="45.16231" lon="4.65007">
        <ele>437.1</ele>
        <time>2014-04-21T10:08:02Z</time>
      </trkpt>
      <trkpt lat="45.16234" lon="4.65013">
        <ele>437.5</ele>
        <time>2014-04-21T10:08:04Z</time>
      </trkpt>
      <trkpt lat="45.16238" lon="4.65021">
        <ele>437.8</ele>
        <time>2014-04-21T10:08:07Z</time>
      </trkpt>
      <trkpt lat="45.16242" lon="4.65028">
        <ele>438.3</ele>
        <time>2014-04-21T10:08:10Z</time>
      </trkpt>
      <trkpt lat="45.16246" lon="4.65031">
        <ele>438.7</ele>
        <time>2014-04-21T10:08:12Z</time>
      </trkpt>
      <trkpt lat="45.1625" lon="4.65035">
        <ele>439.2</ele>
        <time>2014-04-21T10:08:15Z</time>
      </trkpt>
      <trkpt lat="45.16254" lon="4.6504">
        <ele>440.2</ele>
        <time>2014-04-21T10:08:18Z</time>
      </trkpt>
      <trkpt lat="45.16258" lon="4.65045">
        <ele>441</ele>
        <time>2014-04-21T10:08:21Z</time>
      </trkpt>
      <trkpt lat="45.16261" lon="4.6505">
        <ele>441.7</ele>
        <time>2014-04-21T10:08:24Z</time>
      </trkpt>
      <trkpt lat="45.16264" lon="4.65058">
        <ele>442.2</ele>
        <time>2014-04-21T10:08:26Z</time>
      </trkpt>
      <trkpt lat="45.16265" lon="4.65069">
        <ele>442.1</ele>
        <time>2014-04-21T10:08:28Z</time>
      </trkpt>
      <trkpt lat="45.16264" lon="4.6509">
        <ele>441</ele>
        <time>2014-04-21T10:08:32Z</time>
      </trkpt>
      <trkpt lat="45.16264" lon="4.65099">
        <ele>440.4</ele>
        <time>2014-04-21T10:08:34Z</time>
      </trkpt>
      <trkpt lat="45.16269" lon="4.651">
        <ele>441.5</ele>
        <time>2014-04-21T10:08:38Z</time>
      </trkpt>
      <trkpt lat="45.16274" lon="4.65101">
        <ele>442.7</ele>
        <time>2014-04-21T10:08:42Z</time>
      </trkpt>
      <trkpt lat="45.16279" lon="4.65104">
        <ele>443.5</ele>
        <time>2014-04-21T10:08:45Z</time>
      </trkpt>
      <trkpt lat="45.16283" lon="4.65108">
        <ele>444.3</ele>
        <time>2014-04-21T10:08:48Z</time>
      </trkpt>
      <trkpt lat="45.16286" lon="4.65115">
        <ele>444.5</ele>
        <time>2014-04-21T10:08:51Z</time>
      </trkpt>
      <trkpt lat="45.1629" lon="4.65122">
        <ele>445</ele>
        <time>2014-04-21T10:08:54Z</time>
      </trkpt>
      <trkpt lat="45.16294" lon="4.65127">
        <ele>445.5</ele>
        <time>2014-04-21T10:08:57Z</time>
      </trkpt>
      <trkpt lat="45.16297" lon="4.65133">
        <ele>445.5</ele>
        <time>2014-04-21T10:08:59Z</time>
      </trkpt>
      <trkpt lat="45.16298" lon="4.6514">
        <ele>445.3</ele>
        <time>2014-04-21T10:09:01Z</time>
      </trkpt>
      <trkpt lat="45.16301" lon="4.65146">
        <ele>445.3</ele>
        <time>2014-04-21T10:09:03Z</time>
      </trkpt>
      <trkpt lat="45.16304" lon="4.65154">
        <ele>445.3</ele>
        <time>2014-04-21T10:09:05Z</time>
      </trkpt>
      <trkpt lat="45.16307" lon="4.6516">
        <ele>445.4</ele>
        <time>2014-04-21T10:09:07Z</time>
      </trkpt>
      <trkpt lat="45.1631" lon="4.65166">
        <ele>445.5</ele>
        <time>2014-04-21T10:09:09Z</time>
      </trkpt>
      <trkpt lat="45.16312" lon="4.65172">
        <ele>445.6</ele>
        <time>2014-04-21T10:09:11Z</time>
      </trkpt>
      <trkpt lat="45.16316" lon="4.65177">
        <ele>445.8</ele>
        <time>2014-04-21T10:09:13Z</time>
      </trkpt>
      <trkpt lat="45.16319" lon="4.65183">
        <ele>445.9</ele>
        <time>2014-04-21T10:09:15Z</time>
      </trkpt>
      <trkpt lat="45.16322" lon="4.65191">
        <ele>445.8</ele>
        <time>2014-04-21T10:09:18Z</time>
      </trkpt>
      <trkpt lat="45.16324" lon="4.65199">
        <ele>445.6</ele>
        <time>2014-04-21T10:09:21Z</time>
      </trkpt>
      <trkpt lat="45.16327" lon="4.65208">
        <ele>445.2</ele>
        <time>2014-04-21T10:09:24Z</time>
      </trkpt>
      <trkpt lat="45.1633" lon="4.65217">
        <ele>445.2</ele>
        <time>2014-04-21T10:09:27Z</time>
      </trkpt>
      <trkpt lat="45.16332" lon="4.65223">
        <ele>445.1</ele>
        <time>2014-04-21T10:09:29Z</time>
      </trkpt>
      <trkpt lat="45.16337" lon="4.65235">
        <ele>444.9</ele>
        <time>2014-04-21T10:09:33Z</time>
      </trkpt>
      <trkpt lat="45.16339" lon="4.6524">
        <ele>444.8</ele>
        <time>2014-04-21T10:09:35Z</time>
      </trkpt>
      <trkpt lat="45.16341" lon="4.65246">
        <ele>444.7</ele>
        <time>2014-04-21T10:09:37Z</time>
      </trkpt>
      <trkpt lat="45.16344" lon="4.65253">
        <ele>444.5</ele>
        <time>2014-04-21T10:09:39Z</time>
      </trkpt>
      <trkpt lat="45.16346" lon="4.6526">
        <ele>444.4</ele>
        <time>2014-04-21T10:09:41Z</time>
      </trkpt>
      <trkpt lat="45.16349" lon="4.65266">
        <ele>444.2</ele>
        <time>2014-04-21T10:09:43Z</time>
      </trkpt>
      <trkpt lat="45.16351" lon="4.65273">
        <ele>444</ele>
        <time>2014-04-21T10:09:45Z</time>
      </trkpt>
      <trkpt lat="45.16354" lon="4.65279">
        <ele>443.8</ele>
        <time>2014-04-21T10:09:47Z</time>
      </trkpt>
      <trkpt lat="45.16357" lon="4.65286">
        <ele>443.6</ele>
        <time>2014-04-21T10:09:49Z</time>
      </trkpt>
      <trkpt lat="45.1636" lon="4.65293">
        <ele>443.3</ele>
        <time>2014-04-21T10:09:51Z</time>
      </trkpt>
      <trkpt lat="45.16362" lon="4.653">
        <ele>443.1</ele>
        <time>2014-04-21T10:09:53Z</time>
      </trkpt>
      <trkpt lat="45.16364" lon="4.65307">
        <ele>442.7</ele>
        <time>2014-04-21T10:09:55Z</time>
      </trkpt>
      <trkpt lat="45.16367" lon="4.65313">
        <ele>442.5</ele>
        <time>2014-04-21T10:09:57Z</time>
      </trkpt>
      <trkpt lat="45.16369" lon="4.6532">
        <ele>442.2</ele>
        <time>2014-04-21T10:09:59Z</time>
      </trkpt>
      <trkpt lat="45.16372" lon="4.65326">
        <ele>441.9</ele>
        <time>2014-04-21T10:10:01Z</time>
      </trkpt>
      <trkpt lat="45.16374" lon="4.65333">
        <ele>441.3</ele>
        <time>2014-04-21T10:10:03Z</time>
      </trkpt>
      <trkpt lat="45.16376" lon="4.6534">
        <ele>441.1</ele>
        <time>2014-04-21T10:10:05Z</time>
      </trkpt>
      <trkpt lat="45.16379" lon="4.65348">
        <ele>440.7</ele>
        <time>2014-04-21T10:10:07Z</time>
      </trkpt>
      <trkpt lat="45.16381" lon="4.65355">
        <ele>440.4</ele>
        <time>2014-04-21T10:10:09Z</time>
      </trkpt>
      <trkpt lat="45.16383" lon="4.65362">
        <ele>440</ele>
        <time>2014-04-21T10:10:11Z</time>
      </trkpt>
      <trkpt lat="45.16386" lon="4.6537">
        <ele>439.7</ele>
        <time>2014-04-21T10:10:13Z</time>
      </trkpt>
      <trkpt lat="45.16388" lon="4.65377">
        <ele>439.3</ele>
        <time>2014-04-21T10:10:15Z</time>
      </trkpt>
      <trkpt lat="45.16391" lon="4.65385">
        <ele>438.9</ele>
        <time>2014-04-21T10:10:17Z</time>
      </trkpt>
      <trkpt lat="45.16393" lon="4.65393">
        <ele>438.5</ele>
        <time>2014-04-21T10:10:19Z</time>
      </trkpt>
      <trkpt lat="45.16395" lon="4.65401">
        <ele>437.9</ele>
        <time>2014-04-21T10:10:21Z</time>
      </trkpt>
      <trkpt lat="45.16397" lon="4.65409">
        <ele>437.3</ele>
        <time>2014-04-21T10:10:23Z</time>
      </trkpt>
      <trkpt lat="45.16399" lon="4.65418">
        <ele>436.7</ele>
        <time>2014-04-21T10:10:25Z</time>
      </trkpt>
      <trkpt lat="45.164" lon="4.65426">
        <ele>436.5</ele>
        <time>2014-04-21T10:10:27Z</time>
      </trkpt>
      <trkpt lat="45.164" lon="4.65434">
        <ele>436</ele>
        <time>2014-04-21T10:10:29Z</time>
      </trkpt>
      <trkpt lat="45.16397" lon="4.65442">
        <ele>435.2</ele>
        <time>2014-04-21T10:10:31Z</time>
      </trkpt>
      <trkpt lat="45.16391" lon="4.65463">
        <ele>433.4</ele>
        <time>2014-04-21T10:10:35Z</time>
      </trkpt>
      <trkpt lat="45.16388" lon="4.65468">
        <ele>433</ele>
        <time>2014-04-21T10:10:36Z</time>
      </trkpt>
      <trkpt lat="45.16385" lon="4.6548">
        <ele>432.1</ele>
        <time>2014-04-21T10:10:38Z</time>
      </trkpt>
      <trkpt lat="45.16381" lon="4.65491">
        <ele>431.3</ele>
        <time>2014-04-21T10:10:40Z</time>
      </trkpt>
      <trkpt lat="45.16379" lon="4.65502">
        <ele>430.8</ele>
        <time>2014-04-21T10:10:42Z</time>
      </trkpt>
      <trkpt lat="45.16377" lon="4.65513">
        <ele>430.8</ele>
        <time>2014-04-21T10:10:44Z</time>
      </trkpt>
      <trkpt lat="45.16375" lon="4.65523">
        <ele>430.7</ele>
        <time>2014-04-21T10:10:46Z</time>
      </trkpt>
      <trkpt lat="45.16372" lon="4.65534">
        <ele>430.8</ele>
        <time>2014-04-21T10:10:48Z</time>
      </trkpt>
      <trkpt lat="45.1637" lon="4.65545">
        <ele>430.7</ele>
        <time>2014-04-21T10:10:50Z</time>
      </trkpt>
      <trkpt lat="45.16368" lon="4.65554">
        <ele>430.8</ele>
        <time>2014-04-21T10:10:52Z</time>
      </trkpt>
      <trkpt lat="45.16367" lon="4.65562">
        <ele>430.7</ele>
        <time>2014-04-21T10:10:54Z</time>
      </trkpt>
      <trkpt lat="45.16365" lon="4.65569">
        <ele>430.7</ele>
        <time>2014-04-21T10:10:56Z</time>
      </trkpt>
      <trkpt lat="45.16365" lon="4.65577">
        <ele>430.8</ele>
        <time>2014-04-21T10:10:58Z</time>
      </trkpt>
      <trkpt lat="45.16364" lon="4.65585">
        <ele>430.9</ele>
        <time>2014-04-21T10:11:00Z</time>
      </trkpt>
      <trkpt lat="45.16365" lon="4.65593">
        <ele>431.3</ele>
        <time>2014-04-21T10:11:02Z</time>
      </trkpt>
      <trkpt lat="45.16365" lon="4.65601">
        <ele>431.7</ele>
        <time>2014-04-21T10:11:04Z</time>
      </trkpt>
      <trkpt lat="45.16365" lon="4.65608">
        <ele>432</ele>
        <time>2014-04-21T10:11:06Z</time>
      </trkpt>
      <trkpt lat="45.16365" lon="4.65615">
        <ele>432.4</ele>
        <time>2014-04-21T10:11:08Z</time>
      </trkpt>
      <trkpt lat="45.16365" lon="4.65624">
        <ele>432.8</ele>
        <time>2014-04-21T10:11:10Z</time>
      </trkpt>
      <trkpt lat="45.16366" lon="4.65634">
        <ele>433.4</ele>
        <time>2014-04-21T10:11:12Z</time>
      </trkpt>
      <trkpt lat="45.16369" lon="4.65644">
        <ele>434.1</ele>
        <time>2014-04-21T10:11:14Z</time>
      </trkpt>
      <trkpt lat="45.16373" lon="4.65652">
        <ele>435</ele>
        <time>2014-04-21T10:11:16Z</time>
      </trkpt>
      <trkpt lat="45.16376" lon="4.6566">
        <ele>435.7</ele>
        <time>2014-04-21T10:11:18Z</time>
      </trkpt>
      <trkpt lat="45.1638" lon="4.65664">
        <ele>436.5</ele>
        <time>2014-04-21T10:11:20Z</time>
      </trkpt>
      <trkpt lat="45.16385" lon="4.65667">
        <ele>437.2</ele>
        <time>2014-04-21T10:11:22Z</time>
      </trkpt>
      <trkpt lat="45.1639" lon="4.65671">
        <ele>438</ele>
        <time>2014-04-21T10:11:24Z</time>
      </trkpt>
      <trkpt lat="45.16395" lon="4.65676">
        <ele>438.7</ele>
        <time>2014-04-21T10:11:26Z</time>
      </trkpt>
      <trkpt lat="45.16393" lon="4.65684">
        <ele>438.9</ele>
        <time>2014-04-21T10:11:29Z</time>
      </trkpt>
      <trkpt lat="45.16392" lon="4.6569">
        <ele>439</ele>
        <time>2014-04-21T10:11:31Z</time>
      </trkpt>
      <trkpt lat="45.16397" lon="4.65693">
        <ele>439.7</ele>
        <time>2014-04-21T10:11:36Z</time>
      </trkpt>
      <trkpt lat="45.16408" lon="4.65698">
        <ele>441.3</ele>
        <time>2014-04-21T10:11:42Z</time>
      </trkpt>
      <trkpt lat="45.16413" lon="4.65699">
        <ele>442.1</ele>
        <time>2014-04-21T10:11:45Z</time>
      </trkpt>
      <trkpt lat="45.16418" lon="4.65702">
        <ele>442.9</ele>
        <time>2014-04-21T10:11:48Z</time>
      </trkpt>
      <trkpt lat="45.16417" lon="4.65709">
        <ele>443</ele>
        <time>2014-04-21T10:11:52Z</time>
      </trkpt>
      <trkpt lat="45.16415" lon="4.65715">
        <ele>443.1</ele>
        <time>2014-04-21T10:11:55Z</time>
      </trkpt>
      <trkpt lat="45.16413" lon="4.65721">
        <ele>443.1</ele>
        <time>2014-04-21T10:11:58Z</time>
      </trkpt>
      <trkpt lat="45.16412" lon="4.65728">
        <ele>443.3</ele>
        <time>2014-04-21T10:12:01Z</time>
      </trkpt>
      <trkpt lat="45.16411" lon="4.65735">
        <ele>443.5</ele>
        <time>2014-04-21T10:12:04Z</time>
      </trkpt>
      <trkpt lat="45.16411" lon="4.65743">
        <ele>443.8</ele>
        <time>2014-04-21T10:12:07Z</time>
      </trkpt>
      <trkpt lat="45.16411" lon="4.6575">
        <ele>444.2</ele>
        <time>2014-04-21T10:12:10Z</time>
      </trkpt>
      <trkpt lat="45.16411" lon="4.65757">
        <ele>444.6</ele>
        <time>2014-04-21T10:12:13Z</time>
      </trkpt>
      <trkpt lat="45.16412" lon="4.65764">
        <ele>445.1</ele>
        <time>2014-04-21T10:12:16Z</time>
      </trkpt>
      <trkpt lat="45.16412" lon="4.65771">
        <ele>445.5</ele>
        <time>2014-04-21T10:12:19Z</time>
      </trkpt>
      <trkpt lat="45.16412" lon="4.65778">
        <ele>446</ele>
        <time>2014-04-21T10:12:22Z</time>
      </trkpt>
      <trkpt lat="45.16412" lon="4.65785">
        <ele>446.4</ele>
        <time>2014-04-21T10:12:25Z</time>
      </trkpt>
      <trkpt lat="45.16413" lon="4.65792">
        <ele>446.9</ele>
        <time>2014-04-21T10:12:28Z</time>
      </trkpt>
      <trkpt lat="45.16413" lon="4.65799">
        <ele>447.5</ele>
        <time>2014-04-21T10:12:31Z</time>
      </trkpt>
      <trkpt lat="45.16414" lon="4.65808">
        <ele>448.1</ele>
        <time>2014-04-21T10:12:34Z</time>
      </trkpt>
      <trkpt lat="45.16415" lon="4.65816">
        <ele>448.7</ele>
        <time>2014-04-21T10:12:37Z</time>
      </trkpt>
      <trkpt lat="45.16418" lon="4.65833">
        <ele>450</ele>
        <time>2014-04-21T10:12:43Z</time>
      </trkpt>
      <trkpt lat="45.1642" lon="4.65841">
        <ele>450.9</ele>
        <time>2014-04-21T10:12:46Z</time>
      </trkpt>
      <trkpt lat="45.16421" lon="4.65849">
        <ele>451.7</ele>
        <time>2014-04-21T10:12:49Z</time>
      </trkpt>
      <trkpt lat="45.16422" lon="4.65858">
        <ele>452.6</ele>
        <time>2014-04-21T10:12:52Z</time>
      </trkpt>
      <trkpt lat="45.16423" lon="4.65867">
        <ele>453.3</ele>
        <time>2014-04-21T10:12:55Z</time>
      </trkpt>
      <trkpt lat="45.16422" lon="4.65875">
        <ele>454</ele>
        <time>2014-04-21T10:12:58Z</time>
      </trkpt>
      <trkpt lat="45.16421" lon="4.65884">
        <ele>454.6</ele>
        <time>2014-04-21T10:13:01Z</time>
      </trkpt>
      <trkpt lat="45.16419" lon="4.65893">
        <ele>455.1</ele>
        <time>2014-04-21T10:13:04Z</time>
      </trkpt>
      <trkpt lat="45.16417" lon="4.65901">
        <ele>455.7</ele>
        <time>2014-04-21T10:13:07Z</time>
      </trkpt>
      <trkpt lat="45.16416" lon="4.65909">
        <ele>456.3</ele>
        <time>2014-04-21T10:13:10Z</time>
      </trkpt>
      <trkpt lat="45.16415" lon="4.65917">
        <ele>456.8</ele>
        <time>2014-04-21T10:13:13Z</time>
      </trkpt>
      <trkpt lat="45.16415" lon="4.65924">
        <ele>457.2</ele>
        <time>2014-04-21T10:13:16Z</time>
      </trkpt>
      <trkpt lat="45.16418" lon="4.65932">
        <ele>457.7</ele>
        <time>2014-04-21T10:13:19Z</time>
      </trkpt>
      <trkpt lat="45.1642" lon="4.65938">
        <ele>458.2</ele>
        <time>2014-04-21T10:13:22Z</time>
      </trkpt>
      <trkpt lat="45.16421" lon="4.65945">
        <ele>458.6</ele>
        <time>2014-04-21T10:13:25Z</time>
      </trkpt>
      <trkpt lat="45.16423" lon="4.65952">
        <ele>458.9</ele>
        <time>2014-04-21T10:13:28Z</time>
      </trkpt>
      <trkpt lat="45.16423" lon="4.65959">
        <ele>459.3</ele>
        <time>2014-04-21T10:13:31Z</time>
      </trkpt>
      <trkpt lat="45.16424" lon="4.65966">
        <ele>459.6</ele>
        <time>2014-04-21T10:13:34Z</time>
      </trkpt>
      <trkpt lat="45.16424" lon="4.65972">
        <ele>459.9</ele>
        <time>2014-04-21T10:13:37Z</time>
      </trkpt>
      <trkpt lat="45.16424" lon="4.65979">
        <ele>460.3</ele>
        <time>2014-04-21T10:13:40Z</time>
      </trkpt>
      <trkpt lat="45.16426" lon="4.65993">
        <ele>461</ele>
        <time>2014-04-21T10:13:46Z</time>
      </trkpt>
      <trkpt lat="45.16426" lon="4.66">
        <ele>461.3</ele>
        <time>2014-04-21T10:13:49Z</time>
      </trkpt>
      <trkpt lat="45.16427" lon="4.66006">
        <ele>461.4</ele>
        <time>2014-04-21T10:13:52Z</time>
      </trkpt>
      <trkpt lat="45.16429" lon="4.66014">
        <ele>461.4</ele>
        <time>2014-04-21T10:13:56Z</time>
      </trkpt>
      <trkpt lat="45.16431" lon="4.66023">
        <ele>461.5</ele>
        <time>2014-04-21T10:13:59Z</time>
      </trkpt>
      <trkpt lat="45.16431" lon="4.66032">
        <ele>461.5</ele>
        <time>2014-04-21T10:14:02Z</time>
      </trkpt>
      <trkpt lat="45.1643" lon="4.6604">
        <ele>461.5</ele>
        <time>2014-04-21T10:14:05Z</time>
      </trkpt>
      <trkpt lat="45.16429" lon="4.66049">
        <ele>461.5</ele>
        <time>2014-04-21T10:14:08Z</time>
      </trkpt>
      <trkpt lat="45.1643" lon="4.66059">
        <ele>461.5</ele>
        <time>2014-04-21T10:14:11Z</time>
      </trkpt>
      <trkpt lat="45.1643" lon="4.66066">
        <ele>461.5</ele>
        <time>2014-04-21T10:14:13Z</time>
      </trkpt>
      <trkpt lat="45.16431" lon="4.66075">
        <ele>461.5</ele>
        <time>2014-04-21T10:14:15Z</time>
      </trkpt>
      <trkpt lat="45.16431" lon="4.66085">
        <ele>461.5</ele>
        <time>2014-04-21T10:14:17Z</time>
      </trkpt>
      <trkpt lat="45.16432" lon="4.66096">
        <ele>461.3</ele>
        <time>2014-04-21T10:14:19Z</time>
      </trkpt>
      <trkpt lat="45.16433" lon="4.66107">
        <ele>461</ele>
        <time>2014-04-21T10:14:21Z</time>
      </trkpt>
      <trkpt lat="45.16435" lon="4.66119">
        <ele>460.9</ele>
        <time>2014-04-21T10:14:23Z</time>
      </trkpt>
      <trkpt lat="45.16437" lon="4.6613">
        <ele>460.8</ele>
        <time>2014-04-21T10:14:25Z</time>
      </trkpt>
      <trkpt lat="45.16439" lon="4.66142">
        <ele>460.7</ele>
        <time>2014-04-21T10:14:27Z</time>
      </trkpt>
      <trkpt lat="45.16441" lon="4.66149">
        <ele>460.7</ele>
        <time>2014-04-21T10:14:29Z</time>
      </trkpt>
      <trkpt lat="45.16437" lon="4.66152">
        <ele>460.3</ele>
        <time>2014-04-21T10:14:31Z</time>
      </trkpt>
      <trkpt lat="45.16433" lon="4.66153">
        <ele>459.9</ele>
        <time>2014-04-21T10:14:33Z</time>
      </trkpt>
      <trkpt lat="45.16427" lon="4.66155">
        <ele>459.3</ele>
        <time>2014-04-21T10:14:36Z</time>
      </trkpt>
      <trkpt lat="45.16421" lon="4.6616">
        <ele>458.7</ele>
        <time>2014-04-21T10:14:39Z</time>
      </trkpt>
      <trkpt lat="45.16416" lon="4.66164">
        <ele>458.1</ele>
        <time>2014-04-21T10:14:42Z</time>
      </trkpt>
      <trkpt lat="45.16412" lon="4.66176">
        <ele>457.6</ele>
        <time>2014-04-21T10:14:46Z</time>
      </trkpt>
      <trkpt lat="45.16412" lon="4.66183">
        <ele>457.5</ele>
        <time>2014-04-21T10:14:48Z</time>
      </trkpt>
      <trkpt lat="45.1641" lon="4.6619">
        <ele>457.3</ele>
        <time>2014-04-21T10:14:50Z</time>
      </trkpt>
      <trkpt lat="45.16409" lon="4.66198">
        <ele>457.1</ele>
        <time>2014-04-21T10:14:53Z</time>
      </trkpt>
      <trkpt lat="45.16409" lon="4.66206">
        <ele>457</ele>
        <time>2014-04-21T10:14:57Z</time>
      </trkpt>
      <trkpt lat="45.16409" lon="4.66215">
        <ele>456.8</ele>
        <time>2014-04-21T10:15:00Z</time>
      </trkpt>
      <trkpt lat="45.16409" lon="4.66222">
        <ele>456.7</ele>
        <time>2014-04-21T10:15:03Z</time>
      </trkpt>
      <trkpt lat="45.16405" lon="4.66228">
        <ele>456.4</ele>
        <time>2014-04-21T10:15:06Z</time>
      </trkpt>
      <trkpt lat="45.16403" lon="4.66234">
        <ele>456.1</ele>
        <time>2014-04-21T10:15:11Z</time>
      </trkpt>
      <trkpt lat="45.164" lon="4.6624">
        <ele>455.8</ele>
        <time>2014-04-21T10:15:16Z</time>
      </trkpt>
      <trkpt lat="45.16397" lon="4.66244">
        <ele>455.4</ele>
        <time>2014-04-21T10:15:57Z</time>
      </trkpt>
    </trkseg>
  </trk>
</gpx>